<?xml version="1.0" encoding="UTF-8" standalone="no" ?>
<gpx xmlns="http://www.topografix.com/GPX/1/1" xmlns:xsi="http://www.w3.org/2001/XMLSchema-instance" xsi:schemaLocation="http://www.topografix.com/GPX/1/1 http://www.topografix.com/GPX/1/1/gpx.xsd" version="1.1" creator="VisuGPX - https://www.visugpx.com">
  <metadata>
    <name>Mountain Trail: traversée etale -&gt; Mt Charvin</name>
    <desc><![CDATA[Trace de Xav Perrin]]></desc>
  </metadata>
  <trk>
    <name><![CDATA[Mountain Trail: traversée etale -> Mt Charvin]]></name>
    <extensions>
      <line xmlns="http://www.topografix.com/GPX/gpx_style/0/2">
        <color>0000FF</color>
        <width>4</width>
      </line>
    </extensions>
    <trkseg>
      <trkpt lat="45.83689" lon="6.41733">
        <ele>1142</ele>
        <time>2018-10-17T06:43:31Z</time>
      </trkpt>
      <trkpt lat="45.83689" lon="6.41733">
        <ele>1142</ele>
        <time>2018-10-17T06:43:32Z</time>
      </trkpt>
      <trkpt lat="45.83689" lon="6.41733">
        <ele>1142</ele>
        <time>2018-10-17T06:43:33Z</time>
      </trkpt>
      <trkpt lat="45.83689" lon="6.41733">
        <ele>1143</ele>
        <time>2018-10-17T06:43:34Z</time>
      </trkpt>
      <trkpt lat="45.83689" lon="6.41733">
        <ele>1143</ele>
        <time>2018-10-17T06:43:35Z</time>
      </trkpt>
      <trkpt lat="45.83689" lon="6.41733">
        <ele>1143</ele>
        <time>2018-10-17T06:43:36Z</time>
      </trkpt>
      <trkpt lat="45.83689" lon="6.41733">
        <ele>1143</ele>
        <time>2018-10-17T06:43:37Z</time>
      </trkpt>
      <trkpt lat="45.8369" lon="6.41737">
        <ele>1143</ele>
        <time>2018-10-17T06:43:38Z</time>
      </trkpt>
      <trkpt lat="45.8369" lon="6.41737">
        <ele>1143</ele>
        <time>2018-10-17T06:43:39Z</time>
      </trkpt>
      <trkpt lat="45.83691" lon="6.4174">
        <ele>1143</ele>
        <time>2018-10-17T06:43:40Z</time>
      </trkpt>
      <trkpt lat="45.83691" lon="6.4174">
        <ele>1143</ele>
        <time>2018-10-17T06:43:41Z</time>
      </trkpt>
      <trkpt lat="45.83691" lon="6.41742">
        <ele>1143</ele>
        <time>2018-10-17T06:43:42Z</time>
      </trkpt>
      <trkpt lat="45.83691" lon="6.41742">
        <ele>1143</ele>
        <time>2018-10-17T06:43:43Z</time>
      </trkpt>
      <trkpt lat="45.83691" lon="6.41742">
        <ele>1143</ele>
        <time>2018-10-17T06:43:44Z</time>
      </trkpt>
      <trkpt lat="45.83693" lon="6.41745">
        <ele>1143</ele>
        <time>2018-10-17T06:43:45Z</time>
      </trkpt>
      <trkpt lat="45.83693" lon="6.41745">
        <ele>1144</ele>
        <time>2018-10-17T06:43:46Z</time>
      </trkpt>
      <trkpt lat="45.83693" lon="6.41745">
        <ele>1144</ele>
        <time>2018-10-17T06:43:47Z</time>
      </trkpt>
      <trkpt lat="45.83694" lon="6.41747">
        <ele>1144</ele>
        <time>2018-10-17T06:43:48Z</time>
      </trkpt>
      <trkpt lat="45.83694" lon="6.41747">
        <ele>1144</ele>
        <time>2018-10-17T06:43:49Z</time>
      </trkpt>
      <trkpt lat="45.83694" lon="6.41747">
        <ele>1144</ele>
        <time>2018-10-17T06:43:50Z</time>
      </trkpt>
      <trkpt lat="45.83695" lon="6.4175">
        <ele>1144</ele>
        <time>2018-10-17T06:43:51Z</time>
      </trkpt>
      <trkpt lat="45.83695" lon="6.4175">
        <ele>1144</ele>
        <time>2018-10-17T06:43:52Z</time>
      </trkpt>
      <trkpt lat="45.83695" lon="6.4175">
        <ele>1145</ele>
        <time>2018-10-17T06:43:53Z</time>
      </trkpt>
      <trkpt lat="45.83695" lon="6.4175">
        <ele>1145</ele>
        <time>2018-10-17T06:43:54Z</time>
      </trkpt>
      <trkpt lat="45.83696" lon="6.41754">
        <ele>1145</ele>
        <time>2018-10-17T06:43:55Z</time>
      </trkpt>
      <trkpt lat="45.83696" lon="6.41754">
        <ele>1146</ele>
        <time>2018-10-17T06:43:56Z</time>
      </trkpt>
      <trkpt lat="45.83696" lon="6.41754">
        <ele>1146</ele>
        <time>2018-10-17T06:43:57Z</time>
      </trkpt>
      <trkpt lat="45.83698" lon="6.41756">
        <ele>1147</ele>
        <time>2018-10-17T06:43:58Z</time>
      </trkpt>
      <trkpt lat="45.83698" lon="6.41756">
        <ele>1147</ele>
        <time>2018-10-17T06:43:59Z</time>
      </trkpt>
      <trkpt lat="45.83698" lon="6.41756">
        <ele>1147</ele>
        <time>2018-10-17T06:44:00Z</time>
      </trkpt>
      <trkpt lat="45.83699" lon="6.41759">
        <ele>1147</ele>
        <time>2018-10-17T06:44:01Z</time>
      </trkpt>
      <trkpt lat="45.83699" lon="6.41759">
        <ele>1148</ele>
        <time>2018-10-17T06:44:02Z</time>
      </trkpt>
      <trkpt lat="45.837" lon="6.41761">
        <ele>1148</ele>
        <time>2018-10-17T06:44:03Z</time>
      </trkpt>
      <trkpt lat="45.837" lon="6.41761">
        <ele>1149</ele>
        <time>2018-10-17T06:44:04Z</time>
      </trkpt>
      <trkpt lat="45.837" lon="6.41761">
        <ele>1149</ele>
        <time>2018-10-17T06:44:05Z</time>
      </trkpt>
      <trkpt lat="45.83702" lon="6.41764">
        <ele>1149</ele>
        <time>2018-10-17T06:44:06Z</time>
      </trkpt>
      <trkpt lat="45.83702" lon="6.41764">
        <ele>1149</ele>
        <time>2018-10-17T06:44:07Z</time>
      </trkpt>
      <trkpt lat="45.83702" lon="6.41764">
        <ele>1150</ele>
        <time>2018-10-17T06:44:08Z</time>
      </trkpt>
      <trkpt lat="45.83703" lon="6.41766">
        <ele>1150</ele>
        <time>2018-10-17T06:44:09Z</time>
      </trkpt>
      <trkpt lat="45.83703" lon="6.41766">
        <ele>1150</ele>
        <time>2018-10-17T06:44:10Z</time>
      </trkpt>
      <trkpt lat="45.83705" lon="6.41768">
        <ele>1150</ele>
        <time>2018-10-17T06:44:11Z</time>
      </trkpt>
      <trkpt lat="45.83705" lon="6.41768">
        <ele>1151</ele>
        <time>2018-10-17T06:44:12Z</time>
      </trkpt>
      <trkpt lat="45.83705" lon="6.41768">
        <ele>1151</ele>
        <time>2018-10-17T06:44:13Z</time>
      </trkpt>
      <trkpt lat="45.83707" lon="6.41771">
        <ele>1152</ele>
        <time>2018-10-17T06:44:14Z</time>
      </trkpt>
      <trkpt lat="45.83707" lon="6.41771">
        <ele>1153</ele>
        <time>2018-10-17T06:44:15Z</time>
      </trkpt>
      <trkpt lat="45.83708" lon="6.41773">
        <ele>1153</ele>
        <time>2018-10-17T06:44:16Z</time>
      </trkpt>
      <trkpt lat="45.83708" lon="6.41773">
        <ele>1153</ele>
        <time>2018-10-17T06:44:17Z</time>
      </trkpt>
      <trkpt lat="45.83708" lon="6.41773">
        <ele>1154</ele>
        <time>2018-10-17T06:44:18Z</time>
      </trkpt>
      <trkpt lat="45.83709" lon="6.41776">
        <ele>1154</ele>
        <time>2018-10-17T06:44:19Z</time>
      </trkpt>
      <trkpt lat="45.83709" lon="6.41776">
        <ele>1154</ele>
        <time>2018-10-17T06:44:20Z</time>
      </trkpt>
      <trkpt lat="45.8371" lon="6.41779">
        <ele>1154</ele>
        <time>2018-10-17T06:44:21Z</time>
      </trkpt>
      <trkpt lat="45.8371" lon="6.41779">
        <ele>1154</ele>
        <time>2018-10-17T06:44:22Z</time>
      </trkpt>
      <trkpt lat="45.8371" lon="6.41779">
        <ele>1154</ele>
        <time>2018-10-17T06:44:23Z</time>
      </trkpt>
      <trkpt lat="45.83711" lon="6.41782">
        <ele>1154</ele>
        <time>2018-10-17T06:44:24Z</time>
      </trkpt>
      <trkpt lat="45.83711" lon="6.41782">
        <ele>1155</ele>
        <time>2018-10-17T06:44:25Z</time>
      </trkpt>
      <trkpt lat="45.83712" lon="6.41784">
        <ele>1155</ele>
        <time>2018-10-17T06:44:26Z</time>
      </trkpt>
      <trkpt lat="45.83712" lon="6.41784">
        <ele>1155</ele>
        <time>2018-10-17T06:44:27Z</time>
      </trkpt>
      <trkpt lat="45.83713" lon="6.41787">
        <ele>1155</ele>
        <time>2018-10-17T06:44:28Z</time>
      </trkpt>
      <trkpt lat="45.83713" lon="6.41787">
        <ele>1155</ele>
        <time>2018-10-17T06:44:29Z</time>
      </trkpt>
      <trkpt lat="45.83714" lon="6.41791">
        <ele>1155</ele>
        <time>2018-10-17T06:44:30Z</time>
      </trkpt>
      <trkpt lat="45.83714" lon="6.41791">
        <ele>1155</ele>
        <time>2018-10-17T06:44:31Z</time>
      </trkpt>
      <trkpt lat="45.83714" lon="6.41793">
        <ele>1155</ele>
        <time>2018-10-17T06:44:32Z</time>
      </trkpt>
      <trkpt lat="45.83714" lon="6.41793">
        <ele>1155</ele>
        <time>2018-10-17T06:44:33Z</time>
      </trkpt>
      <trkpt lat="45.83714" lon="6.41796">
        <ele>1155</ele>
        <time>2018-10-17T06:44:34Z</time>
      </trkpt>
      <trkpt lat="45.83714" lon="6.41796">
        <ele>1154</ele>
        <time>2018-10-17T06:44:35Z</time>
      </trkpt>
      <trkpt lat="45.83714" lon="6.418">
        <ele>1154</ele>
        <time>2018-10-17T06:44:36Z</time>
      </trkpt>
      <trkpt lat="45.83714" lon="6.418">
        <ele>1154</ele>
        <time>2018-10-17T06:44:37Z</time>
      </trkpt>
      <trkpt lat="45.83713" lon="6.41802">
        <ele>1154</ele>
        <time>2018-10-17T06:44:38Z</time>
      </trkpt>
      <trkpt lat="45.83713" lon="6.41802">
        <ele>1154</ele>
        <time>2018-10-17T06:44:39Z</time>
      </trkpt>
      <trkpt lat="45.83713" lon="6.41802">
        <ele>1154</ele>
        <time>2018-10-17T06:44:40Z</time>
      </trkpt>
      <trkpt lat="45.83713" lon="6.41802">
        <ele>1155</ele>
        <time>2018-10-17T06:44:41Z</time>
      </trkpt>
      <trkpt lat="45.83713" lon="6.41802">
        <ele>1156</ele>
        <time>2018-10-17T06:44:42Z</time>
      </trkpt>
      <trkpt lat="45.83713" lon="6.41802">
        <ele>1156</ele>
        <time>2018-10-17T06:44:43Z</time>
      </trkpt>
      <trkpt lat="45.83713" lon="6.41805">
        <ele>1156</ele>
        <time>2018-10-17T06:44:44Z</time>
      </trkpt>
      <trkpt lat="45.83713" lon="6.41805">
        <ele>1156</ele>
        <time>2018-10-17T06:44:45Z</time>
      </trkpt>
      <trkpt lat="45.83713" lon="6.41805">
        <ele>1156</ele>
        <time>2018-10-17T06:44:46Z</time>
      </trkpt>
      <trkpt lat="45.83711" lon="6.41806">
        <ele>1156</ele>
        <time>2018-10-17T06:44:47Z</time>
      </trkpt>
      <trkpt lat="45.83711" lon="6.41806">
        <ele>1156</ele>
        <time>2018-10-17T06:44:48Z</time>
      </trkpt>
      <trkpt lat="45.8371" lon="6.41806">
        <ele>1157</ele>
        <time>2018-10-17T06:44:49Z</time>
      </trkpt>
      <trkpt lat="45.8371" lon="6.41806">
        <ele>1157</ele>
        <time>2018-10-17T06:44:50Z</time>
      </trkpt>
      <trkpt lat="45.83707" lon="6.41805">
        <ele>1158</ele>
        <time>2018-10-17T06:44:51Z</time>
      </trkpt>
      <trkpt lat="45.83707" lon="6.41805">
        <ele>1158</ele>
        <time>2018-10-17T06:44:52Z</time>
      </trkpt>
      <trkpt lat="45.83707" lon="6.41805">
        <ele>1158</ele>
        <time>2018-10-17T06:44:53Z</time>
      </trkpt>
      <trkpt lat="45.83707" lon="6.41805">
        <ele>1159</ele>
        <time>2018-10-17T06:44:54Z</time>
      </trkpt>
      <trkpt lat="45.83707" lon="6.41805">
        <ele>1159</ele>
        <time>2018-10-17T06:44:55Z</time>
      </trkpt>
      <trkpt lat="45.83707" lon="6.41805">
        <ele>1159</ele>
        <time>2018-10-17T06:44:56Z</time>
      </trkpt>
      <trkpt lat="45.83704" lon="6.41805">
        <ele>1159</ele>
        <time>2018-10-17T06:44:57Z</time>
      </trkpt>
      <trkpt lat="45.83704" lon="6.41805">
        <ele>1159</ele>
        <time>2018-10-17T06:44:58Z</time>
      </trkpt>
      <trkpt lat="45.83702" lon="6.41806">
        <ele>1159</ele>
        <time>2018-10-17T06:44:59Z</time>
      </trkpt>
      <trkpt lat="45.83702" lon="6.41806">
        <ele>1159</ele>
        <time>2018-10-17T06:45:00Z</time>
      </trkpt>
      <trkpt lat="45.837" lon="6.41806">
        <ele>1160</ele>
        <time>2018-10-17T06:45:01Z</time>
      </trkpt>
      <trkpt lat="45.837" lon="6.41806">
        <ele>1160</ele>
        <time>2018-10-17T06:45:02Z</time>
      </trkpt>
      <trkpt lat="45.83698" lon="6.41807">
        <ele>1161</ele>
        <time>2018-10-17T06:45:03Z</time>
      </trkpt>
      <trkpt lat="45.83698" lon="6.41807">
        <ele>1161</ele>
        <time>2018-10-17T06:45:04Z</time>
      </trkpt>
      <trkpt lat="45.83695" lon="6.41807">
        <ele>1161</ele>
        <time>2018-10-17T06:45:05Z</time>
      </trkpt>
      <trkpt lat="45.83695" lon="6.41807">
        <ele>1161</ele>
        <time>2018-10-17T06:45:06Z</time>
      </trkpt>
      <trkpt lat="45.83693" lon="6.41808">
        <ele>1162</ele>
        <time>2018-10-17T06:45:07Z</time>
      </trkpt>
      <trkpt lat="45.83693" lon="6.41808">
        <ele>1162</ele>
        <time>2018-10-17T06:45:08Z</time>
      </trkpt>
      <trkpt lat="45.83691" lon="6.41808">
        <ele>1162</ele>
        <time>2018-10-17T06:45:09Z</time>
      </trkpt>
      <trkpt lat="45.83691" lon="6.41808">
        <ele>1162</ele>
        <time>2018-10-17T06:45:10Z</time>
      </trkpt>
      <trkpt lat="45.83691" lon="6.41808">
        <ele>1163</ele>
        <time>2018-10-17T06:45:11Z</time>
      </trkpt>
      <trkpt lat="45.83689" lon="6.41809">
        <ele>1163</ele>
        <time>2018-10-17T06:45:12Z</time>
      </trkpt>
      <trkpt lat="45.83689" lon="6.41809">
        <ele>1163</ele>
        <time>2018-10-17T06:45:13Z</time>
      </trkpt>
      <trkpt lat="45.83689" lon="6.41809">
        <ele>1163</ele>
        <time>2018-10-17T06:45:14Z</time>
      </trkpt>
      <trkpt lat="45.83689" lon="6.41809">
        <ele>1163</ele>
        <time>2018-10-17T06:45:15Z</time>
      </trkpt>
      <trkpt lat="45.83686" lon="6.41809">
        <ele>1163</ele>
        <time>2018-10-17T06:45:16Z</time>
      </trkpt>
      <trkpt lat="45.83686" lon="6.41809">
        <ele>1164</ele>
        <time>2018-10-17T06:45:17Z</time>
      </trkpt>
      <trkpt lat="45.83684" lon="6.41809">
        <ele>1164</ele>
        <time>2018-10-17T06:45:18Z</time>
      </trkpt>
      <trkpt lat="45.83684" lon="6.41809">
        <ele>1164</ele>
        <time>2018-10-17T06:45:19Z</time>
      </trkpt>
      <trkpt lat="45.83684" lon="6.41809">
        <ele>1165</ele>
        <time>2018-10-17T06:45:20Z</time>
      </trkpt>
      <trkpt lat="45.83682" lon="6.41811">
        <ele>1165</ele>
        <time>2018-10-17T06:45:21Z</time>
      </trkpt>
      <trkpt lat="45.83682" lon="6.41811">
        <ele>1165</ele>
        <time>2018-10-17T06:45:22Z</time>
      </trkpt>
      <trkpt lat="45.83682" lon="6.41811">
        <ele>1165</ele>
        <time>2018-10-17T06:45:23Z</time>
      </trkpt>
      <trkpt lat="45.83681" lon="6.41813">
        <ele>1165</ele>
        <time>2018-10-17T06:45:25Z</time>
      </trkpt>
      <trkpt lat="45.83681" lon="6.41813">
        <ele>1166</ele>
        <time>2018-10-17T06:45:26Z</time>
      </trkpt>
      <trkpt lat="45.83681" lon="6.41813">
        <ele>1166</ele>
        <time>2018-10-17T06:45:27Z</time>
      </trkpt>
      <trkpt lat="45.83681" lon="6.41813">
        <ele>1167</ele>
        <time>2018-10-17T06:45:28Z</time>
      </trkpt>
      <trkpt lat="45.83681" lon="6.41813">
        <ele>1167</ele>
        <time>2018-10-17T06:45:29Z</time>
      </trkpt>
      <trkpt lat="45.83682" lon="6.41815">
        <ele>1167</ele>
        <time>2018-10-17T06:45:30Z</time>
      </trkpt>
      <trkpt lat="45.83682" lon="6.41815">
        <ele>1168</ele>
        <time>2018-10-17T06:45:31Z</time>
      </trkpt>
      <trkpt lat="45.83682" lon="6.41815">
        <ele>1168</ele>
        <time>2018-10-17T06:45:32Z</time>
      </trkpt>
      <trkpt lat="45.83682" lon="6.41815">
        <ele>1168</ele>
        <time>2018-10-17T06:45:33Z</time>
      </trkpt>
      <trkpt lat="45.83684" lon="6.41817">
        <ele>1168</ele>
        <time>2018-10-17T06:45:34Z</time>
      </trkpt>
      <trkpt lat="45.83684" lon="6.41817">
        <ele>1168</ele>
        <time>2018-10-17T06:45:35Z</time>
      </trkpt>
      <trkpt lat="45.83684" lon="6.41817">
        <ele>1169</ele>
        <time>2018-10-17T06:45:36Z</time>
      </trkpt>
      <trkpt lat="45.83685" lon="6.41819">
        <ele>1169</ele>
        <time>2018-10-17T06:45:37Z</time>
      </trkpt>
      <trkpt lat="45.83685" lon="6.41819">
        <ele>1169</ele>
        <time>2018-10-17T06:45:38Z</time>
      </trkpt>
      <trkpt lat="45.83685" lon="6.41819">
        <ele>1169</ele>
        <time>2018-10-17T06:45:39Z</time>
      </trkpt>
      <trkpt lat="45.83686" lon="6.41821">
        <ele>1169</ele>
        <time>2018-10-17T06:45:40Z</time>
      </trkpt>
      <trkpt lat="45.83686" lon="6.41821">
        <ele>1169</ele>
        <time>2018-10-17T06:45:41Z</time>
      </trkpt>
      <trkpt lat="45.83686" lon="6.41821">
        <ele>1169</ele>
        <time>2018-10-17T06:45:42Z</time>
      </trkpt>
      <trkpt lat="45.83688" lon="6.41824">
        <ele>1169</ele>
        <time>2018-10-17T06:45:43Z</time>
      </trkpt>
      <trkpt lat="45.83688" lon="6.41824">
        <ele>1169</ele>
        <time>2018-10-17T06:45:44Z</time>
      </trkpt>
      <trkpt lat="45.83688" lon="6.41824">
        <ele>1169</ele>
        <time>2018-10-17T06:45:45Z</time>
      </trkpt>
      <trkpt lat="45.83689" lon="6.41826">
        <ele>1169</ele>
        <time>2018-10-17T06:45:46Z</time>
      </trkpt>
      <trkpt lat="45.83689" lon="6.41826">
        <ele>1170</ele>
        <time>2018-10-17T06:45:47Z</time>
      </trkpt>
      <trkpt lat="45.83689" lon="6.41826">
        <ele>1170</ele>
        <time>2018-10-17T06:45:48Z</time>
      </trkpt>
      <trkpt lat="45.8369" lon="6.41829">
        <ele>1171</ele>
        <time>2018-10-17T06:45:49Z</time>
      </trkpt>
      <trkpt lat="45.8369" lon="6.41829">
        <ele>1172</ele>
        <time>2018-10-17T06:45:50Z</time>
      </trkpt>
      <trkpt lat="45.8369" lon="6.41829">
        <ele>1172</ele>
        <time>2018-10-17T06:45:51Z</time>
      </trkpt>
      <trkpt lat="45.8369" lon="6.41829">
        <ele>1172</ele>
        <time>2018-10-17T06:45:52Z</time>
      </trkpt>
      <trkpt lat="45.8369" lon="6.41829">
        <ele>1172</ele>
        <time>2018-10-17T06:45:53Z</time>
      </trkpt>
      <trkpt lat="45.8369" lon="6.41829">
        <ele>1172</ele>
        <time>2018-10-17T06:45:54Z</time>
      </trkpt>
      <trkpt lat="45.83692" lon="6.41831">
        <ele>1172</ele>
        <time>2018-10-17T06:45:55Z</time>
      </trkpt>
      <trkpt lat="45.83692" lon="6.41831">
        <ele>1173</ele>
        <time>2018-10-17T06:45:56Z</time>
      </trkpt>
      <trkpt lat="45.83692" lon="6.41831">
        <ele>1173</ele>
        <time>2018-10-17T06:45:57Z</time>
      </trkpt>
      <trkpt lat="45.83693" lon="6.41831">
        <ele>1173</ele>
        <time>2018-10-17T06:45:58Z</time>
      </trkpt>
      <trkpt lat="45.83693" lon="6.41831">
        <ele>1174</ele>
        <time>2018-10-17T06:45:59Z</time>
      </trkpt>
      <trkpt lat="45.83693" lon="6.41831">
        <ele>1174</ele>
        <time>2018-10-17T06:46:00Z</time>
      </trkpt>
      <trkpt lat="45.83695" lon="6.41834">
        <ele>1174</ele>
        <time>2018-10-17T06:46:01Z</time>
      </trkpt>
      <trkpt lat="45.83696" lon="6.41836">
        <ele>1174</ele>
        <time>2018-10-17T06:46:02Z</time>
      </trkpt>
      <trkpt lat="45.83696" lon="6.41836">
        <ele>1174</ele>
        <time>2018-10-17T06:46:03Z</time>
      </trkpt>
      <trkpt lat="45.83696" lon="6.41836">
        <ele>1175</ele>
        <time>2018-10-17T06:46:04Z</time>
      </trkpt>
      <trkpt lat="45.83696" lon="6.4184">
        <ele>1175</ele>
        <time>2018-10-17T06:46:05Z</time>
      </trkpt>
      <trkpt lat="45.83696" lon="6.4184">
        <ele>1175</ele>
        <time>2018-10-17T06:46:06Z</time>
      </trkpt>
      <trkpt lat="45.83695" lon="6.41843">
        <ele>1175</ele>
        <time>2018-10-17T06:46:07Z</time>
      </trkpt>
      <trkpt lat="45.83695" lon="6.41843">
        <ele>1176</ele>
        <time>2018-10-17T06:46:08Z</time>
      </trkpt>
      <trkpt lat="45.83694" lon="6.41845">
        <ele>1176</ele>
        <time>2018-10-17T06:46:09Z</time>
      </trkpt>
      <trkpt lat="45.83694" lon="6.41845">
        <ele>1176</ele>
        <time>2018-10-17T06:46:10Z</time>
      </trkpt>
      <trkpt lat="45.83694" lon="6.41845">
        <ele>1177</ele>
        <time>2018-10-17T06:46:11Z</time>
      </trkpt>
      <trkpt lat="45.83692" lon="6.41848">
        <ele>1177</ele>
        <time>2018-10-17T06:46:12Z</time>
      </trkpt>
      <trkpt lat="45.83692" lon="6.41848">
        <ele>1177</ele>
        <time>2018-10-17T06:46:13Z</time>
      </trkpt>
      <trkpt lat="45.8369" lon="6.41848">
        <ele>1177</ele>
        <time>2018-10-17T06:46:14Z</time>
      </trkpt>
      <trkpt lat="45.8369" lon="6.41848">
        <ele>1177</ele>
        <time>2018-10-17T06:46:15Z</time>
      </trkpt>
      <trkpt lat="45.8369" lon="6.41848">
        <ele>1178</ele>
        <time>2018-10-17T06:46:16Z</time>
      </trkpt>
      <trkpt lat="45.83688" lon="6.41849">
        <ele>1178</ele>
        <time>2018-10-17T06:46:17Z</time>
      </trkpt>
      <trkpt lat="45.83688" lon="6.41849">
        <ele>1179</ele>
        <time>2018-10-17T06:46:18Z</time>
      </trkpt>
      <trkpt lat="45.83688" lon="6.41849">
        <ele>1179</ele>
        <time>2018-10-17T06:46:19Z</time>
      </trkpt>
      <trkpt lat="45.83686" lon="6.41851">
        <ele>1180</ele>
        <time>2018-10-17T06:46:20Z</time>
      </trkpt>
      <trkpt lat="45.83686" lon="6.41851">
        <ele>1180</ele>
        <time>2018-10-17T06:46:21Z</time>
      </trkpt>
      <trkpt lat="45.83686" lon="6.41851">
        <ele>1180</ele>
        <time>2018-10-17T06:46:22Z</time>
      </trkpt>
      <trkpt lat="45.83686" lon="6.41851">
        <ele>1180</ele>
        <time>2018-10-17T06:46:23Z</time>
      </trkpt>
      <trkpt lat="45.83685" lon="6.41855">
        <ele>1180</ele>
        <time>2018-10-17T06:46:24Z</time>
      </trkpt>
      <trkpt lat="45.83685" lon="6.41855">
        <ele>1181</ele>
        <time>2018-10-17T06:46:25Z</time>
      </trkpt>
      <trkpt lat="45.83685" lon="6.41855">
        <ele>1181</ele>
        <time>2018-10-17T06:46:26Z</time>
      </trkpt>
      <trkpt lat="45.83685" lon="6.41855">
        <ele>1181</ele>
        <time>2018-10-17T06:46:27Z</time>
      </trkpt>
      <trkpt lat="45.83686" lon="6.41858">
        <ele>1181</ele>
        <time>2018-10-17T06:46:28Z</time>
      </trkpt>
      <trkpt lat="45.83686" lon="6.41858">
        <ele>1181</ele>
        <time>2018-10-17T06:46:29Z</time>
      </trkpt>
      <trkpt lat="45.83686" lon="6.41858">
        <ele>1182</ele>
        <time>2018-10-17T06:46:30Z</time>
      </trkpt>
      <trkpt lat="45.83686" lon="6.41858">
        <ele>1182</ele>
        <time>2018-10-17T06:46:31Z</time>
      </trkpt>
      <trkpt lat="45.83686" lon="6.41858">
        <ele>1182</ele>
        <time>2018-10-17T06:46:32Z</time>
      </trkpt>
      <trkpt lat="45.83689" lon="6.4186">
        <ele>1182</ele>
        <time>2018-10-17T06:46:33Z</time>
      </trkpt>
      <trkpt lat="45.83689" lon="6.4186">
        <ele>1183</ele>
        <time>2018-10-17T06:46:34Z</time>
      </trkpt>
      <trkpt lat="45.83689" lon="6.4186">
        <ele>1183</ele>
        <time>2018-10-17T06:46:35Z</time>
      </trkpt>
      <trkpt lat="45.8369" lon="6.41862">
        <ele>1184</ele>
        <time>2018-10-17T06:46:36Z</time>
      </trkpt>
      <trkpt lat="45.8369" lon="6.41862">
        <ele>1184</ele>
        <time>2018-10-17T06:46:37Z</time>
      </trkpt>
      <trkpt lat="45.83691" lon="6.41865">
        <ele>1184</ele>
        <time>2018-10-17T06:46:38Z</time>
      </trkpt>
      <trkpt lat="45.83691" lon="6.41865">
        <ele>1184</ele>
        <time>2018-10-17T06:46:39Z</time>
      </trkpt>
      <trkpt lat="45.83691" lon="6.41865">
        <ele>1185</ele>
        <time>2018-10-17T06:46:40Z</time>
      </trkpt>
      <trkpt lat="45.83692" lon="6.41868">
        <ele>1185</ele>
        <time>2018-10-17T06:46:41Z</time>
      </trkpt>
      <trkpt lat="45.83692" lon="6.41868">
        <ele>1185</ele>
        <time>2018-10-17T06:46:42Z</time>
      </trkpt>
      <trkpt lat="45.83692" lon="6.41871">
        <ele>1186</ele>
        <time>2018-10-17T06:46:43Z</time>
      </trkpt>
      <trkpt lat="45.83692" lon="6.41871">
        <ele>1186</ele>
        <time>2018-10-17T06:46:44Z</time>
      </trkpt>
      <trkpt lat="45.83692" lon="6.41871">
        <ele>1186</ele>
        <time>2018-10-17T06:46:45Z</time>
      </trkpt>
      <trkpt lat="45.8369" lon="6.41872">
        <ele>1186</ele>
        <time>2018-10-17T06:46:46Z</time>
      </trkpt>
      <trkpt lat="45.8369" lon="6.41872">
        <ele>1186</ele>
        <time>2018-10-17T06:46:47Z</time>
      </trkpt>
      <trkpt lat="45.8369" lon="6.41872">
        <ele>1186</ele>
        <time>2018-10-17T06:46:48Z</time>
      </trkpt>
      <trkpt lat="45.8369" lon="6.41872">
        <ele>1186</ele>
        <time>2018-10-17T06:46:49Z</time>
      </trkpt>
      <trkpt lat="45.83687" lon="6.41873">
        <ele>1187</ele>
        <time>2018-10-17T06:46:50Z</time>
      </trkpt>
      <trkpt lat="45.83687" lon="6.41873">
        <ele>1187</ele>
        <time>2018-10-17T06:46:51Z</time>
      </trkpt>
      <trkpt lat="45.83687" lon="6.41873">
        <ele>1187</ele>
        <time>2018-10-17T06:46:52Z</time>
      </trkpt>
      <trkpt lat="45.83686" lon="6.41875">
        <ele>1187</ele>
        <time>2018-10-17T06:46:53Z</time>
      </trkpt>
      <trkpt lat="45.83686" lon="6.41875">
        <ele>1187</ele>
        <time>2018-10-17T06:46:54Z</time>
      </trkpt>
      <trkpt lat="45.83686" lon="6.41875">
        <ele>1188</ele>
        <time>2018-10-17T06:46:55Z</time>
      </trkpt>
      <trkpt lat="45.83686" lon="6.41875">
        <ele>1188</ele>
        <time>2018-10-17T06:46:56Z</time>
      </trkpt>
      <trkpt lat="45.83686" lon="6.41875">
        <ele>1188</ele>
        <time>2018-10-17T06:46:57Z</time>
      </trkpt>
      <trkpt lat="45.83686" lon="6.41875">
        <ele>1188</ele>
        <time>2018-10-17T06:46:58Z</time>
      </trkpt>
      <trkpt lat="45.83686" lon="6.41875">
        <ele>1189</ele>
        <time>2018-10-17T06:46:59Z</time>
      </trkpt>
      <trkpt lat="45.83687" lon="6.41877">
        <ele>1189</ele>
        <time>2018-10-17T06:47:00Z</time>
      </trkpt>
      <trkpt lat="45.83687" lon="6.41877">
        <ele>1189</ele>
        <time>2018-10-17T06:47:01Z</time>
      </trkpt>
      <trkpt lat="45.83687" lon="6.41877">
        <ele>1189</ele>
        <time>2018-10-17T06:47:02Z</time>
      </trkpt>
      <trkpt lat="45.83689" lon="6.41879">
        <ele>1189</ele>
        <time>2018-10-17T06:47:03Z</time>
      </trkpt>
      <trkpt lat="45.83689" lon="6.41879">
        <ele>1190</ele>
        <time>2018-10-17T06:47:04Z</time>
      </trkpt>
      <trkpt lat="45.83689" lon="6.41879">
        <ele>1190</ele>
        <time>2018-10-17T06:47:05Z</time>
      </trkpt>
      <trkpt lat="45.83689" lon="6.41879">
        <ele>1190</ele>
        <time>2018-10-17T06:47:06Z</time>
      </trkpt>
      <trkpt lat="45.83689" lon="6.41879">
        <ele>1191</ele>
        <time>2018-10-17T06:47:07Z</time>
      </trkpt>
      <trkpt lat="45.8369" lon="6.4188">
        <ele>1191</ele>
        <time>2018-10-17T06:47:08Z</time>
      </trkpt>
      <trkpt lat="45.8369" lon="6.4188">
        <ele>1191</ele>
        <time>2018-10-17T06:47:09Z</time>
      </trkpt>
      <trkpt lat="45.8369" lon="6.4188">
        <ele>1191</ele>
        <time>2018-10-17T06:47:10Z</time>
      </trkpt>
      <trkpt lat="45.83692" lon="6.41883">
        <ele>1191</ele>
        <time>2018-10-17T06:47:11Z</time>
      </trkpt>
      <trkpt lat="45.83692" lon="6.41883">
        <ele>1191</ele>
        <time>2018-10-17T06:47:12Z</time>
      </trkpt>
      <trkpt lat="45.83692" lon="6.41883">
        <ele>1192</ele>
        <time>2018-10-17T06:47:13Z</time>
      </trkpt>
      <trkpt lat="45.83693" lon="6.41886">
        <ele>1192</ele>
        <time>2018-10-17T06:47:14Z</time>
      </trkpt>
      <trkpt lat="45.83693" lon="6.41886">
        <ele>1192</ele>
        <time>2018-10-17T06:47:15Z</time>
      </trkpt>
      <trkpt lat="45.83693" lon="6.41886">
        <ele>1192</ele>
        <time>2018-10-17T06:47:16Z</time>
      </trkpt>
      <trkpt lat="45.83695" lon="6.41887">
        <ele>1193</ele>
        <time>2018-10-17T06:47:17Z</time>
      </trkpt>
      <trkpt lat="45.83695" lon="6.41887">
        <ele>1193</ele>
        <time>2018-10-17T06:47:18Z</time>
      </trkpt>
      <trkpt lat="45.83695" lon="6.41887">
        <ele>1193</ele>
        <time>2018-10-17T06:47:19Z</time>
      </trkpt>
      <trkpt lat="45.83696" lon="6.4189">
        <ele>1193</ele>
        <time>2018-10-17T06:47:20Z</time>
      </trkpt>
      <trkpt lat="45.83696" lon="6.4189">
        <ele>1194</ele>
        <time>2018-10-17T06:47:21Z</time>
      </trkpt>
      <trkpt lat="45.83696" lon="6.41892">
        <ele>1194</ele>
        <time>2018-10-17T06:47:22Z</time>
      </trkpt>
      <trkpt lat="45.83696" lon="6.41892">
        <ele>1195</ele>
        <time>2018-10-17T06:47:23Z</time>
      </trkpt>
      <trkpt lat="45.83696" lon="6.41892">
        <ele>1195</ele>
        <time>2018-10-17T06:47:24Z</time>
      </trkpt>
      <trkpt lat="45.83696" lon="6.41895">
        <ele>1196</ele>
        <time>2018-10-17T06:47:25Z</time>
      </trkpt>
      <trkpt lat="45.83696" lon="6.41895">
        <ele>1196</ele>
        <time>2018-10-17T06:47:26Z</time>
      </trkpt>
      <trkpt lat="45.83696" lon="6.41895">
        <ele>1196</ele>
        <time>2018-10-17T06:47:27Z</time>
      </trkpt>
      <trkpt lat="45.83696" lon="6.41895">
        <ele>1196</ele>
        <time>2018-10-17T06:47:28Z</time>
      </trkpt>
      <trkpt lat="45.83694" lon="6.41897">
        <ele>1196</ele>
        <time>2018-10-17T06:47:29Z</time>
      </trkpt>
      <trkpt lat="45.83694" lon="6.41897">
        <ele>1196</ele>
        <time>2018-10-17T06:47:30Z</time>
      </trkpt>
      <trkpt lat="45.83694" lon="6.41897">
        <ele>1197</ele>
        <time>2018-10-17T06:47:31Z</time>
      </trkpt>
      <trkpt lat="45.83692" lon="6.41897">
        <ele>1197</ele>
        <time>2018-10-17T06:47:32Z</time>
      </trkpt>
      <trkpt lat="45.83692" lon="6.41897">
        <ele>1198</ele>
        <time>2018-10-17T06:47:33Z</time>
      </trkpt>
      <trkpt lat="45.83692" lon="6.41897">
        <ele>1198</ele>
        <time>2018-10-17T06:47:34Z</time>
      </trkpt>
      <trkpt lat="45.8369" lon="6.41897">
        <ele>1198</ele>
        <time>2018-10-17T06:47:35Z</time>
      </trkpt>
      <trkpt lat="45.8369" lon="6.41897">
        <ele>1198</ele>
        <time>2018-10-17T06:47:36Z</time>
      </trkpt>
      <trkpt lat="45.8369" lon="6.41897">
        <ele>1199</ele>
        <time>2018-10-17T06:47:37Z</time>
      </trkpt>
      <trkpt lat="45.83688" lon="6.41898">
        <ele>1199</ele>
        <time>2018-10-17T06:47:38Z</time>
      </trkpt>
      <trkpt lat="45.83688" lon="6.41898">
        <ele>1199</ele>
        <time>2018-10-17T06:47:39Z</time>
      </trkpt>
      <trkpt lat="45.83688" lon="6.41898">
        <ele>1200</ele>
        <time>2018-10-17T06:47:40Z</time>
      </trkpt>
      <trkpt lat="45.83688" lon="6.41898">
        <ele>1200</ele>
        <time>2018-10-17T06:47:41Z</time>
      </trkpt>
      <trkpt lat="45.83687" lon="6.419">
        <ele>1200</ele>
        <time>2018-10-17T06:47:42Z</time>
      </trkpt>
      <trkpt lat="45.83687" lon="6.419">
        <ele>1200</ele>
        <time>2018-10-17T06:47:43Z</time>
      </trkpt>
      <trkpt lat="45.83687" lon="6.419">
        <ele>1201</ele>
        <time>2018-10-17T06:47:44Z</time>
      </trkpt>
      <trkpt lat="45.83687" lon="6.41903">
        <ele>1201</ele>
        <time>2018-10-17T06:47:45Z</time>
      </trkpt>
      <trkpt lat="45.83687" lon="6.41903">
        <ele>1201</ele>
        <time>2018-10-17T06:47:46Z</time>
      </trkpt>
      <trkpt lat="45.83687" lon="6.41903">
        <ele>1201</ele>
        <time>2018-10-17T06:47:47Z</time>
      </trkpt>
      <trkpt lat="45.83686" lon="6.41905">
        <ele>1201</ele>
        <time>2018-10-17T06:47:48Z</time>
      </trkpt>
      <trkpt lat="45.83686" lon="6.41905">
        <ele>1201</ele>
        <time>2018-10-17T06:47:49Z</time>
      </trkpt>
      <trkpt lat="45.83686" lon="6.41905">
        <ele>1201</ele>
        <time>2018-10-17T06:47:50Z</time>
      </trkpt>
      <trkpt lat="45.83686" lon="6.41908">
        <ele>1201</ele>
        <time>2018-10-17T06:47:51Z</time>
      </trkpt>
      <trkpt lat="45.83686" lon="6.41908">
        <ele>1201</ele>
        <time>2018-10-17T06:47:52Z</time>
      </trkpt>
      <trkpt lat="45.83686" lon="6.41908">
        <ele>1202</ele>
        <time>2018-10-17T06:47:53Z</time>
      </trkpt>
      <trkpt lat="45.83686" lon="6.41908">
        <ele>1202</ele>
        <time>2018-10-17T06:47:54Z</time>
      </trkpt>
      <trkpt lat="45.83686" lon="6.41908">
        <ele>1202</ele>
        <time>2018-10-17T06:47:55Z</time>
      </trkpt>
      <trkpt lat="45.83686" lon="6.41908">
        <ele>1202</ele>
        <time>2018-10-17T06:47:56Z</time>
      </trkpt>
      <trkpt lat="45.83686" lon="6.41908">
        <ele>1202</ele>
        <time>2018-10-17T06:47:57Z</time>
      </trkpt>
      <trkpt lat="45.83687" lon="6.4191">
        <ele>1203</ele>
        <time>2018-10-17T06:47:58Z</time>
      </trkpt>
      <trkpt lat="45.83687" lon="6.4191">
        <ele>1203</ele>
        <time>2018-10-17T06:47:59Z</time>
      </trkpt>
      <trkpt lat="45.83687" lon="6.4191">
        <ele>1203</ele>
        <time>2018-10-17T06:48:00Z</time>
      </trkpt>
      <trkpt lat="45.83688" lon="6.41912">
        <ele>1203</ele>
        <time>2018-10-17T06:48:01Z</time>
      </trkpt>
      <trkpt lat="45.83688" lon="6.41912">
        <ele>1203</ele>
        <time>2018-10-17T06:48:02Z</time>
      </trkpt>
      <trkpt lat="45.83688" lon="6.41912">
        <ele>1204</ele>
        <time>2018-10-17T06:48:03Z</time>
      </trkpt>
      <trkpt lat="45.83689" lon="6.41916">
        <ele>1204</ele>
        <time>2018-10-17T06:48:04Z</time>
      </trkpt>
      <trkpt lat="45.83689" lon="6.41916">
        <ele>1205</ele>
        <time>2018-10-17T06:48:05Z</time>
      </trkpt>
      <trkpt lat="45.83689" lon="6.41916">
        <ele>1205</ele>
        <time>2018-10-17T06:48:06Z</time>
      </trkpt>
      <trkpt lat="45.83687" lon="6.41918">
        <ele>1205</ele>
        <time>2018-10-17T06:48:07Z</time>
      </trkpt>
      <trkpt lat="45.83687" lon="6.41918">
        <ele>1206</ele>
        <time>2018-10-17T06:48:08Z</time>
      </trkpt>
      <trkpt lat="45.83687" lon="6.41918">
        <ele>1206</ele>
        <time>2018-10-17T06:48:09Z</time>
      </trkpt>
      <trkpt lat="45.83687" lon="6.41918">
        <ele>1206</ele>
        <time>2018-10-17T06:48:10Z</time>
      </trkpt>
      <trkpt lat="45.83686" lon="6.41921">
        <ele>1206</ele>
        <time>2018-10-17T06:48:11Z</time>
      </trkpt>
      <trkpt lat="45.83686" lon="6.41921">
        <ele>1206</ele>
        <time>2018-10-17T06:48:12Z</time>
      </trkpt>
      <trkpt lat="45.83686" lon="6.41921">
        <ele>1207</ele>
        <time>2018-10-17T06:48:13Z</time>
      </trkpt>
      <trkpt lat="45.83687" lon="6.41924">
        <ele>1207</ele>
        <time>2018-10-17T06:48:14Z</time>
      </trkpt>
      <trkpt lat="45.83687" lon="6.41924">
        <ele>1208</ele>
        <time>2018-10-17T06:48:15Z</time>
      </trkpt>
      <trkpt lat="45.83687" lon="6.41924">
        <ele>1208</ele>
        <time>2018-10-17T06:48:16Z</time>
      </trkpt>
      <trkpt lat="45.83687" lon="6.41924">
        <ele>1208</ele>
        <time>2018-10-17T06:48:17Z</time>
      </trkpt>
      <trkpt lat="45.83687" lon="6.41926">
        <ele>1208</ele>
        <time>2018-10-17T06:48:18Z</time>
      </trkpt>
      <trkpt lat="45.83687" lon="6.41926">
        <ele>1208</ele>
        <time>2018-10-17T06:48:19Z</time>
      </trkpt>
      <trkpt lat="45.83687" lon="6.41926">
        <ele>1208</ele>
        <time>2018-10-17T06:48:20Z</time>
      </trkpt>
      <trkpt lat="45.83687" lon="6.41926">
        <ele>1209</ele>
        <time>2018-10-17T06:48:21Z</time>
      </trkpt>
      <trkpt lat="45.83689" lon="6.41928">
        <ele>1209</ele>
        <time>2018-10-17T06:48:22Z</time>
      </trkpt>
      <trkpt lat="45.83689" lon="6.41928">
        <ele>1209</ele>
        <time>2018-10-17T06:48:23Z</time>
      </trkpt>
      <trkpt lat="45.83689" lon="6.41928">
        <ele>1209</ele>
        <time>2018-10-17T06:48:24Z</time>
      </trkpt>
      <trkpt lat="45.83689" lon="6.41928">
        <ele>1210</ele>
        <time>2018-10-17T06:48:25Z</time>
      </trkpt>
      <trkpt lat="45.83692" lon="6.41928">
        <ele>1210</ele>
        <time>2018-10-17T06:48:26Z</time>
      </trkpt>
      <trkpt lat="45.83692" lon="6.41928">
        <ele>1210</ele>
        <time>2018-10-17T06:48:27Z</time>
      </trkpt>
      <trkpt lat="45.83692" lon="6.41928">
        <ele>1210</ele>
        <time>2018-10-17T06:48:28Z</time>
      </trkpt>
      <trkpt lat="45.83692" lon="6.41928">
        <ele>1210</ele>
        <time>2018-10-17T06:48:29Z</time>
      </trkpt>
      <trkpt lat="45.83692" lon="6.41928">
        <ele>1210</ele>
        <time>2018-10-17T06:48:30Z</time>
      </trkpt>
      <trkpt lat="45.83692" lon="6.41928">
        <ele>1210</ele>
        <time>2018-10-17T06:48:31Z</time>
      </trkpt>
      <trkpt lat="45.83692" lon="6.41928">
        <ele>1210</ele>
        <time>2018-10-17T06:48:32Z</time>
      </trkpt>
      <trkpt lat="45.83692" lon="6.41928">
        <ele>1210</ele>
        <time>2018-10-17T06:48:33Z</time>
      </trkpt>
      <trkpt lat="45.83692" lon="6.41928">
        <ele>1210</ele>
        <time>2018-10-17T06:48:34Z</time>
      </trkpt>
      <trkpt lat="45.83692" lon="6.41928">
        <ele>1210</ele>
        <time>2018-10-17T06:48:35Z</time>
      </trkpt>
      <trkpt lat="45.83692" lon="6.41928">
        <ele>1210</ele>
        <time>2018-10-17T06:48:36Z</time>
      </trkpt>
      <trkpt lat="45.83692" lon="6.41928">
        <ele>1210</ele>
        <time>2018-10-17T06:48:37Z</time>
      </trkpt>
      <trkpt lat="45.83692" lon="6.41928">
        <ele>1210</ele>
        <time>2018-10-17T06:48:38Z</time>
      </trkpt>
      <trkpt lat="45.83692" lon="6.41928">
        <ele>1210</ele>
        <time>2018-10-17T06:48:39Z</time>
      </trkpt>
      <trkpt lat="45.83692" lon="6.41928">
        <ele>1210</ele>
        <time>2018-10-17T06:48:40Z</time>
      </trkpt>
      <trkpt lat="45.83692" lon="6.41928">
        <ele>1210</ele>
        <time>2018-10-17T06:48:41Z</time>
      </trkpt>
      <trkpt lat="45.83692" lon="6.41928">
        <ele>1211</ele>
        <time>2018-10-17T06:48:42Z</time>
      </trkpt>
      <trkpt lat="45.83692" lon="6.41928">
        <ele>1211</ele>
        <time>2018-10-17T06:48:43Z</time>
      </trkpt>
      <trkpt lat="45.83692" lon="6.41928">
        <ele>1211</ele>
        <time>2018-10-17T06:48:44Z</time>
      </trkpt>
      <trkpt lat="45.83692" lon="6.41928">
        <ele>1210</ele>
        <time>2018-10-17T06:48:45Z</time>
      </trkpt>
      <trkpt lat="45.83692" lon="6.41928">
        <ele>1210</ele>
        <time>2018-10-17T06:48:46Z</time>
      </trkpt>
      <trkpt lat="45.83692" lon="6.41928">
        <ele>1210</ele>
        <time>2018-10-17T06:48:47Z</time>
      </trkpt>
      <trkpt lat="45.83692" lon="6.41928">
        <ele>1210</ele>
        <time>2018-10-17T06:48:48Z</time>
      </trkpt>
      <trkpt lat="45.83692" lon="6.41928">
        <ele>1210</ele>
        <time>2018-10-17T06:48:49Z</time>
      </trkpt>
      <trkpt lat="45.83692" lon="6.41928">
        <ele>1210</ele>
        <time>2018-10-17T06:48:50Z</time>
      </trkpt>
      <trkpt lat="45.83692" lon="6.41928">
        <ele>1210</ele>
        <time>2018-10-17T06:48:51Z</time>
      </trkpt>
      <trkpt lat="45.83692" lon="6.41928">
        <ele>1211</ele>
        <time>2018-10-17T06:48:52Z</time>
      </trkpt>
      <trkpt lat="45.83692" lon="6.41928">
        <ele>1211</ele>
        <time>2018-10-17T06:48:53Z</time>
      </trkpt>
      <trkpt lat="45.83692" lon="6.41928">
        <ele>1211</ele>
        <time>2018-10-17T06:48:54Z</time>
      </trkpt>
      <trkpt lat="45.83693" lon="6.41929">
        <ele>1211</ele>
        <time>2018-10-17T06:48:55Z</time>
      </trkpt>
      <trkpt lat="45.83693" lon="6.41929">
        <ele>1211</ele>
        <time>2018-10-17T06:48:56Z</time>
      </trkpt>
      <trkpt lat="45.83693" lon="6.41929">
        <ele>1212</ele>
        <time>2018-10-17T06:48:57Z</time>
      </trkpt>
      <trkpt lat="45.83693" lon="6.41932">
        <ele>1212</ele>
        <time>2018-10-17T06:48:58Z</time>
      </trkpt>
      <trkpt lat="45.83693" lon="6.41932">
        <ele>1212</ele>
        <time>2018-10-17T06:48:59Z</time>
      </trkpt>
      <trkpt lat="45.83693" lon="6.41932">
        <ele>1212</ele>
        <time>2018-10-17T06:49:00Z</time>
      </trkpt>
      <trkpt lat="45.83693" lon="6.41932">
        <ele>1212</ele>
        <time>2018-10-17T06:49:01Z</time>
      </trkpt>
      <trkpt lat="45.83693" lon="6.41936">
        <ele>1212</ele>
        <time>2018-10-17T06:49:02Z</time>
      </trkpt>
      <trkpt lat="45.83693" lon="6.41936">
        <ele>1212</ele>
        <time>2018-10-17T06:49:03Z</time>
      </trkpt>
      <trkpt lat="45.83693" lon="6.41936">
        <ele>1213</ele>
        <time>2018-10-17T06:49:04Z</time>
      </trkpt>
      <trkpt lat="45.83693" lon="6.41939">
        <ele>1213</ele>
        <time>2018-10-17T06:49:05Z</time>
      </trkpt>
      <trkpt lat="45.83693" lon="6.41939">
        <ele>1213</ele>
        <time>2018-10-17T06:49:06Z</time>
      </trkpt>
      <trkpt lat="45.83693" lon="6.41939">
        <ele>1213</ele>
        <time>2018-10-17T06:49:07Z</time>
      </trkpt>
      <trkpt lat="45.83693" lon="6.41941">
        <ele>1213</ele>
        <time>2018-10-17T06:49:08Z</time>
      </trkpt>
      <trkpt lat="45.83693" lon="6.41941">
        <ele>1213</ele>
        <time>2018-10-17T06:49:09Z</time>
      </trkpt>
      <trkpt lat="45.83693" lon="6.41941">
        <ele>1214</ele>
        <time>2018-10-17T06:49:10Z</time>
      </trkpt>
      <trkpt lat="45.83693" lon="6.41941">
        <ele>1214</ele>
        <time>2018-10-17T06:49:11Z</time>
      </trkpt>
      <trkpt lat="45.83694" lon="6.41944">
        <ele>1214</ele>
        <time>2018-10-17T06:49:12Z</time>
      </trkpt>
      <trkpt lat="45.83694" lon="6.41944">
        <ele>1214</ele>
        <time>2018-10-17T06:49:13Z</time>
      </trkpt>
      <trkpt lat="45.83694" lon="6.41944">
        <ele>1215</ele>
        <time>2018-10-17T06:49:14Z</time>
      </trkpt>
      <trkpt lat="45.83694" lon="6.41944">
        <ele>1215</ele>
        <time>2018-10-17T06:49:15Z</time>
      </trkpt>
      <trkpt lat="45.83694" lon="6.41944">
        <ele>1215</ele>
        <time>2018-10-17T06:49:16Z</time>
      </trkpt>
      <trkpt lat="45.83694" lon="6.41944">
        <ele>1215</ele>
        <time>2018-10-17T06:49:17Z</time>
      </trkpt>
      <trkpt lat="45.83694" lon="6.41944">
        <ele>1215</ele>
        <time>2018-10-17T06:49:18Z</time>
      </trkpt>
      <trkpt lat="45.83694" lon="6.41944">
        <ele>1215</ele>
        <time>2018-10-17T06:49:19Z</time>
      </trkpt>
      <trkpt lat="45.83694" lon="6.41944">
        <ele>1215</ele>
        <time>2018-10-17T06:49:20Z</time>
      </trkpt>
      <trkpt lat="45.83694" lon="6.41944">
        <ele>1215</ele>
        <time>2018-10-17T06:49:21Z</time>
      </trkpt>
      <trkpt lat="45.83694" lon="6.41944">
        <ele>1215</ele>
        <time>2018-10-17T06:49:22Z</time>
      </trkpt>
      <trkpt lat="45.83694" lon="6.41944">
        <ele>1215</ele>
        <time>2018-10-17T06:49:23Z</time>
      </trkpt>
      <trkpt lat="45.83694" lon="6.41944">
        <ele>1215</ele>
        <time>2018-10-17T06:49:24Z</time>
      </trkpt>
      <trkpt lat="45.83694" lon="6.41944">
        <ele>1215</ele>
        <time>2018-10-17T06:49:25Z</time>
      </trkpt>
      <trkpt lat="45.83694" lon="6.41948">
        <ele>1215</ele>
        <time>2018-10-17T06:49:26Z</time>
      </trkpt>
      <trkpt lat="45.83694" lon="6.41948">
        <ele>1215</ele>
        <time>2018-10-17T06:49:27Z</time>
      </trkpt>
      <trkpt lat="45.83694" lon="6.41948">
        <ele>1215</ele>
        <time>2018-10-17T06:49:28Z</time>
      </trkpt>
      <trkpt lat="45.83695" lon="6.4195">
        <ele>1216</ele>
        <time>2018-10-17T06:49:29Z</time>
      </trkpt>
      <trkpt lat="45.83695" lon="6.4195">
        <ele>1216</ele>
        <time>2018-10-17T06:49:30Z</time>
      </trkpt>
      <trkpt lat="45.83695" lon="6.4195">
        <ele>1216</ele>
        <time>2018-10-17T06:49:31Z</time>
      </trkpt>
      <trkpt lat="45.83695" lon="6.41953">
        <ele>1217</ele>
        <time>2018-10-17T06:49:32Z</time>
      </trkpt>
      <trkpt lat="45.83695" lon="6.41953">
        <ele>1217</ele>
        <time>2018-10-17T06:49:33Z</time>
      </trkpt>
      <trkpt lat="45.83695" lon="6.41953">
        <ele>1218</ele>
        <time>2018-10-17T06:49:34Z</time>
      </trkpt>
      <trkpt lat="45.83696" lon="6.41956">
        <ele>1218</ele>
        <time>2018-10-17T06:49:35Z</time>
      </trkpt>
      <trkpt lat="45.83696" lon="6.41956">
        <ele>1219</ele>
        <time>2018-10-17T06:49:36Z</time>
      </trkpt>
      <trkpt lat="45.83696" lon="6.41956">
        <ele>1219</ele>
        <time>2018-10-17T06:49:37Z</time>
      </trkpt>
      <trkpt lat="45.83696" lon="6.41956">
        <ele>1219</ele>
        <time>2018-10-17T06:49:38Z</time>
      </trkpt>
      <trkpt lat="45.83696" lon="6.41956">
        <ele>1219</ele>
        <time>2018-10-17T06:49:39Z</time>
      </trkpt>
      <trkpt lat="45.83696" lon="6.41956">
        <ele>1220</ele>
        <time>2018-10-17T06:49:40Z</time>
      </trkpt>
      <trkpt lat="45.83698" lon="6.41955">
        <ele>1220</ele>
        <time>2018-10-17T06:49:41Z</time>
      </trkpt>
      <trkpt lat="45.83698" lon="6.41955">
        <ele>1220</ele>
        <time>2018-10-17T06:49:42Z</time>
      </trkpt>
      <trkpt lat="45.83698" lon="6.41955">
        <ele>1220</ele>
        <time>2018-10-17T06:49:43Z</time>
      </trkpt>
      <trkpt lat="45.837" lon="6.41956">
        <ele>1220</ele>
        <time>2018-10-17T06:49:44Z</time>
      </trkpt>
      <trkpt lat="45.837" lon="6.41956">
        <ele>1221</ele>
        <time>2018-10-17T06:49:45Z</time>
      </trkpt>
      <trkpt lat="45.837" lon="6.41956">
        <ele>1221</ele>
        <time>2018-10-17T06:49:46Z</time>
      </trkpt>
      <trkpt lat="45.837" lon="6.41956">
        <ele>1221</ele>
        <time>2018-10-17T06:49:47Z</time>
      </trkpt>
      <trkpt lat="45.837" lon="6.41956">
        <ele>1221</ele>
        <time>2018-10-17T06:49:48Z</time>
      </trkpt>
      <trkpt lat="45.837" lon="6.41956">
        <ele>1221</ele>
        <time>2018-10-17T06:49:49Z</time>
      </trkpt>
      <trkpt lat="45.83702" lon="6.41955">
        <ele>1222</ele>
        <time>2018-10-17T06:49:50Z</time>
      </trkpt>
      <trkpt lat="45.83702" lon="6.41955">
        <ele>1222</ele>
        <time>2018-10-17T06:49:51Z</time>
      </trkpt>
      <trkpt lat="45.83702" lon="6.41955">
        <ele>1222</ele>
        <time>2018-10-17T06:49:52Z</time>
      </trkpt>
      <trkpt lat="45.83704" lon="6.41954">
        <ele>1222</ele>
        <time>2018-10-17T06:49:53Z</time>
      </trkpt>
      <trkpt lat="45.83704" lon="6.41954">
        <ele>1223</ele>
        <time>2018-10-17T06:49:54Z</time>
      </trkpt>
      <trkpt lat="45.83704" lon="6.41954">
        <ele>1223</ele>
        <time>2018-10-17T06:49:55Z</time>
      </trkpt>
      <trkpt lat="45.83704" lon="6.41954">
        <ele>1223</ele>
        <time>2018-10-17T06:49:56Z</time>
      </trkpt>
      <trkpt lat="45.83706" lon="6.41955">
        <ele>1224</ele>
        <time>2018-10-17T06:49:57Z</time>
      </trkpt>
      <trkpt lat="45.83706" lon="6.41955">
        <ele>1224</ele>
        <time>2018-10-17T06:49:58Z</time>
      </trkpt>
      <trkpt lat="45.83708" lon="6.41957">
        <ele>1225</ele>
        <time>2018-10-17T06:49:59Z</time>
      </trkpt>
      <trkpt lat="45.83708" lon="6.41957">
        <ele>1225</ele>
        <time>2018-10-17T06:50:00Z</time>
      </trkpt>
      <trkpt lat="45.83708" lon="6.41957">
        <ele>1225</ele>
        <time>2018-10-17T06:50:01Z</time>
      </trkpt>
      <trkpt lat="45.8371" lon="6.41959">
        <ele>1225</ele>
        <time>2018-10-17T06:50:02Z</time>
      </trkpt>
      <trkpt lat="45.8371" lon="6.41959">
        <ele>1225</ele>
        <time>2018-10-17T06:50:03Z</time>
      </trkpt>
      <trkpt lat="45.8371" lon="6.41959">
        <ele>1225</ele>
        <time>2018-10-17T06:50:04Z</time>
      </trkpt>
      <trkpt lat="45.83711" lon="6.41959">
        <ele>1226</ele>
        <time>2018-10-17T06:50:05Z</time>
      </trkpt>
      <trkpt lat="45.83711" lon="6.41959">
        <ele>1226</ele>
        <time>2018-10-17T06:50:06Z</time>
      </trkpt>
      <trkpt lat="45.83711" lon="6.41959">
        <ele>1226</ele>
        <time>2018-10-17T06:50:07Z</time>
      </trkpt>
      <trkpt lat="45.83714" lon="6.4196">
        <ele>1226</ele>
        <time>2018-10-17T06:50:08Z</time>
      </trkpt>
      <trkpt lat="45.83714" lon="6.4196">
        <ele>1227</ele>
        <time>2018-10-17T06:50:09Z</time>
      </trkpt>
      <trkpt lat="45.83714" lon="6.4196">
        <ele>1227</ele>
        <time>2018-10-17T06:50:10Z</time>
      </trkpt>
      <trkpt lat="45.83715" lon="6.41962">
        <ele>1227</ele>
        <time>2018-10-17T06:50:11Z</time>
      </trkpt>
      <trkpt lat="45.83715" lon="6.41962">
        <ele>1227</ele>
        <time>2018-10-17T06:50:12Z</time>
      </trkpt>
      <trkpt lat="45.83716" lon="6.41965">
        <ele>1228</ele>
        <time>2018-10-17T06:50:13Z</time>
      </trkpt>
      <trkpt lat="45.83716" lon="6.41965">
        <ele>1228</ele>
        <time>2018-10-17T06:50:14Z</time>
      </trkpt>
      <trkpt lat="45.83716" lon="6.41965">
        <ele>1228</ele>
        <time>2018-10-17T06:50:15Z</time>
      </trkpt>
      <trkpt lat="45.83718" lon="6.41966">
        <ele>1229</ele>
        <time>2018-10-17T06:50:16Z</time>
      </trkpt>
      <trkpt lat="45.83718" lon="6.41966">
        <ele>1229</ele>
        <time>2018-10-17T06:50:17Z</time>
      </trkpt>
      <trkpt lat="45.83718" lon="6.41966">
        <ele>1230</ele>
        <time>2018-10-17T06:50:18Z</time>
      </trkpt>
      <trkpt lat="45.83721" lon="6.41969">
        <ele>1230</ele>
        <time>2018-10-17T06:50:19Z</time>
      </trkpt>
      <trkpt lat="45.83721" lon="6.41969">
        <ele>1230</ele>
        <time>2018-10-17T06:50:20Z</time>
      </trkpt>
      <trkpt lat="45.83723" lon="6.41971">
        <ele>1231</ele>
        <time>2018-10-17T06:50:21Z</time>
      </trkpt>
      <trkpt lat="45.83723" lon="6.41971">
        <ele>1231</ele>
        <time>2018-10-17T06:50:22Z</time>
      </trkpt>
      <trkpt lat="45.83724" lon="6.41972">
        <ele>1231</ele>
        <time>2018-10-17T06:50:23Z</time>
      </trkpt>
      <trkpt lat="45.83724" lon="6.41972">
        <ele>1231</ele>
        <time>2018-10-17T06:50:24Z</time>
      </trkpt>
      <trkpt lat="45.83726" lon="6.41974">
        <ele>1232</ele>
        <time>2018-10-17T06:50:25Z</time>
      </trkpt>
      <trkpt lat="45.83726" lon="6.41974">
        <ele>1232</ele>
        <time>2018-10-17T06:50:26Z</time>
      </trkpt>
      <trkpt lat="45.83727" lon="6.41977">
        <ele>1232</ele>
        <time>2018-10-17T06:50:27Z</time>
      </trkpt>
      <trkpt lat="45.83727" lon="6.41977">
        <ele>1232</ele>
        <time>2018-10-17T06:50:28Z</time>
      </trkpt>
      <trkpt lat="45.83727" lon="6.41977">
        <ele>1232</ele>
        <time>2018-10-17T06:50:29Z</time>
      </trkpt>
      <trkpt lat="45.83727" lon="6.41977">
        <ele>1232</ele>
        <time>2018-10-17T06:50:30Z</time>
      </trkpt>
      <trkpt lat="45.83725" lon="6.41978">
        <ele>1233</ele>
        <time>2018-10-17T06:50:31Z</time>
      </trkpt>
      <trkpt lat="45.83725" lon="6.41978">
        <ele>1233</ele>
        <time>2018-10-17T06:50:32Z</time>
      </trkpt>
      <trkpt lat="45.83725" lon="6.41978">
        <ele>1233</ele>
        <time>2018-10-17T06:50:33Z</time>
      </trkpt>
      <trkpt lat="45.83725" lon="6.41978">
        <ele>1234</ele>
        <time>2018-10-17T06:50:34Z</time>
      </trkpt>
      <trkpt lat="45.83724" lon="6.4198">
        <ele>1234</ele>
        <time>2018-10-17T06:50:35Z</time>
      </trkpt>
      <trkpt lat="45.83724" lon="6.4198">
        <ele>1234</ele>
        <time>2018-10-17T06:50:36Z</time>
      </trkpt>
      <trkpt lat="45.83724" lon="6.4198">
        <ele>1235</ele>
        <time>2018-10-17T06:50:37Z</time>
      </trkpt>
      <trkpt lat="45.83722" lon="6.41981">
        <ele>1235</ele>
        <time>2018-10-17T06:50:38Z</time>
      </trkpt>
      <trkpt lat="45.83722" lon="6.41981">
        <ele>1235</ele>
        <time>2018-10-17T06:50:39Z</time>
      </trkpt>
      <trkpt lat="45.83722" lon="6.41981">
        <ele>1235</ele>
        <time>2018-10-17T06:50:40Z</time>
      </trkpt>
      <trkpt lat="45.83719" lon="6.41981">
        <ele>1236</ele>
        <time>2018-10-17T06:50:41Z</time>
      </trkpt>
      <trkpt lat="45.83719" lon="6.41981">
        <ele>1236</ele>
        <time>2018-10-17T06:50:42Z</time>
      </trkpt>
      <trkpt lat="45.83719" lon="6.41981">
        <ele>1236</ele>
        <time>2018-10-17T06:50:43Z</time>
      </trkpt>
      <trkpt lat="45.83718" lon="6.41982">
        <ele>1237</ele>
        <time>2018-10-17T06:50:44Z</time>
      </trkpt>
      <trkpt lat="45.83718" lon="6.41982">
        <ele>1237</ele>
        <time>2018-10-17T06:50:45Z</time>
      </trkpt>
      <trkpt lat="45.83718" lon="6.41982">
        <ele>1237</ele>
        <time>2018-10-17T06:50:46Z</time>
      </trkpt>
      <trkpt lat="45.83717" lon="6.41984">
        <ele>1237</ele>
        <time>2018-10-17T06:50:47Z</time>
      </trkpt>
      <trkpt lat="45.83717" lon="6.41984">
        <ele>1237</ele>
        <time>2018-10-17T06:50:48Z</time>
      </trkpt>
      <trkpt lat="45.83717" lon="6.41984">
        <ele>1237</ele>
        <time>2018-10-17T06:50:49Z</time>
      </trkpt>
      <trkpt lat="45.83717" lon="6.41988">
        <ele>1238</ele>
        <time>2018-10-17T06:50:50Z</time>
      </trkpt>
      <trkpt lat="45.83717" lon="6.41988">
        <ele>1239</ele>
        <time>2018-10-17T06:50:51Z</time>
      </trkpt>
      <trkpt lat="45.83717" lon="6.41988">
        <ele>1239</ele>
        <time>2018-10-17T06:50:52Z</time>
      </trkpt>
      <trkpt lat="45.83718" lon="6.4199">
        <ele>1239</ele>
        <time>2018-10-17T06:50:53Z</time>
      </trkpt>
      <trkpt lat="45.83718" lon="6.4199">
        <ele>1240</ele>
        <time>2018-10-17T06:50:54Z</time>
      </trkpt>
      <trkpt lat="45.83718" lon="6.4199">
        <ele>1240</ele>
        <time>2018-10-17T06:50:55Z</time>
      </trkpt>
      <trkpt lat="45.8372" lon="6.41992">
        <ele>1240</ele>
        <time>2018-10-17T06:50:56Z</time>
      </trkpt>
      <trkpt lat="45.8372" lon="6.41992">
        <ele>1241</ele>
        <time>2018-10-17T06:50:57Z</time>
      </trkpt>
      <trkpt lat="45.8372" lon="6.41992">
        <ele>1241</ele>
        <time>2018-10-17T06:50:58Z</time>
      </trkpt>
      <trkpt lat="45.8372" lon="6.41992">
        <ele>1241</ele>
        <time>2018-10-17T06:50:59Z</time>
      </trkpt>
      <trkpt lat="45.83721" lon="6.41996">
        <ele>1241</ele>
        <time>2018-10-17T06:51:00Z</time>
      </trkpt>
      <trkpt lat="45.83721" lon="6.41996">
        <ele>1241</ele>
        <time>2018-10-17T06:51:01Z</time>
      </trkpt>
      <trkpt lat="45.83721" lon="6.41996">
        <ele>1241</ele>
        <time>2018-10-17T06:51:02Z</time>
      </trkpt>
      <trkpt lat="45.83721" lon="6.41996">
        <ele>1241</ele>
        <time>2018-10-17T06:51:03Z</time>
      </trkpt>
      <trkpt lat="45.83722" lon="6.41999">
        <ele>1241</ele>
        <time>2018-10-17T06:51:04Z</time>
      </trkpt>
      <trkpt lat="45.83722" lon="6.41999">
        <ele>1241</ele>
        <time>2018-10-17T06:51:05Z</time>
      </trkpt>
      <trkpt lat="45.83722" lon="6.41999">
        <ele>1242</ele>
        <time>2018-10-17T06:51:06Z</time>
      </trkpt>
      <trkpt lat="45.83722" lon="6.41999">
        <ele>1242</ele>
        <time>2018-10-17T06:51:07Z</time>
      </trkpt>
      <trkpt lat="45.8372" lon="6.42">
        <ele>1242</ele>
        <time>2018-10-17T06:51:08Z</time>
      </trkpt>
      <trkpt lat="45.8372" lon="6.42">
        <ele>1242</ele>
        <time>2018-10-17T06:51:09Z</time>
      </trkpt>
      <trkpt lat="45.8372" lon="6.42">
        <ele>1243</ele>
        <time>2018-10-17T06:51:10Z</time>
      </trkpt>
      <trkpt lat="45.8372" lon="6.42">
        <ele>1243</ele>
        <time>2018-10-17T06:51:11Z</time>
      </trkpt>
      <trkpt lat="45.83719" lon="6.42002">
        <ele>1243</ele>
        <time>2018-10-17T06:51:12Z</time>
      </trkpt>
      <trkpt lat="45.83719" lon="6.42002">
        <ele>1243</ele>
        <time>2018-10-17T06:51:13Z</time>
      </trkpt>
      <trkpt lat="45.83719" lon="6.42002">
        <ele>1243</ele>
        <time>2018-10-17T06:51:14Z</time>
      </trkpt>
      <trkpt lat="45.83719" lon="6.42005">
        <ele>1243</ele>
        <time>2018-10-17T06:51:15Z</time>
      </trkpt>
      <trkpt lat="45.83719" lon="6.42005">
        <ele>1243</ele>
        <time>2018-10-17T06:51:16Z</time>
      </trkpt>
      <trkpt lat="45.83719" lon="6.42005">
        <ele>1243</ele>
        <time>2018-10-17T06:51:17Z</time>
      </trkpt>
      <trkpt lat="45.83718" lon="6.42007">
        <ele>1244</ele>
        <time>2018-10-17T06:51:18Z</time>
      </trkpt>
      <trkpt lat="45.83718" lon="6.42007">
        <ele>1244</ele>
        <time>2018-10-17T06:51:19Z</time>
      </trkpt>
      <trkpt lat="45.83718" lon="6.42007">
        <ele>1244</ele>
        <time>2018-10-17T06:51:20Z</time>
      </trkpt>
      <trkpt lat="45.83718" lon="6.42007">
        <ele>1245</ele>
        <time>2018-10-17T06:51:21Z</time>
      </trkpt>
      <trkpt lat="45.83717" lon="6.4201">
        <ele>1246</ele>
        <time>2018-10-17T06:51:22Z</time>
      </trkpt>
      <trkpt lat="45.83717" lon="6.4201">
        <ele>1246</ele>
        <time>2018-10-17T06:51:23Z</time>
      </trkpt>
      <trkpt lat="45.83717" lon="6.4201">
        <ele>1247</ele>
        <time>2018-10-17T06:51:24Z</time>
      </trkpt>
      <trkpt lat="45.83716" lon="6.42012">
        <ele>1247</ele>
        <time>2018-10-17T06:51:25Z</time>
      </trkpt>
      <trkpt lat="45.83716" lon="6.42012">
        <ele>1247</ele>
        <time>2018-10-17T06:51:26Z</time>
      </trkpt>
      <trkpt lat="45.83716" lon="6.42012">
        <ele>1247</ele>
        <time>2018-10-17T06:51:27Z</time>
      </trkpt>
      <trkpt lat="45.83715" lon="6.42015">
        <ele>1247</ele>
        <time>2018-10-17T06:51:28Z</time>
      </trkpt>
      <trkpt lat="45.83715" lon="6.42015">
        <ele>1247</ele>
        <time>2018-10-17T06:51:29Z</time>
      </trkpt>
      <trkpt lat="45.83715" lon="6.42015">
        <ele>1248</ele>
        <time>2018-10-17T06:51:30Z</time>
      </trkpt>
      <trkpt lat="45.83714" lon="6.42018">
        <ele>1248</ele>
        <time>2018-10-17T06:51:31Z</time>
      </trkpt>
      <trkpt lat="45.83714" lon="6.42018">
        <ele>1248</ele>
        <time>2018-10-17T06:51:32Z</time>
      </trkpt>
      <trkpt lat="45.83714" lon="6.42018">
        <ele>1248</ele>
        <time>2018-10-17T06:51:33Z</time>
      </trkpt>
      <trkpt lat="45.83712" lon="6.42018">
        <ele>1248</ele>
        <time>2018-10-17T06:51:34Z</time>
      </trkpt>
      <trkpt lat="45.83712" lon="6.42018">
        <ele>1248</ele>
        <time>2018-10-17T06:51:35Z</time>
      </trkpt>
      <trkpt lat="45.83712" lon="6.42018">
        <ele>1248</ele>
        <time>2018-10-17T06:51:36Z</time>
      </trkpt>
      <trkpt lat="45.8371" lon="6.42019">
        <ele>1249</ele>
        <time>2018-10-17T06:51:37Z</time>
      </trkpt>
      <trkpt lat="45.8371" lon="6.42019">
        <ele>1249</ele>
        <time>2018-10-17T06:51:38Z</time>
      </trkpt>
      <trkpt lat="45.8371" lon="6.42019">
        <ele>1250</ele>
        <time>2018-10-17T06:51:39Z</time>
      </trkpt>
      <trkpt lat="45.83708" lon="6.42021">
        <ele>1250</ele>
        <time>2018-10-17T06:51:40Z</time>
      </trkpt>
      <trkpt lat="45.83708" lon="6.42021">
        <ele>1250</ele>
        <time>2018-10-17T06:51:41Z</time>
      </trkpt>
      <trkpt lat="45.83707" lon="6.42024">
        <ele>1250</ele>
        <time>2018-10-17T06:51:42Z</time>
      </trkpt>
      <trkpt lat="45.83707" lon="6.42024">
        <ele>1250</ele>
        <time>2018-10-17T06:51:43Z</time>
      </trkpt>
      <trkpt lat="45.83707" lon="6.42024">
        <ele>1250</ele>
        <time>2018-10-17T06:51:44Z</time>
      </trkpt>
      <trkpt lat="45.83706" lon="6.42028">
        <ele>1250</ele>
        <time>2018-10-17T06:51:45Z</time>
      </trkpt>
      <trkpt lat="45.83706" lon="6.42028">
        <ele>1250</ele>
        <time>2018-10-17T06:51:46Z</time>
      </trkpt>
      <trkpt lat="45.83704" lon="6.4203">
        <ele>1250</ele>
        <time>2018-10-17T06:51:47Z</time>
      </trkpt>
      <trkpt lat="45.83704" lon="6.4203">
        <ele>1250</ele>
        <time>2018-10-17T06:51:48Z</time>
      </trkpt>
      <trkpt lat="45.83704" lon="6.42033">
        <ele>1250</ele>
        <time>2018-10-17T06:51:49Z</time>
      </trkpt>
      <trkpt lat="45.83704" lon="6.42033">
        <ele>1250</ele>
        <time>2018-10-17T06:51:50Z</time>
      </trkpt>
      <trkpt lat="45.83703" lon="6.42036">
        <ele>1250</ele>
        <time>2018-10-17T06:51:51Z</time>
      </trkpt>
      <trkpt lat="45.83703" lon="6.42036">
        <ele>1250</ele>
        <time>2018-10-17T06:51:52Z</time>
      </trkpt>
      <trkpt lat="45.83703" lon="6.42036">
        <ele>1251</ele>
        <time>2018-10-17T06:51:53Z</time>
      </trkpt>
      <trkpt lat="45.83702" lon="6.4204">
        <ele>1251</ele>
        <time>2018-10-17T06:51:54Z</time>
      </trkpt>
      <trkpt lat="45.83702" lon="6.4204">
        <ele>1252</ele>
        <time>2018-10-17T06:51:55Z</time>
      </trkpt>
      <trkpt lat="45.83702" lon="6.42043">
        <ele>1253</ele>
        <time>2018-10-17T06:51:56Z</time>
      </trkpt>
      <trkpt lat="45.83702" lon="6.42043">
        <ele>1253</ele>
        <time>2018-10-17T06:51:57Z</time>
      </trkpt>
      <trkpt lat="45.83701" lon="6.42045">
        <ele>1253</ele>
        <time>2018-10-17T06:51:58Z</time>
      </trkpt>
      <trkpt lat="45.83701" lon="6.42045">
        <ele>1253</ele>
        <time>2018-10-17T06:51:59Z</time>
      </trkpt>
      <trkpt lat="45.83701" lon="6.42045">
        <ele>1253</ele>
        <time>2018-10-17T06:52:00Z</time>
      </trkpt>
      <trkpt lat="45.837" lon="6.42048">
        <ele>1253</ele>
        <time>2018-10-17T06:52:01Z</time>
      </trkpt>
      <trkpt lat="45.837" lon="6.42048">
        <ele>1253</ele>
        <time>2018-10-17T06:52:02Z</time>
      </trkpt>
      <trkpt lat="45.83699" lon="6.4205">
        <ele>1253</ele>
        <time>2018-10-17T06:52:03Z</time>
      </trkpt>
      <trkpt lat="45.83699" lon="6.4205">
        <ele>1253</ele>
        <time>2018-10-17T06:52:04Z</time>
      </trkpt>
      <trkpt lat="45.83696" lon="6.42052">
        <ele>1253</ele>
        <time>2018-10-17T06:52:05Z</time>
      </trkpt>
      <trkpt lat="45.83696" lon="6.42052">
        <ele>1253</ele>
        <time>2018-10-17T06:52:06Z</time>
      </trkpt>
      <trkpt lat="45.83693" lon="6.42053">
        <ele>1253</ele>
        <time>2018-10-17T06:52:07Z</time>
      </trkpt>
      <trkpt lat="45.83693" lon="6.42053">
        <ele>1253</ele>
        <time>2018-10-17T06:52:08Z</time>
      </trkpt>
      <trkpt lat="45.83691" lon="6.42055">
        <ele>1253</ele>
        <time>2018-10-17T06:52:09Z</time>
      </trkpt>
      <trkpt lat="45.83691" lon="6.42055">
        <ele>1253</ele>
        <time>2018-10-17T06:52:10Z</time>
      </trkpt>
      <trkpt lat="45.83688" lon="6.42056">
        <ele>1253</ele>
        <time>2018-10-17T06:52:11Z</time>
      </trkpt>
      <trkpt lat="45.83688" lon="6.42056">
        <ele>1254</ele>
        <time>2018-10-17T06:52:12Z</time>
      </trkpt>
      <trkpt lat="45.83686" lon="6.42059">
        <ele>1254</ele>
        <time>2018-10-17T06:52:13Z</time>
      </trkpt>
      <trkpt lat="45.83686" lon="6.42059">
        <ele>1254</ele>
        <time>2018-10-17T06:52:14Z</time>
      </trkpt>
      <trkpt lat="45.83684" lon="6.42061">
        <ele>1254</ele>
        <time>2018-10-17T06:52:15Z</time>
      </trkpt>
      <trkpt lat="45.83684" lon="6.42061">
        <ele>1255</ele>
        <time>2018-10-17T06:52:16Z</time>
      </trkpt>
      <trkpt lat="45.83682" lon="6.42064">
        <ele>1255</ele>
        <time>2018-10-17T06:52:17Z</time>
      </trkpt>
      <trkpt lat="45.83682" lon="6.42064">
        <ele>1255</ele>
        <time>2018-10-17T06:52:18Z</time>
      </trkpt>
      <trkpt lat="45.8368" lon="6.42067">
        <ele>1255</ele>
        <time>2018-10-17T06:52:19Z</time>
      </trkpt>
      <trkpt lat="45.8368" lon="6.42067">
        <ele>1255</ele>
        <time>2018-10-17T06:52:20Z</time>
      </trkpt>
      <trkpt lat="45.8368" lon="6.42071">
        <ele>1256</ele>
        <time>2018-10-17T06:52:21Z</time>
      </trkpt>
      <trkpt lat="45.8368" lon="6.42071">
        <ele>1256</ele>
        <time>2018-10-17T06:52:22Z</time>
      </trkpt>
      <trkpt lat="45.83679" lon="6.42075">
        <ele>1256</ele>
        <time>2018-10-17T06:52:23Z</time>
      </trkpt>
      <trkpt lat="45.83679" lon="6.42075">
        <ele>1256</ele>
        <time>2018-10-17T06:52:24Z</time>
      </trkpt>
      <trkpt lat="45.83678" lon="6.42079">
        <ele>1256</ele>
        <time>2018-10-17T06:52:25Z</time>
      </trkpt>
      <trkpt lat="45.83678" lon="6.42079">
        <ele>1257</ele>
        <time>2018-10-17T06:52:26Z</time>
      </trkpt>
      <trkpt lat="45.83677" lon="6.42082">
        <ele>1257</ele>
        <time>2018-10-17T06:52:27Z</time>
      </trkpt>
      <trkpt lat="45.83677" lon="6.42082">
        <ele>1257</ele>
        <time>2018-10-17T06:52:28Z</time>
      </trkpt>
      <trkpt lat="45.83677" lon="6.42082">
        <ele>1257</ele>
        <time>2018-10-17T06:52:29Z</time>
      </trkpt>
      <trkpt lat="45.83677" lon="6.42082">
        <ele>1257</ele>
        <time>2018-10-17T06:52:30Z</time>
      </trkpt>
      <trkpt lat="45.83675" lon="6.42083">
        <ele>1257</ele>
        <time>2018-10-17T06:52:31Z</time>
      </trkpt>
      <trkpt lat="45.83675" lon="6.42083">
        <ele>1257</ele>
        <time>2018-10-17T06:52:32Z</time>
      </trkpt>
      <trkpt lat="45.83675" lon="6.42083">
        <ele>1257</ele>
        <time>2018-10-17T06:52:33Z</time>
      </trkpt>
      <trkpt lat="45.83674" lon="6.42085">
        <ele>1257</ele>
        <time>2018-10-17T06:52:34Z</time>
      </trkpt>
      <trkpt lat="45.83674" lon="6.42085">
        <ele>1257</ele>
        <time>2018-10-17T06:52:35Z</time>
      </trkpt>
      <trkpt lat="45.83672" lon="6.42086">
        <ele>1258</ele>
        <time>2018-10-17T06:52:36Z</time>
      </trkpt>
      <trkpt lat="45.83672" lon="6.42086">
        <ele>1259</ele>
        <time>2018-10-17T06:52:37Z</time>
      </trkpt>
      <trkpt lat="45.83672" lon="6.42086">
        <ele>1259</ele>
        <time>2018-10-17T06:52:38Z</time>
      </trkpt>
      <trkpt lat="45.83672" lon="6.42086">
        <ele>1259</ele>
        <time>2018-10-17T06:52:39Z</time>
      </trkpt>
      <trkpt lat="45.83672" lon="6.42086">
        <ele>1259</ele>
        <time>2018-10-17T06:52:40Z</time>
      </trkpt>
      <trkpt lat="45.83667" lon="6.4209">
        <ele>1259</ele>
        <time>2018-10-17T06:52:41Z</time>
      </trkpt>
      <trkpt lat="45.83667" lon="6.4209">
        <ele>1259</ele>
        <time>2018-10-17T06:52:42Z</time>
      </trkpt>
      <trkpt lat="45.83666" lon="6.42092">
        <ele>1259</ele>
        <time>2018-10-17T06:52:43Z</time>
      </trkpt>
      <trkpt lat="45.83666" lon="6.42092">
        <ele>1260</ele>
        <time>2018-10-17T06:52:44Z</time>
      </trkpt>
      <trkpt lat="45.83666" lon="6.42092">
        <ele>1261</ele>
        <time>2018-10-17T06:52:45Z</time>
      </trkpt>
      <trkpt lat="45.83666" lon="6.42092">
        <ele>1261</ele>
        <time>2018-10-17T06:52:46Z</time>
      </trkpt>
      <trkpt lat="45.83666" lon="6.42092">
        <ele>1261</ele>
        <time>2018-10-17T06:52:47Z</time>
      </trkpt>
      <trkpt lat="45.83666" lon="6.42092">
        <ele>1261</ele>
        <time>2018-10-17T06:52:48Z</time>
      </trkpt>
      <trkpt lat="45.83666" lon="6.42092">
        <ele>1262</ele>
        <time>2018-10-17T06:52:49Z</time>
      </trkpt>
      <trkpt lat="45.83666" lon="6.42092">
        <ele>1262</ele>
        <time>2018-10-17T06:52:50Z</time>
      </trkpt>
      <trkpt lat="45.83666" lon="6.42092">
        <ele>1262</ele>
        <time>2018-10-17T06:52:51Z</time>
      </trkpt>
      <trkpt lat="45.83666" lon="6.42092">
        <ele>1263</ele>
        <time>2018-10-17T06:52:52Z</time>
      </trkpt>
      <trkpt lat="45.83666" lon="6.42092">
        <ele>1263</ele>
        <time>2018-10-17T06:52:53Z</time>
      </trkpt>
      <trkpt lat="45.83665" lon="6.42105">
        <ele>1263</ele>
        <time>2018-10-17T06:52:54Z</time>
      </trkpt>
      <trkpt lat="45.83665" lon="6.42105">
        <ele>1263</ele>
        <time>2018-10-17T06:52:55Z</time>
      </trkpt>
      <trkpt lat="45.83665" lon="6.42105">
        <ele>1264</ele>
        <time>2018-10-17T06:52:56Z</time>
      </trkpt>
      <trkpt lat="45.83665" lon="6.42105">
        <ele>1265</ele>
        <time>2018-10-17T06:52:57Z</time>
      </trkpt>
      <trkpt lat="45.83665" lon="6.42105">
        <ele>1265</ele>
        <time>2018-10-17T06:52:58Z</time>
      </trkpt>
      <trkpt lat="45.83665" lon="6.42105">
        <ele>1265</ele>
        <time>2018-10-17T06:52:59Z</time>
      </trkpt>
      <trkpt lat="45.83665" lon="6.42105">
        <ele>1265</ele>
        <time>2018-10-17T06:53:00Z</time>
      </trkpt>
      <trkpt lat="45.83665" lon="6.42105">
        <ele>1266</ele>
        <time>2018-10-17T06:53:01Z</time>
      </trkpt>
      <trkpt lat="45.83665" lon="6.42105">
        <ele>1266</ele>
        <time>2018-10-17T06:53:02Z</time>
      </trkpt>
      <trkpt lat="45.83665" lon="6.42105">
        <ele>1266</ele>
        <time>2018-10-17T06:53:03Z</time>
      </trkpt>
      <trkpt lat="45.83665" lon="6.42105">
        <ele>1266</ele>
        <time>2018-10-17T06:53:04Z</time>
      </trkpt>
      <trkpt lat="45.83665" lon="6.42105">
        <ele>1267</ele>
        <time>2018-10-17T06:53:05Z</time>
      </trkpt>
      <trkpt lat="45.83665" lon="6.42105">
        <ele>1267</ele>
        <time>2018-10-17T06:53:06Z</time>
      </trkpt>
      <trkpt lat="45.83663" lon="6.42119">
        <ele>1267</ele>
        <time>2018-10-17T06:53:07Z</time>
      </trkpt>
      <trkpt lat="45.83663" lon="6.42119">
        <ele>1267</ele>
        <time>2018-10-17T06:53:08Z</time>
      </trkpt>
      <trkpt lat="45.83663" lon="6.42119">
        <ele>1267</ele>
        <time>2018-10-17T06:53:09Z</time>
      </trkpt>
      <trkpt lat="45.83663" lon="6.42119">
        <ele>1268</ele>
        <time>2018-10-17T06:53:10Z</time>
      </trkpt>
      <trkpt lat="45.83663" lon="6.42119">
        <ele>1268</ele>
        <time>2018-10-17T06:53:11Z</time>
      </trkpt>
      <trkpt lat="45.83663" lon="6.42119">
        <ele>1268</ele>
        <time>2018-10-17T06:53:12Z</time>
      </trkpt>
      <trkpt lat="45.83663" lon="6.42119">
        <ele>1269</ele>
        <time>2018-10-17T06:53:13Z</time>
      </trkpt>
      <trkpt lat="45.83663" lon="6.42119">
        <ele>1269</ele>
        <time>2018-10-17T06:53:14Z</time>
      </trkpt>
      <trkpt lat="45.83663" lon="6.42119">
        <ele>1269</ele>
        <time>2018-10-17T06:53:15Z</time>
      </trkpt>
      <trkpt lat="45.83663" lon="6.42119">
        <ele>1270</ele>
        <time>2018-10-17T06:53:16Z</time>
      </trkpt>
      <trkpt lat="45.83663" lon="6.42119">
        <ele>1270</ele>
        <time>2018-10-17T06:53:17Z</time>
      </trkpt>
      <trkpt lat="45.83663" lon="6.42119">
        <ele>1270</ele>
        <time>2018-10-17T06:53:18Z</time>
      </trkpt>
      <trkpt lat="45.8366" lon="6.42132">
        <ele>1270</ele>
        <time>2018-10-17T06:53:19Z</time>
      </trkpt>
      <trkpt lat="45.8366" lon="6.42132">
        <ele>1270</ele>
        <time>2018-10-17T06:53:20Z</time>
      </trkpt>
      <trkpt lat="45.8366" lon="6.42132">
        <ele>1270</ele>
        <time>2018-10-17T06:53:21Z</time>
      </trkpt>
      <trkpt lat="45.8366" lon="6.42132">
        <ele>1271</ele>
        <time>2018-10-17T06:53:22Z</time>
      </trkpt>
      <trkpt lat="45.8366" lon="6.42132">
        <ele>1272</ele>
        <time>2018-10-17T06:53:23Z</time>
      </trkpt>
      <trkpt lat="45.8366" lon="6.42132">
        <ele>1272</ele>
        <time>2018-10-17T06:53:24Z</time>
      </trkpt>
      <trkpt lat="45.8366" lon="6.42132">
        <ele>1272</ele>
        <time>2018-10-17T06:53:25Z</time>
      </trkpt>
      <trkpt lat="45.8366" lon="6.42132">
        <ele>1272</ele>
        <time>2018-10-17T06:53:26Z</time>
      </trkpt>
      <trkpt lat="45.8366" lon="6.42132">
        <ele>1272</ele>
        <time>2018-10-17T06:53:27Z</time>
      </trkpt>
      <trkpt lat="45.83651" lon="6.42137">
        <ele>1272</ele>
        <time>2018-10-17T06:53:28Z</time>
      </trkpt>
      <trkpt lat="45.83651" lon="6.42137">
        <ele>1272</ele>
        <time>2018-10-17T06:53:29Z</time>
      </trkpt>
      <trkpt lat="45.83651" lon="6.42137">
        <ele>1273</ele>
        <time>2018-10-17T06:53:30Z</time>
      </trkpt>
      <trkpt lat="45.83651" lon="6.42137">
        <ele>1273</ele>
        <time>2018-10-17T06:53:31Z</time>
      </trkpt>
      <trkpt lat="45.83651" lon="6.42137">
        <ele>1273</ele>
        <time>2018-10-17T06:53:32Z</time>
      </trkpt>
      <trkpt lat="45.83651" lon="6.42137">
        <ele>1273</ele>
        <time>2018-10-17T06:53:33Z</time>
      </trkpt>
      <trkpt lat="45.83651" lon="6.42137">
        <ele>1273</ele>
        <time>2018-10-17T06:53:34Z</time>
      </trkpt>
      <trkpt lat="45.83651" lon="6.42137">
        <ele>1273</ele>
        <time>2018-10-17T06:53:35Z</time>
      </trkpt>
      <trkpt lat="45.83651" lon="6.42137">
        <ele>1274</ele>
        <time>2018-10-17T06:53:36Z</time>
      </trkpt>
      <trkpt lat="45.83646" lon="6.42147">
        <ele>1274</ele>
        <time>2018-10-17T06:53:37Z</time>
      </trkpt>
      <trkpt lat="45.83646" lon="6.42147">
        <ele>1275</ele>
        <time>2018-10-17T06:53:38Z</time>
      </trkpt>
      <trkpt lat="45.83646" lon="6.42147">
        <ele>1275</ele>
        <time>2018-10-17T06:53:39Z</time>
      </trkpt>
      <trkpt lat="45.83646" lon="6.42147">
        <ele>1275</ele>
        <time>2018-10-17T06:53:40Z</time>
      </trkpt>
      <trkpt lat="45.83646" lon="6.42147">
        <ele>1275</ele>
        <time>2018-10-17T06:53:41Z</time>
      </trkpt>
      <trkpt lat="45.83646" lon="6.42147">
        <ele>1275</ele>
        <time>2018-10-17T06:53:42Z</time>
      </trkpt>
      <trkpt lat="45.83646" lon="6.42147">
        <ele>1275</ele>
        <time>2018-10-17T06:53:43Z</time>
      </trkpt>
      <trkpt lat="45.83646" lon="6.42147">
        <ele>1276</ele>
        <time>2018-10-17T06:53:44Z</time>
      </trkpt>
      <trkpt lat="45.83646" lon="6.42147">
        <ele>1276</ele>
        <time>2018-10-17T06:53:45Z</time>
      </trkpt>
      <trkpt lat="45.83646" lon="6.42147">
        <ele>1276</ele>
        <time>2018-10-17T06:53:46Z</time>
      </trkpt>
      <trkpt lat="45.83646" lon="6.42147">
        <ele>1277</ele>
        <time>2018-10-17T06:53:47Z</time>
      </trkpt>
      <trkpt lat="45.83641" lon="6.42158">
        <ele>1277</ele>
        <time>2018-10-17T06:53:48Z</time>
      </trkpt>
      <trkpt lat="45.83641" lon="6.42158">
        <ele>1277</ele>
        <time>2018-10-17T06:53:49Z</time>
      </trkpt>
      <trkpt lat="45.83641" lon="6.42158">
        <ele>1277</ele>
        <time>2018-10-17T06:53:50Z</time>
      </trkpt>
      <trkpt lat="45.83641" lon="6.42158">
        <ele>1278</ele>
        <time>2018-10-17T06:53:51Z</time>
      </trkpt>
      <trkpt lat="45.83641" lon="6.42158">
        <ele>1278</ele>
        <time>2018-10-17T06:53:52Z</time>
      </trkpt>
      <trkpt lat="45.83641" lon="6.42158">
        <ele>1279</ele>
        <time>2018-10-17T06:53:53Z</time>
      </trkpt>
      <trkpt lat="45.83641" lon="6.42158">
        <ele>1279</ele>
        <time>2018-10-17T06:53:54Z</time>
      </trkpt>
      <trkpt lat="45.83641" lon="6.42158">
        <ele>1279</ele>
        <time>2018-10-17T06:53:55Z</time>
      </trkpt>
      <trkpt lat="45.83641" lon="6.42158">
        <ele>1279</ele>
        <time>2018-10-17T06:53:56Z</time>
      </trkpt>
      <trkpt lat="45.83641" lon="6.42158">
        <ele>1280</ele>
        <time>2018-10-17T06:53:57Z</time>
      </trkpt>
      <trkpt lat="45.83641" lon="6.42158">
        <ele>1280</ele>
        <time>2018-10-17T06:53:58Z</time>
      </trkpt>
      <trkpt lat="45.83641" lon="6.42158">
        <ele>1280</ele>
        <time>2018-10-17T06:53:59Z</time>
      </trkpt>
      <trkpt lat="45.83641" lon="6.42158">
        <ele>1281</ele>
        <time>2018-10-17T06:54:00Z</time>
      </trkpt>
      <trkpt lat="45.83639" lon="6.42171">
        <ele>1281</ele>
        <time>2018-10-17T06:54:01Z</time>
      </trkpt>
      <trkpt lat="45.83639" lon="6.42171">
        <ele>1282</ele>
        <time>2018-10-17T06:54:02Z</time>
      </trkpt>
      <trkpt lat="45.83639" lon="6.42171">
        <ele>1282</ele>
        <time>2018-10-17T06:54:03Z</time>
      </trkpt>
      <trkpt lat="45.83639" lon="6.42171">
        <ele>1282</ele>
        <time>2018-10-17T06:54:04Z</time>
      </trkpt>
      <trkpt lat="45.83639" lon="6.42171">
        <ele>1282</ele>
        <time>2018-10-17T06:54:05Z</time>
      </trkpt>
      <trkpt lat="45.83639" lon="6.42171">
        <ele>1282</ele>
        <time>2018-10-17T06:54:06Z</time>
      </trkpt>
      <trkpt lat="45.83639" lon="6.42171">
        <ele>1283</ele>
        <time>2018-10-17T06:54:07Z</time>
      </trkpt>
      <trkpt lat="45.83639" lon="6.42171">
        <ele>1283</ele>
        <time>2018-10-17T06:54:08Z</time>
      </trkpt>
      <trkpt lat="45.83639" lon="6.42171">
        <ele>1283</ele>
        <time>2018-10-17T06:54:09Z</time>
      </trkpt>
      <trkpt lat="45.83639" lon="6.42171">
        <ele>1284</ele>
        <time>2018-10-17T06:54:10Z</time>
      </trkpt>
      <trkpt lat="45.83639" lon="6.42171">
        <ele>1284</ele>
        <time>2018-10-17T06:54:11Z</time>
      </trkpt>
      <trkpt lat="45.83639" lon="6.42171">
        <ele>1284</ele>
        <time>2018-10-17T06:54:12Z</time>
      </trkpt>
      <trkpt lat="45.83635" lon="6.42183">
        <ele>1284</ele>
        <time>2018-10-17T06:54:13Z</time>
      </trkpt>
      <trkpt lat="45.83635" lon="6.42183">
        <ele>1284</ele>
        <time>2018-10-17T06:54:14Z</time>
      </trkpt>
      <trkpt lat="45.83635" lon="6.42183">
        <ele>1285</ele>
        <time>2018-10-17T06:54:15Z</time>
      </trkpt>
      <trkpt lat="45.83635" lon="6.42183">
        <ele>1285</ele>
        <time>2018-10-17T06:54:16Z</time>
      </trkpt>
      <trkpt lat="45.83635" lon="6.42183">
        <ele>1285</ele>
        <time>2018-10-17T06:54:17Z</time>
      </trkpt>
      <trkpt lat="45.83635" lon="6.42183">
        <ele>1285</ele>
        <time>2018-10-17T06:54:18Z</time>
      </trkpt>
      <trkpt lat="45.83635" lon="6.42183">
        <ele>1285</ele>
        <time>2018-10-17T06:54:19Z</time>
      </trkpt>
      <trkpt lat="45.83635" lon="6.42183">
        <ele>1285</ele>
        <time>2018-10-17T06:54:20Z</time>
      </trkpt>
      <trkpt lat="45.83635" lon="6.42183">
        <ele>1286</ele>
        <time>2018-10-17T06:54:21Z</time>
      </trkpt>
      <trkpt lat="45.83635" lon="6.42183">
        <ele>1287</ele>
        <time>2018-10-17T06:54:22Z</time>
      </trkpt>
      <trkpt lat="45.83632" lon="6.42196">
        <ele>1287</ele>
        <time>2018-10-17T06:54:23Z</time>
      </trkpt>
      <trkpt lat="45.83632" lon="6.42196">
        <ele>1287</ele>
        <time>2018-10-17T06:54:24Z</time>
      </trkpt>
      <trkpt lat="45.83632" lon="6.42196">
        <ele>1287</ele>
        <time>2018-10-17T06:54:25Z</time>
      </trkpt>
      <trkpt lat="45.83632" lon="6.42196">
        <ele>1287</ele>
        <time>2018-10-17T06:54:26Z</time>
      </trkpt>
      <trkpt lat="45.83629" lon="6.42198">
        <ele>1288</ele>
        <time>2018-10-17T06:54:27Z</time>
      </trkpt>
      <trkpt lat="45.83629" lon="6.42198">
        <ele>1288</ele>
        <time>2018-10-17T06:54:28Z</time>
      </trkpt>
      <trkpt lat="45.83629" lon="6.42198">
        <ele>1288</ele>
        <time>2018-10-17T06:54:29Z</time>
      </trkpt>
      <trkpt lat="45.83629" lon="6.42198">
        <ele>1288</ele>
        <time>2018-10-17T06:54:30Z</time>
      </trkpt>
      <trkpt lat="45.83629" lon="6.42198">
        <ele>1288</ele>
        <time>2018-10-17T06:54:31Z</time>
      </trkpt>
      <trkpt lat="45.83629" lon="6.42198">
        <ele>1288</ele>
        <time>2018-10-17T06:54:32Z</time>
      </trkpt>
      <trkpt lat="45.83629" lon="6.42198">
        <ele>1288</ele>
        <time>2018-10-17T06:54:33Z</time>
      </trkpt>
      <trkpt lat="45.83626" lon="6.42205">
        <ele>1288</ele>
        <time>2018-10-17T06:54:34Z</time>
      </trkpt>
      <trkpt lat="45.83626" lon="6.42205">
        <ele>1289</ele>
        <time>2018-10-17T06:54:35Z</time>
      </trkpt>
      <trkpt lat="45.83626" lon="6.42208">
        <ele>1289</ele>
        <time>2018-10-17T06:54:36Z</time>
      </trkpt>
      <trkpt lat="45.83626" lon="6.42208">
        <ele>1289</ele>
        <time>2018-10-17T06:54:37Z</time>
      </trkpt>
      <trkpt lat="45.83625" lon="6.42212">
        <ele>1289</ele>
        <time>2018-10-17T06:54:38Z</time>
      </trkpt>
      <trkpt lat="45.83625" lon="6.42212">
        <ele>1290</ele>
        <time>2018-10-17T06:54:39Z</time>
      </trkpt>
      <trkpt lat="45.83623" lon="6.42214">
        <ele>1290</ele>
        <time>2018-10-17T06:54:40Z</time>
      </trkpt>
      <trkpt lat="45.83623" lon="6.42214">
        <ele>1290</ele>
        <time>2018-10-17T06:54:41Z</time>
      </trkpt>
      <trkpt lat="45.83623" lon="6.42214">
        <ele>1290</ele>
        <time>2018-10-17T06:54:42Z</time>
      </trkpt>
      <trkpt lat="45.83623" lon="6.42214">
        <ele>1291</ele>
        <time>2018-10-17T06:54:43Z</time>
      </trkpt>
      <trkpt lat="45.83623" lon="6.42214">
        <ele>1291</ele>
        <time>2018-10-17T06:54:44Z</time>
      </trkpt>
      <trkpt lat="45.83623" lon="6.42214">
        <ele>1291</ele>
        <time>2018-10-17T06:54:45Z</time>
      </trkpt>
      <trkpt lat="45.83623" lon="6.42214">
        <ele>1292</ele>
        <time>2018-10-17T06:54:46Z</time>
      </trkpt>
      <trkpt lat="45.83623" lon="6.42214">
        <ele>1292</ele>
        <time>2018-10-17T06:54:47Z</time>
      </trkpt>
      <trkpt lat="45.83623" lon="6.42214">
        <ele>1292</ele>
        <time>2018-10-17T06:54:48Z</time>
      </trkpt>
      <trkpt lat="45.83623" lon="6.42214">
        <ele>1292</ele>
        <time>2018-10-17T06:54:49Z</time>
      </trkpt>
      <trkpt lat="45.83623" lon="6.42214">
        <ele>1293</ele>
        <time>2018-10-17T06:54:50Z</time>
      </trkpt>
      <trkpt lat="45.83623" lon="6.42214">
        <ele>1294</ele>
        <time>2018-10-17T06:54:51Z</time>
      </trkpt>
      <trkpt lat="45.83623" lon="6.42214">
        <ele>1294</ele>
        <time>2018-10-17T06:54:52Z</time>
      </trkpt>
      <trkpt lat="45.83622" lon="6.42227">
        <ele>1294</ele>
        <time>2018-10-17T06:54:53Z</time>
      </trkpt>
      <trkpt lat="45.83622" lon="6.42227">
        <ele>1295</ele>
        <time>2018-10-17T06:54:54Z</time>
      </trkpt>
      <trkpt lat="45.83622" lon="6.42227">
        <ele>1295</ele>
        <time>2018-10-17T06:54:55Z</time>
      </trkpt>
      <trkpt lat="45.83622" lon="6.42227">
        <ele>1295</ele>
        <time>2018-10-17T06:54:56Z</time>
      </trkpt>
      <trkpt lat="45.83622" lon="6.42227">
        <ele>1295</ele>
        <time>2018-10-17T06:54:57Z</time>
      </trkpt>
      <trkpt lat="45.83622" lon="6.42227">
        <ele>1296</ele>
        <time>2018-10-17T06:54:58Z</time>
      </trkpt>
      <trkpt lat="45.83622" lon="6.42227">
        <ele>1296</ele>
        <time>2018-10-17T06:54:59Z</time>
      </trkpt>
      <trkpt lat="45.83622" lon="6.42227">
        <ele>1296</ele>
        <time>2018-10-17T06:55:00Z</time>
      </trkpt>
      <trkpt lat="45.83622" lon="6.42227">
        <ele>1296</ele>
        <time>2018-10-17T06:55:01Z</time>
      </trkpt>
      <trkpt lat="45.83621" lon="6.4224">
        <ele>1296</ele>
        <time>2018-10-17T06:55:02Z</time>
      </trkpt>
      <trkpt lat="45.83621" lon="6.4224">
        <ele>1297</ele>
        <time>2018-10-17T06:55:03Z</time>
      </trkpt>
      <trkpt lat="45.83621" lon="6.4224">
        <ele>1297</ele>
        <time>2018-10-17T06:55:04Z</time>
      </trkpt>
      <trkpt lat="45.83621" lon="6.4224">
        <ele>1298</ele>
        <time>2018-10-17T06:55:05Z</time>
      </trkpt>
      <trkpt lat="45.83621" lon="6.4224">
        <ele>1298</ele>
        <time>2018-10-17T06:55:06Z</time>
      </trkpt>
      <trkpt lat="45.83621" lon="6.4224">
        <ele>1298</ele>
        <time>2018-10-17T06:55:07Z</time>
      </trkpt>
      <trkpt lat="45.83621" lon="6.4224">
        <ele>1299</ele>
        <time>2018-10-17T06:55:08Z</time>
      </trkpt>
      <trkpt lat="45.83621" lon="6.4224">
        <ele>1299</ele>
        <time>2018-10-17T06:55:09Z</time>
      </trkpt>
      <trkpt lat="45.83621" lon="6.4224">
        <ele>1299</ele>
        <time>2018-10-17T06:55:10Z</time>
      </trkpt>
      <trkpt lat="45.83617" lon="6.42253">
        <ele>1300</ele>
        <time>2018-10-17T06:55:11Z</time>
      </trkpt>
      <trkpt lat="45.83617" lon="6.42253">
        <ele>1300</ele>
        <time>2018-10-17T06:55:12Z</time>
      </trkpt>
      <trkpt lat="45.83617" lon="6.42253">
        <ele>1300</ele>
        <time>2018-10-17T06:55:13Z</time>
      </trkpt>
      <trkpt lat="45.83617" lon="6.42253">
        <ele>1300</ele>
        <time>2018-10-17T06:55:14Z</time>
      </trkpt>
      <trkpt lat="45.83617" lon="6.42253">
        <ele>1300</ele>
        <time>2018-10-17T06:55:15Z</time>
      </trkpt>
      <trkpt lat="45.83617" lon="6.42253">
        <ele>1300</ele>
        <time>2018-10-17T06:55:16Z</time>
      </trkpt>
      <trkpt lat="45.83617" lon="6.42253">
        <ele>1300</ele>
        <time>2018-10-17T06:55:17Z</time>
      </trkpt>
      <trkpt lat="45.83617" lon="6.42253">
        <ele>1300</ele>
        <time>2018-10-17T06:55:18Z</time>
      </trkpt>
      <trkpt lat="45.83617" lon="6.42253">
        <ele>1300</ele>
        <time>2018-10-17T06:55:19Z</time>
      </trkpt>
      <trkpt lat="45.83617" lon="6.42253">
        <ele>1301</ele>
        <time>2018-10-17T06:55:20Z</time>
      </trkpt>
      <trkpt lat="45.83617" lon="6.42253">
        <ele>1301</ele>
        <time>2018-10-17T06:55:21Z</time>
      </trkpt>
      <trkpt lat="45.83617" lon="6.42253">
        <ele>1302</ele>
        <time>2018-10-17T06:55:22Z</time>
      </trkpt>
      <trkpt lat="45.83617" lon="6.42253">
        <ele>1302</ele>
        <time>2018-10-17T06:55:23Z</time>
      </trkpt>
      <trkpt lat="45.83612" lon="6.42263">
        <ele>1302</ele>
        <time>2018-10-17T06:55:24Z</time>
      </trkpt>
      <trkpt lat="45.83612" lon="6.42263">
        <ele>1302</ele>
        <time>2018-10-17T06:55:25Z</time>
      </trkpt>
      <trkpt lat="45.83612" lon="6.42263">
        <ele>1302</ele>
        <time>2018-10-17T06:55:26Z</time>
      </trkpt>
      <trkpt lat="45.83612" lon="6.42263">
        <ele>1302</ele>
        <time>2018-10-17T06:55:27Z</time>
      </trkpt>
      <trkpt lat="45.83612" lon="6.42266">
        <ele>1302</ele>
        <time>2018-10-17T06:55:28Z</time>
      </trkpt>
      <trkpt lat="45.83612" lon="6.42266">
        <ele>1303</ele>
        <time>2018-10-17T06:55:29Z</time>
      </trkpt>
      <trkpt lat="45.83612" lon="6.42266">
        <ele>1303</ele>
        <time>2018-10-17T06:55:30Z</time>
      </trkpt>
      <trkpt lat="45.83612" lon="6.42266">
        <ele>1303</ele>
        <time>2018-10-17T06:55:31Z</time>
      </trkpt>
      <trkpt lat="45.83611" lon="6.42268">
        <ele>1303</ele>
        <time>2018-10-17T06:55:32Z</time>
      </trkpt>
      <trkpt lat="45.83611" lon="6.42268">
        <ele>1303</ele>
        <time>2018-10-17T06:55:33Z</time>
      </trkpt>
      <trkpt lat="45.83611" lon="6.42268">
        <ele>1303</ele>
        <time>2018-10-17T06:55:34Z</time>
      </trkpt>
      <trkpt lat="45.8361" lon="6.42271">
        <ele>1303</ele>
        <time>2018-10-17T06:55:35Z</time>
      </trkpt>
      <trkpt lat="45.8361" lon="6.42271">
        <ele>1303</ele>
        <time>2018-10-17T06:55:36Z</time>
      </trkpt>
      <trkpt lat="45.83609" lon="6.42273">
        <ele>1303</ele>
        <time>2018-10-17T06:55:37Z</time>
      </trkpt>
      <trkpt lat="45.83609" lon="6.42273">
        <ele>1304</ele>
        <time>2018-10-17T06:55:38Z</time>
      </trkpt>
      <trkpt lat="45.83609" lon="6.42273">
        <ele>1304</ele>
        <time>2018-10-17T06:55:39Z</time>
      </trkpt>
      <trkpt lat="45.83607" lon="6.42274">
        <ele>1304</ele>
        <time>2018-10-17T06:55:40Z</time>
      </trkpt>
      <trkpt lat="45.83607" lon="6.42274">
        <ele>1304</ele>
        <time>2018-10-17T06:55:41Z</time>
      </trkpt>
      <trkpt lat="45.83607" lon="6.42274">
        <ele>1304</ele>
        <time>2018-10-17T06:55:42Z</time>
      </trkpt>
      <trkpt lat="45.83605" lon="6.42276">
        <ele>1304</ele>
        <time>2018-10-17T06:55:43Z</time>
      </trkpt>
      <trkpt lat="45.83605" lon="6.42276">
        <ele>1305</ele>
        <time>2018-10-17T06:55:44Z</time>
      </trkpt>
      <trkpt lat="45.83603" lon="6.42278">
        <ele>1305</ele>
        <time>2018-10-17T06:55:45Z</time>
      </trkpt>
      <trkpt lat="45.83603" lon="6.42278">
        <ele>1305</ele>
        <time>2018-10-17T06:55:46Z</time>
      </trkpt>
      <trkpt lat="45.83603" lon="6.42278">
        <ele>1305</ele>
        <time>2018-10-17T06:55:47Z</time>
      </trkpt>
      <trkpt lat="45.83602" lon="6.42281">
        <ele>1305</ele>
        <time>2018-10-17T06:55:48Z</time>
      </trkpt>
      <trkpt lat="45.83602" lon="6.42281">
        <ele>1306</ele>
        <time>2018-10-17T06:55:49Z</time>
      </trkpt>
      <trkpt lat="45.836" lon="6.42283">
        <ele>1306</ele>
        <time>2018-10-17T06:55:50Z</time>
      </trkpt>
      <trkpt lat="45.836" lon="6.42283">
        <ele>1306</ele>
        <time>2018-10-17T06:55:51Z</time>
      </trkpt>
      <trkpt lat="45.83599" lon="6.42285">
        <ele>1306</ele>
        <time>2018-10-17T06:55:52Z</time>
      </trkpt>
      <trkpt lat="45.83599" lon="6.42285">
        <ele>1306</ele>
        <time>2018-10-17T06:55:53Z</time>
      </trkpt>
      <trkpt lat="45.83598" lon="6.42288">
        <ele>1306</ele>
        <time>2018-10-17T06:55:54Z</time>
      </trkpt>
      <trkpt lat="45.83598" lon="6.42288">
        <ele>1307</ele>
        <time>2018-10-17T06:55:55Z</time>
      </trkpt>
      <trkpt lat="45.83598" lon="6.42288">
        <ele>1307</ele>
        <time>2018-10-17T06:55:56Z</time>
      </trkpt>
      <trkpt lat="45.83596" lon="6.4229">
        <ele>1307</ele>
        <time>2018-10-17T06:55:57Z</time>
      </trkpt>
      <trkpt lat="45.83596" lon="6.4229">
        <ele>1308</ele>
        <time>2018-10-17T06:55:58Z</time>
      </trkpt>
      <trkpt lat="45.83596" lon="6.4229">
        <ele>1308</ele>
        <time>2018-10-17T06:55:59Z</time>
      </trkpt>
      <trkpt lat="45.83594" lon="6.42293">
        <ele>1308</ele>
        <time>2018-10-17T06:56:00Z</time>
      </trkpt>
      <trkpt lat="45.83594" lon="6.42293">
        <ele>1308</ele>
        <time>2018-10-17T06:56:01Z</time>
      </trkpt>
      <trkpt lat="45.83594" lon="6.42297">
        <ele>1309</ele>
        <time>2018-10-17T06:56:02Z</time>
      </trkpt>
      <trkpt lat="45.83594" lon="6.42297">
        <ele>1309</ele>
        <time>2018-10-17T06:56:03Z</time>
      </trkpt>
      <trkpt lat="45.83593" lon="6.423">
        <ele>1310</ele>
        <time>2018-10-17T06:56:04Z</time>
      </trkpt>
      <trkpt lat="45.83593" lon="6.423">
        <ele>1310</ele>
        <time>2018-10-17T06:56:05Z</time>
      </trkpt>
      <trkpt lat="45.83592" lon="6.42304">
        <ele>1310</ele>
        <time>2018-10-17T06:56:06Z</time>
      </trkpt>
      <trkpt lat="45.83592" lon="6.42304">
        <ele>1310</ele>
        <time>2018-10-17T06:56:07Z</time>
      </trkpt>
      <trkpt lat="45.83592" lon="6.42308">
        <ele>1310</ele>
        <time>2018-10-17T06:56:08Z</time>
      </trkpt>
      <trkpt lat="45.83592" lon="6.42308">
        <ele>1311</ele>
        <time>2018-10-17T06:56:09Z</time>
      </trkpt>
      <trkpt lat="45.83592" lon="6.42313">
        <ele>1311</ele>
        <time>2018-10-17T06:56:10Z</time>
      </trkpt>
      <trkpt lat="45.83592" lon="6.42313">
        <ele>1311</ele>
        <time>2018-10-17T06:56:11Z</time>
      </trkpt>
      <trkpt lat="45.83593" lon="6.42316">
        <ele>1311</ele>
        <time>2018-10-17T06:56:12Z</time>
      </trkpt>
      <trkpt lat="45.83593" lon="6.42316">
        <ele>1312</ele>
        <time>2018-10-17T06:56:13Z</time>
      </trkpt>
      <trkpt lat="45.83593" lon="6.42319">
        <ele>1313</ele>
        <time>2018-10-17T06:56:14Z</time>
      </trkpt>
      <trkpt lat="45.83593" lon="6.42319">
        <ele>1313</ele>
        <time>2018-10-17T06:56:15Z</time>
      </trkpt>
      <trkpt lat="45.83593" lon="6.42319">
        <ele>1313</ele>
        <time>2018-10-17T06:56:16Z</time>
      </trkpt>
      <trkpt lat="45.83593" lon="6.42324">
        <ele>1313</ele>
        <time>2018-10-17T06:56:17Z</time>
      </trkpt>
      <trkpt lat="45.83593" lon="6.42324">
        <ele>1313</ele>
        <time>2018-10-17T06:56:18Z</time>
      </trkpt>
      <trkpt lat="45.83593" lon="6.42324">
        <ele>1313</ele>
        <time>2018-10-17T06:56:19Z</time>
      </trkpt>
      <trkpt lat="45.83593" lon="6.42324">
        <ele>1313</ele>
        <time>2018-10-17T06:56:20Z</time>
      </trkpt>
      <trkpt lat="45.83593" lon="6.42324">
        <ele>1314</ele>
        <time>2018-10-17T06:56:21Z</time>
      </trkpt>
      <trkpt lat="45.83593" lon="6.42324">
        <ele>1314</ele>
        <time>2018-10-17T06:56:22Z</time>
      </trkpt>
      <trkpt lat="45.83593" lon="6.42324">
        <ele>1314</ele>
        <time>2018-10-17T06:56:23Z</time>
      </trkpt>
      <trkpt lat="45.83594" lon="6.42321">
        <ele>1315</ele>
        <time>2018-10-17T06:56:24Z</time>
      </trkpt>
      <trkpt lat="45.83594" lon="6.42321">
        <ele>1315</ele>
        <time>2018-10-17T06:56:25Z</time>
      </trkpt>
      <trkpt lat="45.83594" lon="6.42321">
        <ele>1315</ele>
        <time>2018-10-17T06:56:26Z</time>
      </trkpt>
      <trkpt lat="45.83596" lon="6.42318">
        <ele>1315</ele>
        <time>2018-10-17T06:56:27Z</time>
      </trkpt>
      <trkpt lat="45.83596" lon="6.42318">
        <ele>1315</ele>
        <time>2018-10-17T06:56:28Z</time>
      </trkpt>
      <trkpt lat="45.83598" lon="6.42318">
        <ele>1315</ele>
        <time>2018-10-17T06:56:29Z</time>
      </trkpt>
      <trkpt lat="45.83598" lon="6.42318">
        <ele>1315</ele>
        <time>2018-10-17T06:56:30Z</time>
      </trkpt>
      <trkpt lat="45.836" lon="6.42317">
        <ele>1315</ele>
        <time>2018-10-17T06:56:31Z</time>
      </trkpt>
      <trkpt lat="45.836" lon="6.42317">
        <ele>1316</ele>
        <time>2018-10-17T06:56:32Z</time>
      </trkpt>
      <trkpt lat="45.836" lon="6.42317">
        <ele>1316</ele>
        <time>2018-10-17T06:56:33Z</time>
      </trkpt>
      <trkpt lat="45.83603" lon="6.42317">
        <ele>1317</ele>
        <time>2018-10-17T06:56:34Z</time>
      </trkpt>
      <trkpt lat="45.83603" lon="6.42317">
        <ele>1317</ele>
        <time>2018-10-17T06:56:35Z</time>
      </trkpt>
      <trkpt lat="45.83605" lon="6.42316">
        <ele>1317</ele>
        <time>2018-10-17T06:56:36Z</time>
      </trkpt>
      <trkpt lat="45.83605" lon="6.42316">
        <ele>1318</ele>
        <time>2018-10-17T06:56:37Z</time>
      </trkpt>
      <trkpt lat="45.83605" lon="6.42316">
        <ele>1318</ele>
        <time>2018-10-17T06:56:38Z</time>
      </trkpt>
      <trkpt lat="45.83605" lon="6.42316">
        <ele>1318</ele>
        <time>2018-10-17T06:56:39Z</time>
      </trkpt>
      <trkpt lat="45.83607" lon="6.42316">
        <ele>1318</ele>
        <time>2018-10-17T06:56:40Z</time>
      </trkpt>
      <trkpt lat="45.83607" lon="6.42316">
        <ele>1319</ele>
        <time>2018-10-17T06:56:41Z</time>
      </trkpt>
      <trkpt lat="45.83607" lon="6.42316">
        <ele>1319</ele>
        <time>2018-10-17T06:56:42Z</time>
      </trkpt>
      <trkpt lat="45.83609" lon="6.42316">
        <ele>1319</ele>
        <time>2018-10-17T06:56:43Z</time>
      </trkpt>
      <trkpt lat="45.83609" lon="6.42316">
        <ele>1319</ele>
        <time>2018-10-17T06:56:44Z</time>
      </trkpt>
      <trkpt lat="45.83609" lon="6.42316">
        <ele>1319</ele>
        <time>2018-10-17T06:56:45Z</time>
      </trkpt>
      <trkpt lat="45.83609" lon="6.42319">
        <ele>1319</ele>
        <time>2018-10-17T06:56:46Z</time>
      </trkpt>
      <trkpt lat="45.83609" lon="6.42319">
        <ele>1319</ele>
        <time>2018-10-17T06:56:47Z</time>
      </trkpt>
      <trkpt lat="45.83609" lon="6.42319">
        <ele>1320</ele>
        <time>2018-10-17T06:56:48Z</time>
      </trkpt>
      <trkpt lat="45.83608" lon="6.42323">
        <ele>1320</ele>
        <time>2018-10-17T06:56:49Z</time>
      </trkpt>
      <trkpt lat="45.83608" lon="6.42323">
        <ele>1320</ele>
        <time>2018-10-17T06:56:50Z</time>
      </trkpt>
      <trkpt lat="45.83608" lon="6.42323">
        <ele>1321</ele>
        <time>2018-10-17T06:56:51Z</time>
      </trkpt>
      <trkpt lat="45.83608" lon="6.42326">
        <ele>1322</ele>
        <time>2018-10-17T06:56:52Z</time>
      </trkpt>
      <trkpt lat="45.83608" lon="6.42326">
        <ele>1322</ele>
        <time>2018-10-17T06:56:53Z</time>
      </trkpt>
      <trkpt lat="45.83608" lon="6.42326">
        <ele>1322</ele>
        <time>2018-10-17T06:56:54Z</time>
      </trkpt>
      <trkpt lat="45.83608" lon="6.42326">
        <ele>1322</ele>
        <time>2018-10-17T06:56:55Z</time>
      </trkpt>
      <trkpt lat="45.83608" lon="6.42326">
        <ele>1322</ele>
        <time>2018-10-17T06:56:56Z</time>
      </trkpt>
      <trkpt lat="45.83608" lon="6.42326">
        <ele>1323</ele>
        <time>2018-10-17T06:56:57Z</time>
      </trkpt>
      <trkpt lat="45.83608" lon="6.42326">
        <ele>1323</ele>
        <time>2018-10-17T06:56:58Z</time>
      </trkpt>
      <trkpt lat="45.83608" lon="6.42326">
        <ele>1323</ele>
        <time>2018-10-17T06:56:59Z</time>
      </trkpt>
      <trkpt lat="45.83608" lon="6.42326">
        <ele>1323</ele>
        <time>2018-10-17T06:57:00Z</time>
      </trkpt>
      <trkpt lat="45.83608" lon="6.42326">
        <ele>1324</ele>
        <time>2018-10-17T06:57:01Z</time>
      </trkpt>
      <trkpt lat="45.83607" lon="6.4234">
        <ele>1324</ele>
        <time>2018-10-17T06:57:02Z</time>
      </trkpt>
      <trkpt lat="45.83607" lon="6.4234">
        <ele>1325</ele>
        <time>2018-10-17T06:57:03Z</time>
      </trkpt>
      <trkpt lat="45.83607" lon="6.4234">
        <ele>1326</ele>
        <time>2018-10-17T06:57:04Z</time>
      </trkpt>
      <trkpt lat="45.83607" lon="6.4234">
        <ele>1326</ele>
        <time>2018-10-17T06:57:05Z</time>
      </trkpt>
      <trkpt lat="45.83607" lon="6.4234">
        <ele>1326</ele>
        <time>2018-10-17T06:57:06Z</time>
      </trkpt>
      <trkpt lat="45.83608" lon="6.42354">
        <ele>1327</ele>
        <time>2018-10-17T06:57:07Z</time>
      </trkpt>
      <trkpt lat="45.83608" lon="6.42354">
        <ele>1327</ele>
        <time>2018-10-17T06:57:08Z</time>
      </trkpt>
      <trkpt lat="45.83608" lon="6.42354">
        <ele>1327</ele>
        <time>2018-10-17T06:57:09Z</time>
      </trkpt>
      <trkpt lat="45.83608" lon="6.42354">
        <ele>1327</ele>
        <time>2018-10-17T06:57:10Z</time>
      </trkpt>
      <trkpt lat="45.83608" lon="6.42354">
        <ele>1328</ele>
        <time>2018-10-17T06:57:11Z</time>
      </trkpt>
      <trkpt lat="45.83607" lon="6.42362">
        <ele>1328</ele>
        <time>2018-10-17T06:57:12Z</time>
      </trkpt>
      <trkpt lat="45.83607" lon="6.42362">
        <ele>1329</ele>
        <time>2018-10-17T06:57:13Z</time>
      </trkpt>
      <trkpt lat="45.83607" lon="6.42362">
        <ele>1329</ele>
        <time>2018-10-17T06:57:14Z</time>
      </trkpt>
      <trkpt lat="45.83607" lon="6.42362">
        <ele>1329</ele>
        <time>2018-10-17T06:57:15Z</time>
      </trkpt>
      <trkpt lat="45.83607" lon="6.42362">
        <ele>1329</ele>
        <time>2018-10-17T06:57:16Z</time>
      </trkpt>
      <trkpt lat="45.83607" lon="6.42362">
        <ele>1329</ele>
        <time>2018-10-17T06:57:17Z</time>
      </trkpt>
      <trkpt lat="45.83607" lon="6.42362">
        <ele>1329</ele>
        <time>2018-10-17T06:57:18Z</time>
      </trkpt>
      <trkpt lat="45.83607" lon="6.42362">
        <ele>1330</ele>
        <time>2018-10-17T06:57:19Z</time>
      </trkpt>
      <trkpt lat="45.8361" lon="6.42369">
        <ele>1330</ele>
        <time>2018-10-17T06:57:20Z</time>
      </trkpt>
      <trkpt lat="45.8361" lon="6.42369">
        <ele>1331</ele>
        <time>2018-10-17T06:57:21Z</time>
      </trkpt>
      <trkpt lat="45.8361" lon="6.42369">
        <ele>1331</ele>
        <time>2018-10-17T06:57:22Z</time>
      </trkpt>
      <trkpt lat="45.8361" lon="6.42369">
        <ele>1331</ele>
        <time>2018-10-17T06:57:23Z</time>
      </trkpt>
      <trkpt lat="45.8361" lon="6.42369">
        <ele>1331</ele>
        <time>2018-10-17T06:57:24Z</time>
      </trkpt>
      <trkpt lat="45.8361" lon="6.42369">
        <ele>1331</ele>
        <time>2018-10-17T06:57:25Z</time>
      </trkpt>
      <trkpt lat="45.8361" lon="6.42369">
        <ele>1331</ele>
        <time>2018-10-17T06:57:26Z</time>
      </trkpt>
      <trkpt lat="45.83609" lon="6.42372">
        <ele>1331</ele>
        <time>2018-10-17T06:57:27Z</time>
      </trkpt>
      <trkpt lat="45.83609" lon="6.42372">
        <ele>1331</ele>
        <time>2018-10-17T06:57:28Z</time>
      </trkpt>
      <trkpt lat="45.83609" lon="6.42372">
        <ele>1332</ele>
        <time>2018-10-17T06:57:29Z</time>
      </trkpt>
      <trkpt lat="45.8361" lon="6.42375">
        <ele>1332</ele>
        <time>2018-10-17T06:57:30Z</time>
      </trkpt>
      <trkpt lat="45.8361" lon="6.42375">
        <ele>1333</ele>
        <time>2018-10-17T06:57:31Z</time>
      </trkpt>
      <trkpt lat="45.8361" lon="6.42375">
        <ele>1333</ele>
        <time>2018-10-17T06:57:32Z</time>
      </trkpt>
      <trkpt lat="45.83611" lon="6.42378">
        <ele>1333</ele>
        <time>2018-10-17T06:57:33Z</time>
      </trkpt>
      <trkpt lat="45.83611" lon="6.42378">
        <ele>1333</ele>
        <time>2018-10-17T06:57:34Z</time>
      </trkpt>
      <trkpt lat="45.83611" lon="6.42378">
        <ele>1333</ele>
        <time>2018-10-17T06:57:35Z</time>
      </trkpt>
      <trkpt lat="45.83611" lon="6.42378">
        <ele>1333</ele>
        <time>2018-10-17T06:57:36Z</time>
      </trkpt>
      <trkpt lat="45.83611" lon="6.42378">
        <ele>1334</ele>
        <time>2018-10-17T06:57:37Z</time>
      </trkpt>
      <trkpt lat="45.83611" lon="6.42378">
        <ele>1334</ele>
        <time>2018-10-17T06:57:38Z</time>
      </trkpt>
      <trkpt lat="45.83611" lon="6.42378">
        <ele>1335</ele>
        <time>2018-10-17T06:57:39Z</time>
      </trkpt>
      <trkpt lat="45.83611" lon="6.42378">
        <ele>1335</ele>
        <time>2018-10-17T06:57:40Z</time>
      </trkpt>
      <trkpt lat="45.83611" lon="6.42378">
        <ele>1335</ele>
        <time>2018-10-17T06:57:41Z</time>
      </trkpt>
      <trkpt lat="45.83611" lon="6.42378">
        <ele>1335</ele>
        <time>2018-10-17T06:57:42Z</time>
      </trkpt>
      <trkpt lat="45.83614" lon="6.42374">
        <ele>1335</ele>
        <time>2018-10-17T06:57:43Z</time>
      </trkpt>
      <trkpt lat="45.83614" lon="6.42374">
        <ele>1335</ele>
        <time>2018-10-17T06:57:44Z</time>
      </trkpt>
      <trkpt lat="45.83614" lon="6.42374">
        <ele>1335</ele>
        <time>2018-10-17T06:57:45Z</time>
      </trkpt>
      <trkpt lat="45.83614" lon="6.42374">
        <ele>1335</ele>
        <time>2018-10-17T06:57:46Z</time>
      </trkpt>
      <trkpt lat="45.83614" lon="6.42374">
        <ele>1335</ele>
        <time>2018-10-17T06:57:47Z</time>
      </trkpt>
      <trkpt lat="45.83616" lon="6.42372">
        <ele>1336</ele>
        <time>2018-10-17T06:57:48Z</time>
      </trkpt>
      <trkpt lat="45.83616" lon="6.42372">
        <ele>1336</ele>
        <time>2018-10-17T06:57:49Z</time>
      </trkpt>
      <trkpt lat="45.83616" lon="6.42372">
        <ele>1337</ele>
        <time>2018-10-17T06:57:50Z</time>
      </trkpt>
      <trkpt lat="45.83616" lon="6.42372">
        <ele>1337</ele>
        <time>2018-10-17T06:57:51Z</time>
      </trkpt>
      <trkpt lat="45.83618" lon="6.42371">
        <ele>1337</ele>
        <time>2018-10-17T06:57:52Z</time>
      </trkpt>
      <trkpt lat="45.83618" lon="6.42371">
        <ele>1337</ele>
        <time>2018-10-17T06:57:53Z</time>
      </trkpt>
      <trkpt lat="45.83618" lon="6.42371">
        <ele>1337</ele>
        <time>2018-10-17T06:57:54Z</time>
      </trkpt>
      <trkpt lat="45.83618" lon="6.42371">
        <ele>1337</ele>
        <time>2018-10-17T06:57:55Z</time>
      </trkpt>
      <trkpt lat="45.8362" lon="6.4237">
        <ele>1338</ele>
        <time>2018-10-17T06:57:56Z</time>
      </trkpt>
      <trkpt lat="45.8362" lon="6.4237">
        <ele>1339</ele>
        <time>2018-10-17T06:57:57Z</time>
      </trkpt>
      <trkpt lat="45.8362" lon="6.4237">
        <ele>1339</ele>
        <time>2018-10-17T06:57:58Z</time>
      </trkpt>
      <trkpt lat="45.83622" lon="6.42369">
        <ele>1339</ele>
        <time>2018-10-17T06:57:59Z</time>
      </trkpt>
      <trkpt lat="45.83622" lon="6.42369">
        <ele>1339</ele>
        <time>2018-10-17T06:58:00Z</time>
      </trkpt>
      <trkpt lat="45.83622" lon="6.42369">
        <ele>1339</ele>
        <time>2018-10-17T06:58:01Z</time>
      </trkpt>
      <trkpt lat="45.83623" lon="6.42367">
        <ele>1340</ele>
        <time>2018-10-17T06:58:02Z</time>
      </trkpt>
      <trkpt lat="45.83623" lon="6.42367">
        <ele>1340</ele>
        <time>2018-10-17T06:58:03Z</time>
      </trkpt>
      <trkpt lat="45.83623" lon="6.42367">
        <ele>1341</ele>
        <time>2018-10-17T06:58:04Z</time>
      </trkpt>
      <trkpt lat="45.83625" lon="6.42368">
        <ele>1341</ele>
        <time>2018-10-17T06:58:05Z</time>
      </trkpt>
      <trkpt lat="45.83625" lon="6.42368">
        <ele>1341</ele>
        <time>2018-10-17T06:58:06Z</time>
      </trkpt>
      <trkpt lat="45.83626" lon="6.42371">
        <ele>1342</ele>
        <time>2018-10-17T06:58:07Z</time>
      </trkpt>
      <trkpt lat="45.83626" lon="6.42371">
        <ele>1342</ele>
        <time>2018-10-17T06:58:08Z</time>
      </trkpt>
      <trkpt lat="45.83626" lon="6.42371">
        <ele>1342</ele>
        <time>2018-10-17T06:58:09Z</time>
      </trkpt>
      <trkpt lat="45.83626" lon="6.42371">
        <ele>1342</ele>
        <time>2018-10-17T06:58:10Z</time>
      </trkpt>
      <trkpt lat="45.83628" lon="6.42374">
        <ele>1343</ele>
        <time>2018-10-17T06:58:11Z</time>
      </trkpt>
      <trkpt lat="45.83628" lon="6.42374">
        <ele>1343</ele>
        <time>2018-10-17T06:58:12Z</time>
      </trkpt>
      <trkpt lat="45.83628" lon="6.42374">
        <ele>1343</ele>
        <time>2018-10-17T06:58:13Z</time>
      </trkpt>
      <trkpt lat="45.83628" lon="6.42374">
        <ele>1343</ele>
        <time>2018-10-17T06:58:14Z</time>
      </trkpt>
      <trkpt lat="45.83628" lon="6.42376">
        <ele>1343</ele>
        <time>2018-10-17T06:58:15Z</time>
      </trkpt>
      <trkpt lat="45.83628" lon="6.42376">
        <ele>1343</ele>
        <time>2018-10-17T06:58:16Z</time>
      </trkpt>
      <trkpt lat="45.83628" lon="6.42376">
        <ele>1343</ele>
        <time>2018-10-17T06:58:17Z</time>
      </trkpt>
      <trkpt lat="45.8363" lon="6.42379">
        <ele>1344</ele>
        <time>2018-10-17T06:58:18Z</time>
      </trkpt>
      <trkpt lat="45.8363" lon="6.42379">
        <ele>1344</ele>
        <time>2018-10-17T06:58:19Z</time>
      </trkpt>
      <trkpt lat="45.8363" lon="6.42379">
        <ele>1344</ele>
        <time>2018-10-17T06:58:20Z</time>
      </trkpt>
      <trkpt lat="45.83631" lon="6.42382">
        <ele>1344</ele>
        <time>2018-10-17T06:58:21Z</time>
      </trkpt>
      <trkpt lat="45.83631" lon="6.42382">
        <ele>1344</ele>
        <time>2018-10-17T06:58:22Z</time>
      </trkpt>
      <trkpt lat="45.83631" lon="6.42382">
        <ele>1344</ele>
        <time>2018-10-17T06:58:23Z</time>
      </trkpt>
      <trkpt lat="45.83631" lon="6.42382">
        <ele>1345</ele>
        <time>2018-10-17T06:58:24Z</time>
      </trkpt>
      <trkpt lat="45.83631" lon="6.42382">
        <ele>1345</ele>
        <time>2018-10-17T06:58:25Z</time>
      </trkpt>
      <trkpt lat="45.83631" lon="6.42385">
        <ele>1345</ele>
        <time>2018-10-17T06:58:26Z</time>
      </trkpt>
      <trkpt lat="45.83631" lon="6.42385">
        <ele>1346</ele>
        <time>2018-10-17T06:58:27Z</time>
      </trkpt>
      <trkpt lat="45.83631" lon="6.42385">
        <ele>1346</ele>
        <time>2018-10-17T06:58:28Z</time>
      </trkpt>
      <trkpt lat="45.8363" lon="6.42387">
        <ele>1346</ele>
        <time>2018-10-17T06:58:29Z</time>
      </trkpt>
      <trkpt lat="45.8363" lon="6.42387">
        <ele>1346</ele>
        <time>2018-10-17T06:58:30Z</time>
      </trkpt>
      <trkpt lat="45.8363" lon="6.42387">
        <ele>1346</ele>
        <time>2018-10-17T06:58:31Z</time>
      </trkpt>
      <trkpt lat="45.8363" lon="6.42387">
        <ele>1346</ele>
        <time>2018-10-17T06:58:32Z</time>
      </trkpt>
      <trkpt lat="45.8363" lon="6.42387">
        <ele>1347</ele>
        <time>2018-10-17T06:58:33Z</time>
      </trkpt>
      <trkpt lat="45.8363" lon="6.42387">
        <ele>1347</ele>
        <time>2018-10-17T06:58:34Z</time>
      </trkpt>
      <trkpt lat="45.8363" lon="6.42387">
        <ele>1347</ele>
        <time>2018-10-17T06:58:35Z</time>
      </trkpt>
      <trkpt lat="45.8363" lon="6.42395">
        <ele>1347</ele>
        <time>2018-10-17T06:58:36Z</time>
      </trkpt>
      <trkpt lat="45.8363" lon="6.42395">
        <ele>1347</ele>
        <time>2018-10-17T06:58:37Z</time>
      </trkpt>
      <trkpt lat="45.8363" lon="6.42395">
        <ele>1347</ele>
        <time>2018-10-17T06:58:38Z</time>
      </trkpt>
      <trkpt lat="45.8363" lon="6.42395">
        <ele>1347</ele>
        <time>2018-10-17T06:58:39Z</time>
      </trkpt>
      <trkpt lat="45.8363" lon="6.42395">
        <ele>1347</ele>
        <time>2018-10-17T06:58:40Z</time>
      </trkpt>
      <trkpt lat="45.8363" lon="6.42395">
        <ele>1348</ele>
        <time>2018-10-17T06:58:41Z</time>
      </trkpt>
      <trkpt lat="45.8363" lon="6.42395">
        <ele>1349</ele>
        <time>2018-10-17T06:58:42Z</time>
      </trkpt>
      <trkpt lat="45.83628" lon="6.424">
        <ele>1349</ele>
        <time>2018-10-17T06:58:43Z</time>
      </trkpt>
      <trkpt lat="45.83628" lon="6.424">
        <ele>1349</ele>
        <time>2018-10-17T06:58:44Z</time>
      </trkpt>
      <trkpt lat="45.83629" lon="6.42403">
        <ele>1349</ele>
        <time>2018-10-17T06:58:45Z</time>
      </trkpt>
      <trkpt lat="45.83629" lon="6.42403">
        <ele>1349</ele>
        <time>2018-10-17T06:58:46Z</time>
      </trkpt>
      <trkpt lat="45.83629" lon="6.42403">
        <ele>1350</ele>
        <time>2018-10-17T06:58:47Z</time>
      </trkpt>
      <trkpt lat="45.83629" lon="6.42403">
        <ele>1351</ele>
        <time>2018-10-17T06:58:48Z</time>
      </trkpt>
      <trkpt lat="45.83629" lon="6.42403">
        <ele>1351</ele>
        <time>2018-10-17T06:58:49Z</time>
      </trkpt>
      <trkpt lat="45.83629" lon="6.42403">
        <ele>1351</ele>
        <time>2018-10-17T06:58:50Z</time>
      </trkpt>
      <trkpt lat="45.83629" lon="6.42403">
        <ele>1351</ele>
        <time>2018-10-17T06:58:51Z</time>
      </trkpt>
      <trkpt lat="45.83629" lon="6.42403">
        <ele>1351</ele>
        <time>2018-10-17T06:58:52Z</time>
      </trkpt>
      <trkpt lat="45.83633" lon="6.42405">
        <ele>1351</ele>
        <time>2018-10-17T06:58:53Z</time>
      </trkpt>
      <trkpt lat="45.83633" lon="6.42405">
        <ele>1351</ele>
        <time>2018-10-17T06:58:54Z</time>
      </trkpt>
      <trkpt lat="45.83633" lon="6.42405">
        <ele>1351</ele>
        <time>2018-10-17T06:58:55Z</time>
      </trkpt>
      <trkpt lat="45.83633" lon="6.42405">
        <ele>1351</ele>
        <time>2018-10-17T06:58:56Z</time>
      </trkpt>
      <trkpt lat="45.83633" lon="6.42405">
        <ele>1351</ele>
        <time>2018-10-17T06:58:57Z</time>
      </trkpt>
      <trkpt lat="45.83633" lon="6.42405">
        <ele>1351</ele>
        <time>2018-10-17T06:58:58Z</time>
      </trkpt>
      <trkpt lat="45.83633" lon="6.42405">
        <ele>1352</ele>
        <time>2018-10-17T06:58:59Z</time>
      </trkpt>
      <trkpt lat="45.83633" lon="6.42405">
        <ele>1353</ele>
        <time>2018-10-17T06:59:00Z</time>
      </trkpt>
      <trkpt lat="45.83633" lon="6.42405">
        <ele>1353</ele>
        <time>2018-10-17T06:59:01Z</time>
      </trkpt>
      <trkpt lat="45.83633" lon="6.42405">
        <ele>1354</ele>
        <time>2018-10-17T06:59:02Z</time>
      </trkpt>
      <trkpt lat="45.83633" lon="6.42405">
        <ele>1354</ele>
        <time>2018-10-17T06:59:03Z</time>
      </trkpt>
      <trkpt lat="45.83633" lon="6.42405">
        <ele>1354</ele>
        <time>2018-10-17T06:59:04Z</time>
      </trkpt>
      <trkpt lat="45.83633" lon="6.42405">
        <ele>1354</ele>
        <time>2018-10-17T06:59:05Z</time>
      </trkpt>
      <trkpt lat="45.83633" lon="6.42405">
        <ele>1354</ele>
        <time>2018-10-17T06:59:06Z</time>
      </trkpt>
      <trkpt lat="45.83633" lon="6.42405">
        <ele>1354</ele>
        <time>2018-10-17T06:59:07Z</time>
      </trkpt>
      <trkpt lat="45.83633" lon="6.42405">
        <ele>1354</ele>
        <time>2018-10-17T06:59:08Z</time>
      </trkpt>
      <trkpt lat="45.83635" lon="6.42405">
        <ele>1355</ele>
        <time>2018-10-17T06:59:09Z</time>
      </trkpt>
      <trkpt lat="45.83635" lon="6.42405">
        <ele>1355</ele>
        <time>2018-10-17T06:59:10Z</time>
      </trkpt>
      <trkpt lat="45.83635" lon="6.42405">
        <ele>1356</ele>
        <time>2018-10-17T06:59:11Z</time>
      </trkpt>
      <trkpt lat="45.83635" lon="6.42405">
        <ele>1356</ele>
        <time>2018-10-17T06:59:12Z</time>
      </trkpt>
      <trkpt lat="45.83635" lon="6.42405">
        <ele>1356</ele>
        <time>2018-10-17T06:59:13Z</time>
      </trkpt>
      <trkpt lat="45.83635" lon="6.42409">
        <ele>1356</ele>
        <time>2018-10-17T06:59:14Z</time>
      </trkpt>
      <trkpt lat="45.83635" lon="6.42409">
        <ele>1356</ele>
        <time>2018-10-17T06:59:15Z</time>
      </trkpt>
      <trkpt lat="45.83635" lon="6.42409">
        <ele>1356</ele>
        <time>2018-10-17T06:59:16Z</time>
      </trkpt>
      <trkpt lat="45.83635" lon="6.42409">
        <ele>1357</ele>
        <time>2018-10-17T06:59:17Z</time>
      </trkpt>
      <trkpt lat="45.83635" lon="6.42409">
        <ele>1358</ele>
        <time>2018-10-17T06:59:18Z</time>
      </trkpt>
      <trkpt lat="45.83635" lon="6.42409">
        <ele>1358</ele>
        <time>2018-10-17T06:59:19Z</time>
      </trkpt>
      <trkpt lat="45.83635" lon="6.42409">
        <ele>1358</ele>
        <time>2018-10-17T06:59:20Z</time>
      </trkpt>
      <trkpt lat="45.83635" lon="6.42409">
        <ele>1359</ele>
        <time>2018-10-17T06:59:21Z</time>
      </trkpt>
      <trkpt lat="45.83637" lon="6.42415">
        <ele>1359</ele>
        <time>2018-10-17T06:59:22Z</time>
      </trkpt>
      <trkpt lat="45.83637" lon="6.42415">
        <ele>1359</ele>
        <time>2018-10-17T06:59:23Z</time>
      </trkpt>
      <trkpt lat="45.83637" lon="6.42419">
        <ele>1359</ele>
        <time>2018-10-17T06:59:24Z</time>
      </trkpt>
      <trkpt lat="45.83637" lon="6.42419">
        <ele>1359</ele>
        <time>2018-10-17T06:59:25Z</time>
      </trkpt>
      <trkpt lat="45.83637" lon="6.42419">
        <ele>1360</ele>
        <time>2018-10-17T06:59:26Z</time>
      </trkpt>
      <trkpt lat="45.83637" lon="6.42419">
        <ele>1360</ele>
        <time>2018-10-17T06:59:27Z</time>
      </trkpt>
      <trkpt lat="45.83637" lon="6.42419">
        <ele>1360</ele>
        <time>2018-10-17T06:59:28Z</time>
      </trkpt>
      <trkpt lat="45.83637" lon="6.42419">
        <ele>1360</ele>
        <time>2018-10-17T06:59:29Z</time>
      </trkpt>
      <trkpt lat="45.83635" lon="6.42433">
        <ele>1361</ele>
        <time>2018-10-17T06:59:30Z</time>
      </trkpt>
      <trkpt lat="45.83635" lon="6.42433">
        <ele>1361</ele>
        <time>2018-10-17T06:59:31Z</time>
      </trkpt>
      <trkpt lat="45.83635" lon="6.42433">
        <ele>1361</ele>
        <time>2018-10-17T06:59:32Z</time>
      </trkpt>
      <trkpt lat="45.83635" lon="6.42433">
        <ele>1362</ele>
        <time>2018-10-17T06:59:33Z</time>
      </trkpt>
      <trkpt lat="45.83635" lon="6.42433">
        <ele>1362</ele>
        <time>2018-10-17T06:59:34Z</time>
      </trkpt>
      <trkpt lat="45.83636" lon="6.42438">
        <ele>1362</ele>
        <time>2018-10-17T06:59:35Z</time>
      </trkpt>
      <trkpt lat="45.83636" lon="6.42438">
        <ele>1362</ele>
        <time>2018-10-17T06:59:36Z</time>
      </trkpt>
      <trkpt lat="45.83636" lon="6.42438">
        <ele>1362</ele>
        <time>2018-10-17T06:59:37Z</time>
      </trkpt>
      <trkpt lat="45.83636" lon="6.42438">
        <ele>1363</ele>
        <time>2018-10-17T06:59:38Z</time>
      </trkpt>
      <trkpt lat="45.83636" lon="6.42438">
        <ele>1363</ele>
        <time>2018-10-17T06:59:39Z</time>
      </trkpt>
      <trkpt lat="45.83632" lon="6.42443">
        <ele>1363</ele>
        <time>2018-10-17T06:59:40Z</time>
      </trkpt>
      <trkpt lat="45.83632" lon="6.42443">
        <ele>1363</ele>
        <time>2018-10-17T06:59:41Z</time>
      </trkpt>
      <trkpt lat="45.83632" lon="6.42443">
        <ele>1363</ele>
        <time>2018-10-17T06:59:42Z</time>
      </trkpt>
      <trkpt lat="45.83632" lon="6.42443">
        <ele>1363</ele>
        <time>2018-10-17T06:59:43Z</time>
      </trkpt>
      <trkpt lat="45.83632" lon="6.42443">
        <ele>1364</ele>
        <time>2018-10-17T06:59:44Z</time>
      </trkpt>
      <trkpt lat="45.83632" lon="6.42443">
        <ele>1364</ele>
        <time>2018-10-17T06:59:45Z</time>
      </trkpt>
      <trkpt lat="45.83632" lon="6.42443">
        <ele>1364</ele>
        <time>2018-10-17T06:59:46Z</time>
      </trkpt>
      <trkpt lat="45.83632" lon="6.42443">
        <ele>1365</ele>
        <time>2018-10-17T06:59:47Z</time>
      </trkpt>
      <trkpt lat="45.83632" lon="6.42443">
        <ele>1365</ele>
        <time>2018-10-17T06:59:48Z</time>
      </trkpt>
      <trkpt lat="45.83632" lon="6.42443">
        <ele>1365</ele>
        <time>2018-10-17T06:59:49Z</time>
      </trkpt>
      <trkpt lat="45.83628" lon="6.42456">
        <ele>1365</ele>
        <time>2018-10-17T06:59:50Z</time>
      </trkpt>
      <trkpt lat="45.83628" lon="6.42456">
        <ele>1365</ele>
        <time>2018-10-17T06:59:51Z</time>
      </trkpt>
      <trkpt lat="45.83628" lon="6.42456">
        <ele>1365</ele>
        <time>2018-10-17T06:59:52Z</time>
      </trkpt>
      <trkpt lat="45.83628" lon="6.42456">
        <ele>1365</ele>
        <time>2018-10-17T06:59:53Z</time>
      </trkpt>
      <trkpt lat="45.83628" lon="6.42456">
        <ele>1366</ele>
        <time>2018-10-17T06:59:54Z</time>
      </trkpt>
      <trkpt lat="45.83628" lon="6.42456">
        <ele>1366</ele>
        <time>2018-10-17T06:59:55Z</time>
      </trkpt>
      <trkpt lat="45.83628" lon="6.42456">
        <ele>1366</ele>
        <time>2018-10-17T06:59:56Z</time>
      </trkpt>
      <trkpt lat="45.83628" lon="6.42456">
        <ele>1366</ele>
        <time>2018-10-17T06:59:57Z</time>
      </trkpt>
      <trkpt lat="45.83628" lon="6.42456">
        <ele>1366</ele>
        <time>2018-10-17T06:59:58Z</time>
      </trkpt>
      <trkpt lat="45.83628" lon="6.42456">
        <ele>1366</ele>
        <time>2018-10-17T06:59:59Z</time>
      </trkpt>
      <trkpt lat="45.83628" lon="6.42456">
        <ele>1366</ele>
        <time>2018-10-17T07:00:00Z</time>
      </trkpt>
      <trkpt lat="45.83624" lon="6.42467">
        <ele>1366</ele>
        <time>2018-10-17T07:00:01Z</time>
      </trkpt>
      <trkpt lat="45.83624" lon="6.42467">
        <ele>1366</ele>
        <time>2018-10-17T07:00:02Z</time>
      </trkpt>
      <trkpt lat="45.83624" lon="6.42467">
        <ele>1367</ele>
        <time>2018-10-17T07:00:03Z</time>
      </trkpt>
      <trkpt lat="45.83624" lon="6.42467">
        <ele>1368</ele>
        <time>2018-10-17T07:00:04Z</time>
      </trkpt>
      <trkpt lat="45.83624" lon="6.42467">
        <ele>1368</ele>
        <time>2018-10-17T07:00:05Z</time>
      </trkpt>
      <trkpt lat="45.83624" lon="6.42467">
        <ele>1368</ele>
        <time>2018-10-17T07:00:06Z</time>
      </trkpt>
      <trkpt lat="45.83624" lon="6.42467">
        <ele>1369</ele>
        <time>2018-10-17T07:00:07Z</time>
      </trkpt>
      <trkpt lat="45.83624" lon="6.42467">
        <ele>1369</ele>
        <time>2018-10-17T07:00:08Z</time>
      </trkpt>
      <trkpt lat="45.83624" lon="6.42467">
        <ele>1369</ele>
        <time>2018-10-17T07:00:09Z</time>
      </trkpt>
      <trkpt lat="45.8362" lon="6.42479">
        <ele>1369</ele>
        <time>2018-10-17T07:00:10Z</time>
      </trkpt>
      <trkpt lat="45.8362" lon="6.42479">
        <ele>1370</ele>
        <time>2018-10-17T07:00:11Z</time>
      </trkpt>
      <trkpt lat="45.8362" lon="6.42479">
        <ele>1370</ele>
        <time>2018-10-17T07:00:12Z</time>
      </trkpt>
      <trkpt lat="45.8362" lon="6.42479">
        <ele>1371</ele>
        <time>2018-10-17T07:00:13Z</time>
      </trkpt>
      <trkpt lat="45.8362" lon="6.42479">
        <ele>1371</ele>
        <time>2018-10-17T07:00:14Z</time>
      </trkpt>
      <trkpt lat="45.8362" lon="6.42479">
        <ele>1371</ele>
        <time>2018-10-17T07:00:15Z</time>
      </trkpt>
      <trkpt lat="45.8362" lon="6.42479">
        <ele>1371</ele>
        <time>2018-10-17T07:00:16Z</time>
      </trkpt>
      <trkpt lat="45.83617" lon="6.42484">
        <ele>1371</ele>
        <time>2018-10-17T07:00:17Z</time>
      </trkpt>
      <trkpt lat="45.83617" lon="6.42484">
        <ele>1372</ele>
        <time>2018-10-17T07:00:18Z</time>
      </trkpt>
      <trkpt lat="45.83617" lon="6.42484">
        <ele>1372</ele>
        <time>2018-10-17T07:00:19Z</time>
      </trkpt>
      <trkpt lat="45.83617" lon="6.42484">
        <ele>1372</ele>
        <time>2018-10-17T07:00:20Z</time>
      </trkpt>
      <trkpt lat="45.83617" lon="6.42484">
        <ele>1372</ele>
        <time>2018-10-17T07:00:21Z</time>
      </trkpt>
      <trkpt lat="45.83616" lon="6.42487">
        <ele>1373</ele>
        <time>2018-10-17T07:00:22Z</time>
      </trkpt>
      <trkpt lat="45.83616" lon="6.42487">
        <ele>1373</ele>
        <time>2018-10-17T07:00:23Z</time>
      </trkpt>
      <trkpt lat="45.83616" lon="6.42487">
        <ele>1373</ele>
        <time>2018-10-17T07:00:24Z</time>
      </trkpt>
      <trkpt lat="45.83616" lon="6.42487">
        <ele>1373</ele>
        <time>2018-10-17T07:00:25Z</time>
      </trkpt>
      <trkpt lat="45.83616" lon="6.42487">
        <ele>1374</ele>
        <time>2018-10-17T07:00:26Z</time>
      </trkpt>
      <trkpt lat="45.83616" lon="6.42487">
        <ele>1374</ele>
        <time>2018-10-17T07:00:27Z</time>
      </trkpt>
      <trkpt lat="45.83616" lon="6.42487">
        <ele>1374</ele>
        <time>2018-10-17T07:00:28Z</time>
      </trkpt>
      <trkpt lat="45.83616" lon="6.42487">
        <ele>1375</ele>
        <time>2018-10-17T07:00:29Z</time>
      </trkpt>
      <trkpt lat="45.83616" lon="6.42487">
        <ele>1375</ele>
        <time>2018-10-17T07:00:30Z</time>
      </trkpt>
      <trkpt lat="45.83611" lon="6.42499">
        <ele>1375</ele>
        <time>2018-10-17T07:00:31Z</time>
      </trkpt>
      <trkpt lat="45.83611" lon="6.42499">
        <ele>1375</ele>
        <time>2018-10-17T07:00:32Z</time>
      </trkpt>
      <trkpt lat="45.83611" lon="6.42499">
        <ele>1376</ele>
        <time>2018-10-17T07:00:33Z</time>
      </trkpt>
      <trkpt lat="45.83611" lon="6.42499">
        <ele>1376</ele>
        <time>2018-10-17T07:00:34Z</time>
      </trkpt>
      <trkpt lat="45.83611" lon="6.42499">
        <ele>1376</ele>
        <time>2018-10-17T07:00:35Z</time>
      </trkpt>
      <trkpt lat="45.83611" lon="6.42499">
        <ele>1376</ele>
        <time>2018-10-17T07:00:36Z</time>
      </trkpt>
      <trkpt lat="45.83611" lon="6.42499">
        <ele>1377</ele>
        <time>2018-10-17T07:00:37Z</time>
      </trkpt>
      <trkpt lat="45.83611" lon="6.42499">
        <ele>1377</ele>
        <time>2018-10-17T07:00:38Z</time>
      </trkpt>
      <trkpt lat="45.83611" lon="6.42499">
        <ele>1378</ele>
        <time>2018-10-17T07:00:39Z</time>
      </trkpt>
      <trkpt lat="45.83611" lon="6.42499">
        <ele>1379</ele>
        <time>2018-10-17T07:00:40Z</time>
      </trkpt>
      <trkpt lat="45.83611" lon="6.42499">
        <ele>1379</ele>
        <time>2018-10-17T07:00:41Z</time>
      </trkpt>
      <trkpt lat="45.83611" lon="6.42499">
        <ele>1379</ele>
        <time>2018-10-17T07:00:42Z</time>
      </trkpt>
      <trkpt lat="45.83611" lon="6.42499">
        <ele>1380</ele>
        <time>2018-10-17T07:00:43Z</time>
      </trkpt>
      <trkpt lat="45.83611" lon="6.42499">
        <ele>1380</ele>
        <time>2018-10-17T07:00:44Z</time>
      </trkpt>
      <trkpt lat="45.83607" lon="6.42513">
        <ele>1380</ele>
        <time>2018-10-17T07:00:45Z</time>
      </trkpt>
      <trkpt lat="45.83607" lon="6.42513">
        <ele>1380</ele>
        <time>2018-10-17T07:00:46Z</time>
      </trkpt>
      <trkpt lat="45.83607" lon="6.42513">
        <ele>1380</ele>
        <time>2018-10-17T07:00:47Z</time>
      </trkpt>
      <trkpt lat="45.83607" lon="6.42513">
        <ele>1380</ele>
        <time>2018-10-17T07:00:48Z</time>
      </trkpt>
      <trkpt lat="45.83607" lon="6.42513">
        <ele>1380</ele>
        <time>2018-10-17T07:00:49Z</time>
      </trkpt>
      <trkpt lat="45.83607" lon="6.42513">
        <ele>1381</ele>
        <time>2018-10-17T07:00:50Z</time>
      </trkpt>
      <trkpt lat="45.83607" lon="6.42513">
        <ele>1381</ele>
        <time>2018-10-17T07:00:51Z</time>
      </trkpt>
      <trkpt lat="45.83607" lon="6.42513">
        <ele>1381</ele>
        <time>2018-10-17T07:00:52Z</time>
      </trkpt>
      <trkpt lat="45.83607" lon="6.42513">
        <ele>1382</ele>
        <time>2018-10-17T07:00:53Z</time>
      </trkpt>
      <trkpt lat="45.83607" lon="6.42513">
        <ele>1382</ele>
        <time>2018-10-17T07:00:54Z</time>
      </trkpt>
      <trkpt lat="45.83612" lon="6.42524">
        <ele>1382</ele>
        <time>2018-10-17T07:00:55Z</time>
      </trkpt>
      <trkpt lat="45.83612" lon="6.42524">
        <ele>1382</ele>
        <time>2018-10-17T07:00:56Z</time>
      </trkpt>
      <trkpt lat="45.83612" lon="6.42524">
        <ele>1382</ele>
        <time>2018-10-17T07:00:57Z</time>
      </trkpt>
      <trkpt lat="45.83613" lon="6.42527">
        <ele>1382</ele>
        <time>2018-10-17T07:00:58Z</time>
      </trkpt>
      <trkpt lat="45.83613" lon="6.42527">
        <ele>1383</ele>
        <time>2018-10-17T07:00:59Z</time>
      </trkpt>
      <trkpt lat="45.83613" lon="6.42527">
        <ele>1383</ele>
        <time>2018-10-17T07:01:00Z</time>
      </trkpt>
      <trkpt lat="45.83613" lon="6.42527">
        <ele>1383</ele>
        <time>2018-10-17T07:01:01Z</time>
      </trkpt>
      <trkpt lat="45.83612" lon="6.4253">
        <ele>1384</ele>
        <time>2018-10-17T07:01:02Z</time>
      </trkpt>
      <trkpt lat="45.83612" lon="6.4253">
        <ele>1384</ele>
        <time>2018-10-17T07:01:03Z</time>
      </trkpt>
      <trkpt lat="45.83614" lon="6.42532">
        <ele>1384</ele>
        <time>2018-10-17T07:01:04Z</time>
      </trkpt>
      <trkpt lat="45.83614" lon="6.42532">
        <ele>1384</ele>
        <time>2018-10-17T07:01:05Z</time>
      </trkpt>
      <trkpt lat="45.83614" lon="6.42532">
        <ele>1384</ele>
        <time>2018-10-17T07:01:06Z</time>
      </trkpt>
      <trkpt lat="45.83613" lon="6.42535">
        <ele>1385</ele>
        <time>2018-10-17T07:01:07Z</time>
      </trkpt>
      <trkpt lat="45.83613" lon="6.42535">
        <ele>1385</ele>
        <time>2018-10-17T07:01:08Z</time>
      </trkpt>
      <trkpt lat="45.83613" lon="6.42535">
        <ele>1386</ele>
        <time>2018-10-17T07:01:09Z</time>
      </trkpt>
      <trkpt lat="45.83613" lon="6.42535">
        <ele>1386</ele>
        <time>2018-10-17T07:01:10Z</time>
      </trkpt>
      <trkpt lat="45.83613" lon="6.42535">
        <ele>1386</ele>
        <time>2018-10-17T07:01:11Z</time>
      </trkpt>
      <trkpt lat="45.83613" lon="6.42535">
        <ele>1386</ele>
        <time>2018-10-17T07:01:12Z</time>
      </trkpt>
      <trkpt lat="45.83612" lon="6.42538">
        <ele>1386</ele>
        <time>2018-10-17T07:01:13Z</time>
      </trkpt>
      <trkpt lat="45.83612" lon="6.42538">
        <ele>1386</ele>
        <time>2018-10-17T07:01:14Z</time>
      </trkpt>
      <trkpt lat="45.83612" lon="6.42538">
        <ele>1386</ele>
        <time>2018-10-17T07:01:15Z</time>
      </trkpt>
      <trkpt lat="45.83612" lon="6.42538">
        <ele>1386</ele>
        <time>2018-10-17T07:01:16Z</time>
      </trkpt>
      <trkpt lat="45.83612" lon="6.42538">
        <ele>1386</ele>
        <time>2018-10-17T07:01:17Z</time>
      </trkpt>
      <trkpt lat="45.83612" lon="6.42538">
        <ele>1387</ele>
        <time>2018-10-17T07:01:18Z</time>
      </trkpt>
      <trkpt lat="45.83612" lon="6.42538">
        <ele>1387</ele>
        <time>2018-10-17T07:01:19Z</time>
      </trkpt>
      <trkpt lat="45.83612" lon="6.42538">
        <ele>1388</ele>
        <time>2018-10-17T07:01:20Z</time>
      </trkpt>
      <trkpt lat="45.83612" lon="6.42538">
        <ele>1388</ele>
        <time>2018-10-17T07:01:21Z</time>
      </trkpt>
      <trkpt lat="45.83612" lon="6.42538">
        <ele>1388</ele>
        <time>2018-10-17T07:01:22Z</time>
      </trkpt>
      <trkpt lat="45.83612" lon="6.42538">
        <ele>1389</ele>
        <time>2018-10-17T07:01:23Z</time>
      </trkpt>
      <trkpt lat="45.83612" lon="6.42538">
        <ele>1389</ele>
        <time>2018-10-17T07:01:24Z</time>
      </trkpt>
      <trkpt lat="45.83612" lon="6.42538">
        <ele>1389</ele>
        <time>2018-10-17T07:01:25Z</time>
      </trkpt>
      <trkpt lat="45.83614" lon="6.42538">
        <ele>1389</ele>
        <time>2018-10-17T07:01:26Z</time>
      </trkpt>
      <trkpt lat="45.83614" lon="6.42538">
        <ele>1389</ele>
        <time>2018-10-17T07:01:27Z</time>
      </trkpt>
      <trkpt lat="45.83614" lon="6.42538">
        <ele>1390</ele>
        <time>2018-10-17T07:01:28Z</time>
      </trkpt>
      <trkpt lat="45.83614" lon="6.42538">
        <ele>1390</ele>
        <time>2018-10-17T07:01:29Z</time>
      </trkpt>
      <trkpt lat="45.83615" lon="6.42537">
        <ele>1390</ele>
        <time>2018-10-17T07:01:30Z</time>
      </trkpt>
      <trkpt lat="45.83615" lon="6.42537">
        <ele>1390</ele>
        <time>2018-10-17T07:01:31Z</time>
      </trkpt>
      <trkpt lat="45.83617" lon="6.42537">
        <ele>1390</ele>
        <time>2018-10-17T07:01:32Z</time>
      </trkpt>
      <trkpt lat="45.83617" lon="6.42537">
        <ele>1390</ele>
        <time>2018-10-17T07:01:33Z</time>
      </trkpt>
      <trkpt lat="45.83617" lon="6.42537">
        <ele>1391</ele>
        <time>2018-10-17T07:01:34Z</time>
      </trkpt>
      <trkpt lat="45.83617" lon="6.42537">
        <ele>1391</ele>
        <time>2018-10-17T07:01:35Z</time>
      </trkpt>
      <trkpt lat="45.8362" lon="6.42534">
        <ele>1391</ele>
        <time>2018-10-17T07:01:36Z</time>
      </trkpt>
      <trkpt lat="45.8362" lon="6.42534">
        <ele>1392</ele>
        <time>2018-10-17T07:01:37Z</time>
      </trkpt>
      <trkpt lat="45.83622" lon="6.42532">
        <ele>1392</ele>
        <time>2018-10-17T07:01:38Z</time>
      </trkpt>
      <trkpt lat="45.83622" lon="6.42532">
        <ele>1392</ele>
        <time>2018-10-17T07:01:39Z</time>
      </trkpt>
      <trkpt lat="45.83622" lon="6.42532">
        <ele>1392</ele>
        <time>2018-10-17T07:01:40Z</time>
      </trkpt>
      <trkpt lat="45.83622" lon="6.42532">
        <ele>1392</ele>
        <time>2018-10-17T07:01:41Z</time>
      </trkpt>
      <trkpt lat="45.83622" lon="6.42532">
        <ele>1391</ele>
        <time>2018-10-17T07:01:42Z</time>
      </trkpt>
      <trkpt lat="45.83622" lon="6.42532">
        <ele>1392</ele>
        <time>2018-10-17T07:01:43Z</time>
      </trkpt>
      <trkpt lat="45.83622" lon="6.42532">
        <ele>1392</ele>
        <time>2018-10-17T07:01:44Z</time>
      </trkpt>
      <trkpt lat="45.83622" lon="6.42532">
        <ele>1392</ele>
        <time>2018-10-17T07:01:45Z</time>
      </trkpt>
      <trkpt lat="45.83622" lon="6.42532">
        <ele>1392</ele>
        <time>2018-10-17T07:01:46Z</time>
      </trkpt>
      <trkpt lat="45.83626" lon="6.4253">
        <ele>1393</ele>
        <time>2018-10-17T07:01:47Z</time>
      </trkpt>
      <trkpt lat="45.83626" lon="6.4253">
        <ele>1393</ele>
        <time>2018-10-17T07:01:48Z</time>
      </trkpt>
      <trkpt lat="45.83626" lon="6.4253">
        <ele>1394</ele>
        <time>2018-10-17T07:01:49Z</time>
      </trkpt>
      <trkpt lat="45.83626" lon="6.4253">
        <ele>1394</ele>
        <time>2018-10-17T07:01:50Z</time>
      </trkpt>
      <trkpt lat="45.83626" lon="6.4253">
        <ele>1394</ele>
        <time>2018-10-17T07:01:51Z</time>
      </trkpt>
      <trkpt lat="45.83626" lon="6.4253">
        <ele>1394</ele>
        <time>2018-10-17T07:01:52Z</time>
      </trkpt>
      <trkpt lat="45.83626" lon="6.4253">
        <ele>1394</ele>
        <time>2018-10-17T07:01:53Z</time>
      </trkpt>
      <trkpt lat="45.83632" lon="6.42528">
        <ele>1394</ele>
        <time>2018-10-17T07:01:54Z</time>
      </trkpt>
      <trkpt lat="45.83632" lon="6.42528">
        <ele>1394</ele>
        <time>2018-10-17T07:01:55Z</time>
      </trkpt>
      <trkpt lat="45.83632" lon="6.42528">
        <ele>1395</ele>
        <time>2018-10-17T07:01:56Z</time>
      </trkpt>
      <trkpt lat="45.83634" lon="6.42526">
        <ele>1395</ele>
        <time>2018-10-17T07:01:57Z</time>
      </trkpt>
      <trkpt lat="45.83634" lon="6.42526">
        <ele>1395</ele>
        <time>2018-10-17T07:01:58Z</time>
      </trkpt>
      <trkpt lat="45.83634" lon="6.42526">
        <ele>1395</ele>
        <time>2018-10-17T07:01:59Z</time>
      </trkpt>
      <trkpt lat="45.83634" lon="6.42526">
        <ele>1395</ele>
        <time>2018-10-17T07:02:00Z</time>
      </trkpt>
      <trkpt lat="45.83634" lon="6.42526">
        <ele>1395</ele>
        <time>2018-10-17T07:02:01Z</time>
      </trkpt>
      <trkpt lat="45.83634" lon="6.42526">
        <ele>1396</ele>
        <time>2018-10-17T07:02:02Z</time>
      </trkpt>
      <trkpt lat="45.83634" lon="6.42526">
        <ele>1397</ele>
        <time>2018-10-17T07:02:03Z</time>
      </trkpt>
      <trkpt lat="45.83634" lon="6.42526">
        <ele>1397</ele>
        <time>2018-10-17T07:02:04Z</time>
      </trkpt>
      <trkpt lat="45.83634" lon="6.42526">
        <ele>1398</ele>
        <time>2018-10-17T07:02:05Z</time>
      </trkpt>
      <trkpt lat="45.83643" lon="6.42521">
        <ele>1398</ele>
        <time>2018-10-17T07:02:06Z</time>
      </trkpt>
      <trkpt lat="45.83643" lon="6.42521">
        <ele>1398</ele>
        <time>2018-10-17T07:02:07Z</time>
      </trkpt>
      <trkpt lat="45.83643" lon="6.42521">
        <ele>1398</ele>
        <time>2018-10-17T07:02:08Z</time>
      </trkpt>
      <trkpt lat="45.83643" lon="6.42521">
        <ele>1398</ele>
        <time>2018-10-17T07:02:09Z</time>
      </trkpt>
      <trkpt lat="45.83643" lon="6.42521">
        <ele>1398</ele>
        <time>2018-10-17T07:02:10Z</time>
      </trkpt>
      <trkpt lat="45.83643" lon="6.42521">
        <ele>1398</ele>
        <time>2018-10-17T07:02:11Z</time>
      </trkpt>
      <trkpt lat="45.83643" lon="6.42521">
        <ele>1398</ele>
        <time>2018-10-17T07:02:12Z</time>
      </trkpt>
      <trkpt lat="45.83643" lon="6.42521">
        <ele>1398</ele>
        <time>2018-10-17T07:02:13Z</time>
      </trkpt>
      <trkpt lat="45.83643" lon="6.42521">
        <ele>1398</ele>
        <time>2018-10-17T07:02:14Z</time>
      </trkpt>
      <trkpt lat="45.83643" lon="6.42521">
        <ele>1398</ele>
        <time>2018-10-17T07:02:15Z</time>
      </trkpt>
      <trkpt lat="45.83651" lon="6.42515">
        <ele>1398</ele>
        <time>2018-10-17T07:02:16Z</time>
      </trkpt>
      <trkpt lat="45.83651" lon="6.42515">
        <ele>1398</ele>
        <time>2018-10-17T07:02:17Z</time>
      </trkpt>
      <trkpt lat="45.83651" lon="6.42515">
        <ele>1398</ele>
        <time>2018-10-17T07:02:18Z</time>
      </trkpt>
      <trkpt lat="45.83651" lon="6.42515">
        <ele>1398</ele>
        <time>2018-10-17T07:02:19Z</time>
      </trkpt>
      <trkpt lat="45.83651" lon="6.42515">
        <ele>1399</ele>
        <time>2018-10-17T07:02:20Z</time>
      </trkpt>
      <trkpt lat="45.83651" lon="6.42515">
        <ele>1399</ele>
        <time>2018-10-17T07:02:21Z</time>
      </trkpt>
      <trkpt lat="45.83651" lon="6.42515">
        <ele>1399</ele>
        <time>2018-10-17T07:02:22Z</time>
      </trkpt>
      <trkpt lat="45.83651" lon="6.4251">
        <ele>1399</ele>
        <time>2018-10-17T07:02:23Z</time>
      </trkpt>
      <trkpt lat="45.83651" lon="6.4251">
        <ele>1400</ele>
        <time>2018-10-17T07:02:24Z</time>
      </trkpt>
      <trkpt lat="45.83652" lon="6.42507">
        <ele>1400</ele>
        <time>2018-10-17T07:02:25Z</time>
      </trkpt>
      <trkpt lat="45.83652" lon="6.42507">
        <ele>1400</ele>
        <time>2018-10-17T07:02:26Z</time>
      </trkpt>
      <trkpt lat="45.83653" lon="6.42504">
        <ele>1400</ele>
        <time>2018-10-17T07:02:27Z</time>
      </trkpt>
      <trkpt lat="45.83653" lon="6.42504">
        <ele>1400</ele>
        <time>2018-10-17T07:02:28Z</time>
      </trkpt>
      <trkpt lat="45.83653" lon="6.42504">
        <ele>1400</ele>
        <time>2018-10-17T07:02:29Z</time>
      </trkpt>
      <trkpt lat="45.83653" lon="6.42504">
        <ele>1400</ele>
        <time>2018-10-17T07:02:30Z</time>
      </trkpt>
      <trkpt lat="45.83653" lon="6.42504">
        <ele>1400</ele>
        <time>2018-10-17T07:02:31Z</time>
      </trkpt>
      <trkpt lat="45.83653" lon="6.42504">
        <ele>1400</ele>
        <time>2018-10-17T07:02:32Z</time>
      </trkpt>
      <trkpt lat="45.83653" lon="6.42504">
        <ele>1400</ele>
        <time>2018-10-17T07:02:33Z</time>
      </trkpt>
      <trkpt lat="45.83657" lon="6.42499">
        <ele>1400</ele>
        <time>2018-10-17T07:02:34Z</time>
      </trkpt>
      <trkpt lat="45.83657" lon="6.42499">
        <ele>1401</ele>
        <time>2018-10-17T07:02:35Z</time>
      </trkpt>
      <trkpt lat="45.83657" lon="6.42499">
        <ele>1401</ele>
        <time>2018-10-17T07:02:36Z</time>
      </trkpt>
      <trkpt lat="45.83659" lon="6.42496">
        <ele>1401</ele>
        <time>2018-10-17T07:02:37Z</time>
      </trkpt>
      <trkpt lat="45.83659" lon="6.42496">
        <ele>1401</ele>
        <time>2018-10-17T07:02:38Z</time>
      </trkpt>
      <trkpt lat="45.83662" lon="6.42494">
        <ele>1401</ele>
        <time>2018-10-17T07:02:39Z</time>
      </trkpt>
      <trkpt lat="45.83662" lon="6.42494">
        <ele>1401</ele>
        <time>2018-10-17T07:02:40Z</time>
      </trkpt>
      <trkpt lat="45.83664" lon="6.42492">
        <ele>1402</ele>
        <time>2018-10-17T07:02:41Z</time>
      </trkpt>
      <trkpt lat="45.83664" lon="6.42492">
        <ele>1402</ele>
        <time>2018-10-17T07:02:42Z</time>
      </trkpt>
      <trkpt lat="45.83664" lon="6.42492">
        <ele>1402</ele>
        <time>2018-10-17T07:02:43Z</time>
      </trkpt>
      <trkpt lat="45.83664" lon="6.42492">
        <ele>1403</ele>
        <time>2018-10-17T07:02:44Z</time>
      </trkpt>
      <trkpt lat="45.83667" lon="6.42495">
        <ele>1403</ele>
        <time>2018-10-17T07:02:45Z</time>
      </trkpt>
      <trkpt lat="45.83667" lon="6.42495">
        <ele>1403</ele>
        <time>2018-10-17T07:02:46Z</time>
      </trkpt>
      <trkpt lat="45.83668" lon="6.42497">
        <ele>1403</ele>
        <time>2018-10-17T07:02:47Z</time>
      </trkpt>
      <trkpt lat="45.83668" lon="6.42497">
        <ele>1404</ele>
        <time>2018-10-17T07:02:48Z</time>
      </trkpt>
      <trkpt lat="45.83667" lon="6.42501">
        <ele>1404</ele>
        <time>2018-10-17T07:02:49Z</time>
      </trkpt>
      <trkpt lat="45.83667" lon="6.42501">
        <ele>1404</ele>
        <time>2018-10-17T07:02:50Z</time>
      </trkpt>
      <trkpt lat="45.83667" lon="6.42504">
        <ele>1404</ele>
        <time>2018-10-17T07:02:51Z</time>
      </trkpt>
      <trkpt lat="45.83667" lon="6.42504">
        <ele>1405</ele>
        <time>2018-10-17T07:02:52Z</time>
      </trkpt>
      <trkpt lat="45.83667" lon="6.42504">
        <ele>1405</ele>
        <time>2018-10-17T07:02:53Z</time>
      </trkpt>
      <trkpt lat="45.83667" lon="6.42508">
        <ele>1405</ele>
        <time>2018-10-17T07:02:54Z</time>
      </trkpt>
      <trkpt lat="45.83667" lon="6.42508">
        <ele>1405</ele>
        <time>2018-10-17T07:02:55Z</time>
      </trkpt>
      <trkpt lat="45.83667" lon="6.42508">
        <ele>1406</ele>
        <time>2018-10-17T07:02:56Z</time>
      </trkpt>
      <trkpt lat="45.83667" lon="6.42511">
        <ele>1406</ele>
        <time>2018-10-17T07:02:57Z</time>
      </trkpt>
      <trkpt lat="45.83667" lon="6.42511">
        <ele>1407</ele>
        <time>2018-10-17T07:02:58Z</time>
      </trkpt>
      <trkpt lat="45.83667" lon="6.42511">
        <ele>1407</ele>
        <time>2018-10-17T07:02:59Z</time>
      </trkpt>
      <trkpt lat="45.83667" lon="6.42515">
        <ele>1407</ele>
        <time>2018-10-17T07:03:00Z</time>
      </trkpt>
      <trkpt lat="45.83667" lon="6.42515">
        <ele>1408</ele>
        <time>2018-10-17T07:03:01Z</time>
      </trkpt>
      <trkpt lat="45.83667" lon="6.42515">
        <ele>1408</ele>
        <time>2018-10-17T07:03:02Z</time>
      </trkpt>
      <trkpt lat="45.83666" lon="6.42518">
        <ele>1408</ele>
        <time>2018-10-17T07:03:03Z</time>
      </trkpt>
      <trkpt lat="45.83666" lon="6.42518">
        <ele>1408</ele>
        <time>2018-10-17T07:03:04Z</time>
      </trkpt>
      <trkpt lat="45.83666" lon="6.42518">
        <ele>1408</ele>
        <time>2018-10-17T07:03:05Z</time>
      </trkpt>
      <trkpt lat="45.83666" lon="6.4252">
        <ele>1408</ele>
        <time>2018-10-17T07:03:06Z</time>
      </trkpt>
      <trkpt lat="45.83666" lon="6.4252">
        <ele>1408</ele>
        <time>2018-10-17T07:03:07Z</time>
      </trkpt>
      <trkpt lat="45.83666" lon="6.4252">
        <ele>1408</ele>
        <time>2018-10-17T07:03:08Z</time>
      </trkpt>
      <trkpt lat="45.83666" lon="6.42524">
        <ele>1408</ele>
        <time>2018-10-17T07:03:09Z</time>
      </trkpt>
      <trkpt lat="45.83666" lon="6.42524">
        <ele>1408</ele>
        <time>2018-10-17T07:03:10Z</time>
      </trkpt>
      <trkpt lat="45.83667" lon="6.42528">
        <ele>1408</ele>
        <time>2018-10-17T07:03:11Z</time>
      </trkpt>
      <trkpt lat="45.83667" lon="6.42528">
        <ele>1408</ele>
        <time>2018-10-17T07:03:12Z</time>
      </trkpt>
      <trkpt lat="45.83667" lon="6.4253">
        <ele>1409</ele>
        <time>2018-10-17T07:03:13Z</time>
      </trkpt>
      <trkpt lat="45.83667" lon="6.4253">
        <ele>1409</ele>
        <time>2018-10-17T07:03:14Z</time>
      </trkpt>
      <trkpt lat="45.83667" lon="6.4253">
        <ele>1409</ele>
        <time>2018-10-17T07:03:15Z</time>
      </trkpt>
      <trkpt lat="45.83667" lon="6.4253">
        <ele>1409</ele>
        <time>2018-10-17T07:03:16Z</time>
      </trkpt>
      <trkpt lat="45.83667" lon="6.4253">
        <ele>1410</ele>
        <time>2018-10-17T07:03:17Z</time>
      </trkpt>
      <trkpt lat="45.83667" lon="6.4253">
        <ele>1410</ele>
        <time>2018-10-17T07:03:18Z</time>
      </trkpt>
      <trkpt lat="45.83667" lon="6.4253">
        <ele>1410</ele>
        <time>2018-10-17T07:03:19Z</time>
      </trkpt>
      <trkpt lat="45.83663" lon="6.42536">
        <ele>1411</ele>
        <time>2018-10-17T07:03:20Z</time>
      </trkpt>
      <trkpt lat="45.83663" lon="6.42536">
        <ele>1411</ele>
        <time>2018-10-17T07:03:21Z</time>
      </trkpt>
      <trkpt lat="45.83663" lon="6.42539">
        <ele>1411</ele>
        <time>2018-10-17T07:03:22Z</time>
      </trkpt>
      <trkpt lat="45.83663" lon="6.42539">
        <ele>1411</ele>
        <time>2018-10-17T07:03:23Z</time>
      </trkpt>
      <trkpt lat="45.83663" lon="6.42539">
        <ele>1411</ele>
        <time>2018-10-17T07:03:24Z</time>
      </trkpt>
      <trkpt lat="45.83663" lon="6.42539">
        <ele>1412</ele>
        <time>2018-10-17T07:03:25Z</time>
      </trkpt>
      <trkpt lat="45.83663" lon="6.42539">
        <ele>1412</ele>
        <time>2018-10-17T07:03:26Z</time>
      </trkpt>
      <trkpt lat="45.83663" lon="6.42539">
        <ele>1412</ele>
        <time>2018-10-17T07:03:27Z</time>
      </trkpt>
      <trkpt lat="45.83663" lon="6.42539">
        <ele>1413</ele>
        <time>2018-10-17T07:03:28Z</time>
      </trkpt>
      <trkpt lat="45.83663" lon="6.42539">
        <ele>1413</ele>
        <time>2018-10-17T07:03:29Z</time>
      </trkpt>
      <trkpt lat="45.83663" lon="6.42539">
        <ele>1413</ele>
        <time>2018-10-17T07:03:30Z</time>
      </trkpt>
      <trkpt lat="45.83663" lon="6.42539">
        <ele>1413</ele>
        <time>2018-10-17T07:03:31Z</time>
      </trkpt>
      <trkpt lat="45.83663" lon="6.42539">
        <ele>1414</ele>
        <time>2018-10-17T07:03:32Z</time>
      </trkpt>
      <trkpt lat="45.83663" lon="6.42539">
        <ele>1414</ele>
        <time>2018-10-17T07:03:33Z</time>
      </trkpt>
      <trkpt lat="45.83663" lon="6.42539">
        <ele>1414</ele>
        <time>2018-10-17T07:03:34Z</time>
      </trkpt>
      <trkpt lat="45.83663" lon="6.42539">
        <ele>1415</ele>
        <time>2018-10-17T07:03:35Z</time>
      </trkpt>
      <trkpt lat="45.83662" lon="6.42554">
        <ele>1415</ele>
        <time>2018-10-17T07:03:36Z</time>
      </trkpt>
      <trkpt lat="45.83662" lon="6.42554">
        <ele>1415</ele>
        <time>2018-10-17T07:03:37Z</time>
      </trkpt>
      <trkpt lat="45.83662" lon="6.42554">
        <ele>1415</ele>
        <time>2018-10-17T07:03:38Z</time>
      </trkpt>
      <trkpt lat="45.83662" lon="6.42554">
        <ele>1415</ele>
        <time>2018-10-17T07:03:39Z</time>
      </trkpt>
      <trkpt lat="45.83662" lon="6.42554">
        <ele>1416</ele>
        <time>2018-10-17T07:03:40Z</time>
      </trkpt>
      <trkpt lat="45.83662" lon="6.42554">
        <ele>1416</ele>
        <time>2018-10-17T07:03:41Z</time>
      </trkpt>
      <trkpt lat="45.83662" lon="6.42554">
        <ele>1416</ele>
        <time>2018-10-17T07:03:42Z</time>
      </trkpt>
      <trkpt lat="45.83661" lon="6.42558">
        <ele>1417</ele>
        <time>2018-10-17T07:03:43Z</time>
      </trkpt>
      <trkpt lat="45.83661" lon="6.42558">
        <ele>1417</ele>
        <time>2018-10-17T07:03:44Z</time>
      </trkpt>
      <trkpt lat="45.83661" lon="6.42558">
        <ele>1417</ele>
        <time>2018-10-17T07:03:45Z</time>
      </trkpt>
      <trkpt lat="45.83661" lon="6.42558">
        <ele>1417</ele>
        <time>2018-10-17T07:03:46Z</time>
      </trkpt>
      <trkpt lat="45.83661" lon="6.42558">
        <ele>1417</ele>
        <time>2018-10-17T07:03:47Z</time>
      </trkpt>
      <trkpt lat="45.83661" lon="6.42558">
        <ele>1417</ele>
        <time>2018-10-17T07:03:48Z</time>
      </trkpt>
      <trkpt lat="45.83662" lon="6.42561">
        <ele>1418</ele>
        <time>2018-10-17T07:03:49Z</time>
      </trkpt>
      <trkpt lat="45.83662" lon="6.42561">
        <ele>1418</ele>
        <time>2018-10-17T07:03:50Z</time>
      </trkpt>
      <trkpt lat="45.83662" lon="6.42561">
        <ele>1418</ele>
        <time>2018-10-17T07:03:51Z</time>
      </trkpt>
      <trkpt lat="45.83662" lon="6.42561">
        <ele>1418</ele>
        <time>2018-10-17T07:03:52Z</time>
      </trkpt>
      <trkpt lat="45.83662" lon="6.42561">
        <ele>1418</ele>
        <time>2018-10-17T07:03:53Z</time>
      </trkpt>
      <trkpt lat="45.83664" lon="6.42562">
        <ele>1418</ele>
        <time>2018-10-17T07:03:54Z</time>
      </trkpt>
      <trkpt lat="45.83664" lon="6.42562">
        <ele>1418</ele>
        <time>2018-10-17T07:03:55Z</time>
      </trkpt>
      <trkpt lat="45.83664" lon="6.42562">
        <ele>1419</ele>
        <time>2018-10-17T07:03:56Z</time>
      </trkpt>
      <trkpt lat="45.83666" lon="6.42565">
        <ele>1420</ele>
        <time>2018-10-17T07:03:57Z</time>
      </trkpt>
      <trkpt lat="45.83666" lon="6.42565">
        <ele>1420</ele>
        <time>2018-10-17T07:03:58Z</time>
      </trkpt>
      <trkpt lat="45.83666" lon="6.42565">
        <ele>1420</ele>
        <time>2018-10-17T07:03:59Z</time>
      </trkpt>
      <trkpt lat="45.83668" lon="6.42565">
        <ele>1421</ele>
        <time>2018-10-17T07:04:00Z</time>
      </trkpt>
      <trkpt lat="45.83668" lon="6.42565">
        <ele>1421</ele>
        <time>2018-10-17T07:04:01Z</time>
      </trkpt>
      <trkpt lat="45.83668" lon="6.42565">
        <ele>1421</ele>
        <time>2018-10-17T07:04:02Z</time>
      </trkpt>
      <trkpt lat="45.83668" lon="6.42565">
        <ele>1421</ele>
        <time>2018-10-17T07:04:03Z</time>
      </trkpt>
      <trkpt lat="45.83668" lon="6.42565">
        <ele>1421</ele>
        <time>2018-10-17T07:04:04Z</time>
      </trkpt>
      <trkpt lat="45.83668" lon="6.42565">
        <ele>1422</ele>
        <time>2018-10-17T07:04:05Z</time>
      </trkpt>
      <trkpt lat="45.83668" lon="6.42565">
        <ele>1422</ele>
        <time>2018-10-17T07:04:06Z</time>
      </trkpt>
      <trkpt lat="45.83668" lon="6.42565">
        <ele>1422</ele>
        <time>2018-10-17T07:04:07Z</time>
      </trkpt>
      <trkpt lat="45.83668" lon="6.42565">
        <ele>1422</ele>
        <time>2018-10-17T07:04:08Z</time>
      </trkpt>
      <trkpt lat="45.83668" lon="6.42565">
        <ele>1422</ele>
        <time>2018-10-17T07:04:09Z</time>
      </trkpt>
      <trkpt lat="45.8367" lon="6.42566">
        <ele>1423</ele>
        <time>2018-10-17T07:04:10Z</time>
      </trkpt>
      <trkpt lat="45.8367" lon="6.42566">
        <ele>1423</ele>
        <time>2018-10-17T07:04:11Z</time>
      </trkpt>
      <trkpt lat="45.8367" lon="6.42566">
        <ele>1423</ele>
        <time>2018-10-17T07:04:12Z</time>
      </trkpt>
      <trkpt lat="45.8367" lon="6.42566">
        <ele>1424</ele>
        <time>2018-10-17T07:04:13Z</time>
      </trkpt>
      <trkpt lat="45.8367" lon="6.42566">
        <ele>1424</ele>
        <time>2018-10-17T07:04:14Z</time>
      </trkpt>
      <trkpt lat="45.8367" lon="6.42566">
        <ele>1424</ele>
        <time>2018-10-17T07:04:15Z</time>
      </trkpt>
      <trkpt lat="45.8367" lon="6.4257">
        <ele>1424</ele>
        <time>2018-10-17T07:04:16Z</time>
      </trkpt>
      <trkpt lat="45.8367" lon="6.4257">
        <ele>1425</ele>
        <time>2018-10-17T07:04:17Z</time>
      </trkpt>
      <trkpt lat="45.8367" lon="6.4257">
        <ele>1425</ele>
        <time>2018-10-17T07:04:18Z</time>
      </trkpt>
      <trkpt lat="45.83669" lon="6.42573">
        <ele>1425</ele>
        <time>2018-10-17T07:04:19Z</time>
      </trkpt>
      <trkpt lat="45.83669" lon="6.42573">
        <ele>1425</ele>
        <time>2018-10-17T07:04:20Z</time>
      </trkpt>
      <trkpt lat="45.83669" lon="6.42573">
        <ele>1425</ele>
        <time>2018-10-17T07:04:21Z</time>
      </trkpt>
      <trkpt lat="45.83669" lon="6.42573">
        <ele>1426</ele>
        <time>2018-10-17T07:04:22Z</time>
      </trkpt>
      <trkpt lat="45.83669" lon="6.42573">
        <ele>1426</ele>
        <time>2018-10-17T07:04:23Z</time>
      </trkpt>
      <trkpt lat="45.83669" lon="6.42573">
        <ele>1426</ele>
        <time>2018-10-17T07:04:24Z</time>
      </trkpt>
      <trkpt lat="45.83667" lon="6.42581">
        <ele>1426</ele>
        <time>2018-10-17T07:04:25Z</time>
      </trkpt>
      <trkpt lat="45.83667" lon="6.42581">
        <ele>1426</ele>
        <time>2018-10-17T07:04:26Z</time>
      </trkpt>
      <trkpt lat="45.83667" lon="6.42581">
        <ele>1427</ele>
        <time>2018-10-17T07:04:27Z</time>
      </trkpt>
      <trkpt lat="45.83666" lon="6.42584">
        <ele>1427</ele>
        <time>2018-10-17T07:04:28Z</time>
      </trkpt>
      <trkpt lat="45.83666" lon="6.42584">
        <ele>1427</ele>
        <time>2018-10-17T07:04:29Z</time>
      </trkpt>
      <trkpt lat="45.83666" lon="6.42584">
        <ele>1427</ele>
        <time>2018-10-17T07:04:30Z</time>
      </trkpt>
      <trkpt lat="45.83665" lon="6.42586">
        <ele>1427</ele>
        <time>2018-10-17T07:04:31Z</time>
      </trkpt>
      <trkpt lat="45.83665" lon="6.42586">
        <ele>1428</ele>
        <time>2018-10-17T07:04:32Z</time>
      </trkpt>
      <trkpt lat="45.83665" lon="6.42586">
        <ele>1428</ele>
        <time>2018-10-17T07:04:33Z</time>
      </trkpt>
      <trkpt lat="45.83665" lon="6.42586">
        <ele>1429</ele>
        <time>2018-10-17T07:04:34Z</time>
      </trkpt>
      <trkpt lat="45.83665" lon="6.42586">
        <ele>1429</ele>
        <time>2018-10-17T07:04:35Z</time>
      </trkpt>
      <trkpt lat="45.83665" lon="6.42586">
        <ele>1429</ele>
        <time>2018-10-17T07:04:36Z</time>
      </trkpt>
      <trkpt lat="45.83665" lon="6.42586">
        <ele>1430</ele>
        <time>2018-10-17T07:04:37Z</time>
      </trkpt>
      <trkpt lat="45.83665" lon="6.42586">
        <ele>1430</ele>
        <time>2018-10-17T07:04:38Z</time>
      </trkpt>
      <trkpt lat="45.83665" lon="6.42586">
        <ele>1430</ele>
        <time>2018-10-17T07:04:39Z</time>
      </trkpt>
      <trkpt lat="45.83665" lon="6.42586">
        <ele>1431</ele>
        <time>2018-10-17T07:04:40Z</time>
      </trkpt>
      <trkpt lat="45.83665" lon="6.42586">
        <ele>1431</ele>
        <time>2018-10-17T07:04:41Z</time>
      </trkpt>
      <trkpt lat="45.83665" lon="6.42586">
        <ele>1431</ele>
        <time>2018-10-17T07:04:42Z</time>
      </trkpt>
      <trkpt lat="45.83665" lon="6.42586">
        <ele>1431</ele>
        <time>2018-10-17T07:04:43Z</time>
      </trkpt>
      <trkpt lat="45.83665" lon="6.42586">
        <ele>1431</ele>
        <time>2018-10-17T07:04:44Z</time>
      </trkpt>
      <trkpt lat="45.83665" lon="6.42586">
        <ele>1432</ele>
        <time>2018-10-17T07:04:45Z</time>
      </trkpt>
      <trkpt lat="45.83667" lon="6.42587">
        <ele>1432</ele>
        <time>2018-10-17T07:04:46Z</time>
      </trkpt>
      <trkpt lat="45.83667" lon="6.42587">
        <ele>1432</ele>
        <time>2018-10-17T07:04:47Z</time>
      </trkpt>
      <trkpt lat="45.83667" lon="6.42587">
        <ele>1432</ele>
        <time>2018-10-17T07:04:48Z</time>
      </trkpt>
      <trkpt lat="45.83667" lon="6.42587">
        <ele>1432</ele>
        <time>2018-10-17T07:04:49Z</time>
      </trkpt>
      <trkpt lat="45.83669" lon="6.42587">
        <ele>1432</ele>
        <time>2018-10-17T07:04:50Z</time>
      </trkpt>
      <trkpt lat="45.83669" lon="6.42587">
        <ele>1433</ele>
        <time>2018-10-17T07:04:51Z</time>
      </trkpt>
      <trkpt lat="45.83669" lon="6.42587">
        <ele>1433</ele>
        <time>2018-10-17T07:04:52Z</time>
      </trkpt>
      <trkpt lat="45.83671" lon="6.42589">
        <ele>1433</ele>
        <time>2018-10-17T07:04:53Z</time>
      </trkpt>
      <trkpt lat="45.83671" lon="6.42589">
        <ele>1434</ele>
        <time>2018-10-17T07:04:54Z</time>
      </trkpt>
      <trkpt lat="45.83672" lon="6.42592">
        <ele>1434</ele>
        <time>2018-10-17T07:04:55Z</time>
      </trkpt>
      <trkpt lat="45.83672" lon="6.42592">
        <ele>1434</ele>
        <time>2018-10-17T07:04:56Z</time>
      </trkpt>
      <trkpt lat="45.83672" lon="6.42592">
        <ele>1435</ele>
        <time>2018-10-17T07:04:57Z</time>
      </trkpt>
      <trkpt lat="45.83671" lon="6.42595">
        <ele>1435</ele>
        <time>2018-10-17T07:04:58Z</time>
      </trkpt>
      <trkpt lat="45.83671" lon="6.42595">
        <ele>1435</ele>
        <time>2018-10-17T07:04:59Z</time>
      </trkpt>
      <trkpt lat="45.83671" lon="6.42595">
        <ele>1435</ele>
        <time>2018-10-17T07:05:00Z</time>
      </trkpt>
      <trkpt lat="45.8367" lon="6.42599">
        <ele>1435</ele>
        <time>2018-10-17T07:05:01Z</time>
      </trkpt>
      <trkpt lat="45.8367" lon="6.42599">
        <ele>1436</ele>
        <time>2018-10-17T07:05:02Z</time>
      </trkpt>
      <trkpt lat="45.8367" lon="6.42599">
        <ele>1437</ele>
        <time>2018-10-17T07:05:03Z</time>
      </trkpt>
      <trkpt lat="45.8367" lon="6.42599">
        <ele>1437</ele>
        <time>2018-10-17T07:05:04Z</time>
      </trkpt>
      <trkpt lat="45.8367" lon="6.42599">
        <ele>1437</ele>
        <time>2018-10-17T07:05:05Z</time>
      </trkpt>
      <trkpt lat="45.83671" lon="6.42608">
        <ele>1437</ele>
        <time>2018-10-17T07:05:06Z</time>
      </trkpt>
      <trkpt lat="45.83671" lon="6.42608">
        <ele>1437</ele>
        <time>2018-10-17T07:05:07Z</time>
      </trkpt>
      <trkpt lat="45.83671" lon="6.42608">
        <ele>1438</ele>
        <time>2018-10-17T07:05:08Z</time>
      </trkpt>
      <trkpt lat="45.83671" lon="6.42608">
        <ele>1438</ele>
        <time>2018-10-17T07:05:09Z</time>
      </trkpt>
      <trkpt lat="45.83671" lon="6.42608">
        <ele>1438</ele>
        <time>2018-10-17T07:05:10Z</time>
      </trkpt>
      <trkpt lat="45.83671" lon="6.42608">
        <ele>1438</ele>
        <time>2018-10-17T07:05:11Z</time>
      </trkpt>
      <trkpt lat="45.83671" lon="6.42608">
        <ele>1439</ele>
        <time>2018-10-17T07:05:12Z</time>
      </trkpt>
      <trkpt lat="45.83671" lon="6.42608">
        <ele>1439</ele>
        <time>2018-10-17T07:05:13Z</time>
      </trkpt>
      <trkpt lat="45.83671" lon="6.42608">
        <ele>1439</ele>
        <time>2018-10-17T07:05:14Z</time>
      </trkpt>
      <trkpt lat="45.83671" lon="6.42608">
        <ele>1439</ele>
        <time>2018-10-17T07:05:15Z</time>
      </trkpt>
      <trkpt lat="45.83671" lon="6.42608">
        <ele>1439</ele>
        <time>2018-10-17T07:05:16Z</time>
      </trkpt>
      <trkpt lat="45.83671" lon="6.42608">
        <ele>1440</ele>
        <time>2018-10-17T07:05:17Z</time>
      </trkpt>
      <trkpt lat="45.83671" lon="6.42608">
        <ele>1440</ele>
        <time>2018-10-17T07:05:18Z</time>
      </trkpt>
      <trkpt lat="45.83671" lon="6.42608">
        <ele>1440</ele>
        <time>2018-10-17T07:05:19Z</time>
      </trkpt>
      <trkpt lat="45.83666" lon="6.42615">
        <ele>1440</ele>
        <time>2018-10-17T07:05:20Z</time>
      </trkpt>
      <trkpt lat="45.83666" lon="6.42615">
        <ele>1440</ele>
        <time>2018-10-17T07:05:21Z</time>
      </trkpt>
      <trkpt lat="45.83666" lon="6.42615">
        <ele>1440</ele>
        <time>2018-10-17T07:05:22Z</time>
      </trkpt>
      <trkpt lat="45.83663" lon="6.42615">
        <ele>1440</ele>
        <time>2018-10-17T07:05:23Z</time>
      </trkpt>
      <trkpt lat="45.83663" lon="6.42615">
        <ele>1441</ele>
        <time>2018-10-17T07:05:24Z</time>
      </trkpt>
      <trkpt lat="45.83663" lon="6.42615">
        <ele>1441</ele>
        <time>2018-10-17T07:05:25Z</time>
      </trkpt>
      <trkpt lat="45.8366" lon="6.42614">
        <ele>1441</ele>
        <time>2018-10-17T07:05:26Z</time>
      </trkpt>
      <trkpt lat="45.8366" lon="6.42614">
        <ele>1441</ele>
        <time>2018-10-17T07:05:27Z</time>
      </trkpt>
      <trkpt lat="45.83658" lon="6.42613">
        <ele>1442</ele>
        <time>2018-10-17T07:05:28Z</time>
      </trkpt>
      <trkpt lat="45.83658" lon="6.42613">
        <ele>1442</ele>
        <time>2018-10-17T07:05:29Z</time>
      </trkpt>
      <trkpt lat="45.83656" lon="6.42612">
        <ele>1442</ele>
        <time>2018-10-17T07:05:30Z</time>
      </trkpt>
      <trkpt lat="45.83656" lon="6.42612">
        <ele>1442</ele>
        <time>2018-10-17T07:05:31Z</time>
      </trkpt>
      <trkpt lat="45.83656" lon="6.42612">
        <ele>1442</ele>
        <time>2018-10-17T07:05:32Z</time>
      </trkpt>
      <trkpt lat="45.83653" lon="6.42613">
        <ele>1442</ele>
        <time>2018-10-17T07:05:33Z</time>
      </trkpt>
      <trkpt lat="45.83653" lon="6.42613">
        <ele>1442</ele>
        <time>2018-10-17T07:05:34Z</time>
      </trkpt>
      <trkpt lat="45.83653" lon="6.42613">
        <ele>1442</ele>
        <time>2018-10-17T07:05:35Z</time>
      </trkpt>
      <trkpt lat="45.83651" lon="6.42611">
        <ele>1442</ele>
        <time>2018-10-17T07:05:36Z</time>
      </trkpt>
      <trkpt lat="45.83651" lon="6.42611">
        <ele>1443</ele>
        <time>2018-10-17T07:05:37Z</time>
      </trkpt>
      <trkpt lat="45.83651" lon="6.42611">
        <ele>1443</ele>
        <time>2018-10-17T07:05:38Z</time>
      </trkpt>
      <trkpt lat="45.83649" lon="6.4261">
        <ele>1443</ele>
        <time>2018-10-17T07:05:39Z</time>
      </trkpt>
      <trkpt lat="45.83649" lon="6.4261">
        <ele>1443</ele>
        <time>2018-10-17T07:05:40Z</time>
      </trkpt>
      <trkpt lat="45.83649" lon="6.4261">
        <ele>1443</ele>
        <time>2018-10-17T07:05:41Z</time>
      </trkpt>
      <trkpt lat="45.83647" lon="6.42612">
        <ele>1443</ele>
        <time>2018-10-17T07:05:42Z</time>
      </trkpt>
      <trkpt lat="45.83647" lon="6.42612">
        <ele>1444</ele>
        <time>2018-10-17T07:05:43Z</time>
      </trkpt>
      <trkpt lat="45.83647" lon="6.42612">
        <ele>1445</ele>
        <time>2018-10-17T07:05:44Z</time>
      </trkpt>
      <trkpt lat="45.83645" lon="6.42613">
        <ele>1445</ele>
        <time>2018-10-17T07:05:45Z</time>
      </trkpt>
      <trkpt lat="45.83645" lon="6.42613">
        <ele>1445</ele>
        <time>2018-10-17T07:05:46Z</time>
      </trkpt>
      <trkpt lat="45.83645" lon="6.42613">
        <ele>1446</ele>
        <time>2018-10-17T07:05:47Z</time>
      </trkpt>
      <trkpt lat="45.83645" lon="6.42613">
        <ele>1446</ele>
        <time>2018-10-17T07:05:48Z</time>
      </trkpt>
      <trkpt lat="45.83645" lon="6.42615">
        <ele>1446</ele>
        <time>2018-10-17T07:05:49Z</time>
      </trkpt>
      <trkpt lat="45.83645" lon="6.42615">
        <ele>1446</ele>
        <time>2018-10-17T07:05:50Z</time>
      </trkpt>
      <trkpt lat="45.83645" lon="6.42615">
        <ele>1446</ele>
        <time>2018-10-17T07:05:51Z</time>
      </trkpt>
      <trkpt lat="45.83643" lon="6.42617">
        <ele>1447</ele>
        <time>2018-10-17T07:05:52Z</time>
      </trkpt>
      <trkpt lat="45.83643" lon="6.42617">
        <ele>1447</ele>
        <time>2018-10-17T07:05:53Z</time>
      </trkpt>
      <trkpt lat="45.83643" lon="6.42617">
        <ele>1447</ele>
        <time>2018-10-17T07:05:54Z</time>
      </trkpt>
      <trkpt lat="45.83643" lon="6.42617">
        <ele>1447</ele>
        <time>2018-10-17T07:05:55Z</time>
      </trkpt>
      <trkpt lat="45.83641" lon="6.42619">
        <ele>1447</ele>
        <time>2018-10-17T07:05:56Z</time>
      </trkpt>
      <trkpt lat="45.83641" lon="6.42619">
        <ele>1448</ele>
        <time>2018-10-17T07:05:57Z</time>
      </trkpt>
      <trkpt lat="45.83641" lon="6.42619">
        <ele>1448</ele>
        <time>2018-10-17T07:05:58Z</time>
      </trkpt>
      <trkpt lat="45.83641" lon="6.42619">
        <ele>1448</ele>
        <time>2018-10-17T07:05:59Z</time>
      </trkpt>
      <trkpt lat="45.8364" lon="6.42621">
        <ele>1448</ele>
        <time>2018-10-17T07:06:00Z</time>
      </trkpt>
      <trkpt lat="45.8364" lon="6.42621">
        <ele>1448</ele>
        <time>2018-10-17T07:06:01Z</time>
      </trkpt>
      <trkpt lat="45.8364" lon="6.42621">
        <ele>1449</ele>
        <time>2018-10-17T07:06:02Z</time>
      </trkpt>
      <trkpt lat="45.8364" lon="6.42621">
        <ele>1449</ele>
        <time>2018-10-17T07:06:03Z</time>
      </trkpt>
      <trkpt lat="45.8364" lon="6.42621">
        <ele>1449</ele>
        <time>2018-10-17T07:06:04Z</time>
      </trkpt>
      <trkpt lat="45.83639" lon="6.42624">
        <ele>1449</ele>
        <time>2018-10-17T07:06:05Z</time>
      </trkpt>
      <trkpt lat="45.83639" lon="6.42624">
        <ele>1450</ele>
        <time>2018-10-17T07:06:06Z</time>
      </trkpt>
      <trkpt lat="45.83639" lon="6.42624">
        <ele>1450</ele>
        <time>2018-10-17T07:06:07Z</time>
      </trkpt>
      <trkpt lat="45.83639" lon="6.42624">
        <ele>1450</ele>
        <time>2018-10-17T07:06:08Z</time>
      </trkpt>
      <trkpt lat="45.83639" lon="6.42624">
        <ele>1451</ele>
        <time>2018-10-17T07:06:09Z</time>
      </trkpt>
      <trkpt lat="45.83639" lon="6.42624">
        <ele>1451</ele>
        <time>2018-10-17T07:06:10Z</time>
      </trkpt>
      <trkpt lat="45.83639" lon="6.42624">
        <ele>1452</ele>
        <time>2018-10-17T07:06:11Z</time>
      </trkpt>
      <trkpt lat="45.83641" lon="6.42625">
        <ele>1452</ele>
        <time>2018-10-17T07:06:12Z</time>
      </trkpt>
      <trkpt lat="45.83641" lon="6.42625">
        <ele>1452</ele>
        <time>2018-10-17T07:06:13Z</time>
      </trkpt>
      <trkpt lat="45.83641" lon="6.42625">
        <ele>1452</ele>
        <time>2018-10-17T07:06:14Z</time>
      </trkpt>
      <trkpt lat="45.83643" lon="6.42626">
        <ele>1452</ele>
        <time>2018-10-17T07:06:15Z</time>
      </trkpt>
      <trkpt lat="45.83643" lon="6.42626">
        <ele>1452</ele>
        <time>2018-10-17T07:06:16Z</time>
      </trkpt>
      <trkpt lat="45.83643" lon="6.42626">
        <ele>1452</ele>
        <time>2018-10-17T07:06:17Z</time>
      </trkpt>
      <trkpt lat="45.83645" lon="6.42628">
        <ele>1453</ele>
        <time>2018-10-17T07:06:18Z</time>
      </trkpt>
      <trkpt lat="45.83645" lon="6.42628">
        <ele>1453</ele>
        <time>2018-10-17T07:06:19Z</time>
      </trkpt>
      <trkpt lat="45.83646" lon="6.42631">
        <ele>1453</ele>
        <time>2018-10-17T07:06:20Z</time>
      </trkpt>
      <trkpt lat="45.83646" lon="6.42631">
        <ele>1454</ele>
        <time>2018-10-17T07:06:21Z</time>
      </trkpt>
      <trkpt lat="45.83646" lon="6.42634">
        <ele>1454</ele>
        <time>2018-10-17T07:06:22Z</time>
      </trkpt>
      <trkpt lat="45.83646" lon="6.42634">
        <ele>1454</ele>
        <time>2018-10-17T07:06:23Z</time>
      </trkpt>
      <trkpt lat="45.83646" lon="6.42637">
        <ele>1454</ele>
        <time>2018-10-17T07:06:24Z</time>
      </trkpt>
      <trkpt lat="45.83646" lon="6.42637">
        <ele>1455</ele>
        <time>2018-10-17T07:06:25Z</time>
      </trkpt>
      <trkpt lat="45.83646" lon="6.42637">
        <ele>1455</ele>
        <time>2018-10-17T07:06:26Z</time>
      </trkpt>
      <trkpt lat="45.83645" lon="6.4264">
        <ele>1455</ele>
        <time>2018-10-17T07:06:27Z</time>
      </trkpt>
      <trkpt lat="45.83645" lon="6.4264">
        <ele>1456</ele>
        <time>2018-10-17T07:06:28Z</time>
      </trkpt>
      <trkpt lat="45.83645" lon="6.4264">
        <ele>1456</ele>
        <time>2018-10-17T07:06:29Z</time>
      </trkpt>
      <trkpt lat="45.83645" lon="6.4264">
        <ele>1456</ele>
        <time>2018-10-17T07:06:30Z</time>
      </trkpt>
      <trkpt lat="45.83644" lon="6.42643">
        <ele>1456</ele>
        <time>2018-10-17T07:06:31Z</time>
      </trkpt>
      <trkpt lat="45.83644" lon="6.42643">
        <ele>1457</ele>
        <time>2018-10-17T07:06:32Z</time>
      </trkpt>
      <trkpt lat="45.83644" lon="6.42643">
        <ele>1457</ele>
        <time>2018-10-17T07:06:33Z</time>
      </trkpt>
      <trkpt lat="45.83644" lon="6.42646">
        <ele>1457</ele>
        <time>2018-10-17T07:06:34Z</time>
      </trkpt>
      <trkpt lat="45.83644" lon="6.42646">
        <ele>1458</ele>
        <time>2018-10-17T07:06:35Z</time>
      </trkpt>
      <trkpt lat="45.83644" lon="6.42646">
        <ele>1458</ele>
        <time>2018-10-17T07:06:36Z</time>
      </trkpt>
      <trkpt lat="45.83643" lon="6.42649">
        <ele>1458</ele>
        <time>2018-10-17T07:06:37Z</time>
      </trkpt>
      <trkpt lat="45.83643" lon="6.42649">
        <ele>1459</ele>
        <time>2018-10-17T07:06:38Z</time>
      </trkpt>
      <trkpt lat="45.83643" lon="6.42649">
        <ele>1459</ele>
        <time>2018-10-17T07:06:39Z</time>
      </trkpt>
      <trkpt lat="45.83643" lon="6.42649">
        <ele>1459</ele>
        <time>2018-10-17T07:06:40Z</time>
      </trkpt>
      <trkpt lat="45.83642" lon="6.42652">
        <ele>1460</ele>
        <time>2018-10-17T07:06:41Z</time>
      </trkpt>
      <trkpt lat="45.83642" lon="6.42652">
        <ele>1460</ele>
        <time>2018-10-17T07:06:42Z</time>
      </trkpt>
      <trkpt lat="45.83642" lon="6.42652">
        <ele>1460</ele>
        <time>2018-10-17T07:06:43Z</time>
      </trkpt>
      <trkpt lat="45.83642" lon="6.42655">
        <ele>1460</ele>
        <time>2018-10-17T07:06:44Z</time>
      </trkpt>
      <trkpt lat="45.83642" lon="6.42655">
        <ele>1461</ele>
        <time>2018-10-17T07:06:45Z</time>
      </trkpt>
      <trkpt lat="45.83642" lon="6.42658">
        <ele>1461</ele>
        <time>2018-10-17T07:06:46Z</time>
      </trkpt>
      <trkpt lat="45.83642" lon="6.42658">
        <ele>1462</ele>
        <time>2018-10-17T07:06:47Z</time>
      </trkpt>
      <trkpt lat="45.83642" lon="6.42658">
        <ele>1462</ele>
        <time>2018-10-17T07:06:48Z</time>
      </trkpt>
      <trkpt lat="45.83642" lon="6.42662">
        <ele>1462</ele>
        <time>2018-10-17T07:06:49Z</time>
      </trkpt>
      <trkpt lat="45.83642" lon="6.42662">
        <ele>1462</ele>
        <time>2018-10-17T07:06:50Z</time>
      </trkpt>
      <trkpt lat="45.83643" lon="6.42664">
        <ele>1463</ele>
        <time>2018-10-17T07:06:51Z</time>
      </trkpt>
      <trkpt lat="45.83643" lon="6.42664">
        <ele>1463</ele>
        <time>2018-10-17T07:06:52Z</time>
      </trkpt>
      <trkpt lat="45.83644" lon="6.42667">
        <ele>1463</ele>
        <time>2018-10-17T07:06:53Z</time>
      </trkpt>
      <trkpt lat="45.83644" lon="6.42667">
        <ele>1464</ele>
        <time>2018-10-17T07:06:54Z</time>
      </trkpt>
      <trkpt lat="45.83644" lon="6.4267">
        <ele>1464</ele>
        <time>2018-10-17T07:06:55Z</time>
      </trkpt>
      <trkpt lat="45.83644" lon="6.4267">
        <ele>1464</ele>
        <time>2018-10-17T07:06:56Z</time>
      </trkpt>
      <trkpt lat="45.83644" lon="6.4267">
        <ele>1465</ele>
        <time>2018-10-17T07:06:57Z</time>
      </trkpt>
      <trkpt lat="45.83646" lon="6.42673">
        <ele>1465</ele>
        <time>2018-10-17T07:06:58Z</time>
      </trkpt>
      <trkpt lat="45.83646" lon="6.42673">
        <ele>1465</ele>
        <time>2018-10-17T07:06:59Z</time>
      </trkpt>
      <trkpt lat="45.83646" lon="6.42673">
        <ele>1465</ele>
        <time>2018-10-17T07:07:00Z</time>
      </trkpt>
      <trkpt lat="45.83647" lon="6.42676">
        <ele>1465</ele>
        <time>2018-10-17T07:07:01Z</time>
      </trkpt>
      <trkpt lat="45.83647" lon="6.42676">
        <ele>1466</ele>
        <time>2018-10-17T07:07:02Z</time>
      </trkpt>
      <trkpt lat="45.83647" lon="6.42676">
        <ele>1466</ele>
        <time>2018-10-17T07:07:03Z</time>
      </trkpt>
      <trkpt lat="45.83648" lon="6.42678">
        <ele>1466</ele>
        <time>2018-10-17T07:07:04Z</time>
      </trkpt>
      <trkpt lat="45.83648" lon="6.42678">
        <ele>1466</ele>
        <time>2018-10-17T07:07:05Z</time>
      </trkpt>
      <trkpt lat="45.83648" lon="6.42678">
        <ele>1467</ele>
        <time>2018-10-17T07:07:06Z</time>
      </trkpt>
      <trkpt lat="45.83648" lon="6.42678">
        <ele>1467</ele>
        <time>2018-10-17T07:07:07Z</time>
      </trkpt>
      <trkpt lat="45.83651" lon="6.4268">
        <ele>1467</ele>
        <time>2018-10-17T07:07:08Z</time>
      </trkpt>
      <trkpt lat="45.83651" lon="6.4268">
        <ele>1467</ele>
        <time>2018-10-17T07:07:09Z</time>
      </trkpt>
      <trkpt lat="45.83651" lon="6.4268">
        <ele>1467</ele>
        <time>2018-10-17T07:07:10Z</time>
      </trkpt>
      <trkpt lat="45.83651" lon="6.4268">
        <ele>1468</ele>
        <time>2018-10-17T07:07:11Z</time>
      </trkpt>
      <trkpt lat="45.83653" lon="6.42681">
        <ele>1468</ele>
        <time>2018-10-17T07:07:12Z</time>
      </trkpt>
      <trkpt lat="45.83653" lon="6.42681">
        <ele>1468</ele>
        <time>2018-10-17T07:07:13Z</time>
      </trkpt>
      <trkpt lat="45.83653" lon="6.42681">
        <ele>1469</ele>
        <time>2018-10-17T07:07:14Z</time>
      </trkpt>
      <trkpt lat="45.83653" lon="6.42681">
        <ele>1469</ele>
        <time>2018-10-17T07:07:15Z</time>
      </trkpt>
      <trkpt lat="45.83654" lon="6.42683">
        <ele>1469</ele>
        <time>2018-10-17T07:07:16Z</time>
      </trkpt>
      <trkpt lat="45.83654" lon="6.42683">
        <ele>1469</ele>
        <time>2018-10-17T07:07:17Z</time>
      </trkpt>
      <trkpt lat="45.83654" lon="6.42683">
        <ele>1469</ele>
        <time>2018-10-17T07:07:18Z</time>
      </trkpt>
      <trkpt lat="45.83654" lon="6.42683">
        <ele>1469</ele>
        <time>2018-10-17T07:07:19Z</time>
      </trkpt>
      <trkpt lat="45.83654" lon="6.42683">
        <ele>1470</ele>
        <time>2018-10-17T07:07:20Z</time>
      </trkpt>
      <trkpt lat="45.83654" lon="6.42683">
        <ele>1470</ele>
        <time>2018-10-17T07:07:21Z</time>
      </trkpt>
      <trkpt lat="45.83656" lon="6.42684">
        <ele>1471</ele>
        <time>2018-10-17T07:07:22Z</time>
      </trkpt>
      <trkpt lat="45.83656" lon="6.42684">
        <ele>1471</ele>
        <time>2018-10-17T07:07:23Z</time>
      </trkpt>
      <trkpt lat="45.83656" lon="6.42684">
        <ele>1471</ele>
        <time>2018-10-17T07:07:24Z</time>
      </trkpt>
      <trkpt lat="45.83656" lon="6.42684">
        <ele>1471</ele>
        <time>2018-10-17T07:07:25Z</time>
      </trkpt>
      <trkpt lat="45.83658" lon="6.42686">
        <ele>1471</ele>
        <time>2018-10-17T07:07:26Z</time>
      </trkpt>
      <trkpt lat="45.83658" lon="6.42686">
        <ele>1472</ele>
        <time>2018-10-17T07:07:27Z</time>
      </trkpt>
      <trkpt lat="45.83659" lon="6.42687">
        <ele>1472</ele>
        <time>2018-10-17T07:07:28Z</time>
      </trkpt>
      <trkpt lat="45.83659" lon="6.42687">
        <ele>1472</ele>
        <time>2018-10-17T07:07:29Z</time>
      </trkpt>
      <trkpt lat="45.83659" lon="6.42687">
        <ele>1472</ele>
        <time>2018-10-17T07:07:30Z</time>
      </trkpt>
      <trkpt lat="45.83662" lon="6.42689">
        <ele>1472</ele>
        <time>2018-10-17T07:07:31Z</time>
      </trkpt>
      <trkpt lat="45.83662" lon="6.42689">
        <ele>1473</ele>
        <time>2018-10-17T07:07:32Z</time>
      </trkpt>
      <trkpt lat="45.83662" lon="6.42689">
        <ele>1473</ele>
        <time>2018-10-17T07:07:33Z</time>
      </trkpt>
      <trkpt lat="45.83664" lon="6.42689">
        <ele>1473</ele>
        <time>2018-10-17T07:07:34Z</time>
      </trkpt>
      <trkpt lat="45.83664" lon="6.42689">
        <ele>1473</ele>
        <time>2018-10-17T07:07:35Z</time>
      </trkpt>
      <trkpt lat="45.83664" lon="6.42689">
        <ele>1473</ele>
        <time>2018-10-17T07:07:36Z</time>
      </trkpt>
      <trkpt lat="45.83664" lon="6.42689">
        <ele>1473</ele>
        <time>2018-10-17T07:07:37Z</time>
      </trkpt>
      <trkpt lat="45.83664" lon="6.42689">
        <ele>1474</ele>
        <time>2018-10-17T07:07:38Z</time>
      </trkpt>
      <trkpt lat="45.83666" lon="6.4269">
        <ele>1474</ele>
        <time>2018-10-17T07:07:39Z</time>
      </trkpt>
      <trkpt lat="45.83666" lon="6.4269">
        <ele>1474</ele>
        <time>2018-10-17T07:07:40Z</time>
      </trkpt>
      <trkpt lat="45.83666" lon="6.4269">
        <ele>1474</ele>
        <time>2018-10-17T07:07:41Z</time>
      </trkpt>
      <trkpt lat="45.83667" lon="6.42693">
        <ele>1475</ele>
        <time>2018-10-17T07:07:42Z</time>
      </trkpt>
      <trkpt lat="45.83667" lon="6.42693">
        <ele>1475</ele>
        <time>2018-10-17T07:07:43Z</time>
      </trkpt>
      <trkpt lat="45.83667" lon="6.42693">
        <ele>1475</ele>
        <time>2018-10-17T07:07:44Z</time>
      </trkpt>
      <trkpt lat="45.83669" lon="6.42695">
        <ele>1475</ele>
        <time>2018-10-17T07:07:45Z</time>
      </trkpt>
      <trkpt lat="45.83669" lon="6.42695">
        <ele>1475</ele>
        <time>2018-10-17T07:07:46Z</time>
      </trkpt>
      <trkpt lat="45.83669" lon="6.42695">
        <ele>1475</ele>
        <time>2018-10-17T07:07:47Z</time>
      </trkpt>
      <trkpt lat="45.83669" lon="6.42698">
        <ele>1476</ele>
        <time>2018-10-17T07:07:48Z</time>
      </trkpt>
      <trkpt lat="45.83669" lon="6.42698">
        <ele>1476</ele>
        <time>2018-10-17T07:07:49Z</time>
      </trkpt>
      <trkpt lat="45.83669" lon="6.42698">
        <ele>1477</ele>
        <time>2018-10-17T07:07:50Z</time>
      </trkpt>
      <trkpt lat="45.83669" lon="6.42701">
        <ele>1477</ele>
        <time>2018-10-17T07:07:51Z</time>
      </trkpt>
      <trkpt lat="45.83669" lon="6.42701">
        <ele>1478</ele>
        <time>2018-10-17T07:07:52Z</time>
      </trkpt>
      <trkpt lat="45.83669" lon="6.42701">
        <ele>1478</ele>
        <time>2018-10-17T07:07:53Z</time>
      </trkpt>
      <trkpt lat="45.83669" lon="6.42704">
        <ele>1478</ele>
        <time>2018-10-17T07:07:54Z</time>
      </trkpt>
      <trkpt lat="45.83669" lon="6.42704">
        <ele>1478</ele>
        <time>2018-10-17T07:07:55Z</time>
      </trkpt>
      <trkpt lat="45.83669" lon="6.42704">
        <ele>1478</ele>
        <time>2018-10-17T07:07:56Z</time>
      </trkpt>
      <trkpt lat="45.83669" lon="6.42704">
        <ele>1479</ele>
        <time>2018-10-17T07:07:57Z</time>
      </trkpt>
      <trkpt lat="45.83669" lon="6.42704">
        <ele>1479</ele>
        <time>2018-10-17T07:07:58Z</time>
      </trkpt>
      <trkpt lat="45.83669" lon="6.42706">
        <ele>1479</ele>
        <time>2018-10-17T07:07:59Z</time>
      </trkpt>
      <trkpt lat="45.83669" lon="6.42706">
        <ele>1479</ele>
        <time>2018-10-17T07:08:00Z</time>
      </trkpt>
      <trkpt lat="45.83669" lon="6.42706">
        <ele>1480</ele>
        <time>2018-10-17T07:08:01Z</time>
      </trkpt>
      <trkpt lat="45.83669" lon="6.42706">
        <ele>1480</ele>
        <time>2018-10-17T07:08:02Z</time>
      </trkpt>
      <trkpt lat="45.83669" lon="6.42706">
        <ele>1480</ele>
        <time>2018-10-17T07:08:03Z</time>
      </trkpt>
      <trkpt lat="45.83671" lon="6.42709">
        <ele>1480</ele>
        <time>2018-10-17T07:08:04Z</time>
      </trkpt>
      <trkpt lat="45.83671" lon="6.42709">
        <ele>1481</ele>
        <time>2018-10-17T07:08:05Z</time>
      </trkpt>
      <trkpt lat="45.83671" lon="6.42709">
        <ele>1481</ele>
        <time>2018-10-17T07:08:06Z</time>
      </trkpt>
      <trkpt lat="45.83671" lon="6.42712">
        <ele>1481</ele>
        <time>2018-10-17T07:08:07Z</time>
      </trkpt>
      <trkpt lat="45.83671" lon="6.42712">
        <ele>1481</ele>
        <time>2018-10-17T07:08:08Z</time>
      </trkpt>
      <trkpt lat="45.83671" lon="6.42712">
        <ele>1482</ele>
        <time>2018-10-17T07:08:09Z</time>
      </trkpt>
      <trkpt lat="45.83671" lon="6.42715">
        <ele>1482</ele>
        <time>2018-10-17T07:08:10Z</time>
      </trkpt>
      <trkpt lat="45.83671" lon="6.42715">
        <ele>1482</ele>
        <time>2018-10-17T07:08:11Z</time>
      </trkpt>
      <trkpt lat="45.83671" lon="6.42715">
        <ele>1482</ele>
        <time>2018-10-17T07:08:12Z</time>
      </trkpt>
      <trkpt lat="45.83671" lon="6.42715">
        <ele>1482</ele>
        <time>2018-10-17T07:08:13Z</time>
      </trkpt>
      <trkpt lat="45.83673" lon="6.42714">
        <ele>1482</ele>
        <time>2018-10-17T07:08:14Z</time>
      </trkpt>
      <trkpt lat="45.83673" lon="6.42714">
        <ele>1483</ele>
        <time>2018-10-17T07:08:15Z</time>
      </trkpt>
      <trkpt lat="45.83673" lon="6.42714">
        <ele>1484</ele>
        <time>2018-10-17T07:08:16Z</time>
      </trkpt>
      <trkpt lat="45.83673" lon="6.42714">
        <ele>1484</ele>
        <time>2018-10-17T07:08:17Z</time>
      </trkpt>
      <trkpt lat="45.83675" lon="6.42712">
        <ele>1484</ele>
        <time>2018-10-17T07:08:18Z</time>
      </trkpt>
      <trkpt lat="45.83675" lon="6.42712">
        <ele>1484</ele>
        <time>2018-10-17T07:08:19Z</time>
      </trkpt>
      <trkpt lat="45.83675" lon="6.42712">
        <ele>1484</ele>
        <time>2018-10-17T07:08:20Z</time>
      </trkpt>
      <trkpt lat="45.83675" lon="6.42712">
        <ele>1484</ele>
        <time>2018-10-17T07:08:21Z</time>
      </trkpt>
      <trkpt lat="45.83675" lon="6.42712">
        <ele>1485</ele>
        <time>2018-10-17T07:08:22Z</time>
      </trkpt>
      <trkpt lat="45.83675" lon="6.42712">
        <ele>1485</ele>
        <time>2018-10-17T07:08:23Z</time>
      </trkpt>
      <trkpt lat="45.83676" lon="6.4271">
        <ele>1486</ele>
        <time>2018-10-17T07:08:24Z</time>
      </trkpt>
      <trkpt lat="45.83676" lon="6.4271">
        <ele>1486</ele>
        <time>2018-10-17T07:08:25Z</time>
      </trkpt>
      <trkpt lat="45.83676" lon="6.4271">
        <ele>1486</ele>
        <time>2018-10-17T07:08:26Z</time>
      </trkpt>
      <trkpt lat="45.83676" lon="6.4271">
        <ele>1487</ele>
        <time>2018-10-17T07:08:27Z</time>
      </trkpt>
      <trkpt lat="45.83676" lon="6.4271">
        <ele>1487</ele>
        <time>2018-10-17T07:08:28Z</time>
      </trkpt>
      <trkpt lat="45.83678" lon="6.42709">
        <ele>1487</ele>
        <time>2018-10-17T07:08:29Z</time>
      </trkpt>
      <trkpt lat="45.83678" lon="6.42709">
        <ele>1487</ele>
        <time>2018-10-17T07:08:30Z</time>
      </trkpt>
      <trkpt lat="45.83678" lon="6.42709">
        <ele>1487</ele>
        <time>2018-10-17T07:08:31Z</time>
      </trkpt>
      <trkpt lat="45.8368" lon="6.42708">
        <ele>1487</ele>
        <time>2018-10-17T07:08:32Z</time>
      </trkpt>
      <trkpt lat="45.8368" lon="6.42708">
        <ele>1487</ele>
        <time>2018-10-17T07:08:33Z</time>
      </trkpt>
      <trkpt lat="45.8368" lon="6.42708">
        <ele>1488</ele>
        <time>2018-10-17T07:08:34Z</time>
      </trkpt>
      <trkpt lat="45.83683" lon="6.4271">
        <ele>1488</ele>
        <time>2018-10-17T07:08:35Z</time>
      </trkpt>
      <trkpt lat="45.83683" lon="6.4271">
        <ele>1488</ele>
        <time>2018-10-17T07:08:36Z</time>
      </trkpt>
      <trkpt lat="45.83684" lon="6.42711">
        <ele>1489</ele>
        <time>2018-10-17T07:08:37Z</time>
      </trkpt>
      <trkpt lat="45.83684" lon="6.42711">
        <ele>1489</ele>
        <time>2018-10-17T07:08:38Z</time>
      </trkpt>
      <trkpt lat="45.83684" lon="6.42711">
        <ele>1489</ele>
        <time>2018-10-17T07:08:39Z</time>
      </trkpt>
      <trkpt lat="45.83684" lon="6.42711">
        <ele>1489</ele>
        <time>2018-10-17T07:08:40Z</time>
      </trkpt>
      <trkpt lat="45.83685" lon="6.42714">
        <ele>1490</ele>
        <time>2018-10-17T07:08:41Z</time>
      </trkpt>
      <trkpt lat="45.83685" lon="6.42714">
        <ele>1490</ele>
        <time>2018-10-17T07:08:42Z</time>
      </trkpt>
      <trkpt lat="45.83685" lon="6.42717">
        <ele>1490</ele>
        <time>2018-10-17T07:08:43Z</time>
      </trkpt>
      <trkpt lat="45.83685" lon="6.42717">
        <ele>1491</ele>
        <time>2018-10-17T07:08:44Z</time>
      </trkpt>
      <trkpt lat="45.83685" lon="6.42717">
        <ele>1491</ele>
        <time>2018-10-17T07:08:45Z</time>
      </trkpt>
      <trkpt lat="45.83685" lon="6.4272">
        <ele>1491</ele>
        <time>2018-10-17T07:08:46Z</time>
      </trkpt>
      <trkpt lat="45.83685" lon="6.4272">
        <ele>1492</ele>
        <time>2018-10-17T07:08:47Z</time>
      </trkpt>
      <trkpt lat="45.83685" lon="6.4272">
        <ele>1492</ele>
        <time>2018-10-17T07:08:48Z</time>
      </trkpt>
      <trkpt lat="45.83686" lon="6.42723">
        <ele>1492</ele>
        <time>2018-10-17T07:08:49Z</time>
      </trkpt>
      <trkpt lat="45.83686" lon="6.42723">
        <ele>1492</ele>
        <time>2018-10-17T07:08:50Z</time>
      </trkpt>
      <trkpt lat="45.83687" lon="6.42725">
        <ele>1492</ele>
        <time>2018-10-17T07:08:51Z</time>
      </trkpt>
      <trkpt lat="45.83687" lon="6.42725">
        <ele>1492</ele>
        <time>2018-10-17T07:08:52Z</time>
      </trkpt>
      <trkpt lat="45.83687" lon="6.42725">
        <ele>1492</ele>
        <time>2018-10-17T07:08:53Z</time>
      </trkpt>
      <trkpt lat="45.83688" lon="6.42729">
        <ele>1492</ele>
        <time>2018-10-17T07:08:54Z</time>
      </trkpt>
      <trkpt lat="45.83688" lon="6.42729">
        <ele>1493</ele>
        <time>2018-10-17T07:08:55Z</time>
      </trkpt>
      <trkpt lat="45.83688" lon="6.42729">
        <ele>1493</ele>
        <time>2018-10-17T07:08:56Z</time>
      </trkpt>
      <trkpt lat="45.83689" lon="6.42731">
        <ele>1494</ele>
        <time>2018-10-17T07:08:57Z</time>
      </trkpt>
      <trkpt lat="45.83689" lon="6.42731">
        <ele>1494</ele>
        <time>2018-10-17T07:08:58Z</time>
      </trkpt>
      <trkpt lat="45.83689" lon="6.42731">
        <ele>1494</ele>
        <time>2018-10-17T07:08:59Z</time>
      </trkpt>
      <trkpt lat="45.8369" lon="6.42734">
        <ele>1494</ele>
        <time>2018-10-17T07:09:00Z</time>
      </trkpt>
      <trkpt lat="45.8369" lon="6.42734">
        <ele>1494</ele>
        <time>2018-10-17T07:09:01Z</time>
      </trkpt>
      <trkpt lat="45.8369" lon="6.42734">
        <ele>1494</ele>
        <time>2018-10-17T07:09:02Z</time>
      </trkpt>
      <trkpt lat="45.83691" lon="6.42737">
        <ele>1495</ele>
        <time>2018-10-17T07:09:03Z</time>
      </trkpt>
      <trkpt lat="45.83691" lon="6.42737">
        <ele>1495</ele>
        <time>2018-10-17T07:09:04Z</time>
      </trkpt>
      <trkpt lat="45.83691" lon="6.42737">
        <ele>1496</ele>
        <time>2018-10-17T07:09:05Z</time>
      </trkpt>
      <trkpt lat="45.83691" lon="6.42737">
        <ele>1496</ele>
        <time>2018-10-17T07:09:06Z</time>
      </trkpt>
      <trkpt lat="45.83691" lon="6.42737">
        <ele>1496</ele>
        <time>2018-10-17T07:09:07Z</time>
      </trkpt>
      <trkpt lat="45.83691" lon="6.42737">
        <ele>1497</ele>
        <time>2018-10-17T07:09:08Z</time>
      </trkpt>
      <trkpt lat="45.83691" lon="6.42737">
        <ele>1497</ele>
        <time>2018-10-17T07:09:09Z</time>
      </trkpt>
      <trkpt lat="45.83691" lon="6.42737">
        <ele>1497</ele>
        <time>2018-10-17T07:09:10Z</time>
      </trkpt>
      <trkpt lat="45.83691" lon="6.42737">
        <ele>1497</ele>
        <time>2018-10-17T07:09:11Z</time>
      </trkpt>
      <trkpt lat="45.83692" lon="6.42735">
        <ele>1497</ele>
        <time>2018-10-17T07:09:12Z</time>
      </trkpt>
      <trkpt lat="45.83692" lon="6.42735">
        <ele>1497</ele>
        <time>2018-10-17T07:09:13Z</time>
      </trkpt>
      <trkpt lat="45.83692" lon="6.42735">
        <ele>1497</ele>
        <time>2018-10-17T07:09:14Z</time>
      </trkpt>
      <trkpt lat="45.83694" lon="6.42734">
        <ele>1497</ele>
        <time>2018-10-17T07:09:15Z</time>
      </trkpt>
      <trkpt lat="45.83694" lon="6.42734">
        <ele>1498</ele>
        <time>2018-10-17T07:09:16Z</time>
      </trkpt>
      <trkpt lat="45.83694" lon="6.42734">
        <ele>1498</ele>
        <time>2018-10-17T07:09:17Z</time>
      </trkpt>
      <trkpt lat="45.83696" lon="6.42732">
        <ele>1498</ele>
        <time>2018-10-17T07:09:18Z</time>
      </trkpt>
      <trkpt lat="45.83696" lon="6.42732">
        <ele>1498</ele>
        <time>2018-10-17T07:09:19Z</time>
      </trkpt>
      <trkpt lat="45.83696" lon="6.42732">
        <ele>1499</ele>
        <time>2018-10-17T07:09:20Z</time>
      </trkpt>
      <trkpt lat="45.83697" lon="6.4273">
        <ele>1499</ele>
        <time>2018-10-17T07:09:21Z</time>
      </trkpt>
      <trkpt lat="45.83697" lon="6.4273">
        <ele>1500</ele>
        <time>2018-10-17T07:09:22Z</time>
      </trkpt>
      <trkpt lat="45.83697" lon="6.4273">
        <ele>1501</ele>
        <time>2018-10-17T07:09:23Z</time>
      </trkpt>
      <trkpt lat="45.83697" lon="6.4273">
        <ele>1501</ele>
        <time>2018-10-17T07:09:24Z</time>
      </trkpt>
      <trkpt lat="45.83699" lon="6.42728">
        <ele>1501</ele>
        <time>2018-10-17T07:09:25Z</time>
      </trkpt>
      <trkpt lat="45.83699" lon="6.42728">
        <ele>1501</ele>
        <time>2018-10-17T07:09:26Z</time>
      </trkpt>
      <trkpt lat="45.83699" lon="6.42728">
        <ele>1501</ele>
        <time>2018-10-17T07:09:27Z</time>
      </trkpt>
      <trkpt lat="45.83701" lon="6.42726">
        <ele>1501</ele>
        <time>2018-10-17T07:09:28Z</time>
      </trkpt>
      <trkpt lat="45.83701" lon="6.42726">
        <ele>1502</ele>
        <time>2018-10-17T07:09:29Z</time>
      </trkpt>
      <trkpt lat="45.83701" lon="6.42726">
        <ele>1502</ele>
        <time>2018-10-17T07:09:30Z</time>
      </trkpt>
      <trkpt lat="45.83703" lon="6.42723">
        <ele>1502</ele>
        <time>2018-10-17T07:09:31Z</time>
      </trkpt>
      <trkpt lat="45.83703" lon="6.42723">
        <ele>1502</ele>
        <time>2018-10-17T07:09:32Z</time>
      </trkpt>
      <trkpt lat="45.83703" lon="6.42723">
        <ele>1502</ele>
        <time>2018-10-17T07:09:33Z</time>
      </trkpt>
      <trkpt lat="45.83703" lon="6.42723">
        <ele>1503</ele>
        <time>2018-10-17T07:09:34Z</time>
      </trkpt>
      <trkpt lat="45.83706" lon="6.4272">
        <ele>1503</ele>
        <time>2018-10-17T07:09:35Z</time>
      </trkpt>
      <trkpt lat="45.83706" lon="6.4272">
        <ele>1503</ele>
        <time>2018-10-17T07:09:36Z</time>
      </trkpt>
      <trkpt lat="45.83707" lon="6.42718">
        <ele>1504</ele>
        <time>2018-10-17T07:09:37Z</time>
      </trkpt>
      <trkpt lat="45.83707" lon="6.42718">
        <ele>1504</ele>
        <time>2018-10-17T07:09:38Z</time>
      </trkpt>
      <trkpt lat="45.83709" lon="6.42717">
        <ele>1504</ele>
        <time>2018-10-17T07:09:39Z</time>
      </trkpt>
      <trkpt lat="45.83709" lon="6.42717">
        <ele>1505</ele>
        <time>2018-10-17T07:09:40Z</time>
      </trkpt>
      <trkpt lat="45.83709" lon="6.42717">
        <ele>1505</ele>
        <time>2018-10-17T07:09:41Z</time>
      </trkpt>
      <trkpt lat="45.83711" lon="6.42715">
        <ele>1505</ele>
        <time>2018-10-17T07:09:42Z</time>
      </trkpt>
      <trkpt lat="45.83711" lon="6.42715">
        <ele>1505</ele>
        <time>2018-10-17T07:09:43Z</time>
      </trkpt>
      <trkpt lat="45.83711" lon="6.42715">
        <ele>1505</ele>
        <time>2018-10-17T07:09:44Z</time>
      </trkpt>
      <trkpt lat="45.83713" lon="6.42714">
        <ele>1506</ele>
        <time>2018-10-17T07:09:45Z</time>
      </trkpt>
      <trkpt lat="45.83713" lon="6.42714">
        <ele>1507</ele>
        <time>2018-10-17T07:09:46Z</time>
      </trkpt>
      <trkpt lat="45.83713" lon="6.42714">
        <ele>1507</ele>
        <time>2018-10-17T07:09:47Z</time>
      </trkpt>
      <trkpt lat="45.83715" lon="6.42713">
        <ele>1507</ele>
        <time>2018-10-17T07:09:48Z</time>
      </trkpt>
      <trkpt lat="45.83715" lon="6.42713">
        <ele>1507</ele>
        <time>2018-10-17T07:09:49Z</time>
      </trkpt>
      <trkpt lat="45.83717" lon="6.42713">
        <ele>1508</ele>
        <time>2018-10-17T07:09:50Z</time>
      </trkpt>
      <trkpt lat="45.83717" lon="6.42713">
        <ele>1508</ele>
        <time>2018-10-17T07:09:51Z</time>
      </trkpt>
      <trkpt lat="45.83717" lon="6.42713">
        <ele>1508</ele>
        <time>2018-10-17T07:09:52Z</time>
      </trkpt>
      <trkpt lat="45.83719" lon="6.42712">
        <ele>1508</ele>
        <time>2018-10-17T07:09:53Z</time>
      </trkpt>
      <trkpt lat="45.83719" lon="6.42712">
        <ele>1508</ele>
        <time>2018-10-17T07:09:54Z</time>
      </trkpt>
      <trkpt lat="45.83721" lon="6.42712">
        <ele>1508</ele>
        <time>2018-10-17T07:09:55Z</time>
      </trkpt>
      <trkpt lat="45.83721" lon="6.42712">
        <ele>1508</ele>
        <time>2018-10-17T07:09:56Z</time>
      </trkpt>
      <trkpt lat="45.83721" lon="6.42712">
        <ele>1509</ele>
        <time>2018-10-17T07:09:57Z</time>
      </trkpt>
      <trkpt lat="45.83721" lon="6.42712">
        <ele>1509</ele>
        <time>2018-10-17T07:09:58Z</time>
      </trkpt>
      <trkpt lat="45.83721" lon="6.42712">
        <ele>1509</ele>
        <time>2018-10-17T07:09:59Z</time>
      </trkpt>
      <trkpt lat="45.83723" lon="6.4271">
        <ele>1510</ele>
        <time>2018-10-17T07:10:00Z</time>
      </trkpt>
      <trkpt lat="45.83723" lon="6.4271">
        <ele>1510</ele>
        <time>2018-10-17T07:10:01Z</time>
      </trkpt>
      <trkpt lat="45.83723" lon="6.4271">
        <ele>1511</ele>
        <time>2018-10-17T07:10:02Z</time>
      </trkpt>
      <trkpt lat="45.83725" lon="6.42708">
        <ele>1511</ele>
        <time>2018-10-17T07:10:03Z</time>
      </trkpt>
      <trkpt lat="45.83725" lon="6.42708">
        <ele>1511</ele>
        <time>2018-10-17T07:10:04Z</time>
      </trkpt>
      <trkpt lat="45.83725" lon="6.42708">
        <ele>1512</ele>
        <time>2018-10-17T07:10:05Z</time>
      </trkpt>
      <trkpt lat="45.83725" lon="6.42708">
        <ele>1512</ele>
        <time>2018-10-17T07:10:06Z</time>
      </trkpt>
      <trkpt lat="45.83725" lon="6.42708">
        <ele>1512</ele>
        <time>2018-10-17T07:10:07Z</time>
      </trkpt>
      <trkpt lat="45.83725" lon="6.42708">
        <ele>1512</ele>
        <time>2018-10-17T07:10:08Z</time>
      </trkpt>
      <trkpt lat="45.83728" lon="6.42706">
        <ele>1512</ele>
        <time>2018-10-17T07:10:09Z</time>
      </trkpt>
      <trkpt lat="45.83728" lon="6.42706">
        <ele>1512</ele>
        <time>2018-10-17T07:10:10Z</time>
      </trkpt>
      <trkpt lat="45.83731" lon="6.42706">
        <ele>1513</ele>
        <time>2018-10-17T07:10:11Z</time>
      </trkpt>
      <trkpt lat="45.83731" lon="6.42706">
        <ele>1513</ele>
        <time>2018-10-17T07:10:12Z</time>
      </trkpt>
      <trkpt lat="45.83731" lon="6.42706">
        <ele>1513</ele>
        <time>2018-10-17T07:10:13Z</time>
      </trkpt>
      <trkpt lat="45.83733" lon="6.42705">
        <ele>1513</ele>
        <time>2018-10-17T07:10:14Z</time>
      </trkpt>
      <trkpt lat="45.83733" lon="6.42705">
        <ele>1513</ele>
        <time>2018-10-17T07:10:15Z</time>
      </trkpt>
      <trkpt lat="45.83733" lon="6.42705">
        <ele>1513</ele>
        <time>2018-10-17T07:10:16Z</time>
      </trkpt>
      <trkpt lat="45.83733" lon="6.42705">
        <ele>1513</ele>
        <time>2018-10-17T07:10:17Z</time>
      </trkpt>
      <trkpt lat="45.83735" lon="6.42703">
        <ele>1513</ele>
        <time>2018-10-17T07:10:18Z</time>
      </trkpt>
      <trkpt lat="45.83735" lon="6.42703">
        <ele>1514</ele>
        <time>2018-10-17T07:10:19Z</time>
      </trkpt>
      <trkpt lat="45.83735" lon="6.42703">
        <ele>1514</ele>
        <time>2018-10-17T07:10:20Z</time>
      </trkpt>
      <trkpt lat="45.83735" lon="6.42703">
        <ele>1514</ele>
        <time>2018-10-17T07:10:21Z</time>
      </trkpt>
      <trkpt lat="45.83736" lon="6.42701">
        <ele>1514</ele>
        <time>2018-10-17T07:10:22Z</time>
      </trkpt>
      <trkpt lat="45.83736" lon="6.42701">
        <ele>1515</ele>
        <time>2018-10-17T07:10:23Z</time>
      </trkpt>
      <trkpt lat="45.83736" lon="6.42701">
        <ele>1516</ele>
        <time>2018-10-17T07:10:24Z</time>
      </trkpt>
      <trkpt lat="45.83738" lon="6.42699">
        <ele>1516</ele>
        <time>2018-10-17T07:10:25Z</time>
      </trkpt>
      <trkpt lat="45.83738" lon="6.42699">
        <ele>1516</ele>
        <time>2018-10-17T07:10:26Z</time>
      </trkpt>
      <trkpt lat="45.83738" lon="6.42699">
        <ele>1516</ele>
        <time>2018-10-17T07:10:27Z</time>
      </trkpt>
      <trkpt lat="45.83741" lon="6.42699">
        <ele>1517</ele>
        <time>2018-10-17T07:10:28Z</time>
      </trkpt>
      <trkpt lat="45.83741" lon="6.42699">
        <ele>1517</ele>
        <time>2018-10-17T07:10:29Z</time>
      </trkpt>
      <trkpt lat="45.83741" lon="6.42699">
        <ele>1518</ele>
        <time>2018-10-17T07:10:30Z</time>
      </trkpt>
      <trkpt lat="45.83743" lon="6.42697">
        <ele>1518</ele>
        <time>2018-10-17T07:10:31Z</time>
      </trkpt>
      <trkpt lat="45.83743" lon="6.42697">
        <ele>1518</ele>
        <time>2018-10-17T07:10:32Z</time>
      </trkpt>
      <trkpt lat="45.83743" lon="6.42697">
        <ele>1518</ele>
        <time>2018-10-17T07:10:33Z</time>
      </trkpt>
      <trkpt lat="45.83745" lon="6.42696">
        <ele>1518</ele>
        <time>2018-10-17T07:10:34Z</time>
      </trkpt>
      <trkpt lat="45.83745" lon="6.42696">
        <ele>1518</ele>
        <time>2018-10-17T07:10:35Z</time>
      </trkpt>
      <trkpt lat="45.83745" lon="6.42696">
        <ele>1519</ele>
        <time>2018-10-17T07:10:36Z</time>
      </trkpt>
      <trkpt lat="45.83747" lon="6.42694">
        <ele>1519</ele>
        <time>2018-10-17T07:10:37Z</time>
      </trkpt>
      <trkpt lat="45.83747" lon="6.42694">
        <ele>1519</ele>
        <time>2018-10-17T07:10:38Z</time>
      </trkpt>
      <trkpt lat="45.83749" lon="6.42693">
        <ele>1519</ele>
        <time>2018-10-17T07:10:39Z</time>
      </trkpt>
      <trkpt lat="45.83749" lon="6.42693">
        <ele>1519</ele>
        <time>2018-10-17T07:10:40Z</time>
      </trkpt>
      <trkpt lat="45.83751" lon="6.42691">
        <ele>1519</ele>
        <time>2018-10-17T07:10:41Z</time>
      </trkpt>
      <trkpt lat="45.83751" lon="6.42691">
        <ele>1519</ele>
        <time>2018-10-17T07:10:42Z</time>
      </trkpt>
      <trkpt lat="45.83753" lon="6.4269">
        <ele>1519</ele>
        <time>2018-10-17T07:10:43Z</time>
      </trkpt>
      <trkpt lat="45.83753" lon="6.4269">
        <ele>1520</ele>
        <time>2018-10-17T07:10:44Z</time>
      </trkpt>
      <trkpt lat="45.83755" lon="6.4269">
        <ele>1520</ele>
        <time>2018-10-17T07:10:45Z</time>
      </trkpt>
      <trkpt lat="45.83755" lon="6.4269">
        <ele>1520</ele>
        <time>2018-10-17T07:10:46Z</time>
      </trkpt>
      <trkpt lat="45.83757" lon="6.4269">
        <ele>1520</ele>
        <time>2018-10-17T07:10:47Z</time>
      </trkpt>
      <trkpt lat="45.83757" lon="6.4269">
        <ele>1520</ele>
        <time>2018-10-17T07:10:48Z</time>
      </trkpt>
      <trkpt lat="45.83759" lon="6.4269">
        <ele>1521</ele>
        <time>2018-10-17T07:10:49Z</time>
      </trkpt>
      <trkpt lat="45.83759" lon="6.4269">
        <ele>1521</ele>
        <time>2018-10-17T07:10:50Z</time>
      </trkpt>
      <trkpt lat="45.8376" lon="6.42693">
        <ele>1521</ele>
        <time>2018-10-17T07:10:51Z</time>
      </trkpt>
      <trkpt lat="45.8376" lon="6.42693">
        <ele>1522</ele>
        <time>2018-10-17T07:10:52Z</time>
      </trkpt>
      <trkpt lat="45.8376" lon="6.42693">
        <ele>1522</ele>
        <time>2018-10-17T07:10:53Z</time>
      </trkpt>
      <trkpt lat="45.8376" lon="6.42697">
        <ele>1522</ele>
        <time>2018-10-17T07:10:54Z</time>
      </trkpt>
      <trkpt lat="45.8376" lon="6.42697">
        <ele>1523</ele>
        <time>2018-10-17T07:10:55Z</time>
      </trkpt>
      <trkpt lat="45.8376" lon="6.42697">
        <ele>1523</ele>
        <time>2018-10-17T07:10:56Z</time>
      </trkpt>
      <trkpt lat="45.8376" lon="6.42697">
        <ele>1523</ele>
        <time>2018-10-17T07:10:57Z</time>
      </trkpt>
      <trkpt lat="45.83762" lon="6.42699">
        <ele>1523</ele>
        <time>2018-10-17T07:10:58Z</time>
      </trkpt>
      <trkpt lat="45.83762" lon="6.42699">
        <ele>1523</ele>
        <time>2018-10-17T07:10:59Z</time>
      </trkpt>
      <trkpt lat="45.83762" lon="6.42699">
        <ele>1523</ele>
        <time>2018-10-17T07:11:00Z</time>
      </trkpt>
      <trkpt lat="45.83763" lon="6.42701">
        <ele>1524</ele>
        <time>2018-10-17T07:11:01Z</time>
      </trkpt>
      <trkpt lat="45.83763" lon="6.42701">
        <ele>1524</ele>
        <time>2018-10-17T07:11:02Z</time>
      </trkpt>
      <trkpt lat="45.83763" lon="6.42701">
        <ele>1524</ele>
        <time>2018-10-17T07:11:03Z</time>
      </trkpt>
      <trkpt lat="45.83763" lon="6.42701">
        <ele>1524</ele>
        <time>2018-10-17T07:11:04Z</time>
      </trkpt>
      <trkpt lat="45.83763" lon="6.42701">
        <ele>1524</ele>
        <time>2018-10-17T07:11:05Z</time>
      </trkpt>
      <trkpt lat="45.83764" lon="6.42703">
        <ele>1525</ele>
        <time>2018-10-17T07:11:06Z</time>
      </trkpt>
      <trkpt lat="45.83764" lon="6.42703">
        <ele>1525</ele>
        <time>2018-10-17T07:11:07Z</time>
      </trkpt>
      <trkpt lat="45.83764" lon="6.42703">
        <ele>1525</ele>
        <time>2018-10-17T07:11:08Z</time>
      </trkpt>
      <trkpt lat="45.83764" lon="6.42707">
        <ele>1526</ele>
        <time>2018-10-17T07:11:09Z</time>
      </trkpt>
      <trkpt lat="45.83764" lon="6.42707">
        <ele>1526</ele>
        <time>2018-10-17T07:11:10Z</time>
      </trkpt>
      <trkpt lat="45.83764" lon="6.42707">
        <ele>1525</ele>
        <time>2018-10-17T07:11:11Z</time>
      </trkpt>
      <trkpt lat="45.83762" lon="6.42709">
        <ele>1526</ele>
        <time>2018-10-17T07:11:12Z</time>
      </trkpt>
      <trkpt lat="45.83762" lon="6.42709">
        <ele>1527</ele>
        <time>2018-10-17T07:11:13Z</time>
      </trkpt>
      <trkpt lat="45.83762" lon="6.42709">
        <ele>1527</ele>
        <time>2018-10-17T07:11:14Z</time>
      </trkpt>
      <trkpt lat="45.83761" lon="6.42711">
        <ele>1527</ele>
        <time>2018-10-17T07:11:15Z</time>
      </trkpt>
      <trkpt lat="45.83761" lon="6.42711">
        <ele>1527</ele>
        <time>2018-10-17T07:11:16Z</time>
      </trkpt>
      <trkpt lat="45.83761" lon="6.42711">
        <ele>1527</ele>
        <time>2018-10-17T07:11:17Z</time>
      </trkpt>
      <trkpt lat="45.8376" lon="6.42714">
        <ele>1527</ele>
        <time>2018-10-17T07:11:18Z</time>
      </trkpt>
      <trkpt lat="45.8376" lon="6.42714">
        <ele>1527</ele>
        <time>2018-10-17T07:11:19Z</time>
      </trkpt>
      <trkpt lat="45.8376" lon="6.42714">
        <ele>1528</ele>
        <time>2018-10-17T07:11:20Z</time>
      </trkpt>
      <trkpt lat="45.8376" lon="6.42714">
        <ele>1528</ele>
        <time>2018-10-17T07:11:21Z</time>
      </trkpt>
      <trkpt lat="45.8376" lon="6.42714">
        <ele>1528</ele>
        <time>2018-10-17T07:11:22Z</time>
      </trkpt>
      <trkpt lat="45.8376" lon="6.42714">
        <ele>1528</ele>
        <time>2018-10-17T07:11:23Z</time>
      </trkpt>
      <trkpt lat="45.8376" lon="6.42714">
        <ele>1528</ele>
        <time>2018-10-17T07:11:24Z</time>
      </trkpt>
      <trkpt lat="45.8376" lon="6.42714">
        <ele>1528</ele>
        <time>2018-10-17T07:11:25Z</time>
      </trkpt>
      <trkpt lat="45.8376" lon="6.42714">
        <ele>1528</ele>
        <time>2018-10-17T07:11:26Z</time>
      </trkpt>
      <trkpt lat="45.8376" lon="6.42714">
        <ele>1528</ele>
        <time>2018-10-17T07:11:27Z</time>
      </trkpt>
      <trkpt lat="45.8376" lon="6.42714">
        <ele>1528</ele>
        <time>2018-10-17T07:11:28Z</time>
      </trkpt>
      <trkpt lat="45.8376" lon="6.42714">
        <ele>1528</ele>
        <time>2018-10-17T07:11:29Z</time>
      </trkpt>
      <trkpt lat="45.8376" lon="6.42714">
        <ele>1528</ele>
        <time>2018-10-17T07:11:30Z</time>
      </trkpt>
      <trkpt lat="45.8376" lon="6.42714">
        <ele>1528</ele>
        <time>2018-10-17T07:11:31Z</time>
      </trkpt>
      <trkpt lat="45.8376" lon="6.42714">
        <ele>1528</ele>
        <time>2018-10-17T07:11:32Z</time>
      </trkpt>
      <trkpt lat="45.8376" lon="6.42714">
        <ele>1528</ele>
        <time>2018-10-17T07:11:33Z</time>
      </trkpt>
      <trkpt lat="45.8376" lon="6.42714">
        <ele>1528</ele>
        <time>2018-10-17T07:11:34Z</time>
      </trkpt>
      <trkpt lat="45.8376" lon="6.42714">
        <ele>1528</ele>
        <time>2018-10-17T07:11:35Z</time>
      </trkpt>
      <trkpt lat="45.8376" lon="6.42714">
        <ele>1528</ele>
        <time>2018-10-17T07:11:36Z</time>
      </trkpt>
      <trkpt lat="45.8376" lon="6.42714">
        <ele>1528</ele>
        <time>2018-10-17T07:11:37Z</time>
      </trkpt>
      <trkpt lat="45.8376" lon="6.42716">
        <ele>1528</ele>
        <time>2018-10-17T07:11:38Z</time>
      </trkpt>
      <trkpt lat="45.8376" lon="6.42716">
        <ele>1528</ele>
        <time>2018-10-17T07:11:39Z</time>
      </trkpt>
      <trkpt lat="45.8376" lon="6.42716">
        <ele>1528</ele>
        <time>2018-10-17T07:11:40Z</time>
      </trkpt>
      <trkpt lat="45.83758" lon="6.4272">
        <ele>1528</ele>
        <time>2018-10-17T07:11:41Z</time>
      </trkpt>
      <trkpt lat="45.83758" lon="6.4272">
        <ele>1528</ele>
        <time>2018-10-17T07:11:42Z</time>
      </trkpt>
      <trkpt lat="45.83757" lon="6.42722">
        <ele>1528</ele>
        <time>2018-10-17T07:11:43Z</time>
      </trkpt>
      <trkpt lat="45.83757" lon="6.42722">
        <ele>1528</ele>
        <time>2018-10-17T07:11:44Z</time>
      </trkpt>
      <trkpt lat="45.83756" lon="6.42725">
        <ele>1528</ele>
        <time>2018-10-17T07:11:45Z</time>
      </trkpt>
      <trkpt lat="45.83756" lon="6.42725">
        <ele>1529</ele>
        <time>2018-10-17T07:11:46Z</time>
      </trkpt>
      <trkpt lat="45.83755" lon="6.42728">
        <ele>1529</ele>
        <time>2018-10-17T07:11:47Z</time>
      </trkpt>
      <trkpt lat="45.83755" lon="6.42728">
        <ele>1529</ele>
        <time>2018-10-17T07:11:48Z</time>
      </trkpt>
      <trkpt lat="45.83755" lon="6.42728">
        <ele>1529</ele>
        <time>2018-10-17T07:11:49Z</time>
      </trkpt>
      <trkpt lat="45.83755" lon="6.42728">
        <ele>1529</ele>
        <time>2018-10-17T07:11:50Z</time>
      </trkpt>
      <trkpt lat="45.83758" lon="6.42728">
        <ele>1530</ele>
        <time>2018-10-17T07:11:51Z</time>
      </trkpt>
      <trkpt lat="45.83758" lon="6.42728">
        <ele>1530</ele>
        <time>2018-10-17T07:11:52Z</time>
      </trkpt>
      <trkpt lat="45.83758" lon="6.42728">
        <ele>1531</ele>
        <time>2018-10-17T07:11:53Z</time>
      </trkpt>
      <trkpt lat="45.8376" lon="6.42726">
        <ele>1531</ele>
        <time>2018-10-17T07:11:54Z</time>
      </trkpt>
      <trkpt lat="45.8376" lon="6.42726">
        <ele>1531</ele>
        <time>2018-10-17T07:11:55Z</time>
      </trkpt>
      <trkpt lat="45.8376" lon="6.42726">
        <ele>1532</ele>
        <time>2018-10-17T07:11:56Z</time>
      </trkpt>
      <trkpt lat="45.83763" lon="6.42726">
        <ele>1532</ele>
        <time>2018-10-17T07:11:57Z</time>
      </trkpt>
      <trkpt lat="45.83763" lon="6.42726">
        <ele>1532</ele>
        <time>2018-10-17T07:11:58Z</time>
      </trkpt>
      <trkpt lat="45.83763" lon="6.42726">
        <ele>1533</ele>
        <time>2018-10-17T07:11:59Z</time>
      </trkpt>
      <trkpt lat="45.83764" lon="6.42726">
        <ele>1533</ele>
        <time>2018-10-17T07:12:00Z</time>
      </trkpt>
      <trkpt lat="45.83764" lon="6.42726">
        <ele>1533</ele>
        <time>2018-10-17T07:12:01Z</time>
      </trkpt>
      <trkpt lat="45.83764" lon="6.42726">
        <ele>1533</ele>
        <time>2018-10-17T07:12:02Z</time>
      </trkpt>
      <trkpt lat="45.83766" lon="6.42727">
        <ele>1533</ele>
        <time>2018-10-17T07:12:03Z</time>
      </trkpt>
      <trkpt lat="45.83766" lon="6.42727">
        <ele>1533</ele>
        <time>2018-10-17T07:12:04Z</time>
      </trkpt>
      <trkpt lat="45.83766" lon="6.42727">
        <ele>1533</ele>
        <time>2018-10-17T07:12:05Z</time>
      </trkpt>
      <trkpt lat="45.83767" lon="6.42731">
        <ele>1534</ele>
        <time>2018-10-17T07:12:06Z</time>
      </trkpt>
      <trkpt lat="45.83767" lon="6.42731">
        <ele>1534</ele>
        <time>2018-10-17T07:12:07Z</time>
      </trkpt>
      <trkpt lat="45.83767" lon="6.42731">
        <ele>1534</ele>
        <time>2018-10-17T07:12:08Z</time>
      </trkpt>
      <trkpt lat="45.83766" lon="6.42733">
        <ele>1534</ele>
        <time>2018-10-17T07:12:09Z</time>
      </trkpt>
      <trkpt lat="45.83766" lon="6.42733">
        <ele>1535</ele>
        <time>2018-10-17T07:12:10Z</time>
      </trkpt>
      <trkpt lat="45.83766" lon="6.42733">
        <ele>1535</ele>
        <time>2018-10-17T07:12:11Z</time>
      </trkpt>
      <trkpt lat="45.83764" lon="6.42735">
        <ele>1535</ele>
        <time>2018-10-17T07:12:12Z</time>
      </trkpt>
      <trkpt lat="45.83764" lon="6.42735">
        <ele>1535</ele>
        <time>2018-10-17T07:12:13Z</time>
      </trkpt>
      <trkpt lat="45.83762" lon="6.42737">
        <ele>1535</ele>
        <time>2018-10-17T07:12:14Z</time>
      </trkpt>
      <trkpt lat="45.83762" lon="6.42737">
        <ele>1536</ele>
        <time>2018-10-17T07:12:15Z</time>
      </trkpt>
      <trkpt lat="45.83762" lon="6.42737">
        <ele>1536</ele>
        <time>2018-10-17T07:12:16Z</time>
      </trkpt>
      <trkpt lat="45.83761" lon="6.42739">
        <ele>1537</ele>
        <time>2018-10-17T07:12:17Z</time>
      </trkpt>
      <trkpt lat="45.83761" lon="6.42739">
        <ele>1537</ele>
        <time>2018-10-17T07:12:18Z</time>
      </trkpt>
      <trkpt lat="45.8376" lon="6.42742">
        <ele>1537</ele>
        <time>2018-10-17T07:12:19Z</time>
      </trkpt>
      <trkpt lat="45.8376" lon="6.42742">
        <ele>1537</ele>
        <time>2018-10-17T07:12:20Z</time>
      </trkpt>
      <trkpt lat="45.8376" lon="6.42745">
        <ele>1537</ele>
        <time>2018-10-17T07:12:21Z</time>
      </trkpt>
      <trkpt lat="45.8376" lon="6.42745">
        <ele>1537</ele>
        <time>2018-10-17T07:12:22Z</time>
      </trkpt>
      <trkpt lat="45.8376" lon="6.42745">
        <ele>1538</ele>
        <time>2018-10-17T07:12:23Z</time>
      </trkpt>
      <trkpt lat="45.83759" lon="6.42748">
        <ele>1538</ele>
        <time>2018-10-17T07:12:24Z</time>
      </trkpt>
      <trkpt lat="45.83759" lon="6.42748">
        <ele>1538</ele>
        <time>2018-10-17T07:12:25Z</time>
      </trkpt>
      <trkpt lat="45.83758" lon="6.4275">
        <ele>1538</ele>
        <time>2018-10-17T07:12:26Z</time>
      </trkpt>
      <trkpt lat="45.83758" lon="6.4275">
        <ele>1539</ele>
        <time>2018-10-17T07:12:27Z</time>
      </trkpt>
      <trkpt lat="45.83758" lon="6.4275">
        <ele>1539</ele>
        <time>2018-10-17T07:12:28Z</time>
      </trkpt>
      <trkpt lat="45.83757" lon="6.42753">
        <ele>1539</ele>
        <time>2018-10-17T07:12:29Z</time>
      </trkpt>
      <trkpt lat="45.83757" lon="6.42753">
        <ele>1539</ele>
        <time>2018-10-17T07:12:30Z</time>
      </trkpt>
      <trkpt lat="45.83757" lon="6.42753">
        <ele>1540</ele>
        <time>2018-10-17T07:12:31Z</time>
      </trkpt>
      <trkpt lat="45.83755" lon="6.42755">
        <ele>1540</ele>
        <time>2018-10-17T07:12:32Z</time>
      </trkpt>
      <trkpt lat="45.83755" lon="6.42755">
        <ele>1541</ele>
        <time>2018-10-17T07:12:33Z</time>
      </trkpt>
      <trkpt lat="45.83755" lon="6.42755">
        <ele>1541</ele>
        <time>2018-10-17T07:12:34Z</time>
      </trkpt>
      <trkpt lat="45.83755" lon="6.42758">
        <ele>1541</ele>
        <time>2018-10-17T07:12:35Z</time>
      </trkpt>
      <trkpt lat="45.83755" lon="6.42758">
        <ele>1542</ele>
        <time>2018-10-17T07:12:36Z</time>
      </trkpt>
      <trkpt lat="45.83755" lon="6.42758">
        <ele>1542</ele>
        <time>2018-10-17T07:12:37Z</time>
      </trkpt>
      <trkpt lat="45.83755" lon="6.42762">
        <ele>1542</ele>
        <time>2018-10-17T07:12:38Z</time>
      </trkpt>
      <trkpt lat="45.83755" lon="6.42762">
        <ele>1542</ele>
        <time>2018-10-17T07:12:39Z</time>
      </trkpt>
      <trkpt lat="45.83755" lon="6.42764">
        <ele>1542</ele>
        <time>2018-10-17T07:12:40Z</time>
      </trkpt>
      <trkpt lat="45.83755" lon="6.42764">
        <ele>1542</ele>
        <time>2018-10-17T07:12:41Z</time>
      </trkpt>
      <trkpt lat="45.83755" lon="6.42764">
        <ele>1543</ele>
        <time>2018-10-17T07:12:42Z</time>
      </trkpt>
      <trkpt lat="45.83755" lon="6.42767">
        <ele>1543</ele>
        <time>2018-10-17T07:12:43Z</time>
      </trkpt>
      <trkpt lat="45.83755" lon="6.42767">
        <ele>1544</ele>
        <time>2018-10-17T07:12:44Z</time>
      </trkpt>
      <trkpt lat="45.83755" lon="6.42767">
        <ele>1544</ele>
        <time>2018-10-17T07:12:45Z</time>
      </trkpt>
      <trkpt lat="45.83755" lon="6.42767">
        <ele>1544</ele>
        <time>2018-10-17T07:12:46Z</time>
      </trkpt>
      <trkpt lat="45.83755" lon="6.42767">
        <ele>1544</ele>
        <time>2018-10-17T07:12:47Z</time>
      </trkpt>
      <trkpt lat="45.83756" lon="6.42768">
        <ele>1544</ele>
        <time>2018-10-17T07:12:48Z</time>
      </trkpt>
      <trkpt lat="45.83756" lon="6.42768">
        <ele>1545</ele>
        <time>2018-10-17T07:12:49Z</time>
      </trkpt>
      <trkpt lat="45.83756" lon="6.42768">
        <ele>1545</ele>
        <time>2018-10-17T07:12:50Z</time>
      </trkpt>
      <trkpt lat="45.83756" lon="6.42768">
        <ele>1546</ele>
        <time>2018-10-17T07:12:51Z</time>
      </trkpt>
      <trkpt lat="45.83758" lon="6.42766">
        <ele>1546</ele>
        <time>2018-10-17T07:12:52Z</time>
      </trkpt>
      <trkpt lat="45.83758" lon="6.42766">
        <ele>1546</ele>
        <time>2018-10-17T07:12:53Z</time>
      </trkpt>
      <trkpt lat="45.83758" lon="6.42766">
        <ele>1546</ele>
        <time>2018-10-17T07:12:54Z</time>
      </trkpt>
      <trkpt lat="45.83758" lon="6.42766">
        <ele>1546</ele>
        <time>2018-10-17T07:12:55Z</time>
      </trkpt>
      <trkpt lat="45.8376" lon="6.42765">
        <ele>1546</ele>
        <time>2018-10-17T07:12:56Z</time>
      </trkpt>
      <trkpt lat="45.8376" lon="6.42765">
        <ele>1547</ele>
        <time>2018-10-17T07:12:57Z</time>
      </trkpt>
      <trkpt lat="45.8376" lon="6.42765">
        <ele>1547</ele>
        <time>2018-10-17T07:12:58Z</time>
      </trkpt>
      <trkpt lat="45.8376" lon="6.42765">
        <ele>1547</ele>
        <time>2018-10-17T07:12:59Z</time>
      </trkpt>
      <trkpt lat="45.8376" lon="6.42765">
        <ele>1547</ele>
        <time>2018-10-17T07:13:00Z</time>
      </trkpt>
      <trkpt lat="45.8376" lon="6.42765">
        <ele>1547</ele>
        <time>2018-10-17T07:13:01Z</time>
      </trkpt>
      <trkpt lat="45.83761" lon="6.42768">
        <ele>1547</ele>
        <time>2018-10-17T07:13:02Z</time>
      </trkpt>
      <trkpt lat="45.83761" lon="6.42768">
        <ele>1548</ele>
        <time>2018-10-17T07:13:03Z</time>
      </trkpt>
      <trkpt lat="45.83761" lon="6.42768">
        <ele>1548</ele>
        <time>2018-10-17T07:13:04Z</time>
      </trkpt>
      <trkpt lat="45.83761" lon="6.4277">
        <ele>1548</ele>
        <time>2018-10-17T07:13:05Z</time>
      </trkpt>
      <trkpt lat="45.83761" lon="6.4277">
        <ele>1548</ele>
        <time>2018-10-17T07:13:06Z</time>
      </trkpt>
      <trkpt lat="45.83761" lon="6.4277">
        <ele>1549</ele>
        <time>2018-10-17T07:13:07Z</time>
      </trkpt>
      <trkpt lat="45.8376" lon="6.42773">
        <ele>1549</ele>
        <time>2018-10-17T07:13:08Z</time>
      </trkpt>
      <trkpt lat="45.8376" lon="6.42773">
        <ele>1549</ele>
        <time>2018-10-17T07:13:09Z</time>
      </trkpt>
      <trkpt lat="45.8376" lon="6.42773">
        <ele>1549</ele>
        <time>2018-10-17T07:13:10Z</time>
      </trkpt>
      <trkpt lat="45.8376" lon="6.42777">
        <ele>1550</ele>
        <time>2018-10-17T07:13:11Z</time>
      </trkpt>
      <trkpt lat="45.8376" lon="6.42777">
        <ele>1550</ele>
        <time>2018-10-17T07:13:12Z</time>
      </trkpt>
      <trkpt lat="45.8376" lon="6.42777">
        <ele>1550</ele>
        <time>2018-10-17T07:13:13Z</time>
      </trkpt>
      <trkpt lat="45.83761" lon="6.4278">
        <ele>1551</ele>
        <time>2018-10-17T07:13:14Z</time>
      </trkpt>
      <trkpt lat="45.83761" lon="6.4278">
        <ele>1551</ele>
        <time>2018-10-17T07:13:15Z</time>
      </trkpt>
      <trkpt lat="45.83761" lon="6.4278">
        <ele>1551</ele>
        <time>2018-10-17T07:13:16Z</time>
      </trkpt>
      <trkpt lat="45.83761" lon="6.4278">
        <ele>1551</ele>
        <time>2018-10-17T07:13:17Z</time>
      </trkpt>
      <trkpt lat="45.83763" lon="6.42779">
        <ele>1551</ele>
        <time>2018-10-17T07:13:18Z</time>
      </trkpt>
      <trkpt lat="45.83763" lon="6.42779">
        <ele>1552</ele>
        <time>2018-10-17T07:13:19Z</time>
      </trkpt>
      <trkpt lat="45.83763" lon="6.42779">
        <ele>1552</ele>
        <time>2018-10-17T07:13:20Z</time>
      </trkpt>
      <trkpt lat="45.83763" lon="6.42779">
        <ele>1552</ele>
        <time>2018-10-17T07:13:21Z</time>
      </trkpt>
      <trkpt lat="45.83765" lon="6.42778">
        <ele>1552</ele>
        <time>2018-10-17T07:13:22Z</time>
      </trkpt>
      <trkpt lat="45.83765" lon="6.42778">
        <ele>1552</ele>
        <time>2018-10-17T07:13:23Z</time>
      </trkpt>
      <trkpt lat="45.83765" lon="6.42778">
        <ele>1552</ele>
        <time>2018-10-17T07:13:24Z</time>
      </trkpt>
      <trkpt lat="45.83767" lon="6.42778">
        <ele>1553</ele>
        <time>2018-10-17T07:13:25Z</time>
      </trkpt>
      <trkpt lat="45.83767" lon="6.42778">
        <ele>1554</ele>
        <time>2018-10-17T07:13:26Z</time>
      </trkpt>
      <trkpt lat="45.83767" lon="6.42778">
        <ele>1554</ele>
        <time>2018-10-17T07:13:27Z</time>
      </trkpt>
      <trkpt lat="45.83767" lon="6.42778">
        <ele>1554</ele>
        <time>2018-10-17T07:13:28Z</time>
      </trkpt>
      <trkpt lat="45.83769" lon="6.42778">
        <ele>1555</ele>
        <time>2018-10-17T07:13:29Z</time>
      </trkpt>
      <trkpt lat="45.83769" lon="6.42778">
        <ele>1555</ele>
        <time>2018-10-17T07:13:30Z</time>
      </trkpt>
      <trkpt lat="45.83769" lon="6.42778">
        <ele>1555</ele>
        <time>2018-10-17T07:13:31Z</time>
      </trkpt>
      <trkpt lat="45.83771" lon="6.42779">
        <ele>1555</ele>
        <time>2018-10-17T07:13:32Z</time>
      </trkpt>
      <trkpt lat="45.83771" lon="6.42779">
        <ele>1555</ele>
        <time>2018-10-17T07:13:33Z</time>
      </trkpt>
      <trkpt lat="45.83773" lon="6.42779">
        <ele>1555</ele>
        <time>2018-10-17T07:13:34Z</time>
      </trkpt>
      <trkpt lat="45.83773" lon="6.42779">
        <ele>1555</ele>
        <time>2018-10-17T07:13:35Z</time>
      </trkpt>
      <trkpt lat="45.83773" lon="6.42779">
        <ele>1556</ele>
        <time>2018-10-17T07:13:36Z</time>
      </trkpt>
      <trkpt lat="45.83776" lon="6.42778">
        <ele>1556</ele>
        <time>2018-10-17T07:13:37Z</time>
      </trkpt>
      <trkpt lat="45.83776" lon="6.42778">
        <ele>1556</ele>
        <time>2018-10-17T07:13:38Z</time>
      </trkpt>
      <trkpt lat="45.83778" lon="6.42778">
        <ele>1556</ele>
        <time>2018-10-17T07:13:39Z</time>
      </trkpt>
      <trkpt lat="45.83778" lon="6.42778">
        <ele>1557</ele>
        <time>2018-10-17T07:13:40Z</time>
      </trkpt>
      <trkpt lat="45.83778" lon="6.42778">
        <ele>1557</ele>
        <time>2018-10-17T07:13:41Z</time>
      </trkpt>
      <trkpt lat="45.83779" lon="6.4278">
        <ele>1557</ele>
        <time>2018-10-17T07:13:42Z</time>
      </trkpt>
      <trkpt lat="45.83779" lon="6.4278">
        <ele>1557</ele>
        <time>2018-10-17T07:13:43Z</time>
      </trkpt>
      <trkpt lat="45.83779" lon="6.4278">
        <ele>1558</ele>
        <time>2018-10-17T07:13:44Z</time>
      </trkpt>
      <trkpt lat="45.8378" lon="6.42783">
        <ele>1558</ele>
        <time>2018-10-17T07:13:45Z</time>
      </trkpt>
      <trkpt lat="45.8378" lon="6.42783">
        <ele>1558</ele>
        <time>2018-10-17T07:13:46Z</time>
      </trkpt>
      <trkpt lat="45.8378" lon="6.42783">
        <ele>1559</ele>
        <time>2018-10-17T07:13:47Z</time>
      </trkpt>
      <trkpt lat="45.8378" lon="6.42786">
        <ele>1559</ele>
        <time>2018-10-17T07:13:48Z</time>
      </trkpt>
      <trkpt lat="45.8378" lon="6.42786">
        <ele>1559</ele>
        <time>2018-10-17T07:13:49Z</time>
      </trkpt>
      <trkpt lat="45.8378" lon="6.42786">
        <ele>1559</ele>
        <time>2018-10-17T07:13:50Z</time>
      </trkpt>
      <trkpt lat="45.83779" lon="6.42788">
        <ele>1559</ele>
        <time>2018-10-17T07:13:51Z</time>
      </trkpt>
      <trkpt lat="45.83779" lon="6.42788">
        <ele>1560</ele>
        <time>2018-10-17T07:13:52Z</time>
      </trkpt>
      <trkpt lat="45.83777" lon="6.42789">
        <ele>1560</ele>
        <time>2018-10-17T07:13:53Z</time>
      </trkpt>
      <trkpt lat="45.83777" lon="6.42789">
        <ele>1560</ele>
        <time>2018-10-17T07:13:54Z</time>
      </trkpt>
      <trkpt lat="45.83777" lon="6.42789">
        <ele>1561</ele>
        <time>2018-10-17T07:13:55Z</time>
      </trkpt>
      <trkpt lat="45.83777" lon="6.42789">
        <ele>1561</ele>
        <time>2018-10-17T07:13:56Z</time>
      </trkpt>
      <trkpt lat="45.83777" lon="6.42789">
        <ele>1561</ele>
        <time>2018-10-17T07:13:57Z</time>
      </trkpt>
      <trkpt lat="45.83777" lon="6.42791">
        <ele>1561</ele>
        <time>2018-10-17T07:13:58Z</time>
      </trkpt>
      <trkpt lat="45.83777" lon="6.42791">
        <ele>1561</ele>
        <time>2018-10-17T07:13:59Z</time>
      </trkpt>
      <trkpt lat="45.83777" lon="6.42791">
        <ele>1561</ele>
        <time>2018-10-17T07:14:00Z</time>
      </trkpt>
      <trkpt lat="45.83777" lon="6.42791">
        <ele>1562</ele>
        <time>2018-10-17T07:14:01Z</time>
      </trkpt>
      <trkpt lat="45.8378" lon="6.42792">
        <ele>1562</ele>
        <time>2018-10-17T07:14:02Z</time>
      </trkpt>
      <trkpt lat="45.8378" lon="6.42792">
        <ele>1562</ele>
        <time>2018-10-17T07:14:03Z</time>
      </trkpt>
      <trkpt lat="45.8378" lon="6.42792">
        <ele>1562</ele>
        <time>2018-10-17T07:14:04Z</time>
      </trkpt>
      <trkpt lat="45.83781" lon="6.42795">
        <ele>1562</ele>
        <time>2018-10-17T07:14:05Z</time>
      </trkpt>
      <trkpt lat="45.83781" lon="6.42795">
        <ele>1562</ele>
        <time>2018-10-17T07:14:06Z</time>
      </trkpt>
      <trkpt lat="45.83781" lon="6.42795">
        <ele>1562</ele>
        <time>2018-10-17T07:14:07Z</time>
      </trkpt>
      <trkpt lat="45.83781" lon="6.42795">
        <ele>1563</ele>
        <time>2018-10-17T07:14:08Z</time>
      </trkpt>
      <trkpt lat="45.83779" lon="6.42798">
        <ele>1563</ele>
        <time>2018-10-17T07:14:09Z</time>
      </trkpt>
      <trkpt lat="45.83779" lon="6.42798">
        <ele>1564</ele>
        <time>2018-10-17T07:14:10Z</time>
      </trkpt>
      <trkpt lat="45.83779" lon="6.42798">
        <ele>1564</ele>
        <time>2018-10-17T07:14:11Z</time>
      </trkpt>
      <trkpt lat="45.83779" lon="6.42798">
        <ele>1564</ele>
        <time>2018-10-17T07:14:12Z</time>
      </trkpt>
      <trkpt lat="45.83779" lon="6.42798">
        <ele>1565</ele>
        <time>2018-10-17T07:14:13Z</time>
      </trkpt>
      <trkpt lat="45.83777" lon="6.42799">
        <ele>1565</ele>
        <time>2018-10-17T07:14:14Z</time>
      </trkpt>
      <trkpt lat="45.83777" lon="6.42799">
        <ele>1565</ele>
        <time>2018-10-17T07:14:15Z</time>
      </trkpt>
      <trkpt lat="45.83777" lon="6.42799">
        <ele>1565</ele>
        <time>2018-10-17T07:14:16Z</time>
      </trkpt>
      <trkpt lat="45.83777" lon="6.42799">
        <ele>1566</ele>
        <time>2018-10-17T07:14:17Z</time>
      </trkpt>
      <trkpt lat="45.83777" lon="6.42803">
        <ele>1566</ele>
        <time>2018-10-17T07:14:18Z</time>
      </trkpt>
      <trkpt lat="45.83777" lon="6.42803">
        <ele>1566</ele>
        <time>2018-10-17T07:14:19Z</time>
      </trkpt>
      <trkpt lat="45.83777" lon="6.42803">
        <ele>1566</ele>
        <time>2018-10-17T07:14:20Z</time>
      </trkpt>
      <trkpt lat="45.83776" lon="6.42806">
        <ele>1567</ele>
        <time>2018-10-17T07:14:21Z</time>
      </trkpt>
      <trkpt lat="45.83776" lon="6.42806">
        <ele>1567</ele>
        <time>2018-10-17T07:14:22Z</time>
      </trkpt>
      <trkpt lat="45.83776" lon="6.42806">
        <ele>1567</ele>
        <time>2018-10-17T07:14:23Z</time>
      </trkpt>
      <trkpt lat="45.83776" lon="6.42806">
        <ele>1567</ele>
        <time>2018-10-17T07:14:24Z</time>
      </trkpt>
      <trkpt lat="45.83776" lon="6.42809">
        <ele>1567</ele>
        <time>2018-10-17T07:14:25Z</time>
      </trkpt>
      <trkpt lat="45.83776" lon="6.42809">
        <ele>1567</ele>
        <time>2018-10-17T07:14:26Z</time>
      </trkpt>
      <trkpt lat="45.83776" lon="6.42809">
        <ele>1567</ele>
        <time>2018-10-17T07:14:27Z</time>
      </trkpt>
      <trkpt lat="45.83775" lon="6.42811">
        <ele>1568</ele>
        <time>2018-10-17T07:14:28Z</time>
      </trkpt>
      <trkpt lat="45.83775" lon="6.42811">
        <ele>1568</ele>
        <time>2018-10-17T07:14:29Z</time>
      </trkpt>
      <trkpt lat="45.83775" lon="6.42811">
        <ele>1569</ele>
        <time>2018-10-17T07:14:30Z</time>
      </trkpt>
      <trkpt lat="45.83775" lon="6.42814">
        <ele>1569</ele>
        <time>2018-10-17T07:14:31Z</time>
      </trkpt>
      <trkpt lat="45.83775" lon="6.42814">
        <ele>1569</ele>
        <time>2018-10-17T07:14:32Z</time>
      </trkpt>
      <trkpt lat="45.83775" lon="6.42814">
        <ele>1570</ele>
        <time>2018-10-17T07:14:33Z</time>
      </trkpt>
      <trkpt lat="45.83775" lon="6.42814">
        <ele>1570</ele>
        <time>2018-10-17T07:14:34Z</time>
      </trkpt>
      <trkpt lat="45.83775" lon="6.42814">
        <ele>1570</ele>
        <time>2018-10-17T07:14:35Z</time>
      </trkpt>
      <trkpt lat="45.83776" lon="6.42817">
        <ele>1570</ele>
        <time>2018-10-17T07:14:36Z</time>
      </trkpt>
      <trkpt lat="45.83776" lon="6.42817">
        <ele>1570</ele>
        <time>2018-10-17T07:14:37Z</time>
      </trkpt>
      <trkpt lat="45.83776" lon="6.42817">
        <ele>1570</ele>
        <time>2018-10-17T07:14:38Z</time>
      </trkpt>
      <trkpt lat="45.83776" lon="6.42817">
        <ele>1571</ele>
        <time>2018-10-17T07:14:39Z</time>
      </trkpt>
      <trkpt lat="45.83775" lon="6.4282">
        <ele>1571</ele>
        <time>2018-10-17T07:14:40Z</time>
      </trkpt>
      <trkpt lat="45.83775" lon="6.4282">
        <ele>1571</ele>
        <time>2018-10-17T07:14:41Z</time>
      </trkpt>
      <trkpt lat="45.83775" lon="6.4282">
        <ele>1572</ele>
        <time>2018-10-17T07:14:42Z</time>
      </trkpt>
      <trkpt lat="45.83775" lon="6.4282">
        <ele>1572</ele>
        <time>2018-10-17T07:14:43Z</time>
      </trkpt>
      <trkpt lat="45.83775" lon="6.4282">
        <ele>1572</ele>
        <time>2018-10-17T07:14:44Z</time>
      </trkpt>
      <trkpt lat="45.83775" lon="6.4282">
        <ele>1572</ele>
        <time>2018-10-17T07:14:45Z</time>
      </trkpt>
      <trkpt lat="45.83775" lon="6.4282">
        <ele>1572</ele>
        <time>2018-10-17T07:14:46Z</time>
      </trkpt>
      <trkpt lat="45.83775" lon="6.4282">
        <ele>1572</ele>
        <time>2018-10-17T07:14:47Z</time>
      </trkpt>
      <trkpt lat="45.83777" lon="6.42821">
        <ele>1573</ele>
        <time>2018-10-17T07:14:48Z</time>
      </trkpt>
      <trkpt lat="45.83777" lon="6.42821">
        <ele>1573</ele>
        <time>2018-10-17T07:14:49Z</time>
      </trkpt>
      <trkpt lat="45.83777" lon="6.42821">
        <ele>1573</ele>
        <time>2018-10-17T07:14:50Z</time>
      </trkpt>
      <trkpt lat="45.83777" lon="6.42821">
        <ele>1574</ele>
        <time>2018-10-17T07:14:51Z</time>
      </trkpt>
      <trkpt lat="45.83777" lon="6.42821">
        <ele>1574</ele>
        <time>2018-10-17T07:14:52Z</time>
      </trkpt>
      <trkpt lat="45.83779" lon="6.42822">
        <ele>1574</ele>
        <time>2018-10-17T07:14:53Z</time>
      </trkpt>
      <trkpt lat="45.83779" lon="6.42822">
        <ele>1575</ele>
        <time>2018-10-17T07:14:54Z</time>
      </trkpt>
      <trkpt lat="45.83779" lon="6.42822">
        <ele>1575</ele>
        <time>2018-10-17T07:14:55Z</time>
      </trkpt>
      <trkpt lat="45.83779" lon="6.42822">
        <ele>1575</ele>
        <time>2018-10-17T07:14:56Z</time>
      </trkpt>
      <trkpt lat="45.83781" lon="6.42822">
        <ele>1575</ele>
        <time>2018-10-17T07:14:57Z</time>
      </trkpt>
      <trkpt lat="45.83781" lon="6.42822">
        <ele>1575</ele>
        <time>2018-10-17T07:14:58Z</time>
      </trkpt>
      <trkpt lat="45.83781" lon="6.42822">
        <ele>1575</ele>
        <time>2018-10-17T07:14:59Z</time>
      </trkpt>
      <trkpt lat="45.83783" lon="6.42822">
        <ele>1575</ele>
        <time>2018-10-17T07:15:00Z</time>
      </trkpt>
      <trkpt lat="45.83783" lon="6.42822">
        <ele>1576</ele>
        <time>2018-10-17T07:15:01Z</time>
      </trkpt>
      <trkpt lat="45.83783" lon="6.42822">
        <ele>1577</ele>
        <time>2018-10-17T07:15:02Z</time>
      </trkpt>
      <trkpt lat="45.83783" lon="6.42822">
        <ele>1577</ele>
        <time>2018-10-17T07:15:03Z</time>
      </trkpt>
      <trkpt lat="45.83785" lon="6.42824">
        <ele>1577</ele>
        <time>2018-10-17T07:15:04Z</time>
      </trkpt>
      <trkpt lat="45.83785" lon="6.42824">
        <ele>1577</ele>
        <time>2018-10-17T07:15:05Z</time>
      </trkpt>
      <trkpt lat="45.83785" lon="6.42824">
        <ele>1577</ele>
        <time>2018-10-17T07:15:06Z</time>
      </trkpt>
      <trkpt lat="45.83785" lon="6.42824">
        <ele>1577</ele>
        <time>2018-10-17T07:15:07Z</time>
      </trkpt>
      <trkpt lat="45.83784" lon="6.42827">
        <ele>1577</ele>
        <time>2018-10-17T07:15:08Z</time>
      </trkpt>
      <trkpt lat="45.83784" lon="6.42827">
        <ele>1577</ele>
        <time>2018-10-17T07:15:09Z</time>
      </trkpt>
      <trkpt lat="45.83784" lon="6.42827">
        <ele>1577</ele>
        <time>2018-10-17T07:15:10Z</time>
      </trkpt>
      <trkpt lat="45.83784" lon="6.42827">
        <ele>1578</ele>
        <time>2018-10-17T07:15:11Z</time>
      </trkpt>
      <trkpt lat="45.83784" lon="6.42827">
        <ele>1578</ele>
        <time>2018-10-17T07:15:12Z</time>
      </trkpt>
      <trkpt lat="45.83785" lon="6.42829">
        <ele>1578</ele>
        <time>2018-10-17T07:15:13Z</time>
      </trkpt>
      <trkpt lat="45.83785" lon="6.42829">
        <ele>1578</ele>
        <time>2018-10-17T07:15:14Z</time>
      </trkpt>
      <trkpt lat="45.83785" lon="6.42829">
        <ele>1578</ele>
        <time>2018-10-17T07:15:15Z</time>
      </trkpt>
      <trkpt lat="45.83785" lon="6.42829">
        <ele>1578</ele>
        <time>2018-10-17T07:15:16Z</time>
      </trkpt>
      <trkpt lat="45.83787" lon="6.42832">
        <ele>1579</ele>
        <time>2018-10-17T07:15:17Z</time>
      </trkpt>
      <trkpt lat="45.83787" lon="6.42832">
        <ele>1580</ele>
        <time>2018-10-17T07:15:18Z</time>
      </trkpt>
      <trkpt lat="45.83787" lon="6.42832">
        <ele>1580</ele>
        <time>2018-10-17T07:15:19Z</time>
      </trkpt>
      <trkpt lat="45.83787" lon="6.42832">
        <ele>1580</ele>
        <time>2018-10-17T07:15:20Z</time>
      </trkpt>
      <trkpt lat="45.83788" lon="6.42835">
        <ele>1580</ele>
        <time>2018-10-17T07:15:21Z</time>
      </trkpt>
      <trkpt lat="45.83788" lon="6.42835">
        <ele>1580</ele>
        <time>2018-10-17T07:15:22Z</time>
      </trkpt>
      <trkpt lat="45.83788" lon="6.42835">
        <ele>1580</ele>
        <time>2018-10-17T07:15:23Z</time>
      </trkpt>
      <trkpt lat="45.83788" lon="6.42835">
        <ele>1581</ele>
        <time>2018-10-17T07:15:24Z</time>
      </trkpt>
      <trkpt lat="45.83789" lon="6.42837">
        <ele>1581</ele>
        <time>2018-10-17T07:15:25Z</time>
      </trkpt>
      <trkpt lat="45.83789" lon="6.42837">
        <ele>1581</ele>
        <time>2018-10-17T07:15:26Z</time>
      </trkpt>
      <trkpt lat="45.83789" lon="6.42837">
        <ele>1581</ele>
        <time>2018-10-17T07:15:27Z</time>
      </trkpt>
      <trkpt lat="45.83789" lon="6.42837">
        <ele>1582</ele>
        <time>2018-10-17T07:15:28Z</time>
      </trkpt>
      <trkpt lat="45.83791" lon="6.42838">
        <ele>1582</ele>
        <time>2018-10-17T07:15:29Z</time>
      </trkpt>
      <trkpt lat="45.83791" lon="6.42838">
        <ele>1582</ele>
        <time>2018-10-17T07:15:30Z</time>
      </trkpt>
      <trkpt lat="45.83791" lon="6.42838">
        <ele>1582</ele>
        <time>2018-10-17T07:15:31Z</time>
      </trkpt>
      <trkpt lat="45.83791" lon="6.42838">
        <ele>1583</ele>
        <time>2018-10-17T07:15:32Z</time>
      </trkpt>
      <trkpt lat="45.83793" lon="6.42841">
        <ele>1583</ele>
        <time>2018-10-17T07:15:33Z</time>
      </trkpt>
      <trkpt lat="45.83793" lon="6.42841">
        <ele>1583</ele>
        <time>2018-10-17T07:15:34Z</time>
      </trkpt>
      <trkpt lat="45.83793" lon="6.42841">
        <ele>1584</ele>
        <time>2018-10-17T07:15:35Z</time>
      </trkpt>
      <trkpt lat="45.83794" lon="6.42843">
        <ele>1584</ele>
        <time>2018-10-17T07:15:36Z</time>
      </trkpt>
      <trkpt lat="45.83794" lon="6.42843">
        <ele>1584</ele>
        <time>2018-10-17T07:15:37Z</time>
      </trkpt>
      <trkpt lat="45.83794" lon="6.42843">
        <ele>1585</ele>
        <time>2018-10-17T07:15:38Z</time>
      </trkpt>
      <trkpt lat="45.83795" lon="6.42845">
        <ele>1585</ele>
        <time>2018-10-17T07:15:39Z</time>
      </trkpt>
      <trkpt lat="45.83795" lon="6.42845">
        <ele>1585</ele>
        <time>2018-10-17T07:15:40Z</time>
      </trkpt>
      <trkpt lat="45.83795" lon="6.42845">
        <ele>1586</ele>
        <time>2018-10-17T07:15:41Z</time>
      </trkpt>
      <trkpt lat="45.83795" lon="6.42845">
        <ele>1586</ele>
        <time>2018-10-17T07:15:42Z</time>
      </trkpt>
      <trkpt lat="45.83797" lon="6.42848">
        <ele>1586</ele>
        <time>2018-10-17T07:15:43Z</time>
      </trkpt>
      <trkpt lat="45.83797" lon="6.42848">
        <ele>1587</ele>
        <time>2018-10-17T07:15:44Z</time>
      </trkpt>
      <trkpt lat="45.83797" lon="6.42848">
        <ele>1587</ele>
        <time>2018-10-17T07:15:45Z</time>
      </trkpt>
      <trkpt lat="45.83797" lon="6.42848">
        <ele>1587</ele>
        <time>2018-10-17T07:15:46Z</time>
      </trkpt>
      <trkpt lat="45.83798" lon="6.4285">
        <ele>1587</ele>
        <time>2018-10-17T07:15:47Z</time>
      </trkpt>
      <trkpt lat="45.83798" lon="6.4285">
        <ele>1587</ele>
        <time>2018-10-17T07:15:48Z</time>
      </trkpt>
      <trkpt lat="45.83798" lon="6.4285">
        <ele>1587</ele>
        <time>2018-10-17T07:15:49Z</time>
      </trkpt>
      <trkpt lat="45.83798" lon="6.4285">
        <ele>1587</ele>
        <time>2018-10-17T07:15:50Z</time>
      </trkpt>
      <trkpt lat="45.83799" lon="6.42852">
        <ele>1587</ele>
        <time>2018-10-17T07:15:51Z</time>
      </trkpt>
      <trkpt lat="45.83799" lon="6.42852">
        <ele>1587</ele>
        <time>2018-10-17T07:15:52Z</time>
      </trkpt>
      <trkpt lat="45.83799" lon="6.42852">
        <ele>1587</ele>
        <time>2018-10-17T07:15:53Z</time>
      </trkpt>
      <trkpt lat="45.83799" lon="6.42852">
        <ele>1588</ele>
        <time>2018-10-17T07:15:54Z</time>
      </trkpt>
      <trkpt lat="45.83799" lon="6.42852">
        <ele>1588</ele>
        <time>2018-10-17T07:15:55Z</time>
      </trkpt>
      <trkpt lat="45.83799" lon="6.42852">
        <ele>1588</ele>
        <time>2018-10-17T07:15:56Z</time>
      </trkpt>
      <trkpt lat="45.83801" lon="6.42853">
        <ele>1588</ele>
        <time>2018-10-17T07:15:57Z</time>
      </trkpt>
      <trkpt lat="45.83801" lon="6.42853">
        <ele>1588</ele>
        <time>2018-10-17T07:15:58Z</time>
      </trkpt>
      <trkpt lat="45.83801" lon="6.42853">
        <ele>1588</ele>
        <time>2018-10-17T07:15:59Z</time>
      </trkpt>
      <trkpt lat="45.83801" lon="6.42853">
        <ele>1589</ele>
        <time>2018-10-17T07:16:00Z</time>
      </trkpt>
      <trkpt lat="45.83801" lon="6.42853">
        <ele>1589</ele>
        <time>2018-10-17T07:16:01Z</time>
      </trkpt>
      <trkpt lat="45.83802" lon="6.42856">
        <ele>1589</ele>
        <time>2018-10-17T07:16:02Z</time>
      </trkpt>
      <trkpt lat="45.83802" lon="6.42856">
        <ele>1590</ele>
        <time>2018-10-17T07:16:03Z</time>
      </trkpt>
      <trkpt lat="45.83802" lon="6.42856">
        <ele>1590</ele>
        <time>2018-10-17T07:16:04Z</time>
      </trkpt>
      <trkpt lat="45.83802" lon="6.42856">
        <ele>1590</ele>
        <time>2018-10-17T07:16:05Z</time>
      </trkpt>
      <trkpt lat="45.83802" lon="6.42856">
        <ele>1590</ele>
        <time>2018-10-17T07:16:06Z</time>
      </trkpt>
      <trkpt lat="45.83804" lon="6.42857">
        <ele>1590</ele>
        <time>2018-10-17T07:16:07Z</time>
      </trkpt>
      <trkpt lat="45.83804" lon="6.42857">
        <ele>1590</ele>
        <time>2018-10-17T07:16:08Z</time>
      </trkpt>
      <trkpt lat="45.83804" lon="6.42857">
        <ele>1590</ele>
        <time>2018-10-17T07:16:09Z</time>
      </trkpt>
      <trkpt lat="45.83805" lon="6.4286">
        <ele>1591</ele>
        <time>2018-10-17T07:16:10Z</time>
      </trkpt>
      <trkpt lat="45.83805" lon="6.4286">
        <ele>1592</ele>
        <time>2018-10-17T07:16:11Z</time>
      </trkpt>
      <trkpt lat="45.83805" lon="6.4286">
        <ele>1592</ele>
        <time>2018-10-17T07:16:12Z</time>
      </trkpt>
      <trkpt lat="45.83805" lon="6.4286">
        <ele>1592</ele>
        <time>2018-10-17T07:16:13Z</time>
      </trkpt>
      <trkpt lat="45.83805" lon="6.4286">
        <ele>1593</ele>
        <time>2018-10-17T07:16:14Z</time>
      </trkpt>
      <trkpt lat="45.83806" lon="6.42863">
        <ele>1593</ele>
        <time>2018-10-17T07:16:15Z</time>
      </trkpt>
      <trkpt lat="45.83806" lon="6.42863">
        <ele>1593</ele>
        <time>2018-10-17T07:16:16Z</time>
      </trkpt>
      <trkpt lat="45.83806" lon="6.42863">
        <ele>1593</ele>
        <time>2018-10-17T07:16:17Z</time>
      </trkpt>
      <trkpt lat="45.83806" lon="6.42863">
        <ele>1594</ele>
        <time>2018-10-17T07:16:18Z</time>
      </trkpt>
      <trkpt lat="45.83807" lon="6.42865">
        <ele>1594</ele>
        <time>2018-10-17T07:16:19Z</time>
      </trkpt>
      <trkpt lat="45.83807" lon="6.42865">
        <ele>1594</ele>
        <time>2018-10-17T07:16:20Z</time>
      </trkpt>
      <trkpt lat="45.83807" lon="6.42865">
        <ele>1594</ele>
        <time>2018-10-17T07:16:21Z</time>
      </trkpt>
      <trkpt lat="45.83807" lon="6.42865">
        <ele>1594</ele>
        <time>2018-10-17T07:16:22Z</time>
      </trkpt>
      <trkpt lat="45.83808" lon="6.42868">
        <ele>1595</ele>
        <time>2018-10-17T07:16:23Z</time>
      </trkpt>
      <trkpt lat="45.83808" lon="6.42868">
        <ele>1596</ele>
        <time>2018-10-17T07:16:24Z</time>
      </trkpt>
      <trkpt lat="45.83808" lon="6.42868">
        <ele>1596</ele>
        <time>2018-10-17T07:16:25Z</time>
      </trkpt>
      <trkpt lat="45.83808" lon="6.42868">
        <ele>1596</ele>
        <time>2018-10-17T07:16:26Z</time>
      </trkpt>
      <trkpt lat="45.83809" lon="6.4287">
        <ele>1596</ele>
        <time>2018-10-17T07:16:27Z</time>
      </trkpt>
      <trkpt lat="45.83809" lon="6.4287">
        <ele>1596</ele>
        <time>2018-10-17T07:16:28Z</time>
      </trkpt>
      <trkpt lat="45.83809" lon="6.4287">
        <ele>1597</ele>
        <time>2018-10-17T07:16:29Z</time>
      </trkpt>
      <trkpt lat="45.83809" lon="6.4287">
        <ele>1597</ele>
        <time>2018-10-17T07:16:30Z</time>
      </trkpt>
      <trkpt lat="45.83809" lon="6.4287">
        <ele>1597</ele>
        <time>2018-10-17T07:16:31Z</time>
      </trkpt>
      <trkpt lat="45.83809" lon="6.4287">
        <ele>1597</ele>
        <time>2018-10-17T07:16:32Z</time>
      </trkpt>
      <trkpt lat="45.83809" lon="6.4287">
        <ele>1597</ele>
        <time>2018-10-17T07:16:33Z</time>
      </trkpt>
      <trkpt lat="45.83809" lon="6.4287">
        <ele>1597</ele>
        <time>2018-10-17T07:16:34Z</time>
      </trkpt>
      <trkpt lat="45.83809" lon="6.4287">
        <ele>1597</ele>
        <time>2018-10-17T07:16:35Z</time>
      </trkpt>
      <trkpt lat="45.83809" lon="6.4287">
        <ele>1598</ele>
        <time>2018-10-17T07:16:36Z</time>
      </trkpt>
      <trkpt lat="45.83809" lon="6.4287">
        <ele>1598</ele>
        <time>2018-10-17T07:16:37Z</time>
      </trkpt>
      <trkpt lat="45.83809" lon="6.4287">
        <ele>1598</ele>
        <time>2018-10-17T07:16:38Z</time>
      </trkpt>
      <trkpt lat="45.83809" lon="6.4287">
        <ele>1598</ele>
        <time>2018-10-17T07:16:39Z</time>
      </trkpt>
      <trkpt lat="45.83809" lon="6.4287">
        <ele>1598</ele>
        <time>2018-10-17T07:16:40Z</time>
      </trkpt>
      <trkpt lat="45.8381" lon="6.42873">
        <ele>1599</ele>
        <time>2018-10-17T07:16:41Z</time>
      </trkpt>
      <trkpt lat="45.8381" lon="6.42873">
        <ele>1599</ele>
        <time>2018-10-17T07:16:42Z</time>
      </trkpt>
      <trkpt lat="45.8381" lon="6.42873">
        <ele>1599</ele>
        <time>2018-10-17T07:16:43Z</time>
      </trkpt>
      <trkpt lat="45.8381" lon="6.42873">
        <ele>1600</ele>
        <time>2018-10-17T07:16:44Z</time>
      </trkpt>
      <trkpt lat="45.8381" lon="6.42873">
        <ele>1600</ele>
        <time>2018-10-17T07:16:45Z</time>
      </trkpt>
      <trkpt lat="45.8381" lon="6.42875">
        <ele>1600</ele>
        <time>2018-10-17T07:16:46Z</time>
      </trkpt>
      <trkpt lat="45.8381" lon="6.42875">
        <ele>1600</ele>
        <time>2018-10-17T07:16:47Z</time>
      </trkpt>
      <trkpt lat="45.8381" lon="6.42875">
        <ele>1601</ele>
        <time>2018-10-17T07:16:48Z</time>
      </trkpt>
      <trkpt lat="45.8381" lon="6.42875">
        <ele>1601</ele>
        <time>2018-10-17T07:16:49Z</time>
      </trkpt>
      <trkpt lat="45.83811" lon="6.42878">
        <ele>1601</ele>
        <time>2018-10-17T07:16:50Z</time>
      </trkpt>
      <trkpt lat="45.83811" lon="6.42878">
        <ele>1601</ele>
        <time>2018-10-17T07:16:51Z</time>
      </trkpt>
      <trkpt lat="45.83811" lon="6.42878">
        <ele>1601</ele>
        <time>2018-10-17T07:16:52Z</time>
      </trkpt>
      <trkpt lat="45.83811" lon="6.42878">
        <ele>1601</ele>
        <time>2018-10-17T07:16:53Z</time>
      </trkpt>
      <trkpt lat="45.83813" lon="6.4288">
        <ele>1602</ele>
        <time>2018-10-17T07:16:54Z</time>
      </trkpt>
      <trkpt lat="45.83813" lon="6.4288">
        <ele>1602</ele>
        <time>2018-10-17T07:16:55Z</time>
      </trkpt>
      <trkpt lat="45.83813" lon="6.4288">
        <ele>1602</ele>
        <time>2018-10-17T07:16:56Z</time>
      </trkpt>
      <trkpt lat="45.83813" lon="6.4288">
        <ele>1603</ele>
        <time>2018-10-17T07:16:57Z</time>
      </trkpt>
      <trkpt lat="45.83814" lon="6.42883">
        <ele>1603</ele>
        <time>2018-10-17T07:16:58Z</time>
      </trkpt>
      <trkpt lat="45.83814" lon="6.42883">
        <ele>1604</ele>
        <time>2018-10-17T07:16:59Z</time>
      </trkpt>
      <trkpt lat="45.83814" lon="6.42883">
        <ele>1604</ele>
        <time>2018-10-17T07:17:00Z</time>
      </trkpt>
      <trkpt lat="45.83814" lon="6.42883">
        <ele>1604</ele>
        <time>2018-10-17T07:17:01Z</time>
      </trkpt>
      <trkpt lat="45.83814" lon="6.42883">
        <ele>1604</ele>
        <time>2018-10-17T07:17:02Z</time>
      </trkpt>
      <trkpt lat="45.83815" lon="6.42885">
        <ele>1604</ele>
        <time>2018-10-17T07:17:03Z</time>
      </trkpt>
      <trkpt lat="45.83815" lon="6.42885">
        <ele>1604</ele>
        <time>2018-10-17T07:17:04Z</time>
      </trkpt>
      <trkpt lat="45.83815" lon="6.42885">
        <ele>1605</ele>
        <time>2018-10-17T07:17:05Z</time>
      </trkpt>
      <trkpt lat="45.83815" lon="6.42885">
        <ele>1605</ele>
        <time>2018-10-17T07:17:06Z</time>
      </trkpt>
      <trkpt lat="45.83816" lon="6.42888">
        <ele>1605</ele>
        <time>2018-10-17T07:17:07Z</time>
      </trkpt>
      <trkpt lat="45.83816" lon="6.42888">
        <ele>1606</ele>
        <time>2018-10-17T07:17:08Z</time>
      </trkpt>
      <trkpt lat="45.83816" lon="6.42888">
        <ele>1606</ele>
        <time>2018-10-17T07:17:09Z</time>
      </trkpt>
      <trkpt lat="45.83816" lon="6.42888">
        <ele>1606</ele>
        <time>2018-10-17T07:17:10Z</time>
      </trkpt>
      <trkpt lat="45.83816" lon="6.42891">
        <ele>1606</ele>
        <time>2018-10-17T07:17:11Z</time>
      </trkpt>
      <trkpt lat="45.83816" lon="6.42891">
        <ele>1607</ele>
        <time>2018-10-17T07:17:12Z</time>
      </trkpt>
      <trkpt lat="45.83816" lon="6.42891">
        <ele>1607</ele>
        <time>2018-10-17T07:17:13Z</time>
      </trkpt>
      <trkpt lat="45.83816" lon="6.42891">
        <ele>1608</ele>
        <time>2018-10-17T07:17:14Z</time>
      </trkpt>
      <trkpt lat="45.83817" lon="6.42894">
        <ele>1608</ele>
        <time>2018-10-17T07:17:15Z</time>
      </trkpt>
      <trkpt lat="45.83817" lon="6.42894">
        <ele>1608</ele>
        <time>2018-10-17T07:17:16Z</time>
      </trkpt>
      <trkpt lat="45.83817" lon="6.42894">
        <ele>1608</ele>
        <time>2018-10-17T07:17:17Z</time>
      </trkpt>
      <trkpt lat="45.83818" lon="6.42897">
        <ele>1609</ele>
        <time>2018-10-17T07:17:18Z</time>
      </trkpt>
      <trkpt lat="45.83818" lon="6.42897">
        <ele>1609</ele>
        <time>2018-10-17T07:17:19Z</time>
      </trkpt>
      <trkpt lat="45.83818" lon="6.42897">
        <ele>1609</ele>
        <time>2018-10-17T07:17:20Z</time>
      </trkpt>
      <trkpt lat="45.83818" lon="6.429">
        <ele>1609</ele>
        <time>2018-10-17T07:17:21Z</time>
      </trkpt>
      <trkpt lat="45.83818" lon="6.429">
        <ele>1609</ele>
        <time>2018-10-17T07:17:22Z</time>
      </trkpt>
      <trkpt lat="45.83818" lon="6.429">
        <ele>1609</ele>
        <time>2018-10-17T07:17:23Z</time>
      </trkpt>
      <trkpt lat="45.83818" lon="6.429">
        <ele>1610</ele>
        <time>2018-10-17T07:17:24Z</time>
      </trkpt>
      <trkpt lat="45.83819" lon="6.42903">
        <ele>1610</ele>
        <time>2018-10-17T07:17:25Z</time>
      </trkpt>
      <trkpt lat="45.83819" lon="6.42903">
        <ele>1610</ele>
        <time>2018-10-17T07:17:26Z</time>
      </trkpt>
      <trkpt lat="45.83819" lon="6.42903">
        <ele>1610</ele>
        <time>2018-10-17T07:17:27Z</time>
      </trkpt>
      <trkpt lat="45.83819" lon="6.42903">
        <ele>1611</ele>
        <time>2018-10-17T07:17:28Z</time>
      </trkpt>
      <trkpt lat="45.8382" lon="6.42906">
        <ele>1611</ele>
        <time>2018-10-17T07:17:29Z</time>
      </trkpt>
      <trkpt lat="45.8382" lon="6.42906">
        <ele>1612</ele>
        <time>2018-10-17T07:17:30Z</time>
      </trkpt>
      <trkpt lat="45.8382" lon="6.42906">
        <ele>1612</ele>
        <time>2018-10-17T07:17:31Z</time>
      </trkpt>
      <trkpt lat="45.8382" lon="6.42906">
        <ele>1612</ele>
        <time>2018-10-17T07:17:32Z</time>
      </trkpt>
      <trkpt lat="45.83821" lon="6.42908">
        <ele>1612</ele>
        <time>2018-10-17T07:17:33Z</time>
      </trkpt>
      <trkpt lat="45.83821" lon="6.42908">
        <ele>1613</ele>
        <time>2018-10-17T07:17:34Z</time>
      </trkpt>
      <trkpt lat="45.83821" lon="6.42908">
        <ele>1613</ele>
        <time>2018-10-17T07:17:35Z</time>
      </trkpt>
      <trkpt lat="45.83821" lon="6.42908">
        <ele>1613</ele>
        <time>2018-10-17T07:17:36Z</time>
      </trkpt>
      <trkpt lat="45.83821" lon="6.42911">
        <ele>1613</ele>
        <time>2018-10-17T07:17:37Z</time>
      </trkpt>
      <trkpt lat="45.83821" lon="6.42911">
        <ele>1614</ele>
        <time>2018-10-17T07:17:38Z</time>
      </trkpt>
      <trkpt lat="45.83821" lon="6.42911">
        <ele>1614</ele>
        <time>2018-10-17T07:17:39Z</time>
      </trkpt>
      <trkpt lat="45.83821" lon="6.42911">
        <ele>1614</ele>
        <time>2018-10-17T07:17:40Z</time>
      </trkpt>
      <trkpt lat="45.83823" lon="6.42914">
        <ele>1614</ele>
        <time>2018-10-17T07:17:41Z</time>
      </trkpt>
      <trkpt lat="45.83823" lon="6.42914">
        <ele>1615</ele>
        <time>2018-10-17T07:17:42Z</time>
      </trkpt>
      <trkpt lat="45.83823" lon="6.42914">
        <ele>1615</ele>
        <time>2018-10-17T07:17:43Z</time>
      </trkpt>
      <trkpt lat="45.83823" lon="6.42916">
        <ele>1615</ele>
        <time>2018-10-17T07:17:44Z</time>
      </trkpt>
      <trkpt lat="45.83823" lon="6.42916">
        <ele>1616</ele>
        <time>2018-10-17T07:17:45Z</time>
      </trkpt>
      <trkpt lat="45.83823" lon="6.42916">
        <ele>1616</ele>
        <time>2018-10-17T07:17:46Z</time>
      </trkpt>
      <trkpt lat="45.83823" lon="6.42916">
        <ele>1616</ele>
        <time>2018-10-17T07:17:47Z</time>
      </trkpt>
      <trkpt lat="45.83824" lon="6.42919">
        <ele>1616</ele>
        <time>2018-10-17T07:17:48Z</time>
      </trkpt>
      <trkpt lat="45.83824" lon="6.42919">
        <ele>1616</ele>
        <time>2018-10-17T07:17:49Z</time>
      </trkpt>
      <trkpt lat="45.83824" lon="6.42919">
        <ele>1616</ele>
        <time>2018-10-17T07:17:50Z</time>
      </trkpt>
      <trkpt lat="45.83824" lon="6.42919">
        <ele>1616</ele>
        <time>2018-10-17T07:17:51Z</time>
      </trkpt>
      <trkpt lat="45.83825" lon="6.42922">
        <ele>1617</ele>
        <time>2018-10-17T07:17:52Z</time>
      </trkpt>
      <trkpt lat="45.83825" lon="6.42922">
        <ele>1617</ele>
        <time>2018-10-17T07:17:53Z</time>
      </trkpt>
      <trkpt lat="45.83825" lon="6.42922">
        <ele>1617</ele>
        <time>2018-10-17T07:17:54Z</time>
      </trkpt>
      <trkpt lat="45.83825" lon="6.42922">
        <ele>1618</ele>
        <time>2018-10-17T07:17:55Z</time>
      </trkpt>
      <trkpt lat="45.83826" lon="6.42925">
        <ele>1618</ele>
        <time>2018-10-17T07:17:56Z</time>
      </trkpt>
      <trkpt lat="45.83826" lon="6.42925">
        <ele>1618</ele>
        <time>2018-10-17T07:17:57Z</time>
      </trkpt>
      <trkpt lat="45.83826" lon="6.42925">
        <ele>1618</ele>
        <time>2018-10-17T07:17:58Z</time>
      </trkpt>
      <trkpt lat="45.83826" lon="6.42925">
        <ele>1619</ele>
        <time>2018-10-17T07:17:59Z</time>
      </trkpt>
      <trkpt lat="45.83826" lon="6.42928">
        <ele>1619</ele>
        <time>2018-10-17T07:18:00Z</time>
      </trkpt>
      <trkpt lat="45.83826" lon="6.42928">
        <ele>1619</ele>
        <time>2018-10-17T07:18:01Z</time>
      </trkpt>
      <trkpt lat="45.83826" lon="6.42928">
        <ele>1620</ele>
        <time>2018-10-17T07:18:02Z</time>
      </trkpt>
      <trkpt lat="45.83827" lon="6.42931">
        <ele>1620</ele>
        <time>2018-10-17T07:18:03Z</time>
      </trkpt>
      <trkpt lat="45.83827" lon="6.42931">
        <ele>1621</ele>
        <time>2018-10-17T07:18:04Z</time>
      </trkpt>
      <trkpt lat="45.83827" lon="6.42931">
        <ele>1621</ele>
        <time>2018-10-17T07:18:05Z</time>
      </trkpt>
      <trkpt lat="45.83827" lon="6.42931">
        <ele>1621</ele>
        <time>2018-10-17T07:18:06Z</time>
      </trkpt>
      <trkpt lat="45.83827" lon="6.42931">
        <ele>1621</ele>
        <time>2018-10-17T07:18:07Z</time>
      </trkpt>
      <trkpt lat="45.83827" lon="6.42931">
        <ele>1621</ele>
        <time>2018-10-17T07:18:08Z</time>
      </trkpt>
      <trkpt lat="45.83828" lon="6.42933">
        <ele>1621</ele>
        <time>2018-10-17T07:18:09Z</time>
      </trkpt>
      <trkpt lat="45.83828" lon="6.42933">
        <ele>1622</ele>
        <time>2018-10-17T07:18:10Z</time>
      </trkpt>
      <trkpt lat="45.83828" lon="6.42933">
        <ele>1622</ele>
        <time>2018-10-17T07:18:11Z</time>
      </trkpt>
      <trkpt lat="45.83828" lon="6.42933">
        <ele>1622</ele>
        <time>2018-10-17T07:18:12Z</time>
      </trkpt>
      <trkpt lat="45.83829" lon="6.42936">
        <ele>1622</ele>
        <time>2018-10-17T07:18:13Z</time>
      </trkpt>
      <trkpt lat="45.83829" lon="6.42936">
        <ele>1622</ele>
        <time>2018-10-17T07:18:14Z</time>
      </trkpt>
      <trkpt lat="45.83829" lon="6.42936">
        <ele>1622</ele>
        <time>2018-10-17T07:18:15Z</time>
      </trkpt>
      <trkpt lat="45.8383" lon="6.42938">
        <ele>1622</ele>
        <time>2018-10-17T07:18:16Z</time>
      </trkpt>
      <trkpt lat="45.8383" lon="6.42938">
        <ele>1623</ele>
        <time>2018-10-17T07:18:17Z</time>
      </trkpt>
      <trkpt lat="45.8383" lon="6.42938">
        <ele>1623</ele>
        <time>2018-10-17T07:18:18Z</time>
      </trkpt>
      <trkpt lat="45.8383" lon="6.42938">
        <ele>1624</ele>
        <time>2018-10-17T07:18:19Z</time>
      </trkpt>
      <trkpt lat="45.83831" lon="6.42941">
        <ele>1624</ele>
        <time>2018-10-17T07:18:20Z</time>
      </trkpt>
      <trkpt lat="45.83831" lon="6.42941">
        <ele>1624</ele>
        <time>2018-10-17T07:18:21Z</time>
      </trkpt>
      <trkpt lat="45.83831" lon="6.42941">
        <ele>1624</ele>
        <time>2018-10-17T07:18:22Z</time>
      </trkpt>
      <trkpt lat="45.83831" lon="6.42941">
        <ele>1624</ele>
        <time>2018-10-17T07:18:23Z</time>
      </trkpt>
      <trkpt lat="45.83832" lon="6.42943">
        <ele>1625</ele>
        <time>2018-10-17T07:18:24Z</time>
      </trkpt>
      <trkpt lat="45.83832" lon="6.42943">
        <ele>1626</ele>
        <time>2018-10-17T07:18:25Z</time>
      </trkpt>
      <trkpt lat="45.83832" lon="6.42943">
        <ele>1626</ele>
        <time>2018-10-17T07:18:26Z</time>
      </trkpt>
      <trkpt lat="45.83832" lon="6.42943">
        <ele>1626</ele>
        <time>2018-10-17T07:18:27Z</time>
      </trkpt>
      <trkpt lat="45.83832" lon="6.42946">
        <ele>1626</ele>
        <time>2018-10-17T07:18:28Z</time>
      </trkpt>
      <trkpt lat="45.83832" lon="6.42946">
        <ele>1626</ele>
        <time>2018-10-17T07:18:29Z</time>
      </trkpt>
      <trkpt lat="45.83832" lon="6.42946">
        <ele>1626</ele>
        <time>2018-10-17T07:18:30Z</time>
      </trkpt>
      <trkpt lat="45.83832" lon="6.42946">
        <ele>1627</ele>
        <time>2018-10-17T07:18:31Z</time>
      </trkpt>
      <trkpt lat="45.83832" lon="6.42946">
        <ele>1627</ele>
        <time>2018-10-17T07:18:32Z</time>
      </trkpt>
      <trkpt lat="45.83832" lon="6.42946">
        <ele>1627</ele>
        <time>2018-10-17T07:18:33Z</time>
      </trkpt>
      <trkpt lat="45.83834" lon="6.42949">
        <ele>1627</ele>
        <time>2018-10-17T07:18:34Z</time>
      </trkpt>
      <trkpt lat="45.83834" lon="6.42949">
        <ele>1627</ele>
        <time>2018-10-17T07:18:35Z</time>
      </trkpt>
      <trkpt lat="45.83834" lon="6.42949">
        <ele>1627</ele>
        <time>2018-10-17T07:18:36Z</time>
      </trkpt>
      <trkpt lat="45.83834" lon="6.42951">
        <ele>1627</ele>
        <time>2018-10-17T07:18:37Z</time>
      </trkpt>
      <trkpt lat="45.83834" lon="6.42951">
        <ele>1627</ele>
        <time>2018-10-17T07:18:38Z</time>
      </trkpt>
      <trkpt lat="45.83834" lon="6.42951">
        <ele>1628</ele>
        <time>2018-10-17T07:18:39Z</time>
      </trkpt>
      <trkpt lat="45.83834" lon="6.42951">
        <ele>1628</ele>
        <time>2018-10-17T07:18:40Z</time>
      </trkpt>
      <trkpt lat="45.83834" lon="6.42951">
        <ele>1628</ele>
        <time>2018-10-17T07:18:41Z</time>
      </trkpt>
      <trkpt lat="45.83834" lon="6.42954">
        <ele>1628</ele>
        <time>2018-10-17T07:18:42Z</time>
      </trkpt>
      <trkpt lat="45.83834" lon="6.42954">
        <ele>1629</ele>
        <time>2018-10-17T07:18:43Z</time>
      </trkpt>
      <trkpt lat="45.83834" lon="6.42954">
        <ele>1630</ele>
        <time>2018-10-17T07:18:44Z</time>
      </trkpt>
      <trkpt lat="45.83834" lon="6.42954">
        <ele>1630</ele>
        <time>2018-10-17T07:18:45Z</time>
      </trkpt>
      <trkpt lat="45.83836" lon="6.42955">
        <ele>1630</ele>
        <time>2018-10-17T07:18:46Z</time>
      </trkpt>
      <trkpt lat="45.83836" lon="6.42955">
        <ele>1630</ele>
        <time>2018-10-17T07:18:47Z</time>
      </trkpt>
      <trkpt lat="45.83836" lon="6.42955">
        <ele>1630</ele>
        <time>2018-10-17T07:18:48Z</time>
      </trkpt>
      <trkpt lat="45.83836" lon="6.42955">
        <ele>1631</ele>
        <time>2018-10-17T07:18:49Z</time>
      </trkpt>
      <trkpt lat="45.83836" lon="6.42958">
        <ele>1631</ele>
        <time>2018-10-17T07:18:50Z</time>
      </trkpt>
      <trkpt lat="45.83836" lon="6.42958">
        <ele>1631</ele>
        <time>2018-10-17T07:18:51Z</time>
      </trkpt>
      <trkpt lat="45.83836" lon="6.42958">
        <ele>1632</ele>
        <time>2018-10-17T07:18:52Z</time>
      </trkpt>
      <trkpt lat="45.83836" lon="6.42958">
        <ele>1632</ele>
        <time>2018-10-17T07:18:53Z</time>
      </trkpt>
      <trkpt lat="45.83836" lon="6.42958">
        <ele>1632</ele>
        <time>2018-10-17T07:18:54Z</time>
      </trkpt>
      <trkpt lat="45.83837" lon="6.42961">
        <ele>1632</ele>
        <time>2018-10-17T07:18:55Z</time>
      </trkpt>
      <trkpt lat="45.83837" lon="6.42961">
        <ele>1632</ele>
        <time>2018-10-17T07:18:56Z</time>
      </trkpt>
      <trkpt lat="45.83837" lon="6.42961">
        <ele>1633</ele>
        <time>2018-10-17T07:18:57Z</time>
      </trkpt>
      <trkpt lat="45.83838" lon="6.42963">
        <ele>1633</ele>
        <time>2018-10-17T07:18:58Z</time>
      </trkpt>
      <trkpt lat="45.83838" lon="6.42963">
        <ele>1634</ele>
        <time>2018-10-17T07:18:59Z</time>
      </trkpt>
      <trkpt lat="45.83838" lon="6.42963">
        <ele>1634</ele>
        <time>2018-10-17T07:19:00Z</time>
      </trkpt>
      <trkpt lat="45.83839" lon="6.42966">
        <ele>1634</ele>
        <time>2018-10-17T07:19:01Z</time>
      </trkpt>
      <trkpt lat="45.83839" lon="6.42966">
        <ele>1634</ele>
        <time>2018-10-17T07:19:02Z</time>
      </trkpt>
      <trkpt lat="45.83839" lon="6.42966">
        <ele>1634</ele>
        <time>2018-10-17T07:19:03Z</time>
      </trkpt>
      <trkpt lat="45.83841" lon="6.42969">
        <ele>1634</ele>
        <time>2018-10-17T07:19:04Z</time>
      </trkpt>
      <trkpt lat="45.83841" lon="6.42969">
        <ele>1634</ele>
        <time>2018-10-17T07:19:05Z</time>
      </trkpt>
      <trkpt lat="45.83841" lon="6.42969">
        <ele>1635</ele>
        <time>2018-10-17T07:19:06Z</time>
      </trkpt>
      <trkpt lat="45.83841" lon="6.42971">
        <ele>1635</ele>
        <time>2018-10-17T07:19:07Z</time>
      </trkpt>
      <trkpt lat="45.83841" lon="6.42971">
        <ele>1635</ele>
        <time>2018-10-17T07:19:08Z</time>
      </trkpt>
      <trkpt lat="45.83841" lon="6.42971">
        <ele>1636</ele>
        <time>2018-10-17T07:19:09Z</time>
      </trkpt>
      <trkpt lat="45.83841" lon="6.42971">
        <ele>1636</ele>
        <time>2018-10-17T07:19:10Z</time>
      </trkpt>
      <trkpt lat="45.83842" lon="6.42974">
        <ele>1636</ele>
        <time>2018-10-17T07:19:11Z</time>
      </trkpt>
      <trkpt lat="45.83842" lon="6.42974">
        <ele>1637</ele>
        <time>2018-10-17T07:19:12Z</time>
      </trkpt>
      <trkpt lat="45.83842" lon="6.42974">
        <ele>1637</ele>
        <time>2018-10-17T07:19:13Z</time>
      </trkpt>
      <trkpt lat="45.83842" lon="6.42974">
        <ele>1637</ele>
        <time>2018-10-17T07:19:14Z</time>
      </trkpt>
      <trkpt lat="45.83843" lon="6.42977">
        <ele>1637</ele>
        <time>2018-10-17T07:19:15Z</time>
      </trkpt>
      <trkpt lat="45.83843" lon="6.42977">
        <ele>1637</ele>
        <time>2018-10-17T07:19:16Z</time>
      </trkpt>
      <trkpt lat="45.83843" lon="6.42977">
        <ele>1638</ele>
        <time>2018-10-17T07:19:17Z</time>
      </trkpt>
      <trkpt lat="45.83845" lon="6.42979">
        <ele>1638</ele>
        <time>2018-10-17T07:19:18Z</time>
      </trkpt>
      <trkpt lat="45.83845" lon="6.42979">
        <ele>1638</ele>
        <time>2018-10-17T07:19:19Z</time>
      </trkpt>
      <trkpt lat="45.83845" lon="6.42979">
        <ele>1638</ele>
        <time>2018-10-17T07:19:20Z</time>
      </trkpt>
      <trkpt lat="45.83845" lon="6.42979">
        <ele>1639</ele>
        <time>2018-10-17T07:19:21Z</time>
      </trkpt>
      <trkpt lat="45.83846" lon="6.42982">
        <ele>1639</ele>
        <time>2018-10-17T07:19:22Z</time>
      </trkpt>
      <trkpt lat="45.83846" lon="6.42982">
        <ele>1639</ele>
        <time>2018-10-17T07:19:23Z</time>
      </trkpt>
      <trkpt lat="45.83846" lon="6.42982">
        <ele>1640</ele>
        <time>2018-10-17T07:19:24Z</time>
      </trkpt>
      <trkpt lat="45.83847" lon="6.42984">
        <ele>1640</ele>
        <time>2018-10-17T07:19:25Z</time>
      </trkpt>
      <trkpt lat="45.83847" lon="6.42984">
        <ele>1640</ele>
        <time>2018-10-17T07:19:26Z</time>
      </trkpt>
      <trkpt lat="45.83847" lon="6.42984">
        <ele>1640</ele>
        <time>2018-10-17T07:19:27Z</time>
      </trkpt>
      <trkpt lat="45.83847" lon="6.42984">
        <ele>1641</ele>
        <time>2018-10-17T07:19:28Z</time>
      </trkpt>
      <trkpt lat="45.83848" lon="6.42987">
        <ele>1641</ele>
        <time>2018-10-17T07:19:29Z</time>
      </trkpt>
      <trkpt lat="45.83848" lon="6.42987">
        <ele>1641</ele>
        <time>2018-10-17T07:19:30Z</time>
      </trkpt>
      <trkpt lat="45.83848" lon="6.42987">
        <ele>1641</ele>
        <time>2018-10-17T07:19:31Z</time>
      </trkpt>
      <trkpt lat="45.8385" lon="6.42989">
        <ele>1642</ele>
        <time>2018-10-17T07:19:32Z</time>
      </trkpt>
      <trkpt lat="45.8385" lon="6.42989">
        <ele>1642</ele>
        <time>2018-10-17T07:19:33Z</time>
      </trkpt>
      <trkpt lat="45.8385" lon="6.42989">
        <ele>1641</ele>
        <time>2018-10-17T07:19:34Z</time>
      </trkpt>
      <trkpt lat="45.83852" lon="6.42991">
        <ele>1641</ele>
        <time>2018-10-17T07:19:35Z</time>
      </trkpt>
      <trkpt lat="45.83852" lon="6.42991">
        <ele>1642</ele>
        <time>2018-10-17T07:19:36Z</time>
      </trkpt>
      <trkpt lat="45.83852" lon="6.42991">
        <ele>1642</ele>
        <time>2018-10-17T07:19:37Z</time>
      </trkpt>
      <trkpt lat="45.83854" lon="6.4299">
        <ele>1642</ele>
        <time>2018-10-17T07:19:38Z</time>
      </trkpt>
      <trkpt lat="45.83854" lon="6.4299">
        <ele>1642</ele>
        <time>2018-10-17T07:19:39Z</time>
      </trkpt>
      <trkpt lat="45.83856" lon="6.42991">
        <ele>1641</ele>
        <time>2018-10-17T07:19:40Z</time>
      </trkpt>
      <trkpt lat="45.83856" lon="6.42991">
        <ele>1641</ele>
        <time>2018-10-17T07:19:41Z</time>
      </trkpt>
      <trkpt lat="45.83858" lon="6.42992">
        <ele>1641</ele>
        <time>2018-10-17T07:19:42Z</time>
      </trkpt>
      <trkpt lat="45.83858" lon="6.42992">
        <ele>1641</ele>
        <time>2018-10-17T07:19:43Z</time>
      </trkpt>
      <trkpt lat="45.83858" lon="6.42992">
        <ele>1641</ele>
        <time>2018-10-17T07:19:44Z</time>
      </trkpt>
      <trkpt lat="45.83861" lon="6.42993">
        <ele>1641</ele>
        <time>2018-10-17T07:19:45Z</time>
      </trkpt>
      <trkpt lat="45.83861" lon="6.42993">
        <ele>1641</ele>
        <time>2018-10-17T07:19:46Z</time>
      </trkpt>
      <trkpt lat="45.83863" lon="6.42994">
        <ele>1641</ele>
        <time>2018-10-17T07:19:47Z</time>
      </trkpt>
      <trkpt lat="45.83863" lon="6.42994">
        <ele>1641</ele>
        <time>2018-10-17T07:19:48Z</time>
      </trkpt>
      <trkpt lat="45.83865" lon="6.42994">
        <ele>1641</ele>
        <time>2018-10-17T07:19:49Z</time>
      </trkpt>
      <trkpt lat="45.83865" lon="6.42994">
        <ele>1641</ele>
        <time>2018-10-17T07:19:50Z</time>
      </trkpt>
      <trkpt lat="45.83867" lon="6.42995">
        <ele>1641</ele>
        <time>2018-10-17T07:19:51Z</time>
      </trkpt>
      <trkpt lat="45.83867" lon="6.42995">
        <ele>1641</ele>
        <time>2018-10-17T07:19:52Z</time>
      </trkpt>
      <trkpt lat="45.83869" lon="6.42995">
        <ele>1641</ele>
        <time>2018-10-17T07:19:53Z</time>
      </trkpt>
      <trkpt lat="45.83869" lon="6.42995">
        <ele>1641</ele>
        <time>2018-10-17T07:19:54Z</time>
      </trkpt>
      <trkpt lat="45.83871" lon="6.42996">
        <ele>1641</ele>
        <time>2018-10-17T07:19:55Z</time>
      </trkpt>
      <trkpt lat="45.83871" lon="6.42996">
        <ele>1641</ele>
        <time>2018-10-17T07:19:56Z</time>
      </trkpt>
      <trkpt lat="45.83873" lon="6.42997">
        <ele>1641</ele>
        <time>2018-10-17T07:19:57Z</time>
      </trkpt>
      <trkpt lat="45.83873" lon="6.42997">
        <ele>1641</ele>
        <time>2018-10-17T07:19:58Z</time>
      </trkpt>
      <trkpt lat="45.83873" lon="6.42997">
        <ele>1641</ele>
        <time>2018-10-17T07:19:59Z</time>
      </trkpt>
      <trkpt lat="45.83876" lon="6.42998">
        <ele>1641</ele>
        <time>2018-10-17T07:20:00Z</time>
      </trkpt>
      <trkpt lat="45.83876" lon="6.42998">
        <ele>1641</ele>
        <time>2018-10-17T07:20:01Z</time>
      </trkpt>
      <trkpt lat="45.83878" lon="6.42999">
        <ele>1641</ele>
        <time>2018-10-17T07:20:02Z</time>
      </trkpt>
      <trkpt lat="45.83878" lon="6.42999">
        <ele>1642</ele>
        <time>2018-10-17T07:20:03Z</time>
      </trkpt>
      <trkpt lat="45.8388" lon="6.43">
        <ele>1642</ele>
        <time>2018-10-17T07:20:04Z</time>
      </trkpt>
      <trkpt lat="45.8388" lon="6.43">
        <ele>1642</ele>
        <time>2018-10-17T07:20:05Z</time>
      </trkpt>
      <trkpt lat="45.83882" lon="6.43">
        <ele>1642</ele>
        <time>2018-10-17T07:20:06Z</time>
      </trkpt>
      <trkpt lat="45.83882" lon="6.43">
        <ele>1642</ele>
        <time>2018-10-17T07:20:07Z</time>
      </trkpt>
      <trkpt lat="45.83884" lon="6.43001">
        <ele>1642</ele>
        <time>2018-10-17T07:20:08Z</time>
      </trkpt>
      <trkpt lat="45.83884" lon="6.43001">
        <ele>1642</ele>
        <time>2018-10-17T07:20:09Z</time>
      </trkpt>
      <trkpt lat="45.83884" lon="6.43001">
        <ele>1642</ele>
        <time>2018-10-17T07:20:10Z</time>
      </trkpt>
      <trkpt lat="45.83884" lon="6.43001">
        <ele>1642</ele>
        <time>2018-10-17T07:20:11Z</time>
      </trkpt>
      <trkpt lat="45.83884" lon="6.43001">
        <ele>1642</ele>
        <time>2018-10-17T07:20:12Z</time>
      </trkpt>
      <trkpt lat="45.83886" lon="6.43001">
        <ele>1642</ele>
        <time>2018-10-17T07:20:13Z</time>
      </trkpt>
      <trkpt lat="45.83886" lon="6.43001">
        <ele>1642</ele>
        <time>2018-10-17T07:20:14Z</time>
      </trkpt>
      <trkpt lat="45.83888" lon="6.43002">
        <ele>1642</ele>
        <time>2018-10-17T07:20:15Z</time>
      </trkpt>
      <trkpt lat="45.83888" lon="6.43002">
        <ele>1642</ele>
        <time>2018-10-17T07:20:16Z</time>
      </trkpt>
      <trkpt lat="45.8389" lon="6.43003">
        <ele>1642</ele>
        <time>2018-10-17T07:20:17Z</time>
      </trkpt>
      <trkpt lat="45.8389" lon="6.43003">
        <ele>1642</ele>
        <time>2018-10-17T07:20:18Z</time>
      </trkpt>
      <trkpt lat="45.83892" lon="6.43004">
        <ele>1642</ele>
        <time>2018-10-17T07:20:19Z</time>
      </trkpt>
      <trkpt lat="45.83892" lon="6.43004">
        <ele>1642</ele>
        <time>2018-10-17T07:20:20Z</time>
      </trkpt>
      <trkpt lat="45.83892" lon="6.43004">
        <ele>1642</ele>
        <time>2018-10-17T07:20:21Z</time>
      </trkpt>
      <trkpt lat="45.83895" lon="6.43005">
        <ele>1642</ele>
        <time>2018-10-17T07:20:22Z</time>
      </trkpt>
      <trkpt lat="45.83895" lon="6.43005">
        <ele>1642</ele>
        <time>2018-10-17T07:20:23Z</time>
      </trkpt>
      <trkpt lat="45.83897" lon="6.43006">
        <ele>1642</ele>
        <time>2018-10-17T07:20:24Z</time>
      </trkpt>
      <trkpt lat="45.83897" lon="6.43006">
        <ele>1642</ele>
        <time>2018-10-17T07:20:25Z</time>
      </trkpt>
      <trkpt lat="45.83899" lon="6.43008">
        <ele>1642</ele>
        <time>2018-10-17T07:20:26Z</time>
      </trkpt>
      <trkpt lat="45.83899" lon="6.43008">
        <ele>1642</ele>
        <time>2018-10-17T07:20:27Z</time>
      </trkpt>
      <trkpt lat="45.83899" lon="6.43008">
        <ele>1642</ele>
        <time>2018-10-17T07:20:28Z</time>
      </trkpt>
      <trkpt lat="45.83901" lon="6.43009">
        <ele>1642</ele>
        <time>2018-10-17T07:20:29Z</time>
      </trkpt>
      <trkpt lat="45.83901" lon="6.43009">
        <ele>1642</ele>
        <time>2018-10-17T07:20:30Z</time>
      </trkpt>
      <trkpt lat="45.83903" lon="6.4301">
        <ele>1642</ele>
        <time>2018-10-17T07:20:31Z</time>
      </trkpt>
      <trkpt lat="45.83903" lon="6.4301">
        <ele>1641</ele>
        <time>2018-10-17T07:20:32Z</time>
      </trkpt>
      <trkpt lat="45.83904" lon="6.43012">
        <ele>1641</ele>
        <time>2018-10-17T07:20:33Z</time>
      </trkpt>
      <trkpt lat="45.83904" lon="6.43012">
        <ele>1641</ele>
        <time>2018-10-17T07:20:34Z</time>
      </trkpt>
      <trkpt lat="45.83904" lon="6.43012">
        <ele>1641</ele>
        <time>2018-10-17T07:20:35Z</time>
      </trkpt>
      <trkpt lat="45.83905" lon="6.43015">
        <ele>1642</ele>
        <time>2018-10-17T07:20:36Z</time>
      </trkpt>
      <trkpt lat="45.83905" lon="6.43015">
        <ele>1642</ele>
        <time>2018-10-17T07:20:37Z</time>
      </trkpt>
      <trkpt lat="45.83905" lon="6.43015">
        <ele>1642</ele>
        <time>2018-10-17T07:20:38Z</time>
      </trkpt>
      <trkpt lat="45.83905" lon="6.43015">
        <ele>1642</ele>
        <time>2018-10-17T07:20:39Z</time>
      </trkpt>
      <trkpt lat="45.83906" lon="6.43017">
        <ele>1642</ele>
        <time>2018-10-17T07:20:40Z</time>
      </trkpt>
      <trkpt lat="45.83906" lon="6.43017">
        <ele>1642</ele>
        <time>2018-10-17T07:20:41Z</time>
      </trkpt>
      <trkpt lat="45.83906" lon="6.43017">
        <ele>1642</ele>
        <time>2018-10-17T07:20:42Z</time>
      </trkpt>
      <trkpt lat="45.83906" lon="6.43017">
        <ele>1642</ele>
        <time>2018-10-17T07:20:43Z</time>
      </trkpt>
      <trkpt lat="45.83908" lon="6.4302">
        <ele>1641</ele>
        <time>2018-10-17T07:20:44Z</time>
      </trkpt>
      <trkpt lat="45.83908" lon="6.4302">
        <ele>1641</ele>
        <time>2018-10-17T07:20:45Z</time>
      </trkpt>
      <trkpt lat="45.83908" lon="6.4302">
        <ele>1641</ele>
        <time>2018-10-17T07:20:46Z</time>
      </trkpt>
      <trkpt lat="45.83908" lon="6.43023">
        <ele>1641</ele>
        <time>2018-10-17T07:20:47Z</time>
      </trkpt>
      <trkpt lat="45.83908" lon="6.43023">
        <ele>1641</ele>
        <time>2018-10-17T07:20:48Z</time>
      </trkpt>
      <trkpt lat="45.83908" lon="6.43023">
        <ele>1641</ele>
        <time>2018-10-17T07:20:49Z</time>
      </trkpt>
      <trkpt lat="45.83908" lon="6.43026">
        <ele>1641</ele>
        <time>2018-10-17T07:20:50Z</time>
      </trkpt>
      <trkpt lat="45.83908" lon="6.43026">
        <ele>1641</ele>
        <time>2018-10-17T07:20:51Z</time>
      </trkpt>
      <trkpt lat="45.83908" lon="6.43026">
        <ele>1641</ele>
        <time>2018-10-17T07:20:52Z</time>
      </trkpt>
      <trkpt lat="45.83908" lon="6.43029">
        <ele>1641</ele>
        <time>2018-10-17T07:20:53Z</time>
      </trkpt>
      <trkpt lat="45.83908" lon="6.43029">
        <ele>1641</ele>
        <time>2018-10-17T07:20:54Z</time>
      </trkpt>
      <trkpt lat="45.83908" lon="6.43029">
        <ele>1641</ele>
        <time>2018-10-17T07:20:55Z</time>
      </trkpt>
      <trkpt lat="45.83909" lon="6.43032">
        <ele>1640</ele>
        <time>2018-10-17T07:20:56Z</time>
      </trkpt>
      <trkpt lat="45.83909" lon="6.43032">
        <ele>1640</ele>
        <time>2018-10-17T07:20:57Z</time>
      </trkpt>
      <trkpt lat="45.83909" lon="6.43032">
        <ele>1640</ele>
        <time>2018-10-17T07:20:58Z</time>
      </trkpt>
      <trkpt lat="45.8391" lon="6.43035">
        <ele>1640</ele>
        <time>2018-10-17T07:20:59Z</time>
      </trkpt>
      <trkpt lat="45.8391" lon="6.43035">
        <ele>1640</ele>
        <time>2018-10-17T07:21:00Z</time>
      </trkpt>
      <trkpt lat="45.83912" lon="6.43037">
        <ele>1639</ele>
        <time>2018-10-17T07:21:01Z</time>
      </trkpt>
      <trkpt lat="45.83912" lon="6.43037">
        <ele>1640</ele>
        <time>2018-10-17T07:21:02Z</time>
      </trkpt>
      <trkpt lat="45.83912" lon="6.43037">
        <ele>1640</ele>
        <time>2018-10-17T07:21:03Z</time>
      </trkpt>
      <trkpt lat="45.83914" lon="6.43037">
        <ele>1640</ele>
        <time>2018-10-17T07:21:04Z</time>
      </trkpt>
      <trkpt lat="45.83914" lon="6.43037">
        <ele>1640</ele>
        <time>2018-10-17T07:21:05Z</time>
      </trkpt>
      <trkpt lat="45.83914" lon="6.43037">
        <ele>1640</ele>
        <time>2018-10-17T07:21:06Z</time>
      </trkpt>
      <trkpt lat="45.83916" lon="6.43035">
        <ele>1640</ele>
        <time>2018-10-17T07:21:07Z</time>
      </trkpt>
      <trkpt lat="45.83916" lon="6.43035">
        <ele>1640</ele>
        <time>2018-10-17T07:21:08Z</time>
      </trkpt>
      <trkpt lat="45.83916" lon="6.43035">
        <ele>1640</ele>
        <time>2018-10-17T07:21:09Z</time>
      </trkpt>
      <trkpt lat="45.83918" lon="6.43032">
        <ele>1640</ele>
        <time>2018-10-17T07:21:10Z</time>
      </trkpt>
      <trkpt lat="45.83918" lon="6.43032">
        <ele>1640</ele>
        <time>2018-10-17T07:21:11Z</time>
      </trkpt>
      <trkpt lat="45.83918" lon="6.43032">
        <ele>1640</ele>
        <time>2018-10-17T07:21:12Z</time>
      </trkpt>
      <trkpt lat="45.8392" lon="6.43032">
        <ele>1640</ele>
        <time>2018-10-17T07:21:13Z</time>
      </trkpt>
      <trkpt lat="45.8392" lon="6.43032">
        <ele>1640</ele>
        <time>2018-10-17T07:21:14Z</time>
      </trkpt>
      <trkpt lat="45.83921" lon="6.43034">
        <ele>1640</ele>
        <time>2018-10-17T07:21:15Z</time>
      </trkpt>
      <trkpt lat="45.83921" lon="6.43034">
        <ele>1641</ele>
        <time>2018-10-17T07:21:16Z</time>
      </trkpt>
      <trkpt lat="45.83921" lon="6.43034">
        <ele>1641</ele>
        <time>2018-10-17T07:21:17Z</time>
      </trkpt>
      <trkpt lat="45.83921" lon="6.43034">
        <ele>1641</ele>
        <time>2018-10-17T07:21:18Z</time>
      </trkpt>
      <trkpt lat="45.83923" lon="6.43036">
        <ele>1642</ele>
        <time>2018-10-17T07:21:19Z</time>
      </trkpt>
      <trkpt lat="45.83923" lon="6.43036">
        <ele>1642</ele>
        <time>2018-10-17T07:21:20Z</time>
      </trkpt>
      <trkpt lat="45.83923" lon="6.43036">
        <ele>1642</ele>
        <time>2018-10-17T07:21:21Z</time>
      </trkpt>
      <trkpt lat="45.83925" lon="6.43036">
        <ele>1642</ele>
        <time>2018-10-17T07:21:22Z</time>
      </trkpt>
      <trkpt lat="45.83925" lon="6.43036">
        <ele>1643</ele>
        <time>2018-10-17T07:21:23Z</time>
      </trkpt>
      <trkpt lat="45.83925" lon="6.43036">
        <ele>1643</ele>
        <time>2018-10-17T07:21:24Z</time>
      </trkpt>
      <trkpt lat="45.83927" lon="6.43037">
        <ele>1643</ele>
        <time>2018-10-17T07:21:25Z</time>
      </trkpt>
      <trkpt lat="45.83927" lon="6.43037">
        <ele>1644</ele>
        <time>2018-10-17T07:21:26Z</time>
      </trkpt>
      <trkpt lat="45.83927" lon="6.43037">
        <ele>1645</ele>
        <time>2018-10-17T07:21:27Z</time>
      </trkpt>
      <trkpt lat="45.83927" lon="6.43037">
        <ele>1645</ele>
        <time>2018-10-17T07:21:28Z</time>
      </trkpt>
      <trkpt lat="45.83929" lon="6.43038">
        <ele>1645</ele>
        <time>2018-10-17T07:21:29Z</time>
      </trkpt>
      <trkpt lat="45.83929" lon="6.43038">
        <ele>1645</ele>
        <time>2018-10-17T07:21:30Z</time>
      </trkpt>
      <trkpt lat="45.83929" lon="6.43038">
        <ele>1645</ele>
        <time>2018-10-17T07:21:31Z</time>
      </trkpt>
      <trkpt lat="45.83929" lon="6.43038">
        <ele>1645</ele>
        <time>2018-10-17T07:21:32Z</time>
      </trkpt>
      <trkpt lat="45.83931" lon="6.43039">
        <ele>1645</ele>
        <time>2018-10-17T07:21:33Z</time>
      </trkpt>
      <trkpt lat="45.83931" lon="6.43039">
        <ele>1647</ele>
        <time>2018-10-17T07:21:34Z</time>
      </trkpt>
      <trkpt lat="45.83931" lon="6.43039">
        <ele>1647</ele>
        <time>2018-10-17T07:21:35Z</time>
      </trkpt>
      <trkpt lat="45.83931" lon="6.43039">
        <ele>1647</ele>
        <time>2018-10-17T07:21:36Z</time>
      </trkpt>
      <trkpt lat="45.83932" lon="6.43041">
        <ele>1647</ele>
        <time>2018-10-17T07:21:37Z</time>
      </trkpt>
      <trkpt lat="45.83932" lon="6.43041">
        <ele>1647</ele>
        <time>2018-10-17T07:21:38Z</time>
      </trkpt>
      <trkpt lat="45.83932" lon="6.43041">
        <ele>1647</ele>
        <time>2018-10-17T07:21:39Z</time>
      </trkpt>
      <trkpt lat="45.83932" lon="6.43041">
        <ele>1648</ele>
        <time>2018-10-17T07:21:40Z</time>
      </trkpt>
      <trkpt lat="45.83932" lon="6.43041">
        <ele>1648</ele>
        <time>2018-10-17T07:21:41Z</time>
      </trkpt>
      <trkpt lat="45.83934" lon="6.43042">
        <ele>1649</ele>
        <time>2018-10-17T07:21:42Z</time>
      </trkpt>
      <trkpt lat="45.83934" lon="6.43042">
        <ele>1649</ele>
        <time>2018-10-17T07:21:43Z</time>
      </trkpt>
      <trkpt lat="45.83934" lon="6.43042">
        <ele>1649</ele>
        <time>2018-10-17T07:21:44Z</time>
      </trkpt>
      <trkpt lat="45.83934" lon="6.43042">
        <ele>1649</ele>
        <time>2018-10-17T07:21:45Z</time>
      </trkpt>
      <trkpt lat="45.83934" lon="6.43042">
        <ele>1649</ele>
        <time>2018-10-17T07:21:46Z</time>
      </trkpt>
      <trkpt lat="45.83936" lon="6.43042">
        <ele>1649</ele>
        <time>2018-10-17T07:21:47Z</time>
      </trkpt>
      <trkpt lat="45.83936" lon="6.43042">
        <ele>1650</ele>
        <time>2018-10-17T07:21:48Z</time>
      </trkpt>
      <trkpt lat="45.83936" lon="6.43042">
        <ele>1650</ele>
        <time>2018-10-17T07:21:49Z</time>
      </trkpt>
      <trkpt lat="45.83936" lon="6.43042">
        <ele>1650</ele>
        <time>2018-10-17T07:21:50Z</time>
      </trkpt>
      <trkpt lat="45.83936" lon="6.43042">
        <ele>1650</ele>
        <time>2018-10-17T07:21:51Z</time>
      </trkpt>
      <trkpt lat="45.83936" lon="6.43042">
        <ele>1650</ele>
        <time>2018-10-17T07:21:52Z</time>
      </trkpt>
      <trkpt lat="45.83938" lon="6.43045">
        <ele>1651</ele>
        <time>2018-10-17T07:21:53Z</time>
      </trkpt>
      <trkpt lat="45.83938" lon="6.43045">
        <ele>1651</ele>
        <time>2018-10-17T07:21:54Z</time>
      </trkpt>
      <trkpt lat="45.83938" lon="6.43045">
        <ele>1651</ele>
        <time>2018-10-17T07:21:55Z</time>
      </trkpt>
      <trkpt lat="45.83938" lon="6.43045">
        <ele>1652</ele>
        <time>2018-10-17T07:21:56Z</time>
      </trkpt>
      <trkpt lat="45.83938" lon="6.43045">
        <ele>1652</ele>
        <time>2018-10-17T07:21:57Z</time>
      </trkpt>
      <trkpt lat="45.83939" lon="6.43046">
        <ele>1652</ele>
        <time>2018-10-17T07:21:58Z</time>
      </trkpt>
      <trkpt lat="45.83939" lon="6.43046">
        <ele>1652</ele>
        <time>2018-10-17T07:21:59Z</time>
      </trkpt>
      <trkpt lat="45.83939" lon="6.43046">
        <ele>1653</ele>
        <time>2018-10-17T07:22:00Z</time>
      </trkpt>
      <trkpt lat="45.83939" lon="6.43046">
        <ele>1653</ele>
        <time>2018-10-17T07:22:01Z</time>
      </trkpt>
      <trkpt lat="45.83941" lon="6.43047">
        <ele>1653</ele>
        <time>2018-10-17T07:22:02Z</time>
      </trkpt>
      <trkpt lat="45.83941" lon="6.43047">
        <ele>1653</ele>
        <time>2018-10-17T07:22:03Z</time>
      </trkpt>
      <trkpt lat="45.83941" lon="6.43047">
        <ele>1653</ele>
        <time>2018-10-17T07:22:04Z</time>
      </trkpt>
      <trkpt lat="45.83941" lon="6.43047">
        <ele>1653</ele>
        <time>2018-10-17T07:22:05Z</time>
      </trkpt>
      <trkpt lat="45.83943" lon="6.43048">
        <ele>1654</ele>
        <time>2018-10-17T07:22:06Z</time>
      </trkpt>
      <trkpt lat="45.83943" lon="6.43048">
        <ele>1654</ele>
        <time>2018-10-17T07:22:07Z</time>
      </trkpt>
      <trkpt lat="45.83943" lon="6.43048">
        <ele>1654</ele>
        <time>2018-10-17T07:22:08Z</time>
      </trkpt>
      <trkpt lat="45.83943" lon="6.43048">
        <ele>1655</ele>
        <time>2018-10-17T07:22:09Z</time>
      </trkpt>
      <trkpt lat="45.83945" lon="6.43048">
        <ele>1655</ele>
        <time>2018-10-17T07:22:10Z</time>
      </trkpt>
      <trkpt lat="45.83945" lon="6.43048">
        <ele>1655</ele>
        <time>2018-10-17T07:22:11Z</time>
      </trkpt>
      <trkpt lat="45.83945" lon="6.43048">
        <ele>1655</ele>
        <time>2018-10-17T07:22:12Z</time>
      </trkpt>
      <trkpt lat="45.83947" lon="6.43049">
        <ele>1655</ele>
        <time>2018-10-17T07:22:13Z</time>
      </trkpt>
      <trkpt lat="45.83947" lon="6.43049">
        <ele>1655</ele>
        <time>2018-10-17T07:22:14Z</time>
      </trkpt>
      <trkpt lat="45.83947" lon="6.43049">
        <ele>1655</ele>
        <time>2018-10-17T07:22:15Z</time>
      </trkpt>
      <trkpt lat="45.83949" lon="6.43051">
        <ele>1656</ele>
        <time>2018-10-17T07:22:16Z</time>
      </trkpt>
      <trkpt lat="45.83949" lon="6.43051">
        <ele>1656</ele>
        <time>2018-10-17T07:22:17Z</time>
      </trkpt>
      <trkpt lat="45.83949" lon="6.43051">
        <ele>1656</ele>
        <time>2018-10-17T07:22:18Z</time>
      </trkpt>
      <trkpt lat="45.83949" lon="6.43051">
        <ele>1657</ele>
        <time>2018-10-17T07:22:19Z</time>
      </trkpt>
      <trkpt lat="45.8395" lon="6.43052">
        <ele>1657</ele>
        <time>2018-10-17T07:22:20Z</time>
      </trkpt>
      <trkpt lat="45.8395" lon="6.43052">
        <ele>1657</ele>
        <time>2018-10-17T07:22:21Z</time>
      </trkpt>
      <trkpt lat="45.8395" lon="6.43052">
        <ele>1658</ele>
        <time>2018-10-17T07:22:22Z</time>
      </trkpt>
      <trkpt lat="45.8395" lon="6.43052">
        <ele>1658</ele>
        <time>2018-10-17T07:22:23Z</time>
      </trkpt>
      <trkpt lat="45.83952" lon="6.43053">
        <ele>1658</ele>
        <time>2018-10-17T07:22:24Z</time>
      </trkpt>
      <trkpt lat="45.83952" lon="6.43053">
        <ele>1659</ele>
        <time>2018-10-17T07:22:25Z</time>
      </trkpt>
      <trkpt lat="45.83952" lon="6.43053">
        <ele>1659</ele>
        <time>2018-10-17T07:22:26Z</time>
      </trkpt>
      <trkpt lat="45.83954" lon="6.43055">
        <ele>1659</ele>
        <time>2018-10-17T07:22:27Z</time>
      </trkpt>
      <trkpt lat="45.83954" lon="6.43055">
        <ele>1659</ele>
        <time>2018-10-17T07:22:28Z</time>
      </trkpt>
      <trkpt lat="45.83954" lon="6.43055">
        <ele>1659</ele>
        <time>2018-10-17T07:22:29Z</time>
      </trkpt>
      <trkpt lat="45.83954" lon="6.43055">
        <ele>1660</ele>
        <time>2018-10-17T07:22:30Z</time>
      </trkpt>
      <trkpt lat="45.83955" lon="6.43056">
        <ele>1660</ele>
        <time>2018-10-17T07:22:31Z</time>
      </trkpt>
      <trkpt lat="45.83955" lon="6.43056">
        <ele>1661</ele>
        <time>2018-10-17T07:22:32Z</time>
      </trkpt>
      <trkpt lat="45.83955" lon="6.43056">
        <ele>1661</ele>
        <time>2018-10-17T07:22:33Z</time>
      </trkpt>
      <trkpt lat="45.83955" lon="6.43056">
        <ele>1662</ele>
        <time>2018-10-17T07:22:34Z</time>
      </trkpt>
      <trkpt lat="45.83955" lon="6.43056">
        <ele>1662</ele>
        <time>2018-10-17T07:22:35Z</time>
      </trkpt>
      <trkpt lat="45.83955" lon="6.43056">
        <ele>1662</ele>
        <time>2018-10-17T07:22:36Z</time>
      </trkpt>
      <trkpt lat="45.83957" lon="6.43059">
        <ele>1662</ele>
        <time>2018-10-17T07:22:37Z</time>
      </trkpt>
      <trkpt lat="45.83957" lon="6.43059">
        <ele>1663</ele>
        <time>2018-10-17T07:22:38Z</time>
      </trkpt>
      <trkpt lat="45.83957" lon="6.43059">
        <ele>1663</ele>
        <time>2018-10-17T07:22:39Z</time>
      </trkpt>
      <trkpt lat="45.83957" lon="6.43059">
        <ele>1663</ele>
        <time>2018-10-17T07:22:40Z</time>
      </trkpt>
      <trkpt lat="45.83957" lon="6.43059">
        <ele>1663</ele>
        <time>2018-10-17T07:22:41Z</time>
      </trkpt>
      <trkpt lat="45.83958" lon="6.43061">
        <ele>1664</ele>
        <time>2018-10-17T07:22:42Z</time>
      </trkpt>
      <trkpt lat="45.83958" lon="6.43061">
        <ele>1664</ele>
        <time>2018-10-17T07:22:43Z</time>
      </trkpt>
      <trkpt lat="45.83958" lon="6.43061">
        <ele>1664</ele>
        <time>2018-10-17T07:22:44Z</time>
      </trkpt>
      <trkpt lat="45.83958" lon="6.43061">
        <ele>1664</ele>
        <time>2018-10-17T07:22:45Z</time>
      </trkpt>
      <trkpt lat="45.83959" lon="6.43063">
        <ele>1664</ele>
        <time>2018-10-17T07:22:46Z</time>
      </trkpt>
      <trkpt lat="45.83959" lon="6.43063">
        <ele>1665</ele>
        <time>2018-10-17T07:22:47Z</time>
      </trkpt>
      <trkpt lat="45.83959" lon="6.43063">
        <ele>1665</ele>
        <time>2018-10-17T07:22:48Z</time>
      </trkpt>
      <trkpt lat="45.83959" lon="6.43063">
        <ele>1665</ele>
        <time>2018-10-17T07:22:49Z</time>
      </trkpt>
      <trkpt lat="45.83959" lon="6.43063">
        <ele>1666</ele>
        <time>2018-10-17T07:22:50Z</time>
      </trkpt>
      <trkpt lat="45.83959" lon="6.43063">
        <ele>1666</ele>
        <time>2018-10-17T07:22:51Z</time>
      </trkpt>
      <trkpt lat="45.8396" lon="6.43066">
        <ele>1666</ele>
        <time>2018-10-17T07:22:52Z</time>
      </trkpt>
      <trkpt lat="45.8396" lon="6.43066">
        <ele>1666</ele>
        <time>2018-10-17T07:22:53Z</time>
      </trkpt>
      <trkpt lat="45.8396" lon="6.43066">
        <ele>1667</ele>
        <time>2018-10-17T07:22:54Z</time>
      </trkpt>
      <trkpt lat="45.83961" lon="6.43069">
        <ele>1667</ele>
        <time>2018-10-17T07:22:55Z</time>
      </trkpt>
      <trkpt lat="45.83961" lon="6.43069">
        <ele>1667</ele>
        <time>2018-10-17T07:22:56Z</time>
      </trkpt>
      <trkpt lat="45.83961" lon="6.43069">
        <ele>1667</ele>
        <time>2018-10-17T07:22:57Z</time>
      </trkpt>
      <trkpt lat="45.83961" lon="6.43069">
        <ele>1667</ele>
        <time>2018-10-17T07:22:58Z</time>
      </trkpt>
      <trkpt lat="45.83961" lon="6.43069">
        <ele>1667</ele>
        <time>2018-10-17T07:22:59Z</time>
      </trkpt>
      <trkpt lat="45.83961" lon="6.43069">
        <ele>1667</ele>
        <time>2018-10-17T07:23:00Z</time>
      </trkpt>
      <trkpt lat="45.83961" lon="6.43069">
        <ele>1668</ele>
        <time>2018-10-17T07:23:01Z</time>
      </trkpt>
      <trkpt lat="45.83963" lon="6.43071">
        <ele>1668</ele>
        <time>2018-10-17T07:23:02Z</time>
      </trkpt>
      <trkpt lat="45.83963" lon="6.43071">
        <ele>1668</ele>
        <time>2018-10-17T07:23:03Z</time>
      </trkpt>
      <trkpt lat="45.83963" lon="6.43071">
        <ele>1668</ele>
        <time>2018-10-17T07:23:04Z</time>
      </trkpt>
      <trkpt lat="45.83963" lon="6.43071">
        <ele>1669</ele>
        <time>2018-10-17T07:23:05Z</time>
      </trkpt>
      <trkpt lat="45.83963" lon="6.43071">
        <ele>1669</ele>
        <time>2018-10-17T07:23:06Z</time>
      </trkpt>
      <trkpt lat="45.83963" lon="6.43071">
        <ele>1670</ele>
        <time>2018-10-17T07:23:07Z</time>
      </trkpt>
      <trkpt lat="45.83963" lon="6.43075">
        <ele>1670</ele>
        <time>2018-10-17T07:23:08Z</time>
      </trkpt>
      <trkpt lat="45.83963" lon="6.43075">
        <ele>1670</ele>
        <time>2018-10-17T07:23:09Z</time>
      </trkpt>
      <trkpt lat="45.83963" lon="6.43075">
        <ele>1670</ele>
        <time>2018-10-17T07:23:10Z</time>
      </trkpt>
      <trkpt lat="45.83963" lon="6.43075">
        <ele>1670</ele>
        <time>2018-10-17T07:23:11Z</time>
      </trkpt>
      <trkpt lat="45.83963" lon="6.43075">
        <ele>1671</ele>
        <time>2018-10-17T07:23:12Z</time>
      </trkpt>
      <trkpt lat="45.83964" lon="6.43077">
        <ele>1671</ele>
        <time>2018-10-17T07:23:13Z</time>
      </trkpt>
      <trkpt lat="45.83964" lon="6.43077">
        <ele>1671</ele>
        <time>2018-10-17T07:23:14Z</time>
      </trkpt>
      <trkpt lat="45.83964" lon="6.43077">
        <ele>1671</ele>
        <time>2018-10-17T07:23:15Z</time>
      </trkpt>
      <trkpt lat="45.83964" lon="6.43077">
        <ele>1672</ele>
        <time>2018-10-17T07:23:16Z</time>
      </trkpt>
      <trkpt lat="45.83964" lon="6.43077">
        <ele>1672</ele>
        <time>2018-10-17T07:23:17Z</time>
      </trkpt>
      <trkpt lat="45.83964" lon="6.43077">
        <ele>1672</ele>
        <time>2018-10-17T07:23:18Z</time>
      </trkpt>
      <trkpt lat="45.83964" lon="6.43077">
        <ele>1673</ele>
        <time>2018-10-17T07:23:19Z</time>
      </trkpt>
      <trkpt lat="45.83964" lon="6.43077">
        <ele>1673</ele>
        <time>2018-10-17T07:23:20Z</time>
      </trkpt>
      <trkpt lat="45.83964" lon="6.43077">
        <ele>1673</ele>
        <time>2018-10-17T07:23:21Z</time>
      </trkpt>
      <trkpt lat="45.83964" lon="6.4308">
        <ele>1673</ele>
        <time>2018-10-17T07:23:22Z</time>
      </trkpt>
      <trkpt lat="45.83964" lon="6.4308">
        <ele>1673</ele>
        <time>2018-10-17T07:23:23Z</time>
      </trkpt>
      <trkpt lat="45.83964" lon="6.4308">
        <ele>1673</ele>
        <time>2018-10-17T07:23:24Z</time>
      </trkpt>
      <trkpt lat="45.83964" lon="6.4308">
        <ele>1673</ele>
        <time>2018-10-17T07:23:25Z</time>
      </trkpt>
      <trkpt lat="45.83965" lon="6.43083">
        <ele>1673</ele>
        <time>2018-10-17T07:23:26Z</time>
      </trkpt>
      <trkpt lat="45.83965" lon="6.43083">
        <ele>1674</ele>
        <time>2018-10-17T07:23:27Z</time>
      </trkpt>
      <trkpt lat="45.83965" lon="6.43083">
        <ele>1674</ele>
        <time>2018-10-17T07:23:28Z</time>
      </trkpt>
      <trkpt lat="45.83965" lon="6.43083">
        <ele>1674</ele>
        <time>2018-10-17T07:23:29Z</time>
      </trkpt>
      <trkpt lat="45.83966" lon="6.43086">
        <ele>1675</ele>
        <time>2018-10-17T07:23:30Z</time>
      </trkpt>
      <trkpt lat="45.83966" lon="6.43086">
        <ele>1675</ele>
        <time>2018-10-17T07:23:31Z</time>
      </trkpt>
      <trkpt lat="45.83966" lon="6.43086">
        <ele>1676</ele>
        <time>2018-10-17T07:23:32Z</time>
      </trkpt>
      <trkpt lat="45.83966" lon="6.43086">
        <ele>1676</ele>
        <time>2018-10-17T07:23:33Z</time>
      </trkpt>
      <trkpt lat="45.83966" lon="6.43086">
        <ele>1676</ele>
        <time>2018-10-17T07:23:34Z</time>
      </trkpt>
      <trkpt lat="45.83966" lon="6.43088">
        <ele>1676</ele>
        <time>2018-10-17T07:23:35Z</time>
      </trkpt>
      <trkpt lat="45.83966" lon="6.43088">
        <ele>1676</ele>
        <time>2018-10-17T07:23:36Z</time>
      </trkpt>
      <trkpt lat="45.83966" lon="6.43088">
        <ele>1676</ele>
        <time>2018-10-17T07:23:37Z</time>
      </trkpt>
      <trkpt lat="45.83966" lon="6.43088">
        <ele>1677</ele>
        <time>2018-10-17T07:23:38Z</time>
      </trkpt>
      <trkpt lat="45.83966" lon="6.43088">
        <ele>1677</ele>
        <time>2018-10-17T07:23:39Z</time>
      </trkpt>
      <trkpt lat="45.83965" lon="6.43091">
        <ele>1678</ele>
        <time>2018-10-17T07:23:40Z</time>
      </trkpt>
      <trkpt lat="45.83965" lon="6.43091">
        <ele>1678</ele>
        <time>2018-10-17T07:23:41Z</time>
      </trkpt>
      <trkpt lat="45.83965" lon="6.43091">
        <ele>1678</ele>
        <time>2018-10-17T07:23:42Z</time>
      </trkpt>
      <trkpt lat="45.83965" lon="6.43091">
        <ele>1679</ele>
        <time>2018-10-17T07:23:43Z</time>
      </trkpt>
      <trkpt lat="45.83965" lon="6.43091">
        <ele>1679</ele>
        <time>2018-10-17T07:23:44Z</time>
      </trkpt>
      <trkpt lat="45.83965" lon="6.43091">
        <ele>1679</ele>
        <time>2018-10-17T07:23:45Z</time>
      </trkpt>
      <trkpt lat="45.83966" lon="6.43093">
        <ele>1679</ele>
        <time>2018-10-17T07:23:46Z</time>
      </trkpt>
      <trkpt lat="45.83966" lon="6.43093">
        <ele>1679</ele>
        <time>2018-10-17T07:23:47Z</time>
      </trkpt>
      <trkpt lat="45.83966" lon="6.43093">
        <ele>1679</ele>
        <time>2018-10-17T07:23:48Z</time>
      </trkpt>
      <trkpt lat="45.83966" lon="6.43093">
        <ele>1679</ele>
        <time>2018-10-17T07:23:49Z</time>
      </trkpt>
      <trkpt lat="45.83966" lon="6.43093">
        <ele>1679</ele>
        <time>2018-10-17T07:23:50Z</time>
      </trkpt>
      <trkpt lat="45.83967" lon="6.43096">
        <ele>1679</ele>
        <time>2018-10-17T07:23:51Z</time>
      </trkpt>
      <trkpt lat="45.83967" lon="6.43096">
        <ele>1679</ele>
        <time>2018-10-17T07:23:52Z</time>
      </trkpt>
      <trkpt lat="45.83967" lon="6.43096">
        <ele>1679</ele>
        <time>2018-10-17T07:23:53Z</time>
      </trkpt>
      <trkpt lat="45.83967" lon="6.43096">
        <ele>1679</ele>
        <time>2018-10-17T07:23:54Z</time>
      </trkpt>
      <trkpt lat="45.83967" lon="6.43096">
        <ele>1679</ele>
        <time>2018-10-17T07:23:55Z</time>
      </trkpt>
      <trkpt lat="45.83967" lon="6.43096">
        <ele>1679</ele>
        <time>2018-10-17T07:23:56Z</time>
      </trkpt>
      <trkpt lat="45.83967" lon="6.43096">
        <ele>1679</ele>
        <time>2018-10-17T07:23:57Z</time>
      </trkpt>
      <trkpt lat="45.83967" lon="6.43096">
        <ele>1680</ele>
        <time>2018-10-17T07:23:58Z</time>
      </trkpt>
      <trkpt lat="45.83967" lon="6.43099">
        <ele>1680</ele>
        <time>2018-10-17T07:23:59Z</time>
      </trkpt>
      <trkpt lat="45.83967" lon="6.43099">
        <ele>1680</ele>
        <time>2018-10-17T07:24:00Z</time>
      </trkpt>
      <trkpt lat="45.83967" lon="6.43099">
        <ele>1681</ele>
        <time>2018-10-17T07:24:01Z</time>
      </trkpt>
      <trkpt lat="45.83967" lon="6.43099">
        <ele>1681</ele>
        <time>2018-10-17T07:24:02Z</time>
      </trkpt>
      <trkpt lat="45.83967" lon="6.43099">
        <ele>1681</ele>
        <time>2018-10-17T07:24:03Z</time>
      </trkpt>
      <trkpt lat="45.83967" lon="6.43102">
        <ele>1681</ele>
        <time>2018-10-17T07:24:04Z</time>
      </trkpt>
      <trkpt lat="45.83967" lon="6.43102">
        <ele>1682</ele>
        <time>2018-10-17T07:24:05Z</time>
      </trkpt>
      <trkpt lat="45.83967" lon="6.43102">
        <ele>1682</ele>
        <time>2018-10-17T07:24:06Z</time>
      </trkpt>
      <trkpt lat="45.83967" lon="6.43102">
        <ele>1682</ele>
        <time>2018-10-17T07:24:07Z</time>
      </trkpt>
      <trkpt lat="45.83967" lon="6.43102">
        <ele>1682</ele>
        <time>2018-10-17T07:24:08Z</time>
      </trkpt>
      <trkpt lat="45.83967" lon="6.43102">
        <ele>1683</ele>
        <time>2018-10-17T07:24:09Z</time>
      </trkpt>
      <trkpt lat="45.83967" lon="6.43105">
        <ele>1684</ele>
        <time>2018-10-17T07:24:10Z</time>
      </trkpt>
      <trkpt lat="45.83967" lon="6.43105">
        <ele>1684</ele>
        <time>2018-10-17T07:24:11Z</time>
      </trkpt>
      <trkpt lat="45.83967" lon="6.43105">
        <ele>1684</ele>
        <time>2018-10-17T07:24:12Z</time>
      </trkpt>
      <trkpt lat="45.83967" lon="6.43105">
        <ele>1684</ele>
        <time>2018-10-17T07:24:13Z</time>
      </trkpt>
      <trkpt lat="45.83967" lon="6.43105">
        <ele>1685</ele>
        <time>2018-10-17T07:24:14Z</time>
      </trkpt>
      <trkpt lat="45.83968" lon="6.43108">
        <ele>1686</ele>
        <time>2018-10-17T07:24:15Z</time>
      </trkpt>
      <trkpt lat="45.83968" lon="6.43108">
        <ele>1686</ele>
        <time>2018-10-17T07:24:16Z</time>
      </trkpt>
      <trkpt lat="45.83968" lon="6.43108">
        <ele>1686</ele>
        <time>2018-10-17T07:24:17Z</time>
      </trkpt>
      <trkpt lat="45.83968" lon="6.43108">
        <ele>1686</ele>
        <time>2018-10-17T07:24:18Z</time>
      </trkpt>
      <trkpt lat="45.83968" lon="6.43108">
        <ele>1686</ele>
        <time>2018-10-17T07:24:19Z</time>
      </trkpt>
      <trkpt lat="45.83968" lon="6.43108">
        <ele>1686</ele>
        <time>2018-10-17T07:24:20Z</time>
      </trkpt>
      <trkpt lat="45.83968" lon="6.43108">
        <ele>1686</ele>
        <time>2018-10-17T07:24:21Z</time>
      </trkpt>
      <trkpt lat="45.83969" lon="6.4311">
        <ele>1686</ele>
        <time>2018-10-17T07:24:22Z</time>
      </trkpt>
      <trkpt lat="45.83969" lon="6.4311">
        <ele>1686</ele>
        <time>2018-10-17T07:24:23Z</time>
      </trkpt>
      <trkpt lat="45.83969" lon="6.4311">
        <ele>1687</ele>
        <time>2018-10-17T07:24:24Z</time>
      </trkpt>
      <trkpt lat="45.83969" lon="6.4311">
        <ele>1687</ele>
        <time>2018-10-17T07:24:25Z</time>
      </trkpt>
      <trkpt lat="45.83969" lon="6.4311">
        <ele>1688</ele>
        <time>2018-10-17T07:24:26Z</time>
      </trkpt>
      <trkpt lat="45.8397" lon="6.43113">
        <ele>1688</ele>
        <time>2018-10-17T07:24:27Z</time>
      </trkpt>
      <trkpt lat="45.8397" lon="6.43113">
        <ele>1688</ele>
        <time>2018-10-17T07:24:28Z</time>
      </trkpt>
      <trkpt lat="45.8397" lon="6.43113">
        <ele>1688</ele>
        <time>2018-10-17T07:24:29Z</time>
      </trkpt>
      <trkpt lat="45.8397" lon="6.43113">
        <ele>1689</ele>
        <time>2018-10-17T07:24:30Z</time>
      </trkpt>
      <trkpt lat="45.8397" lon="6.43113">
        <ele>1689</ele>
        <time>2018-10-17T07:24:31Z</time>
      </trkpt>
      <trkpt lat="45.8397" lon="6.43116">
        <ele>1690</ele>
        <time>2018-10-17T07:24:32Z</time>
      </trkpt>
      <trkpt lat="45.8397" lon="6.43116">
        <ele>1690</ele>
        <time>2018-10-17T07:24:33Z</time>
      </trkpt>
      <trkpt lat="45.8397" lon="6.43116">
        <ele>1690</ele>
        <time>2018-10-17T07:24:34Z</time>
      </trkpt>
      <trkpt lat="45.8397" lon="6.43116">
        <ele>1690</ele>
        <time>2018-10-17T07:24:35Z</time>
      </trkpt>
      <trkpt lat="45.8397" lon="6.43116">
        <ele>1691</ele>
        <time>2018-10-17T07:24:36Z</time>
      </trkpt>
      <trkpt lat="45.8397" lon="6.43116">
        <ele>1691</ele>
        <time>2018-10-17T07:24:37Z</time>
      </trkpt>
      <trkpt lat="45.8397" lon="6.43116">
        <ele>1692</ele>
        <time>2018-10-17T07:24:38Z</time>
      </trkpt>
      <trkpt lat="45.8397" lon="6.43116">
        <ele>1692</ele>
        <time>2018-10-17T07:24:39Z</time>
      </trkpt>
      <trkpt lat="45.8397" lon="6.43116">
        <ele>1692</ele>
        <time>2018-10-17T07:24:40Z</time>
      </trkpt>
      <trkpt lat="45.8397" lon="6.43116">
        <ele>1692</ele>
        <time>2018-10-17T07:24:41Z</time>
      </trkpt>
      <trkpt lat="45.8397" lon="6.43116">
        <ele>1692</ele>
        <time>2018-10-17T07:24:42Z</time>
      </trkpt>
      <trkpt lat="45.8397" lon="6.43116">
        <ele>1692</ele>
        <time>2018-10-17T07:24:43Z</time>
      </trkpt>
      <trkpt lat="45.8397" lon="6.43116">
        <ele>1692</ele>
        <time>2018-10-17T07:24:44Z</time>
      </trkpt>
      <trkpt lat="45.8397" lon="6.43116">
        <ele>1692</ele>
        <time>2018-10-17T07:24:45Z</time>
      </trkpt>
      <trkpt lat="45.8397" lon="6.43116">
        <ele>1692</ele>
        <time>2018-10-17T07:24:46Z</time>
      </trkpt>
      <trkpt lat="45.8397" lon="6.43116">
        <ele>1692</ele>
        <time>2018-10-17T07:24:47Z</time>
      </trkpt>
      <trkpt lat="45.8397" lon="6.43116">
        <ele>1692</ele>
        <time>2018-10-17T07:24:48Z</time>
      </trkpt>
      <trkpt lat="45.8397" lon="6.43116">
        <ele>1692</ele>
        <time>2018-10-17T07:24:49Z</time>
      </trkpt>
      <trkpt lat="45.8397" lon="6.43116">
        <ele>1692</ele>
        <time>2018-10-17T07:24:50Z</time>
      </trkpt>
      <trkpt lat="45.8397" lon="6.43116">
        <ele>1692</ele>
        <time>2018-10-17T07:24:51Z</time>
      </trkpt>
      <trkpt lat="45.8397" lon="6.43116">
        <ele>1692</ele>
        <time>2018-10-17T07:24:52Z</time>
      </trkpt>
      <trkpt lat="45.8397" lon="6.43116">
        <ele>1692</ele>
        <time>2018-10-17T07:24:53Z</time>
      </trkpt>
      <trkpt lat="45.8397" lon="6.43116">
        <ele>1692</ele>
        <time>2018-10-17T07:24:54Z</time>
      </trkpt>
      <trkpt lat="45.8397" lon="6.43116">
        <ele>1691</ele>
        <time>2018-10-17T07:24:55Z</time>
      </trkpt>
      <trkpt lat="45.8397" lon="6.43116">
        <ele>1691</ele>
        <time>2018-10-17T07:24:56Z</time>
      </trkpt>
      <trkpt lat="45.8397" lon="6.43116">
        <ele>1691</ele>
        <time>2018-10-17T07:24:57Z</time>
      </trkpt>
      <trkpt lat="45.8397" lon="6.43116">
        <ele>1691</ele>
        <time>2018-10-17T07:24:58Z</time>
      </trkpt>
      <trkpt lat="45.8397" lon="6.43116">
        <ele>1691</ele>
        <time>2018-10-17T07:24:59Z</time>
      </trkpt>
      <trkpt lat="45.8397" lon="6.43116">
        <ele>1691</ele>
        <time>2018-10-17T07:25:00Z</time>
      </trkpt>
      <trkpt lat="45.8397" lon="6.43116">
        <ele>1691</ele>
        <time>2018-10-17T07:25:01Z</time>
      </trkpt>
      <trkpt lat="45.8397" lon="6.43116">
        <ele>1691</ele>
        <time>2018-10-17T07:25:02Z</time>
      </trkpt>
      <trkpt lat="45.8397" lon="6.43116">
        <ele>1691</ele>
        <time>2018-10-17T07:25:03Z</time>
      </trkpt>
      <trkpt lat="45.8397" lon="6.43116">
        <ele>1691</ele>
        <time>2018-10-17T07:25:04Z</time>
      </trkpt>
      <trkpt lat="45.8397" lon="6.43116">
        <ele>1691</ele>
        <time>2018-10-17T07:25:05Z</time>
      </trkpt>
      <trkpt lat="45.8397" lon="6.43116">
        <ele>1691</ele>
        <time>2018-10-17T07:25:06Z</time>
      </trkpt>
      <trkpt lat="45.8397" lon="6.43116">
        <ele>1691</ele>
        <time>2018-10-17T07:25:07Z</time>
      </trkpt>
      <trkpt lat="45.8397" lon="6.43116">
        <ele>1691</ele>
        <time>2018-10-17T07:25:08Z</time>
      </trkpt>
      <trkpt lat="45.8397" lon="6.43116">
        <ele>1691</ele>
        <time>2018-10-17T07:25:09Z</time>
      </trkpt>
      <trkpt lat="45.8397" lon="6.43116">
        <ele>1691</ele>
        <time>2018-10-17T07:25:10Z</time>
      </trkpt>
      <trkpt lat="45.8397" lon="6.43116">
        <ele>1691</ele>
        <time>2018-10-17T07:25:11Z</time>
      </trkpt>
      <trkpt lat="45.8397" lon="6.43116">
        <ele>1691</ele>
        <time>2018-10-17T07:25:12Z</time>
      </trkpt>
      <trkpt lat="45.8397" lon="6.43116">
        <ele>1691</ele>
        <time>2018-10-17T07:25:13Z</time>
      </trkpt>
      <trkpt lat="45.8397" lon="6.43116">
        <ele>1691</ele>
        <time>2018-10-17T07:25:14Z</time>
      </trkpt>
      <trkpt lat="45.8397" lon="6.43116">
        <ele>1691</ele>
        <time>2018-10-17T07:25:15Z</time>
      </trkpt>
      <trkpt lat="45.8397" lon="6.43116">
        <ele>1691</ele>
        <time>2018-10-17T07:25:16Z</time>
      </trkpt>
      <trkpt lat="45.8397" lon="6.43116">
        <ele>1691</ele>
        <time>2018-10-17T07:25:17Z</time>
      </trkpt>
      <trkpt lat="45.8397" lon="6.43116">
        <ele>1691</ele>
        <time>2018-10-17T07:25:18Z</time>
      </trkpt>
      <trkpt lat="45.8397" lon="6.43116">
        <ele>1691</ele>
        <time>2018-10-17T07:25:19Z</time>
      </trkpt>
      <trkpt lat="45.8397" lon="6.43116">
        <ele>1691</ele>
        <time>2018-10-17T07:25:20Z</time>
      </trkpt>
      <trkpt lat="45.8397" lon="6.43116">
        <ele>1691</ele>
        <time>2018-10-17T07:25:21Z</time>
      </trkpt>
      <trkpt lat="45.8397" lon="6.43116">
        <ele>1691</ele>
        <time>2018-10-17T07:25:22Z</time>
      </trkpt>
      <trkpt lat="45.8397" lon="6.43116">
        <ele>1691</ele>
        <time>2018-10-17T07:25:23Z</time>
      </trkpt>
      <trkpt lat="45.8397" lon="6.43116">
        <ele>1691</ele>
        <time>2018-10-17T07:25:24Z</time>
      </trkpt>
      <trkpt lat="45.8397" lon="6.43116">
        <ele>1692</ele>
        <time>2018-10-17T07:25:25Z</time>
      </trkpt>
      <trkpt lat="45.8397" lon="6.43116">
        <ele>1692</ele>
        <time>2018-10-17T07:25:26Z</time>
      </trkpt>
      <trkpt lat="45.8397" lon="6.43116">
        <ele>1692</ele>
        <time>2018-10-17T07:25:27Z</time>
      </trkpt>
      <trkpt lat="45.8397" lon="6.43116">
        <ele>1692</ele>
        <time>2018-10-17T07:25:28Z</time>
      </trkpt>
      <trkpt lat="45.8397" lon="6.43116">
        <ele>1692</ele>
        <time>2018-10-17T07:25:29Z</time>
      </trkpt>
      <trkpt lat="45.8397" lon="6.43116">
        <ele>1692</ele>
        <time>2018-10-17T07:25:30Z</time>
      </trkpt>
      <trkpt lat="45.8397" lon="6.43116">
        <ele>1692</ele>
        <time>2018-10-17T07:25:31Z</time>
      </trkpt>
      <trkpt lat="45.8397" lon="6.43116">
        <ele>1692</ele>
        <time>2018-10-17T07:25:32Z</time>
      </trkpt>
      <trkpt lat="45.8397" lon="6.43116">
        <ele>1692</ele>
        <time>2018-10-17T07:25:33Z</time>
      </trkpt>
      <trkpt lat="45.8397" lon="6.43116">
        <ele>1692</ele>
        <time>2018-10-17T07:25:34Z</time>
      </trkpt>
      <trkpt lat="45.8397" lon="6.43116">
        <ele>1692</ele>
        <time>2018-10-17T07:25:35Z</time>
      </trkpt>
      <trkpt lat="45.8397" lon="6.43116">
        <ele>1692</ele>
        <time>2018-10-17T07:25:36Z</time>
      </trkpt>
      <trkpt lat="45.8397" lon="6.43116">
        <ele>1692</ele>
        <time>2018-10-17T07:25:37Z</time>
      </trkpt>
      <trkpt lat="45.8397" lon="6.43116">
        <ele>1692</ele>
        <time>2018-10-17T07:25:38Z</time>
      </trkpt>
      <trkpt lat="45.8397" lon="6.43116">
        <ele>1692</ele>
        <time>2018-10-17T07:25:39Z</time>
      </trkpt>
      <trkpt lat="45.8397" lon="6.43116">
        <ele>1692</ele>
        <time>2018-10-17T07:25:40Z</time>
      </trkpt>
      <trkpt lat="45.8397" lon="6.43116">
        <ele>1691</ele>
        <time>2018-10-17T07:25:41Z</time>
      </trkpt>
      <trkpt lat="45.8397" lon="6.43116">
        <ele>1691</ele>
        <time>2018-10-17T07:25:42Z</time>
      </trkpt>
      <trkpt lat="45.8397" lon="6.43116">
        <ele>1691</ele>
        <time>2018-10-17T07:25:43Z</time>
      </trkpt>
      <trkpt lat="45.8397" lon="6.43116">
        <ele>1692</ele>
        <time>2018-10-17T07:25:44Z</time>
      </trkpt>
      <trkpt lat="45.8397" lon="6.43116">
        <ele>1692</ele>
        <time>2018-10-17T07:25:45Z</time>
      </trkpt>
      <trkpt lat="45.8397" lon="6.43116">
        <ele>1692</ele>
        <time>2018-10-17T07:25:46Z</time>
      </trkpt>
      <trkpt lat="45.8397" lon="6.43116">
        <ele>1692</ele>
        <time>2018-10-17T07:25:47Z</time>
      </trkpt>
      <trkpt lat="45.8397" lon="6.43116">
        <ele>1692</ele>
        <time>2018-10-17T07:25:48Z</time>
      </trkpt>
      <trkpt lat="45.83968" lon="6.43117">
        <ele>1692</ele>
        <time>2018-10-17T07:25:49Z</time>
      </trkpt>
      <trkpt lat="45.83968" lon="6.43117">
        <ele>1692</ele>
        <time>2018-10-17T07:25:50Z</time>
      </trkpt>
      <trkpt lat="45.83968" lon="6.43117">
        <ele>1693</ele>
        <time>2018-10-17T07:25:51Z</time>
      </trkpt>
      <trkpt lat="45.83968" lon="6.43121">
        <ele>1694</ele>
        <time>2018-10-17T07:25:52Z</time>
      </trkpt>
      <trkpt lat="45.83968" lon="6.43121">
        <ele>1694</ele>
        <time>2018-10-17T07:25:53Z</time>
      </trkpt>
      <trkpt lat="45.83969" lon="6.43125">
        <ele>1694</ele>
        <time>2018-10-17T07:25:54Z</time>
      </trkpt>
      <trkpt lat="45.83969" lon="6.43125">
        <ele>1694</ele>
        <time>2018-10-17T07:25:55Z</time>
      </trkpt>
      <trkpt lat="45.83969" lon="6.43125">
        <ele>1695</ele>
        <time>2018-10-17T07:25:56Z</time>
      </trkpt>
      <trkpt lat="45.83969" lon="6.43125">
        <ele>1695</ele>
        <time>2018-10-17T07:25:57Z</time>
      </trkpt>
      <trkpt lat="45.83969" lon="6.43128">
        <ele>1695</ele>
        <time>2018-10-17T07:25:58Z</time>
      </trkpt>
      <trkpt lat="45.83969" lon="6.43128">
        <ele>1696</ele>
        <time>2018-10-17T07:25:59Z</time>
      </trkpt>
      <trkpt lat="45.83969" lon="6.43128">
        <ele>1696</ele>
        <time>2018-10-17T07:26:00Z</time>
      </trkpt>
      <trkpt lat="45.83968" lon="6.43132">
        <ele>1696</ele>
        <time>2018-10-17T07:26:01Z</time>
      </trkpt>
      <trkpt lat="45.83968" lon="6.43132">
        <ele>1697</ele>
        <time>2018-10-17T07:26:02Z</time>
      </trkpt>
      <trkpt lat="45.83968" lon="6.43134">
        <ele>1697</ele>
        <time>2018-10-17T07:26:03Z</time>
      </trkpt>
      <trkpt lat="45.83968" lon="6.43134">
        <ele>1697</ele>
        <time>2018-10-17T07:26:04Z</time>
      </trkpt>
      <trkpt lat="45.83968" lon="6.43134">
        <ele>1698</ele>
        <time>2018-10-17T07:26:05Z</time>
      </trkpt>
      <trkpt lat="45.83968" lon="6.43139">
        <ele>1698</ele>
        <time>2018-10-17T07:26:06Z</time>
      </trkpt>
      <trkpt lat="45.83968" lon="6.43139">
        <ele>1699</ele>
        <time>2018-10-17T07:26:07Z</time>
      </trkpt>
      <trkpt lat="45.83968" lon="6.43139">
        <ele>1699</ele>
        <time>2018-10-17T07:26:08Z</time>
      </trkpt>
      <trkpt lat="45.83968" lon="6.43142">
        <ele>1699</ele>
        <time>2018-10-17T07:26:09Z</time>
      </trkpt>
      <trkpt lat="45.83968" lon="6.43142">
        <ele>1699</ele>
        <time>2018-10-17T07:26:10Z</time>
      </trkpt>
      <trkpt lat="45.83968" lon="6.43142">
        <ele>1699</ele>
        <time>2018-10-17T07:26:11Z</time>
      </trkpt>
      <trkpt lat="45.83968" lon="6.43145">
        <ele>1699</ele>
        <time>2018-10-17T07:26:12Z</time>
      </trkpt>
      <trkpt lat="45.83968" lon="6.43145">
        <ele>1700</ele>
        <time>2018-10-17T07:26:13Z</time>
      </trkpt>
      <trkpt lat="45.83968" lon="6.43145">
        <ele>1700</ele>
        <time>2018-10-17T07:26:14Z</time>
      </trkpt>
      <trkpt lat="45.83968" lon="6.43148">
        <ele>1700</ele>
        <time>2018-10-17T07:26:15Z</time>
      </trkpt>
      <trkpt lat="45.83968" lon="6.43148">
        <ele>1700</ele>
        <time>2018-10-17T07:26:16Z</time>
      </trkpt>
      <trkpt lat="45.83968" lon="6.43148">
        <ele>1700</ele>
        <time>2018-10-17T07:26:17Z</time>
      </trkpt>
      <trkpt lat="45.83968" lon="6.43148">
        <ele>1701</ele>
        <time>2018-10-17T07:26:18Z</time>
      </trkpt>
      <trkpt lat="45.83968" lon="6.43148">
        <ele>1701</ele>
        <time>2018-10-17T07:26:19Z</time>
      </trkpt>
      <trkpt lat="45.83968" lon="6.43148">
        <ele>1701</ele>
        <time>2018-10-17T07:26:20Z</time>
      </trkpt>
      <trkpt lat="45.83968" lon="6.43151">
        <ele>1701</ele>
        <time>2018-10-17T07:26:21Z</time>
      </trkpt>
      <trkpt lat="45.83968" lon="6.43151">
        <ele>1701</ele>
        <time>2018-10-17T07:26:22Z</time>
      </trkpt>
      <trkpt lat="45.83968" lon="6.43153">
        <ele>1702</ele>
        <time>2018-10-17T07:26:23Z</time>
      </trkpt>
      <trkpt lat="45.83968" lon="6.43153">
        <ele>1702</ele>
        <time>2018-10-17T07:26:24Z</time>
      </trkpt>
      <trkpt lat="45.83968" lon="6.43156">
        <ele>1702</ele>
        <time>2018-10-17T07:26:25Z</time>
      </trkpt>
      <trkpt lat="45.83968" lon="6.43156">
        <ele>1702</ele>
        <time>2018-10-17T07:26:26Z</time>
      </trkpt>
      <trkpt lat="45.83968" lon="6.43156">
        <ele>1702</ele>
        <time>2018-10-17T07:26:27Z</time>
      </trkpt>
      <trkpt lat="45.83968" lon="6.43156">
        <ele>1702</ele>
        <time>2018-10-17T07:26:28Z</time>
      </trkpt>
      <trkpt lat="45.83968" lon="6.43156">
        <ele>1702</ele>
        <time>2018-10-17T07:26:29Z</time>
      </trkpt>
      <trkpt lat="45.83968" lon="6.43156">
        <ele>1702</ele>
        <time>2018-10-17T07:26:30Z</time>
      </trkpt>
      <trkpt lat="45.83968" lon="6.43156">
        <ele>1702</ele>
        <time>2018-10-17T07:26:31Z</time>
      </trkpt>
      <trkpt lat="45.83968" lon="6.43156">
        <ele>1702</ele>
        <time>2018-10-17T07:26:32Z</time>
      </trkpt>
      <trkpt lat="45.83968" lon="6.43156">
        <ele>1702</ele>
        <time>2018-10-17T07:26:33Z</time>
      </trkpt>
      <trkpt lat="45.83968" lon="6.43159">
        <ele>1702</ele>
        <time>2018-10-17T07:26:34Z</time>
      </trkpt>
      <trkpt lat="45.83968" lon="6.43159">
        <ele>1703</ele>
        <time>2018-10-17T07:26:35Z</time>
      </trkpt>
      <trkpt lat="45.83968" lon="6.43159">
        <ele>1703</ele>
        <time>2018-10-17T07:26:36Z</time>
      </trkpt>
      <trkpt lat="45.83967" lon="6.43162">
        <ele>1703</ele>
        <time>2018-10-17T07:26:37Z</time>
      </trkpt>
      <trkpt lat="45.83967" lon="6.43162">
        <ele>1703</ele>
        <time>2018-10-17T07:26:38Z</time>
      </trkpt>
      <trkpt lat="45.83967" lon="6.43162">
        <ele>1703</ele>
        <time>2018-10-17T07:26:39Z</time>
      </trkpt>
      <trkpt lat="45.83967" lon="6.43162">
        <ele>1704</ele>
        <time>2018-10-17T07:26:40Z</time>
      </trkpt>
      <trkpt lat="45.83968" lon="6.43164">
        <ele>1704</ele>
        <time>2018-10-17T07:26:41Z</time>
      </trkpt>
      <trkpt lat="45.83968" lon="6.43164">
        <ele>1704</ele>
        <time>2018-10-17T07:26:42Z</time>
      </trkpt>
      <trkpt lat="45.83968" lon="6.43164">
        <ele>1704</ele>
        <time>2018-10-17T07:26:43Z</time>
      </trkpt>
      <trkpt lat="45.83968" lon="6.43167">
        <ele>1705</ele>
        <time>2018-10-17T07:26:44Z</time>
      </trkpt>
      <trkpt lat="45.83968" lon="6.43167">
        <ele>1705</ele>
        <time>2018-10-17T07:26:45Z</time>
      </trkpt>
      <trkpt lat="45.83968" lon="6.43167">
        <ele>1706</ele>
        <time>2018-10-17T07:26:46Z</time>
      </trkpt>
      <trkpt lat="45.83968" lon="6.4317">
        <ele>1706</ele>
        <time>2018-10-17T07:26:47Z</time>
      </trkpt>
      <trkpt lat="45.83968" lon="6.4317">
        <ele>1706</ele>
        <time>2018-10-17T07:26:48Z</time>
      </trkpt>
      <trkpt lat="45.83968" lon="6.4317">
        <ele>1706</ele>
        <time>2018-10-17T07:26:49Z</time>
      </trkpt>
      <trkpt lat="45.83968" lon="6.4317">
        <ele>1707</ele>
        <time>2018-10-17T07:26:50Z</time>
      </trkpt>
      <trkpt lat="45.83968" lon="6.4317">
        <ele>1707</ele>
        <time>2018-10-17T07:26:51Z</time>
      </trkpt>
      <trkpt lat="45.8397" lon="6.43173">
        <ele>1708</ele>
        <time>2018-10-17T07:26:52Z</time>
      </trkpt>
      <trkpt lat="45.8397" lon="6.43173">
        <ele>1708</ele>
        <time>2018-10-17T07:26:53Z</time>
      </trkpt>
      <trkpt lat="45.8397" lon="6.43173">
        <ele>1708</ele>
        <time>2018-10-17T07:26:54Z</time>
      </trkpt>
      <trkpt lat="45.8397" lon="6.43176">
        <ele>1708</ele>
        <time>2018-10-17T07:26:55Z</time>
      </trkpt>
      <trkpt lat="45.8397" lon="6.43176">
        <ele>1708</ele>
        <time>2018-10-17T07:26:56Z</time>
      </trkpt>
      <trkpt lat="45.83971" lon="6.43179">
        <ele>1709</ele>
        <time>2018-10-17T07:26:57Z</time>
      </trkpt>
      <trkpt lat="45.83971" lon="6.43179">
        <ele>1709</ele>
        <time>2018-10-17T07:26:58Z</time>
      </trkpt>
      <trkpt lat="45.83971" lon="6.43179">
        <ele>1709</ele>
        <time>2018-10-17T07:26:59Z</time>
      </trkpt>
      <trkpt lat="45.83971" lon="6.43182">
        <ele>1710</ele>
        <time>2018-10-17T07:27:00Z</time>
      </trkpt>
      <trkpt lat="45.83971" lon="6.43182">
        <ele>1710</ele>
        <time>2018-10-17T07:27:01Z</time>
      </trkpt>
      <trkpt lat="45.83971" lon="6.43182">
        <ele>1710</ele>
        <time>2018-10-17T07:27:02Z</time>
      </trkpt>
      <trkpt lat="45.83972" lon="6.43184">
        <ele>1710</ele>
        <time>2018-10-17T07:27:03Z</time>
      </trkpt>
      <trkpt lat="45.83972" lon="6.43184">
        <ele>1711</ele>
        <time>2018-10-17T07:27:04Z</time>
      </trkpt>
      <trkpt lat="45.83972" lon="6.43184">
        <ele>1711</ele>
        <time>2018-10-17T07:27:05Z</time>
      </trkpt>
      <trkpt lat="45.83974" lon="6.43184">
        <ele>1711</ele>
        <time>2018-10-17T07:27:06Z</time>
      </trkpt>
      <trkpt lat="45.83974" lon="6.43184">
        <ele>1711</ele>
        <time>2018-10-17T07:27:07Z</time>
      </trkpt>
      <trkpt lat="45.83974" lon="6.43184">
        <ele>1712</ele>
        <time>2018-10-17T07:27:08Z</time>
      </trkpt>
      <trkpt lat="45.83974" lon="6.43184">
        <ele>1712</ele>
        <time>2018-10-17T07:27:09Z</time>
      </trkpt>
      <trkpt lat="45.83974" lon="6.43184">
        <ele>1712</ele>
        <time>2018-10-17T07:27:10Z</time>
      </trkpt>
      <trkpt lat="45.83976" lon="6.43183">
        <ele>1712</ele>
        <time>2018-10-17T07:27:11Z</time>
      </trkpt>
      <trkpt lat="45.83976" lon="6.43183">
        <ele>1712</ele>
        <time>2018-10-17T07:27:12Z</time>
      </trkpt>
      <trkpt lat="45.83976" lon="6.43183">
        <ele>1713</ele>
        <time>2018-10-17T07:27:13Z</time>
      </trkpt>
      <trkpt lat="45.83976" lon="6.43183">
        <ele>1713</ele>
        <time>2018-10-17T07:27:14Z</time>
      </trkpt>
      <trkpt lat="45.83978" lon="6.43186">
        <ele>1714</ele>
        <time>2018-10-17T07:27:15Z</time>
      </trkpt>
      <trkpt lat="45.83978" lon="6.43186">
        <ele>1714</ele>
        <time>2018-10-17T07:27:16Z</time>
      </trkpt>
      <trkpt lat="45.83978" lon="6.43186">
        <ele>1714</ele>
        <time>2018-10-17T07:27:17Z</time>
      </trkpt>
      <trkpt lat="45.83979" lon="6.43189">
        <ele>1714</ele>
        <time>2018-10-17T07:27:18Z</time>
      </trkpt>
      <trkpt lat="45.83979" lon="6.43189">
        <ele>1714</ele>
        <time>2018-10-17T07:27:19Z</time>
      </trkpt>
      <trkpt lat="45.83979" lon="6.43189">
        <ele>1715</ele>
        <time>2018-10-17T07:27:20Z</time>
      </trkpt>
      <trkpt lat="45.83979" lon="6.43189">
        <ele>1715</ele>
        <time>2018-10-17T07:27:21Z</time>
      </trkpt>
      <trkpt lat="45.83979" lon="6.43189">
        <ele>1715</ele>
        <time>2018-10-17T07:27:22Z</time>
      </trkpt>
      <trkpt lat="45.83979" lon="6.43189">
        <ele>1716</ele>
        <time>2018-10-17T07:27:23Z</time>
      </trkpt>
      <trkpt lat="45.83981" lon="6.4319">
        <ele>1716</ele>
        <time>2018-10-17T07:27:24Z</time>
      </trkpt>
      <trkpt lat="45.83981" lon="6.4319">
        <ele>1716</ele>
        <time>2018-10-17T07:27:25Z</time>
      </trkpt>
      <trkpt lat="45.83981" lon="6.4319">
        <ele>1717</ele>
        <time>2018-10-17T07:27:26Z</time>
      </trkpt>
      <trkpt lat="45.83981" lon="6.4319">
        <ele>1717</ele>
        <time>2018-10-17T07:27:27Z</time>
      </trkpt>
      <trkpt lat="45.83982" lon="6.43189">
        <ele>1717</ele>
        <time>2018-10-17T07:27:28Z</time>
      </trkpt>
      <trkpt lat="45.83982" lon="6.43189">
        <ele>1717</ele>
        <time>2018-10-17T07:27:29Z</time>
      </trkpt>
      <trkpt lat="45.83982" lon="6.43189">
        <ele>1718</ele>
        <time>2018-10-17T07:27:30Z</time>
      </trkpt>
      <trkpt lat="45.83982" lon="6.43189">
        <ele>1718</ele>
        <time>2018-10-17T07:27:31Z</time>
      </trkpt>
      <trkpt lat="45.83984" lon="6.43189">
        <ele>1718</ele>
        <time>2018-10-17T07:27:32Z</time>
      </trkpt>
      <trkpt lat="45.83984" lon="6.43189">
        <ele>1718</ele>
        <time>2018-10-17T07:27:33Z</time>
      </trkpt>
      <trkpt lat="45.83984" lon="6.43189">
        <ele>1718</ele>
        <time>2018-10-17T07:27:34Z</time>
      </trkpt>
      <trkpt lat="45.83984" lon="6.43189">
        <ele>1718</ele>
        <time>2018-10-17T07:27:35Z</time>
      </trkpt>
      <trkpt lat="45.83986" lon="6.43189">
        <ele>1719</ele>
        <time>2018-10-17T07:27:36Z</time>
      </trkpt>
      <trkpt lat="45.83986" lon="6.43189">
        <ele>1719</ele>
        <time>2018-10-17T07:27:37Z</time>
      </trkpt>
      <trkpt lat="45.83986" lon="6.43189">
        <ele>1720</ele>
        <time>2018-10-17T07:27:38Z</time>
      </trkpt>
      <trkpt lat="45.83986" lon="6.43189">
        <ele>1720</ele>
        <time>2018-10-17T07:27:39Z</time>
      </trkpt>
      <trkpt lat="45.83988" lon="6.4319">
        <ele>1721</ele>
        <time>2018-10-17T07:27:40Z</time>
      </trkpt>
      <trkpt lat="45.83988" lon="6.4319">
        <ele>1721</ele>
        <time>2018-10-17T07:27:41Z</time>
      </trkpt>
      <trkpt lat="45.83988" lon="6.4319">
        <ele>1721</ele>
        <time>2018-10-17T07:27:42Z</time>
      </trkpt>
      <trkpt lat="45.83988" lon="6.4319">
        <ele>1721</ele>
        <time>2018-10-17T07:27:43Z</time>
      </trkpt>
      <trkpt lat="45.83988" lon="6.43193">
        <ele>1722</ele>
        <time>2018-10-17T07:27:44Z</time>
      </trkpt>
      <trkpt lat="45.83988" lon="6.43193">
        <ele>1722</ele>
        <time>2018-10-17T07:27:45Z</time>
      </trkpt>
      <trkpt lat="45.83988" lon="6.43193">
        <ele>1722</ele>
        <time>2018-10-17T07:27:46Z</time>
      </trkpt>
      <trkpt lat="45.83989" lon="6.43196">
        <ele>1722</ele>
        <time>2018-10-17T07:27:47Z</time>
      </trkpt>
      <trkpt lat="45.83989" lon="6.43196">
        <ele>1723</ele>
        <time>2018-10-17T07:27:48Z</time>
      </trkpt>
      <trkpt lat="45.83989" lon="6.43196">
        <ele>1724</ele>
        <time>2018-10-17T07:27:49Z</time>
      </trkpt>
      <trkpt lat="45.83989" lon="6.43196">
        <ele>1724</ele>
        <time>2018-10-17T07:27:50Z</time>
      </trkpt>
      <trkpt lat="45.83989" lon="6.43196">
        <ele>1724</ele>
        <time>2018-10-17T07:27:51Z</time>
      </trkpt>
      <trkpt lat="45.83989" lon="6.43196">
        <ele>1724</ele>
        <time>2018-10-17T07:27:52Z</time>
      </trkpt>
      <trkpt lat="45.8399" lon="6.43198">
        <ele>1724</ele>
        <time>2018-10-17T07:27:53Z</time>
      </trkpt>
      <trkpt lat="45.8399" lon="6.43198">
        <ele>1725</ele>
        <time>2018-10-17T07:27:54Z</time>
      </trkpt>
      <trkpt lat="45.8399" lon="6.43198">
        <ele>1725</ele>
        <time>2018-10-17T07:27:55Z</time>
      </trkpt>
      <trkpt lat="45.8399" lon="6.43198">
        <ele>1725</ele>
        <time>2018-10-17T07:27:56Z</time>
      </trkpt>
      <trkpt lat="45.8399" lon="6.43198">
        <ele>1725</ele>
        <time>2018-10-17T07:27:57Z</time>
      </trkpt>
      <trkpt lat="45.83992" lon="6.43197">
        <ele>1725</ele>
        <time>2018-10-17T07:27:58Z</time>
      </trkpt>
      <trkpt lat="45.83992" lon="6.43197">
        <ele>1725</ele>
        <time>2018-10-17T07:27:59Z</time>
      </trkpt>
      <trkpt lat="45.83992" lon="6.43197">
        <ele>1725</ele>
        <time>2018-10-17T07:28:00Z</time>
      </trkpt>
      <trkpt lat="45.83992" lon="6.43197">
        <ele>1725</ele>
        <time>2018-10-17T07:28:01Z</time>
      </trkpt>
      <trkpt lat="45.83994" lon="6.43196">
        <ele>1725</ele>
        <time>2018-10-17T07:28:02Z</time>
      </trkpt>
      <trkpt lat="45.83994" lon="6.43196">
        <ele>1726</ele>
        <time>2018-10-17T07:28:03Z</time>
      </trkpt>
      <trkpt lat="45.83994" lon="6.43196">
        <ele>1726</ele>
        <time>2018-10-17T07:28:04Z</time>
      </trkpt>
      <trkpt lat="45.83994" lon="6.43196">
        <ele>1726</ele>
        <time>2018-10-17T07:28:05Z</time>
      </trkpt>
      <trkpt lat="45.83995" lon="6.43199">
        <ele>1727</ele>
        <time>2018-10-17T07:28:06Z</time>
      </trkpt>
      <trkpt lat="45.83995" lon="6.43199">
        <ele>1727</ele>
        <time>2018-10-17T07:28:07Z</time>
      </trkpt>
      <trkpt lat="45.83995" lon="6.43199">
        <ele>1727</ele>
        <time>2018-10-17T07:28:08Z</time>
      </trkpt>
      <trkpt lat="45.83996" lon="6.43201">
        <ele>1728</ele>
        <time>2018-10-17T07:28:09Z</time>
      </trkpt>
      <trkpt lat="45.83996" lon="6.43201">
        <ele>1728</ele>
        <time>2018-10-17T07:28:10Z</time>
      </trkpt>
      <trkpt lat="45.83996" lon="6.43201">
        <ele>1728</ele>
        <time>2018-10-17T07:28:11Z</time>
      </trkpt>
      <trkpt lat="45.83996" lon="6.43201">
        <ele>1728</ele>
        <time>2018-10-17T07:28:12Z</time>
      </trkpt>
      <trkpt lat="45.83996" lon="6.43201">
        <ele>1728</ele>
        <time>2018-10-17T07:28:13Z</time>
      </trkpt>
      <trkpt lat="45.83996" lon="6.43201">
        <ele>1728</ele>
        <time>2018-10-17T07:28:14Z</time>
      </trkpt>
      <trkpt lat="45.83998" lon="6.43202">
        <ele>1729</ele>
        <time>2018-10-17T07:28:15Z</time>
      </trkpt>
      <trkpt lat="45.83998" lon="6.43202">
        <ele>1729</ele>
        <time>2018-10-17T07:28:16Z</time>
      </trkpt>
      <trkpt lat="45.83998" lon="6.43202">
        <ele>1729</ele>
        <time>2018-10-17T07:28:17Z</time>
      </trkpt>
      <trkpt lat="45.83998" lon="6.43202">
        <ele>1730</ele>
        <time>2018-10-17T07:28:18Z</time>
      </trkpt>
      <trkpt lat="45.84" lon="6.43202">
        <ele>1730</ele>
        <time>2018-10-17T07:28:19Z</time>
      </trkpt>
      <trkpt lat="45.84" lon="6.43202">
        <ele>1731</ele>
        <time>2018-10-17T07:28:20Z</time>
      </trkpt>
      <trkpt lat="45.84" lon="6.43202">
        <ele>1731</ele>
        <time>2018-10-17T07:28:21Z</time>
      </trkpt>
      <trkpt lat="45.84" lon="6.43202">
        <ele>1731</ele>
        <time>2018-10-17T07:28:22Z</time>
      </trkpt>
      <trkpt lat="45.84" lon="6.43202">
        <ele>1731</ele>
        <time>2018-10-17T07:28:23Z</time>
      </trkpt>
      <trkpt lat="45.84001" lon="6.43204">
        <ele>1731</ele>
        <time>2018-10-17T07:28:24Z</time>
      </trkpt>
      <trkpt lat="45.84001" lon="6.43204">
        <ele>1732</ele>
        <time>2018-10-17T07:28:25Z</time>
      </trkpt>
      <trkpt lat="45.84001" lon="6.43204">
        <ele>1732</ele>
        <time>2018-10-17T07:28:26Z</time>
      </trkpt>
      <trkpt lat="45.84001" lon="6.43204">
        <ele>1732</ele>
        <time>2018-10-17T07:28:27Z</time>
      </trkpt>
      <trkpt lat="45.84001" lon="6.43204">
        <ele>1732</ele>
        <time>2018-10-17T07:28:28Z</time>
      </trkpt>
      <trkpt lat="45.84001" lon="6.43204">
        <ele>1732</ele>
        <time>2018-10-17T07:28:29Z</time>
      </trkpt>
      <trkpt lat="45.84002" lon="6.43206">
        <ele>1732</ele>
        <time>2018-10-17T07:28:30Z</time>
      </trkpt>
      <trkpt lat="45.84002" lon="6.43206">
        <ele>1733</ele>
        <time>2018-10-17T07:28:31Z</time>
      </trkpt>
      <trkpt lat="45.84002" lon="6.43206">
        <ele>1733</ele>
        <time>2018-10-17T07:28:32Z</time>
      </trkpt>
      <trkpt lat="45.84003" lon="6.43208">
        <ele>1734</ele>
        <time>2018-10-17T07:28:33Z</time>
      </trkpt>
      <trkpt lat="45.84003" lon="6.43208">
        <ele>1734</ele>
        <time>2018-10-17T07:28:34Z</time>
      </trkpt>
      <trkpt lat="45.84003" lon="6.43208">
        <ele>1734</ele>
        <time>2018-10-17T07:28:35Z</time>
      </trkpt>
      <trkpt lat="45.84003" lon="6.43208">
        <ele>1734</ele>
        <time>2018-10-17T07:28:36Z</time>
      </trkpt>
      <trkpt lat="45.84003" lon="6.43208">
        <ele>1734</ele>
        <time>2018-10-17T07:28:37Z</time>
      </trkpt>
      <trkpt lat="45.84004" lon="6.43212">
        <ele>1734</ele>
        <time>2018-10-17T07:28:38Z</time>
      </trkpt>
      <trkpt lat="45.84004" lon="6.43212">
        <ele>1735</ele>
        <time>2018-10-17T07:28:39Z</time>
      </trkpt>
      <trkpt lat="45.84004" lon="6.43212">
        <ele>1735</ele>
        <time>2018-10-17T07:28:40Z</time>
      </trkpt>
      <trkpt lat="45.84004" lon="6.43212">
        <ele>1735</ele>
        <time>2018-10-17T07:28:41Z</time>
      </trkpt>
      <trkpt lat="45.84004" lon="6.43212">
        <ele>1735</ele>
        <time>2018-10-17T07:28:42Z</time>
      </trkpt>
      <trkpt lat="45.84004" lon="6.43212">
        <ele>1736</ele>
        <time>2018-10-17T07:28:43Z</time>
      </trkpt>
      <trkpt lat="45.84006" lon="6.43213">
        <ele>1737</ele>
        <time>2018-10-17T07:28:44Z</time>
      </trkpt>
      <trkpt lat="45.84006" lon="6.43213">
        <ele>1737</ele>
        <time>2018-10-17T07:28:45Z</time>
      </trkpt>
      <trkpt lat="45.84006" lon="6.43213">
        <ele>1737</ele>
        <time>2018-10-17T07:28:46Z</time>
      </trkpt>
      <trkpt lat="45.84006" lon="6.43213">
        <ele>1738</ele>
        <time>2018-10-17T07:28:47Z</time>
      </trkpt>
      <trkpt lat="45.84006" lon="6.43213">
        <ele>1738</ele>
        <time>2018-10-17T07:28:48Z</time>
      </trkpt>
      <trkpt lat="45.84006" lon="6.43213">
        <ele>1738</ele>
        <time>2018-10-17T07:28:49Z</time>
      </trkpt>
      <trkpt lat="45.84006" lon="6.43213">
        <ele>1738</ele>
        <time>2018-10-17T07:28:50Z</time>
      </trkpt>
      <trkpt lat="45.84006" lon="6.43213">
        <ele>1738</ele>
        <time>2018-10-17T07:28:51Z</time>
      </trkpt>
      <trkpt lat="45.84006" lon="6.43213">
        <ele>1738</ele>
        <time>2018-10-17T07:28:52Z</time>
      </trkpt>
      <trkpt lat="45.84006" lon="6.43213">
        <ele>1738</ele>
        <time>2018-10-17T07:28:53Z</time>
      </trkpt>
      <trkpt lat="45.84006" lon="6.43213">
        <ele>1738</ele>
        <time>2018-10-17T07:28:54Z</time>
      </trkpt>
      <trkpt lat="45.84006" lon="6.43213">
        <ele>1738</ele>
        <time>2018-10-17T07:28:55Z</time>
      </trkpt>
      <trkpt lat="45.84006" lon="6.43217">
        <ele>1738</ele>
        <time>2018-10-17T07:28:56Z</time>
      </trkpt>
      <trkpt lat="45.84006" lon="6.43217">
        <ele>1738</ele>
        <time>2018-10-17T07:28:57Z</time>
      </trkpt>
      <trkpt lat="45.84006" lon="6.43217">
        <ele>1738</ele>
        <time>2018-10-17T07:28:58Z</time>
      </trkpt>
      <trkpt lat="45.84006" lon="6.43217">
        <ele>1738</ele>
        <time>2018-10-17T07:28:59Z</time>
      </trkpt>
      <trkpt lat="45.84006" lon="6.43217">
        <ele>1738</ele>
        <time>2018-10-17T07:29:00Z</time>
      </trkpt>
      <trkpt lat="45.84006" lon="6.43217">
        <ele>1738</ele>
        <time>2018-10-17T07:29:01Z</time>
      </trkpt>
      <trkpt lat="45.84007" lon="6.43219">
        <ele>1739</ele>
        <time>2018-10-17T07:29:02Z</time>
      </trkpt>
      <trkpt lat="45.84007" lon="6.43219">
        <ele>1739</ele>
        <time>2018-10-17T07:29:03Z</time>
      </trkpt>
      <trkpt lat="45.84007" lon="6.43219">
        <ele>1740</ele>
        <time>2018-10-17T07:29:04Z</time>
      </trkpt>
      <trkpt lat="45.84007" lon="6.43219">
        <ele>1740</ele>
        <time>2018-10-17T07:29:05Z</time>
      </trkpt>
      <trkpt lat="45.84007" lon="6.43219">
        <ele>1740</ele>
        <time>2018-10-17T07:29:06Z</time>
      </trkpt>
      <trkpt lat="45.84007" lon="6.43219">
        <ele>1740</ele>
        <time>2018-10-17T07:29:07Z</time>
      </trkpt>
      <trkpt lat="45.8401" lon="6.4322">
        <ele>1740</ele>
        <time>2018-10-17T07:29:08Z</time>
      </trkpt>
      <trkpt lat="45.8401" lon="6.4322">
        <ele>1740</ele>
        <time>2018-10-17T07:29:09Z</time>
      </trkpt>
      <trkpt lat="45.8401" lon="6.4322">
        <ele>1740</ele>
        <time>2018-10-17T07:29:10Z</time>
      </trkpt>
      <trkpt lat="45.84011" lon="6.43223">
        <ele>1741</ele>
        <time>2018-10-17T07:29:11Z</time>
      </trkpt>
      <trkpt lat="45.84011" lon="6.43223">
        <ele>1742</ele>
        <time>2018-10-17T07:29:12Z</time>
      </trkpt>
      <trkpt lat="45.84011" lon="6.43223">
        <ele>1742</ele>
        <time>2018-10-17T07:29:13Z</time>
      </trkpt>
      <trkpt lat="45.84012" lon="6.43225">
        <ele>1742</ele>
        <time>2018-10-17T07:29:14Z</time>
      </trkpt>
      <trkpt lat="45.84012" lon="6.43225">
        <ele>1742</ele>
        <time>2018-10-17T07:29:15Z</time>
      </trkpt>
      <trkpt lat="45.84012" lon="6.43225">
        <ele>1743</ele>
        <time>2018-10-17T07:29:16Z</time>
      </trkpt>
      <trkpt lat="45.84014" lon="6.43227">
        <ele>1743</ele>
        <time>2018-10-17T07:29:17Z</time>
      </trkpt>
      <trkpt lat="45.84014" lon="6.43227">
        <ele>1744</ele>
        <time>2018-10-17T07:29:18Z</time>
      </trkpt>
      <trkpt lat="45.84014" lon="6.43227">
        <ele>1745</ele>
        <time>2018-10-17T07:29:19Z</time>
      </trkpt>
      <trkpt lat="45.84014" lon="6.43227">
        <ele>1745</ele>
        <time>2018-10-17T07:29:20Z</time>
      </trkpt>
      <trkpt lat="45.84014" lon="6.43227">
        <ele>1745</ele>
        <time>2018-10-17T07:29:21Z</time>
      </trkpt>
      <trkpt lat="45.84014" lon="6.43227">
        <ele>1745</ele>
        <time>2018-10-17T07:29:22Z</time>
      </trkpt>
      <trkpt lat="45.84014" lon="6.43227">
        <ele>1745</ele>
        <time>2018-10-17T07:29:23Z</time>
      </trkpt>
      <trkpt lat="45.84014" lon="6.43227">
        <ele>1745</ele>
        <time>2018-10-17T07:29:24Z</time>
      </trkpt>
      <trkpt lat="45.84014" lon="6.43227">
        <ele>1745</ele>
        <time>2018-10-17T07:29:25Z</time>
      </trkpt>
      <trkpt lat="45.84014" lon="6.43227">
        <ele>1745</ele>
        <time>2018-10-17T07:29:26Z</time>
      </trkpt>
      <trkpt lat="45.84014" lon="6.43227">
        <ele>1745</ele>
        <time>2018-10-17T07:29:27Z</time>
      </trkpt>
      <trkpt lat="45.84014" lon="6.43227">
        <ele>1745</ele>
        <time>2018-10-17T07:29:28Z</time>
      </trkpt>
      <trkpt lat="45.84014" lon="6.43227">
        <ele>1745</ele>
        <time>2018-10-17T07:29:29Z</time>
      </trkpt>
      <trkpt lat="45.84014" lon="6.43227">
        <ele>1745</ele>
        <time>2018-10-17T07:29:30Z</time>
      </trkpt>
      <trkpt lat="45.84014" lon="6.43227">
        <ele>1745</ele>
        <time>2018-10-17T07:29:31Z</time>
      </trkpt>
      <trkpt lat="45.84014" lon="6.4323">
        <ele>1746</ele>
        <time>2018-10-17T07:29:32Z</time>
      </trkpt>
      <trkpt lat="45.84014" lon="6.4323">
        <ele>1746</ele>
        <time>2018-10-17T07:29:33Z</time>
      </trkpt>
      <trkpt lat="45.84014" lon="6.4323">
        <ele>1746</ele>
        <time>2018-10-17T07:29:34Z</time>
      </trkpt>
      <trkpt lat="45.84014" lon="6.4323">
        <ele>1746</ele>
        <time>2018-10-17T07:29:35Z</time>
      </trkpt>
      <trkpt lat="45.84014" lon="6.43233">
        <ele>1746</ele>
        <time>2018-10-17T07:29:36Z</time>
      </trkpt>
      <trkpt lat="45.84014" lon="6.43233">
        <ele>1747</ele>
        <time>2018-10-17T07:29:37Z</time>
      </trkpt>
      <trkpt lat="45.84014" lon="6.43233">
        <ele>1747</ele>
        <time>2018-10-17T07:29:38Z</time>
      </trkpt>
      <trkpt lat="45.84014" lon="6.43233">
        <ele>1747</ele>
        <time>2018-10-17T07:29:39Z</time>
      </trkpt>
      <trkpt lat="45.84014" lon="6.43233">
        <ele>1747</ele>
        <time>2018-10-17T07:29:40Z</time>
      </trkpt>
      <trkpt lat="45.84014" lon="6.43233">
        <ele>1747</ele>
        <time>2018-10-17T07:29:41Z</time>
      </trkpt>
      <trkpt lat="45.84014" lon="6.43233">
        <ele>1748</ele>
        <time>2018-10-17T07:29:42Z</time>
      </trkpt>
      <trkpt lat="45.84016" lon="6.43235">
        <ele>1748</ele>
        <time>2018-10-17T07:29:43Z</time>
      </trkpt>
      <trkpt lat="45.84016" lon="6.43235">
        <ele>1748</ele>
        <time>2018-10-17T07:29:44Z</time>
      </trkpt>
      <trkpt lat="45.84016" lon="6.43235">
        <ele>1748</ele>
        <time>2018-10-17T07:29:45Z</time>
      </trkpt>
      <trkpt lat="45.84016" lon="6.43235">
        <ele>1748</ele>
        <time>2018-10-17T07:29:46Z</time>
      </trkpt>
      <trkpt lat="45.84018" lon="6.43235">
        <ele>1749</ele>
        <time>2018-10-17T07:29:47Z</time>
      </trkpt>
      <trkpt lat="45.84018" lon="6.43235">
        <ele>1749</ele>
        <time>2018-10-17T07:29:48Z</time>
      </trkpt>
      <trkpt lat="45.84018" lon="6.43235">
        <ele>1750</ele>
        <time>2018-10-17T07:29:49Z</time>
      </trkpt>
      <trkpt lat="45.84018" lon="6.43235">
        <ele>1751</ele>
        <time>2018-10-17T07:29:50Z</time>
      </trkpt>
      <trkpt lat="45.84018" lon="6.43235">
        <ele>1751</ele>
        <time>2018-10-17T07:29:51Z</time>
      </trkpt>
      <trkpt lat="45.84018" lon="6.43235">
        <ele>1751</ele>
        <time>2018-10-17T07:29:52Z</time>
      </trkpt>
      <trkpt lat="45.84018" lon="6.43235">
        <ele>1751</ele>
        <time>2018-10-17T07:29:53Z</time>
      </trkpt>
      <trkpt lat="45.84018" lon="6.43235">
        <ele>1751</ele>
        <time>2018-10-17T07:29:54Z</time>
      </trkpt>
      <trkpt lat="45.84018" lon="6.43235">
        <ele>1751</ele>
        <time>2018-10-17T07:29:55Z</time>
      </trkpt>
      <trkpt lat="45.84018" lon="6.43237">
        <ele>1751</ele>
        <time>2018-10-17T07:29:56Z</time>
      </trkpt>
      <trkpt lat="45.84018" lon="6.43237">
        <ele>1751</ele>
        <time>2018-10-17T07:29:57Z</time>
      </trkpt>
      <trkpt lat="45.84018" lon="6.43237">
        <ele>1751</ele>
        <time>2018-10-17T07:29:58Z</time>
      </trkpt>
      <trkpt lat="45.84018" lon="6.43237">
        <ele>1752</ele>
        <time>2018-10-17T07:29:59Z</time>
      </trkpt>
      <trkpt lat="45.84018" lon="6.43237">
        <ele>1752</ele>
        <time>2018-10-17T07:30:00Z</time>
      </trkpt>
      <trkpt lat="45.84018" lon="6.43237">
        <ele>1752</ele>
        <time>2018-10-17T07:30:01Z</time>
      </trkpt>
      <trkpt lat="45.84018" lon="6.43237">
        <ele>1752</ele>
        <time>2018-10-17T07:30:02Z</time>
      </trkpt>
      <trkpt lat="45.84019" lon="6.4324">
        <ele>1752</ele>
        <time>2018-10-17T07:30:03Z</time>
      </trkpt>
      <trkpt lat="45.84019" lon="6.4324">
        <ele>1752</ele>
        <time>2018-10-17T07:30:04Z</time>
      </trkpt>
      <trkpt lat="45.84019" lon="6.4324">
        <ele>1752</ele>
        <time>2018-10-17T07:30:05Z</time>
      </trkpt>
      <trkpt lat="45.84019" lon="6.4324">
        <ele>1752</ele>
        <time>2018-10-17T07:30:06Z</time>
      </trkpt>
      <trkpt lat="45.84019" lon="6.4324">
        <ele>1752</ele>
        <time>2018-10-17T07:30:07Z</time>
      </trkpt>
      <trkpt lat="45.84019" lon="6.4324">
        <ele>1752</ele>
        <time>2018-10-17T07:30:08Z</time>
      </trkpt>
      <trkpt lat="45.84019" lon="6.43243">
        <ele>1752</ele>
        <time>2018-10-17T07:30:09Z</time>
      </trkpt>
      <trkpt lat="45.84019" lon="6.43243">
        <ele>1752</ele>
        <time>2018-10-17T07:30:10Z</time>
      </trkpt>
      <trkpt lat="45.84019" lon="6.43243">
        <ele>1753</ele>
        <time>2018-10-17T07:30:11Z</time>
      </trkpt>
      <trkpt lat="45.84019" lon="6.43243">
        <ele>1753</ele>
        <time>2018-10-17T07:30:12Z</time>
      </trkpt>
      <trkpt lat="45.84019" lon="6.43243">
        <ele>1753</ele>
        <time>2018-10-17T07:30:13Z</time>
      </trkpt>
      <trkpt lat="45.8402" lon="6.43245">
        <ele>1753</ele>
        <time>2018-10-17T07:30:14Z</time>
      </trkpt>
      <trkpt lat="45.8402" lon="6.43245">
        <ele>1753</ele>
        <time>2018-10-17T07:30:15Z</time>
      </trkpt>
      <trkpt lat="45.8402" lon="6.43245">
        <ele>1754</ele>
        <time>2018-10-17T07:30:16Z</time>
      </trkpt>
      <trkpt lat="45.8402" lon="6.43245">
        <ele>1754</ele>
        <time>2018-10-17T07:30:17Z</time>
      </trkpt>
      <trkpt lat="45.84021" lon="6.43247">
        <ele>1754</ele>
        <time>2018-10-17T07:30:18Z</time>
      </trkpt>
      <trkpt lat="45.84021" lon="6.43247">
        <ele>1754</ele>
        <time>2018-10-17T07:30:19Z</time>
      </trkpt>
      <trkpt lat="45.84021" lon="6.43247">
        <ele>1755</ele>
        <time>2018-10-17T07:30:20Z</time>
      </trkpt>
      <trkpt lat="45.84021" lon="6.43247">
        <ele>1755</ele>
        <time>2018-10-17T07:30:21Z</time>
      </trkpt>
      <trkpt lat="45.84022" lon="6.4325">
        <ele>1755</ele>
        <time>2018-10-17T07:30:22Z</time>
      </trkpt>
      <trkpt lat="45.84022" lon="6.4325">
        <ele>1755</ele>
        <time>2018-10-17T07:30:23Z</time>
      </trkpt>
      <trkpt lat="45.84022" lon="6.4325">
        <ele>1755</ele>
        <time>2018-10-17T07:30:24Z</time>
      </trkpt>
      <trkpt lat="45.84022" lon="6.4325">
        <ele>1756</ele>
        <time>2018-10-17T07:30:25Z</time>
      </trkpt>
      <trkpt lat="45.84022" lon="6.4325">
        <ele>1756</ele>
        <time>2018-10-17T07:30:26Z</time>
      </trkpt>
      <trkpt lat="45.84023" lon="6.43252">
        <ele>1756</ele>
        <time>2018-10-17T07:30:27Z</time>
      </trkpt>
      <trkpt lat="45.84023" lon="6.43252">
        <ele>1756</ele>
        <time>2018-10-17T07:30:28Z</time>
      </trkpt>
      <trkpt lat="45.84023" lon="6.43252">
        <ele>1756</ele>
        <time>2018-10-17T07:30:29Z</time>
      </trkpt>
      <trkpt lat="45.84023" lon="6.43252">
        <ele>1757</ele>
        <time>2018-10-17T07:30:30Z</time>
      </trkpt>
      <trkpt lat="45.84023" lon="6.43252">
        <ele>1758</ele>
        <time>2018-10-17T07:30:31Z</time>
      </trkpt>
      <trkpt lat="45.84024" lon="6.43255">
        <ele>1758</ele>
        <time>2018-10-17T07:30:32Z</time>
      </trkpt>
      <trkpt lat="45.84024" lon="6.43255">
        <ele>1758</ele>
        <time>2018-10-17T07:30:33Z</time>
      </trkpt>
      <trkpt lat="45.84024" lon="6.43255">
        <ele>1758</ele>
        <time>2018-10-17T07:30:34Z</time>
      </trkpt>
      <trkpt lat="45.84024" lon="6.43255">
        <ele>1758</ele>
        <time>2018-10-17T07:30:35Z</time>
      </trkpt>
      <trkpt lat="45.84024" lon="6.43255">
        <ele>1758</ele>
        <time>2018-10-17T07:30:36Z</time>
      </trkpt>
      <trkpt lat="45.84024" lon="6.43258">
        <ele>1758</ele>
        <time>2018-10-17T07:30:37Z</time>
      </trkpt>
      <trkpt lat="45.84024" lon="6.43258">
        <ele>1759</ele>
        <time>2018-10-17T07:30:38Z</time>
      </trkpt>
      <trkpt lat="45.84024" lon="6.43258">
        <ele>1759</ele>
        <time>2018-10-17T07:30:39Z</time>
      </trkpt>
      <trkpt lat="45.84024" lon="6.43258">
        <ele>1759</ele>
        <time>2018-10-17T07:30:40Z</time>
      </trkpt>
      <trkpt lat="45.84024" lon="6.43258">
        <ele>1759</ele>
        <time>2018-10-17T07:30:41Z</time>
      </trkpt>
      <trkpt lat="45.84025" lon="6.4326">
        <ele>1760</ele>
        <time>2018-10-17T07:30:42Z</time>
      </trkpt>
      <trkpt lat="45.84025" lon="6.4326">
        <ele>1760</ele>
        <time>2018-10-17T07:30:43Z</time>
      </trkpt>
      <trkpt lat="45.84025" lon="6.4326">
        <ele>1760</ele>
        <time>2018-10-17T07:30:44Z</time>
      </trkpt>
      <trkpt lat="45.84025" lon="6.4326">
        <ele>1760</ele>
        <time>2018-10-17T07:30:45Z</time>
      </trkpt>
      <trkpt lat="45.84025" lon="6.4326">
        <ele>1761</ele>
        <time>2018-10-17T07:30:46Z</time>
      </trkpt>
      <trkpt lat="45.84025" lon="6.43263">
        <ele>1761</ele>
        <time>2018-10-17T07:30:47Z</time>
      </trkpt>
      <trkpt lat="45.84025" lon="6.43263">
        <ele>1761</ele>
        <time>2018-10-17T07:30:48Z</time>
      </trkpt>
      <trkpt lat="45.84025" lon="6.43263">
        <ele>1762</ele>
        <time>2018-10-17T07:30:49Z</time>
      </trkpt>
      <trkpt lat="45.84025" lon="6.43263">
        <ele>1762</ele>
        <time>2018-10-17T07:30:50Z</time>
      </trkpt>
      <trkpt lat="45.84026" lon="6.43266">
        <ele>1763</ele>
        <time>2018-10-17T07:30:51Z</time>
      </trkpt>
      <trkpt lat="45.84026" lon="6.43266">
        <ele>1763</ele>
        <time>2018-10-17T07:30:52Z</time>
      </trkpt>
      <trkpt lat="45.84026" lon="6.43266">
        <ele>1763</ele>
        <time>2018-10-17T07:30:53Z</time>
      </trkpt>
      <trkpt lat="45.84026" lon="6.43266">
        <ele>1763</ele>
        <time>2018-10-17T07:30:54Z</time>
      </trkpt>
      <trkpt lat="45.84026" lon="6.43266">
        <ele>1763</ele>
        <time>2018-10-17T07:30:55Z</time>
      </trkpt>
      <trkpt lat="45.84026" lon="6.43266">
        <ele>1763</ele>
        <time>2018-10-17T07:30:56Z</time>
      </trkpt>
      <trkpt lat="45.84026" lon="6.43266">
        <ele>1763</ele>
        <time>2018-10-17T07:30:57Z</time>
      </trkpt>
      <trkpt lat="45.84026" lon="6.43266">
        <ele>1763</ele>
        <time>2018-10-17T07:30:58Z</time>
      </trkpt>
      <trkpt lat="45.84026" lon="6.43266">
        <ele>1763</ele>
        <time>2018-10-17T07:30:59Z</time>
      </trkpt>
      <trkpt lat="45.84026" lon="6.43266">
        <ele>1763</ele>
        <time>2018-10-17T07:31:00Z</time>
      </trkpt>
      <trkpt lat="45.84026" lon="6.43266">
        <ele>1763</ele>
        <time>2018-10-17T07:31:01Z</time>
      </trkpt>
      <trkpt lat="45.84026" lon="6.43266">
        <ele>1763</ele>
        <time>2018-10-17T07:31:02Z</time>
      </trkpt>
      <trkpt lat="45.84026" lon="6.43266">
        <ele>1763</ele>
        <time>2018-10-17T07:31:03Z</time>
      </trkpt>
      <trkpt lat="45.84026" lon="6.43266">
        <ele>1763</ele>
        <time>2018-10-17T07:31:04Z</time>
      </trkpt>
      <trkpt lat="45.84026" lon="6.43266">
        <ele>1763</ele>
        <time>2018-10-17T07:31:05Z</time>
      </trkpt>
      <trkpt lat="45.84026" lon="6.43266">
        <ele>1763</ele>
        <time>2018-10-17T07:31:06Z</time>
      </trkpt>
      <trkpt lat="45.84026" lon="6.43266">
        <ele>1763</ele>
        <time>2018-10-17T07:31:07Z</time>
      </trkpt>
      <trkpt lat="45.84026" lon="6.43266">
        <ele>1764</ele>
        <time>2018-10-17T07:31:08Z</time>
      </trkpt>
      <trkpt lat="45.84026" lon="6.43266">
        <ele>1764</ele>
        <time>2018-10-17T07:31:09Z</time>
      </trkpt>
      <trkpt lat="45.84026" lon="6.43266">
        <ele>1764</ele>
        <time>2018-10-17T07:31:10Z</time>
      </trkpt>
      <trkpt lat="45.84026" lon="6.43266">
        <ele>1764</ele>
        <time>2018-10-17T07:31:11Z</time>
      </trkpt>
      <trkpt lat="45.84026" lon="6.43266">
        <ele>1764</ele>
        <time>2018-10-17T07:31:12Z</time>
      </trkpt>
      <trkpt lat="45.84026" lon="6.43266">
        <ele>1764</ele>
        <time>2018-10-17T07:31:13Z</time>
      </trkpt>
      <trkpt lat="45.84026" lon="6.43268">
        <ele>1765</ele>
        <time>2018-10-17T07:31:14Z</time>
      </trkpt>
      <trkpt lat="45.84026" lon="6.43268">
        <ele>1765</ele>
        <time>2018-10-17T07:31:15Z</time>
      </trkpt>
      <trkpt lat="45.84026" lon="6.43268">
        <ele>1765</ele>
        <time>2018-10-17T07:31:16Z</time>
      </trkpt>
      <trkpt lat="45.84027" lon="6.43271">
        <ele>1765</ele>
        <time>2018-10-17T07:31:17Z</time>
      </trkpt>
      <trkpt lat="45.84027" lon="6.43271">
        <ele>1765</ele>
        <time>2018-10-17T07:31:18Z</time>
      </trkpt>
      <trkpt lat="45.84027" lon="6.43271">
        <ele>1765</ele>
        <time>2018-10-17T07:31:19Z</time>
      </trkpt>
      <trkpt lat="45.84028" lon="6.43273">
        <ele>1766</ele>
        <time>2018-10-17T07:31:20Z</time>
      </trkpt>
      <trkpt lat="45.84028" lon="6.43273">
        <ele>1766</ele>
        <time>2018-10-17T07:31:21Z</time>
      </trkpt>
      <trkpt lat="45.84028" lon="6.43273">
        <ele>1766</ele>
        <time>2018-10-17T07:31:22Z</time>
      </trkpt>
      <trkpt lat="45.84029" lon="6.43276">
        <ele>1766</ele>
        <time>2018-10-17T07:31:23Z</time>
      </trkpt>
      <trkpt lat="45.84029" lon="6.43276">
        <ele>1767</ele>
        <time>2018-10-17T07:31:24Z</time>
      </trkpt>
      <trkpt lat="45.84029" lon="6.43276">
        <ele>1767</ele>
        <time>2018-10-17T07:31:25Z</time>
      </trkpt>
      <trkpt lat="45.84029" lon="6.43276">
        <ele>1767</ele>
        <time>2018-10-17T07:31:26Z</time>
      </trkpt>
      <trkpt lat="45.8403" lon="6.43279">
        <ele>1768</ele>
        <time>2018-10-17T07:31:27Z</time>
      </trkpt>
      <trkpt lat="45.8403" lon="6.43279">
        <ele>1768</ele>
        <time>2018-10-17T07:31:28Z</time>
      </trkpt>
      <trkpt lat="45.8403" lon="6.43279">
        <ele>1768</ele>
        <time>2018-10-17T07:31:29Z</time>
      </trkpt>
      <trkpt lat="45.8403" lon="6.43279">
        <ele>1768</ele>
        <time>2018-10-17T07:31:30Z</time>
      </trkpt>
      <trkpt lat="45.84031" lon="6.43281">
        <ele>1769</ele>
        <time>2018-10-17T07:31:31Z</time>
      </trkpt>
      <trkpt lat="45.84031" lon="6.43281">
        <ele>1769</ele>
        <time>2018-10-17T07:31:32Z</time>
      </trkpt>
      <trkpt lat="45.84031" lon="6.43281">
        <ele>1770</ele>
        <time>2018-10-17T07:31:33Z</time>
      </trkpt>
      <trkpt lat="45.84031" lon="6.43281">
        <ele>1770</ele>
        <time>2018-10-17T07:31:34Z</time>
      </trkpt>
      <trkpt lat="45.84033" lon="6.43284">
        <ele>1771</ele>
        <time>2018-10-17T07:31:35Z</time>
      </trkpt>
      <trkpt lat="45.84033" lon="6.43284">
        <ele>1771</ele>
        <time>2018-10-17T07:31:36Z</time>
      </trkpt>
      <trkpt lat="45.84033" lon="6.43284">
        <ele>1771</ele>
        <time>2018-10-17T07:31:37Z</time>
      </trkpt>
      <trkpt lat="45.84033" lon="6.43284">
        <ele>1771</ele>
        <time>2018-10-17T07:31:38Z</time>
      </trkpt>
      <trkpt lat="45.84034" lon="6.43286">
        <ele>1771</ele>
        <time>2018-10-17T07:31:39Z</time>
      </trkpt>
      <trkpt lat="45.84034" lon="6.43286">
        <ele>1771</ele>
        <time>2018-10-17T07:31:40Z</time>
      </trkpt>
      <trkpt lat="45.84034" lon="6.43286">
        <ele>1772</ele>
        <time>2018-10-17T07:31:41Z</time>
      </trkpt>
      <trkpt lat="45.84034" lon="6.43286">
        <ele>1773</ele>
        <time>2018-10-17T07:31:42Z</time>
      </trkpt>
      <trkpt lat="45.84034" lon="6.43286">
        <ele>1773</ele>
        <time>2018-10-17T07:31:43Z</time>
      </trkpt>
      <trkpt lat="45.84036" lon="6.43287">
        <ele>1773</ele>
        <time>2018-10-17T07:31:44Z</time>
      </trkpt>
      <trkpt lat="45.84036" lon="6.43287">
        <ele>1773</ele>
        <time>2018-10-17T07:31:45Z</time>
      </trkpt>
      <trkpt lat="45.84036" lon="6.43287">
        <ele>1773</ele>
        <time>2018-10-17T07:31:46Z</time>
      </trkpt>
      <trkpt lat="45.84038" lon="6.43289">
        <ele>1773</ele>
        <time>2018-10-17T07:31:47Z</time>
      </trkpt>
      <trkpt lat="45.84038" lon="6.43289">
        <ele>1773</ele>
        <time>2018-10-17T07:31:48Z</time>
      </trkpt>
      <trkpt lat="45.84038" lon="6.43289">
        <ele>1773</ele>
        <time>2018-10-17T07:31:49Z</time>
      </trkpt>
      <trkpt lat="45.84038" lon="6.43289">
        <ele>1773</ele>
        <time>2018-10-17T07:31:50Z</time>
      </trkpt>
      <trkpt lat="45.84038" lon="6.43289">
        <ele>1773</ele>
        <time>2018-10-17T07:31:51Z</time>
      </trkpt>
      <trkpt lat="45.84038" lon="6.43289">
        <ele>1774</ele>
        <time>2018-10-17T07:31:52Z</time>
      </trkpt>
      <trkpt lat="45.84038" lon="6.43289">
        <ele>1775</ele>
        <time>2018-10-17T07:31:53Z</time>
      </trkpt>
      <trkpt lat="45.84038" lon="6.43289">
        <ele>1775</ele>
        <time>2018-10-17T07:31:54Z</time>
      </trkpt>
      <trkpt lat="45.84038" lon="6.43289">
        <ele>1775</ele>
        <time>2018-10-17T07:31:55Z</time>
      </trkpt>
      <trkpt lat="45.84038" lon="6.43289">
        <ele>1776</ele>
        <time>2018-10-17T07:31:56Z</time>
      </trkpt>
      <trkpt lat="45.84039" lon="6.4329">
        <ele>1776</ele>
        <time>2018-10-17T07:31:57Z</time>
      </trkpt>
      <trkpt lat="45.84039" lon="6.4329">
        <ele>1776</ele>
        <time>2018-10-17T07:31:58Z</time>
      </trkpt>
      <trkpt lat="45.84039" lon="6.4329">
        <ele>1776</ele>
        <time>2018-10-17T07:31:59Z</time>
      </trkpt>
      <trkpt lat="45.84039" lon="6.4329">
        <ele>1776</ele>
        <time>2018-10-17T07:32:00Z</time>
      </trkpt>
      <trkpt lat="45.84039" lon="6.4329">
        <ele>1776</ele>
        <time>2018-10-17T07:32:01Z</time>
      </trkpt>
      <trkpt lat="45.8404" lon="6.43292">
        <ele>1777</ele>
        <time>2018-10-17T07:32:02Z</time>
      </trkpt>
      <trkpt lat="45.8404" lon="6.43292">
        <ele>1777</ele>
        <time>2018-10-17T07:32:03Z</time>
      </trkpt>
      <trkpt lat="45.8404" lon="6.43292">
        <ele>1777</ele>
        <time>2018-10-17T07:32:04Z</time>
      </trkpt>
      <trkpt lat="45.8404" lon="6.43292">
        <ele>1777</ele>
        <time>2018-10-17T07:32:05Z</time>
      </trkpt>
      <trkpt lat="45.8404" lon="6.43292">
        <ele>1777</ele>
        <time>2018-10-17T07:32:06Z</time>
      </trkpt>
      <trkpt lat="45.84042" lon="6.43294">
        <ele>1777</ele>
        <time>2018-10-17T07:32:07Z</time>
      </trkpt>
      <trkpt lat="45.84042" lon="6.43294">
        <ele>1777</ele>
        <time>2018-10-17T07:32:08Z</time>
      </trkpt>
      <trkpt lat="45.84042" lon="6.43294">
        <ele>1778</ele>
        <time>2018-10-17T07:32:09Z</time>
      </trkpt>
      <trkpt lat="45.84042" lon="6.43294">
        <ele>1778</ele>
        <time>2018-10-17T07:32:10Z</time>
      </trkpt>
      <trkpt lat="45.84044" lon="6.43295">
        <ele>1778</ele>
        <time>2018-10-17T07:32:11Z</time>
      </trkpt>
      <trkpt lat="45.84044" lon="6.43295">
        <ele>1779</ele>
        <time>2018-10-17T07:32:12Z</time>
      </trkpt>
      <trkpt lat="45.84044" lon="6.43295">
        <ele>1779</ele>
        <time>2018-10-17T07:32:13Z</time>
      </trkpt>
      <trkpt lat="45.84044" lon="6.43295">
        <ele>1779</ele>
        <time>2018-10-17T07:32:14Z</time>
      </trkpt>
      <trkpt lat="45.84044" lon="6.43295">
        <ele>1780</ele>
        <time>2018-10-17T07:32:15Z</time>
      </trkpt>
      <trkpt lat="45.84044" lon="6.43295">
        <ele>1780</ele>
        <time>2018-10-17T07:32:16Z</time>
      </trkpt>
      <trkpt lat="45.84045" lon="6.43297">
        <ele>1780</ele>
        <time>2018-10-17T07:32:17Z</time>
      </trkpt>
      <trkpt lat="45.84045" lon="6.43297">
        <ele>1780</ele>
        <time>2018-10-17T07:32:18Z</time>
      </trkpt>
      <trkpt lat="45.84045" lon="6.43297">
        <ele>1780</ele>
        <time>2018-10-17T07:32:19Z</time>
      </trkpt>
      <trkpt lat="45.84045" lon="6.43297">
        <ele>1781</ele>
        <time>2018-10-17T07:32:20Z</time>
      </trkpt>
      <trkpt lat="45.84046" lon="6.433">
        <ele>1781</ele>
        <time>2018-10-17T07:32:21Z</time>
      </trkpt>
      <trkpt lat="45.84046" lon="6.433">
        <ele>1782</ele>
        <time>2018-10-17T07:32:22Z</time>
      </trkpt>
      <trkpt lat="45.84046" lon="6.433">
        <ele>1782</ele>
        <time>2018-10-17T07:32:23Z</time>
      </trkpt>
      <trkpt lat="45.84046" lon="6.433">
        <ele>1782</ele>
        <time>2018-10-17T07:32:24Z</time>
      </trkpt>
      <trkpt lat="45.84046" lon="6.433">
        <ele>1783</ele>
        <time>2018-10-17T07:32:25Z</time>
      </trkpt>
      <trkpt lat="45.84046" lon="6.433">
        <ele>1783</ele>
        <time>2018-10-17T07:32:26Z</time>
      </trkpt>
      <trkpt lat="45.84047" lon="6.43301">
        <ele>1783</ele>
        <time>2018-10-17T07:32:27Z</time>
      </trkpt>
      <trkpt lat="45.84047" lon="6.43301">
        <ele>1783</ele>
        <time>2018-10-17T07:32:28Z</time>
      </trkpt>
      <trkpt lat="45.84047" lon="6.43301">
        <ele>1783</ele>
        <time>2018-10-17T07:32:29Z</time>
      </trkpt>
      <trkpt lat="45.84047" lon="6.43301">
        <ele>1783</ele>
        <time>2018-10-17T07:32:30Z</time>
      </trkpt>
      <trkpt lat="45.84047" lon="6.43301">
        <ele>1783</ele>
        <time>2018-10-17T07:32:31Z</time>
      </trkpt>
      <trkpt lat="45.84047" lon="6.43301">
        <ele>1784</ele>
        <time>2018-10-17T07:32:32Z</time>
      </trkpt>
      <trkpt lat="45.84047" lon="6.43301">
        <ele>1785</ele>
        <time>2018-10-17T07:32:33Z</time>
      </trkpt>
      <trkpt lat="45.84047" lon="6.43301">
        <ele>1785</ele>
        <time>2018-10-17T07:32:34Z</time>
      </trkpt>
      <trkpt lat="45.84047" lon="6.43301">
        <ele>1785</ele>
        <time>2018-10-17T07:32:35Z</time>
      </trkpt>
      <trkpt lat="45.84047" lon="6.43301">
        <ele>1785</ele>
        <time>2018-10-17T07:32:36Z</time>
      </trkpt>
      <trkpt lat="45.84047" lon="6.43301">
        <ele>1785</ele>
        <time>2018-10-17T07:32:37Z</time>
      </trkpt>
      <trkpt lat="45.84047" lon="6.43301">
        <ele>1785</ele>
        <time>2018-10-17T07:32:38Z</time>
      </trkpt>
      <trkpt lat="45.84047" lon="6.43301">
        <ele>1785</ele>
        <time>2018-10-17T07:32:39Z</time>
      </trkpt>
      <trkpt lat="45.84049" lon="6.43303">
        <ele>1785</ele>
        <time>2018-10-17T07:32:40Z</time>
      </trkpt>
      <trkpt lat="45.84049" lon="6.43303">
        <ele>1785</ele>
        <time>2018-10-17T07:32:41Z</time>
      </trkpt>
      <trkpt lat="45.84049" lon="6.43303">
        <ele>1786</ele>
        <time>2018-10-17T07:32:42Z</time>
      </trkpt>
      <trkpt lat="45.8405" lon="6.43306">
        <ele>1786</ele>
        <time>2018-10-17T07:32:43Z</time>
      </trkpt>
      <trkpt lat="45.8405" lon="6.43306">
        <ele>1786</ele>
        <time>2018-10-17T07:32:44Z</time>
      </trkpt>
      <trkpt lat="45.8405" lon="6.43306">
        <ele>1787</ele>
        <time>2018-10-17T07:32:45Z</time>
      </trkpt>
      <trkpt lat="45.8405" lon="6.43306">
        <ele>1787</ele>
        <time>2018-10-17T07:32:46Z</time>
      </trkpt>
      <trkpt lat="45.8405" lon="6.43306">
        <ele>1787</ele>
        <time>2018-10-17T07:32:47Z</time>
      </trkpt>
      <trkpt lat="45.8405" lon="6.43306">
        <ele>1787</ele>
        <time>2018-10-17T07:32:48Z</time>
      </trkpt>
      <trkpt lat="45.8405" lon="6.43306">
        <ele>1787</ele>
        <time>2018-10-17T07:32:49Z</time>
      </trkpt>
      <trkpt lat="45.8405" lon="6.43306">
        <ele>1787</ele>
        <time>2018-10-17T07:32:50Z</time>
      </trkpt>
      <trkpt lat="45.8405" lon="6.43306">
        <ele>1787</ele>
        <time>2018-10-17T07:32:51Z</time>
      </trkpt>
      <trkpt lat="45.8405" lon="6.43306">
        <ele>1788</ele>
        <time>2018-10-17T07:32:52Z</time>
      </trkpt>
      <trkpt lat="45.8405" lon="6.43306">
        <ele>1788</ele>
        <time>2018-10-17T07:32:53Z</time>
      </trkpt>
      <trkpt lat="45.84051" lon="6.43308">
        <ele>1788</ele>
        <time>2018-10-17T07:32:54Z</time>
      </trkpt>
      <trkpt lat="45.84051" lon="6.43308">
        <ele>1788</ele>
        <time>2018-10-17T07:32:55Z</time>
      </trkpt>
      <trkpt lat="45.84051" lon="6.43308">
        <ele>1788</ele>
        <time>2018-10-17T07:32:56Z</time>
      </trkpt>
      <trkpt lat="45.84051" lon="6.43308">
        <ele>1789</ele>
        <time>2018-10-17T07:32:57Z</time>
      </trkpt>
      <trkpt lat="45.84052" lon="6.43311">
        <ele>1790</ele>
        <time>2018-10-17T07:32:58Z</time>
      </trkpt>
      <trkpt lat="45.84052" lon="6.43311">
        <ele>1790</ele>
        <time>2018-10-17T07:32:59Z</time>
      </trkpt>
      <trkpt lat="45.84052" lon="6.43311">
        <ele>1790</ele>
        <time>2018-10-17T07:33:00Z</time>
      </trkpt>
      <trkpt lat="45.84052" lon="6.43311">
        <ele>1791</ele>
        <time>2018-10-17T07:33:01Z</time>
      </trkpt>
      <trkpt lat="45.84052" lon="6.43311">
        <ele>1791</ele>
        <time>2018-10-17T07:33:02Z</time>
      </trkpt>
      <trkpt lat="45.84052" lon="6.43311">
        <ele>1791</ele>
        <time>2018-10-17T07:33:03Z</time>
      </trkpt>
      <trkpt lat="45.84052" lon="6.43311">
        <ele>1791</ele>
        <time>2018-10-17T07:33:04Z</time>
      </trkpt>
      <trkpt lat="45.84052" lon="6.43311">
        <ele>1791</ele>
        <time>2018-10-17T07:33:05Z</time>
      </trkpt>
      <trkpt lat="45.84052" lon="6.43311">
        <ele>1791</ele>
        <time>2018-10-17T07:33:06Z</time>
      </trkpt>
      <trkpt lat="45.84054" lon="6.43312">
        <ele>1791</ele>
        <time>2018-10-17T07:33:07Z</time>
      </trkpt>
      <trkpt lat="45.84054" lon="6.43312">
        <ele>1792</ele>
        <time>2018-10-17T07:33:08Z</time>
      </trkpt>
      <trkpt lat="45.84054" lon="6.43312">
        <ele>1792</ele>
        <time>2018-10-17T07:33:09Z</time>
      </trkpt>
      <trkpt lat="45.84054" lon="6.43312">
        <ele>1792</ele>
        <time>2018-10-17T07:33:10Z</time>
      </trkpt>
      <trkpt lat="45.84054" lon="6.43315">
        <ele>1792</ele>
        <time>2018-10-17T07:33:11Z</time>
      </trkpt>
      <trkpt lat="45.84054" lon="6.43315">
        <ele>1793</ele>
        <time>2018-10-17T07:33:12Z</time>
      </trkpt>
      <trkpt lat="45.84054" lon="6.43315">
        <ele>1793</ele>
        <time>2018-10-17T07:33:13Z</time>
      </trkpt>
      <trkpt lat="45.84054" lon="6.43315">
        <ele>1793</ele>
        <time>2018-10-17T07:33:14Z</time>
      </trkpt>
      <trkpt lat="45.84054" lon="6.43315">
        <ele>1793</ele>
        <time>2018-10-17T07:33:15Z</time>
      </trkpt>
      <trkpt lat="45.84055" lon="6.43318">
        <ele>1794</ele>
        <time>2018-10-17T07:33:16Z</time>
      </trkpt>
      <trkpt lat="45.84055" lon="6.43318">
        <ele>1794</ele>
        <time>2018-10-17T07:33:17Z</time>
      </trkpt>
      <trkpt lat="45.84055" lon="6.43318">
        <ele>1794</ele>
        <time>2018-10-17T07:33:18Z</time>
      </trkpt>
      <trkpt lat="45.84055" lon="6.43318">
        <ele>1794</ele>
        <time>2018-10-17T07:33:19Z</time>
      </trkpt>
      <trkpt lat="45.84055" lon="6.43318">
        <ele>1794</ele>
        <time>2018-10-17T07:33:20Z</time>
      </trkpt>
      <trkpt lat="45.84055" lon="6.43318">
        <ele>1795</ele>
        <time>2018-10-17T07:33:21Z</time>
      </trkpt>
      <trkpt lat="45.84056" lon="6.4332">
        <ele>1795</ele>
        <time>2018-10-17T07:33:22Z</time>
      </trkpt>
      <trkpt lat="45.84056" lon="6.4332">
        <ele>1795</ele>
        <time>2018-10-17T07:33:23Z</time>
      </trkpt>
      <trkpt lat="45.84056" lon="6.4332">
        <ele>1795</ele>
        <time>2018-10-17T07:33:24Z</time>
      </trkpt>
      <trkpt lat="45.84056" lon="6.4332">
        <ele>1795</ele>
        <time>2018-10-17T07:33:25Z</time>
      </trkpt>
      <trkpt lat="45.84056" lon="6.4332">
        <ele>1795</ele>
        <time>2018-10-17T07:33:26Z</time>
      </trkpt>
      <trkpt lat="45.84056" lon="6.4332">
        <ele>1796</ele>
        <time>2018-10-17T07:33:27Z</time>
      </trkpt>
      <trkpt lat="45.84056" lon="6.4332">
        <ele>1796</ele>
        <time>2018-10-17T07:33:28Z</time>
      </trkpt>
      <trkpt lat="45.84056" lon="6.4332">
        <ele>1796</ele>
        <time>2018-10-17T07:33:29Z</time>
      </trkpt>
      <trkpt lat="45.84058" lon="6.4332">
        <ele>1796</ele>
        <time>2018-10-17T07:33:30Z</time>
      </trkpt>
      <trkpt lat="45.84058" lon="6.4332">
        <ele>1796</ele>
        <time>2018-10-17T07:33:31Z</time>
      </trkpt>
      <trkpt lat="45.84058" lon="6.4332">
        <ele>1796</ele>
        <time>2018-10-17T07:33:32Z</time>
      </trkpt>
      <trkpt lat="45.84058" lon="6.4332">
        <ele>1797</ele>
        <time>2018-10-17T07:33:33Z</time>
      </trkpt>
      <trkpt lat="45.8406" lon="6.4332">
        <ele>1797</ele>
        <time>2018-10-17T07:33:34Z</time>
      </trkpt>
      <trkpt lat="45.8406" lon="6.4332">
        <ele>1798</ele>
        <time>2018-10-17T07:33:35Z</time>
      </trkpt>
      <trkpt lat="45.8406" lon="6.4332">
        <ele>1798</ele>
        <time>2018-10-17T07:33:36Z</time>
      </trkpt>
      <trkpt lat="45.8406" lon="6.4332">
        <ele>1798</ele>
        <time>2018-10-17T07:33:37Z</time>
      </trkpt>
      <trkpt lat="45.8406" lon="6.4332">
        <ele>1798</ele>
        <time>2018-10-17T07:33:38Z</time>
      </trkpt>
      <trkpt lat="45.8406" lon="6.4332">
        <ele>1798</ele>
        <time>2018-10-17T07:33:39Z</time>
      </trkpt>
      <trkpt lat="45.8406" lon="6.4332">
        <ele>1798</ele>
        <time>2018-10-17T07:33:40Z</time>
      </trkpt>
      <trkpt lat="45.8406" lon="6.4332">
        <ele>1799</ele>
        <time>2018-10-17T07:33:41Z</time>
      </trkpt>
      <trkpt lat="45.8406" lon="6.4332">
        <ele>1799</ele>
        <time>2018-10-17T07:33:42Z</time>
      </trkpt>
      <trkpt lat="45.8406" lon="6.4332">
        <ele>1799</ele>
        <time>2018-10-17T07:33:43Z</time>
      </trkpt>
      <trkpt lat="45.84061" lon="6.43322">
        <ele>1799</ele>
        <time>2018-10-17T07:33:44Z</time>
      </trkpt>
      <trkpt lat="45.84061" lon="6.43322">
        <ele>1800</ele>
        <time>2018-10-17T07:33:45Z</time>
      </trkpt>
      <trkpt lat="45.84061" lon="6.43322">
        <ele>1800</ele>
        <time>2018-10-17T07:33:46Z</time>
      </trkpt>
      <trkpt lat="45.84061" lon="6.43322">
        <ele>1800</ele>
        <time>2018-10-17T07:33:47Z</time>
      </trkpt>
      <trkpt lat="45.84061" lon="6.43322">
        <ele>1800</ele>
        <time>2018-10-17T07:33:48Z</time>
      </trkpt>
      <trkpt lat="45.84061" lon="6.43322">
        <ele>1801</ele>
        <time>2018-10-17T07:33:49Z</time>
      </trkpt>
      <trkpt lat="45.84062" lon="6.43324">
        <ele>1801</ele>
        <time>2018-10-17T07:33:50Z</time>
      </trkpt>
      <trkpt lat="45.84062" lon="6.43324">
        <ele>1801</ele>
        <time>2018-10-17T07:33:51Z</time>
      </trkpt>
      <trkpt lat="45.84062" lon="6.43324">
        <ele>1801</ele>
        <time>2018-10-17T07:33:52Z</time>
      </trkpt>
      <trkpt lat="45.84062" lon="6.43324">
        <ele>1801</ele>
        <time>2018-10-17T07:33:53Z</time>
      </trkpt>
      <trkpt lat="45.84062" lon="6.43324">
        <ele>1801</ele>
        <time>2018-10-17T07:33:54Z</time>
      </trkpt>
      <trkpt lat="45.84062" lon="6.43324">
        <ele>1802</ele>
        <time>2018-10-17T07:33:55Z</time>
      </trkpt>
      <trkpt lat="45.84063" lon="6.43326">
        <ele>1802</ele>
        <time>2018-10-17T07:33:56Z</time>
      </trkpt>
      <trkpt lat="45.84063" lon="6.43326">
        <ele>1802</ele>
        <time>2018-10-17T07:33:57Z</time>
      </trkpt>
      <trkpt lat="45.84063" lon="6.43326">
        <ele>1803</ele>
        <time>2018-10-17T07:33:58Z</time>
      </trkpt>
      <trkpt lat="45.84063" lon="6.43326">
        <ele>1803</ele>
        <time>2018-10-17T07:33:59Z</time>
      </trkpt>
      <trkpt lat="45.84063" lon="6.43326">
        <ele>1803</ele>
        <time>2018-10-17T07:34:00Z</time>
      </trkpt>
      <trkpt lat="45.84063" lon="6.43329">
        <ele>1803</ele>
        <time>2018-10-17T07:34:01Z</time>
      </trkpt>
      <trkpt lat="45.84063" lon="6.43329">
        <ele>1804</ele>
        <time>2018-10-17T07:34:02Z</time>
      </trkpt>
      <trkpt lat="45.84063" lon="6.43329">
        <ele>1804</ele>
        <time>2018-10-17T07:34:03Z</time>
      </trkpt>
      <trkpt lat="45.84063" lon="6.43329">
        <ele>1804</ele>
        <time>2018-10-17T07:34:04Z</time>
      </trkpt>
      <trkpt lat="45.84063" lon="6.43329">
        <ele>1804</ele>
        <time>2018-10-17T07:34:05Z</time>
      </trkpt>
      <trkpt lat="45.84063" lon="6.43329">
        <ele>1804</ele>
        <time>2018-10-17T07:34:06Z</time>
      </trkpt>
      <trkpt lat="45.84064" lon="6.43331">
        <ele>1804</ele>
        <time>2018-10-17T07:34:07Z</time>
      </trkpt>
      <trkpt lat="45.84064" lon="6.43331">
        <ele>1805</ele>
        <time>2018-10-17T07:34:08Z</time>
      </trkpt>
      <trkpt lat="45.84064" lon="6.43331">
        <ele>1805</ele>
        <time>2018-10-17T07:34:09Z</time>
      </trkpt>
      <trkpt lat="45.84064" lon="6.43331">
        <ele>1805</ele>
        <time>2018-10-17T07:34:10Z</time>
      </trkpt>
      <trkpt lat="45.84064" lon="6.43331">
        <ele>1805</ele>
        <time>2018-10-17T07:34:11Z</time>
      </trkpt>
      <trkpt lat="45.84064" lon="6.43331">
        <ele>1805</ele>
        <time>2018-10-17T07:34:12Z</time>
      </trkpt>
      <trkpt lat="45.84065" lon="6.43334">
        <ele>1805</ele>
        <time>2018-10-17T07:34:13Z</time>
      </trkpt>
      <trkpt lat="45.84065" lon="6.43334">
        <ele>1806</ele>
        <time>2018-10-17T07:34:14Z</time>
      </trkpt>
      <trkpt lat="45.84065" lon="6.43334">
        <ele>1807</ele>
        <time>2018-10-17T07:34:15Z</time>
      </trkpt>
      <trkpt lat="45.84065" lon="6.43334">
        <ele>1807</ele>
        <time>2018-10-17T07:34:16Z</time>
      </trkpt>
      <trkpt lat="45.84065" lon="6.43334">
        <ele>1807</ele>
        <time>2018-10-17T07:34:17Z</time>
      </trkpt>
      <trkpt lat="45.84065" lon="6.43336">
        <ele>1807</ele>
        <time>2018-10-17T07:34:18Z</time>
      </trkpt>
      <trkpt lat="45.84065" lon="6.43336">
        <ele>1808</ele>
        <time>2018-10-17T07:34:19Z</time>
      </trkpt>
      <trkpt lat="45.84065" lon="6.43336">
        <ele>1808</ele>
        <time>2018-10-17T07:34:20Z</time>
      </trkpt>
      <trkpt lat="45.84065" lon="6.43336">
        <ele>1808</ele>
        <time>2018-10-17T07:34:21Z</time>
      </trkpt>
      <trkpt lat="45.84065" lon="6.43336">
        <ele>1808</ele>
        <time>2018-10-17T07:34:22Z</time>
      </trkpt>
      <trkpt lat="45.84065" lon="6.43336">
        <ele>1808</ele>
        <time>2018-10-17T07:34:23Z</time>
      </trkpt>
      <trkpt lat="45.84065" lon="6.43336">
        <ele>1808</ele>
        <time>2018-10-17T07:34:24Z</time>
      </trkpt>
      <trkpt lat="45.84066" lon="6.43339">
        <ele>1808</ele>
        <time>2018-10-17T07:34:25Z</time>
      </trkpt>
      <trkpt lat="45.84066" lon="6.43339">
        <ele>1808</ele>
        <time>2018-10-17T07:34:26Z</time>
      </trkpt>
      <trkpt lat="45.84066" lon="6.43339">
        <ele>1808</ele>
        <time>2018-10-17T07:34:27Z</time>
      </trkpt>
      <trkpt lat="45.84066" lon="6.43339">
        <ele>1809</ele>
        <time>2018-10-17T07:34:28Z</time>
      </trkpt>
      <trkpt lat="45.84066" lon="6.43339">
        <ele>1810</ele>
        <time>2018-10-17T07:34:29Z</time>
      </trkpt>
      <trkpt lat="45.84066" lon="6.43339">
        <ele>1810</ele>
        <time>2018-10-17T07:34:30Z</time>
      </trkpt>
      <trkpt lat="45.84066" lon="6.43339">
        <ele>1810</ele>
        <time>2018-10-17T07:34:31Z</time>
      </trkpt>
      <trkpt lat="45.84066" lon="6.43339">
        <ele>1810</ele>
        <time>2018-10-17T07:34:32Z</time>
      </trkpt>
      <trkpt lat="45.84066" lon="6.43339">
        <ele>1810</ele>
        <time>2018-10-17T07:34:33Z</time>
      </trkpt>
      <trkpt lat="45.84066" lon="6.43339">
        <ele>1810</ele>
        <time>2018-10-17T07:34:34Z</time>
      </trkpt>
      <trkpt lat="45.84066" lon="6.43339">
        <ele>1810</ele>
        <time>2018-10-17T07:34:35Z</time>
      </trkpt>
      <trkpt lat="45.84066" lon="6.43339">
        <ele>1810</ele>
        <time>2018-10-17T07:34:36Z</time>
      </trkpt>
      <trkpt lat="45.84067" lon="6.43341">
        <ele>1810</ele>
        <time>2018-10-17T07:34:37Z</time>
      </trkpt>
      <trkpt lat="45.84067" lon="6.43341">
        <ele>1811</ele>
        <time>2018-10-17T07:34:38Z</time>
      </trkpt>
      <trkpt lat="45.84067" lon="6.43341">
        <ele>1812</ele>
        <time>2018-10-17T07:34:39Z</time>
      </trkpt>
      <trkpt lat="45.84067" lon="6.43341">
        <ele>1812</ele>
        <time>2018-10-17T07:34:40Z</time>
      </trkpt>
      <trkpt lat="45.84068" lon="6.43344">
        <ele>1813</ele>
        <time>2018-10-17T07:34:41Z</time>
      </trkpt>
      <trkpt lat="45.84068" lon="6.43344">
        <ele>1814</ele>
        <time>2018-10-17T07:34:42Z</time>
      </trkpt>
      <trkpt lat="45.84068" lon="6.43344">
        <ele>1814</ele>
        <time>2018-10-17T07:34:43Z</time>
      </trkpt>
      <trkpt lat="45.84068" lon="6.43344">
        <ele>1814</ele>
        <time>2018-10-17T07:34:44Z</time>
      </trkpt>
      <trkpt lat="45.84068" lon="6.43344">
        <ele>1815</ele>
        <time>2018-10-17T07:34:45Z</time>
      </trkpt>
      <trkpt lat="45.8407" lon="6.43346">
        <ele>1815</ele>
        <time>2018-10-17T07:34:46Z</time>
      </trkpt>
      <trkpt lat="45.8407" lon="6.43346">
        <ele>1815</ele>
        <time>2018-10-17T07:34:47Z</time>
      </trkpt>
      <trkpt lat="45.8407" lon="6.43346">
        <ele>1815</ele>
        <time>2018-10-17T07:34:48Z</time>
      </trkpt>
      <trkpt lat="45.8407" lon="6.43346">
        <ele>1815</ele>
        <time>2018-10-17T07:34:49Z</time>
      </trkpt>
      <trkpt lat="45.8407" lon="6.43346">
        <ele>1815</ele>
        <time>2018-10-17T07:34:50Z</time>
      </trkpt>
      <trkpt lat="45.8407" lon="6.43348">
        <ele>1816</ele>
        <time>2018-10-17T07:34:51Z</time>
      </trkpt>
      <trkpt lat="45.8407" lon="6.43348">
        <ele>1816</ele>
        <time>2018-10-17T07:34:52Z</time>
      </trkpt>
      <trkpt lat="45.8407" lon="6.43348">
        <ele>1817</ele>
        <time>2018-10-17T07:34:53Z</time>
      </trkpt>
      <trkpt lat="45.8407" lon="6.43348">
        <ele>1817</ele>
        <time>2018-10-17T07:34:54Z</time>
      </trkpt>
      <trkpt lat="45.8407" lon="6.43348">
        <ele>1817</ele>
        <time>2018-10-17T07:34:55Z</time>
      </trkpt>
      <trkpt lat="45.8407" lon="6.43348">
        <ele>1817</ele>
        <time>2018-10-17T07:34:56Z</time>
      </trkpt>
      <trkpt lat="45.84072" lon="6.4335">
        <ele>1818</ele>
        <time>2018-10-17T07:34:57Z</time>
      </trkpt>
      <trkpt lat="45.84072" lon="6.4335">
        <ele>1818</ele>
        <time>2018-10-17T07:34:58Z</time>
      </trkpt>
      <trkpt lat="45.84072" lon="6.4335">
        <ele>1818</ele>
        <time>2018-10-17T07:34:59Z</time>
      </trkpt>
      <trkpt lat="45.84072" lon="6.4335">
        <ele>1818</ele>
        <time>2018-10-17T07:35:00Z</time>
      </trkpt>
      <trkpt lat="45.84072" lon="6.4335">
        <ele>1818</ele>
        <time>2018-10-17T07:35:01Z</time>
      </trkpt>
      <trkpt lat="45.84072" lon="6.4335">
        <ele>1818</ele>
        <time>2018-10-17T07:35:02Z</time>
      </trkpt>
      <trkpt lat="45.84072" lon="6.4335">
        <ele>1818</ele>
        <time>2018-10-17T07:35:03Z</time>
      </trkpt>
      <trkpt lat="45.84073" lon="6.43353">
        <ele>1819</ele>
        <time>2018-10-17T07:35:04Z</time>
      </trkpt>
      <trkpt lat="45.84073" lon="6.43353">
        <ele>1819</ele>
        <time>2018-10-17T07:35:05Z</time>
      </trkpt>
      <trkpt lat="45.84073" lon="6.43353">
        <ele>1819</ele>
        <time>2018-10-17T07:35:06Z</time>
      </trkpt>
      <trkpt lat="45.84073" lon="6.43353">
        <ele>1820</ele>
        <time>2018-10-17T07:35:07Z</time>
      </trkpt>
      <trkpt lat="45.84074" lon="6.43355">
        <ele>1820</ele>
        <time>2018-10-17T07:35:08Z</time>
      </trkpt>
      <trkpt lat="45.84074" lon="6.43355">
        <ele>1820</ele>
        <time>2018-10-17T07:35:09Z</time>
      </trkpt>
      <trkpt lat="45.84074" lon="6.43355">
        <ele>1820</ele>
        <time>2018-10-17T07:35:10Z</time>
      </trkpt>
      <trkpt lat="45.84074" lon="6.43355">
        <ele>1821</ele>
        <time>2018-10-17T07:35:11Z</time>
      </trkpt>
      <trkpt lat="45.84075" lon="6.43357">
        <ele>1821</ele>
        <time>2018-10-17T07:35:12Z</time>
      </trkpt>
      <trkpt lat="45.84075" lon="6.43357">
        <ele>1821</ele>
        <time>2018-10-17T07:35:13Z</time>
      </trkpt>
      <trkpt lat="45.84075" lon="6.43357">
        <ele>1821</ele>
        <time>2018-10-17T07:35:14Z</time>
      </trkpt>
      <trkpt lat="45.84075" lon="6.43357">
        <ele>1821</ele>
        <time>2018-10-17T07:35:15Z</time>
      </trkpt>
      <trkpt lat="45.84075" lon="6.43357">
        <ele>1821</ele>
        <time>2018-10-17T07:35:16Z</time>
      </trkpt>
      <trkpt lat="45.84076" lon="6.4336">
        <ele>1822</ele>
        <time>2018-10-17T07:35:17Z</time>
      </trkpt>
      <trkpt lat="45.84076" lon="6.4336">
        <ele>1823</ele>
        <time>2018-10-17T07:35:18Z</time>
      </trkpt>
      <trkpt lat="45.84076" lon="6.4336">
        <ele>1823</ele>
        <time>2018-10-17T07:35:19Z</time>
      </trkpt>
      <trkpt lat="45.84077" lon="6.43363">
        <ele>1823</ele>
        <time>2018-10-17T07:35:20Z</time>
      </trkpt>
      <trkpt lat="45.84077" lon="6.43363">
        <ele>1823</ele>
        <time>2018-10-17T07:35:21Z</time>
      </trkpt>
      <trkpt lat="45.84077" lon="6.43363">
        <ele>1824</ele>
        <time>2018-10-17T07:35:22Z</time>
      </trkpt>
      <trkpt lat="45.84077" lon="6.43363">
        <ele>1824</ele>
        <time>2018-10-17T07:35:23Z</time>
      </trkpt>
      <trkpt lat="45.84077" lon="6.43366">
        <ele>1824</ele>
        <time>2018-10-17T07:35:24Z</time>
      </trkpt>
      <trkpt lat="45.84077" lon="6.43366">
        <ele>1824</ele>
        <time>2018-10-17T07:35:25Z</time>
      </trkpt>
      <trkpt lat="45.84077" lon="6.43366">
        <ele>1824</ele>
        <time>2018-10-17T07:35:26Z</time>
      </trkpt>
      <trkpt lat="45.84077" lon="6.43366">
        <ele>1825</ele>
        <time>2018-10-17T07:35:27Z</time>
      </trkpt>
      <trkpt lat="45.84077" lon="6.43366">
        <ele>1825</ele>
        <time>2018-10-17T07:35:28Z</time>
      </trkpt>
      <trkpt lat="45.84078" lon="6.43368">
        <ele>1825</ele>
        <time>2018-10-17T07:35:29Z</time>
      </trkpt>
      <trkpt lat="45.84078" lon="6.43368">
        <ele>1826</ele>
        <time>2018-10-17T07:35:30Z</time>
      </trkpt>
      <trkpt lat="45.84078" lon="6.43368">
        <ele>1826</ele>
        <time>2018-10-17T07:35:31Z</time>
      </trkpt>
      <trkpt lat="45.84078" lon="6.43368">
        <ele>1826</ele>
        <time>2018-10-17T07:35:32Z</time>
      </trkpt>
      <trkpt lat="45.84078" lon="6.43368">
        <ele>1826</ele>
        <time>2018-10-17T07:35:33Z</time>
      </trkpt>
      <trkpt lat="45.84079" lon="6.43371">
        <ele>1826</ele>
        <time>2018-10-17T07:35:34Z</time>
      </trkpt>
      <trkpt lat="45.84079" lon="6.43371">
        <ele>1827</ele>
        <time>2018-10-17T07:35:35Z</time>
      </trkpt>
      <trkpt lat="45.84079" lon="6.43371">
        <ele>1827</ele>
        <time>2018-10-17T07:35:36Z</time>
      </trkpt>
      <trkpt lat="45.84079" lon="6.43371">
        <ele>1828</ele>
        <time>2018-10-17T07:35:37Z</time>
      </trkpt>
      <trkpt lat="45.84079" lon="6.43374">
        <ele>1828</ele>
        <time>2018-10-17T07:35:38Z</time>
      </trkpt>
      <trkpt lat="45.84079" lon="6.43374">
        <ele>1828</ele>
        <time>2018-10-17T07:35:39Z</time>
      </trkpt>
      <trkpt lat="45.84079" lon="6.43374">
        <ele>1829</ele>
        <time>2018-10-17T07:35:40Z</time>
      </trkpt>
      <trkpt lat="45.84079" lon="6.43374">
        <ele>1829</ele>
        <time>2018-10-17T07:35:41Z</time>
      </trkpt>
      <trkpt lat="45.84081" lon="6.43375">
        <ele>1829</ele>
        <time>2018-10-17T07:35:42Z</time>
      </trkpt>
      <trkpt lat="45.84081" lon="6.43375">
        <ele>1830</ele>
        <time>2018-10-17T07:35:43Z</time>
      </trkpt>
      <trkpt lat="45.84081" lon="6.43375">
        <ele>1831</ele>
        <time>2018-10-17T07:35:44Z</time>
      </trkpt>
      <trkpt lat="45.84083" lon="6.43377">
        <ele>1831</ele>
        <time>2018-10-17T07:35:45Z</time>
      </trkpt>
      <trkpt lat="45.84083" lon="6.43377">
        <ele>1831</ele>
        <time>2018-10-17T07:35:46Z</time>
      </trkpt>
      <trkpt lat="45.84083" lon="6.43377">
        <ele>1831</ele>
        <time>2018-10-17T07:35:47Z</time>
      </trkpt>
      <trkpt lat="45.84083" lon="6.43377">
        <ele>1831</ele>
        <time>2018-10-17T07:35:48Z</time>
      </trkpt>
      <trkpt lat="45.84083" lon="6.43379">
        <ele>1832</ele>
        <time>2018-10-17T07:35:49Z</time>
      </trkpt>
      <trkpt lat="45.84083" lon="6.43379">
        <ele>1833</ele>
        <time>2018-10-17T07:35:50Z</time>
      </trkpt>
      <trkpt lat="45.84083" lon="6.43379">
        <ele>1833</ele>
        <time>2018-10-17T07:35:51Z</time>
      </trkpt>
      <trkpt lat="45.84083" lon="6.43379">
        <ele>1833</ele>
        <time>2018-10-17T07:35:52Z</time>
      </trkpt>
      <trkpt lat="45.84083" lon="6.43379">
        <ele>1833</ele>
        <time>2018-10-17T07:35:53Z</time>
      </trkpt>
      <trkpt lat="45.84084" lon="6.43382">
        <ele>1834</ele>
        <time>2018-10-17T07:35:54Z</time>
      </trkpt>
      <trkpt lat="45.84084" lon="6.43382">
        <ele>1834</ele>
        <time>2018-10-17T07:35:55Z</time>
      </trkpt>
      <trkpt lat="45.84085" lon="6.43384">
        <ele>1834</ele>
        <time>2018-10-17T07:35:56Z</time>
      </trkpt>
      <trkpt lat="45.84085" lon="6.43384">
        <ele>1834</ele>
        <time>2018-10-17T07:35:57Z</time>
      </trkpt>
      <trkpt lat="45.84085" lon="6.43384">
        <ele>1835</ele>
        <time>2018-10-17T07:35:58Z</time>
      </trkpt>
      <trkpt lat="45.84085" lon="6.43384">
        <ele>1835</ele>
        <time>2018-10-17T07:35:59Z</time>
      </trkpt>
      <trkpt lat="45.84085" lon="6.43384">
        <ele>1835</ele>
        <time>2018-10-17T07:36:00Z</time>
      </trkpt>
      <trkpt lat="45.84085" lon="6.43384">
        <ele>1835</ele>
        <time>2018-10-17T07:36:01Z</time>
      </trkpt>
      <trkpt lat="45.84086" lon="6.43386">
        <ele>1835</ele>
        <time>2018-10-17T07:36:02Z</time>
      </trkpt>
      <trkpt lat="45.84086" lon="6.43386">
        <ele>1836</ele>
        <time>2018-10-17T07:36:03Z</time>
      </trkpt>
      <trkpt lat="45.84086" lon="6.43386">
        <ele>1836</ele>
        <time>2018-10-17T07:36:04Z</time>
      </trkpt>
      <trkpt lat="45.84086" lon="6.43386">
        <ele>1836</ele>
        <time>2018-10-17T07:36:05Z</time>
      </trkpt>
      <trkpt lat="45.84086" lon="6.43386">
        <ele>1837</ele>
        <time>2018-10-17T07:36:06Z</time>
      </trkpt>
      <trkpt lat="45.84086" lon="6.43389">
        <ele>1837</ele>
        <time>2018-10-17T07:36:07Z</time>
      </trkpt>
      <trkpt lat="45.84086" lon="6.43389">
        <ele>1837</ele>
        <time>2018-10-17T07:36:08Z</time>
      </trkpt>
      <trkpt lat="45.84086" lon="6.43389">
        <ele>1837</ele>
        <time>2018-10-17T07:36:09Z</time>
      </trkpt>
      <trkpt lat="45.84086" lon="6.43389">
        <ele>1838</ele>
        <time>2018-10-17T07:36:10Z</time>
      </trkpt>
      <trkpt lat="45.84086" lon="6.43389">
        <ele>1838</ele>
        <time>2018-10-17T07:36:11Z</time>
      </trkpt>
      <trkpt lat="45.84086" lon="6.43389">
        <ele>1838</ele>
        <time>2018-10-17T07:36:12Z</time>
      </trkpt>
      <trkpt lat="45.84086" lon="6.43389">
        <ele>1839</ele>
        <time>2018-10-17T07:36:13Z</time>
      </trkpt>
      <trkpt lat="45.84088" lon="6.43391">
        <ele>1839</ele>
        <time>2018-10-17T07:36:14Z</time>
      </trkpt>
      <trkpt lat="45.84088" lon="6.43391">
        <ele>1839</ele>
        <time>2018-10-17T07:36:15Z</time>
      </trkpt>
      <trkpt lat="45.84088" lon="6.43391">
        <ele>1840</ele>
        <time>2018-10-17T07:36:16Z</time>
      </trkpt>
      <trkpt lat="45.84088" lon="6.43391">
        <ele>1840</ele>
        <time>2018-10-17T07:36:17Z</time>
      </trkpt>
      <trkpt lat="45.8409" lon="6.43392">
        <ele>1840</ele>
        <time>2018-10-17T07:36:18Z</time>
      </trkpt>
      <trkpt lat="45.8409" lon="6.43392">
        <ele>1840</ele>
        <time>2018-10-17T07:36:19Z</time>
      </trkpt>
      <trkpt lat="45.8409" lon="6.43392">
        <ele>1840</ele>
        <time>2018-10-17T07:36:20Z</time>
      </trkpt>
      <trkpt lat="45.8409" lon="6.43392">
        <ele>1840</ele>
        <time>2018-10-17T07:36:21Z</time>
      </trkpt>
      <trkpt lat="45.8409" lon="6.43392">
        <ele>1840</ele>
        <time>2018-10-17T07:36:22Z</time>
      </trkpt>
      <trkpt lat="45.8409" lon="6.43392">
        <ele>1841</ele>
        <time>2018-10-17T07:36:23Z</time>
      </trkpt>
      <trkpt lat="45.8409" lon="6.43392">
        <ele>1841</ele>
        <time>2018-10-17T07:36:24Z</time>
      </trkpt>
      <trkpt lat="45.8409" lon="6.43392">
        <ele>1841</ele>
        <time>2018-10-17T07:36:25Z</time>
      </trkpt>
      <trkpt lat="45.8409" lon="6.43392">
        <ele>1842</ele>
        <time>2018-10-17T07:36:26Z</time>
      </trkpt>
      <trkpt lat="45.8409" lon="6.43395">
        <ele>1842</ele>
        <time>2018-10-17T07:36:27Z</time>
      </trkpt>
      <trkpt lat="45.8409" lon="6.43395">
        <ele>1842</ele>
        <time>2018-10-17T07:36:28Z</time>
      </trkpt>
      <trkpt lat="45.8409" lon="6.43395">
        <ele>1843</ele>
        <time>2018-10-17T07:36:29Z</time>
      </trkpt>
      <trkpt lat="45.8409" lon="6.43395">
        <ele>1843</ele>
        <time>2018-10-17T07:36:30Z</time>
      </trkpt>
      <trkpt lat="45.8409" lon="6.43395">
        <ele>1843</ele>
        <time>2018-10-17T07:36:31Z</time>
      </trkpt>
      <trkpt lat="45.8409" lon="6.43395">
        <ele>1843</ele>
        <time>2018-10-17T07:36:32Z</time>
      </trkpt>
      <trkpt lat="45.8409" lon="6.43395">
        <ele>1843</ele>
        <time>2018-10-17T07:36:33Z</time>
      </trkpt>
      <trkpt lat="45.8409" lon="6.43395">
        <ele>1843</ele>
        <time>2018-10-17T07:36:34Z</time>
      </trkpt>
      <trkpt lat="45.8409" lon="6.43395">
        <ele>1843</ele>
        <time>2018-10-17T07:36:35Z</time>
      </trkpt>
      <trkpt lat="45.8409" lon="6.43395">
        <ele>1843</ele>
        <time>2018-10-17T07:36:36Z</time>
      </trkpt>
      <trkpt lat="45.8409" lon="6.43395">
        <ele>1843</ele>
        <time>2018-10-17T07:36:37Z</time>
      </trkpt>
      <trkpt lat="45.8409" lon="6.43395">
        <ele>1844</ele>
        <time>2018-10-17T07:36:38Z</time>
      </trkpt>
      <trkpt lat="45.8409" lon="6.43395">
        <ele>1844</ele>
        <time>2018-10-17T07:36:39Z</time>
      </trkpt>
      <trkpt lat="45.84092" lon="6.43396">
        <ele>1845</ele>
        <time>2018-10-17T07:36:40Z</time>
      </trkpt>
      <trkpt lat="45.84092" lon="6.43396">
        <ele>1845</ele>
        <time>2018-10-17T07:36:41Z</time>
      </trkpt>
      <trkpt lat="45.84092" lon="6.43396">
        <ele>1845</ele>
        <time>2018-10-17T07:36:42Z</time>
      </trkpt>
      <trkpt lat="45.84092" lon="6.43396">
        <ele>1845</ele>
        <time>2018-10-17T07:36:43Z</time>
      </trkpt>
      <trkpt lat="45.84093" lon="6.43398">
        <ele>1845</ele>
        <time>2018-10-17T07:36:44Z</time>
      </trkpt>
      <trkpt lat="45.84093" lon="6.43398">
        <ele>1846</ele>
        <time>2018-10-17T07:36:45Z</time>
      </trkpt>
      <trkpt lat="45.84093" lon="6.43398">
        <ele>1846</ele>
        <time>2018-10-17T07:36:46Z</time>
      </trkpt>
      <trkpt lat="45.84093" lon="6.43398">
        <ele>1847</ele>
        <time>2018-10-17T07:36:47Z</time>
      </trkpt>
      <trkpt lat="45.84095" lon="6.43401">
        <ele>1847</ele>
        <time>2018-10-17T07:36:48Z</time>
      </trkpt>
      <trkpt lat="45.84095" lon="6.43401">
        <ele>1847</ele>
        <time>2018-10-17T07:36:49Z</time>
      </trkpt>
      <trkpt lat="45.84095" lon="6.43401">
        <ele>1848</ele>
        <time>2018-10-17T07:36:50Z</time>
      </trkpt>
      <trkpt lat="45.84095" lon="6.43401">
        <ele>1849</ele>
        <time>2018-10-17T07:36:51Z</time>
      </trkpt>
      <trkpt lat="45.84096" lon="6.43403">
        <ele>1849</ele>
        <time>2018-10-17T07:36:52Z</time>
      </trkpt>
      <trkpt lat="45.84096" lon="6.43403">
        <ele>1849</ele>
        <time>2018-10-17T07:36:53Z</time>
      </trkpt>
      <trkpt lat="45.84096" lon="6.43403">
        <ele>1849</ele>
        <time>2018-10-17T07:36:54Z</time>
      </trkpt>
      <trkpt lat="45.84096" lon="6.43403">
        <ele>1849</ele>
        <time>2018-10-17T07:36:55Z</time>
      </trkpt>
      <trkpt lat="45.84097" lon="6.43406">
        <ele>1850</ele>
        <time>2018-10-17T07:36:56Z</time>
      </trkpt>
      <trkpt lat="45.84097" lon="6.43406">
        <ele>1850</ele>
        <time>2018-10-17T07:36:57Z</time>
      </trkpt>
      <trkpt lat="45.84097" lon="6.43406">
        <ele>1851</ele>
        <time>2018-10-17T07:36:58Z</time>
      </trkpt>
      <trkpt lat="45.84097" lon="6.43406">
        <ele>1851</ele>
        <time>2018-10-17T07:36:59Z</time>
      </trkpt>
      <trkpt lat="45.84097" lon="6.43406">
        <ele>1851</ele>
        <time>2018-10-17T07:37:00Z</time>
      </trkpt>
      <trkpt lat="45.84097" lon="6.43406">
        <ele>1851</ele>
        <time>2018-10-17T07:37:01Z</time>
      </trkpt>
      <trkpt lat="45.84098" lon="6.43407">
        <ele>1851</ele>
        <time>2018-10-17T07:37:02Z</time>
      </trkpt>
      <trkpt lat="45.84098" lon="6.43407">
        <ele>1851</ele>
        <time>2018-10-17T07:37:03Z</time>
      </trkpt>
      <trkpt lat="45.84098" lon="6.43407">
        <ele>1851</ele>
        <time>2018-10-17T07:37:04Z</time>
      </trkpt>
      <trkpt lat="45.84098" lon="6.43407">
        <ele>1851</ele>
        <time>2018-10-17T07:37:05Z</time>
      </trkpt>
      <trkpt lat="45.84098" lon="6.43407">
        <ele>1851</ele>
        <time>2018-10-17T07:37:06Z</time>
      </trkpt>
      <trkpt lat="45.84098" lon="6.43407">
        <ele>1852</ele>
        <time>2018-10-17T07:37:07Z</time>
      </trkpt>
      <trkpt lat="45.84098" lon="6.43407">
        <ele>1853</ele>
        <time>2018-10-17T07:37:08Z</time>
      </trkpt>
      <trkpt lat="45.84098" lon="6.43407">
        <ele>1853</ele>
        <time>2018-10-17T07:37:09Z</time>
      </trkpt>
      <trkpt lat="45.84098" lon="6.43407">
        <ele>1853</ele>
        <time>2018-10-17T07:37:10Z</time>
      </trkpt>
      <trkpt lat="45.841" lon="6.43408">
        <ele>1853</ele>
        <time>2018-10-17T07:37:11Z</time>
      </trkpt>
      <trkpt lat="45.841" lon="6.43408">
        <ele>1854</ele>
        <time>2018-10-17T07:37:12Z</time>
      </trkpt>
      <trkpt lat="45.841" lon="6.43408">
        <ele>1855</ele>
        <time>2018-10-17T07:37:13Z</time>
      </trkpt>
      <trkpt lat="45.841" lon="6.43408">
        <ele>1856</ele>
        <time>2018-10-17T07:37:14Z</time>
      </trkpt>
      <trkpt lat="45.841" lon="6.43408">
        <ele>1856</ele>
        <time>2018-10-17T07:37:15Z</time>
      </trkpt>
      <trkpt lat="45.84101" lon="6.43411">
        <ele>1856</ele>
        <time>2018-10-17T07:37:16Z</time>
      </trkpt>
      <trkpt lat="45.84101" lon="6.43411">
        <ele>1857</ele>
        <time>2018-10-17T07:37:17Z</time>
      </trkpt>
      <trkpt lat="45.84101" lon="6.43411">
        <ele>1857</ele>
        <time>2018-10-17T07:37:18Z</time>
      </trkpt>
      <trkpt lat="45.84101" lon="6.43411">
        <ele>1857</ele>
        <time>2018-10-17T07:37:19Z</time>
      </trkpt>
      <trkpt lat="45.84103" lon="6.43413">
        <ele>1857</ele>
        <time>2018-10-17T07:37:20Z</time>
      </trkpt>
      <trkpt lat="45.84103" lon="6.43413">
        <ele>1858</ele>
        <time>2018-10-17T07:37:21Z</time>
      </trkpt>
      <trkpt lat="45.84103" lon="6.43413">
        <ele>1858</ele>
        <time>2018-10-17T07:37:22Z</time>
      </trkpt>
      <trkpt lat="45.84103" lon="6.43413">
        <ele>1858</ele>
        <time>2018-10-17T07:37:23Z</time>
      </trkpt>
      <trkpt lat="45.84104" lon="6.43415">
        <ele>1859</ele>
        <time>2018-10-17T07:37:24Z</time>
      </trkpt>
      <trkpt lat="45.84104" lon="6.43415">
        <ele>1859</ele>
        <time>2018-10-17T07:37:25Z</time>
      </trkpt>
      <trkpt lat="45.84104" lon="6.43415">
        <ele>1859</ele>
        <time>2018-10-17T07:37:26Z</time>
      </trkpt>
      <trkpt lat="45.84104" lon="6.43415">
        <ele>1859</ele>
        <time>2018-10-17T07:37:27Z</time>
      </trkpt>
      <trkpt lat="45.84105" lon="6.43417">
        <ele>1859</ele>
        <time>2018-10-17T07:37:28Z</time>
      </trkpt>
      <trkpt lat="45.84105" lon="6.43417">
        <ele>1860</ele>
        <time>2018-10-17T07:37:29Z</time>
      </trkpt>
      <trkpt lat="45.84105" lon="6.43417">
        <ele>1862</ele>
        <time>2018-10-17T07:37:30Z</time>
      </trkpt>
      <trkpt lat="45.84105" lon="6.43417">
        <ele>1862</ele>
        <time>2018-10-17T07:37:31Z</time>
      </trkpt>
      <trkpt lat="45.84105" lon="6.43417">
        <ele>1862</ele>
        <time>2018-10-17T07:37:32Z</time>
      </trkpt>
      <trkpt lat="45.84105" lon="6.43417">
        <ele>1862</ele>
        <time>2018-10-17T07:37:33Z</time>
      </trkpt>
      <trkpt lat="45.84105" lon="6.43417">
        <ele>1862</ele>
        <time>2018-10-17T07:37:34Z</time>
      </trkpt>
      <trkpt lat="45.84105" lon="6.43417">
        <ele>1862</ele>
        <time>2018-10-17T07:37:35Z</time>
      </trkpt>
      <trkpt lat="45.84106" lon="6.4342">
        <ele>1862</ele>
        <time>2018-10-17T07:37:36Z</time>
      </trkpt>
      <trkpt lat="45.84106" lon="6.4342">
        <ele>1863</ele>
        <time>2018-10-17T07:37:37Z</time>
      </trkpt>
      <trkpt lat="45.84106" lon="6.4342">
        <ele>1863</ele>
        <time>2018-10-17T07:37:38Z</time>
      </trkpt>
      <trkpt lat="45.84106" lon="6.4342">
        <ele>1863</ele>
        <time>2018-10-17T07:37:39Z</time>
      </trkpt>
      <trkpt lat="45.84106" lon="6.43423">
        <ele>1863</ele>
        <time>2018-10-17T07:37:40Z</time>
      </trkpt>
      <trkpt lat="45.84106" lon="6.43423">
        <ele>1863</ele>
        <time>2018-10-17T07:37:41Z</time>
      </trkpt>
      <trkpt lat="45.84106" lon="6.43423">
        <ele>1863</ele>
        <time>2018-10-17T07:37:42Z</time>
      </trkpt>
      <trkpt lat="45.84106" lon="6.43423">
        <ele>1863</ele>
        <time>2018-10-17T07:37:43Z</time>
      </trkpt>
      <trkpt lat="45.84106" lon="6.43423">
        <ele>1863</ele>
        <time>2018-10-17T07:37:44Z</time>
      </trkpt>
      <trkpt lat="45.84106" lon="6.43425">
        <ele>1863</ele>
        <time>2018-10-17T07:37:45Z</time>
      </trkpt>
      <trkpt lat="45.84106" lon="6.43425">
        <ele>1864</ele>
        <time>2018-10-17T07:37:46Z</time>
      </trkpt>
      <trkpt lat="45.84106" lon="6.43425">
        <ele>1865</ele>
        <time>2018-10-17T07:37:47Z</time>
      </trkpt>
      <trkpt lat="45.84106" lon="6.43425">
        <ele>1866</ele>
        <time>2018-10-17T07:37:48Z</time>
      </trkpt>
      <trkpt lat="45.84108" lon="6.43428">
        <ele>1866</ele>
        <time>2018-10-17T07:37:49Z</time>
      </trkpt>
      <trkpt lat="45.84108" lon="6.43428">
        <ele>1866</ele>
        <time>2018-10-17T07:37:50Z</time>
      </trkpt>
      <trkpt lat="45.84108" lon="6.43428">
        <ele>1866</ele>
        <time>2018-10-17T07:37:51Z</time>
      </trkpt>
      <trkpt lat="45.84108" lon="6.43428">
        <ele>1866</ele>
        <time>2018-10-17T07:37:52Z</time>
      </trkpt>
      <trkpt lat="45.84108" lon="6.43428">
        <ele>1867</ele>
        <time>2018-10-17T07:37:53Z</time>
      </trkpt>
      <trkpt lat="45.84109" lon="6.4343">
        <ele>1868</ele>
        <time>2018-10-17T07:37:54Z</time>
      </trkpt>
      <trkpt lat="45.84109" lon="6.4343">
        <ele>1868</ele>
        <time>2018-10-17T07:37:55Z</time>
      </trkpt>
      <trkpt lat="45.84109" lon="6.4343">
        <ele>1868</ele>
        <time>2018-10-17T07:37:56Z</time>
      </trkpt>
      <trkpt lat="45.84109" lon="6.4343">
        <ele>1868</ele>
        <time>2018-10-17T07:37:57Z</time>
      </trkpt>
      <trkpt lat="45.84109" lon="6.4343">
        <ele>1868</ele>
        <time>2018-10-17T07:37:58Z</time>
      </trkpt>
      <trkpt lat="45.84109" lon="6.4343">
        <ele>1868</ele>
        <time>2018-10-17T07:37:59Z</time>
      </trkpt>
      <trkpt lat="45.84111" lon="6.43433">
        <ele>1868</ele>
        <time>2018-10-17T07:38:00Z</time>
      </trkpt>
      <trkpt lat="45.84111" lon="6.43433">
        <ele>1869</ele>
        <time>2018-10-17T07:38:01Z</time>
      </trkpt>
      <trkpt lat="45.84111" lon="6.43433">
        <ele>1869</ele>
        <time>2018-10-17T07:38:02Z</time>
      </trkpt>
      <trkpt lat="45.84111" lon="6.43433">
        <ele>1869</ele>
        <time>2018-10-17T07:38:03Z</time>
      </trkpt>
      <trkpt lat="45.84111" lon="6.43433">
        <ele>1869</ele>
        <time>2018-10-17T07:38:04Z</time>
      </trkpt>
      <trkpt lat="45.84111" lon="6.43433">
        <ele>1870</ele>
        <time>2018-10-17T07:38:05Z</time>
      </trkpt>
      <trkpt lat="45.84112" lon="6.43434">
        <ele>1871</ele>
        <time>2018-10-17T07:38:06Z</time>
      </trkpt>
      <trkpt lat="45.84112" lon="6.43434">
        <ele>1871</ele>
        <time>2018-10-17T07:38:07Z</time>
      </trkpt>
      <trkpt lat="45.84112" lon="6.43434">
        <ele>1872</ele>
        <time>2018-10-17T07:38:08Z</time>
      </trkpt>
      <trkpt lat="45.84112" lon="6.43434">
        <ele>1872</ele>
        <time>2018-10-17T07:38:09Z</time>
      </trkpt>
      <trkpt lat="45.84113" lon="6.43437">
        <ele>1872</ele>
        <time>2018-10-17T07:38:10Z</time>
      </trkpt>
      <trkpt lat="45.84113" lon="6.43437">
        <ele>1872</ele>
        <time>2018-10-17T07:38:11Z</time>
      </trkpt>
      <trkpt lat="45.84113" lon="6.43437">
        <ele>1872</ele>
        <time>2018-10-17T07:38:12Z</time>
      </trkpt>
      <trkpt lat="45.84113" lon="6.43437">
        <ele>1872</ele>
        <time>2018-10-17T07:38:13Z</time>
      </trkpt>
      <trkpt lat="45.84113" lon="6.43437">
        <ele>1872</ele>
        <time>2018-10-17T07:38:14Z</time>
      </trkpt>
      <trkpt lat="45.84113" lon="6.43437">
        <ele>1872</ele>
        <time>2018-10-17T07:38:15Z</time>
      </trkpt>
      <trkpt lat="45.84114" lon="6.4344">
        <ele>1872</ele>
        <time>2018-10-17T07:38:16Z</time>
      </trkpt>
      <trkpt lat="45.84114" lon="6.4344">
        <ele>1873</ele>
        <time>2018-10-17T07:38:17Z</time>
      </trkpt>
      <trkpt lat="45.84114" lon="6.4344">
        <ele>1874</ele>
        <time>2018-10-17T07:38:18Z</time>
      </trkpt>
      <trkpt lat="45.84115" lon="6.43442">
        <ele>1874</ele>
        <time>2018-10-17T07:38:19Z</time>
      </trkpt>
      <trkpt lat="45.84115" lon="6.43442">
        <ele>1874</ele>
        <time>2018-10-17T07:38:20Z</time>
      </trkpt>
      <trkpt lat="45.84115" lon="6.43442">
        <ele>1874</ele>
        <time>2018-10-17T07:38:21Z</time>
      </trkpt>
      <trkpt lat="45.84116" lon="6.43445">
        <ele>1874</ele>
        <time>2018-10-17T07:38:22Z</time>
      </trkpt>
      <trkpt lat="45.84116" lon="6.43445">
        <ele>1875</ele>
        <time>2018-10-17T07:38:23Z</time>
      </trkpt>
      <trkpt lat="45.84116" lon="6.43445">
        <ele>1876</ele>
        <time>2018-10-17T07:38:24Z</time>
      </trkpt>
      <trkpt lat="45.84116" lon="6.43445">
        <ele>1876</ele>
        <time>2018-10-17T07:38:25Z</time>
      </trkpt>
      <trkpt lat="45.84116" lon="6.43445">
        <ele>1876</ele>
        <time>2018-10-17T07:38:26Z</time>
      </trkpt>
      <trkpt lat="45.84116" lon="6.43445">
        <ele>1876</ele>
        <time>2018-10-17T07:38:27Z</time>
      </trkpt>
      <trkpt lat="45.84116" lon="6.43445">
        <ele>1876</ele>
        <time>2018-10-17T07:38:28Z</time>
      </trkpt>
      <trkpt lat="45.84116" lon="6.43445">
        <ele>1876</ele>
        <time>2018-10-17T07:38:29Z</time>
      </trkpt>
      <trkpt lat="45.84116" lon="6.43445">
        <ele>1876</ele>
        <time>2018-10-17T07:38:30Z</time>
      </trkpt>
      <trkpt lat="45.84116" lon="6.43445">
        <ele>1876</ele>
        <time>2018-10-17T07:38:31Z</time>
      </trkpt>
      <trkpt lat="45.84116" lon="6.43445">
        <ele>1877</ele>
        <time>2018-10-17T07:38:32Z</time>
      </trkpt>
      <trkpt lat="45.84116" lon="6.43445">
        <ele>1877</ele>
        <time>2018-10-17T07:38:33Z</time>
      </trkpt>
      <trkpt lat="45.84116" lon="6.43445">
        <ele>1877</ele>
        <time>2018-10-17T07:38:34Z</time>
      </trkpt>
      <trkpt lat="45.84116" lon="6.43445">
        <ele>1877</ele>
        <time>2018-10-17T07:38:35Z</time>
      </trkpt>
      <trkpt lat="45.84116" lon="6.43445">
        <ele>1877</ele>
        <time>2018-10-17T07:38:36Z</time>
      </trkpt>
      <trkpt lat="45.84118" lon="6.43447">
        <ele>1878</ele>
        <time>2018-10-17T07:38:37Z</time>
      </trkpt>
      <trkpt lat="45.84118" lon="6.43447">
        <ele>1878</ele>
        <time>2018-10-17T07:38:38Z</time>
      </trkpt>
      <trkpt lat="45.84118" lon="6.43449">
        <ele>1879</ele>
        <time>2018-10-17T07:38:39Z</time>
      </trkpt>
      <trkpt lat="45.84118" lon="6.43449">
        <ele>1879</ele>
        <time>2018-10-17T07:38:40Z</time>
      </trkpt>
      <trkpt lat="45.84118" lon="6.43449">
        <ele>1879</ele>
        <time>2018-10-17T07:38:41Z</time>
      </trkpt>
      <trkpt lat="45.8412" lon="6.43452">
        <ele>1880</ele>
        <time>2018-10-17T07:38:42Z</time>
      </trkpt>
      <trkpt lat="45.8412" lon="6.43452">
        <ele>1880</ele>
        <time>2018-10-17T07:38:43Z</time>
      </trkpt>
      <trkpt lat="45.8412" lon="6.43452">
        <ele>1880</ele>
        <time>2018-10-17T07:38:44Z</time>
      </trkpt>
      <trkpt lat="45.8412" lon="6.43452">
        <ele>1880</ele>
        <time>2018-10-17T07:38:45Z</time>
      </trkpt>
      <trkpt lat="45.8412" lon="6.43452">
        <ele>1880</ele>
        <time>2018-10-17T07:38:46Z</time>
      </trkpt>
      <trkpt lat="45.84121" lon="6.43453">
        <ele>1881</ele>
        <time>2018-10-17T07:38:47Z</time>
      </trkpt>
      <trkpt lat="45.84121" lon="6.43453">
        <ele>1881</ele>
        <time>2018-10-17T07:38:48Z</time>
      </trkpt>
      <trkpt lat="45.84121" lon="6.43453">
        <ele>1881</ele>
        <time>2018-10-17T07:38:49Z</time>
      </trkpt>
      <trkpt lat="45.84121" lon="6.43453">
        <ele>1881</ele>
        <time>2018-10-17T07:38:50Z</time>
      </trkpt>
      <trkpt lat="45.84121" lon="6.43453">
        <ele>1881</ele>
        <time>2018-10-17T07:38:51Z</time>
      </trkpt>
      <trkpt lat="45.84121" lon="6.43453">
        <ele>1881</ele>
        <time>2018-10-17T07:38:52Z</time>
      </trkpt>
      <trkpt lat="45.84121" lon="6.43453">
        <ele>1881</ele>
        <time>2018-10-17T07:38:53Z</time>
      </trkpt>
      <trkpt lat="45.84121" lon="6.43453">
        <ele>1881</ele>
        <time>2018-10-17T07:38:54Z</time>
      </trkpt>
      <trkpt lat="45.84121" lon="6.43453">
        <ele>1881</ele>
        <time>2018-10-17T07:38:55Z</time>
      </trkpt>
      <trkpt lat="45.84121" lon="6.43453">
        <ele>1881</ele>
        <time>2018-10-17T07:38:56Z</time>
      </trkpt>
      <trkpt lat="45.84121" lon="6.43453">
        <ele>1881</ele>
        <time>2018-10-17T07:38:57Z</time>
      </trkpt>
      <trkpt lat="45.84121" lon="6.43453">
        <ele>1881</ele>
        <time>2018-10-17T07:38:58Z</time>
      </trkpt>
      <trkpt lat="45.84121" lon="6.43453">
        <ele>1881</ele>
        <time>2018-10-17T07:38:59Z</time>
      </trkpt>
      <trkpt lat="45.84121" lon="6.43453">
        <ele>1881</ele>
        <time>2018-10-17T07:39:00Z</time>
      </trkpt>
      <trkpt lat="45.84121" lon="6.43453">
        <ele>1881</ele>
        <time>2018-10-17T07:39:01Z</time>
      </trkpt>
      <trkpt lat="45.84121" lon="6.43453">
        <ele>1882</ele>
        <time>2018-10-17T07:39:02Z</time>
      </trkpt>
      <trkpt lat="45.84121" lon="6.43453">
        <ele>1882</ele>
        <time>2018-10-17T07:39:03Z</time>
      </trkpt>
      <trkpt lat="45.84121" lon="6.43453">
        <ele>1882</ele>
        <time>2018-10-17T07:39:04Z</time>
      </trkpt>
      <trkpt lat="45.84121" lon="6.43453">
        <ele>1882</ele>
        <time>2018-10-17T07:39:05Z</time>
      </trkpt>
      <trkpt lat="45.84121" lon="6.43453">
        <ele>1882</ele>
        <time>2018-10-17T07:39:06Z</time>
      </trkpt>
      <trkpt lat="45.84121" lon="6.43453">
        <ele>1882</ele>
        <time>2018-10-17T07:39:07Z</time>
      </trkpt>
      <trkpt lat="45.84121" lon="6.43453">
        <ele>1882</ele>
        <time>2018-10-17T07:39:08Z</time>
      </trkpt>
      <trkpt lat="45.84121" lon="6.43453">
        <ele>1882</ele>
        <time>2018-10-17T07:39:09Z</time>
      </trkpt>
      <trkpt lat="45.84121" lon="6.43453">
        <ele>1882</ele>
        <time>2018-10-17T07:39:10Z</time>
      </trkpt>
      <trkpt lat="45.84121" lon="6.43453">
        <ele>1882</ele>
        <time>2018-10-17T07:39:11Z</time>
      </trkpt>
      <trkpt lat="45.84121" lon="6.43453">
        <ele>1882</ele>
        <time>2018-10-17T07:39:12Z</time>
      </trkpt>
      <trkpt lat="45.84121" lon="6.43453">
        <ele>1882</ele>
        <time>2018-10-17T07:39:13Z</time>
      </trkpt>
      <trkpt lat="45.84121" lon="6.43453">
        <ele>1882</ele>
        <time>2018-10-17T07:39:14Z</time>
      </trkpt>
      <trkpt lat="45.84121" lon="6.43453">
        <ele>1882</ele>
        <time>2018-10-17T07:39:15Z</time>
      </trkpt>
      <trkpt lat="45.84119" lon="6.43453">
        <ele>1882</ele>
        <time>2018-10-17T07:39:16Z</time>
      </trkpt>
      <trkpt lat="45.84119" lon="6.43453">
        <ele>1882</ele>
        <time>2018-10-17T07:39:17Z</time>
      </trkpt>
      <trkpt lat="45.84117" lon="6.43454">
        <ele>1881</ele>
        <time>2018-10-17T07:39:18Z</time>
      </trkpt>
      <trkpt lat="45.84117" lon="6.43454">
        <ele>1881</ele>
        <time>2018-10-17T07:39:19Z</time>
      </trkpt>
      <trkpt lat="45.84115" lon="6.43456">
        <ele>1881</ele>
        <time>2018-10-17T07:39:20Z</time>
      </trkpt>
      <trkpt lat="45.84115" lon="6.43456">
        <ele>1881</ele>
        <time>2018-10-17T07:39:21Z</time>
      </trkpt>
      <trkpt lat="45.84113" lon="6.43458">
        <ele>1880</ele>
        <time>2018-10-17T07:39:22Z</time>
      </trkpt>
      <trkpt lat="45.84113" lon="6.43458">
        <ele>1880</ele>
        <time>2018-10-17T07:39:23Z</time>
      </trkpt>
      <trkpt lat="45.84113" lon="6.43458">
        <ele>1879</ele>
        <time>2018-10-17T07:39:24Z</time>
      </trkpt>
      <trkpt lat="45.84113" lon="6.43458">
        <ele>1879</ele>
        <time>2018-10-17T07:39:25Z</time>
      </trkpt>
      <trkpt lat="45.84113" lon="6.43458">
        <ele>1879</ele>
        <time>2018-10-17T07:39:26Z</time>
      </trkpt>
      <trkpt lat="45.84113" lon="6.43458">
        <ele>1879</ele>
        <time>2018-10-17T07:39:27Z</time>
      </trkpt>
      <trkpt lat="45.84113" lon="6.43458">
        <ele>1879</ele>
        <time>2018-10-17T07:39:28Z</time>
      </trkpt>
      <trkpt lat="45.84113" lon="6.43458">
        <ele>1879</ele>
        <time>2018-10-17T07:39:29Z</time>
      </trkpt>
      <trkpt lat="45.84113" lon="6.43458">
        <ele>1879</ele>
        <time>2018-10-17T07:39:30Z</time>
      </trkpt>
      <trkpt lat="45.84113" lon="6.43458">
        <ele>1879</ele>
        <time>2018-10-17T07:39:31Z</time>
      </trkpt>
      <trkpt lat="45.84113" lon="6.43458">
        <ele>1878</ele>
        <time>2018-10-17T07:39:32Z</time>
      </trkpt>
      <trkpt lat="45.84113" lon="6.43458">
        <ele>1879</ele>
        <time>2018-10-17T07:39:33Z</time>
      </trkpt>
      <trkpt lat="45.84113" lon="6.43458">
        <ele>1879</ele>
        <time>2018-10-17T07:39:34Z</time>
      </trkpt>
      <trkpt lat="45.84113" lon="6.43458">
        <ele>1879</ele>
        <time>2018-10-17T07:39:35Z</time>
      </trkpt>
      <trkpt lat="45.84113" lon="6.43458">
        <ele>1879</ele>
        <time>2018-10-17T07:39:36Z</time>
      </trkpt>
      <trkpt lat="45.84113" lon="6.43458">
        <ele>1879</ele>
        <time>2018-10-17T07:39:37Z</time>
      </trkpt>
      <trkpt lat="45.84113" lon="6.43458">
        <ele>1879</ele>
        <time>2018-10-17T07:39:38Z</time>
      </trkpt>
      <trkpt lat="45.84113" lon="6.43458">
        <ele>1879</ele>
        <time>2018-10-17T07:39:39Z</time>
      </trkpt>
      <trkpt lat="45.84113" lon="6.43458">
        <ele>1879</ele>
        <time>2018-10-17T07:39:40Z</time>
      </trkpt>
      <trkpt lat="45.84113" lon="6.43458">
        <ele>1879</ele>
        <time>2018-10-17T07:39:41Z</time>
      </trkpt>
      <trkpt lat="45.84113" lon="6.43458">
        <ele>1879</ele>
        <time>2018-10-17T07:39:42Z</time>
      </trkpt>
      <trkpt lat="45.84113" lon="6.43458">
        <ele>1880</ele>
        <time>2018-10-17T07:39:43Z</time>
      </trkpt>
      <trkpt lat="45.84113" lon="6.43458">
        <ele>1880</ele>
        <time>2018-10-17T07:39:44Z</time>
      </trkpt>
      <trkpt lat="45.84113" lon="6.43458">
        <ele>1880</ele>
        <time>2018-10-17T07:39:45Z</time>
      </trkpt>
      <trkpt lat="45.84113" lon="6.43458">
        <ele>1880</ele>
        <time>2018-10-17T07:39:46Z</time>
      </trkpt>
      <trkpt lat="45.84113" lon="6.43458">
        <ele>1880</ele>
        <time>2018-10-17T07:39:47Z</time>
      </trkpt>
      <trkpt lat="45.84113" lon="6.43458">
        <ele>1880</ele>
        <time>2018-10-17T07:39:48Z</time>
      </trkpt>
      <trkpt lat="45.84113" lon="6.43458">
        <ele>1880</ele>
        <time>2018-10-17T07:39:49Z</time>
      </trkpt>
      <trkpt lat="45.84113" lon="6.43458">
        <ele>1879</ele>
        <time>2018-10-17T07:39:50Z</time>
      </trkpt>
      <trkpt lat="45.84113" lon="6.43458">
        <ele>1880</ele>
        <time>2018-10-17T07:39:51Z</time>
      </trkpt>
      <trkpt lat="45.84113" lon="6.43458">
        <ele>1880</ele>
        <time>2018-10-17T07:39:52Z</time>
      </trkpt>
      <trkpt lat="45.84113" lon="6.43458">
        <ele>1880</ele>
        <time>2018-10-17T07:39:53Z</time>
      </trkpt>
      <trkpt lat="45.84113" lon="6.43458">
        <ele>1880</ele>
        <time>2018-10-17T07:39:54Z</time>
      </trkpt>
      <trkpt lat="45.84114" lon="6.43456">
        <ele>1880</ele>
        <time>2018-10-17T07:39:55Z</time>
      </trkpt>
      <trkpt lat="45.84114" lon="6.43456">
        <ele>1880</ele>
        <time>2018-10-17T07:39:56Z</time>
      </trkpt>
      <trkpt lat="45.84114" lon="6.43456">
        <ele>1881</ele>
        <time>2018-10-17T07:39:57Z</time>
      </trkpt>
      <trkpt lat="45.84116" lon="6.43454">
        <ele>1881</ele>
        <time>2018-10-17T07:39:58Z</time>
      </trkpt>
      <trkpt lat="45.84116" lon="6.43454">
        <ele>1881</ele>
        <time>2018-10-17T07:39:59Z</time>
      </trkpt>
      <trkpt lat="45.84116" lon="6.43454">
        <ele>1881</ele>
        <time>2018-10-17T07:40:00Z</time>
      </trkpt>
      <trkpt lat="45.84117" lon="6.43453">
        <ele>1881</ele>
        <time>2018-10-17T07:40:01Z</time>
      </trkpt>
      <trkpt lat="45.84117" lon="6.43453">
        <ele>1881</ele>
        <time>2018-10-17T07:40:02Z</time>
      </trkpt>
      <trkpt lat="45.84117" lon="6.43453">
        <ele>1881</ele>
        <time>2018-10-17T07:40:03Z</time>
      </trkpt>
      <trkpt lat="45.84117" lon="6.43453">
        <ele>1881</ele>
        <time>2018-10-17T07:40:04Z</time>
      </trkpt>
      <trkpt lat="45.84119" lon="6.43451">
        <ele>1881</ele>
        <time>2018-10-17T07:40:05Z</time>
      </trkpt>
      <trkpt lat="45.84119" lon="6.43451">
        <ele>1882</ele>
        <time>2018-10-17T07:40:06Z</time>
      </trkpt>
      <trkpt lat="45.84119" lon="6.43451">
        <ele>1882</ele>
        <time>2018-10-17T07:40:07Z</time>
      </trkpt>
      <trkpt lat="45.84119" lon="6.43451">
        <ele>1883</ele>
        <time>2018-10-17T07:40:08Z</time>
      </trkpt>
      <trkpt lat="45.84119" lon="6.43451">
        <ele>1883</ele>
        <time>2018-10-17T07:40:09Z</time>
      </trkpt>
      <trkpt lat="45.84121" lon="6.4345">
        <ele>1883</ele>
        <time>2018-10-17T07:40:10Z</time>
      </trkpt>
      <trkpt lat="45.84121" lon="6.4345">
        <ele>1883</ele>
        <time>2018-10-17T07:40:11Z</time>
      </trkpt>
      <trkpt lat="45.84121" lon="6.4345">
        <ele>1883</ele>
        <time>2018-10-17T07:40:12Z</time>
      </trkpt>
      <trkpt lat="45.84121" lon="6.4345">
        <ele>1883</ele>
        <time>2018-10-17T07:40:13Z</time>
      </trkpt>
      <trkpt lat="45.84121" lon="6.4345">
        <ele>1883</ele>
        <time>2018-10-17T07:40:14Z</time>
      </trkpt>
      <trkpt lat="45.84121" lon="6.4345">
        <ele>1883</ele>
        <time>2018-10-17T07:40:15Z</time>
      </trkpt>
      <trkpt lat="45.84121" lon="6.4345">
        <ele>1883</ele>
        <time>2018-10-17T07:40:16Z</time>
      </trkpt>
      <trkpt lat="45.84121" lon="6.4345">
        <ele>1883</ele>
        <time>2018-10-17T07:40:17Z</time>
      </trkpt>
      <trkpt lat="45.84121" lon="6.4345">
        <ele>1883</ele>
        <time>2018-10-17T07:40:18Z</time>
      </trkpt>
      <trkpt lat="45.84121" lon="6.4345">
        <ele>1883</ele>
        <time>2018-10-17T07:40:19Z</time>
      </trkpt>
      <trkpt lat="45.84121" lon="6.4345">
        <ele>1883</ele>
        <time>2018-10-17T07:40:20Z</time>
      </trkpt>
      <trkpt lat="45.84121" lon="6.4345">
        <ele>1883</ele>
        <time>2018-10-17T07:40:21Z</time>
      </trkpt>
      <trkpt lat="45.84121" lon="6.4345">
        <ele>1883</ele>
        <time>2018-10-17T07:40:22Z</time>
      </trkpt>
      <trkpt lat="45.84121" lon="6.4345">
        <ele>1883</ele>
        <time>2018-10-17T07:40:23Z</time>
      </trkpt>
      <trkpt lat="45.84121" lon="6.4345">
        <ele>1883</ele>
        <time>2018-10-17T07:40:24Z</time>
      </trkpt>
      <trkpt lat="45.84121" lon="6.4345">
        <ele>1883</ele>
        <time>2018-10-17T07:40:25Z</time>
      </trkpt>
      <trkpt lat="45.84121" lon="6.4345">
        <ele>1883</ele>
        <time>2018-10-17T07:40:26Z</time>
      </trkpt>
      <trkpt lat="45.84121" lon="6.4345">
        <ele>1883</ele>
        <time>2018-10-17T07:40:27Z</time>
      </trkpt>
      <trkpt lat="45.84121" lon="6.4345">
        <ele>1883</ele>
        <time>2018-10-17T07:40:28Z</time>
      </trkpt>
      <trkpt lat="45.84121" lon="6.4345">
        <ele>1883</ele>
        <time>2018-10-17T07:40:29Z</time>
      </trkpt>
      <trkpt lat="45.84121" lon="6.4345">
        <ele>1883</ele>
        <time>2018-10-17T07:40:30Z</time>
      </trkpt>
      <trkpt lat="45.84121" lon="6.4345">
        <ele>1883</ele>
        <time>2018-10-17T07:40:31Z</time>
      </trkpt>
      <trkpt lat="45.84121" lon="6.4345">
        <ele>1883</ele>
        <time>2018-10-17T07:40:32Z</time>
      </trkpt>
      <trkpt lat="45.84121" lon="6.4345">
        <ele>1883</ele>
        <time>2018-10-17T07:40:33Z</time>
      </trkpt>
      <trkpt lat="45.84121" lon="6.4345">
        <ele>1883</ele>
        <time>2018-10-17T07:40:34Z</time>
      </trkpt>
      <trkpt lat="45.84121" lon="6.4345">
        <ele>1883</ele>
        <time>2018-10-17T07:40:35Z</time>
      </trkpt>
      <trkpt lat="45.84121" lon="6.4345">
        <ele>1883</ele>
        <time>2018-10-17T07:40:36Z</time>
      </trkpt>
      <trkpt lat="45.84121" lon="6.4345">
        <ele>1883</ele>
        <time>2018-10-17T07:40:37Z</time>
      </trkpt>
      <trkpt lat="45.84121" lon="6.4345">
        <ele>1883</ele>
        <time>2018-10-17T07:40:38Z</time>
      </trkpt>
      <trkpt lat="45.84121" lon="6.4345">
        <ele>1883</ele>
        <time>2018-10-17T07:40:39Z</time>
      </trkpt>
      <trkpt lat="45.84121" lon="6.4345">
        <ele>1883</ele>
        <time>2018-10-17T07:40:40Z</time>
      </trkpt>
      <trkpt lat="45.84121" lon="6.4345">
        <ele>1883</ele>
        <time>2018-10-17T07:40:41Z</time>
      </trkpt>
      <trkpt lat="45.84121" lon="6.4345">
        <ele>1883</ele>
        <time>2018-10-17T07:40:42Z</time>
      </trkpt>
      <trkpt lat="45.84121" lon="6.4345">
        <ele>1883</ele>
        <time>2018-10-17T07:40:43Z</time>
      </trkpt>
      <trkpt lat="45.84121" lon="6.4345">
        <ele>1883</ele>
        <time>2018-10-17T07:40:44Z</time>
      </trkpt>
      <trkpt lat="45.84121" lon="6.4345">
        <ele>1883</ele>
        <time>2018-10-17T07:40:45Z</time>
      </trkpt>
      <trkpt lat="45.84121" lon="6.4345">
        <ele>1883</ele>
        <time>2018-10-17T07:40:46Z</time>
      </trkpt>
      <trkpt lat="45.84121" lon="6.4345">
        <ele>1883</ele>
        <time>2018-10-17T07:40:47Z</time>
      </trkpt>
      <trkpt lat="45.84121" lon="6.4345">
        <ele>1883</ele>
        <time>2018-10-17T07:40:48Z</time>
      </trkpt>
      <trkpt lat="45.84121" lon="6.4345">
        <ele>1883</ele>
        <time>2018-10-17T07:40:49Z</time>
      </trkpt>
      <trkpt lat="45.84121" lon="6.4345">
        <ele>1883</ele>
        <time>2018-10-17T07:40:50Z</time>
      </trkpt>
      <trkpt lat="45.84121" lon="6.4345">
        <ele>1883</ele>
        <time>2018-10-17T07:40:51Z</time>
      </trkpt>
      <trkpt lat="45.84121" lon="6.4345">
        <ele>1883</ele>
        <time>2018-10-17T07:40:52Z</time>
      </trkpt>
      <trkpt lat="45.84121" lon="6.4345">
        <ele>1883</ele>
        <time>2018-10-17T07:40:53Z</time>
      </trkpt>
      <trkpt lat="45.84121" lon="6.4345">
        <ele>1883</ele>
        <time>2018-10-17T07:40:54Z</time>
      </trkpt>
      <trkpt lat="45.84122" lon="6.43447">
        <ele>1883</ele>
        <time>2018-10-17T07:40:55Z</time>
      </trkpt>
      <trkpt lat="45.84122" lon="6.43447">
        <ele>1883</ele>
        <time>2018-10-17T07:40:56Z</time>
      </trkpt>
      <trkpt lat="45.84124" lon="6.43447">
        <ele>1883</ele>
        <time>2018-10-17T07:40:57Z</time>
      </trkpt>
      <trkpt lat="45.84124" lon="6.43447">
        <ele>1884</ele>
        <time>2018-10-17T07:40:58Z</time>
      </trkpt>
      <trkpt lat="45.84126" lon="6.43447">
        <ele>1885</ele>
        <time>2018-10-17T07:40:59Z</time>
      </trkpt>
      <trkpt lat="45.84126" lon="6.43447">
        <ele>1886</ele>
        <time>2018-10-17T07:41:00Z</time>
      </trkpt>
      <trkpt lat="45.84128" lon="6.43449">
        <ele>1886</ele>
        <time>2018-10-17T07:41:01Z</time>
      </trkpt>
      <trkpt lat="45.84128" lon="6.43449">
        <ele>1886</ele>
        <time>2018-10-17T07:41:02Z</time>
      </trkpt>
      <trkpt lat="45.84128" lon="6.43449">
        <ele>1886</ele>
        <time>2018-10-17T07:41:03Z</time>
      </trkpt>
      <trkpt lat="45.84129" lon="6.43447">
        <ele>1886</ele>
        <time>2018-10-17T07:41:04Z</time>
      </trkpt>
      <trkpt lat="45.84129" lon="6.43447">
        <ele>1887</ele>
        <time>2018-10-17T07:41:05Z</time>
      </trkpt>
      <trkpt lat="45.8413" lon="6.43444">
        <ele>1887</ele>
        <time>2018-10-17T07:41:06Z</time>
      </trkpt>
      <trkpt lat="45.8413" lon="6.43444">
        <ele>1888</ele>
        <time>2018-10-17T07:41:07Z</time>
      </trkpt>
      <trkpt lat="45.8413" lon="6.43441">
        <ele>1888</ele>
        <time>2018-10-17T07:41:08Z</time>
      </trkpt>
      <trkpt lat="45.8413" lon="6.43441">
        <ele>1888</ele>
        <time>2018-10-17T07:41:09Z</time>
      </trkpt>
      <trkpt lat="45.84131" lon="6.43439">
        <ele>1888</ele>
        <time>2018-10-17T07:41:10Z</time>
      </trkpt>
      <trkpt lat="45.84131" lon="6.43439">
        <ele>1888</ele>
        <time>2018-10-17T07:41:11Z</time>
      </trkpt>
      <trkpt lat="45.84132" lon="6.43437">
        <ele>1889</ele>
        <time>2018-10-17T07:41:12Z</time>
      </trkpt>
      <trkpt lat="45.84132" lon="6.43437">
        <ele>1889</ele>
        <time>2018-10-17T07:41:13Z</time>
      </trkpt>
      <trkpt lat="45.84133" lon="6.43434">
        <ele>1889</ele>
        <time>2018-10-17T07:41:14Z</time>
      </trkpt>
      <trkpt lat="45.84133" lon="6.43434">
        <ele>1890</ele>
        <time>2018-10-17T07:41:15Z</time>
      </trkpt>
      <trkpt lat="45.84134" lon="6.43432">
        <ele>1890</ele>
        <time>2018-10-17T07:41:16Z</time>
      </trkpt>
      <trkpt lat="45.84134" lon="6.43432">
        <ele>1891</ele>
        <time>2018-10-17T07:41:17Z</time>
      </trkpt>
      <trkpt lat="45.84134" lon="6.43432">
        <ele>1891</ele>
        <time>2018-10-17T07:41:18Z</time>
      </trkpt>
      <trkpt lat="45.84134" lon="6.43432">
        <ele>1891</ele>
        <time>2018-10-17T07:41:19Z</time>
      </trkpt>
      <trkpt lat="45.84136" lon="6.43431">
        <ele>1891</ele>
        <time>2018-10-17T07:41:20Z</time>
      </trkpt>
      <trkpt lat="45.84136" lon="6.43431">
        <ele>1892</ele>
        <time>2018-10-17T07:41:21Z</time>
      </trkpt>
      <trkpt lat="45.84136" lon="6.43431">
        <ele>1892</ele>
        <time>2018-10-17T07:41:22Z</time>
      </trkpt>
      <trkpt lat="45.84136" lon="6.43431">
        <ele>1893</ele>
        <time>2018-10-17T07:41:23Z</time>
      </trkpt>
      <trkpt lat="45.84137" lon="6.43428">
        <ele>1893</ele>
        <time>2018-10-17T07:41:24Z</time>
      </trkpt>
      <trkpt lat="45.84137" lon="6.43428">
        <ele>1893</ele>
        <time>2018-10-17T07:41:25Z</time>
      </trkpt>
      <trkpt lat="45.84137" lon="6.43428">
        <ele>1893</ele>
        <time>2018-10-17T07:41:26Z</time>
      </trkpt>
      <trkpt lat="45.84137" lon="6.43428">
        <ele>1894</ele>
        <time>2018-10-17T07:41:27Z</time>
      </trkpt>
      <trkpt lat="45.84139" lon="6.43427">
        <ele>1894</ele>
        <time>2018-10-17T07:41:28Z</time>
      </trkpt>
      <trkpt lat="45.84139" lon="6.43427">
        <ele>1894</ele>
        <time>2018-10-17T07:41:29Z</time>
      </trkpt>
      <trkpt lat="45.84139" lon="6.43427">
        <ele>1895</ele>
        <time>2018-10-17T07:41:30Z</time>
      </trkpt>
      <trkpt lat="45.84139" lon="6.43427">
        <ele>1895</ele>
        <time>2018-10-17T07:41:31Z</time>
      </trkpt>
      <trkpt lat="45.84141" lon="6.43425">
        <ele>1895</ele>
        <time>2018-10-17T07:41:32Z</time>
      </trkpt>
      <trkpt lat="45.84141" lon="6.43425">
        <ele>1895</ele>
        <time>2018-10-17T07:41:33Z</time>
      </trkpt>
      <trkpt lat="45.84141" lon="6.43425">
        <ele>1895</ele>
        <time>2018-10-17T07:41:34Z</time>
      </trkpt>
      <trkpt lat="45.84141" lon="6.43425">
        <ele>1896</ele>
        <time>2018-10-17T07:41:35Z</time>
      </trkpt>
      <trkpt lat="45.84143" lon="6.43423">
        <ele>1896</ele>
        <time>2018-10-17T07:41:36Z</time>
      </trkpt>
      <trkpt lat="45.84143" lon="6.43423">
        <ele>1896</ele>
        <time>2018-10-17T07:41:37Z</time>
      </trkpt>
      <trkpt lat="45.84144" lon="6.4342">
        <ele>1897</ele>
        <time>2018-10-17T07:41:38Z</time>
      </trkpt>
      <trkpt lat="45.84144" lon="6.4342">
        <ele>1897</ele>
        <time>2018-10-17T07:41:39Z</time>
      </trkpt>
      <trkpt lat="45.84145" lon="6.43418">
        <ele>1897</ele>
        <time>2018-10-17T07:41:40Z</time>
      </trkpt>
      <trkpt lat="45.84145" lon="6.43418">
        <ele>1898</ele>
        <time>2018-10-17T07:41:41Z</time>
      </trkpt>
      <trkpt lat="45.84145" lon="6.43418">
        <ele>1898</ele>
        <time>2018-10-17T07:41:42Z</time>
      </trkpt>
      <trkpt lat="45.84147" lon="6.43416">
        <ele>1898</ele>
        <time>2018-10-17T07:41:43Z</time>
      </trkpt>
      <trkpt lat="45.84147" lon="6.43416">
        <ele>1898</ele>
        <time>2018-10-17T07:41:44Z</time>
      </trkpt>
      <trkpt lat="45.84147" lon="6.43416">
        <ele>1899</ele>
        <time>2018-10-17T07:41:45Z</time>
      </trkpt>
      <trkpt lat="45.84149" lon="6.43416">
        <ele>1899</ele>
        <time>2018-10-17T07:41:46Z</time>
      </trkpt>
      <trkpt lat="45.84149" lon="6.43416">
        <ele>1900</ele>
        <time>2018-10-17T07:41:47Z</time>
      </trkpt>
      <trkpt lat="45.84149" lon="6.43416">
        <ele>1900</ele>
        <time>2018-10-17T07:41:48Z</time>
      </trkpt>
      <trkpt lat="45.84151" lon="6.43416">
        <ele>1900</ele>
        <time>2018-10-17T07:41:49Z</time>
      </trkpt>
      <trkpt lat="45.84151" lon="6.43416">
        <ele>1901</ele>
        <time>2018-10-17T07:41:50Z</time>
      </trkpt>
      <trkpt lat="45.84151" lon="6.43416">
        <ele>1901</ele>
        <time>2018-10-17T07:41:51Z</time>
      </trkpt>
      <trkpt lat="45.84153" lon="6.43415">
        <ele>1901</ele>
        <time>2018-10-17T07:41:52Z</time>
      </trkpt>
      <trkpt lat="45.84153" lon="6.43415">
        <ele>1901</ele>
        <time>2018-10-17T07:41:53Z</time>
      </trkpt>
      <trkpt lat="45.84155" lon="6.43415">
        <ele>1902</ele>
        <time>2018-10-17T07:41:54Z</time>
      </trkpt>
      <trkpt lat="45.84155" lon="6.43415">
        <ele>1902</ele>
        <time>2018-10-17T07:41:55Z</time>
      </trkpt>
      <trkpt lat="45.84155" lon="6.43415">
        <ele>1903</ele>
        <time>2018-10-17T07:41:56Z</time>
      </trkpt>
      <trkpt lat="45.84155" lon="6.43415">
        <ele>1903</ele>
        <time>2018-10-17T07:41:57Z</time>
      </trkpt>
      <trkpt lat="45.84157" lon="6.43416">
        <ele>1903</ele>
        <time>2018-10-17T07:41:58Z</time>
      </trkpt>
      <trkpt lat="45.84157" lon="6.43416">
        <ele>1903</ele>
        <time>2018-10-17T07:41:59Z</time>
      </trkpt>
      <trkpt lat="45.84157" lon="6.43416">
        <ele>1903</ele>
        <time>2018-10-17T07:42:00Z</time>
      </trkpt>
      <trkpt lat="45.84159" lon="6.43417">
        <ele>1903</ele>
        <time>2018-10-17T07:42:01Z</time>
      </trkpt>
      <trkpt lat="45.84159" lon="6.43417">
        <ele>1903</ele>
        <time>2018-10-17T07:42:02Z</time>
      </trkpt>
      <trkpt lat="45.84159" lon="6.43417">
        <ele>1904</ele>
        <time>2018-10-17T07:42:03Z</time>
      </trkpt>
      <trkpt lat="45.84159" lon="6.43417">
        <ele>1904</ele>
        <time>2018-10-17T07:42:04Z</time>
      </trkpt>
      <trkpt lat="45.8416" lon="6.43419">
        <ele>1904</ele>
        <time>2018-10-17T07:42:05Z</time>
      </trkpt>
      <trkpt lat="45.8416" lon="6.43419">
        <ele>1905</ele>
        <time>2018-10-17T07:42:06Z</time>
      </trkpt>
      <trkpt lat="45.8416" lon="6.43419">
        <ele>1905</ele>
        <time>2018-10-17T07:42:07Z</time>
      </trkpt>
      <trkpt lat="45.84161" lon="6.43421">
        <ele>1905</ele>
        <time>2018-10-17T07:42:08Z</time>
      </trkpt>
      <trkpt lat="45.84161" lon="6.43421">
        <ele>1906</ele>
        <time>2018-10-17T07:42:09Z</time>
      </trkpt>
      <trkpt lat="45.84161" lon="6.43421">
        <ele>1907</ele>
        <time>2018-10-17T07:42:10Z</time>
      </trkpt>
      <trkpt lat="45.84161" lon="6.43421">
        <ele>1907</ele>
        <time>2018-10-17T07:42:11Z</time>
      </trkpt>
      <trkpt lat="45.84162" lon="6.43423">
        <ele>1907</ele>
        <time>2018-10-17T07:42:12Z</time>
      </trkpt>
      <trkpt lat="45.84162" lon="6.43423">
        <ele>1907</ele>
        <time>2018-10-17T07:42:13Z</time>
      </trkpt>
      <trkpt lat="45.84162" lon="6.43423">
        <ele>1907</ele>
        <time>2018-10-17T07:42:14Z</time>
      </trkpt>
      <trkpt lat="45.84162" lon="6.43423">
        <ele>1908</ele>
        <time>2018-10-17T07:42:15Z</time>
      </trkpt>
      <trkpt lat="45.84165" lon="6.43423">
        <ele>1908</ele>
        <time>2018-10-17T07:42:16Z</time>
      </trkpt>
      <trkpt lat="45.84165" lon="6.43423">
        <ele>1908</ele>
        <time>2018-10-17T07:42:17Z</time>
      </trkpt>
      <trkpt lat="45.84167" lon="6.43422">
        <ele>1908</ele>
        <time>2018-10-17T07:42:18Z</time>
      </trkpt>
      <trkpt lat="45.84167" lon="6.43422">
        <ele>1908</ele>
        <time>2018-10-17T07:42:19Z</time>
      </trkpt>
      <trkpt lat="45.84167" lon="6.43422">
        <ele>1909</ele>
        <time>2018-10-17T07:42:20Z</time>
      </trkpt>
      <trkpt lat="45.84169" lon="6.43421">
        <ele>1909</ele>
        <time>2018-10-17T07:42:21Z</time>
      </trkpt>
      <trkpt lat="45.84169" lon="6.43421">
        <ele>1909</ele>
        <time>2018-10-17T07:42:22Z</time>
      </trkpt>
      <trkpt lat="45.84169" lon="6.43421">
        <ele>1909</ele>
        <time>2018-10-17T07:42:23Z</time>
      </trkpt>
      <trkpt lat="45.84171" lon="6.43421">
        <ele>1909</ele>
        <time>2018-10-17T07:42:24Z</time>
      </trkpt>
      <trkpt lat="45.84171" lon="6.43421">
        <ele>1909</ele>
        <time>2018-10-17T07:42:25Z</time>
      </trkpt>
      <trkpt lat="45.84171" lon="6.43421">
        <ele>1909</ele>
        <time>2018-10-17T07:42:26Z</time>
      </trkpt>
      <trkpt lat="45.84174" lon="6.43418">
        <ele>1910</ele>
        <time>2018-10-17T07:42:27Z</time>
      </trkpt>
      <trkpt lat="45.84174" lon="6.43418">
        <ele>1910</ele>
        <time>2018-10-17T07:42:28Z</time>
      </trkpt>
      <trkpt lat="45.84175" lon="6.43417">
        <ele>1911</ele>
        <time>2018-10-17T07:42:29Z</time>
      </trkpt>
      <trkpt lat="45.84175" lon="6.43417">
        <ele>1911</ele>
        <time>2018-10-17T07:42:30Z</time>
      </trkpt>
      <trkpt lat="45.84175" lon="6.43417">
        <ele>1911</ele>
        <time>2018-10-17T07:42:31Z</time>
      </trkpt>
      <trkpt lat="45.84178" lon="6.43417">
        <ele>1911</ele>
        <time>2018-10-17T07:42:32Z</time>
      </trkpt>
      <trkpt lat="45.84178" lon="6.43417">
        <ele>1911</ele>
        <time>2018-10-17T07:42:33Z</time>
      </trkpt>
      <trkpt lat="45.84178" lon="6.43417">
        <ele>1911</ele>
        <time>2018-10-17T07:42:34Z</time>
      </trkpt>
      <trkpt lat="45.84179" lon="6.43417">
        <ele>1912</ele>
        <time>2018-10-17T07:42:35Z</time>
      </trkpt>
      <trkpt lat="45.84179" lon="6.43417">
        <ele>1912</ele>
        <time>2018-10-17T07:42:36Z</time>
      </trkpt>
      <trkpt lat="45.84179" lon="6.43417">
        <ele>1912</ele>
        <time>2018-10-17T07:42:37Z</time>
      </trkpt>
      <trkpt lat="45.84179" lon="6.43417">
        <ele>1912</ele>
        <time>2018-10-17T07:42:38Z</time>
      </trkpt>
      <trkpt lat="45.84182" lon="6.43417">
        <ele>1912</ele>
        <time>2018-10-17T07:42:39Z</time>
      </trkpt>
      <trkpt lat="45.84182" lon="6.43417">
        <ele>1913</ele>
        <time>2018-10-17T07:42:40Z</time>
      </trkpt>
      <trkpt lat="45.84182" lon="6.43417">
        <ele>1913</ele>
        <time>2018-10-17T07:42:41Z</time>
      </trkpt>
      <trkpt lat="45.84182" lon="6.43417">
        <ele>1913</ele>
        <time>2018-10-17T07:42:42Z</time>
      </trkpt>
      <trkpt lat="45.84184" lon="6.43417">
        <ele>1913</ele>
        <time>2018-10-17T07:42:43Z</time>
      </trkpt>
      <trkpt lat="45.84184" lon="6.43417">
        <ele>1914</ele>
        <time>2018-10-17T07:42:44Z</time>
      </trkpt>
      <trkpt lat="45.84184" lon="6.43417">
        <ele>1914</ele>
        <time>2018-10-17T07:42:45Z</time>
      </trkpt>
      <trkpt lat="45.84184" lon="6.43417">
        <ele>1914</ele>
        <time>2018-10-17T07:42:46Z</time>
      </trkpt>
      <trkpt lat="45.84186" lon="6.43417">
        <ele>1914</ele>
        <time>2018-10-17T07:42:47Z</time>
      </trkpt>
      <trkpt lat="45.84186" lon="6.43417">
        <ele>1914</ele>
        <time>2018-10-17T07:42:48Z</time>
      </trkpt>
      <trkpt lat="45.84186" lon="6.43417">
        <ele>1915</ele>
        <time>2018-10-17T07:42:49Z</time>
      </trkpt>
      <trkpt lat="45.84186" lon="6.43417">
        <ele>1915</ele>
        <time>2018-10-17T07:42:50Z</time>
      </trkpt>
      <trkpt lat="45.84189" lon="6.43417">
        <ele>1915</ele>
        <time>2018-10-17T07:42:51Z</time>
      </trkpt>
      <trkpt lat="45.84189" lon="6.43417">
        <ele>1916</ele>
        <time>2018-10-17T07:42:52Z</time>
      </trkpt>
      <trkpt lat="45.84189" lon="6.43417">
        <ele>1916</ele>
        <time>2018-10-17T07:42:53Z</time>
      </trkpt>
      <trkpt lat="45.84189" lon="6.43417">
        <ele>1916</ele>
        <time>2018-10-17T07:42:54Z</time>
      </trkpt>
      <trkpt lat="45.84189" lon="6.43417">
        <ele>1916</ele>
        <time>2018-10-17T07:42:55Z</time>
      </trkpt>
      <trkpt lat="45.84191" lon="6.43418">
        <ele>1917</ele>
        <time>2018-10-17T07:42:56Z</time>
      </trkpt>
      <trkpt lat="45.84191" lon="6.43418">
        <ele>1917</ele>
        <time>2018-10-17T07:42:57Z</time>
      </trkpt>
      <trkpt lat="45.84191" lon="6.43418">
        <ele>1917</ele>
        <time>2018-10-17T07:42:58Z</time>
      </trkpt>
      <trkpt lat="45.84191" lon="6.43418">
        <ele>1917</ele>
        <time>2018-10-17T07:42:59Z</time>
      </trkpt>
      <trkpt lat="45.84191" lon="6.43418">
        <ele>1918</ele>
        <time>2018-10-17T07:43:00Z</time>
      </trkpt>
      <trkpt lat="45.84193" lon="6.43417">
        <ele>1918</ele>
        <time>2018-10-17T07:43:01Z</time>
      </trkpt>
      <trkpt lat="45.84193" lon="6.43417">
        <ele>1919</ele>
        <time>2018-10-17T07:43:02Z</time>
      </trkpt>
      <trkpt lat="45.84193" lon="6.43417">
        <ele>1919</ele>
        <time>2018-10-17T07:43:03Z</time>
      </trkpt>
      <trkpt lat="45.84193" lon="6.43417">
        <ele>1919</ele>
        <time>2018-10-17T07:43:04Z</time>
      </trkpt>
      <trkpt lat="45.84195" lon="6.43417">
        <ele>1919</ele>
        <time>2018-10-17T07:43:05Z</time>
      </trkpt>
      <trkpt lat="45.84195" lon="6.43417">
        <ele>1919</ele>
        <time>2018-10-17T07:43:06Z</time>
      </trkpt>
      <trkpt lat="45.84195" lon="6.43417">
        <ele>1920</ele>
        <time>2018-10-17T07:43:07Z</time>
      </trkpt>
      <trkpt lat="45.84197" lon="6.43419">
        <ele>1920</ele>
        <time>2018-10-17T07:43:08Z</time>
      </trkpt>
      <trkpt lat="45.84197" lon="6.43419">
        <ele>1920</ele>
        <time>2018-10-17T07:43:09Z</time>
      </trkpt>
      <trkpt lat="45.84197" lon="6.43419">
        <ele>1920</ele>
        <time>2018-10-17T07:43:10Z</time>
      </trkpt>
      <trkpt lat="45.84197" lon="6.43419">
        <ele>1920</ele>
        <time>2018-10-17T07:43:11Z</time>
      </trkpt>
      <trkpt lat="45.84199" lon="6.43418">
        <ele>1921</ele>
        <time>2018-10-17T07:43:12Z</time>
      </trkpt>
      <trkpt lat="45.84199" lon="6.43418">
        <ele>1921</ele>
        <time>2018-10-17T07:43:13Z</time>
      </trkpt>
      <trkpt lat="45.84199" lon="6.43418">
        <ele>1923</ele>
        <time>2018-10-17T07:43:14Z</time>
      </trkpt>
      <trkpt lat="45.84199" lon="6.43418">
        <ele>1923</ele>
        <time>2018-10-17T07:43:15Z</time>
      </trkpt>
      <trkpt lat="45.84199" lon="6.43418">
        <ele>1923</ele>
        <time>2018-10-17T07:43:16Z</time>
      </trkpt>
      <trkpt lat="45.84199" lon="6.43418">
        <ele>1923</ele>
        <time>2018-10-17T07:43:17Z</time>
      </trkpt>
      <trkpt lat="45.842" lon="6.43417">
        <ele>1923</ele>
        <time>2018-10-17T07:43:18Z</time>
      </trkpt>
      <trkpt lat="45.842" lon="6.43417">
        <ele>1923</ele>
        <time>2018-10-17T07:43:19Z</time>
      </trkpt>
      <trkpt lat="45.842" lon="6.43417">
        <ele>1923</ele>
        <time>2018-10-17T07:43:20Z</time>
      </trkpt>
      <trkpt lat="45.842" lon="6.43417">
        <ele>1923</ele>
        <time>2018-10-17T07:43:21Z</time>
      </trkpt>
      <trkpt lat="45.84202" lon="6.43416">
        <ele>1924</ele>
        <time>2018-10-17T07:43:22Z</time>
      </trkpt>
      <trkpt lat="45.84202" lon="6.43416">
        <ele>1924</ele>
        <time>2018-10-17T07:43:23Z</time>
      </trkpt>
      <trkpt lat="45.84202" lon="6.43416">
        <ele>1924</ele>
        <time>2018-10-17T07:43:24Z</time>
      </trkpt>
      <trkpt lat="45.84202" lon="6.43416">
        <ele>1925</ele>
        <time>2018-10-17T07:43:25Z</time>
      </trkpt>
      <trkpt lat="45.84204" lon="6.43418">
        <ele>1925</ele>
        <time>2018-10-17T07:43:26Z</time>
      </trkpt>
      <trkpt lat="45.84204" lon="6.43418">
        <ele>1925</ele>
        <time>2018-10-17T07:43:27Z</time>
      </trkpt>
      <trkpt lat="45.84204" lon="6.43418">
        <ele>1925</ele>
        <time>2018-10-17T07:43:28Z</time>
      </trkpt>
      <trkpt lat="45.84204" lon="6.43418">
        <ele>1925</ele>
        <time>2018-10-17T07:43:29Z</time>
      </trkpt>
      <trkpt lat="45.84206" lon="6.43419">
        <ele>1926</ele>
        <time>2018-10-17T07:43:30Z</time>
      </trkpt>
      <trkpt lat="45.84206" lon="6.43419">
        <ele>1926</ele>
        <time>2018-10-17T07:43:31Z</time>
      </trkpt>
      <trkpt lat="45.84206" lon="6.43419">
        <ele>1926</ele>
        <time>2018-10-17T07:43:32Z</time>
      </trkpt>
      <trkpt lat="45.84208" lon="6.4342">
        <ele>1926</ele>
        <time>2018-10-17T07:43:33Z</time>
      </trkpt>
      <trkpt lat="45.84208" lon="6.4342">
        <ele>1926</ele>
        <time>2018-10-17T07:43:34Z</time>
      </trkpt>
      <trkpt lat="45.84208" lon="6.4342">
        <ele>1926</ele>
        <time>2018-10-17T07:43:35Z</time>
      </trkpt>
      <trkpt lat="45.8421" lon="6.43421">
        <ele>1927</ele>
        <time>2018-10-17T07:43:36Z</time>
      </trkpt>
      <trkpt lat="45.8421" lon="6.43421">
        <ele>1927</ele>
        <time>2018-10-17T07:43:37Z</time>
      </trkpt>
      <trkpt lat="45.8421" lon="6.43421">
        <ele>1927</ele>
        <time>2018-10-17T07:43:38Z</time>
      </trkpt>
      <trkpt lat="45.8421" lon="6.43421">
        <ele>1927</ele>
        <time>2018-10-17T07:43:39Z</time>
      </trkpt>
      <trkpt lat="45.8421" lon="6.43421">
        <ele>1928</ele>
        <time>2018-10-17T07:43:40Z</time>
      </trkpt>
      <trkpt lat="45.84212" lon="6.43421">
        <ele>1928</ele>
        <time>2018-10-17T07:43:41Z</time>
      </trkpt>
      <trkpt lat="45.84212" lon="6.43421">
        <ele>1928</ele>
        <time>2018-10-17T07:43:42Z</time>
      </trkpt>
      <trkpt lat="45.84212" lon="6.43421">
        <ele>1928</ele>
        <time>2018-10-17T07:43:43Z</time>
      </trkpt>
      <trkpt lat="45.84212" lon="6.43421">
        <ele>1929</ele>
        <time>2018-10-17T07:43:44Z</time>
      </trkpt>
      <trkpt lat="45.84212" lon="6.43421">
        <ele>1929</ele>
        <time>2018-10-17T07:43:45Z</time>
      </trkpt>
      <trkpt lat="45.84212" lon="6.43421">
        <ele>1929</ele>
        <time>2018-10-17T07:43:46Z</time>
      </trkpt>
      <trkpt lat="45.84212" lon="6.43421">
        <ele>1929</ele>
        <time>2018-10-17T07:43:47Z</time>
      </trkpt>
      <trkpt lat="45.84214" lon="6.43421">
        <ele>1929</ele>
        <time>2018-10-17T07:43:48Z</time>
      </trkpt>
      <trkpt lat="45.84214" lon="6.43421">
        <ele>1929</ele>
        <time>2018-10-17T07:43:49Z</time>
      </trkpt>
      <trkpt lat="45.84214" lon="6.43421">
        <ele>1930</ele>
        <time>2018-10-17T07:43:50Z</time>
      </trkpt>
      <trkpt lat="45.84214" lon="6.43421">
        <ele>1930</ele>
        <time>2018-10-17T07:43:51Z</time>
      </trkpt>
      <trkpt lat="45.84216" lon="6.43421">
        <ele>1930</ele>
        <time>2018-10-17T07:43:52Z</time>
      </trkpt>
      <trkpt lat="45.84216" lon="6.43421">
        <ele>1931</ele>
        <time>2018-10-17T07:43:53Z</time>
      </trkpt>
      <trkpt lat="45.84216" lon="6.43421">
        <ele>1931</ele>
        <time>2018-10-17T07:43:54Z</time>
      </trkpt>
      <trkpt lat="45.84218" lon="6.4342">
        <ele>1931</ele>
        <time>2018-10-17T07:43:55Z</time>
      </trkpt>
      <trkpt lat="45.84218" lon="6.4342">
        <ele>1931</ele>
        <time>2018-10-17T07:43:56Z</time>
      </trkpt>
      <trkpt lat="45.84218" lon="6.4342">
        <ele>1931</ele>
        <time>2018-10-17T07:43:57Z</time>
      </trkpt>
      <trkpt lat="45.84218" lon="6.4342">
        <ele>1931</ele>
        <time>2018-10-17T07:43:58Z</time>
      </trkpt>
      <trkpt lat="45.8422" lon="6.43421">
        <ele>1932</ele>
        <time>2018-10-17T07:43:59Z</time>
      </trkpt>
      <trkpt lat="45.8422" lon="6.43421">
        <ele>1932</ele>
        <time>2018-10-17T07:44:00Z</time>
      </trkpt>
      <trkpt lat="45.8422" lon="6.43421">
        <ele>1932</ele>
        <time>2018-10-17T07:44:01Z</time>
      </trkpt>
      <trkpt lat="45.84222" lon="6.43422">
        <ele>1933</ele>
        <time>2018-10-17T07:44:02Z</time>
      </trkpt>
      <trkpt lat="45.84222" lon="6.43422">
        <ele>1933</ele>
        <time>2018-10-17T07:44:03Z</time>
      </trkpt>
      <trkpt lat="45.84222" lon="6.43422">
        <ele>1933</ele>
        <time>2018-10-17T07:44:04Z</time>
      </trkpt>
      <trkpt lat="45.84222" lon="6.43422">
        <ele>1933</ele>
        <time>2018-10-17T07:44:05Z</time>
      </trkpt>
      <trkpt lat="45.84222" lon="6.43422">
        <ele>1933</ele>
        <time>2018-10-17T07:44:06Z</time>
      </trkpt>
      <trkpt lat="45.84224" lon="6.43423">
        <ele>1933</ele>
        <time>2018-10-17T07:44:07Z</time>
      </trkpt>
      <trkpt lat="45.84224" lon="6.43423">
        <ele>1933</ele>
        <time>2018-10-17T07:44:08Z</time>
      </trkpt>
      <trkpt lat="45.84224" lon="6.43423">
        <ele>1935</ele>
        <time>2018-10-17T07:44:09Z</time>
      </trkpt>
      <trkpt lat="45.84224" lon="6.43423">
        <ele>1935</ele>
        <time>2018-10-17T07:44:10Z</time>
      </trkpt>
      <trkpt lat="45.84224" lon="6.43423">
        <ele>1936</ele>
        <time>2018-10-17T07:44:11Z</time>
      </trkpt>
      <trkpt lat="45.84225" lon="6.43425">
        <ele>1936</ele>
        <time>2018-10-17T07:44:12Z</time>
      </trkpt>
      <trkpt lat="45.84225" lon="6.43425">
        <ele>1936</ele>
        <time>2018-10-17T07:44:13Z</time>
      </trkpt>
      <trkpt lat="45.84225" lon="6.43425">
        <ele>1936</ele>
        <time>2018-10-17T07:44:14Z</time>
      </trkpt>
      <trkpt lat="45.84227" lon="6.43425">
        <ele>1936</ele>
        <time>2018-10-17T07:44:15Z</time>
      </trkpt>
      <trkpt lat="45.84227" lon="6.43425">
        <ele>1937</ele>
        <time>2018-10-17T07:44:16Z</time>
      </trkpt>
      <trkpt lat="45.84227" lon="6.43425">
        <ele>1937</ele>
        <time>2018-10-17T07:44:17Z</time>
      </trkpt>
      <trkpt lat="45.84227" lon="6.43425">
        <ele>1937</ele>
        <time>2018-10-17T07:44:18Z</time>
      </trkpt>
      <trkpt lat="45.84229" lon="6.43426">
        <ele>1937</ele>
        <time>2018-10-17T07:44:19Z</time>
      </trkpt>
      <trkpt lat="45.84229" lon="6.43426">
        <ele>1937</ele>
        <time>2018-10-17T07:44:20Z</time>
      </trkpt>
      <trkpt lat="45.84229" lon="6.43426">
        <ele>1937</ele>
        <time>2018-10-17T07:44:21Z</time>
      </trkpt>
      <trkpt lat="45.84231" lon="6.43427">
        <ele>1938</ele>
        <time>2018-10-17T07:44:22Z</time>
      </trkpt>
      <trkpt lat="45.84231" lon="6.43427">
        <ele>1938</ele>
        <time>2018-10-17T07:44:23Z</time>
      </trkpt>
      <trkpt lat="45.84231" lon="6.43427">
        <ele>1939</ele>
        <time>2018-10-17T07:44:24Z</time>
      </trkpt>
      <trkpt lat="45.84231" lon="6.43427">
        <ele>1939</ele>
        <time>2018-10-17T07:44:25Z</time>
      </trkpt>
      <trkpt lat="45.84233" lon="6.43428">
        <ele>1939</ele>
        <time>2018-10-17T07:44:26Z</time>
      </trkpt>
      <trkpt lat="45.84233" lon="6.43428">
        <ele>1939</ele>
        <time>2018-10-17T07:44:27Z</time>
      </trkpt>
      <trkpt lat="45.84233" lon="6.43428">
        <ele>1940</ele>
        <time>2018-10-17T07:44:28Z</time>
      </trkpt>
      <trkpt lat="45.84235" lon="6.43428">
        <ele>1940</ele>
        <time>2018-10-17T07:44:29Z</time>
      </trkpt>
      <trkpt lat="45.84235" lon="6.43428">
        <ele>1940</ele>
        <time>2018-10-17T07:44:30Z</time>
      </trkpt>
      <trkpt lat="45.84235" lon="6.43428">
        <ele>1940</ele>
        <time>2018-10-17T07:44:31Z</time>
      </trkpt>
      <trkpt lat="45.84237" lon="6.43427">
        <ele>1940</ele>
        <time>2018-10-17T07:44:32Z</time>
      </trkpt>
      <trkpt lat="45.84237" lon="6.43427">
        <ele>1940</ele>
        <time>2018-10-17T07:44:33Z</time>
      </trkpt>
      <trkpt lat="45.84237" lon="6.43427">
        <ele>1940</ele>
        <time>2018-10-17T07:44:34Z</time>
      </trkpt>
      <trkpt lat="45.84239" lon="6.43426">
        <ele>1941</ele>
        <time>2018-10-17T07:44:35Z</time>
      </trkpt>
      <trkpt lat="45.84239" lon="6.43426">
        <ele>1941</ele>
        <time>2018-10-17T07:44:36Z</time>
      </trkpt>
      <trkpt lat="45.84239" lon="6.43426">
        <ele>1941</ele>
        <time>2018-10-17T07:44:37Z</time>
      </trkpt>
      <trkpt lat="45.84239" lon="6.43426">
        <ele>1941</ele>
        <time>2018-10-17T07:44:38Z</time>
      </trkpt>
      <trkpt lat="45.84241" lon="6.43424">
        <ele>1941</ele>
        <time>2018-10-17T07:44:39Z</time>
      </trkpt>
      <trkpt lat="45.84241" lon="6.43424">
        <ele>1942</ele>
        <time>2018-10-17T07:44:40Z</time>
      </trkpt>
      <trkpt lat="45.84241" lon="6.43424">
        <ele>1942</ele>
        <time>2018-10-17T07:44:41Z</time>
      </trkpt>
      <trkpt lat="45.84243" lon="6.43422">
        <ele>1942</ele>
        <time>2018-10-17T07:44:42Z</time>
      </trkpt>
      <trkpt lat="45.84243" lon="6.43422">
        <ele>1942</ele>
        <time>2018-10-17T07:44:43Z</time>
      </trkpt>
      <trkpt lat="45.84243" lon="6.43422">
        <ele>1942</ele>
        <time>2018-10-17T07:44:44Z</time>
      </trkpt>
      <trkpt lat="45.84244" lon="6.43421">
        <ele>1942</ele>
        <time>2018-10-17T07:44:45Z</time>
      </trkpt>
      <trkpt lat="45.84244" lon="6.43421">
        <ele>1943</ele>
        <time>2018-10-17T07:44:46Z</time>
      </trkpt>
      <trkpt lat="45.84244" lon="6.43421">
        <ele>1943</ele>
        <time>2018-10-17T07:44:47Z</time>
      </trkpt>
      <trkpt lat="45.84244" lon="6.43421">
        <ele>1943</ele>
        <time>2018-10-17T07:44:48Z</time>
      </trkpt>
      <trkpt lat="45.84247" lon="6.43421">
        <ele>1944</ele>
        <time>2018-10-17T07:44:49Z</time>
      </trkpt>
      <trkpt lat="45.84247" lon="6.43421">
        <ele>1944</ele>
        <time>2018-10-17T07:44:50Z</time>
      </trkpt>
      <trkpt lat="45.84247" lon="6.43421">
        <ele>1944</ele>
        <time>2018-10-17T07:44:51Z</time>
      </trkpt>
      <trkpt lat="45.84247" lon="6.43421">
        <ele>1944</ele>
        <time>2018-10-17T07:44:52Z</time>
      </trkpt>
      <trkpt lat="45.84249" lon="6.43421">
        <ele>1944</ele>
        <time>2018-10-17T07:44:53Z</time>
      </trkpt>
      <trkpt lat="45.84249" lon="6.43421">
        <ele>1944</ele>
        <time>2018-10-17T07:44:54Z</time>
      </trkpt>
      <trkpt lat="45.84249" lon="6.43421">
        <ele>1945</ele>
        <time>2018-10-17T07:44:55Z</time>
      </trkpt>
      <trkpt lat="45.84249" lon="6.43421">
        <ele>1945</ele>
        <time>2018-10-17T07:44:56Z</time>
      </trkpt>
      <trkpt lat="45.84249" lon="6.43421">
        <ele>1945</ele>
        <time>2018-10-17T07:44:57Z</time>
      </trkpt>
      <trkpt lat="45.84251" lon="6.43422">
        <ele>1945</ele>
        <time>2018-10-17T07:44:58Z</time>
      </trkpt>
      <trkpt lat="45.84251" lon="6.43422">
        <ele>1946</ele>
        <time>2018-10-17T07:44:59Z</time>
      </trkpt>
      <trkpt lat="45.84251" lon="6.43422">
        <ele>1946</ele>
        <time>2018-10-17T07:45:00Z</time>
      </trkpt>
      <trkpt lat="45.84253" lon="6.43423">
        <ele>1946</ele>
        <time>2018-10-17T07:45:01Z</time>
      </trkpt>
      <trkpt lat="45.84253" lon="6.43423">
        <ele>1946</ele>
        <time>2018-10-17T07:45:02Z</time>
      </trkpt>
      <trkpt lat="45.84253" lon="6.43423">
        <ele>1946</ele>
        <time>2018-10-17T07:45:03Z</time>
      </trkpt>
      <trkpt lat="45.84256" lon="6.43423">
        <ele>1946</ele>
        <time>2018-10-17T07:45:04Z</time>
      </trkpt>
      <trkpt lat="45.84256" lon="6.43423">
        <ele>1947</ele>
        <time>2018-10-17T07:45:05Z</time>
      </trkpt>
      <trkpt lat="45.84258" lon="6.43423">
        <ele>1948</ele>
        <time>2018-10-17T07:45:06Z</time>
      </trkpt>
      <trkpt lat="45.84258" lon="6.43423">
        <ele>1948</ele>
        <time>2018-10-17T07:45:07Z</time>
      </trkpt>
      <trkpt lat="45.8426" lon="6.43424">
        <ele>1948</ele>
        <time>2018-10-17T07:45:08Z</time>
      </trkpt>
      <trkpt lat="45.8426" lon="6.43424">
        <ele>1948</ele>
        <time>2018-10-17T07:45:09Z</time>
      </trkpt>
      <trkpt lat="45.8426" lon="6.43424">
        <ele>1948</ele>
        <time>2018-10-17T07:45:10Z</time>
      </trkpt>
      <trkpt lat="45.84262" lon="6.43425">
        <ele>1948</ele>
        <time>2018-10-17T07:45:11Z</time>
      </trkpt>
      <trkpt lat="45.84262" lon="6.43425">
        <ele>1948</ele>
        <time>2018-10-17T07:45:12Z</time>
      </trkpt>
      <trkpt lat="45.84262" lon="6.43425">
        <ele>1949</ele>
        <time>2018-10-17T07:45:13Z</time>
      </trkpt>
      <trkpt lat="45.84263" lon="6.43427">
        <ele>1949</ele>
        <time>2018-10-17T07:45:14Z</time>
      </trkpt>
      <trkpt lat="45.84263" lon="6.43427">
        <ele>1950</ele>
        <time>2018-10-17T07:45:15Z</time>
      </trkpt>
      <trkpt lat="45.84265" lon="6.43428">
        <ele>1950</ele>
        <time>2018-10-17T07:45:16Z</time>
      </trkpt>
      <trkpt lat="45.84265" lon="6.43428">
        <ele>1950</ele>
        <time>2018-10-17T07:45:17Z</time>
      </trkpt>
      <trkpt lat="45.84267" lon="6.43428">
        <ele>1950</ele>
        <time>2018-10-17T07:45:18Z</time>
      </trkpt>
      <trkpt lat="45.84267" lon="6.43428">
        <ele>1951</ele>
        <time>2018-10-17T07:45:19Z</time>
      </trkpt>
      <trkpt lat="45.84267" lon="6.43428">
        <ele>1951</ele>
        <time>2018-10-17T07:45:20Z</time>
      </trkpt>
      <trkpt lat="45.84269" lon="6.43429">
        <ele>1951</ele>
        <time>2018-10-17T07:45:21Z</time>
      </trkpt>
      <trkpt lat="45.84269" lon="6.43429">
        <ele>1951</ele>
        <time>2018-10-17T07:45:22Z</time>
      </trkpt>
      <trkpt lat="45.84269" lon="6.43429">
        <ele>1952</ele>
        <time>2018-10-17T07:45:23Z</time>
      </trkpt>
      <trkpt lat="45.84271" lon="6.4343">
        <ele>1952</ele>
        <time>2018-10-17T07:45:24Z</time>
      </trkpt>
      <trkpt lat="45.84271" lon="6.4343">
        <ele>1952</ele>
        <time>2018-10-17T07:45:25Z</time>
      </trkpt>
      <trkpt lat="45.84271" lon="6.4343">
        <ele>1952</ele>
        <time>2018-10-17T07:45:26Z</time>
      </trkpt>
      <trkpt lat="45.84271" lon="6.4343">
        <ele>1952</ele>
        <time>2018-10-17T07:45:27Z</time>
      </trkpt>
      <trkpt lat="45.84274" lon="6.4343">
        <ele>1952</ele>
        <time>2018-10-17T07:45:28Z</time>
      </trkpt>
      <trkpt lat="45.84274" lon="6.4343">
        <ele>1953</ele>
        <time>2018-10-17T07:45:29Z</time>
      </trkpt>
      <trkpt lat="45.84274" lon="6.4343">
        <ele>1953</ele>
        <time>2018-10-17T07:45:30Z</time>
      </trkpt>
      <trkpt lat="45.84276" lon="6.43429">
        <ele>1953</ele>
        <time>2018-10-17T07:45:31Z</time>
      </trkpt>
      <trkpt lat="45.84276" lon="6.43429">
        <ele>1953</ele>
        <time>2018-10-17T07:45:32Z</time>
      </trkpt>
      <trkpt lat="45.84276" lon="6.43429">
        <ele>1954</ele>
        <time>2018-10-17T07:45:33Z</time>
      </trkpt>
      <trkpt lat="45.84276" lon="6.43429">
        <ele>1954</ele>
        <time>2018-10-17T07:45:34Z</time>
      </trkpt>
      <trkpt lat="45.84278" lon="6.43428">
        <ele>1954</ele>
        <time>2018-10-17T07:45:35Z</time>
      </trkpt>
      <trkpt lat="45.84278" lon="6.43428">
        <ele>1954</ele>
        <time>2018-10-17T07:45:36Z</time>
      </trkpt>
      <trkpt lat="45.84278" lon="6.43428">
        <ele>1954</ele>
        <time>2018-10-17T07:45:37Z</time>
      </trkpt>
      <trkpt lat="45.8428" lon="6.43429">
        <ele>1954</ele>
        <time>2018-10-17T07:45:38Z</time>
      </trkpt>
      <trkpt lat="45.8428" lon="6.43429">
        <ele>1955</ele>
        <time>2018-10-17T07:45:39Z</time>
      </trkpt>
      <trkpt lat="45.8428" lon="6.43429">
        <ele>1955</ele>
        <time>2018-10-17T07:45:40Z</time>
      </trkpt>
      <trkpt lat="45.8428" lon="6.43429">
        <ele>1955</ele>
        <time>2018-10-17T07:45:41Z</time>
      </trkpt>
      <trkpt lat="45.84282" lon="6.43429">
        <ele>1956</ele>
        <time>2018-10-17T07:45:42Z</time>
      </trkpt>
      <trkpt lat="45.84282" lon="6.43429">
        <ele>1956</ele>
        <time>2018-10-17T07:45:43Z</time>
      </trkpt>
      <trkpt lat="45.84282" lon="6.43429">
        <ele>1956</ele>
        <time>2018-10-17T07:45:44Z</time>
      </trkpt>
      <trkpt lat="45.84283" lon="6.43431">
        <ele>1956</ele>
        <time>2018-10-17T07:45:45Z</time>
      </trkpt>
      <trkpt lat="45.84283" lon="6.43431">
        <ele>1956</ele>
        <time>2018-10-17T07:45:46Z</time>
      </trkpt>
      <trkpt lat="45.84283" lon="6.43431">
        <ele>1956</ele>
        <time>2018-10-17T07:45:47Z</time>
      </trkpt>
      <trkpt lat="45.84283" lon="6.43431">
        <ele>1957</ele>
        <time>2018-10-17T07:45:48Z</time>
      </trkpt>
      <trkpt lat="45.84283" lon="6.43431">
        <ele>1957</ele>
        <time>2018-10-17T07:45:49Z</time>
      </trkpt>
      <trkpt lat="45.84285" lon="6.43432">
        <ele>1958</ele>
        <time>2018-10-17T07:45:50Z</time>
      </trkpt>
      <trkpt lat="45.84285" lon="6.43432">
        <ele>1958</ele>
        <time>2018-10-17T07:45:51Z</time>
      </trkpt>
      <trkpt lat="45.84285" lon="6.43432">
        <ele>1958</ele>
        <time>2018-10-17T07:45:52Z</time>
      </trkpt>
      <trkpt lat="45.84285" lon="6.43432">
        <ele>1959</ele>
        <time>2018-10-17T07:45:53Z</time>
      </trkpt>
      <trkpt lat="45.84285" lon="6.43432">
        <ele>1959</ele>
        <time>2018-10-17T07:45:54Z</time>
      </trkpt>
      <trkpt lat="45.84287" lon="6.43432">
        <ele>1959</ele>
        <time>2018-10-17T07:45:55Z</time>
      </trkpt>
      <trkpt lat="45.84287" lon="6.43432">
        <ele>1959</ele>
        <time>2018-10-17T07:45:56Z</time>
      </trkpt>
      <trkpt lat="45.84287" lon="6.43432">
        <ele>1960</ele>
        <time>2018-10-17T07:45:57Z</time>
      </trkpt>
      <trkpt lat="45.84289" lon="6.43432">
        <ele>1960</ele>
        <time>2018-10-17T07:45:58Z</time>
      </trkpt>
      <trkpt lat="45.84289" lon="6.43432">
        <ele>1961</ele>
        <time>2018-10-17T07:45:59Z</time>
      </trkpt>
      <trkpt lat="45.84289" lon="6.43432">
        <ele>1961</ele>
        <time>2018-10-17T07:46:00Z</time>
      </trkpt>
      <trkpt lat="45.84289" lon="6.43432">
        <ele>1961</ele>
        <time>2018-10-17T07:46:01Z</time>
      </trkpt>
      <trkpt lat="45.84289" lon="6.43432">
        <ele>1961</ele>
        <time>2018-10-17T07:46:02Z</time>
      </trkpt>
      <trkpt lat="45.84291" lon="6.43431">
        <ele>1961</ele>
        <time>2018-10-17T07:46:03Z</time>
      </trkpt>
      <trkpt lat="45.84291" lon="6.43431">
        <ele>1962</ele>
        <time>2018-10-17T07:46:04Z</time>
      </trkpt>
      <trkpt lat="45.84293" lon="6.43431">
        <ele>1962</ele>
        <time>2018-10-17T07:46:05Z</time>
      </trkpt>
      <trkpt lat="45.84293" lon="6.43431">
        <ele>1962</ele>
        <time>2018-10-17T07:46:06Z</time>
      </trkpt>
      <trkpt lat="45.84293" lon="6.43431">
        <ele>1963</ele>
        <time>2018-10-17T07:46:07Z</time>
      </trkpt>
      <trkpt lat="45.84293" lon="6.43431">
        <ele>1963</ele>
        <time>2018-10-17T07:46:08Z</time>
      </trkpt>
      <trkpt lat="45.84293" lon="6.43431">
        <ele>1963</ele>
        <time>2018-10-17T07:46:09Z</time>
      </trkpt>
      <trkpt lat="45.84293" lon="6.43431">
        <ele>1963</ele>
        <time>2018-10-17T07:46:10Z</time>
      </trkpt>
      <trkpt lat="45.84293" lon="6.43431">
        <ele>1964</ele>
        <time>2018-10-17T07:46:11Z</time>
      </trkpt>
      <trkpt lat="45.84295" lon="6.43433">
        <ele>1964</ele>
        <time>2018-10-17T07:46:12Z</time>
      </trkpt>
      <trkpt lat="45.84295" lon="6.43433">
        <ele>1964</ele>
        <time>2018-10-17T07:46:13Z</time>
      </trkpt>
      <trkpt lat="45.84295" lon="6.43433">
        <ele>1964</ele>
        <time>2018-10-17T07:46:14Z</time>
      </trkpt>
      <trkpt lat="45.84295" lon="6.43433">
        <ele>1964</ele>
        <time>2018-10-17T07:46:15Z</time>
      </trkpt>
      <trkpt lat="45.84295" lon="6.43436">
        <ele>1964</ele>
        <time>2018-10-17T07:46:16Z</time>
      </trkpt>
      <trkpt lat="45.84295" lon="6.43436">
        <ele>1965</ele>
        <time>2018-10-17T07:46:17Z</time>
      </trkpt>
      <trkpt lat="45.84295" lon="6.43436">
        <ele>1965</ele>
        <time>2018-10-17T07:46:18Z</time>
      </trkpt>
      <trkpt lat="45.84295" lon="6.43436">
        <ele>1965</ele>
        <time>2018-10-17T07:46:19Z</time>
      </trkpt>
      <trkpt lat="45.84295" lon="6.43439">
        <ele>1965</ele>
        <time>2018-10-17T07:46:20Z</time>
      </trkpt>
      <trkpt lat="45.84295" lon="6.43439">
        <ele>1966</ele>
        <time>2018-10-17T07:46:21Z</time>
      </trkpt>
      <trkpt lat="45.84295" lon="6.43439">
        <ele>1966</ele>
        <time>2018-10-17T07:46:22Z</time>
      </trkpt>
      <trkpt lat="45.84295" lon="6.43439">
        <ele>1966</ele>
        <time>2018-10-17T07:46:23Z</time>
      </trkpt>
      <trkpt lat="45.84295" lon="6.43439">
        <ele>1966</ele>
        <time>2018-10-17T07:46:24Z</time>
      </trkpt>
      <trkpt lat="45.84295" lon="6.43439">
        <ele>1967</ele>
        <time>2018-10-17T07:46:25Z</time>
      </trkpt>
      <trkpt lat="45.84295" lon="6.43439">
        <ele>1967</ele>
        <time>2018-10-17T07:46:26Z</time>
      </trkpt>
      <trkpt lat="45.84295" lon="6.43442">
        <ele>1967</ele>
        <time>2018-10-17T07:46:27Z</time>
      </trkpt>
      <trkpt lat="45.84295" lon="6.43442">
        <ele>1967</ele>
        <time>2018-10-17T07:46:28Z</time>
      </trkpt>
      <trkpt lat="45.84295" lon="6.43442">
        <ele>1967</ele>
        <time>2018-10-17T07:46:29Z</time>
      </trkpt>
      <trkpt lat="45.84295" lon="6.43442">
        <ele>1968</ele>
        <time>2018-10-17T07:46:30Z</time>
      </trkpt>
      <trkpt lat="45.84295" lon="6.43445">
        <ele>1968</ele>
        <time>2018-10-17T07:46:31Z</time>
      </trkpt>
      <trkpt lat="45.84295" lon="6.43445">
        <ele>1969</ele>
        <time>2018-10-17T07:46:32Z</time>
      </trkpt>
      <trkpt lat="45.84295" lon="6.43445">
        <ele>1969</ele>
        <time>2018-10-17T07:46:33Z</time>
      </trkpt>
      <trkpt lat="45.84295" lon="6.43445">
        <ele>1969</ele>
        <time>2018-10-17T07:46:34Z</time>
      </trkpt>
      <trkpt lat="45.84297" lon="6.43445">
        <ele>1969</ele>
        <time>2018-10-17T07:46:35Z</time>
      </trkpt>
      <trkpt lat="45.84297" lon="6.43445">
        <ele>1970</ele>
        <time>2018-10-17T07:46:36Z</time>
      </trkpt>
      <trkpt lat="45.84297" lon="6.43445">
        <ele>1970</ele>
        <time>2018-10-17T07:46:37Z</time>
      </trkpt>
      <trkpt lat="45.84297" lon="6.43445">
        <ele>1970</ele>
        <time>2018-10-17T07:46:38Z</time>
      </trkpt>
      <trkpt lat="45.84299" lon="6.43444">
        <ele>1971</ele>
        <time>2018-10-17T07:46:39Z</time>
      </trkpt>
      <trkpt lat="45.84299" lon="6.43444">
        <ele>1971</ele>
        <time>2018-10-17T07:46:40Z</time>
      </trkpt>
      <trkpt lat="45.84299" lon="6.43444">
        <ele>1971</ele>
        <time>2018-10-17T07:46:41Z</time>
      </trkpt>
      <trkpt lat="45.84301" lon="6.43442">
        <ele>1973</ele>
        <time>2018-10-17T07:46:42Z</time>
      </trkpt>
      <trkpt lat="45.84301" lon="6.43442">
        <ele>1973</ele>
        <time>2018-10-17T07:46:43Z</time>
      </trkpt>
      <trkpt lat="45.84301" lon="6.43442">
        <ele>1973</ele>
        <time>2018-10-17T07:46:44Z</time>
      </trkpt>
      <trkpt lat="45.84301" lon="6.43442">
        <ele>1973</ele>
        <time>2018-10-17T07:46:45Z</time>
      </trkpt>
      <trkpt lat="45.84304" lon="6.43442">
        <ele>1974</ele>
        <time>2018-10-17T07:46:46Z</time>
      </trkpt>
      <trkpt lat="45.84304" lon="6.43442">
        <ele>1974</ele>
        <time>2018-10-17T07:46:47Z</time>
      </trkpt>
      <trkpt lat="45.84304" lon="6.43442">
        <ele>1974</ele>
        <time>2018-10-17T07:46:48Z</time>
      </trkpt>
      <trkpt lat="45.84304" lon="6.43442">
        <ele>1974</ele>
        <time>2018-10-17T07:46:49Z</time>
      </trkpt>
      <trkpt lat="45.84304" lon="6.43442">
        <ele>1974</ele>
        <time>2018-10-17T07:46:50Z</time>
      </trkpt>
      <trkpt lat="45.84306" lon="6.4344">
        <ele>1974</ele>
        <time>2018-10-17T07:46:51Z</time>
      </trkpt>
      <trkpt lat="45.84306" lon="6.4344">
        <ele>1974</ele>
        <time>2018-10-17T07:46:52Z</time>
      </trkpt>
      <trkpt lat="45.84306" lon="6.4344">
        <ele>1974</ele>
        <time>2018-10-17T07:46:53Z</time>
      </trkpt>
      <trkpt lat="45.84306" lon="6.4344">
        <ele>1975</ele>
        <time>2018-10-17T07:46:54Z</time>
      </trkpt>
      <trkpt lat="45.84306" lon="6.4344">
        <ele>1975</ele>
        <time>2018-10-17T07:46:55Z</time>
      </trkpt>
      <trkpt lat="45.84308" lon="6.43439">
        <ele>1975</ele>
        <time>2018-10-17T07:46:56Z</time>
      </trkpt>
      <trkpt lat="45.84308" lon="6.43439">
        <ele>1975</ele>
        <time>2018-10-17T07:46:57Z</time>
      </trkpt>
      <trkpt lat="45.84308" lon="6.43439">
        <ele>1975</ele>
        <time>2018-10-17T07:46:58Z</time>
      </trkpt>
      <trkpt lat="45.84309" lon="6.43437">
        <ele>1975</ele>
        <time>2018-10-17T07:46:59Z</time>
      </trkpt>
      <trkpt lat="45.84309" lon="6.43437">
        <ele>1976</ele>
        <time>2018-10-17T07:47:00Z</time>
      </trkpt>
      <trkpt lat="45.84309" lon="6.43437">
        <ele>1976</ele>
        <time>2018-10-17T07:47:01Z</time>
      </trkpt>
      <trkpt lat="45.8431" lon="6.43434">
        <ele>1976</ele>
        <time>2018-10-17T07:47:02Z</time>
      </trkpt>
      <trkpt lat="45.8431" lon="6.43434">
        <ele>1976</ele>
        <time>2018-10-17T07:47:03Z</time>
      </trkpt>
      <trkpt lat="45.84311" lon="6.43432">
        <ele>1977</ele>
        <time>2018-10-17T07:47:04Z</time>
      </trkpt>
      <trkpt lat="45.84311" lon="6.43432">
        <ele>1977</ele>
        <time>2018-10-17T07:47:05Z</time>
      </trkpt>
      <trkpt lat="45.84312" lon="6.43429">
        <ele>1977</ele>
        <time>2018-10-17T07:47:06Z</time>
      </trkpt>
      <trkpt lat="45.84312" lon="6.43429">
        <ele>1977</ele>
        <time>2018-10-17T07:47:07Z</time>
      </trkpt>
      <trkpt lat="45.84312" lon="6.43429">
        <ele>1978</ele>
        <time>2018-10-17T07:47:08Z</time>
      </trkpt>
      <trkpt lat="45.84312" lon="6.43429">
        <ele>1978</ele>
        <time>2018-10-17T07:47:09Z</time>
      </trkpt>
      <trkpt lat="45.84313" lon="6.43427">
        <ele>1978</ele>
        <time>2018-10-17T07:47:10Z</time>
      </trkpt>
      <trkpt lat="45.84313" lon="6.43427">
        <ele>1978</ele>
        <time>2018-10-17T07:47:11Z</time>
      </trkpt>
      <trkpt lat="45.84313" lon="6.43427">
        <ele>1978</ele>
        <time>2018-10-17T07:47:12Z</time>
      </trkpt>
      <trkpt lat="45.84313" lon="6.43427">
        <ele>1978</ele>
        <time>2018-10-17T07:47:13Z</time>
      </trkpt>
      <trkpt lat="45.84314" lon="6.43425">
        <ele>1978</ele>
        <time>2018-10-17T07:47:14Z</time>
      </trkpt>
      <trkpt lat="45.84314" lon="6.43425">
        <ele>1979</ele>
        <time>2018-10-17T07:47:15Z</time>
      </trkpt>
      <trkpt lat="45.84314" lon="6.43425">
        <ele>1980</ele>
        <time>2018-10-17T07:47:16Z</time>
      </trkpt>
      <trkpt lat="45.84314" lon="6.43425">
        <ele>1980</ele>
        <time>2018-10-17T07:47:17Z</time>
      </trkpt>
      <trkpt lat="45.84314" lon="6.43425">
        <ele>1980</ele>
        <time>2018-10-17T07:47:18Z</time>
      </trkpt>
      <trkpt lat="45.84314" lon="6.43425">
        <ele>1980</ele>
        <time>2018-10-17T07:47:19Z</time>
      </trkpt>
      <trkpt lat="45.84316" lon="6.43423">
        <ele>1980</ele>
        <time>2018-10-17T07:47:20Z</time>
      </trkpt>
      <trkpt lat="45.84316" lon="6.43423">
        <ele>1980</ele>
        <time>2018-10-17T07:47:21Z</time>
      </trkpt>
      <trkpt lat="45.84316" lon="6.43423">
        <ele>1980</ele>
        <time>2018-10-17T07:47:22Z</time>
      </trkpt>
      <trkpt lat="45.84316" lon="6.43423">
        <ele>1980</ele>
        <time>2018-10-17T07:47:23Z</time>
      </trkpt>
      <trkpt lat="45.84317" lon="6.43422">
        <ele>1980</ele>
        <time>2018-10-17T07:47:24Z</time>
      </trkpt>
      <trkpt lat="45.84317" lon="6.43422">
        <ele>1980</ele>
        <time>2018-10-17T07:47:25Z</time>
      </trkpt>
      <trkpt lat="45.84319" lon="6.43421">
        <ele>1981</ele>
        <time>2018-10-17T07:47:26Z</time>
      </trkpt>
      <trkpt lat="45.84319" lon="6.43421">
        <ele>1982</ele>
        <time>2018-10-17T07:47:27Z</time>
      </trkpt>
      <trkpt lat="45.84321" lon="6.43421">
        <ele>1982</ele>
        <time>2018-10-17T07:47:28Z</time>
      </trkpt>
      <trkpt lat="45.84321" lon="6.43421">
        <ele>1982</ele>
        <time>2018-10-17T07:47:29Z</time>
      </trkpt>
      <trkpt lat="45.84321" lon="6.43421">
        <ele>1982</ele>
        <time>2018-10-17T07:47:30Z</time>
      </trkpt>
      <trkpt lat="45.84324" lon="6.4342">
        <ele>1982</ele>
        <time>2018-10-17T07:47:31Z</time>
      </trkpt>
      <trkpt lat="45.84324" lon="6.4342">
        <ele>1983</ele>
        <time>2018-10-17T07:47:32Z</time>
      </trkpt>
      <trkpt lat="45.84324" lon="6.4342">
        <ele>1983</ele>
        <time>2018-10-17T07:47:33Z</time>
      </trkpt>
      <trkpt lat="45.84324" lon="6.4342">
        <ele>1983</ele>
        <time>2018-10-17T07:47:34Z</time>
      </trkpt>
      <trkpt lat="45.84326" lon="6.43419">
        <ele>1983</ele>
        <time>2018-10-17T07:47:35Z</time>
      </trkpt>
      <trkpt lat="45.84326" lon="6.43419">
        <ele>1983</ele>
        <time>2018-10-17T07:47:36Z</time>
      </trkpt>
      <trkpt lat="45.84326" lon="6.43419">
        <ele>1983</ele>
        <time>2018-10-17T07:47:37Z</time>
      </trkpt>
      <trkpt lat="45.84326" lon="6.43419">
        <ele>1983</ele>
        <time>2018-10-17T07:47:38Z</time>
      </trkpt>
      <trkpt lat="45.84326" lon="6.43419">
        <ele>1983</ele>
        <time>2018-10-17T07:47:39Z</time>
      </trkpt>
      <trkpt lat="45.84326" lon="6.43419">
        <ele>1983</ele>
        <time>2018-10-17T07:47:40Z</time>
      </trkpt>
      <trkpt lat="45.84326" lon="6.43419">
        <ele>1984</ele>
        <time>2018-10-17T07:47:41Z</time>
      </trkpt>
      <trkpt lat="45.84326" lon="6.43419">
        <ele>1984</ele>
        <time>2018-10-17T07:47:42Z</time>
      </trkpt>
      <trkpt lat="45.84328" lon="6.43418">
        <ele>1984</ele>
        <time>2018-10-17T07:47:43Z</time>
      </trkpt>
      <trkpt lat="45.84328" lon="6.43418">
        <ele>1984</ele>
        <time>2018-10-17T07:47:44Z</time>
      </trkpt>
      <trkpt lat="45.84331" lon="6.43418">
        <ele>1984</ele>
        <time>2018-10-17T07:47:45Z</time>
      </trkpt>
      <trkpt lat="45.84331" lon="6.43418">
        <ele>1984</ele>
        <time>2018-10-17T07:47:46Z</time>
      </trkpt>
      <trkpt lat="45.84333" lon="6.43417">
        <ele>1985</ele>
        <time>2018-10-17T07:47:47Z</time>
      </trkpt>
      <trkpt lat="45.84333" lon="6.43417">
        <ele>1986</ele>
        <time>2018-10-17T07:47:48Z</time>
      </trkpt>
      <trkpt lat="45.84335" lon="6.43418">
        <ele>1986</ele>
        <time>2018-10-17T07:47:49Z</time>
      </trkpt>
      <trkpt lat="45.84335" lon="6.43418">
        <ele>1986</ele>
        <time>2018-10-17T07:47:50Z</time>
      </trkpt>
      <trkpt lat="45.84337" lon="6.43419">
        <ele>1986</ele>
        <time>2018-10-17T07:47:51Z</time>
      </trkpt>
      <trkpt lat="45.84337" lon="6.43419">
        <ele>1986</ele>
        <time>2018-10-17T07:47:52Z</time>
      </trkpt>
      <trkpt lat="45.84337" lon="6.43419">
        <ele>1987</ele>
        <time>2018-10-17T07:47:53Z</time>
      </trkpt>
      <trkpt lat="45.84339" lon="6.43422">
        <ele>1987</ele>
        <time>2018-10-17T07:47:54Z</time>
      </trkpt>
      <trkpt lat="45.84339" lon="6.43422">
        <ele>1987</ele>
        <time>2018-10-17T07:47:55Z</time>
      </trkpt>
      <trkpt lat="45.84339" lon="6.43422">
        <ele>1987</ele>
        <time>2018-10-17T07:47:56Z</time>
      </trkpt>
      <trkpt lat="45.8434" lon="6.43424">
        <ele>1987</ele>
        <time>2018-10-17T07:47:57Z</time>
      </trkpt>
      <trkpt lat="45.8434" lon="6.43424">
        <ele>1987</ele>
        <time>2018-10-17T07:47:58Z</time>
      </trkpt>
      <trkpt lat="45.8434" lon="6.43424">
        <ele>1988</ele>
        <time>2018-10-17T07:47:59Z</time>
      </trkpt>
      <trkpt lat="45.84342" lon="6.43424">
        <ele>1988</ele>
        <time>2018-10-17T07:48:00Z</time>
      </trkpt>
      <trkpt lat="45.84342" lon="6.43424">
        <ele>1988</ele>
        <time>2018-10-17T07:48:01Z</time>
      </trkpt>
      <trkpt lat="45.84345" lon="6.43425">
        <ele>1989</ele>
        <time>2018-10-17T07:48:02Z</time>
      </trkpt>
      <trkpt lat="45.84345" lon="6.43425">
        <ele>1989</ele>
        <time>2018-10-17T07:48:03Z</time>
      </trkpt>
      <trkpt lat="45.84347" lon="6.43424">
        <ele>1989</ele>
        <time>2018-10-17T07:48:04Z</time>
      </trkpt>
      <trkpt lat="45.84347" lon="6.43424">
        <ele>1989</ele>
        <time>2018-10-17T07:48:05Z</time>
      </trkpt>
      <trkpt lat="45.84349" lon="6.43424">
        <ele>1989</ele>
        <time>2018-10-17T07:48:06Z</time>
      </trkpt>
      <trkpt lat="45.84349" lon="6.43424">
        <ele>1989</ele>
        <time>2018-10-17T07:48:07Z</time>
      </trkpt>
      <trkpt lat="45.84351" lon="6.43423">
        <ele>1989</ele>
        <time>2018-10-17T07:48:08Z</time>
      </trkpt>
      <trkpt lat="45.84351" lon="6.43423">
        <ele>1989</ele>
        <time>2018-10-17T07:48:09Z</time>
      </trkpt>
      <trkpt lat="45.84354" lon="6.43422">
        <ele>1989</ele>
        <time>2018-10-17T07:48:10Z</time>
      </trkpt>
      <trkpt lat="45.84354" lon="6.43422">
        <ele>1989</ele>
        <time>2018-10-17T07:48:11Z</time>
      </trkpt>
      <trkpt lat="45.84356" lon="6.43421">
        <ele>1989</ele>
        <time>2018-10-17T07:48:12Z</time>
      </trkpt>
      <trkpt lat="45.84356" lon="6.43421">
        <ele>1990</ele>
        <time>2018-10-17T07:48:13Z</time>
      </trkpt>
      <trkpt lat="45.84358" lon="6.4342">
        <ele>1990</ele>
        <time>2018-10-17T07:48:14Z</time>
      </trkpt>
      <trkpt lat="45.84358" lon="6.4342">
        <ele>1990</ele>
        <time>2018-10-17T07:48:15Z</time>
      </trkpt>
      <trkpt lat="45.8436" lon="6.43418">
        <ele>1990</ele>
        <time>2018-10-17T07:48:16Z</time>
      </trkpt>
      <trkpt lat="45.8436" lon="6.43418">
        <ele>1990</ele>
        <time>2018-10-17T07:48:17Z</time>
      </trkpt>
      <trkpt lat="45.84362" lon="6.43417">
        <ele>1990</ele>
        <time>2018-10-17T07:48:18Z</time>
      </trkpt>
      <trkpt lat="45.84362" lon="6.43417">
        <ele>1990</ele>
        <time>2018-10-17T07:48:19Z</time>
      </trkpt>
      <trkpt lat="45.84364" lon="6.43416">
        <ele>1990</ele>
        <time>2018-10-17T07:48:20Z</time>
      </trkpt>
      <trkpt lat="45.84364" lon="6.43416">
        <ele>1991</ele>
        <time>2018-10-17T07:48:21Z</time>
      </trkpt>
      <trkpt lat="45.84366" lon="6.43416">
        <ele>1991</ele>
        <time>2018-10-17T07:48:22Z</time>
      </trkpt>
      <trkpt lat="45.84366" lon="6.43416">
        <ele>1991</ele>
        <time>2018-10-17T07:48:23Z</time>
      </trkpt>
      <trkpt lat="45.84368" lon="6.43417">
        <ele>1991</ele>
        <time>2018-10-17T07:48:24Z</time>
      </trkpt>
      <trkpt lat="45.84368" lon="6.43417">
        <ele>1991</ele>
        <time>2018-10-17T07:48:25Z</time>
      </trkpt>
      <trkpt lat="45.84368" lon="6.43417">
        <ele>1991</ele>
        <time>2018-10-17T07:48:26Z</time>
      </trkpt>
      <trkpt lat="45.84371" lon="6.43418">
        <ele>1991</ele>
        <time>2018-10-17T07:48:27Z</time>
      </trkpt>
      <trkpt lat="45.84371" lon="6.43418">
        <ele>1992</ele>
        <time>2018-10-17T07:48:28Z</time>
      </trkpt>
      <trkpt lat="45.84372" lon="6.43418">
        <ele>1992</ele>
        <time>2018-10-17T07:48:29Z</time>
      </trkpt>
      <trkpt lat="45.84372" lon="6.43418">
        <ele>1992</ele>
        <time>2018-10-17T07:48:30Z</time>
      </trkpt>
      <trkpt lat="45.84374" lon="6.43419">
        <ele>1992</ele>
        <time>2018-10-17T07:48:31Z</time>
      </trkpt>
      <trkpt lat="45.84374" lon="6.43419">
        <ele>1992</ele>
        <time>2018-10-17T07:48:32Z</time>
      </trkpt>
      <trkpt lat="45.84374" lon="6.43419">
        <ele>1992</ele>
        <time>2018-10-17T07:48:33Z</time>
      </trkpt>
      <trkpt lat="45.84376" lon="6.43419">
        <ele>1992</ele>
        <time>2018-10-17T07:48:34Z</time>
      </trkpt>
      <trkpt lat="45.84376" lon="6.43419">
        <ele>1992</ele>
        <time>2018-10-17T07:48:35Z</time>
      </trkpt>
      <trkpt lat="45.84376" lon="6.43419">
        <ele>1992</ele>
        <time>2018-10-17T07:48:36Z</time>
      </trkpt>
      <trkpt lat="45.84379" lon="6.43418">
        <ele>1992</ele>
        <time>2018-10-17T07:48:37Z</time>
      </trkpt>
      <trkpt lat="45.84379" lon="6.43418">
        <ele>1992</ele>
        <time>2018-10-17T07:48:38Z</time>
      </trkpt>
      <trkpt lat="45.84381" lon="6.43418">
        <ele>1992</ele>
        <time>2018-10-17T07:48:39Z</time>
      </trkpt>
      <trkpt lat="45.84381" lon="6.43418">
        <ele>1992</ele>
        <time>2018-10-17T07:48:40Z</time>
      </trkpt>
      <trkpt lat="45.84383" lon="6.43419">
        <ele>1992</ele>
        <time>2018-10-17T07:48:41Z</time>
      </trkpt>
      <trkpt lat="45.84383" lon="6.43419">
        <ele>1992</ele>
        <time>2018-10-17T07:48:42Z</time>
      </trkpt>
      <trkpt lat="45.84385" lon="6.43419">
        <ele>1992</ele>
        <time>2018-10-17T07:48:43Z</time>
      </trkpt>
      <trkpt lat="45.84385" lon="6.43419">
        <ele>1992</ele>
        <time>2018-10-17T07:48:44Z</time>
      </trkpt>
      <trkpt lat="45.84387" lon="6.43419">
        <ele>1993</ele>
        <time>2018-10-17T07:48:45Z</time>
      </trkpt>
      <trkpt lat="45.84387" lon="6.43419">
        <ele>1993</ele>
        <time>2018-10-17T07:48:46Z</time>
      </trkpt>
      <trkpt lat="45.84389" lon="6.4342">
        <ele>1993</ele>
        <time>2018-10-17T07:48:47Z</time>
      </trkpt>
      <trkpt lat="45.84389" lon="6.4342">
        <ele>1993</ele>
        <time>2018-10-17T07:48:48Z</time>
      </trkpt>
      <trkpt lat="45.84391" lon="6.4342">
        <ele>1993</ele>
        <time>2018-10-17T07:48:49Z</time>
      </trkpt>
      <trkpt lat="45.84391" lon="6.4342">
        <ele>1993</ele>
        <time>2018-10-17T07:48:50Z</time>
      </trkpt>
      <trkpt lat="45.84394" lon="6.43421">
        <ele>1993</ele>
        <time>2018-10-17T07:48:51Z</time>
      </trkpt>
      <trkpt lat="45.84394" lon="6.43421">
        <ele>1994</ele>
        <time>2018-10-17T07:48:52Z</time>
      </trkpt>
      <trkpt lat="45.84396" lon="6.43423">
        <ele>1994</ele>
        <time>2018-10-17T07:48:53Z</time>
      </trkpt>
      <trkpt lat="45.84396" lon="6.43423">
        <ele>1994</ele>
        <time>2018-10-17T07:48:54Z</time>
      </trkpt>
      <trkpt lat="45.84397" lon="6.43424">
        <ele>1994</ele>
        <time>2018-10-17T07:48:55Z</time>
      </trkpt>
      <trkpt lat="45.84397" lon="6.43424">
        <ele>1994</ele>
        <time>2018-10-17T07:48:56Z</time>
      </trkpt>
      <trkpt lat="45.844" lon="6.43426">
        <ele>1995</ele>
        <time>2018-10-17T07:48:57Z</time>
      </trkpt>
      <trkpt lat="45.844" lon="6.43426">
        <ele>1995</ele>
        <time>2018-10-17T07:48:58Z</time>
      </trkpt>
      <trkpt lat="45.84402" lon="6.43427">
        <ele>1995</ele>
        <time>2018-10-17T07:48:59Z</time>
      </trkpt>
      <trkpt lat="45.84402" lon="6.43427">
        <ele>1995</ele>
        <time>2018-10-17T07:49:00Z</time>
      </trkpt>
      <trkpt lat="45.84404" lon="6.43429">
        <ele>1995</ele>
        <time>2018-10-17T07:49:01Z</time>
      </trkpt>
      <trkpt lat="45.84404" lon="6.43429">
        <ele>1995</ele>
        <time>2018-10-17T07:49:02Z</time>
      </trkpt>
      <trkpt lat="45.84405" lon="6.43432">
        <ele>1995</ele>
        <time>2018-10-17T07:49:03Z</time>
      </trkpt>
      <trkpt lat="45.84405" lon="6.43432">
        <ele>1995</ele>
        <time>2018-10-17T07:49:04Z</time>
      </trkpt>
      <trkpt lat="45.84406" lon="6.43435">
        <ele>1995</ele>
        <time>2018-10-17T07:49:05Z</time>
      </trkpt>
      <trkpt lat="45.84406" lon="6.43435">
        <ele>1996</ele>
        <time>2018-10-17T07:49:06Z</time>
      </trkpt>
      <trkpt lat="45.84407" lon="6.43438">
        <ele>1996</ele>
        <time>2018-10-17T07:49:07Z</time>
      </trkpt>
      <trkpt lat="45.84407" lon="6.43438">
        <ele>1996</ele>
        <time>2018-10-17T07:49:08Z</time>
      </trkpt>
      <trkpt lat="45.84409" lon="6.43441">
        <ele>1996</ele>
        <time>2018-10-17T07:49:09Z</time>
      </trkpt>
      <trkpt lat="45.84409" lon="6.43441">
        <ele>1996</ele>
        <time>2018-10-17T07:49:10Z</time>
      </trkpt>
      <trkpt lat="45.84409" lon="6.43444">
        <ele>1996</ele>
        <time>2018-10-17T07:49:11Z</time>
      </trkpt>
      <trkpt lat="45.84409" lon="6.43444">
        <ele>1996</ele>
        <time>2018-10-17T07:49:12Z</time>
      </trkpt>
      <trkpt lat="45.8441" lon="6.43447">
        <ele>1996</ele>
        <time>2018-10-17T07:49:13Z</time>
      </trkpt>
      <trkpt lat="45.8441" lon="6.43447">
        <ele>1997</ele>
        <time>2018-10-17T07:49:14Z</time>
      </trkpt>
      <trkpt lat="45.84411" lon="6.4345">
        <ele>1997</ele>
        <time>2018-10-17T07:49:15Z</time>
      </trkpt>
      <trkpt lat="45.84411" lon="6.4345">
        <ele>1997</ele>
        <time>2018-10-17T07:49:16Z</time>
      </trkpt>
      <trkpt lat="45.84412" lon="6.43453">
        <ele>1997</ele>
        <time>2018-10-17T07:49:17Z</time>
      </trkpt>
      <trkpt lat="45.84412" lon="6.43453">
        <ele>1997</ele>
        <time>2018-10-17T07:49:18Z</time>
      </trkpt>
      <trkpt lat="45.84413" lon="6.43455">
        <ele>1998</ele>
        <time>2018-10-17T07:49:19Z</time>
      </trkpt>
      <trkpt lat="45.84413" lon="6.43455">
        <ele>1998</ele>
        <time>2018-10-17T07:49:20Z</time>
      </trkpt>
      <trkpt lat="45.84415" lon="6.43458">
        <ele>1998</ele>
        <time>2018-10-17T07:49:21Z</time>
      </trkpt>
      <trkpt lat="45.84415" lon="6.43458">
        <ele>1999</ele>
        <time>2018-10-17T07:49:22Z</time>
      </trkpt>
      <trkpt lat="45.84416" lon="6.43461">
        <ele>1999</ele>
        <time>2018-10-17T07:49:23Z</time>
      </trkpt>
      <trkpt lat="45.84416" lon="6.43461">
        <ele>1999</ele>
        <time>2018-10-17T07:49:24Z</time>
      </trkpt>
      <trkpt lat="45.84417" lon="6.43464">
        <ele>1999</ele>
        <time>2018-10-17T07:49:25Z</time>
      </trkpt>
      <trkpt lat="45.84417" lon="6.43464">
        <ele>1999</ele>
        <time>2018-10-17T07:49:26Z</time>
      </trkpt>
      <trkpt lat="45.84418" lon="6.43466">
        <ele>1999</ele>
        <time>2018-10-17T07:49:27Z</time>
      </trkpt>
      <trkpt lat="45.84418" lon="6.43466">
        <ele>1999</ele>
        <time>2018-10-17T07:49:28Z</time>
      </trkpt>
      <trkpt lat="45.84418" lon="6.43466">
        <ele>1999</ele>
        <time>2018-10-17T07:49:29Z</time>
      </trkpt>
      <trkpt lat="45.84419" lon="6.43468">
        <ele>2001</ele>
        <time>2018-10-17T07:49:30Z</time>
      </trkpt>
      <trkpt lat="45.84419" lon="6.43468">
        <ele>2001</ele>
        <time>2018-10-17T07:49:31Z</time>
      </trkpt>
      <trkpt lat="45.84419" lon="6.43468">
        <ele>2001</ele>
        <time>2018-10-17T07:49:32Z</time>
      </trkpt>
      <trkpt lat="45.8442" lon="6.43471">
        <ele>2001</ele>
        <time>2018-10-17T07:49:33Z</time>
      </trkpt>
      <trkpt lat="45.8442" lon="6.43471">
        <ele>2001</ele>
        <time>2018-10-17T07:49:34Z</time>
      </trkpt>
      <trkpt lat="45.84422" lon="6.43474">
        <ele>2001</ele>
        <time>2018-10-17T07:49:35Z</time>
      </trkpt>
      <trkpt lat="45.84422" lon="6.43474">
        <ele>2002</ele>
        <time>2018-10-17T07:49:36Z</time>
      </trkpt>
      <trkpt lat="45.84423" lon="6.43477">
        <ele>2002</ele>
        <time>2018-10-17T07:49:37Z</time>
      </trkpt>
      <trkpt lat="45.84423" lon="6.43477">
        <ele>2002</ele>
        <time>2018-10-17T07:49:38Z</time>
      </trkpt>
      <trkpt lat="45.84424" lon="6.43479">
        <ele>2003</ele>
        <time>2018-10-17T07:49:39Z</time>
      </trkpt>
      <trkpt lat="45.84424" lon="6.43479">
        <ele>2003</ele>
        <time>2018-10-17T07:49:40Z</time>
      </trkpt>
      <trkpt lat="45.84425" lon="6.43482">
        <ele>2003</ele>
        <time>2018-10-17T07:49:41Z</time>
      </trkpt>
      <trkpt lat="45.84425" lon="6.43482">
        <ele>2003</ele>
        <time>2018-10-17T07:49:42Z</time>
      </trkpt>
      <trkpt lat="45.84426" lon="6.43485">
        <ele>2003</ele>
        <time>2018-10-17T07:49:43Z</time>
      </trkpt>
      <trkpt lat="45.84426" lon="6.43485">
        <ele>2003</ele>
        <time>2018-10-17T07:49:44Z</time>
      </trkpt>
      <trkpt lat="45.84428" lon="6.43488">
        <ele>2004</ele>
        <time>2018-10-17T07:49:45Z</time>
      </trkpt>
      <trkpt lat="45.84428" lon="6.43488">
        <ele>2004</ele>
        <time>2018-10-17T07:49:46Z</time>
      </trkpt>
      <trkpt lat="45.84429" lon="6.43492">
        <ele>2004</ele>
        <time>2018-10-17T07:49:47Z</time>
      </trkpt>
      <trkpt lat="45.84429" lon="6.43492">
        <ele>2004</ele>
        <time>2018-10-17T07:49:48Z</time>
      </trkpt>
      <trkpt lat="45.84431" lon="6.43494">
        <ele>2004</ele>
        <time>2018-10-17T07:49:49Z</time>
      </trkpt>
      <trkpt lat="45.84431" lon="6.43494">
        <ele>2004</ele>
        <time>2018-10-17T07:49:50Z</time>
      </trkpt>
      <trkpt lat="45.84433" lon="6.43497">
        <ele>2004</ele>
        <time>2018-10-17T07:49:51Z</time>
      </trkpt>
      <trkpt lat="45.84433" lon="6.43497">
        <ele>2004</ele>
        <time>2018-10-17T07:49:52Z</time>
      </trkpt>
      <trkpt lat="45.84435" lon="6.435">
        <ele>2005</ele>
        <time>2018-10-17T07:49:53Z</time>
      </trkpt>
      <trkpt lat="45.84435" lon="6.435">
        <ele>2005</ele>
        <time>2018-10-17T07:49:54Z</time>
      </trkpt>
      <trkpt lat="45.84435" lon="6.43503">
        <ele>2005</ele>
        <time>2018-10-17T07:49:55Z</time>
      </trkpt>
      <trkpt lat="45.84435" lon="6.43503">
        <ele>2006</ele>
        <time>2018-10-17T07:49:56Z</time>
      </trkpt>
      <trkpt lat="45.84436" lon="6.43506">
        <ele>2006</ele>
        <time>2018-10-17T07:49:57Z</time>
      </trkpt>
      <trkpt lat="45.84436" lon="6.43506">
        <ele>2006</ele>
        <time>2018-10-17T07:49:58Z</time>
      </trkpt>
      <trkpt lat="45.84437" lon="6.43509">
        <ele>2006</ele>
        <time>2018-10-17T07:49:59Z</time>
      </trkpt>
      <trkpt lat="45.84437" lon="6.43509">
        <ele>2006</ele>
        <time>2018-10-17T07:50:00Z</time>
      </trkpt>
      <trkpt lat="45.84438" lon="6.43511">
        <ele>2006</ele>
        <time>2018-10-17T07:50:01Z</time>
      </trkpt>
      <trkpt lat="45.84438" lon="6.43511">
        <ele>2006</ele>
        <time>2018-10-17T07:50:02Z</time>
      </trkpt>
      <trkpt lat="45.84438" lon="6.43514">
        <ele>2007</ele>
        <time>2018-10-17T07:50:03Z</time>
      </trkpt>
      <trkpt lat="45.84438" lon="6.43514">
        <ele>2007</ele>
        <time>2018-10-17T07:50:04Z</time>
      </trkpt>
      <trkpt lat="45.84438" lon="6.43517">
        <ele>2007</ele>
        <time>2018-10-17T07:50:05Z</time>
      </trkpt>
      <trkpt lat="45.84438" lon="6.43517">
        <ele>2007</ele>
        <time>2018-10-17T07:50:06Z</time>
      </trkpt>
      <trkpt lat="45.84438" lon="6.4352">
        <ele>2007</ele>
        <time>2018-10-17T07:50:07Z</time>
      </trkpt>
      <trkpt lat="45.84438" lon="6.4352">
        <ele>2007</ele>
        <time>2018-10-17T07:50:08Z</time>
      </trkpt>
      <trkpt lat="45.84438" lon="6.43524">
        <ele>2008</ele>
        <time>2018-10-17T07:50:09Z</time>
      </trkpt>
      <trkpt lat="45.84438" lon="6.43524">
        <ele>2009</ele>
        <time>2018-10-17T07:50:10Z</time>
      </trkpt>
      <trkpt lat="45.84438" lon="6.43524">
        <ele>2009</ele>
        <time>2018-10-17T07:50:11Z</time>
      </trkpt>
      <trkpt lat="45.84439" lon="6.43528">
        <ele>2009</ele>
        <time>2018-10-17T07:50:12Z</time>
      </trkpt>
      <trkpt lat="45.84439" lon="6.43528">
        <ele>2009</ele>
        <time>2018-10-17T07:50:13Z</time>
      </trkpt>
      <trkpt lat="45.84439" lon="6.43531">
        <ele>2010</ele>
        <time>2018-10-17T07:50:14Z</time>
      </trkpt>
      <trkpt lat="45.84439" lon="6.43531">
        <ele>2010</ele>
        <time>2018-10-17T07:50:15Z</time>
      </trkpt>
      <trkpt lat="45.84439" lon="6.43531">
        <ele>2010</ele>
        <time>2018-10-17T07:50:16Z</time>
      </trkpt>
      <trkpt lat="45.84441" lon="6.43534">
        <ele>2010</ele>
        <time>2018-10-17T07:50:17Z</time>
      </trkpt>
      <trkpt lat="45.84441" lon="6.43534">
        <ele>2010</ele>
        <time>2018-10-17T07:50:18Z</time>
      </trkpt>
      <trkpt lat="45.84441" lon="6.43534">
        <ele>2010</ele>
        <time>2018-10-17T07:50:19Z</time>
      </trkpt>
      <trkpt lat="45.84442" lon="6.43536">
        <ele>2011</ele>
        <time>2018-10-17T07:50:20Z</time>
      </trkpt>
      <trkpt lat="45.84442" lon="6.43536">
        <ele>2011</ele>
        <time>2018-10-17T07:50:21Z</time>
      </trkpt>
      <trkpt lat="45.84442" lon="6.43536">
        <ele>2011</ele>
        <time>2018-10-17T07:50:22Z</time>
      </trkpt>
      <trkpt lat="45.84443" lon="6.4354">
        <ele>2011</ele>
        <time>2018-10-17T07:50:23Z</time>
      </trkpt>
      <trkpt lat="45.84443" lon="6.4354">
        <ele>2011</ele>
        <time>2018-10-17T07:50:24Z</time>
      </trkpt>
      <trkpt lat="45.84443" lon="6.4354">
        <ele>2013</ele>
        <time>2018-10-17T07:50:25Z</time>
      </trkpt>
      <trkpt lat="45.84444" lon="6.43543">
        <ele>2013</ele>
        <time>2018-10-17T07:50:26Z</time>
      </trkpt>
      <trkpt lat="45.84444" lon="6.43543">
        <ele>2013</ele>
        <time>2018-10-17T07:50:27Z</time>
      </trkpt>
      <trkpt lat="45.84445" lon="6.43545">
        <ele>2013</ele>
        <time>2018-10-17T07:50:28Z</time>
      </trkpt>
      <trkpt lat="45.84445" lon="6.43545">
        <ele>2013</ele>
        <time>2018-10-17T07:50:29Z</time>
      </trkpt>
      <trkpt lat="45.84445" lon="6.43545">
        <ele>2014</ele>
        <time>2018-10-17T07:50:30Z</time>
      </trkpt>
      <trkpt lat="45.84445" lon="6.43548">
        <ele>2015</ele>
        <time>2018-10-17T07:50:31Z</time>
      </trkpt>
      <trkpt lat="45.84445" lon="6.43548">
        <ele>2015</ele>
        <time>2018-10-17T07:50:32Z</time>
      </trkpt>
      <trkpt lat="45.84445" lon="6.43548">
        <ele>2015</ele>
        <time>2018-10-17T07:50:33Z</time>
      </trkpt>
      <trkpt lat="45.84447" lon="6.43551">
        <ele>2016</ele>
        <time>2018-10-17T07:50:34Z</time>
      </trkpt>
      <trkpt lat="45.84447" lon="6.43551">
        <ele>2016</ele>
        <time>2018-10-17T07:50:35Z</time>
      </trkpt>
      <trkpt lat="45.84447" lon="6.43551">
        <ele>2016</ele>
        <time>2018-10-17T07:50:36Z</time>
      </trkpt>
      <trkpt lat="45.84448" lon="6.43554">
        <ele>2016</ele>
        <time>2018-10-17T07:50:37Z</time>
      </trkpt>
      <trkpt lat="45.84448" lon="6.43554">
        <ele>2016</ele>
        <time>2018-10-17T07:50:38Z</time>
      </trkpt>
      <trkpt lat="45.84449" lon="6.43556">
        <ele>2016</ele>
        <time>2018-10-17T07:50:39Z</time>
      </trkpt>
      <trkpt lat="45.84449" lon="6.43556">
        <ele>2016</ele>
        <time>2018-10-17T07:50:40Z</time>
      </trkpt>
      <trkpt lat="45.84449" lon="6.43556">
        <ele>2016</ele>
        <time>2018-10-17T07:50:41Z</time>
      </trkpt>
      <trkpt lat="45.84449" lon="6.4356">
        <ele>2016</ele>
        <time>2018-10-17T07:50:42Z</time>
      </trkpt>
      <trkpt lat="45.84449" lon="6.4356">
        <ele>2016</ele>
        <time>2018-10-17T07:50:43Z</time>
      </trkpt>
      <trkpt lat="45.84449" lon="6.4356">
        <ele>2017</ele>
        <time>2018-10-17T07:50:44Z</time>
      </trkpt>
      <trkpt lat="45.84451" lon="6.43562">
        <ele>2017</ele>
        <time>2018-10-17T07:50:45Z</time>
      </trkpt>
      <trkpt lat="45.84451" lon="6.43562">
        <ele>2018</ele>
        <time>2018-10-17T07:50:46Z</time>
      </trkpt>
      <trkpt lat="45.84451" lon="6.43562">
        <ele>2018</ele>
        <time>2018-10-17T07:50:47Z</time>
      </trkpt>
      <trkpt lat="45.84451" lon="6.43562">
        <ele>2018</ele>
        <time>2018-10-17T07:50:48Z</time>
      </trkpt>
      <trkpt lat="45.84452" lon="6.43566">
        <ele>2019</ele>
        <time>2018-10-17T07:50:49Z</time>
      </trkpt>
      <trkpt lat="45.84452" lon="6.43566">
        <ele>2019</ele>
        <time>2018-10-17T07:50:50Z</time>
      </trkpt>
      <trkpt lat="45.84452" lon="6.43569">
        <ele>2019</ele>
        <time>2018-10-17T07:50:51Z</time>
      </trkpt>
      <trkpt lat="45.84452" lon="6.43569">
        <ele>2019</ele>
        <time>2018-10-17T07:50:52Z</time>
      </trkpt>
      <trkpt lat="45.84452" lon="6.43569">
        <ele>2019</ele>
        <time>2018-10-17T07:50:53Z</time>
      </trkpt>
      <trkpt lat="45.84452" lon="6.43572">
        <ele>2020</ele>
        <time>2018-10-17T07:50:54Z</time>
      </trkpt>
      <trkpt lat="45.84452" lon="6.43572">
        <ele>2020</ele>
        <time>2018-10-17T07:50:55Z</time>
      </trkpt>
      <trkpt lat="45.84452" lon="6.43572">
        <ele>2020</ele>
        <time>2018-10-17T07:50:56Z</time>
      </trkpt>
      <trkpt lat="45.84452" lon="6.43576">
        <ele>2020</ele>
        <time>2018-10-17T07:50:57Z</time>
      </trkpt>
      <trkpt lat="45.84452" lon="6.43576">
        <ele>2020</ele>
        <time>2018-10-17T07:50:58Z</time>
      </trkpt>
      <trkpt lat="45.84452" lon="6.43579">
        <ele>2020</ele>
        <time>2018-10-17T07:50:59Z</time>
      </trkpt>
      <trkpt lat="45.84452" lon="6.43579">
        <ele>2021</ele>
        <time>2018-10-17T07:51:00Z</time>
      </trkpt>
      <trkpt lat="45.84452" lon="6.43579">
        <ele>2021</ele>
        <time>2018-10-17T07:51:01Z</time>
      </trkpt>
      <trkpt lat="45.84452" lon="6.43579">
        <ele>2021</ele>
        <time>2018-10-17T07:51:02Z</time>
      </trkpt>
      <trkpt lat="45.84453" lon="6.43582">
        <ele>2021</ele>
        <time>2018-10-17T07:51:03Z</time>
      </trkpt>
      <trkpt lat="45.84453" lon="6.43582">
        <ele>2021</ele>
        <time>2018-10-17T07:51:04Z</time>
      </trkpt>
      <trkpt lat="45.84453" lon="6.43582">
        <ele>2021</ele>
        <time>2018-10-17T07:51:05Z</time>
      </trkpt>
      <trkpt lat="45.84453" lon="6.43582">
        <ele>2022</ele>
        <time>2018-10-17T07:51:06Z</time>
      </trkpt>
      <trkpt lat="45.84454" lon="6.43585">
        <ele>2022</ele>
        <time>2018-10-17T07:51:07Z</time>
      </trkpt>
      <trkpt lat="45.84454" lon="6.43585">
        <ele>2022</ele>
        <time>2018-10-17T07:51:08Z</time>
      </trkpt>
      <trkpt lat="45.84454" lon="6.43585">
        <ele>2022</ele>
        <time>2018-10-17T07:51:09Z</time>
      </trkpt>
      <trkpt lat="45.84454" lon="6.43585">
        <ele>2022</ele>
        <time>2018-10-17T07:51:10Z</time>
      </trkpt>
      <trkpt lat="45.84454" lon="6.43585">
        <ele>2022</ele>
        <time>2018-10-17T07:51:11Z</time>
      </trkpt>
      <trkpt lat="45.84454" lon="6.43585">
        <ele>2022</ele>
        <time>2018-10-17T07:51:12Z</time>
      </trkpt>
      <trkpt lat="45.84454" lon="6.43585">
        <ele>2023</ele>
        <time>2018-10-17T07:51:13Z</time>
      </trkpt>
      <trkpt lat="45.84455" lon="6.43588">
        <ele>2023</ele>
        <time>2018-10-17T07:51:14Z</time>
      </trkpt>
      <trkpt lat="45.84455" lon="6.43588">
        <ele>2023</ele>
        <time>2018-10-17T07:51:15Z</time>
      </trkpt>
      <trkpt lat="45.84455" lon="6.43588">
        <ele>2023</ele>
        <time>2018-10-17T07:51:16Z</time>
      </trkpt>
      <trkpt lat="45.84455" lon="6.43588">
        <ele>2024</ele>
        <time>2018-10-17T07:51:17Z</time>
      </trkpt>
      <trkpt lat="45.84456" lon="6.43591">
        <ele>2024</ele>
        <time>2018-10-17T07:51:18Z</time>
      </trkpt>
      <trkpt lat="45.84456" lon="6.43591">
        <ele>2024</ele>
        <time>2018-10-17T07:51:19Z</time>
      </trkpt>
      <trkpt lat="45.84456" lon="6.43591">
        <ele>2024</ele>
        <time>2018-10-17T07:51:20Z</time>
      </trkpt>
      <trkpt lat="45.84456" lon="6.43591">
        <ele>2024</ele>
        <time>2018-10-17T07:51:21Z</time>
      </trkpt>
      <trkpt lat="45.84457" lon="6.43594">
        <ele>2025</ele>
        <time>2018-10-17T07:51:22Z</time>
      </trkpt>
      <trkpt lat="45.84457" lon="6.43594">
        <ele>2025</ele>
        <time>2018-10-17T07:51:23Z</time>
      </trkpt>
      <trkpt lat="45.84457" lon="6.43594">
        <ele>2025</ele>
        <time>2018-10-17T07:51:24Z</time>
      </trkpt>
      <trkpt lat="45.84456" lon="6.43596">
        <ele>2025</ele>
        <time>2018-10-17T07:51:25Z</time>
      </trkpt>
      <trkpt lat="45.84456" lon="6.43596">
        <ele>2025</ele>
        <time>2018-10-17T07:51:26Z</time>
      </trkpt>
      <trkpt lat="45.84456" lon="6.43596">
        <ele>2025</ele>
        <time>2018-10-17T07:51:27Z</time>
      </trkpt>
      <trkpt lat="45.84456" lon="6.43596">
        <ele>2025</ele>
        <time>2018-10-17T07:51:28Z</time>
      </trkpt>
      <trkpt lat="45.84456" lon="6.436">
        <ele>2027</ele>
        <time>2018-10-17T07:51:29Z</time>
      </trkpt>
      <trkpt lat="45.84456" lon="6.436">
        <ele>2027</ele>
        <time>2018-10-17T07:51:30Z</time>
      </trkpt>
      <trkpt lat="45.84456" lon="6.436">
        <ele>2027</ele>
        <time>2018-10-17T07:51:31Z</time>
      </trkpt>
      <trkpt lat="45.84457" lon="6.43603">
        <ele>2028</ele>
        <time>2018-10-17T07:51:32Z</time>
      </trkpt>
      <trkpt lat="45.84457" lon="6.43603">
        <ele>2028</ele>
        <time>2018-10-17T07:51:33Z</time>
      </trkpt>
      <trkpt lat="45.84457" lon="6.43603">
        <ele>2028</ele>
        <time>2018-10-17T07:51:34Z</time>
      </trkpt>
      <trkpt lat="45.84458" lon="6.43605">
        <ele>2028</ele>
        <time>2018-10-17T07:51:35Z</time>
      </trkpt>
      <trkpt lat="45.84458" lon="6.43605">
        <ele>2028</ele>
        <time>2018-10-17T07:51:36Z</time>
      </trkpt>
      <trkpt lat="45.84458" lon="6.43605">
        <ele>2028</ele>
        <time>2018-10-17T07:51:37Z</time>
      </trkpt>
      <trkpt lat="45.84458" lon="6.43609">
        <ele>2028</ele>
        <time>2018-10-17T07:51:38Z</time>
      </trkpt>
      <trkpt lat="45.84458" lon="6.43609">
        <ele>2029</ele>
        <time>2018-10-17T07:51:39Z</time>
      </trkpt>
      <trkpt lat="45.84458" lon="6.43609">
        <ele>2029</ele>
        <time>2018-10-17T07:51:40Z</time>
      </trkpt>
      <trkpt lat="45.84458" lon="6.43611">
        <ele>2029</ele>
        <time>2018-10-17T07:51:41Z</time>
      </trkpt>
      <trkpt lat="45.84458" lon="6.43611">
        <ele>2030</ele>
        <time>2018-10-17T07:51:42Z</time>
      </trkpt>
      <trkpt lat="45.84458" lon="6.43611">
        <ele>2030</ele>
        <time>2018-10-17T07:51:43Z</time>
      </trkpt>
      <trkpt lat="45.84458" lon="6.43611">
        <ele>2030</ele>
        <time>2018-10-17T07:51:44Z</time>
      </trkpt>
      <trkpt lat="45.84459" lon="6.43614">
        <ele>2030</ele>
        <time>2018-10-17T07:51:45Z</time>
      </trkpt>
      <trkpt lat="45.84459" lon="6.43614">
        <ele>2030</ele>
        <time>2018-10-17T07:51:46Z</time>
      </trkpt>
      <trkpt lat="45.84459" lon="6.43614">
        <ele>2030</ele>
        <time>2018-10-17T07:51:47Z</time>
      </trkpt>
      <trkpt lat="45.84459" lon="6.43614">
        <ele>2031</ele>
        <time>2018-10-17T07:51:48Z</time>
      </trkpt>
      <trkpt lat="45.8446" lon="6.43617">
        <ele>2031</ele>
        <time>2018-10-17T07:51:49Z</time>
      </trkpt>
      <trkpt lat="45.8446" lon="6.43617">
        <ele>2031</ele>
        <time>2018-10-17T07:51:50Z</time>
      </trkpt>
      <trkpt lat="45.8446" lon="6.43617">
        <ele>2031</ele>
        <time>2018-10-17T07:51:51Z</time>
      </trkpt>
      <trkpt lat="45.8446" lon="6.43617">
        <ele>2031</ele>
        <time>2018-10-17T07:51:52Z</time>
      </trkpt>
      <trkpt lat="45.8446" lon="6.43617">
        <ele>2031</ele>
        <time>2018-10-17T07:51:53Z</time>
      </trkpt>
      <trkpt lat="45.84461" lon="6.43619">
        <ele>2031</ele>
        <time>2018-10-17T07:51:54Z</time>
      </trkpt>
      <trkpt lat="45.84461" lon="6.43619">
        <ele>2032</ele>
        <time>2018-10-17T07:51:55Z</time>
      </trkpt>
      <trkpt lat="45.84461" lon="6.43619">
        <ele>2032</ele>
        <time>2018-10-17T07:51:56Z</time>
      </trkpt>
      <trkpt lat="45.84461" lon="6.43619">
        <ele>2033</ele>
        <time>2018-10-17T07:51:57Z</time>
      </trkpt>
      <trkpt lat="45.84462" lon="6.43622">
        <ele>2033</ele>
        <time>2018-10-17T07:51:58Z</time>
      </trkpt>
      <trkpt lat="45.84462" lon="6.43622">
        <ele>2033</ele>
        <time>2018-10-17T07:51:59Z</time>
      </trkpt>
      <trkpt lat="45.84462" lon="6.43622">
        <ele>2033</ele>
        <time>2018-10-17T07:52:00Z</time>
      </trkpt>
      <trkpt lat="45.84462" lon="6.43622">
        <ele>2033</ele>
        <time>2018-10-17T07:52:01Z</time>
      </trkpt>
      <trkpt lat="45.84462" lon="6.43625">
        <ele>2033</ele>
        <time>2018-10-17T07:52:02Z</time>
      </trkpt>
      <trkpt lat="45.84462" lon="6.43625">
        <ele>2033</ele>
        <time>2018-10-17T07:52:03Z</time>
      </trkpt>
      <trkpt lat="45.84462" lon="6.43625">
        <ele>2033</ele>
        <time>2018-10-17T07:52:04Z</time>
      </trkpt>
      <trkpt lat="45.84461" lon="6.43628">
        <ele>2034</ele>
        <time>2018-10-17T07:52:05Z</time>
      </trkpt>
      <trkpt lat="45.84461" lon="6.43628">
        <ele>2034</ele>
        <time>2018-10-17T07:52:06Z</time>
      </trkpt>
      <trkpt lat="45.84461" lon="6.43628">
        <ele>2034</ele>
        <time>2018-10-17T07:52:07Z</time>
      </trkpt>
      <trkpt lat="45.84461" lon="6.43632">
        <ele>2034</ele>
        <time>2018-10-17T07:52:08Z</time>
      </trkpt>
      <trkpt lat="45.84461" lon="6.43632">
        <ele>2034</ele>
        <time>2018-10-17T07:52:09Z</time>
      </trkpt>
      <trkpt lat="45.84461" lon="6.43632">
        <ele>2035</ele>
        <time>2018-10-17T07:52:10Z</time>
      </trkpt>
      <trkpt lat="45.84461" lon="6.43635">
        <ele>2035</ele>
        <time>2018-10-17T07:52:11Z</time>
      </trkpt>
      <trkpt lat="45.84461" lon="6.43635">
        <ele>2035</ele>
        <time>2018-10-17T07:52:12Z</time>
      </trkpt>
      <trkpt lat="45.84461" lon="6.43635">
        <ele>2035</ele>
        <time>2018-10-17T07:52:13Z</time>
      </trkpt>
      <trkpt lat="45.84461" lon="6.43635">
        <ele>2035</ele>
        <time>2018-10-17T07:52:14Z</time>
      </trkpt>
      <trkpt lat="45.84461" lon="6.43635">
        <ele>2035</ele>
        <time>2018-10-17T07:52:15Z</time>
      </trkpt>
      <trkpt lat="45.84461" lon="6.43635">
        <ele>2035</ele>
        <time>2018-10-17T07:52:16Z</time>
      </trkpt>
      <trkpt lat="45.84461" lon="6.43635">
        <ele>2035</ele>
        <time>2018-10-17T07:52:17Z</time>
      </trkpt>
      <trkpt lat="45.84461" lon="6.43635">
        <ele>2035</ele>
        <time>2018-10-17T07:52:18Z</time>
      </trkpt>
      <trkpt lat="45.84461" lon="6.43635">
        <ele>2035</ele>
        <time>2018-10-17T07:52:19Z</time>
      </trkpt>
      <trkpt lat="45.84462" lon="6.43639">
        <ele>2035</ele>
        <time>2018-10-17T07:52:20Z</time>
      </trkpt>
      <trkpt lat="45.84462" lon="6.43639">
        <ele>2036</ele>
        <time>2018-10-17T07:52:21Z</time>
      </trkpt>
      <trkpt lat="45.84462" lon="6.43641">
        <ele>2036</ele>
        <time>2018-10-17T07:52:22Z</time>
      </trkpt>
      <trkpt lat="45.84462" lon="6.43641">
        <ele>2036</ele>
        <time>2018-10-17T07:52:23Z</time>
      </trkpt>
      <trkpt lat="45.84462" lon="6.43641">
        <ele>2037</ele>
        <time>2018-10-17T07:52:24Z</time>
      </trkpt>
      <trkpt lat="45.84463" lon="6.43644">
        <ele>2037</ele>
        <time>2018-10-17T07:52:25Z</time>
      </trkpt>
      <trkpt lat="45.84463" lon="6.43644">
        <ele>2037</ele>
        <time>2018-10-17T07:52:26Z</time>
      </trkpt>
      <trkpt lat="45.84463" lon="6.43644">
        <ele>2038</ele>
        <time>2018-10-17T07:52:27Z</time>
      </trkpt>
      <trkpt lat="45.84463" lon="6.43648">
        <ele>2038</ele>
        <time>2018-10-17T07:52:28Z</time>
      </trkpt>
      <trkpt lat="45.84463" lon="6.43648">
        <ele>2038</ele>
        <time>2018-10-17T07:52:29Z</time>
      </trkpt>
      <trkpt lat="45.84464" lon="6.4365">
        <ele>2038</ele>
        <time>2018-10-17T07:52:30Z</time>
      </trkpt>
      <trkpt lat="45.84464" lon="6.4365">
        <ele>2038</ele>
        <time>2018-10-17T07:52:31Z</time>
      </trkpt>
      <trkpt lat="45.84464" lon="6.4365">
        <ele>2039</ele>
        <time>2018-10-17T07:52:32Z</time>
      </trkpt>
      <trkpt lat="45.84465" lon="6.43653">
        <ele>2039</ele>
        <time>2018-10-17T07:52:33Z</time>
      </trkpt>
      <trkpt lat="45.84465" lon="6.43653">
        <ele>2039</ele>
        <time>2018-10-17T07:52:34Z</time>
      </trkpt>
      <trkpt lat="45.84465" lon="6.43656">
        <ele>2039</ele>
        <time>2018-10-17T07:52:35Z</time>
      </trkpt>
      <trkpt lat="45.84465" lon="6.43656">
        <ele>2039</ele>
        <time>2018-10-17T07:52:36Z</time>
      </trkpt>
      <trkpt lat="45.84466" lon="6.4366">
        <ele>2039</ele>
        <time>2018-10-17T07:52:37Z</time>
      </trkpt>
      <trkpt lat="45.84466" lon="6.4366">
        <ele>2039</ele>
        <time>2018-10-17T07:52:38Z</time>
      </trkpt>
      <trkpt lat="45.84467" lon="6.43662">
        <ele>2040</ele>
        <time>2018-10-17T07:52:39Z</time>
      </trkpt>
      <trkpt lat="45.84467" lon="6.43662">
        <ele>2040</ele>
        <time>2018-10-17T07:52:40Z</time>
      </trkpt>
      <trkpt lat="45.84468" lon="6.43666">
        <ele>2040</ele>
        <time>2018-10-17T07:52:41Z</time>
      </trkpt>
      <trkpt lat="45.84468" lon="6.43666">
        <ele>2040</ele>
        <time>2018-10-17T07:52:42Z</time>
      </trkpt>
      <trkpt lat="45.84469" lon="6.43669">
        <ele>2040</ele>
        <time>2018-10-17T07:52:43Z</time>
      </trkpt>
      <trkpt lat="45.84469" lon="6.43669">
        <ele>2040</ele>
        <time>2018-10-17T07:52:44Z</time>
      </trkpt>
      <trkpt lat="45.8447" lon="6.43671">
        <ele>2041</ele>
        <time>2018-10-17T07:52:45Z</time>
      </trkpt>
      <trkpt lat="45.8447" lon="6.43671">
        <ele>2041</ele>
        <time>2018-10-17T07:52:46Z</time>
      </trkpt>
      <trkpt lat="45.8447" lon="6.43671">
        <ele>2042</ele>
        <time>2018-10-17T07:52:47Z</time>
      </trkpt>
      <trkpt lat="45.84471" lon="6.43675">
        <ele>2042</ele>
        <time>2018-10-17T07:52:48Z</time>
      </trkpt>
      <trkpt lat="45.84471" lon="6.43675">
        <ele>2042</ele>
        <time>2018-10-17T07:52:49Z</time>
      </trkpt>
      <trkpt lat="45.84472" lon="6.43677">
        <ele>2042</ele>
        <time>2018-10-17T07:52:50Z</time>
      </trkpt>
      <trkpt lat="45.84472" lon="6.43677">
        <ele>2042</ele>
        <time>2018-10-17T07:52:51Z</time>
      </trkpt>
      <trkpt lat="45.84473" lon="6.4368">
        <ele>2043</ele>
        <time>2018-10-17T07:52:52Z</time>
      </trkpt>
      <trkpt lat="45.84473" lon="6.4368">
        <ele>2043</ele>
        <time>2018-10-17T07:52:53Z</time>
      </trkpt>
      <trkpt lat="45.84475" lon="6.43683">
        <ele>2043</ele>
        <time>2018-10-17T07:52:54Z</time>
      </trkpt>
      <trkpt lat="45.84475" lon="6.43683">
        <ele>2043</ele>
        <time>2018-10-17T07:52:55Z</time>
      </trkpt>
      <trkpt lat="45.84475" lon="6.43686">
        <ele>2043</ele>
        <time>2018-10-17T07:52:56Z</time>
      </trkpt>
      <trkpt lat="45.84475" lon="6.43686">
        <ele>2043</ele>
        <time>2018-10-17T07:52:57Z</time>
      </trkpt>
      <trkpt lat="45.84476" lon="6.43689">
        <ele>2043</ele>
        <time>2018-10-17T07:52:58Z</time>
      </trkpt>
      <trkpt lat="45.84476" lon="6.43689">
        <ele>2043</ele>
        <time>2018-10-17T07:52:59Z</time>
      </trkpt>
      <trkpt lat="45.84476" lon="6.43689">
        <ele>2044</ele>
        <time>2018-10-17T07:53:00Z</time>
      </trkpt>
      <trkpt lat="45.84477" lon="6.43692">
        <ele>2044</ele>
        <time>2018-10-17T07:53:01Z</time>
      </trkpt>
      <trkpt lat="45.84477" lon="6.43692">
        <ele>2044</ele>
        <time>2018-10-17T07:53:02Z</time>
      </trkpt>
      <trkpt lat="45.84479" lon="6.43694">
        <ele>2044</ele>
        <time>2018-10-17T07:53:03Z</time>
      </trkpt>
      <trkpt lat="45.84479" lon="6.43694">
        <ele>2044</ele>
        <time>2018-10-17T07:53:04Z</time>
      </trkpt>
      <trkpt lat="45.84481" lon="6.43696">
        <ele>2044</ele>
        <time>2018-10-17T07:53:05Z</time>
      </trkpt>
      <trkpt lat="45.84481" lon="6.43696">
        <ele>2044</ele>
        <time>2018-10-17T07:53:06Z</time>
      </trkpt>
      <trkpt lat="45.84482" lon="6.43699">
        <ele>2044</ele>
        <time>2018-10-17T07:53:07Z</time>
      </trkpt>
      <trkpt lat="45.84482" lon="6.43699">
        <ele>2044</ele>
        <time>2018-10-17T07:53:08Z</time>
      </trkpt>
      <trkpt lat="45.84482" lon="6.43699">
        <ele>2044</ele>
        <time>2018-10-17T07:53:09Z</time>
      </trkpt>
      <trkpt lat="45.84482" lon="6.43699">
        <ele>2044</ele>
        <time>2018-10-17T07:53:10Z</time>
      </trkpt>
      <trkpt lat="45.84482" lon="6.43699">
        <ele>2044</ele>
        <time>2018-10-17T07:53:11Z</time>
      </trkpt>
      <trkpt lat="45.84482" lon="6.43699">
        <ele>2044</ele>
        <time>2018-10-17T07:53:12Z</time>
      </trkpt>
      <trkpt lat="45.84482" lon="6.43701">
        <ele>2044</ele>
        <time>2018-10-17T07:53:13Z</time>
      </trkpt>
      <trkpt lat="45.84482" lon="6.43701">
        <ele>2044</ele>
        <time>2018-10-17T07:53:14Z</time>
      </trkpt>
      <trkpt lat="45.84483" lon="6.43704">
        <ele>2044</ele>
        <time>2018-10-17T07:53:15Z</time>
      </trkpt>
      <trkpt lat="45.84483" lon="6.43704">
        <ele>2044</ele>
        <time>2018-10-17T07:53:16Z</time>
      </trkpt>
      <trkpt lat="45.84483" lon="6.43707">
        <ele>2044</ele>
        <time>2018-10-17T07:53:17Z</time>
      </trkpt>
      <trkpt lat="45.84483" lon="6.43707">
        <ele>2044</ele>
        <time>2018-10-17T07:53:18Z</time>
      </trkpt>
      <trkpt lat="45.84484" lon="6.4371">
        <ele>2044</ele>
        <time>2018-10-17T07:53:19Z</time>
      </trkpt>
      <trkpt lat="45.84484" lon="6.4371">
        <ele>2045</ele>
        <time>2018-10-17T07:53:20Z</time>
      </trkpt>
      <trkpt lat="45.84485" lon="6.43714">
        <ele>2045</ele>
        <time>2018-10-17T07:53:21Z</time>
      </trkpt>
      <trkpt lat="45.84485" lon="6.43714">
        <ele>2045</ele>
        <time>2018-10-17T07:53:22Z</time>
      </trkpt>
      <trkpt lat="45.84486" lon="6.43716">
        <ele>2045</ele>
        <time>2018-10-17T07:53:23Z</time>
      </trkpt>
      <trkpt lat="45.84486" lon="6.43716">
        <ele>2045</ele>
        <time>2018-10-17T07:53:24Z</time>
      </trkpt>
      <trkpt lat="45.84486" lon="6.43716">
        <ele>2045</ele>
        <time>2018-10-17T07:53:25Z</time>
      </trkpt>
      <trkpt lat="45.84487" lon="6.43719">
        <ele>2046</ele>
        <time>2018-10-17T07:53:26Z</time>
      </trkpt>
      <trkpt lat="45.84487" lon="6.43719">
        <ele>2046</ele>
        <time>2018-10-17T07:53:27Z</time>
      </trkpt>
      <trkpt lat="45.84488" lon="6.43722">
        <ele>2046</ele>
        <time>2018-10-17T07:53:28Z</time>
      </trkpt>
      <trkpt lat="45.84488" lon="6.43722">
        <ele>2046</ele>
        <time>2018-10-17T07:53:29Z</time>
      </trkpt>
      <trkpt lat="45.8449" lon="6.43724">
        <ele>2046</ele>
        <time>2018-10-17T07:53:30Z</time>
      </trkpt>
      <trkpt lat="45.8449" lon="6.43724">
        <ele>2046</ele>
        <time>2018-10-17T07:53:31Z</time>
      </trkpt>
      <trkpt lat="45.8449" lon="6.43728">
        <ele>2046</ele>
        <time>2018-10-17T07:53:32Z</time>
      </trkpt>
      <trkpt lat="45.8449" lon="6.43728">
        <ele>2045</ele>
        <time>2018-10-17T07:53:33Z</time>
      </trkpt>
      <trkpt lat="45.84492" lon="6.43731">
        <ele>2045</ele>
        <time>2018-10-17T07:53:34Z</time>
      </trkpt>
      <trkpt lat="45.84492" lon="6.43731">
        <ele>2046</ele>
        <time>2018-10-17T07:53:35Z</time>
      </trkpt>
      <trkpt lat="45.84494" lon="6.43732">
        <ele>2046</ele>
        <time>2018-10-17T07:53:36Z</time>
      </trkpt>
      <trkpt lat="45.84494" lon="6.43732">
        <ele>2046</ele>
        <time>2018-10-17T07:53:37Z</time>
      </trkpt>
      <trkpt lat="45.84497" lon="6.43733">
        <ele>2046</ele>
        <time>2018-10-17T07:53:38Z</time>
      </trkpt>
      <trkpt lat="45.84497" lon="6.43733">
        <ele>2045</ele>
        <time>2018-10-17T07:53:39Z</time>
      </trkpt>
      <trkpt lat="45.84499" lon="6.43734">
        <ele>2045</ele>
        <time>2018-10-17T07:53:40Z</time>
      </trkpt>
      <trkpt lat="45.84499" lon="6.43734">
        <ele>2045</ele>
        <time>2018-10-17T07:53:41Z</time>
      </trkpt>
      <trkpt lat="45.84501" lon="6.43735">
        <ele>2045</ele>
        <time>2018-10-17T07:53:42Z</time>
      </trkpt>
      <trkpt lat="45.84501" lon="6.43735">
        <ele>2045</ele>
        <time>2018-10-17T07:53:43Z</time>
      </trkpt>
      <trkpt lat="45.84504" lon="6.43735">
        <ele>2044</ele>
        <time>2018-10-17T07:53:44Z</time>
      </trkpt>
      <trkpt lat="45.84504" lon="6.43735">
        <ele>2044</ele>
        <time>2018-10-17T07:53:45Z</time>
      </trkpt>
      <trkpt lat="45.84506" lon="6.43735">
        <ele>2044</ele>
        <time>2018-10-17T07:53:46Z</time>
      </trkpt>
      <trkpt lat="45.84506" lon="6.43735">
        <ele>2044</ele>
        <time>2018-10-17T07:53:47Z</time>
      </trkpt>
      <trkpt lat="45.84508" lon="6.43738">
        <ele>2044</ele>
        <time>2018-10-17T07:53:48Z</time>
      </trkpt>
      <trkpt lat="45.84508" lon="6.43738">
        <ele>2044</ele>
        <time>2018-10-17T07:53:49Z</time>
      </trkpt>
      <trkpt lat="45.8451" lon="6.4374">
        <ele>2044</ele>
        <time>2018-10-17T07:53:50Z</time>
      </trkpt>
      <trkpt lat="45.8451" lon="6.4374">
        <ele>2044</ele>
        <time>2018-10-17T07:53:51Z</time>
      </trkpt>
      <trkpt lat="45.84511" lon="6.43743">
        <ele>2044</ele>
        <time>2018-10-17T07:53:52Z</time>
      </trkpt>
      <trkpt lat="45.84511" lon="6.43743">
        <ele>2044</ele>
        <time>2018-10-17T07:53:53Z</time>
      </trkpt>
      <trkpt lat="45.84513" lon="6.43745">
        <ele>2044</ele>
        <time>2018-10-17T07:53:54Z</time>
      </trkpt>
      <trkpt lat="45.84513" lon="6.43745">
        <ele>2044</ele>
        <time>2018-10-17T07:53:55Z</time>
      </trkpt>
      <trkpt lat="45.84514" lon="6.43748">
        <ele>2044</ele>
        <time>2018-10-17T07:53:56Z</time>
      </trkpt>
      <trkpt lat="45.84514" lon="6.43748">
        <ele>2044</ele>
        <time>2018-10-17T07:53:57Z</time>
      </trkpt>
      <trkpt lat="45.84514" lon="6.43751">
        <ele>2044</ele>
        <time>2018-10-17T07:53:58Z</time>
      </trkpt>
      <trkpt lat="45.84514" lon="6.43751">
        <ele>2045</ele>
        <time>2018-10-17T07:53:59Z</time>
      </trkpt>
      <trkpt lat="45.84514" lon="6.43751">
        <ele>2045</ele>
        <time>2018-10-17T07:54:00Z</time>
      </trkpt>
      <trkpt lat="45.84515" lon="6.43755">
        <ele>2045</ele>
        <time>2018-10-17T07:54:01Z</time>
      </trkpt>
      <trkpt lat="45.84515" lon="6.43755">
        <ele>2045</ele>
        <time>2018-10-17T07:54:02Z</time>
      </trkpt>
      <trkpt lat="45.84515" lon="6.43755">
        <ele>2046</ele>
        <time>2018-10-17T07:54:03Z</time>
      </trkpt>
      <trkpt lat="45.84516" lon="6.43758">
        <ele>2046</ele>
        <time>2018-10-17T07:54:04Z</time>
      </trkpt>
      <trkpt lat="45.84516" lon="6.43758">
        <ele>2046</ele>
        <time>2018-10-17T07:54:05Z</time>
      </trkpt>
      <trkpt lat="45.84516" lon="6.43758">
        <ele>2047</ele>
        <time>2018-10-17T07:54:06Z</time>
      </trkpt>
      <trkpt lat="45.84518" lon="6.43761">
        <ele>2047</ele>
        <time>2018-10-17T07:54:07Z</time>
      </trkpt>
      <trkpt lat="45.84518" lon="6.43761">
        <ele>2047</ele>
        <time>2018-10-17T07:54:08Z</time>
      </trkpt>
      <trkpt lat="45.84518" lon="6.43761">
        <ele>2047</ele>
        <time>2018-10-17T07:54:09Z</time>
      </trkpt>
      <trkpt lat="45.8452" lon="6.43763">
        <ele>2047</ele>
        <time>2018-10-17T07:54:10Z</time>
      </trkpt>
      <trkpt lat="45.8452" lon="6.43763">
        <ele>2048</ele>
        <time>2018-10-17T07:54:11Z</time>
      </trkpt>
      <trkpt lat="45.84521" lon="6.43766">
        <ele>2048</ele>
        <time>2018-10-17T07:54:12Z</time>
      </trkpt>
      <trkpt lat="45.84521" lon="6.43766">
        <ele>2048</ele>
        <time>2018-10-17T07:54:13Z</time>
      </trkpt>
      <trkpt lat="45.84521" lon="6.43769">
        <ele>2048</ele>
        <time>2018-10-17T07:54:14Z</time>
      </trkpt>
      <trkpt lat="45.84521" lon="6.43769">
        <ele>2048</ele>
        <time>2018-10-17T07:54:15Z</time>
      </trkpt>
      <trkpt lat="45.84522" lon="6.43772">
        <ele>2048</ele>
        <time>2018-10-17T07:54:16Z</time>
      </trkpt>
      <trkpt lat="45.84522" lon="6.43772">
        <ele>2048</ele>
        <time>2018-10-17T07:54:17Z</time>
      </trkpt>
      <trkpt lat="45.84523" lon="6.43775">
        <ele>2048</ele>
        <time>2018-10-17T07:54:18Z</time>
      </trkpt>
      <trkpt lat="45.84523" lon="6.43775">
        <ele>2048</ele>
        <time>2018-10-17T07:54:19Z</time>
      </trkpt>
      <trkpt lat="45.84524" lon="6.43777">
        <ele>2048</ele>
        <time>2018-10-17T07:54:20Z</time>
      </trkpt>
      <trkpt lat="45.84524" lon="6.43777">
        <ele>2049</ele>
        <time>2018-10-17T07:54:21Z</time>
      </trkpt>
      <trkpt lat="45.84525" lon="6.43779">
        <ele>2049</ele>
        <time>2018-10-17T07:54:22Z</time>
      </trkpt>
      <trkpt lat="45.84525" lon="6.43779">
        <ele>2049</ele>
        <time>2018-10-17T07:54:23Z</time>
      </trkpt>
      <trkpt lat="45.84527" lon="6.43781">
        <ele>2049</ele>
        <time>2018-10-17T07:54:24Z</time>
      </trkpt>
      <trkpt lat="45.84527" lon="6.43781">
        <ele>2049</ele>
        <time>2018-10-17T07:54:25Z</time>
      </trkpt>
      <trkpt lat="45.84528" lon="6.43783">
        <ele>2049</ele>
        <time>2018-10-17T07:54:26Z</time>
      </trkpt>
      <trkpt lat="45.84528" lon="6.43783">
        <ele>2049</ele>
        <time>2018-10-17T07:54:27Z</time>
      </trkpt>
      <trkpt lat="45.8453" lon="6.43786">
        <ele>2049</ele>
        <time>2018-10-17T07:54:28Z</time>
      </trkpt>
      <trkpt lat="45.8453" lon="6.43786">
        <ele>2049</ele>
        <time>2018-10-17T07:54:29Z</time>
      </trkpt>
      <trkpt lat="45.84531" lon="6.43788">
        <ele>2049</ele>
        <time>2018-10-17T07:54:30Z</time>
      </trkpt>
      <trkpt lat="45.84531" lon="6.43788">
        <ele>2049</ele>
        <time>2018-10-17T07:54:31Z</time>
      </trkpt>
      <trkpt lat="45.84532" lon="6.43791">
        <ele>2049</ele>
        <time>2018-10-17T07:54:32Z</time>
      </trkpt>
      <trkpt lat="45.84532" lon="6.43791">
        <ele>2048</ele>
        <time>2018-10-17T07:54:33Z</time>
      </trkpt>
      <trkpt lat="45.84534" lon="6.43793">
        <ele>2048</ele>
        <time>2018-10-17T07:54:34Z</time>
      </trkpt>
      <trkpt lat="45.84534" lon="6.43793">
        <ele>2048</ele>
        <time>2018-10-17T07:54:35Z</time>
      </trkpt>
      <trkpt lat="45.84537" lon="6.43795">
        <ele>2048</ele>
        <time>2018-10-17T07:54:36Z</time>
      </trkpt>
      <trkpt lat="45.84537" lon="6.43795">
        <ele>2047</ele>
        <time>2018-10-17T07:54:37Z</time>
      </trkpt>
      <trkpt lat="45.84538" lon="6.43798">
        <ele>2047</ele>
        <time>2018-10-17T07:54:38Z</time>
      </trkpt>
      <trkpt lat="45.84538" lon="6.43798">
        <ele>2047</ele>
        <time>2018-10-17T07:54:39Z</time>
      </trkpt>
      <trkpt lat="45.84539" lon="6.43802">
        <ele>2047</ele>
        <time>2018-10-17T07:54:40Z</time>
      </trkpt>
      <trkpt lat="45.84539" lon="6.43802">
        <ele>2047</ele>
        <time>2018-10-17T07:54:41Z</time>
      </trkpt>
      <trkpt lat="45.8454" lon="6.43806">
        <ele>2047</ele>
        <time>2018-10-17T07:54:42Z</time>
      </trkpt>
      <trkpt lat="45.8454" lon="6.43806">
        <ele>2048</ele>
        <time>2018-10-17T07:54:43Z</time>
      </trkpt>
      <trkpt lat="45.84539" lon="6.43809">
        <ele>2048</ele>
        <time>2018-10-17T07:54:44Z</time>
      </trkpt>
      <trkpt lat="45.84539" lon="6.43809">
        <ele>2048</ele>
        <time>2018-10-17T07:54:45Z</time>
      </trkpt>
      <trkpt lat="45.84538" lon="6.43812">
        <ele>2048</ele>
        <time>2018-10-17T07:54:46Z</time>
      </trkpt>
      <trkpt lat="45.84538" lon="6.43812">
        <ele>2048</ele>
        <time>2018-10-17T07:54:47Z</time>
      </trkpt>
      <trkpt lat="45.84539" lon="6.43815">
        <ele>2048</ele>
        <time>2018-10-17T07:54:48Z</time>
      </trkpt>
      <trkpt lat="45.84539" lon="6.43815">
        <ele>2048</ele>
        <time>2018-10-17T07:54:49Z</time>
      </trkpt>
      <trkpt lat="45.84541" lon="6.43817">
        <ele>2048</ele>
        <time>2018-10-17T07:54:50Z</time>
      </trkpt>
      <trkpt lat="45.84541" lon="6.43817">
        <ele>2048</ele>
        <time>2018-10-17T07:54:51Z</time>
      </trkpt>
      <trkpt lat="45.84543" lon="6.4382">
        <ele>2048</ele>
        <time>2018-10-17T07:54:52Z</time>
      </trkpt>
      <trkpt lat="45.84543" lon="6.4382">
        <ele>2048</ele>
        <time>2018-10-17T07:54:53Z</time>
      </trkpt>
      <trkpt lat="45.84544" lon="6.43822">
        <ele>2047</ele>
        <time>2018-10-17T07:54:54Z</time>
      </trkpt>
      <trkpt lat="45.84544" lon="6.43822">
        <ele>2047</ele>
        <time>2018-10-17T07:54:55Z</time>
      </trkpt>
      <trkpt lat="45.84547" lon="6.43823">
        <ele>2047</ele>
        <time>2018-10-17T07:54:56Z</time>
      </trkpt>
      <trkpt lat="45.84547" lon="6.43823">
        <ele>2047</ele>
        <time>2018-10-17T07:54:57Z</time>
      </trkpt>
      <trkpt lat="45.84549" lon="6.43824">
        <ele>2047</ele>
        <time>2018-10-17T07:54:58Z</time>
      </trkpt>
      <trkpt lat="45.84549" lon="6.43824">
        <ele>2047</ele>
        <time>2018-10-17T07:54:59Z</time>
      </trkpt>
      <trkpt lat="45.84551" lon="6.43825">
        <ele>2048</ele>
        <time>2018-10-17T07:55:00Z</time>
      </trkpt>
      <trkpt lat="45.84551" lon="6.43825">
        <ele>2048</ele>
        <time>2018-10-17T07:55:01Z</time>
      </trkpt>
      <trkpt lat="45.84553" lon="6.43827">
        <ele>2048</ele>
        <time>2018-10-17T07:55:02Z</time>
      </trkpt>
      <trkpt lat="45.84553" lon="6.43827">
        <ele>2047</ele>
        <time>2018-10-17T07:55:03Z</time>
      </trkpt>
      <trkpt lat="45.84553" lon="6.43827">
        <ele>2048</ele>
        <time>2018-10-17T07:55:04Z</time>
      </trkpt>
      <trkpt lat="45.84556" lon="6.43828">
        <ele>2048</ele>
        <time>2018-10-17T07:55:05Z</time>
      </trkpt>
      <trkpt lat="45.84556" lon="6.43828">
        <ele>2048</ele>
        <time>2018-10-17T07:55:06Z</time>
      </trkpt>
      <trkpt lat="45.84556" lon="6.43828">
        <ele>2050</ele>
        <time>2018-10-17T07:55:07Z</time>
      </trkpt>
      <trkpt lat="45.84558" lon="6.43829">
        <ele>2050</ele>
        <time>2018-10-17T07:55:08Z</time>
      </trkpt>
      <trkpt lat="45.84558" lon="6.43829">
        <ele>2050</ele>
        <time>2018-10-17T07:55:09Z</time>
      </trkpt>
      <trkpt lat="45.84558" lon="6.43829">
        <ele>2050</ele>
        <time>2018-10-17T07:55:10Z</time>
      </trkpt>
      <trkpt lat="45.8456" lon="6.43828">
        <ele>2050</ele>
        <time>2018-10-17T07:55:11Z</time>
      </trkpt>
      <trkpt lat="45.8456" lon="6.43828">
        <ele>2051</ele>
        <time>2018-10-17T07:55:12Z</time>
      </trkpt>
      <trkpt lat="45.84562" lon="6.43827">
        <ele>2051</ele>
        <time>2018-10-17T07:55:13Z</time>
      </trkpt>
      <trkpt lat="45.84562" lon="6.43827">
        <ele>2051</ele>
        <time>2018-10-17T07:55:14Z</time>
      </trkpt>
      <trkpt lat="45.84564" lon="6.43826">
        <ele>2051</ele>
        <time>2018-10-17T07:55:15Z</time>
      </trkpt>
      <trkpt lat="45.84564" lon="6.43826">
        <ele>2051</ele>
        <time>2018-10-17T07:55:16Z</time>
      </trkpt>
      <trkpt lat="45.84564" lon="6.43826">
        <ele>2051</ele>
        <time>2018-10-17T07:55:17Z</time>
      </trkpt>
      <trkpt lat="45.84564" lon="6.43826">
        <ele>2052</ele>
        <time>2018-10-17T07:55:18Z</time>
      </trkpt>
      <trkpt lat="45.84566" lon="6.43828">
        <ele>2052</ele>
        <time>2018-10-17T07:55:19Z</time>
      </trkpt>
      <trkpt lat="45.84566" lon="6.43828">
        <ele>2053</ele>
        <time>2018-10-17T07:55:20Z</time>
      </trkpt>
      <trkpt lat="45.84566" lon="6.43828">
        <ele>2053</ele>
        <time>2018-10-17T07:55:21Z</time>
      </trkpt>
      <trkpt lat="45.84569" lon="6.43829">
        <ele>2053</ele>
        <time>2018-10-17T07:55:22Z</time>
      </trkpt>
      <trkpt lat="45.84569" lon="6.43829">
        <ele>2053</ele>
        <time>2018-10-17T07:55:23Z</time>
      </trkpt>
      <trkpt lat="45.84569" lon="6.43829">
        <ele>2053</ele>
        <time>2018-10-17T07:55:24Z</time>
      </trkpt>
      <trkpt lat="45.84571" lon="6.4383">
        <ele>2053</ele>
        <time>2018-10-17T07:55:25Z</time>
      </trkpt>
      <trkpt lat="45.84571" lon="6.4383">
        <ele>2053</ele>
        <time>2018-10-17T07:55:26Z</time>
      </trkpt>
      <trkpt lat="45.84571" lon="6.4383">
        <ele>2054</ele>
        <time>2018-10-17T07:55:27Z</time>
      </trkpt>
      <trkpt lat="45.84573" lon="6.43831">
        <ele>2054</ele>
        <time>2018-10-17T07:55:28Z</time>
      </trkpt>
      <trkpt lat="45.84573" lon="6.43831">
        <ele>2054</ele>
        <time>2018-10-17T07:55:29Z</time>
      </trkpt>
      <trkpt lat="45.84573" lon="6.43831">
        <ele>2055</ele>
        <time>2018-10-17T07:55:30Z</time>
      </trkpt>
      <trkpt lat="45.84574" lon="6.43834">
        <ele>2055</ele>
        <time>2018-10-17T07:55:31Z</time>
      </trkpt>
      <trkpt lat="45.84574" lon="6.43834">
        <ele>2055</ele>
        <time>2018-10-17T07:55:32Z</time>
      </trkpt>
      <trkpt lat="45.84574" lon="6.43834">
        <ele>2055</ele>
        <time>2018-10-17T07:55:33Z</time>
      </trkpt>
      <trkpt lat="45.84574" lon="6.43837">
        <ele>2055</ele>
        <time>2018-10-17T07:55:34Z</time>
      </trkpt>
      <trkpt lat="45.84574" lon="6.43837">
        <ele>2055</ele>
        <time>2018-10-17T07:55:35Z</time>
      </trkpt>
      <trkpt lat="45.84574" lon="6.43837">
        <ele>2055</ele>
        <time>2018-10-17T07:55:36Z</time>
      </trkpt>
      <trkpt lat="45.84575" lon="6.4384">
        <ele>2055</ele>
        <time>2018-10-17T07:55:37Z</time>
      </trkpt>
      <trkpt lat="45.84575" lon="6.4384">
        <ele>2055</ele>
        <time>2018-10-17T07:55:38Z</time>
      </trkpt>
      <trkpt lat="45.84576" lon="6.43843">
        <ele>2055</ele>
        <time>2018-10-17T07:55:39Z</time>
      </trkpt>
      <trkpt lat="45.84576" lon="6.43843">
        <ele>2055</ele>
        <time>2018-10-17T07:55:40Z</time>
      </trkpt>
      <trkpt lat="45.84576" lon="6.43843">
        <ele>2055</ele>
        <time>2018-10-17T07:55:41Z</time>
      </trkpt>
      <trkpt lat="45.84578" lon="6.43846">
        <ele>2055</ele>
        <time>2018-10-17T07:55:42Z</time>
      </trkpt>
      <trkpt lat="45.84578" lon="6.43846">
        <ele>2055</ele>
        <time>2018-10-17T07:55:43Z</time>
      </trkpt>
      <trkpt lat="45.84578" lon="6.43846">
        <ele>2055</ele>
        <time>2018-10-17T07:55:44Z</time>
      </trkpt>
      <trkpt lat="45.8458" lon="6.43849">
        <ele>2055</ele>
        <time>2018-10-17T07:55:45Z</time>
      </trkpt>
      <trkpt lat="45.8458" lon="6.43849">
        <ele>2055</ele>
        <time>2018-10-17T07:55:46Z</time>
      </trkpt>
      <trkpt lat="45.84581" lon="6.43851">
        <ele>2056</ele>
        <time>2018-10-17T07:55:47Z</time>
      </trkpt>
      <trkpt lat="45.84581" lon="6.43851">
        <ele>2056</ele>
        <time>2018-10-17T07:55:48Z</time>
      </trkpt>
      <trkpt lat="45.84582" lon="6.43853">
        <ele>2056</ele>
        <time>2018-10-17T07:55:49Z</time>
      </trkpt>
      <trkpt lat="45.84582" lon="6.43853">
        <ele>2056</ele>
        <time>2018-10-17T07:55:50Z</time>
      </trkpt>
      <trkpt lat="45.84584" lon="6.43855">
        <ele>2056</ele>
        <time>2018-10-17T07:55:51Z</time>
      </trkpt>
      <trkpt lat="45.84584" lon="6.43855">
        <ele>2056</ele>
        <time>2018-10-17T07:55:52Z</time>
      </trkpt>
      <trkpt lat="45.84585" lon="6.43858">
        <ele>2056</ele>
        <time>2018-10-17T07:55:53Z</time>
      </trkpt>
      <trkpt lat="45.84585" lon="6.43858">
        <ele>2056</ele>
        <time>2018-10-17T07:55:54Z</time>
      </trkpt>
      <trkpt lat="45.84585" lon="6.43858">
        <ele>2056</ele>
        <time>2018-10-17T07:55:55Z</time>
      </trkpt>
      <trkpt lat="45.84587" lon="6.4386">
        <ele>2056</ele>
        <time>2018-10-17T07:55:56Z</time>
      </trkpt>
      <trkpt lat="45.84587" lon="6.4386">
        <ele>2056</ele>
        <time>2018-10-17T07:55:57Z</time>
      </trkpt>
      <trkpt lat="45.84587" lon="6.4386">
        <ele>2056</ele>
        <time>2018-10-17T07:55:58Z</time>
      </trkpt>
      <trkpt lat="45.84587" lon="6.4386">
        <ele>2056</ele>
        <time>2018-10-17T07:55:59Z</time>
      </trkpt>
      <trkpt lat="45.8459" lon="6.43861">
        <ele>2056</ele>
        <time>2018-10-17T07:56:00Z</time>
      </trkpt>
      <trkpt lat="45.8459" lon="6.43861">
        <ele>2056</ele>
        <time>2018-10-17T07:56:01Z</time>
      </trkpt>
      <trkpt lat="45.84592" lon="6.43863">
        <ele>2056</ele>
        <time>2018-10-17T07:56:02Z</time>
      </trkpt>
      <trkpt lat="45.84592" lon="6.43863">
        <ele>2056</ele>
        <time>2018-10-17T07:56:03Z</time>
      </trkpt>
      <trkpt lat="45.84593" lon="6.43866">
        <ele>2056</ele>
        <time>2018-10-17T07:56:04Z</time>
      </trkpt>
      <trkpt lat="45.84593" lon="6.43866">
        <ele>2056</ele>
        <time>2018-10-17T07:56:05Z</time>
      </trkpt>
      <trkpt lat="45.84594" lon="6.43868">
        <ele>2056</ele>
        <time>2018-10-17T07:56:06Z</time>
      </trkpt>
      <trkpt lat="45.84594" lon="6.43868">
        <ele>2056</ele>
        <time>2018-10-17T07:56:07Z</time>
      </trkpt>
      <trkpt lat="45.84594" lon="6.43868">
        <ele>2057</ele>
        <time>2018-10-17T07:56:08Z</time>
      </trkpt>
      <trkpt lat="45.84596" lon="6.43871">
        <ele>2057</ele>
        <time>2018-10-17T07:56:09Z</time>
      </trkpt>
      <trkpt lat="45.84596" lon="6.43871">
        <ele>2057</ele>
        <time>2018-10-17T07:56:10Z</time>
      </trkpt>
      <trkpt lat="45.84597" lon="6.43873">
        <ele>2057</ele>
        <time>2018-10-17T07:56:11Z</time>
      </trkpt>
      <trkpt lat="45.84597" lon="6.43873">
        <ele>2057</ele>
        <time>2018-10-17T07:56:12Z</time>
      </trkpt>
      <trkpt lat="45.84597" lon="6.43873">
        <ele>2057</ele>
        <time>2018-10-17T07:56:13Z</time>
      </trkpt>
      <trkpt lat="45.84598" lon="6.43877">
        <ele>2058</ele>
        <time>2018-10-17T07:56:14Z</time>
      </trkpt>
      <trkpt lat="45.84598" lon="6.43877">
        <ele>2058</ele>
        <time>2018-10-17T07:56:15Z</time>
      </trkpt>
      <trkpt lat="45.84598" lon="6.43877">
        <ele>2058</ele>
        <time>2018-10-17T07:56:16Z</time>
      </trkpt>
      <trkpt lat="45.84598" lon="6.4388">
        <ele>2058</ele>
        <time>2018-10-17T07:56:17Z</time>
      </trkpt>
      <trkpt lat="45.84598" lon="6.4388">
        <ele>2058</ele>
        <time>2018-10-17T07:56:18Z</time>
      </trkpt>
      <trkpt lat="45.84598" lon="6.4388">
        <ele>2059</ele>
        <time>2018-10-17T07:56:19Z</time>
      </trkpt>
      <trkpt lat="45.84598" lon="6.43884">
        <ele>2059</ele>
        <time>2018-10-17T07:56:20Z</time>
      </trkpt>
      <trkpt lat="45.84598" lon="6.43884">
        <ele>2059</ele>
        <time>2018-10-17T07:56:21Z</time>
      </trkpt>
      <trkpt lat="45.846" lon="6.43886">
        <ele>2059</ele>
        <time>2018-10-17T07:56:22Z</time>
      </trkpt>
      <trkpt lat="45.846" lon="6.43886">
        <ele>2059</ele>
        <time>2018-10-17T07:56:23Z</time>
      </trkpt>
      <trkpt lat="45.846" lon="6.43886">
        <ele>2060</ele>
        <time>2018-10-17T07:56:24Z</time>
      </trkpt>
      <trkpt lat="45.84601" lon="6.43889">
        <ele>2061</ele>
        <time>2018-10-17T07:56:25Z</time>
      </trkpt>
      <trkpt lat="45.84601" lon="6.43889">
        <ele>2061</ele>
        <time>2018-10-17T07:56:26Z</time>
      </trkpt>
      <trkpt lat="45.84602" lon="6.43891">
        <ele>2061</ele>
        <time>2018-10-17T07:56:27Z</time>
      </trkpt>
      <trkpt lat="45.84602" lon="6.43891">
        <ele>2061</ele>
        <time>2018-10-17T07:56:28Z</time>
      </trkpt>
      <trkpt lat="45.84602" lon="6.43891">
        <ele>2061</ele>
        <time>2018-10-17T07:56:29Z</time>
      </trkpt>
      <trkpt lat="45.84604" lon="6.43895">
        <ele>2061</ele>
        <time>2018-10-17T07:56:30Z</time>
      </trkpt>
      <trkpt lat="45.84604" lon="6.43895">
        <ele>2061</ele>
        <time>2018-10-17T07:56:31Z</time>
      </trkpt>
      <trkpt lat="45.84604" lon="6.43895">
        <ele>2062</ele>
        <time>2018-10-17T07:56:32Z</time>
      </trkpt>
      <trkpt lat="45.84605" lon="6.43897">
        <ele>2062</ele>
        <time>2018-10-17T07:56:33Z</time>
      </trkpt>
      <trkpt lat="45.84605" lon="6.43897">
        <ele>2062</ele>
        <time>2018-10-17T07:56:34Z</time>
      </trkpt>
      <trkpt lat="45.84605" lon="6.43897">
        <ele>2062</ele>
        <time>2018-10-17T07:56:35Z</time>
      </trkpt>
      <trkpt lat="45.84606" lon="6.439">
        <ele>2063</ele>
        <time>2018-10-17T07:56:36Z</time>
      </trkpt>
      <trkpt lat="45.84606" lon="6.439">
        <ele>2063</ele>
        <time>2018-10-17T07:56:37Z</time>
      </trkpt>
      <trkpt lat="45.84606" lon="6.439">
        <ele>2063</ele>
        <time>2018-10-17T07:56:38Z</time>
      </trkpt>
      <trkpt lat="45.84607" lon="6.43903">
        <ele>2063</ele>
        <time>2018-10-17T07:56:39Z</time>
      </trkpt>
      <trkpt lat="45.84607" lon="6.43903">
        <ele>2063</ele>
        <time>2018-10-17T07:56:40Z</time>
      </trkpt>
      <trkpt lat="45.84607" lon="6.43903">
        <ele>2063</ele>
        <time>2018-10-17T07:56:41Z</time>
      </trkpt>
      <trkpt lat="45.84609" lon="6.43905">
        <ele>2064</ele>
        <time>2018-10-17T07:56:42Z</time>
      </trkpt>
      <trkpt lat="45.84609" lon="6.43905">
        <ele>2065</ele>
        <time>2018-10-17T07:56:43Z</time>
      </trkpt>
      <trkpt lat="45.84609" lon="6.43905">
        <ele>2065</ele>
        <time>2018-10-17T07:56:44Z</time>
      </trkpt>
      <trkpt lat="45.84609" lon="6.43908">
        <ele>2065</ele>
        <time>2018-10-17T07:56:45Z</time>
      </trkpt>
      <trkpt lat="45.84609" lon="6.43908">
        <ele>2065</ele>
        <time>2018-10-17T07:56:46Z</time>
      </trkpt>
      <trkpt lat="45.84609" lon="6.43908">
        <ele>2065</ele>
        <time>2018-10-17T07:56:47Z</time>
      </trkpt>
      <trkpt lat="45.84609" lon="6.43908">
        <ele>2065</ele>
        <time>2018-10-17T07:56:48Z</time>
      </trkpt>
      <trkpt lat="45.84608" lon="6.43911">
        <ele>2065</ele>
        <time>2018-10-17T07:56:49Z</time>
      </trkpt>
      <trkpt lat="45.84608" lon="6.43911">
        <ele>2065</ele>
        <time>2018-10-17T07:56:50Z</time>
      </trkpt>
      <trkpt lat="45.84608" lon="6.43911">
        <ele>2065</ele>
        <time>2018-10-17T07:56:51Z</time>
      </trkpt>
      <trkpt lat="45.84609" lon="6.43913">
        <ele>2065</ele>
        <time>2018-10-17T07:56:52Z</time>
      </trkpt>
      <trkpt lat="45.84609" lon="6.43913">
        <ele>2065</ele>
        <time>2018-10-17T07:56:53Z</time>
      </trkpt>
      <trkpt lat="45.84609" lon="6.43913">
        <ele>2065</ele>
        <time>2018-10-17T07:56:54Z</time>
      </trkpt>
      <trkpt lat="45.8461" lon="6.43916">
        <ele>2066</ele>
        <time>2018-10-17T07:56:55Z</time>
      </trkpt>
      <trkpt lat="45.8461" lon="6.43916">
        <ele>2066</ele>
        <time>2018-10-17T07:56:56Z</time>
      </trkpt>
      <trkpt lat="45.8461" lon="6.43916">
        <ele>2066</ele>
        <time>2018-10-17T07:56:57Z</time>
      </trkpt>
      <trkpt lat="45.8461" lon="6.43916">
        <ele>2066</ele>
        <time>2018-10-17T07:56:58Z</time>
      </trkpt>
      <trkpt lat="45.84611" lon="6.43919">
        <ele>2067</ele>
        <time>2018-10-17T07:56:59Z</time>
      </trkpt>
      <trkpt lat="45.84611" lon="6.43919">
        <ele>2067</ele>
        <time>2018-10-17T07:57:00Z</time>
      </trkpt>
      <trkpt lat="45.84611" lon="6.43919">
        <ele>2067</ele>
        <time>2018-10-17T07:57:01Z</time>
      </trkpt>
      <trkpt lat="45.84611" lon="6.43919">
        <ele>2067</ele>
        <time>2018-10-17T07:57:02Z</time>
      </trkpt>
      <trkpt lat="45.84613" lon="6.43921">
        <ele>2067</ele>
        <time>2018-10-17T07:57:03Z</time>
      </trkpt>
      <trkpt lat="45.84613" lon="6.43921">
        <ele>2068</ele>
        <time>2018-10-17T07:57:04Z</time>
      </trkpt>
      <trkpt lat="45.84613" lon="6.43921">
        <ele>2068</ele>
        <time>2018-10-17T07:57:05Z</time>
      </trkpt>
      <trkpt lat="45.84613" lon="6.43921">
        <ele>2068</ele>
        <time>2018-10-17T07:57:06Z</time>
      </trkpt>
      <trkpt lat="45.84613" lon="6.43921">
        <ele>2068</ele>
        <time>2018-10-17T07:57:07Z</time>
      </trkpt>
      <trkpt lat="45.84613" lon="6.43921">
        <ele>2068</ele>
        <time>2018-10-17T07:57:08Z</time>
      </trkpt>
      <trkpt lat="45.84613" lon="6.43921">
        <ele>2068</ele>
        <time>2018-10-17T07:57:09Z</time>
      </trkpt>
      <trkpt lat="45.84613" lon="6.43923">
        <ele>2069</ele>
        <time>2018-10-17T07:57:10Z</time>
      </trkpt>
      <trkpt lat="45.84613" lon="6.43923">
        <ele>2069</ele>
        <time>2018-10-17T07:57:11Z</time>
      </trkpt>
      <trkpt lat="45.84613" lon="6.43923">
        <ele>2070</ele>
        <time>2018-10-17T07:57:12Z</time>
      </trkpt>
      <trkpt lat="45.84613" lon="6.43923">
        <ele>2070</ele>
        <time>2018-10-17T07:57:13Z</time>
      </trkpt>
      <trkpt lat="45.84613" lon="6.43923">
        <ele>2070</ele>
        <time>2018-10-17T07:57:14Z</time>
      </trkpt>
      <trkpt lat="45.84613" lon="6.43923">
        <ele>2070</ele>
        <time>2018-10-17T07:57:15Z</time>
      </trkpt>
      <trkpt lat="45.84613" lon="6.43923">
        <ele>2070</ele>
        <time>2018-10-17T07:57:16Z</time>
      </trkpt>
      <trkpt lat="45.84613" lon="6.43923">
        <ele>2071</ele>
        <time>2018-10-17T07:57:17Z</time>
      </trkpt>
      <trkpt lat="45.84615" lon="6.43925">
        <ele>2071</ele>
        <time>2018-10-17T07:57:18Z</time>
      </trkpt>
      <trkpt lat="45.84615" lon="6.43925">
        <ele>2071</ele>
        <time>2018-10-17T07:57:19Z</time>
      </trkpt>
      <trkpt lat="45.84615" lon="6.43925">
        <ele>2071</ele>
        <time>2018-10-17T07:57:20Z</time>
      </trkpt>
      <trkpt lat="45.84615" lon="6.43925">
        <ele>2071</ele>
        <time>2018-10-17T07:57:21Z</time>
      </trkpt>
      <trkpt lat="45.84615" lon="6.43925">
        <ele>2072</ele>
        <time>2018-10-17T07:57:22Z</time>
      </trkpt>
      <trkpt lat="45.84617" lon="6.43925">
        <ele>2072</ele>
        <time>2018-10-17T07:57:23Z</time>
      </trkpt>
      <trkpt lat="45.84617" lon="6.43925">
        <ele>2072</ele>
        <time>2018-10-17T07:57:24Z</time>
      </trkpt>
      <trkpt lat="45.84617" lon="6.43925">
        <ele>2072</ele>
        <time>2018-10-17T07:57:25Z</time>
      </trkpt>
      <trkpt lat="45.84617" lon="6.43925">
        <ele>2072</ele>
        <time>2018-10-17T07:57:26Z</time>
      </trkpt>
      <trkpt lat="45.84619" lon="6.43925">
        <ele>2072</ele>
        <time>2018-10-17T07:57:27Z</time>
      </trkpt>
      <trkpt lat="45.84619" lon="6.43925">
        <ele>2072</ele>
        <time>2018-10-17T07:57:28Z</time>
      </trkpt>
      <trkpt lat="45.84619" lon="6.43925">
        <ele>2072</ele>
        <time>2018-10-17T07:57:29Z</time>
      </trkpt>
      <trkpt lat="45.84619" lon="6.43925">
        <ele>2072</ele>
        <time>2018-10-17T07:57:30Z</time>
      </trkpt>
      <trkpt lat="45.84619" lon="6.43925">
        <ele>2074</ele>
        <time>2018-10-17T07:57:31Z</time>
      </trkpt>
      <trkpt lat="45.8462" lon="6.43928">
        <ele>2074</ele>
        <time>2018-10-17T07:57:32Z</time>
      </trkpt>
      <trkpt lat="45.8462" lon="6.43928">
        <ele>2075</ele>
        <time>2018-10-17T07:57:33Z</time>
      </trkpt>
      <trkpt lat="45.8462" lon="6.43928">
        <ele>2075</ele>
        <time>2018-10-17T07:57:34Z</time>
      </trkpt>
      <trkpt lat="45.8462" lon="6.43928">
        <ele>2076</ele>
        <time>2018-10-17T07:57:35Z</time>
      </trkpt>
      <trkpt lat="45.8462" lon="6.43928">
        <ele>2076</ele>
        <time>2018-10-17T07:57:36Z</time>
      </trkpt>
      <trkpt lat="45.8462" lon="6.43931">
        <ele>2076</ele>
        <time>2018-10-17T07:57:37Z</time>
      </trkpt>
      <trkpt lat="45.8462" lon="6.43931">
        <ele>2076</ele>
        <time>2018-10-17T07:57:38Z</time>
      </trkpt>
      <trkpt lat="45.8462" lon="6.43931">
        <ele>2076</ele>
        <time>2018-10-17T07:57:39Z</time>
      </trkpt>
      <trkpt lat="45.8462" lon="6.43934">
        <ele>2077</ele>
        <time>2018-10-17T07:57:40Z</time>
      </trkpt>
      <trkpt lat="45.8462" lon="6.43934">
        <ele>2077</ele>
        <time>2018-10-17T07:57:41Z</time>
      </trkpt>
      <trkpt lat="45.84619" lon="6.43937">
        <ele>2077</ele>
        <time>2018-10-17T07:57:42Z</time>
      </trkpt>
      <trkpt lat="45.84619" lon="6.43937">
        <ele>2077</ele>
        <time>2018-10-17T07:57:43Z</time>
      </trkpt>
      <trkpt lat="45.84619" lon="6.4394">
        <ele>2077</ele>
        <time>2018-10-17T07:57:44Z</time>
      </trkpt>
      <trkpt lat="45.84619" lon="6.4394">
        <ele>2077</ele>
        <time>2018-10-17T07:57:45Z</time>
      </trkpt>
      <trkpt lat="45.8462" lon="6.43942">
        <ele>2077</ele>
        <time>2018-10-17T07:57:46Z</time>
      </trkpt>
      <trkpt lat="45.8462" lon="6.43942">
        <ele>2077</ele>
        <time>2018-10-17T07:57:47Z</time>
      </trkpt>
      <trkpt lat="45.84621" lon="6.43945">
        <ele>2077</ele>
        <time>2018-10-17T07:57:48Z</time>
      </trkpt>
      <trkpt lat="45.84621" lon="6.43945">
        <ele>2077</ele>
        <time>2018-10-17T07:57:49Z</time>
      </trkpt>
      <trkpt lat="45.84623" lon="6.43947">
        <ele>2077</ele>
        <time>2018-10-17T07:57:50Z</time>
      </trkpt>
      <trkpt lat="45.84623" lon="6.43947">
        <ele>2077</ele>
        <time>2018-10-17T07:57:51Z</time>
      </trkpt>
      <trkpt lat="45.84623" lon="6.43947">
        <ele>2077</ele>
        <time>2018-10-17T07:57:52Z</time>
      </trkpt>
      <trkpt lat="45.84623" lon="6.4395">
        <ele>2077</ele>
        <time>2018-10-17T07:57:53Z</time>
      </trkpt>
      <trkpt lat="45.84623" lon="6.4395">
        <ele>2077</ele>
        <time>2018-10-17T07:57:54Z</time>
      </trkpt>
      <trkpt lat="45.84623" lon="6.4395">
        <ele>2076</ele>
        <time>2018-10-17T07:57:55Z</time>
      </trkpt>
      <trkpt lat="45.84622" lon="6.43952">
        <ele>2076</ele>
        <time>2018-10-17T07:57:56Z</time>
      </trkpt>
      <trkpt lat="45.84622" lon="6.43952">
        <ele>2076</ele>
        <time>2018-10-17T07:57:57Z</time>
      </trkpt>
      <trkpt lat="45.84622" lon="6.43952">
        <ele>2076</ele>
        <time>2018-10-17T07:57:58Z</time>
      </trkpt>
      <trkpt lat="45.84622" lon="6.43952">
        <ele>2075</ele>
        <time>2018-10-17T07:57:59Z</time>
      </trkpt>
      <trkpt lat="45.84622" lon="6.43955">
        <ele>2075</ele>
        <time>2018-10-17T07:58:00Z</time>
      </trkpt>
      <trkpt lat="45.84622" lon="6.43955">
        <ele>2075</ele>
        <time>2018-10-17T07:58:01Z</time>
      </trkpt>
      <trkpt lat="45.84622" lon="6.43955">
        <ele>2075</ele>
        <time>2018-10-17T07:58:02Z</time>
      </trkpt>
      <trkpt lat="45.84624" lon="6.43958">
        <ele>2074</ele>
        <time>2018-10-17T07:58:03Z</time>
      </trkpt>
      <trkpt lat="45.84624" lon="6.43958">
        <ele>2074</ele>
        <time>2018-10-17T07:58:04Z</time>
      </trkpt>
      <trkpt lat="45.84625" lon="6.43961">
        <ele>2074</ele>
        <time>2018-10-17T07:58:05Z</time>
      </trkpt>
      <trkpt lat="45.84625" lon="6.43961">
        <ele>2074</ele>
        <time>2018-10-17T07:58:06Z</time>
      </trkpt>
      <trkpt lat="45.84625" lon="6.43964">
        <ele>2074</ele>
        <time>2018-10-17T07:58:07Z</time>
      </trkpt>
      <trkpt lat="45.84625" lon="6.43964">
        <ele>2074</ele>
        <time>2018-10-17T07:58:08Z</time>
      </trkpt>
      <trkpt lat="45.84625" lon="6.43967">
        <ele>2074</ele>
        <time>2018-10-17T07:58:09Z</time>
      </trkpt>
      <trkpt lat="45.84625" lon="6.43967">
        <ele>2074</ele>
        <time>2018-10-17T07:58:10Z</time>
      </trkpt>
      <trkpt lat="45.84625" lon="6.43967">
        <ele>2074</ele>
        <time>2018-10-17T07:58:11Z</time>
      </trkpt>
      <trkpt lat="45.84626" lon="6.4397">
        <ele>2074</ele>
        <time>2018-10-17T07:58:12Z</time>
      </trkpt>
      <trkpt lat="45.84626" lon="6.4397">
        <ele>2074</ele>
        <time>2018-10-17T07:58:13Z</time>
      </trkpt>
      <trkpt lat="45.84627" lon="6.43972">
        <ele>2074</ele>
        <time>2018-10-17T07:58:14Z</time>
      </trkpt>
      <trkpt lat="45.84627" lon="6.43972">
        <ele>2074</ele>
        <time>2018-10-17T07:58:15Z</time>
      </trkpt>
      <trkpt lat="45.84627" lon="6.43972">
        <ele>2074</ele>
        <time>2018-10-17T07:58:16Z</time>
      </trkpt>
      <trkpt lat="45.84629" lon="6.43974">
        <ele>2074</ele>
        <time>2018-10-17T07:58:17Z</time>
      </trkpt>
      <trkpt lat="45.84629" lon="6.43974">
        <ele>2074</ele>
        <time>2018-10-17T07:58:18Z</time>
      </trkpt>
      <trkpt lat="45.84629" lon="6.43974">
        <ele>2074</ele>
        <time>2018-10-17T07:58:19Z</time>
      </trkpt>
      <trkpt lat="45.84631" lon="6.43976">
        <ele>2075</ele>
        <time>2018-10-17T07:58:20Z</time>
      </trkpt>
      <trkpt lat="45.84631" lon="6.43976">
        <ele>2075</ele>
        <time>2018-10-17T07:58:21Z</time>
      </trkpt>
      <trkpt lat="45.84631" lon="6.43976">
        <ele>2075</ele>
        <time>2018-10-17T07:58:22Z</time>
      </trkpt>
      <trkpt lat="45.84633" lon="6.43978">
        <ele>2075</ele>
        <time>2018-10-17T07:58:23Z</time>
      </trkpt>
      <trkpt lat="45.84633" lon="6.43978">
        <ele>2076</ele>
        <time>2018-10-17T07:58:24Z</time>
      </trkpt>
      <trkpt lat="45.84633" lon="6.43978">
        <ele>2076</ele>
        <time>2018-10-17T07:58:25Z</time>
      </trkpt>
      <trkpt lat="45.84635" lon="6.43979">
        <ele>2076</ele>
        <time>2018-10-17T07:58:26Z</time>
      </trkpt>
      <trkpt lat="45.84635" lon="6.43979">
        <ele>2076</ele>
        <time>2018-10-17T07:58:27Z</time>
      </trkpt>
      <trkpt lat="45.84635" lon="6.43979">
        <ele>2076</ele>
        <time>2018-10-17T07:58:28Z</time>
      </trkpt>
      <trkpt lat="45.84637" lon="6.43981">
        <ele>2076</ele>
        <time>2018-10-17T07:58:29Z</time>
      </trkpt>
      <trkpt lat="45.84637" lon="6.43981">
        <ele>2076</ele>
        <time>2018-10-17T07:58:30Z</time>
      </trkpt>
      <trkpt lat="45.84637" lon="6.43981">
        <ele>2076</ele>
        <time>2018-10-17T07:58:31Z</time>
      </trkpt>
      <trkpt lat="45.84638" lon="6.43983">
        <ele>2077</ele>
        <time>2018-10-17T07:58:32Z</time>
      </trkpt>
      <trkpt lat="45.84638" lon="6.43983">
        <ele>2077</ele>
        <time>2018-10-17T07:58:33Z</time>
      </trkpt>
      <trkpt lat="45.8464" lon="6.43984">
        <ele>2077</ele>
        <time>2018-10-17T07:58:34Z</time>
      </trkpt>
      <trkpt lat="45.8464" lon="6.43984">
        <ele>2077</ele>
        <time>2018-10-17T07:58:35Z</time>
      </trkpt>
      <trkpt lat="45.84642" lon="6.43985">
        <ele>2077</ele>
        <time>2018-10-17T07:58:36Z</time>
      </trkpt>
      <trkpt lat="45.84642" lon="6.43985">
        <ele>2077</ele>
        <time>2018-10-17T07:58:37Z</time>
      </trkpt>
      <trkpt lat="45.84644" lon="6.43987">
        <ele>2078</ele>
        <time>2018-10-17T07:58:38Z</time>
      </trkpt>
      <trkpt lat="45.84644" lon="6.43987">
        <ele>2078</ele>
        <time>2018-10-17T07:58:39Z</time>
      </trkpt>
      <trkpt lat="45.84645" lon="6.43989">
        <ele>2078</ele>
        <time>2018-10-17T07:58:40Z</time>
      </trkpt>
      <trkpt lat="45.84645" lon="6.43989">
        <ele>2079</ele>
        <time>2018-10-17T07:58:41Z</time>
      </trkpt>
      <trkpt lat="45.84645" lon="6.43989">
        <ele>2079</ele>
        <time>2018-10-17T07:58:42Z</time>
      </trkpt>
      <trkpt lat="45.84647" lon="6.43992">
        <ele>2079</ele>
        <time>2018-10-17T07:58:43Z</time>
      </trkpt>
      <trkpt lat="45.84647" lon="6.43992">
        <ele>2079</ele>
        <time>2018-10-17T07:58:44Z</time>
      </trkpt>
      <trkpt lat="45.84647" lon="6.43992">
        <ele>2080</ele>
        <time>2018-10-17T07:58:45Z</time>
      </trkpt>
      <trkpt lat="45.8465" lon="6.43993">
        <ele>2080</ele>
        <time>2018-10-17T07:58:46Z</time>
      </trkpt>
      <trkpt lat="45.8465" lon="6.43993">
        <ele>2080</ele>
        <time>2018-10-17T07:58:47Z</time>
      </trkpt>
      <trkpt lat="45.84651" lon="6.43994">
        <ele>2080</ele>
        <time>2018-10-17T07:58:48Z</time>
      </trkpt>
      <trkpt lat="45.84651" lon="6.43994">
        <ele>2080</ele>
        <time>2018-10-17T07:58:49Z</time>
      </trkpt>
      <trkpt lat="45.84651" lon="6.43994">
        <ele>2080</ele>
        <time>2018-10-17T07:58:50Z</time>
      </trkpt>
      <trkpt lat="45.84653" lon="6.43996">
        <ele>2080</ele>
        <time>2018-10-17T07:58:51Z</time>
      </trkpt>
      <trkpt lat="45.84653" lon="6.43996">
        <ele>2080</ele>
        <time>2018-10-17T07:58:52Z</time>
      </trkpt>
      <trkpt lat="45.84653" lon="6.43996">
        <ele>2081</ele>
        <time>2018-10-17T07:58:53Z</time>
      </trkpt>
      <trkpt lat="45.84654" lon="6.43999">
        <ele>2081</ele>
        <time>2018-10-17T07:58:54Z</time>
      </trkpt>
      <trkpt lat="45.84654" lon="6.43999">
        <ele>2081</ele>
        <time>2018-10-17T07:58:55Z</time>
      </trkpt>
      <trkpt lat="45.84654" lon="6.43999">
        <ele>2081</ele>
        <time>2018-10-17T07:58:56Z</time>
      </trkpt>
      <trkpt lat="45.84654" lon="6.43999">
        <ele>2081</ele>
        <time>2018-10-17T07:58:57Z</time>
      </trkpt>
      <trkpt lat="45.84654" lon="6.43999">
        <ele>2081</ele>
        <time>2018-10-17T07:58:58Z</time>
      </trkpt>
      <trkpt lat="45.84654" lon="6.43999">
        <ele>2081</ele>
        <time>2018-10-17T07:58:59Z</time>
      </trkpt>
      <trkpt lat="45.84656" lon="6.44001">
        <ele>2081</ele>
        <time>2018-10-17T07:59:00Z</time>
      </trkpt>
      <trkpt lat="45.84656" lon="6.44001">
        <ele>2081</ele>
        <time>2018-10-17T07:59:01Z</time>
      </trkpt>
      <trkpt lat="45.84658" lon="6.44003">
        <ele>2082</ele>
        <time>2018-10-17T07:59:02Z</time>
      </trkpt>
      <trkpt lat="45.84658" lon="6.44003">
        <ele>2082</ele>
        <time>2018-10-17T07:59:03Z</time>
      </trkpt>
      <trkpt lat="45.84658" lon="6.44003">
        <ele>2083</ele>
        <time>2018-10-17T07:59:04Z</time>
      </trkpt>
      <trkpt lat="45.8466" lon="6.44005">
        <ele>2083</ele>
        <time>2018-10-17T07:59:05Z</time>
      </trkpt>
      <trkpt lat="45.8466" lon="6.44005">
        <ele>2083</ele>
        <time>2018-10-17T07:59:06Z</time>
      </trkpt>
      <trkpt lat="45.8466" lon="6.44005">
        <ele>2083</ele>
        <time>2018-10-17T07:59:07Z</time>
      </trkpt>
      <trkpt lat="45.84662" lon="6.44007">
        <ele>2083</ele>
        <time>2018-10-17T07:59:08Z</time>
      </trkpt>
      <trkpt lat="45.84662" lon="6.44007">
        <ele>2083</ele>
        <time>2018-10-17T07:59:09Z</time>
      </trkpt>
      <trkpt lat="45.84662" lon="6.44007">
        <ele>2084</ele>
        <time>2018-10-17T07:59:10Z</time>
      </trkpt>
      <trkpt lat="45.84663" lon="6.44009">
        <ele>2084</ele>
        <time>2018-10-17T07:59:11Z</time>
      </trkpt>
      <trkpt lat="45.84663" lon="6.44009">
        <ele>2085</ele>
        <time>2018-10-17T07:59:12Z</time>
      </trkpt>
      <trkpt lat="45.84663" lon="6.44009">
        <ele>2085</ele>
        <time>2018-10-17T07:59:13Z</time>
      </trkpt>
      <trkpt lat="45.84664" lon="6.44011">
        <ele>2085</ele>
        <time>2018-10-17T07:59:14Z</time>
      </trkpt>
      <trkpt lat="45.84664" lon="6.44011">
        <ele>2085</ele>
        <time>2018-10-17T07:59:15Z</time>
      </trkpt>
      <trkpt lat="45.84664" lon="6.44011">
        <ele>2085</ele>
        <time>2018-10-17T07:59:16Z</time>
      </trkpt>
      <trkpt lat="45.84667" lon="6.44013">
        <ele>2085</ele>
        <time>2018-10-17T07:59:17Z</time>
      </trkpt>
      <trkpt lat="45.84667" lon="6.44013">
        <ele>2085</ele>
        <time>2018-10-17T07:59:18Z</time>
      </trkpt>
      <trkpt lat="45.84668" lon="6.44015">
        <ele>2085</ele>
        <time>2018-10-17T07:59:19Z</time>
      </trkpt>
      <trkpt lat="45.84668" lon="6.44015">
        <ele>2086</ele>
        <time>2018-10-17T07:59:20Z</time>
      </trkpt>
      <trkpt lat="45.8467" lon="6.44016">
        <ele>2086</ele>
        <time>2018-10-17T07:59:21Z</time>
      </trkpt>
      <trkpt lat="45.8467" lon="6.44016">
        <ele>2086</ele>
        <time>2018-10-17T07:59:22Z</time>
      </trkpt>
      <trkpt lat="45.8467" lon="6.44016">
        <ele>2086</ele>
        <time>2018-10-17T07:59:23Z</time>
      </trkpt>
      <trkpt lat="45.84673" lon="6.44017">
        <ele>2086</ele>
        <time>2018-10-17T07:59:24Z</time>
      </trkpt>
      <trkpt lat="45.84673" lon="6.44017">
        <ele>2086</ele>
        <time>2018-10-17T07:59:25Z</time>
      </trkpt>
      <trkpt lat="45.84675" lon="6.44018">
        <ele>2086</ele>
        <time>2018-10-17T07:59:26Z</time>
      </trkpt>
      <trkpt lat="45.84675" lon="6.44018">
        <ele>2086</ele>
        <time>2018-10-17T07:59:27Z</time>
      </trkpt>
      <trkpt lat="45.84677" lon="6.44019">
        <ele>2086</ele>
        <time>2018-10-17T07:59:28Z</time>
      </trkpt>
      <trkpt lat="45.84677" lon="6.44019">
        <ele>2086</ele>
        <time>2018-10-17T07:59:29Z</time>
      </trkpt>
      <trkpt lat="45.84678" lon="6.44021">
        <ele>2086</ele>
        <time>2018-10-17T07:59:30Z</time>
      </trkpt>
      <trkpt lat="45.84678" lon="6.44021">
        <ele>2087</ele>
        <time>2018-10-17T07:59:31Z</time>
      </trkpt>
      <trkpt lat="45.84679" lon="6.44024">
        <ele>2087</ele>
        <time>2018-10-17T07:59:32Z</time>
      </trkpt>
      <trkpt lat="45.84679" lon="6.44024">
        <ele>2087</ele>
        <time>2018-10-17T07:59:33Z</time>
      </trkpt>
      <trkpt lat="45.84679" lon="6.44024">
        <ele>2087</ele>
        <time>2018-10-17T07:59:34Z</time>
      </trkpt>
      <trkpt lat="45.84679" lon="6.44024">
        <ele>2087</ele>
        <time>2018-10-17T07:59:35Z</time>
      </trkpt>
      <trkpt lat="45.84679" lon="6.44024">
        <ele>2087</ele>
        <time>2018-10-17T07:59:36Z</time>
      </trkpt>
      <trkpt lat="45.84679" lon="6.44024">
        <ele>2087</ele>
        <time>2018-10-17T07:59:37Z</time>
      </trkpt>
      <trkpt lat="45.8468" lon="6.44026">
        <ele>2087</ele>
        <time>2018-10-17T07:59:38Z</time>
      </trkpt>
      <trkpt lat="45.8468" lon="6.44026">
        <ele>2087</ele>
        <time>2018-10-17T07:59:39Z</time>
      </trkpt>
      <trkpt lat="45.84681" lon="6.44028">
        <ele>2088</ele>
        <time>2018-10-17T07:59:40Z</time>
      </trkpt>
      <trkpt lat="45.84681" lon="6.44028">
        <ele>2088</ele>
        <time>2018-10-17T07:59:41Z</time>
      </trkpt>
      <trkpt lat="45.84681" lon="6.44028">
        <ele>2088</ele>
        <time>2018-10-17T07:59:42Z</time>
      </trkpt>
      <trkpt lat="45.84682" lon="6.4403">
        <ele>2088</ele>
        <time>2018-10-17T07:59:43Z</time>
      </trkpt>
      <trkpt lat="45.84682" lon="6.4403">
        <ele>2088</ele>
        <time>2018-10-17T07:59:44Z</time>
      </trkpt>
      <trkpt lat="45.84682" lon="6.4403">
        <ele>2088</ele>
        <time>2018-10-17T07:59:45Z</time>
      </trkpt>
      <trkpt lat="45.84683" lon="6.44033">
        <ele>2089</ele>
        <time>2018-10-17T07:59:46Z</time>
      </trkpt>
      <trkpt lat="45.84683" lon="6.44033">
        <ele>2089</ele>
        <time>2018-10-17T07:59:47Z</time>
      </trkpt>
      <trkpt lat="45.84683" lon="6.44033">
        <ele>2089</ele>
        <time>2018-10-17T07:59:48Z</time>
      </trkpt>
      <trkpt lat="45.84685" lon="6.44035">
        <ele>2090</ele>
        <time>2018-10-17T07:59:49Z</time>
      </trkpt>
      <trkpt lat="45.84685" lon="6.44035">
        <ele>2090</ele>
        <time>2018-10-17T07:59:50Z</time>
      </trkpt>
      <trkpt lat="45.84685" lon="6.44035">
        <ele>2090</ele>
        <time>2018-10-17T07:59:51Z</time>
      </trkpt>
      <trkpt lat="45.84686" lon="6.44038">
        <ele>2090</ele>
        <time>2018-10-17T07:59:52Z</time>
      </trkpt>
      <trkpt lat="45.84686" lon="6.44038">
        <ele>2090</ele>
        <time>2018-10-17T07:59:53Z</time>
      </trkpt>
      <trkpt lat="45.84686" lon="6.44038">
        <ele>2090</ele>
        <time>2018-10-17T07:59:54Z</time>
      </trkpt>
      <trkpt lat="45.84687" lon="6.4404">
        <ele>2092</ele>
        <time>2018-10-17T07:59:55Z</time>
      </trkpt>
      <trkpt lat="45.84687" lon="6.4404">
        <ele>2092</ele>
        <time>2018-10-17T07:59:56Z</time>
      </trkpt>
      <trkpt lat="45.84687" lon="6.4404">
        <ele>2092</ele>
        <time>2018-10-17T07:59:57Z</time>
      </trkpt>
      <trkpt lat="45.84688" lon="6.44042">
        <ele>2092</ele>
        <time>2018-10-17T07:59:58Z</time>
      </trkpt>
      <trkpt lat="45.84688" lon="6.44042">
        <ele>2093</ele>
        <time>2018-10-17T07:59:59Z</time>
      </trkpt>
      <trkpt lat="45.84688" lon="6.44042">
        <ele>2093</ele>
        <time>2018-10-17T08:00:00Z</time>
      </trkpt>
      <trkpt lat="45.84688" lon="6.44042">
        <ele>2093</ele>
        <time>2018-10-17T08:00:01Z</time>
      </trkpt>
      <trkpt lat="45.8469" lon="6.44044">
        <ele>2093</ele>
        <time>2018-10-17T08:00:02Z</time>
      </trkpt>
      <trkpt lat="45.8469" lon="6.44044">
        <ele>2093</ele>
        <time>2018-10-17T08:00:03Z</time>
      </trkpt>
      <trkpt lat="45.8469" lon="6.44044">
        <ele>2094</ele>
        <time>2018-10-17T08:00:04Z</time>
      </trkpt>
      <trkpt lat="45.84692" lon="6.44046">
        <ele>2094</ele>
        <time>2018-10-17T08:00:05Z</time>
      </trkpt>
      <trkpt lat="45.84692" lon="6.44046">
        <ele>2094</ele>
        <time>2018-10-17T08:00:06Z</time>
      </trkpt>
      <trkpt lat="45.84692" lon="6.44046">
        <ele>2094</ele>
        <time>2018-10-17T08:00:07Z</time>
      </trkpt>
      <trkpt lat="45.84692" lon="6.44046">
        <ele>2095</ele>
        <time>2018-10-17T08:00:08Z</time>
      </trkpt>
      <trkpt lat="45.84692" lon="6.44046">
        <ele>2095</ele>
        <time>2018-10-17T08:00:09Z</time>
      </trkpt>
      <trkpt lat="45.84694" lon="6.44048">
        <ele>2095</ele>
        <time>2018-10-17T08:00:10Z</time>
      </trkpt>
      <trkpt lat="45.84694" lon="6.44048">
        <ele>2095</ele>
        <time>2018-10-17T08:00:11Z</time>
      </trkpt>
      <trkpt lat="45.84694" lon="6.44048">
        <ele>2096</ele>
        <time>2018-10-17T08:00:12Z</time>
      </trkpt>
      <trkpt lat="45.84694" lon="6.44048">
        <ele>2096</ele>
        <time>2018-10-17T08:00:13Z</time>
      </trkpt>
      <trkpt lat="45.84696" lon="6.4405">
        <ele>2096</ele>
        <time>2018-10-17T08:00:14Z</time>
      </trkpt>
      <trkpt lat="45.84696" lon="6.4405">
        <ele>2097</ele>
        <time>2018-10-17T08:00:15Z</time>
      </trkpt>
      <trkpt lat="45.84696" lon="6.4405">
        <ele>2097</ele>
        <time>2018-10-17T08:00:16Z</time>
      </trkpt>
      <trkpt lat="45.84696" lon="6.4405">
        <ele>2097</ele>
        <time>2018-10-17T08:00:17Z</time>
      </trkpt>
      <trkpt lat="45.84696" lon="6.4405">
        <ele>2097</ele>
        <time>2018-10-17T08:00:18Z</time>
      </trkpt>
      <trkpt lat="45.84697" lon="6.44052">
        <ele>2097</ele>
        <time>2018-10-17T08:00:19Z</time>
      </trkpt>
      <trkpt lat="45.84697" lon="6.44052">
        <ele>2098</ele>
        <time>2018-10-17T08:00:20Z</time>
      </trkpt>
      <trkpt lat="45.84697" lon="6.44052">
        <ele>2099</ele>
        <time>2018-10-17T08:00:21Z</time>
      </trkpt>
      <trkpt lat="45.84699" lon="6.44054">
        <ele>2099</ele>
        <time>2018-10-17T08:00:22Z</time>
      </trkpt>
      <trkpt lat="45.84699" lon="6.44054">
        <ele>2099</ele>
        <time>2018-10-17T08:00:23Z</time>
      </trkpt>
      <trkpt lat="45.84699" lon="6.44054">
        <ele>2099</ele>
        <time>2018-10-17T08:00:24Z</time>
      </trkpt>
      <trkpt lat="45.84701" lon="6.44056">
        <ele>2099</ele>
        <time>2018-10-17T08:00:25Z</time>
      </trkpt>
      <trkpt lat="45.84701" lon="6.44056">
        <ele>2099</ele>
        <time>2018-10-17T08:00:26Z</time>
      </trkpt>
      <trkpt lat="45.84701" lon="6.44056">
        <ele>2100</ele>
        <time>2018-10-17T08:00:27Z</time>
      </trkpt>
      <trkpt lat="45.84702" lon="6.44059">
        <ele>2100</ele>
        <time>2018-10-17T08:00:28Z</time>
      </trkpt>
      <trkpt lat="45.84702" lon="6.44059">
        <ele>2100</ele>
        <time>2018-10-17T08:00:29Z</time>
      </trkpt>
      <trkpt lat="45.84702" lon="6.44059">
        <ele>2100</ele>
        <time>2018-10-17T08:00:30Z</time>
      </trkpt>
      <trkpt lat="45.84703" lon="6.44061">
        <ele>2100</ele>
        <time>2018-10-17T08:00:31Z</time>
      </trkpt>
      <trkpt lat="45.84703" lon="6.44061">
        <ele>2100</ele>
        <time>2018-10-17T08:00:32Z</time>
      </trkpt>
      <trkpt lat="45.84703" lon="6.44061">
        <ele>2100</ele>
        <time>2018-10-17T08:00:33Z</time>
      </trkpt>
      <trkpt lat="45.84706" lon="6.44063">
        <ele>2100</ele>
        <time>2018-10-17T08:00:34Z</time>
      </trkpt>
      <trkpt lat="45.84706" lon="6.44063">
        <ele>2100</ele>
        <time>2018-10-17T08:00:35Z</time>
      </trkpt>
      <trkpt lat="45.84708" lon="6.44064">
        <ele>2100</ele>
        <time>2018-10-17T08:00:36Z</time>
      </trkpt>
      <trkpt lat="45.84708" lon="6.44064">
        <ele>2101</ele>
        <time>2018-10-17T08:00:37Z</time>
      </trkpt>
      <trkpt lat="45.84709" lon="6.44066">
        <ele>2101</ele>
        <time>2018-10-17T08:00:38Z</time>
      </trkpt>
      <trkpt lat="45.84709" lon="6.44066">
        <ele>2101</ele>
        <time>2018-10-17T08:00:39Z</time>
      </trkpt>
      <trkpt lat="45.84711" lon="6.44067">
        <ele>2101</ele>
        <time>2018-10-17T08:00:40Z</time>
      </trkpt>
      <trkpt lat="45.84711" lon="6.44067">
        <ele>2101</ele>
        <time>2018-10-17T08:00:41Z</time>
      </trkpt>
      <trkpt lat="45.84711" lon="6.44067">
        <ele>2102</ele>
        <time>2018-10-17T08:00:42Z</time>
      </trkpt>
      <trkpt lat="45.84711" lon="6.44067">
        <ele>2102</ele>
        <time>2018-10-17T08:00:43Z</time>
      </trkpt>
      <trkpt lat="45.84712" lon="6.4407">
        <ele>2102</ele>
        <time>2018-10-17T08:00:44Z</time>
      </trkpt>
      <trkpt lat="45.84712" lon="6.4407">
        <ele>2102</ele>
        <time>2018-10-17T08:00:45Z</time>
      </trkpt>
      <trkpt lat="45.84712" lon="6.4407">
        <ele>2102</ele>
        <time>2018-10-17T08:00:46Z</time>
      </trkpt>
      <trkpt lat="45.84714" lon="6.44071">
        <ele>2103</ele>
        <time>2018-10-17T08:00:47Z</time>
      </trkpt>
      <trkpt lat="45.84714" lon="6.44071">
        <ele>2103</ele>
        <time>2018-10-17T08:00:48Z</time>
      </trkpt>
      <trkpt lat="45.84714" lon="6.44071">
        <ele>2103</ele>
        <time>2018-10-17T08:00:49Z</time>
      </trkpt>
      <trkpt lat="45.84716" lon="6.44073">
        <ele>2103</ele>
        <time>2018-10-17T08:00:50Z</time>
      </trkpt>
      <trkpt lat="45.84716" lon="6.44073">
        <ele>2103</ele>
        <time>2018-10-17T08:00:51Z</time>
      </trkpt>
      <trkpt lat="45.84716" lon="6.44073">
        <ele>2103</ele>
        <time>2018-10-17T08:00:52Z</time>
      </trkpt>
      <trkpt lat="45.84717" lon="6.44075">
        <ele>2103</ele>
        <time>2018-10-17T08:00:53Z</time>
      </trkpt>
      <trkpt lat="45.84717" lon="6.44075">
        <ele>2103</ele>
        <time>2018-10-17T08:00:54Z</time>
      </trkpt>
      <trkpt lat="45.84719" lon="6.44077">
        <ele>2103</ele>
        <time>2018-10-17T08:00:55Z</time>
      </trkpt>
      <trkpt lat="45.84719" lon="6.44077">
        <ele>2103</ele>
        <time>2018-10-17T08:00:56Z</time>
      </trkpt>
      <trkpt lat="45.84721" lon="6.44079">
        <ele>2103</ele>
        <time>2018-10-17T08:00:57Z</time>
      </trkpt>
      <trkpt lat="45.84721" lon="6.44079">
        <ele>2104</ele>
        <time>2018-10-17T08:00:58Z</time>
      </trkpt>
      <trkpt lat="45.84721" lon="6.44079">
        <ele>2104</ele>
        <time>2018-10-17T08:00:59Z</time>
      </trkpt>
      <trkpt lat="45.84723" lon="6.44081">
        <ele>2104</ele>
        <time>2018-10-17T08:01:00Z</time>
      </trkpt>
      <trkpt lat="45.84723" lon="6.44081">
        <ele>2104</ele>
        <time>2018-10-17T08:01:01Z</time>
      </trkpt>
      <trkpt lat="45.84725" lon="6.44082">
        <ele>2104</ele>
        <time>2018-10-17T08:01:02Z</time>
      </trkpt>
      <trkpt lat="45.84725" lon="6.44082">
        <ele>2104</ele>
        <time>2018-10-17T08:01:03Z</time>
      </trkpt>
      <trkpt lat="45.84727" lon="6.44084">
        <ele>2104</ele>
        <time>2018-10-17T08:01:04Z</time>
      </trkpt>
      <trkpt lat="45.84727" lon="6.44084">
        <ele>2104</ele>
        <time>2018-10-17T08:01:05Z</time>
      </trkpt>
      <trkpt lat="45.84729" lon="6.44086">
        <ele>2104</ele>
        <time>2018-10-17T08:01:06Z</time>
      </trkpt>
      <trkpt lat="45.84729" lon="6.44086">
        <ele>2104</ele>
        <time>2018-10-17T08:01:07Z</time>
      </trkpt>
      <trkpt lat="45.84729" lon="6.44086">
        <ele>2105</ele>
        <time>2018-10-17T08:01:08Z</time>
      </trkpt>
      <trkpt lat="45.84731" lon="6.44088">
        <ele>2105</ele>
        <time>2018-10-17T08:01:09Z</time>
      </trkpt>
      <trkpt lat="45.84731" lon="6.44088">
        <ele>2106</ele>
        <time>2018-10-17T08:01:10Z</time>
      </trkpt>
      <trkpt lat="45.84731" lon="6.44088">
        <ele>2106</ele>
        <time>2018-10-17T08:01:11Z</time>
      </trkpt>
      <trkpt lat="45.84733" lon="6.4409">
        <ele>2106</ele>
        <time>2018-10-17T08:01:12Z</time>
      </trkpt>
      <trkpt lat="45.84733" lon="6.4409">
        <ele>2106</ele>
        <time>2018-10-17T08:01:13Z</time>
      </trkpt>
      <trkpt lat="45.84733" lon="6.4409">
        <ele>2106</ele>
        <time>2018-10-17T08:01:14Z</time>
      </trkpt>
      <trkpt lat="45.84735" lon="6.44091">
        <ele>2106</ele>
        <time>2018-10-17T08:01:15Z</time>
      </trkpt>
      <trkpt lat="45.84735" lon="6.44091">
        <ele>2106</ele>
        <time>2018-10-17T08:01:16Z</time>
      </trkpt>
      <trkpt lat="45.84735" lon="6.44091">
        <ele>2106</ele>
        <time>2018-10-17T08:01:17Z</time>
      </trkpt>
      <trkpt lat="45.84736" lon="6.44093">
        <ele>2107</ele>
        <time>2018-10-17T08:01:18Z</time>
      </trkpt>
      <trkpt lat="45.84736" lon="6.44093">
        <ele>2108</ele>
        <time>2018-10-17T08:01:19Z</time>
      </trkpt>
      <trkpt lat="45.84736" lon="6.44093">
        <ele>2108</ele>
        <time>2018-10-17T08:01:20Z</time>
      </trkpt>
      <trkpt lat="45.84737" lon="6.44096">
        <ele>2108</ele>
        <time>2018-10-17T08:01:21Z</time>
      </trkpt>
      <trkpt lat="45.84737" lon="6.44096">
        <ele>2108</ele>
        <time>2018-10-17T08:01:22Z</time>
      </trkpt>
      <trkpt lat="45.84737" lon="6.44096">
        <ele>2108</ele>
        <time>2018-10-17T08:01:23Z</time>
      </trkpt>
      <trkpt lat="45.84739" lon="6.44097">
        <ele>2108</ele>
        <time>2018-10-17T08:01:24Z</time>
      </trkpt>
      <trkpt lat="45.84739" lon="6.44097">
        <ele>2109</ele>
        <time>2018-10-17T08:01:25Z</time>
      </trkpt>
      <trkpt lat="45.84741" lon="6.44097">
        <ele>2109</ele>
        <time>2018-10-17T08:01:26Z</time>
      </trkpt>
      <trkpt lat="45.84741" lon="6.44097">
        <ele>2110</ele>
        <time>2018-10-17T08:01:27Z</time>
      </trkpt>
      <trkpt lat="45.84743" lon="6.44098">
        <ele>2110</ele>
        <time>2018-10-17T08:01:28Z</time>
      </trkpt>
      <trkpt lat="45.84743" lon="6.44098">
        <ele>2110</ele>
        <time>2018-10-17T08:01:29Z</time>
      </trkpt>
      <trkpt lat="45.84743" lon="6.44098">
        <ele>2110</ele>
        <time>2018-10-17T08:01:30Z</time>
      </trkpt>
      <trkpt lat="45.84744" lon="6.441">
        <ele>2111</ele>
        <time>2018-10-17T08:01:31Z</time>
      </trkpt>
      <trkpt lat="45.84744" lon="6.441">
        <ele>2111</ele>
        <time>2018-10-17T08:01:32Z</time>
      </trkpt>
      <trkpt lat="45.84744" lon="6.441">
        <ele>2112</ele>
        <time>2018-10-17T08:01:33Z</time>
      </trkpt>
      <trkpt lat="45.84744" lon="6.441">
        <ele>2112</ele>
        <time>2018-10-17T08:01:34Z</time>
      </trkpt>
      <trkpt lat="45.84746" lon="6.44102">
        <ele>2112</ele>
        <time>2018-10-17T08:01:35Z</time>
      </trkpt>
      <trkpt lat="45.84746" lon="6.44102">
        <ele>2112</ele>
        <time>2018-10-17T08:01:36Z</time>
      </trkpt>
      <trkpt lat="45.84748" lon="6.44103">
        <ele>2112</ele>
        <time>2018-10-17T08:01:37Z</time>
      </trkpt>
      <trkpt lat="45.84748" lon="6.44103">
        <ele>2112</ele>
        <time>2018-10-17T08:01:38Z</time>
      </trkpt>
      <trkpt lat="45.8475" lon="6.44105">
        <ele>2112</ele>
        <time>2018-10-17T08:01:39Z</time>
      </trkpt>
      <trkpt lat="45.8475" lon="6.44105">
        <ele>2112</ele>
        <time>2018-10-17T08:01:40Z</time>
      </trkpt>
      <trkpt lat="45.84752" lon="6.44106">
        <ele>2112</ele>
        <time>2018-10-17T08:01:41Z</time>
      </trkpt>
      <trkpt lat="45.84752" lon="6.44106">
        <ele>2112</ele>
        <time>2018-10-17T08:01:42Z</time>
      </trkpt>
      <trkpt lat="45.84754" lon="6.44107">
        <ele>2112</ele>
        <time>2018-10-17T08:01:43Z</time>
      </trkpt>
      <trkpt lat="45.84754" lon="6.44107">
        <ele>2113</ele>
        <time>2018-10-17T08:01:44Z</time>
      </trkpt>
      <trkpt lat="45.84754" lon="6.44107">
        <ele>2113</ele>
        <time>2018-10-17T08:01:45Z</time>
      </trkpt>
      <trkpt lat="45.84756" lon="6.44109">
        <ele>2113</ele>
        <time>2018-10-17T08:01:46Z</time>
      </trkpt>
      <trkpt lat="45.84756" lon="6.44109">
        <ele>2113</ele>
        <time>2018-10-17T08:01:47Z</time>
      </trkpt>
      <trkpt lat="45.84756" lon="6.44109">
        <ele>2113</ele>
        <time>2018-10-17T08:01:48Z</time>
      </trkpt>
      <trkpt lat="45.84756" lon="6.44109">
        <ele>2114</ele>
        <time>2018-10-17T08:01:49Z</time>
      </trkpt>
      <trkpt lat="45.84756" lon="6.44109">
        <ele>2114</ele>
        <time>2018-10-17T08:01:50Z</time>
      </trkpt>
      <trkpt lat="45.84756" lon="6.44112">
        <ele>2114</ele>
        <time>2018-10-17T08:01:51Z</time>
      </trkpt>
      <trkpt lat="45.84756" lon="6.44112">
        <ele>2115</ele>
        <time>2018-10-17T08:01:52Z</time>
      </trkpt>
      <trkpt lat="45.84756" lon="6.44112">
        <ele>2115</ele>
        <time>2018-10-17T08:01:53Z</time>
      </trkpt>
      <trkpt lat="45.84756" lon="6.44112">
        <ele>2115</ele>
        <time>2018-10-17T08:01:54Z</time>
      </trkpt>
      <trkpt lat="45.84757" lon="6.44114">
        <ele>2115</ele>
        <time>2018-10-17T08:01:55Z</time>
      </trkpt>
      <trkpt lat="45.84757" lon="6.44114">
        <ele>2115</ele>
        <time>2018-10-17T08:01:56Z</time>
      </trkpt>
      <trkpt lat="45.84757" lon="6.44114">
        <ele>2115</ele>
        <time>2018-10-17T08:01:57Z</time>
      </trkpt>
      <trkpt lat="45.84757" lon="6.44114">
        <ele>2115</ele>
        <time>2018-10-17T08:01:58Z</time>
      </trkpt>
      <trkpt lat="45.84757" lon="6.44114">
        <ele>2116</ele>
        <time>2018-10-17T08:01:59Z</time>
      </trkpt>
      <trkpt lat="45.84758" lon="6.44116">
        <ele>2116</ele>
        <time>2018-10-17T08:02:00Z</time>
      </trkpt>
      <trkpt lat="45.84758" lon="6.44116">
        <ele>2118</ele>
        <time>2018-10-17T08:02:01Z</time>
      </trkpt>
      <trkpt lat="45.84758" lon="6.44116">
        <ele>2118</ele>
        <time>2018-10-17T08:02:02Z</time>
      </trkpt>
      <trkpt lat="45.8476" lon="6.44119">
        <ele>2118</ele>
        <time>2018-10-17T08:02:03Z</time>
      </trkpt>
      <trkpt lat="45.8476" lon="6.44119">
        <ele>2118</ele>
        <time>2018-10-17T08:02:04Z</time>
      </trkpt>
      <trkpt lat="45.8476" lon="6.44119">
        <ele>2118</ele>
        <time>2018-10-17T08:02:05Z</time>
      </trkpt>
      <trkpt lat="45.84762" lon="6.44121">
        <ele>2119</ele>
        <time>2018-10-17T08:02:06Z</time>
      </trkpt>
      <trkpt lat="45.84762" lon="6.44121">
        <ele>2119</ele>
        <time>2018-10-17T08:02:07Z</time>
      </trkpt>
      <trkpt lat="45.84762" lon="6.44121">
        <ele>2119</ele>
        <time>2018-10-17T08:02:08Z</time>
      </trkpt>
      <trkpt lat="45.84763" lon="6.44124">
        <ele>2119</ele>
        <time>2018-10-17T08:02:09Z</time>
      </trkpt>
      <trkpt lat="45.84763" lon="6.44124">
        <ele>2120</ele>
        <time>2018-10-17T08:02:10Z</time>
      </trkpt>
      <trkpt lat="45.84763" lon="6.44124">
        <ele>2120</ele>
        <time>2018-10-17T08:02:11Z</time>
      </trkpt>
      <trkpt lat="45.84765" lon="6.44126">
        <ele>2120</ele>
        <time>2018-10-17T08:02:12Z</time>
      </trkpt>
      <trkpt lat="45.84765" lon="6.44126">
        <ele>2120</ele>
        <time>2018-10-17T08:02:13Z</time>
      </trkpt>
      <trkpt lat="45.84767" lon="6.44128">
        <ele>2120</ele>
        <time>2018-10-17T08:02:14Z</time>
      </trkpt>
      <trkpt lat="45.84767" lon="6.44128">
        <ele>2120</ele>
        <time>2018-10-17T08:02:15Z</time>
      </trkpt>
      <trkpt lat="45.84767" lon="6.44128">
        <ele>2121</ele>
        <time>2018-10-17T08:02:16Z</time>
      </trkpt>
      <trkpt lat="45.84769" lon="6.4413">
        <ele>2121</ele>
        <time>2018-10-17T08:02:17Z</time>
      </trkpt>
      <trkpt lat="45.84769" lon="6.4413">
        <ele>2121</ele>
        <time>2018-10-17T08:02:18Z</time>
      </trkpt>
      <trkpt lat="45.84771" lon="6.44131">
        <ele>2121</ele>
        <time>2018-10-17T08:02:19Z</time>
      </trkpt>
      <trkpt lat="45.84771" lon="6.44131">
        <ele>2121</ele>
        <time>2018-10-17T08:02:20Z</time>
      </trkpt>
      <trkpt lat="45.84773" lon="6.44133">
        <ele>2121</ele>
        <time>2018-10-17T08:02:21Z</time>
      </trkpt>
      <trkpt lat="45.84773" lon="6.44133">
        <ele>2121</ele>
        <time>2018-10-17T08:02:22Z</time>
      </trkpt>
      <trkpt lat="45.84773" lon="6.44133">
        <ele>2121</ele>
        <time>2018-10-17T08:02:23Z</time>
      </trkpt>
      <trkpt lat="45.84775" lon="6.44135">
        <ele>2121</ele>
        <time>2018-10-17T08:02:24Z</time>
      </trkpt>
      <trkpt lat="45.84775" lon="6.44135">
        <ele>2121</ele>
        <time>2018-10-17T08:02:25Z</time>
      </trkpt>
      <trkpt lat="45.84775" lon="6.44135">
        <ele>2122</ele>
        <time>2018-10-17T08:02:26Z</time>
      </trkpt>
      <trkpt lat="45.84778" lon="6.44137">
        <ele>2122</ele>
        <time>2018-10-17T08:02:27Z</time>
      </trkpt>
      <trkpt lat="45.84778" lon="6.44137">
        <ele>2122</ele>
        <time>2018-10-17T08:02:28Z</time>
      </trkpt>
      <trkpt lat="45.84778" lon="6.44137">
        <ele>2122</ele>
        <time>2018-10-17T08:02:29Z</time>
      </trkpt>
      <trkpt lat="45.8478" lon="6.44139">
        <ele>2122</ele>
        <time>2018-10-17T08:02:30Z</time>
      </trkpt>
      <trkpt lat="45.8478" lon="6.44139">
        <ele>2122</ele>
        <time>2018-10-17T08:02:31Z</time>
      </trkpt>
      <trkpt lat="45.8478" lon="6.44139">
        <ele>2122</ele>
        <time>2018-10-17T08:02:32Z</time>
      </trkpt>
      <trkpt lat="45.84781" lon="6.4414">
        <ele>2122</ele>
        <time>2018-10-17T08:02:33Z</time>
      </trkpt>
      <trkpt lat="45.84781" lon="6.4414">
        <ele>2122</ele>
        <time>2018-10-17T08:02:34Z</time>
      </trkpt>
      <trkpt lat="45.84781" lon="6.4414">
        <ele>2123</ele>
        <time>2018-10-17T08:02:35Z</time>
      </trkpt>
      <trkpt lat="45.84783" lon="6.44142">
        <ele>2123</ele>
        <time>2018-10-17T08:02:36Z</time>
      </trkpt>
      <trkpt lat="45.84783" lon="6.44142">
        <ele>2123</ele>
        <time>2018-10-17T08:02:37Z</time>
      </trkpt>
      <trkpt lat="45.84785" lon="6.44142">
        <ele>2123</ele>
        <time>2018-10-17T08:02:38Z</time>
      </trkpt>
      <trkpt lat="45.84785" lon="6.44142">
        <ele>2123</ele>
        <time>2018-10-17T08:02:39Z</time>
      </trkpt>
      <trkpt lat="45.84785" lon="6.44142">
        <ele>2123</ele>
        <time>2018-10-17T08:02:40Z</time>
      </trkpt>
      <trkpt lat="45.84786" lon="6.44145">
        <ele>2123</ele>
        <time>2018-10-17T08:02:41Z</time>
      </trkpt>
      <trkpt lat="45.84786" lon="6.44145">
        <ele>2124</ele>
        <time>2018-10-17T08:02:42Z</time>
      </trkpt>
      <trkpt lat="45.84786" lon="6.44145">
        <ele>2124</ele>
        <time>2018-10-17T08:02:43Z</time>
      </trkpt>
      <trkpt lat="45.84788" lon="6.44147">
        <ele>2124</ele>
        <time>2018-10-17T08:02:44Z</time>
      </trkpt>
      <trkpt lat="45.84788" lon="6.44147">
        <ele>2124</ele>
        <time>2018-10-17T08:02:45Z</time>
      </trkpt>
      <trkpt lat="45.84788" lon="6.44147">
        <ele>2125</ele>
        <time>2018-10-17T08:02:46Z</time>
      </trkpt>
      <trkpt lat="45.8479" lon="6.44149">
        <ele>2125</ele>
        <time>2018-10-17T08:02:47Z</time>
      </trkpt>
      <trkpt lat="45.8479" lon="6.44149">
        <ele>2125</ele>
        <time>2018-10-17T08:02:48Z</time>
      </trkpt>
      <trkpt lat="45.8479" lon="6.44149">
        <ele>2125</ele>
        <time>2018-10-17T08:02:49Z</time>
      </trkpt>
      <trkpt lat="45.84792" lon="6.4415">
        <ele>2125</ele>
        <time>2018-10-17T08:02:50Z</time>
      </trkpt>
      <trkpt lat="45.84792" lon="6.4415">
        <ele>2126</ele>
        <time>2018-10-17T08:02:51Z</time>
      </trkpt>
      <trkpt lat="45.84792" lon="6.4415">
        <ele>2126</ele>
        <time>2018-10-17T08:02:52Z</time>
      </trkpt>
      <trkpt lat="45.84793" lon="6.44152">
        <ele>2126</ele>
        <time>2018-10-17T08:02:53Z</time>
      </trkpt>
      <trkpt lat="45.84793" lon="6.44152">
        <ele>2126</ele>
        <time>2018-10-17T08:02:54Z</time>
      </trkpt>
      <trkpt lat="45.84793" lon="6.44152">
        <ele>2126</ele>
        <time>2018-10-17T08:02:55Z</time>
      </trkpt>
      <trkpt lat="45.84794" lon="6.44155">
        <ele>2126</ele>
        <time>2018-10-17T08:02:56Z</time>
      </trkpt>
      <trkpt lat="45.84794" lon="6.44155">
        <ele>2127</ele>
        <time>2018-10-17T08:02:57Z</time>
      </trkpt>
      <trkpt lat="45.84796" lon="6.44156">
        <ele>2127</ele>
        <time>2018-10-17T08:02:58Z</time>
      </trkpt>
      <trkpt lat="45.84796" lon="6.44156">
        <ele>2127</ele>
        <time>2018-10-17T08:02:59Z</time>
      </trkpt>
      <trkpt lat="45.84796" lon="6.44156">
        <ele>2127</ele>
        <time>2018-10-17T08:03:00Z</time>
      </trkpt>
      <trkpt lat="45.84798" lon="6.44158">
        <ele>2127</ele>
        <time>2018-10-17T08:03:01Z</time>
      </trkpt>
      <trkpt lat="45.84798" lon="6.44158">
        <ele>2128</ele>
        <time>2018-10-17T08:03:02Z</time>
      </trkpt>
      <trkpt lat="45.84798" lon="6.44158">
        <ele>2128</ele>
        <time>2018-10-17T08:03:03Z</time>
      </trkpt>
      <trkpt lat="45.84802" lon="6.44159">
        <ele>2128</ele>
        <time>2018-10-17T08:03:04Z</time>
      </trkpt>
      <trkpt lat="45.84802" lon="6.44159">
        <ele>2128</ele>
        <time>2018-10-17T08:03:05Z</time>
      </trkpt>
      <trkpt lat="45.84803" lon="6.4416">
        <ele>2128</ele>
        <time>2018-10-17T08:03:06Z</time>
      </trkpt>
      <trkpt lat="45.84803" lon="6.4416">
        <ele>2128</ele>
        <time>2018-10-17T08:03:07Z</time>
      </trkpt>
      <trkpt lat="45.84803" lon="6.4416">
        <ele>2128</ele>
        <time>2018-10-17T08:03:08Z</time>
      </trkpt>
      <trkpt lat="45.84806" lon="6.44161">
        <ele>2128</ele>
        <time>2018-10-17T08:03:09Z</time>
      </trkpt>
      <trkpt lat="45.84806" lon="6.44161">
        <ele>2128</ele>
        <time>2018-10-17T08:03:10Z</time>
      </trkpt>
      <trkpt lat="45.84806" lon="6.44161">
        <ele>2128</ele>
        <time>2018-10-17T08:03:11Z</time>
      </trkpt>
      <trkpt lat="45.84808" lon="6.44162">
        <ele>2129</ele>
        <time>2018-10-17T08:03:12Z</time>
      </trkpt>
      <trkpt lat="45.84808" lon="6.44162">
        <ele>2129</ele>
        <time>2018-10-17T08:03:13Z</time>
      </trkpt>
      <trkpt lat="45.84808" lon="6.44162">
        <ele>2130</ele>
        <time>2018-10-17T08:03:14Z</time>
      </trkpt>
      <trkpt lat="45.84811" lon="6.44163">
        <ele>2130</ele>
        <time>2018-10-17T08:03:15Z</time>
      </trkpt>
      <trkpt lat="45.84811" lon="6.44163">
        <ele>2130</ele>
        <time>2018-10-17T08:03:16Z</time>
      </trkpt>
      <trkpt lat="45.84811" lon="6.44163">
        <ele>2130</ele>
        <time>2018-10-17T08:03:17Z</time>
      </trkpt>
      <trkpt lat="45.84813" lon="6.44165">
        <ele>2130</ele>
        <time>2018-10-17T08:03:18Z</time>
      </trkpt>
      <trkpt lat="45.84813" lon="6.44165">
        <ele>2130</ele>
        <time>2018-10-17T08:03:19Z</time>
      </trkpt>
      <trkpt lat="45.84813" lon="6.44165">
        <ele>2130</ele>
        <time>2018-10-17T08:03:20Z</time>
      </trkpt>
      <trkpt lat="45.84815" lon="6.44166">
        <ele>2131</ele>
        <time>2018-10-17T08:03:21Z</time>
      </trkpt>
      <trkpt lat="45.84815" lon="6.44166">
        <ele>2131</ele>
        <time>2018-10-17T08:03:22Z</time>
      </trkpt>
      <trkpt lat="45.84815" lon="6.44166">
        <ele>2131</ele>
        <time>2018-10-17T08:03:23Z</time>
      </trkpt>
      <trkpt lat="45.84815" lon="6.44166">
        <ele>2131</ele>
        <time>2018-10-17T08:03:24Z</time>
      </trkpt>
      <trkpt lat="45.84817" lon="6.44168">
        <ele>2131</ele>
        <time>2018-10-17T08:03:25Z</time>
      </trkpt>
      <trkpt lat="45.84817" lon="6.44168">
        <ele>2131</ele>
        <time>2018-10-17T08:03:26Z</time>
      </trkpt>
      <trkpt lat="45.84817" lon="6.44168">
        <ele>2131</ele>
        <time>2018-10-17T08:03:27Z</time>
      </trkpt>
      <trkpt lat="45.84817" lon="6.44168">
        <ele>2131</ele>
        <time>2018-10-17T08:03:28Z</time>
      </trkpt>
      <trkpt lat="45.84819" lon="6.44169">
        <ele>2132</ele>
        <time>2018-10-17T08:03:29Z</time>
      </trkpt>
      <trkpt lat="45.84819" lon="6.44169">
        <ele>2132</ele>
        <time>2018-10-17T08:03:30Z</time>
      </trkpt>
      <trkpt lat="45.84819" lon="6.44169">
        <ele>2132</ele>
        <time>2018-10-17T08:03:31Z</time>
      </trkpt>
      <trkpt lat="45.84822" lon="6.4417">
        <ele>2133</ele>
        <time>2018-10-17T08:03:32Z</time>
      </trkpt>
      <trkpt lat="45.84822" lon="6.4417">
        <ele>2133</ele>
        <time>2018-10-17T08:03:33Z</time>
      </trkpt>
      <trkpt lat="45.84822" lon="6.4417">
        <ele>2133</ele>
        <time>2018-10-17T08:03:34Z</time>
      </trkpt>
      <trkpt lat="45.84823" lon="6.44171">
        <ele>2133</ele>
        <time>2018-10-17T08:03:35Z</time>
      </trkpt>
      <trkpt lat="45.84823" lon="6.44171">
        <ele>2133</ele>
        <time>2018-10-17T08:03:36Z</time>
      </trkpt>
      <trkpt lat="45.84823" lon="6.44171">
        <ele>2134</ele>
        <time>2018-10-17T08:03:37Z</time>
      </trkpt>
      <trkpt lat="45.84825" lon="6.44173">
        <ele>2134</ele>
        <time>2018-10-17T08:03:38Z</time>
      </trkpt>
      <trkpt lat="45.84825" lon="6.44173">
        <ele>2134</ele>
        <time>2018-10-17T08:03:39Z</time>
      </trkpt>
      <trkpt lat="45.84825" lon="6.44173">
        <ele>2135</ele>
        <time>2018-10-17T08:03:40Z</time>
      </trkpt>
      <trkpt lat="45.84827" lon="6.44175">
        <ele>2135</ele>
        <time>2018-10-17T08:03:41Z</time>
      </trkpt>
      <trkpt lat="45.84827" lon="6.44175">
        <ele>2135</ele>
        <time>2018-10-17T08:03:42Z</time>
      </trkpt>
      <trkpt lat="45.84827" lon="6.44175">
        <ele>2135</ele>
        <time>2018-10-17T08:03:43Z</time>
      </trkpt>
      <trkpt lat="45.84829" lon="6.44176">
        <ele>2135</ele>
        <time>2018-10-17T08:03:44Z</time>
      </trkpt>
      <trkpt lat="45.84829" lon="6.44176">
        <ele>2135</ele>
        <time>2018-10-17T08:03:45Z</time>
      </trkpt>
      <trkpt lat="45.84829" lon="6.44176">
        <ele>2135</ele>
        <time>2018-10-17T08:03:46Z</time>
      </trkpt>
      <trkpt lat="45.84831" lon="6.44177">
        <ele>2136</ele>
        <time>2018-10-17T08:03:47Z</time>
      </trkpt>
      <trkpt lat="45.84831" lon="6.44177">
        <ele>2136</ele>
        <time>2018-10-17T08:03:48Z</time>
      </trkpt>
      <trkpt lat="45.84831" lon="6.44177">
        <ele>2136</ele>
        <time>2018-10-17T08:03:49Z</time>
      </trkpt>
      <trkpt lat="45.84834" lon="6.44178">
        <ele>2136</ele>
        <time>2018-10-17T08:03:50Z</time>
      </trkpt>
      <trkpt lat="45.84834" lon="6.44178">
        <ele>2136</ele>
        <time>2018-10-17T08:03:51Z</time>
      </trkpt>
      <trkpt lat="45.84834" lon="6.44178">
        <ele>2136</ele>
        <time>2018-10-17T08:03:52Z</time>
      </trkpt>
      <trkpt lat="45.84836" lon="6.44179">
        <ele>2136</ele>
        <time>2018-10-17T08:03:53Z</time>
      </trkpt>
      <trkpt lat="45.84836" lon="6.44179">
        <ele>2137</ele>
        <time>2018-10-17T08:03:54Z</time>
      </trkpt>
      <trkpt lat="45.84836" lon="6.44179">
        <ele>2137</ele>
        <time>2018-10-17T08:03:55Z</time>
      </trkpt>
      <trkpt lat="45.84839" lon="6.4418">
        <ele>2137</ele>
        <time>2018-10-17T08:03:56Z</time>
      </trkpt>
      <trkpt lat="45.84839" lon="6.4418">
        <ele>2138</ele>
        <time>2018-10-17T08:03:57Z</time>
      </trkpt>
      <trkpt lat="45.84839" lon="6.4418">
        <ele>2138</ele>
        <time>2018-10-17T08:03:58Z</time>
      </trkpt>
      <trkpt lat="45.84841" lon="6.44182">
        <ele>2138</ele>
        <time>2018-10-17T08:03:59Z</time>
      </trkpt>
      <trkpt lat="45.84841" lon="6.44182">
        <ele>2138</ele>
        <time>2018-10-17T08:04:00Z</time>
      </trkpt>
      <trkpt lat="45.84841" lon="6.44182">
        <ele>2138</ele>
        <time>2018-10-17T08:04:01Z</time>
      </trkpt>
      <trkpt lat="45.84843" lon="6.44183">
        <ele>2139</ele>
        <time>2018-10-17T08:04:02Z</time>
      </trkpt>
      <trkpt lat="45.84843" lon="6.44183">
        <ele>2139</ele>
        <time>2018-10-17T08:04:03Z</time>
      </trkpt>
      <trkpt lat="45.84843" lon="6.44183">
        <ele>2139</ele>
        <time>2018-10-17T08:04:04Z</time>
      </trkpt>
      <trkpt lat="45.84845" lon="6.44184">
        <ele>2139</ele>
        <time>2018-10-17T08:04:05Z</time>
      </trkpt>
      <trkpt lat="45.84845" lon="6.44184">
        <ele>2139</ele>
        <time>2018-10-17T08:04:06Z</time>
      </trkpt>
      <trkpt lat="45.84845" lon="6.44184">
        <ele>2140</ele>
        <time>2018-10-17T08:04:07Z</time>
      </trkpt>
      <trkpt lat="45.84847" lon="6.44186">
        <ele>2140</ele>
        <time>2018-10-17T08:04:08Z</time>
      </trkpt>
      <trkpt lat="45.84847" lon="6.44186">
        <ele>2140</ele>
        <time>2018-10-17T08:04:09Z</time>
      </trkpt>
      <trkpt lat="45.84847" lon="6.44186">
        <ele>2140</ele>
        <time>2018-10-17T08:04:10Z</time>
      </trkpt>
      <trkpt lat="45.84849" lon="6.44187">
        <ele>2140</ele>
        <time>2018-10-17T08:04:11Z</time>
      </trkpt>
      <trkpt lat="45.84849" lon="6.44187">
        <ele>2140</ele>
        <time>2018-10-17T08:04:12Z</time>
      </trkpt>
      <trkpt lat="45.84849" lon="6.44187">
        <ele>2141</ele>
        <time>2018-10-17T08:04:13Z</time>
      </trkpt>
      <trkpt lat="45.84851" lon="6.44187">
        <ele>2141</ele>
        <time>2018-10-17T08:04:14Z</time>
      </trkpt>
      <trkpt lat="45.84851" lon="6.44187">
        <ele>2141</ele>
        <time>2018-10-17T08:04:15Z</time>
      </trkpt>
      <trkpt lat="45.84853" lon="6.44188">
        <ele>2141</ele>
        <time>2018-10-17T08:04:16Z</time>
      </trkpt>
      <trkpt lat="45.84853" lon="6.44188">
        <ele>2141</ele>
        <time>2018-10-17T08:04:17Z</time>
      </trkpt>
      <trkpt lat="45.84853" lon="6.44188">
        <ele>2142</ele>
        <time>2018-10-17T08:04:18Z</time>
      </trkpt>
      <trkpt lat="45.84855" lon="6.4419">
        <ele>2142</ele>
        <time>2018-10-17T08:04:19Z</time>
      </trkpt>
      <trkpt lat="45.84855" lon="6.4419">
        <ele>2142</ele>
        <time>2018-10-17T08:04:20Z</time>
      </trkpt>
      <trkpt lat="45.84855" lon="6.4419">
        <ele>2144</ele>
        <time>2018-10-17T08:04:21Z</time>
      </trkpt>
      <trkpt lat="45.84857" lon="6.44192">
        <ele>2144</ele>
        <time>2018-10-17T08:04:22Z</time>
      </trkpt>
      <trkpt lat="45.84857" lon="6.44192">
        <ele>2144</ele>
        <time>2018-10-17T08:04:23Z</time>
      </trkpt>
      <trkpt lat="45.84857" lon="6.44192">
        <ele>2144</ele>
        <time>2018-10-17T08:04:24Z</time>
      </trkpt>
      <trkpt lat="45.84858" lon="6.44194">
        <ele>2144</ele>
        <time>2018-10-17T08:04:25Z</time>
      </trkpt>
      <trkpt lat="45.84858" lon="6.44194">
        <ele>2145</ele>
        <time>2018-10-17T08:04:26Z</time>
      </trkpt>
      <trkpt lat="45.84858" lon="6.44194">
        <ele>2145</ele>
        <time>2018-10-17T08:04:27Z</time>
      </trkpt>
      <trkpt lat="45.84858" lon="6.44194">
        <ele>2145</ele>
        <time>2018-10-17T08:04:28Z</time>
      </trkpt>
      <trkpt lat="45.84857" lon="6.44196">
        <ele>2145</ele>
        <time>2018-10-17T08:04:29Z</time>
      </trkpt>
      <trkpt lat="45.84857" lon="6.44196">
        <ele>2146</ele>
        <time>2018-10-17T08:04:30Z</time>
      </trkpt>
      <trkpt lat="45.84857" lon="6.44196">
        <ele>2146</ele>
        <time>2018-10-17T08:04:31Z</time>
      </trkpt>
      <trkpt lat="45.84856" lon="6.44198">
        <ele>2147</ele>
        <time>2018-10-17T08:04:32Z</time>
      </trkpt>
      <trkpt lat="45.84856" lon="6.44198">
        <ele>2147</ele>
        <time>2018-10-17T08:04:33Z</time>
      </trkpt>
      <trkpt lat="45.84856" lon="6.44198">
        <ele>2147</ele>
        <time>2018-10-17T08:04:34Z</time>
      </trkpt>
      <trkpt lat="45.84856" lon="6.44198">
        <ele>2148</ele>
        <time>2018-10-17T08:04:35Z</time>
      </trkpt>
      <trkpt lat="45.84856" lon="6.44198">
        <ele>2148</ele>
        <time>2018-10-17T08:04:36Z</time>
      </trkpt>
      <trkpt lat="45.84858" lon="6.44201">
        <ele>2148</ele>
        <time>2018-10-17T08:04:37Z</time>
      </trkpt>
      <trkpt lat="45.84858" lon="6.44201">
        <ele>2148</ele>
        <time>2018-10-17T08:04:38Z</time>
      </trkpt>
      <trkpt lat="45.84858" lon="6.44201">
        <ele>2148</ele>
        <time>2018-10-17T08:04:39Z</time>
      </trkpt>
      <trkpt lat="45.8486" lon="6.44202">
        <ele>2149</ele>
        <time>2018-10-17T08:04:40Z</time>
      </trkpt>
      <trkpt lat="45.8486" lon="6.44202">
        <ele>2149</ele>
        <time>2018-10-17T08:04:41Z</time>
      </trkpt>
      <trkpt lat="45.8486" lon="6.44202">
        <ele>2149</ele>
        <time>2018-10-17T08:04:42Z</time>
      </trkpt>
      <trkpt lat="45.8486" lon="6.44202">
        <ele>2148</ele>
        <time>2018-10-17T08:04:43Z</time>
      </trkpt>
      <trkpt lat="45.84862" lon="6.44202">
        <ele>2148</ele>
        <time>2018-10-17T08:04:44Z</time>
      </trkpt>
      <trkpt lat="45.84862" lon="6.44202">
        <ele>2149</ele>
        <time>2018-10-17T08:04:45Z</time>
      </trkpt>
      <trkpt lat="45.84862" lon="6.44202">
        <ele>2149</ele>
        <time>2018-10-17T08:04:46Z</time>
      </trkpt>
      <trkpt lat="45.84864" lon="6.44202">
        <ele>2149</ele>
        <time>2018-10-17T08:04:47Z</time>
      </trkpt>
      <trkpt lat="45.84864" lon="6.44202">
        <ele>2149</ele>
        <time>2018-10-17T08:04:48Z</time>
      </trkpt>
      <trkpt lat="45.84864" lon="6.44202">
        <ele>2149</ele>
        <time>2018-10-17T08:04:49Z</time>
      </trkpt>
      <trkpt lat="45.84864" lon="6.44202">
        <ele>2149</ele>
        <time>2018-10-17T08:04:50Z</time>
      </trkpt>
      <trkpt lat="45.84866" lon="6.44203">
        <ele>2149</ele>
        <time>2018-10-17T08:04:51Z</time>
      </trkpt>
      <trkpt lat="45.84866" lon="6.44203">
        <ele>2149</ele>
        <time>2018-10-17T08:04:52Z</time>
      </trkpt>
      <trkpt lat="45.84866" lon="6.44203">
        <ele>2150</ele>
        <time>2018-10-17T08:04:53Z</time>
      </trkpt>
      <trkpt lat="45.84866" lon="6.44203">
        <ele>2150</ele>
        <time>2018-10-17T08:04:54Z</time>
      </trkpt>
      <trkpt lat="45.84866" lon="6.44203">
        <ele>2150</ele>
        <time>2018-10-17T08:04:55Z</time>
      </trkpt>
      <trkpt lat="45.84867" lon="6.44205">
        <ele>2150</ele>
        <time>2018-10-17T08:04:56Z</time>
      </trkpt>
      <trkpt lat="45.84867" lon="6.44205">
        <ele>2151</ele>
        <time>2018-10-17T08:04:57Z</time>
      </trkpt>
      <trkpt lat="45.84867" lon="6.44205">
        <ele>2151</ele>
        <time>2018-10-17T08:04:58Z</time>
      </trkpt>
      <trkpt lat="45.84867" lon="6.44205">
        <ele>2151</ele>
        <time>2018-10-17T08:04:59Z</time>
      </trkpt>
      <trkpt lat="45.84868" lon="6.44208">
        <ele>2151</ele>
        <time>2018-10-17T08:05:00Z</time>
      </trkpt>
      <trkpt lat="45.84868" lon="6.44208">
        <ele>2152</ele>
        <time>2018-10-17T08:05:01Z</time>
      </trkpt>
      <trkpt lat="45.84868" lon="6.44208">
        <ele>2152</ele>
        <time>2018-10-17T08:05:02Z</time>
      </trkpt>
      <trkpt lat="45.84868" lon="6.44208">
        <ele>2152</ele>
        <time>2018-10-17T08:05:03Z</time>
      </trkpt>
      <trkpt lat="45.84867" lon="6.44211">
        <ele>2152</ele>
        <time>2018-10-17T08:05:04Z</time>
      </trkpt>
      <trkpt lat="45.84867" lon="6.44211">
        <ele>2153</ele>
        <time>2018-10-17T08:05:05Z</time>
      </trkpt>
      <trkpt lat="45.84867" lon="6.44211">
        <ele>2153</ele>
        <time>2018-10-17T08:05:06Z</time>
      </trkpt>
      <trkpt lat="45.84867" lon="6.44211">
        <ele>2153</ele>
        <time>2018-10-17T08:05:07Z</time>
      </trkpt>
      <trkpt lat="45.84867" lon="6.44211">
        <ele>2153</ele>
        <time>2018-10-17T08:05:08Z</time>
      </trkpt>
      <trkpt lat="45.84867" lon="6.44213">
        <ele>2153</ele>
        <time>2018-10-17T08:05:09Z</time>
      </trkpt>
      <trkpt lat="45.84867" lon="6.44213">
        <ele>2153</ele>
        <time>2018-10-17T08:05:10Z</time>
      </trkpt>
      <trkpt lat="45.84867" lon="6.44213">
        <ele>2154</ele>
        <time>2018-10-17T08:05:11Z</time>
      </trkpt>
      <trkpt lat="45.84868" lon="6.44215">
        <ele>2154</ele>
        <time>2018-10-17T08:05:12Z</time>
      </trkpt>
      <trkpt lat="45.84868" lon="6.44215">
        <ele>2154</ele>
        <time>2018-10-17T08:05:13Z</time>
      </trkpt>
      <trkpt lat="45.84868" lon="6.44215">
        <ele>2154</ele>
        <time>2018-10-17T08:05:14Z</time>
      </trkpt>
      <trkpt lat="45.84868" lon="6.44215">
        <ele>2155</ele>
        <time>2018-10-17T08:05:15Z</time>
      </trkpt>
      <trkpt lat="45.8487" lon="6.44217">
        <ele>2155</ele>
        <time>2018-10-17T08:05:16Z</time>
      </trkpt>
      <trkpt lat="45.8487" lon="6.44217">
        <ele>2155</ele>
        <time>2018-10-17T08:05:17Z</time>
      </trkpt>
      <trkpt lat="45.84872" lon="6.44217">
        <ele>2155</ele>
        <time>2018-10-17T08:05:18Z</time>
      </trkpt>
      <trkpt lat="45.84872" lon="6.44217">
        <ele>2156</ele>
        <time>2018-10-17T08:05:19Z</time>
      </trkpt>
      <trkpt lat="45.84872" lon="6.44217">
        <ele>2156</ele>
        <time>2018-10-17T08:05:20Z</time>
      </trkpt>
      <trkpt lat="45.84872" lon="6.44217">
        <ele>2156</ele>
        <time>2018-10-17T08:05:21Z</time>
      </trkpt>
      <trkpt lat="45.84874" lon="6.44217">
        <ele>2156</ele>
        <time>2018-10-17T08:05:22Z</time>
      </trkpt>
      <trkpt lat="45.84874" lon="6.44217">
        <ele>2156</ele>
        <time>2018-10-17T08:05:23Z</time>
      </trkpt>
      <trkpt lat="45.84874" lon="6.44217">
        <ele>2157</ele>
        <time>2018-10-17T08:05:24Z</time>
      </trkpt>
      <trkpt lat="45.84876" lon="6.44219">
        <ele>2157</ele>
        <time>2018-10-17T08:05:25Z</time>
      </trkpt>
      <trkpt lat="45.84876" lon="6.44219">
        <ele>2157</ele>
        <time>2018-10-17T08:05:26Z</time>
      </trkpt>
      <trkpt lat="45.84876" lon="6.44219">
        <ele>2157</ele>
        <time>2018-10-17T08:05:27Z</time>
      </trkpt>
      <trkpt lat="45.84876" lon="6.44219">
        <ele>2157</ele>
        <time>2018-10-17T08:05:28Z</time>
      </trkpt>
      <trkpt lat="45.84876" lon="6.44221">
        <ele>2158</ele>
        <time>2018-10-17T08:05:29Z</time>
      </trkpt>
      <trkpt lat="45.84876" lon="6.44221">
        <ele>2158</ele>
        <time>2018-10-17T08:05:30Z</time>
      </trkpt>
      <trkpt lat="45.84876" lon="6.44221">
        <ele>2158</ele>
        <time>2018-10-17T08:05:31Z</time>
      </trkpt>
      <trkpt lat="45.84876" lon="6.44221">
        <ele>2158</ele>
        <time>2018-10-17T08:05:32Z</time>
      </trkpt>
      <trkpt lat="45.84876" lon="6.44221">
        <ele>2158</ele>
        <time>2018-10-17T08:05:33Z</time>
      </trkpt>
      <trkpt lat="45.84878" lon="6.44223">
        <ele>2159</ele>
        <time>2018-10-17T08:05:34Z</time>
      </trkpt>
      <trkpt lat="45.84878" lon="6.44223">
        <ele>2159</ele>
        <time>2018-10-17T08:05:35Z</time>
      </trkpt>
      <trkpt lat="45.84878" lon="6.44223">
        <ele>2159</ele>
        <time>2018-10-17T08:05:36Z</time>
      </trkpt>
      <trkpt lat="45.84878" lon="6.44223">
        <ele>2160</ele>
        <time>2018-10-17T08:05:37Z</time>
      </trkpt>
      <trkpt lat="45.84878" lon="6.44226">
        <ele>2160</ele>
        <time>2018-10-17T08:05:38Z</time>
      </trkpt>
      <trkpt lat="45.84878" lon="6.44226">
        <ele>2160</ele>
        <time>2018-10-17T08:05:39Z</time>
      </trkpt>
      <trkpt lat="45.84878" lon="6.44226">
        <ele>2161</ele>
        <time>2018-10-17T08:05:40Z</time>
      </trkpt>
      <trkpt lat="45.84878" lon="6.44226">
        <ele>2161</ele>
        <time>2018-10-17T08:05:41Z</time>
      </trkpt>
      <trkpt lat="45.84878" lon="6.44226">
        <ele>2161</ele>
        <time>2018-10-17T08:05:42Z</time>
      </trkpt>
      <trkpt lat="45.84877" lon="6.44229">
        <ele>2161</ele>
        <time>2018-10-17T08:05:43Z</time>
      </trkpt>
      <trkpt lat="45.84877" lon="6.44229">
        <ele>2161</ele>
        <time>2018-10-17T08:05:44Z</time>
      </trkpt>
      <trkpt lat="45.84877" lon="6.44229">
        <ele>2162</ele>
        <time>2018-10-17T08:05:45Z</time>
      </trkpt>
      <trkpt lat="45.84877" lon="6.44229">
        <ele>2162</ele>
        <time>2018-10-17T08:05:46Z</time>
      </trkpt>
      <trkpt lat="45.84877" lon="6.44229">
        <ele>2162</ele>
        <time>2018-10-17T08:05:47Z</time>
      </trkpt>
      <trkpt lat="45.84878" lon="6.44231">
        <ele>2163</ele>
        <time>2018-10-17T08:05:48Z</time>
      </trkpt>
      <trkpt lat="45.84878" lon="6.44231">
        <ele>2163</ele>
        <time>2018-10-17T08:05:49Z</time>
      </trkpt>
      <trkpt lat="45.84878" lon="6.44231">
        <ele>2163</ele>
        <time>2018-10-17T08:05:50Z</time>
      </trkpt>
      <trkpt lat="45.8488" lon="6.44232">
        <ele>2163</ele>
        <time>2018-10-17T08:05:51Z</time>
      </trkpt>
      <trkpt lat="45.8488" lon="6.44232">
        <ele>2163</ele>
        <time>2018-10-17T08:05:52Z</time>
      </trkpt>
      <trkpt lat="45.8488" lon="6.44232">
        <ele>2163</ele>
        <time>2018-10-17T08:05:53Z</time>
      </trkpt>
      <trkpt lat="45.8488" lon="6.44232">
        <ele>2163</ele>
        <time>2018-10-17T08:05:54Z</time>
      </trkpt>
      <trkpt lat="45.8488" lon="6.44235">
        <ele>2164</ele>
        <time>2018-10-17T08:05:55Z</time>
      </trkpt>
      <trkpt lat="45.8488" lon="6.44235">
        <ele>2164</ele>
        <time>2018-10-17T08:05:56Z</time>
      </trkpt>
      <trkpt lat="45.8488" lon="6.44235">
        <ele>2164</ele>
        <time>2018-10-17T08:05:57Z</time>
      </trkpt>
      <trkpt lat="45.8488" lon="6.44235">
        <ele>2164</ele>
        <time>2018-10-17T08:05:58Z</time>
      </trkpt>
      <trkpt lat="45.84879" lon="6.44237">
        <ele>2164</ele>
        <time>2018-10-17T08:05:59Z</time>
      </trkpt>
      <trkpt lat="45.84879" lon="6.44237">
        <ele>2165</ele>
        <time>2018-10-17T08:06:00Z</time>
      </trkpt>
      <trkpt lat="45.84879" lon="6.44237">
        <ele>2165</ele>
        <time>2018-10-17T08:06:01Z</time>
      </trkpt>
      <trkpt lat="45.84879" lon="6.44237">
        <ele>2165</ele>
        <time>2018-10-17T08:06:02Z</time>
      </trkpt>
      <trkpt lat="45.84879" lon="6.44237">
        <ele>2165</ele>
        <time>2018-10-17T08:06:03Z</time>
      </trkpt>
      <trkpt lat="45.84879" lon="6.4424">
        <ele>2165</ele>
        <time>2018-10-17T08:06:04Z</time>
      </trkpt>
      <trkpt lat="45.84879" lon="6.4424">
        <ele>2166</ele>
        <time>2018-10-17T08:06:05Z</time>
      </trkpt>
      <trkpt lat="45.84879" lon="6.4424">
        <ele>2166</ele>
        <time>2018-10-17T08:06:06Z</time>
      </trkpt>
      <trkpt lat="45.84879" lon="6.4424">
        <ele>2166</ele>
        <time>2018-10-17T08:06:07Z</time>
      </trkpt>
      <trkpt lat="45.84879" lon="6.4424">
        <ele>2167</ele>
        <time>2018-10-17T08:06:08Z</time>
      </trkpt>
      <trkpt lat="45.84881" lon="6.44241">
        <ele>2167</ele>
        <time>2018-10-17T08:06:09Z</time>
      </trkpt>
      <trkpt lat="45.84881" lon="6.44241">
        <ele>2168</ele>
        <time>2018-10-17T08:06:10Z</time>
      </trkpt>
      <trkpt lat="45.84881" lon="6.44241">
        <ele>2168</ele>
        <time>2018-10-17T08:06:11Z</time>
      </trkpt>
      <trkpt lat="45.84883" lon="6.44242">
        <ele>2168</ele>
        <time>2018-10-17T08:06:12Z</time>
      </trkpt>
      <trkpt lat="45.84883" lon="6.44242">
        <ele>2168</ele>
        <time>2018-10-17T08:06:13Z</time>
      </trkpt>
      <trkpt lat="45.84883" lon="6.44242">
        <ele>2168</ele>
        <time>2018-10-17T08:06:14Z</time>
      </trkpt>
      <trkpt lat="45.84883" lon="6.44242">
        <ele>2168</ele>
        <time>2018-10-17T08:06:15Z</time>
      </trkpt>
      <trkpt lat="45.84883" lon="6.44242">
        <ele>2168</ele>
        <time>2018-10-17T08:06:16Z</time>
      </trkpt>
      <trkpt lat="45.84884" lon="6.44245">
        <ele>2168</ele>
        <time>2018-10-17T08:06:17Z</time>
      </trkpt>
      <trkpt lat="45.84884" lon="6.44245">
        <ele>2168</ele>
        <time>2018-10-17T08:06:18Z</time>
      </trkpt>
      <trkpt lat="45.84884" lon="6.44245">
        <ele>2168</ele>
        <time>2018-10-17T08:06:19Z</time>
      </trkpt>
      <trkpt lat="45.84884" lon="6.44245">
        <ele>2170</ele>
        <time>2018-10-17T08:06:20Z</time>
      </trkpt>
      <trkpt lat="45.84884" lon="6.44245">
        <ele>2170</ele>
        <time>2018-10-17T08:06:21Z</time>
      </trkpt>
      <trkpt lat="45.84884" lon="6.44248">
        <ele>2170</ele>
        <time>2018-10-17T08:06:22Z</time>
      </trkpt>
      <trkpt lat="45.84884" lon="6.44248">
        <ele>2171</ele>
        <time>2018-10-17T08:06:23Z</time>
      </trkpt>
      <trkpt lat="45.84884" lon="6.44248">
        <ele>2171</ele>
        <time>2018-10-17T08:06:24Z</time>
      </trkpt>
      <trkpt lat="45.84884" lon="6.44248">
        <ele>2171</ele>
        <time>2018-10-17T08:06:25Z</time>
      </trkpt>
      <trkpt lat="45.84886" lon="6.4425">
        <ele>2171</ele>
        <time>2018-10-17T08:06:26Z</time>
      </trkpt>
      <trkpt lat="45.84886" lon="6.4425">
        <ele>2171</ele>
        <time>2018-10-17T08:06:27Z</time>
      </trkpt>
      <trkpt lat="45.84886" lon="6.4425">
        <ele>2172</ele>
        <time>2018-10-17T08:06:28Z</time>
      </trkpt>
      <trkpt lat="45.84886" lon="6.4425">
        <ele>2172</ele>
        <time>2018-10-17T08:06:29Z</time>
      </trkpt>
      <trkpt lat="45.84888" lon="6.44251">
        <ele>2172</ele>
        <time>2018-10-17T08:06:30Z</time>
      </trkpt>
      <trkpt lat="45.84888" lon="6.44251">
        <ele>2172</ele>
        <time>2018-10-17T08:06:31Z</time>
      </trkpt>
      <trkpt lat="45.84888" lon="6.44251">
        <ele>2172</ele>
        <time>2018-10-17T08:06:32Z</time>
      </trkpt>
      <trkpt lat="45.84889" lon="6.44252">
        <ele>2173</ele>
        <time>2018-10-17T08:06:33Z</time>
      </trkpt>
      <trkpt lat="45.84889" lon="6.44252">
        <ele>2173</ele>
        <time>2018-10-17T08:06:34Z</time>
      </trkpt>
      <trkpt lat="45.84889" lon="6.44252">
        <ele>2173</ele>
        <time>2018-10-17T08:06:35Z</time>
      </trkpt>
      <trkpt lat="45.84889" lon="6.44252">
        <ele>2173</ele>
        <time>2018-10-17T08:06:36Z</time>
      </trkpt>
      <trkpt lat="45.84892" lon="6.44252">
        <ele>2173</ele>
        <time>2018-10-17T08:06:37Z</time>
      </trkpt>
      <trkpt lat="45.84892" lon="6.44252">
        <ele>2174</ele>
        <time>2018-10-17T08:06:38Z</time>
      </trkpt>
      <trkpt lat="45.84892" lon="6.44252">
        <ele>2174</ele>
        <time>2018-10-17T08:06:39Z</time>
      </trkpt>
      <trkpt lat="45.84892" lon="6.44252">
        <ele>2175</ele>
        <time>2018-10-17T08:06:40Z</time>
      </trkpt>
      <trkpt lat="45.84893" lon="6.44254">
        <ele>2175</ele>
        <time>2018-10-17T08:06:41Z</time>
      </trkpt>
      <trkpt lat="45.84893" lon="6.44254">
        <ele>2175</ele>
        <time>2018-10-17T08:06:42Z</time>
      </trkpt>
      <trkpt lat="45.84893" lon="6.44254">
        <ele>2175</ele>
        <time>2018-10-17T08:06:43Z</time>
      </trkpt>
      <trkpt lat="45.84893" lon="6.44254">
        <ele>2175</ele>
        <time>2018-10-17T08:06:44Z</time>
      </trkpt>
      <trkpt lat="45.84893" lon="6.44254">
        <ele>2175</ele>
        <time>2018-10-17T08:06:45Z</time>
      </trkpt>
      <trkpt lat="45.84893" lon="6.44254">
        <ele>2175</ele>
        <time>2018-10-17T08:06:46Z</time>
      </trkpt>
      <trkpt lat="45.84893" lon="6.44254">
        <ele>2175</ele>
        <time>2018-10-17T08:06:47Z</time>
      </trkpt>
      <trkpt lat="45.84895" lon="6.44255">
        <ele>2176</ele>
        <time>2018-10-17T08:06:48Z</time>
      </trkpt>
      <trkpt lat="45.84895" lon="6.44255">
        <ele>2176</ele>
        <time>2018-10-17T08:06:49Z</time>
      </trkpt>
      <trkpt lat="45.84895" lon="6.44255">
        <ele>2176</ele>
        <time>2018-10-17T08:06:50Z</time>
      </trkpt>
      <trkpt lat="45.84897" lon="6.44255">
        <ele>2177</ele>
        <time>2018-10-17T08:06:51Z</time>
      </trkpt>
      <trkpt lat="45.84897" lon="6.44255">
        <ele>2177</ele>
        <time>2018-10-17T08:06:52Z</time>
      </trkpt>
      <trkpt lat="45.84897" lon="6.44255">
        <ele>2178</ele>
        <time>2018-10-17T08:06:53Z</time>
      </trkpt>
      <trkpt lat="45.84899" lon="6.44257">
        <ele>2178</ele>
        <time>2018-10-17T08:06:54Z</time>
      </trkpt>
      <trkpt lat="45.84899" lon="6.44257">
        <ele>2178</ele>
        <time>2018-10-17T08:06:55Z</time>
      </trkpt>
      <trkpt lat="45.84899" lon="6.44257">
        <ele>2178</ele>
        <time>2018-10-17T08:06:56Z</time>
      </trkpt>
      <trkpt lat="45.84899" lon="6.44257">
        <ele>2178</ele>
        <time>2018-10-17T08:06:57Z</time>
      </trkpt>
      <trkpt lat="45.84899" lon="6.44257">
        <ele>2178</ele>
        <time>2018-10-17T08:06:58Z</time>
      </trkpt>
      <trkpt lat="45.84898" lon="6.4426">
        <ele>2178</ele>
        <time>2018-10-17T08:06:59Z</time>
      </trkpt>
      <trkpt lat="45.84898" lon="6.4426">
        <ele>2178</ele>
        <time>2018-10-17T08:07:00Z</time>
      </trkpt>
      <trkpt lat="45.84898" lon="6.4426">
        <ele>2179</ele>
        <time>2018-10-17T08:07:01Z</time>
      </trkpt>
      <trkpt lat="45.84898" lon="6.4426">
        <ele>2179</ele>
        <time>2018-10-17T08:07:02Z</time>
      </trkpt>
      <trkpt lat="45.84898" lon="6.4426">
        <ele>2180</ele>
        <time>2018-10-17T08:07:03Z</time>
      </trkpt>
      <trkpt lat="45.84898" lon="6.4426">
        <ele>2180</ele>
        <time>2018-10-17T08:07:04Z</time>
      </trkpt>
      <trkpt lat="45.849" lon="6.44261">
        <ele>2180</ele>
        <time>2018-10-17T08:07:05Z</time>
      </trkpt>
      <trkpt lat="45.849" lon="6.44261">
        <ele>2180</ele>
        <time>2018-10-17T08:07:06Z</time>
      </trkpt>
      <trkpt lat="45.849" lon="6.44261">
        <ele>2180</ele>
        <time>2018-10-17T08:07:07Z</time>
      </trkpt>
      <trkpt lat="45.84902" lon="6.44259">
        <ele>2180</ele>
        <time>2018-10-17T08:07:08Z</time>
      </trkpt>
      <trkpt lat="45.84902" lon="6.44259">
        <ele>2180</ele>
        <time>2018-10-17T08:07:09Z</time>
      </trkpt>
      <trkpt lat="45.84902" lon="6.44259">
        <ele>2180</ele>
        <time>2018-10-17T08:07:10Z</time>
      </trkpt>
      <trkpt lat="45.84904" lon="6.44258">
        <ele>2180</ele>
        <time>2018-10-17T08:07:11Z</time>
      </trkpt>
      <trkpt lat="45.84904" lon="6.44258">
        <ele>2180</ele>
        <time>2018-10-17T08:07:12Z</time>
      </trkpt>
      <trkpt lat="45.84904" lon="6.44258">
        <ele>2180</ele>
        <time>2018-10-17T08:07:13Z</time>
      </trkpt>
      <trkpt lat="45.84904" lon="6.44258">
        <ele>2180</ele>
        <time>2018-10-17T08:07:14Z</time>
      </trkpt>
      <trkpt lat="45.84906" lon="6.44255">
        <ele>2180</ele>
        <time>2018-10-17T08:07:15Z</time>
      </trkpt>
      <trkpt lat="45.84906" lon="6.44255">
        <ele>2181</ele>
        <time>2018-10-17T08:07:16Z</time>
      </trkpt>
      <trkpt lat="45.84906" lon="6.44255">
        <ele>2181</ele>
        <time>2018-10-17T08:07:17Z</time>
      </trkpt>
      <trkpt lat="45.84906" lon="6.44255">
        <ele>2181</ele>
        <time>2018-10-17T08:07:18Z</time>
      </trkpt>
      <trkpt lat="45.84906" lon="6.44255">
        <ele>2181</ele>
        <time>2018-10-17T08:07:19Z</time>
      </trkpt>
      <trkpt lat="45.84906" lon="6.44255">
        <ele>2182</ele>
        <time>2018-10-17T08:07:20Z</time>
      </trkpt>
      <trkpt lat="45.84906" lon="6.44255">
        <ele>2182</ele>
        <time>2018-10-17T08:07:21Z</time>
      </trkpt>
      <trkpt lat="45.84906" lon="6.44255">
        <ele>2182</ele>
        <time>2018-10-17T08:07:22Z</time>
      </trkpt>
      <trkpt lat="45.84906" lon="6.44255">
        <ele>2183</ele>
        <time>2018-10-17T08:07:23Z</time>
      </trkpt>
      <trkpt lat="45.84907" lon="6.44257">
        <ele>2183</ele>
        <time>2018-10-17T08:07:24Z</time>
      </trkpt>
      <trkpt lat="45.84907" lon="6.44257">
        <ele>2183</ele>
        <time>2018-10-17T08:07:25Z</time>
      </trkpt>
      <trkpt lat="45.84907" lon="6.44257">
        <ele>2184</ele>
        <time>2018-10-17T08:07:26Z</time>
      </trkpt>
      <trkpt lat="45.84907" lon="6.44257">
        <ele>2184</ele>
        <time>2018-10-17T08:07:27Z</time>
      </trkpt>
      <trkpt lat="45.84909" lon="6.44256">
        <ele>2184</ele>
        <time>2018-10-17T08:07:28Z</time>
      </trkpt>
      <trkpt lat="45.84909" lon="6.44256">
        <ele>2184</ele>
        <time>2018-10-17T08:07:29Z</time>
      </trkpt>
      <trkpt lat="45.84909" lon="6.44256">
        <ele>2184</ele>
        <time>2018-10-17T08:07:30Z</time>
      </trkpt>
      <trkpt lat="45.8491" lon="6.44254">
        <ele>2185</ele>
        <time>2018-10-17T08:07:31Z</time>
      </trkpt>
      <trkpt lat="45.8491" lon="6.44254">
        <ele>2185</ele>
        <time>2018-10-17T08:07:32Z</time>
      </trkpt>
      <trkpt lat="45.8491" lon="6.44254">
        <ele>2185</ele>
        <time>2018-10-17T08:07:33Z</time>
      </trkpt>
      <trkpt lat="45.8491" lon="6.44254">
        <ele>2185</ele>
        <time>2018-10-17T08:07:34Z</time>
      </trkpt>
      <trkpt lat="45.8491" lon="6.44254">
        <ele>2185</ele>
        <time>2018-10-17T08:07:35Z</time>
      </trkpt>
      <trkpt lat="45.84912" lon="6.44256">
        <ele>2186</ele>
        <time>2018-10-17T08:07:36Z</time>
      </trkpt>
      <trkpt lat="45.84912" lon="6.44256">
        <ele>2186</ele>
        <time>2018-10-17T08:07:37Z</time>
      </trkpt>
      <trkpt lat="45.84912" lon="6.44256">
        <ele>2186</ele>
        <time>2018-10-17T08:07:38Z</time>
      </trkpt>
      <trkpt lat="45.84912" lon="6.44256">
        <ele>2186</ele>
        <time>2018-10-17T08:07:39Z</time>
      </trkpt>
      <trkpt lat="45.84912" lon="6.44256">
        <ele>2186</ele>
        <time>2018-10-17T08:07:40Z</time>
      </trkpt>
      <trkpt lat="45.84914" lon="6.44253">
        <ele>2186</ele>
        <time>2018-10-17T08:07:41Z</time>
      </trkpt>
      <trkpt lat="45.84914" lon="6.44253">
        <ele>2187</ele>
        <time>2018-10-17T08:07:42Z</time>
      </trkpt>
      <trkpt lat="45.84914" lon="6.44253">
        <ele>2187</ele>
        <time>2018-10-17T08:07:43Z</time>
      </trkpt>
      <trkpt lat="45.84916" lon="6.44251">
        <ele>2187</ele>
        <time>2018-10-17T08:07:44Z</time>
      </trkpt>
      <trkpt lat="45.84916" lon="6.44251">
        <ele>2187</ele>
        <time>2018-10-17T08:07:45Z</time>
      </trkpt>
      <trkpt lat="45.84916" lon="6.44251">
        <ele>2187</ele>
        <time>2018-10-17T08:07:46Z</time>
      </trkpt>
      <trkpt lat="45.84918" lon="6.44248">
        <ele>2188</ele>
        <time>2018-10-17T08:07:47Z</time>
      </trkpt>
      <trkpt lat="45.84918" lon="6.44248">
        <ele>2188</ele>
        <time>2018-10-17T08:07:48Z</time>
      </trkpt>
      <trkpt lat="45.84918" lon="6.44248">
        <ele>2188</ele>
        <time>2018-10-17T08:07:49Z</time>
      </trkpt>
      <trkpt lat="45.84918" lon="6.44248">
        <ele>2188</ele>
        <time>2018-10-17T08:07:50Z</time>
      </trkpt>
      <trkpt lat="45.84918" lon="6.44248">
        <ele>2188</ele>
        <time>2018-10-17T08:07:51Z</time>
      </trkpt>
      <trkpt lat="45.84918" lon="6.44248">
        <ele>2188</ele>
        <time>2018-10-17T08:07:52Z</time>
      </trkpt>
      <trkpt lat="45.84918" lon="6.44248">
        <ele>2188</ele>
        <time>2018-10-17T08:07:53Z</time>
      </trkpt>
      <trkpt lat="45.84919" lon="6.44246">
        <ele>2188</ele>
        <time>2018-10-17T08:07:54Z</time>
      </trkpt>
      <trkpt lat="45.84919" lon="6.44246">
        <ele>2188</ele>
        <time>2018-10-17T08:07:55Z</time>
      </trkpt>
      <trkpt lat="45.84921" lon="6.44243">
        <ele>2188</ele>
        <time>2018-10-17T08:07:56Z</time>
      </trkpt>
      <trkpt lat="45.84921" lon="6.44243">
        <ele>2188</ele>
        <time>2018-10-17T08:07:57Z</time>
      </trkpt>
      <trkpt lat="45.84922" lon="6.44241">
        <ele>2188</ele>
        <time>2018-10-17T08:07:58Z</time>
      </trkpt>
      <trkpt lat="45.84922" lon="6.44241">
        <ele>2188</ele>
        <time>2018-10-17T08:07:59Z</time>
      </trkpt>
      <trkpt lat="45.84924" lon="6.44239">
        <ele>2189</ele>
        <time>2018-10-17T08:08:00Z</time>
      </trkpt>
      <trkpt lat="45.84924" lon="6.44239">
        <ele>2189</ele>
        <time>2018-10-17T08:08:01Z</time>
      </trkpt>
      <trkpt lat="45.84925" lon="6.44237">
        <ele>2190</ele>
        <time>2018-10-17T08:08:02Z</time>
      </trkpt>
      <trkpt lat="45.84925" lon="6.44237">
        <ele>2190</ele>
        <time>2018-10-17T08:08:03Z</time>
      </trkpt>
      <trkpt lat="45.84926" lon="6.44234">
        <ele>2190</ele>
        <time>2018-10-17T08:08:04Z</time>
      </trkpt>
      <trkpt lat="45.84926" lon="6.44234">
        <ele>2190</ele>
        <time>2018-10-17T08:08:05Z</time>
      </trkpt>
      <trkpt lat="45.84926" lon="6.44234">
        <ele>2191</ele>
        <time>2018-10-17T08:08:06Z</time>
      </trkpt>
      <trkpt lat="45.84928" lon="6.44231">
        <ele>2191</ele>
        <time>2018-10-17T08:08:07Z</time>
      </trkpt>
      <trkpt lat="45.84928" lon="6.44231">
        <ele>2191</ele>
        <time>2018-10-17T08:08:08Z</time>
      </trkpt>
      <trkpt lat="45.84928" lon="6.44231">
        <ele>2192</ele>
        <time>2018-10-17T08:08:09Z</time>
      </trkpt>
      <trkpt lat="45.84929" lon="6.4423">
        <ele>2192</ele>
        <time>2018-10-17T08:08:10Z</time>
      </trkpt>
      <trkpt lat="45.84929" lon="6.4423">
        <ele>2192</ele>
        <time>2018-10-17T08:08:11Z</time>
      </trkpt>
      <trkpt lat="45.84929" lon="6.4423">
        <ele>2192</ele>
        <time>2018-10-17T08:08:12Z</time>
      </trkpt>
      <trkpt lat="45.8493" lon="6.44226">
        <ele>2192</ele>
        <time>2018-10-17T08:08:13Z</time>
      </trkpt>
      <trkpt lat="45.8493" lon="6.44226">
        <ele>2193</ele>
        <time>2018-10-17T08:08:14Z</time>
      </trkpt>
      <trkpt lat="45.84932" lon="6.44222">
        <ele>2193</ele>
        <time>2018-10-17T08:08:15Z</time>
      </trkpt>
      <trkpt lat="45.84932" lon="6.44222">
        <ele>2193</ele>
        <time>2018-10-17T08:08:16Z</time>
      </trkpt>
      <trkpt lat="45.84932" lon="6.44222">
        <ele>2193</ele>
        <time>2018-10-17T08:08:17Z</time>
      </trkpt>
      <trkpt lat="45.84932" lon="6.44222">
        <ele>2193</ele>
        <time>2018-10-17T08:08:18Z</time>
      </trkpt>
      <trkpt lat="45.84932" lon="6.44222">
        <ele>2193</ele>
        <time>2018-10-17T08:08:19Z</time>
      </trkpt>
      <trkpt lat="45.84932" lon="6.44222">
        <ele>2193</ele>
        <time>2018-10-17T08:08:20Z</time>
      </trkpt>
      <trkpt lat="45.84933" lon="6.4422">
        <ele>2193</ele>
        <time>2018-10-17T08:08:21Z</time>
      </trkpt>
      <trkpt lat="45.84933" lon="6.4422">
        <ele>2193</ele>
        <time>2018-10-17T08:08:22Z</time>
      </trkpt>
      <trkpt lat="45.84933" lon="6.4422">
        <ele>2193</ele>
        <time>2018-10-17T08:08:23Z</time>
      </trkpt>
      <trkpt lat="45.84934" lon="6.44216">
        <ele>2193</ele>
        <time>2018-10-17T08:08:24Z</time>
      </trkpt>
      <trkpt lat="45.84934" lon="6.44216">
        <ele>2193</ele>
        <time>2018-10-17T08:08:25Z</time>
      </trkpt>
      <trkpt lat="45.84934" lon="6.44212">
        <ele>2193</ele>
        <time>2018-10-17T08:08:26Z</time>
      </trkpt>
      <trkpt lat="45.84934" lon="6.44212">
        <ele>2193</ele>
        <time>2018-10-17T08:08:27Z</time>
      </trkpt>
      <trkpt lat="45.84935" lon="6.4421">
        <ele>2193</ele>
        <time>2018-10-17T08:08:28Z</time>
      </trkpt>
      <trkpt lat="45.84935" lon="6.4421">
        <ele>2194</ele>
        <time>2018-10-17T08:08:29Z</time>
      </trkpt>
      <trkpt lat="45.84935" lon="6.44205">
        <ele>2194</ele>
        <time>2018-10-17T08:08:30Z</time>
      </trkpt>
      <trkpt lat="45.84935" lon="6.44205">
        <ele>2194</ele>
        <time>2018-10-17T08:08:31Z</time>
      </trkpt>
      <trkpt lat="45.84935" lon="6.44203">
        <ele>2194</ele>
        <time>2018-10-17T08:08:32Z</time>
      </trkpt>
      <trkpt lat="45.84935" lon="6.44203">
        <ele>2196</ele>
        <time>2018-10-17T08:08:33Z</time>
      </trkpt>
      <trkpt lat="45.84936" lon="6.442">
        <ele>2196</ele>
        <time>2018-10-17T08:08:34Z</time>
      </trkpt>
      <trkpt lat="45.84936" lon="6.442">
        <ele>2196</ele>
        <time>2018-10-17T08:08:35Z</time>
      </trkpt>
      <trkpt lat="45.84936" lon="6.442">
        <ele>2196</ele>
        <time>2018-10-17T08:08:36Z</time>
      </trkpt>
      <trkpt lat="45.84936" lon="6.442">
        <ele>2196</ele>
        <time>2018-10-17T08:08:37Z</time>
      </trkpt>
      <trkpt lat="45.84936" lon="6.44197">
        <ele>2196</ele>
        <time>2018-10-17T08:08:38Z</time>
      </trkpt>
      <trkpt lat="45.84936" lon="6.44197">
        <ele>2196</ele>
        <time>2018-10-17T08:08:39Z</time>
      </trkpt>
      <trkpt lat="45.84936" lon="6.44197">
        <ele>2197</ele>
        <time>2018-10-17T08:08:40Z</time>
      </trkpt>
      <trkpt lat="45.84936" lon="6.44197">
        <ele>2197</ele>
        <time>2018-10-17T08:08:41Z</time>
      </trkpt>
      <trkpt lat="45.84936" lon="6.44197">
        <ele>2197</ele>
        <time>2018-10-17T08:08:42Z</time>
      </trkpt>
      <trkpt lat="45.84938" lon="6.44194">
        <ele>2197</ele>
        <time>2018-10-17T08:08:43Z</time>
      </trkpt>
      <trkpt lat="45.84938" lon="6.44194">
        <ele>2197</ele>
        <time>2018-10-17T08:08:44Z</time>
      </trkpt>
      <trkpt lat="45.84938" lon="6.44194">
        <ele>2198</ele>
        <time>2018-10-17T08:08:45Z</time>
      </trkpt>
      <trkpt lat="45.84938" lon="6.44194">
        <ele>2198</ele>
        <time>2018-10-17T08:08:46Z</time>
      </trkpt>
      <trkpt lat="45.84939" lon="6.44192">
        <ele>2198</ele>
        <time>2018-10-17T08:08:47Z</time>
      </trkpt>
      <trkpt lat="45.84939" lon="6.44192">
        <ele>2198</ele>
        <time>2018-10-17T08:08:48Z</time>
      </trkpt>
      <trkpt lat="45.84939" lon="6.44192">
        <ele>2198</ele>
        <time>2018-10-17T08:08:49Z</time>
      </trkpt>
      <trkpt lat="45.84939" lon="6.44192">
        <ele>2198</ele>
        <time>2018-10-17T08:08:50Z</time>
      </trkpt>
      <trkpt lat="45.84939" lon="6.44189">
        <ele>2198</ele>
        <time>2018-10-17T08:08:51Z</time>
      </trkpt>
      <trkpt lat="45.84939" lon="6.44189">
        <ele>2198</ele>
        <time>2018-10-17T08:08:52Z</time>
      </trkpt>
      <trkpt lat="45.84939" lon="6.44189">
        <ele>2199</ele>
        <time>2018-10-17T08:08:53Z</time>
      </trkpt>
      <trkpt lat="45.84939" lon="6.44189">
        <ele>2199</ele>
        <time>2018-10-17T08:08:54Z</time>
      </trkpt>
      <trkpt lat="45.84939" lon="6.44189">
        <ele>2199</ele>
        <time>2018-10-17T08:08:55Z</time>
      </trkpt>
      <trkpt lat="45.84939" lon="6.44189">
        <ele>2199</ele>
        <time>2018-10-17T08:08:56Z</time>
      </trkpt>
      <trkpt lat="45.84939" lon="6.44189">
        <ele>2199</ele>
        <time>2018-10-17T08:08:57Z</time>
      </trkpt>
      <trkpt lat="45.84939" lon="6.44189">
        <ele>2200</ele>
        <time>2018-10-17T08:08:58Z</time>
      </trkpt>
      <trkpt lat="45.84939" lon="6.44189">
        <ele>2201</ele>
        <time>2018-10-17T08:08:59Z</time>
      </trkpt>
      <trkpt lat="45.84939" lon="6.44189">
        <ele>2201</ele>
        <time>2018-10-17T08:09:00Z</time>
      </trkpt>
      <trkpt lat="45.84939" lon="6.44189">
        <ele>2201</ele>
        <time>2018-10-17T08:09:01Z</time>
      </trkpt>
      <trkpt lat="45.84939" lon="6.44189">
        <ele>2201</ele>
        <time>2018-10-17T08:09:02Z</time>
      </trkpt>
      <trkpt lat="45.84939" lon="6.44189">
        <ele>2201</ele>
        <time>2018-10-17T08:09:03Z</time>
      </trkpt>
      <trkpt lat="45.84939" lon="6.44189">
        <ele>2201</ele>
        <time>2018-10-17T08:09:04Z</time>
      </trkpt>
      <trkpt lat="45.8494" lon="6.44187">
        <ele>2201</ele>
        <time>2018-10-17T08:09:05Z</time>
      </trkpt>
      <trkpt lat="45.8494" lon="6.44187">
        <ele>2202</ele>
        <time>2018-10-17T08:09:06Z</time>
      </trkpt>
      <trkpt lat="45.8494" lon="6.44187">
        <ele>2202</ele>
        <time>2018-10-17T08:09:07Z</time>
      </trkpt>
      <trkpt lat="45.8494" lon="6.44187">
        <ele>2202</ele>
        <time>2018-10-17T08:09:08Z</time>
      </trkpt>
      <trkpt lat="45.8494" lon="6.44187">
        <ele>2202</ele>
        <time>2018-10-17T08:09:09Z</time>
      </trkpt>
      <trkpt lat="45.8494" lon="6.44187">
        <ele>2202</ele>
        <time>2018-10-17T08:09:10Z</time>
      </trkpt>
      <trkpt lat="45.8494" lon="6.44187">
        <ele>2203</ele>
        <time>2018-10-17T08:09:11Z</time>
      </trkpt>
      <trkpt lat="45.8494" lon="6.44187">
        <ele>2203</ele>
        <time>2018-10-17T08:09:12Z</time>
      </trkpt>
      <trkpt lat="45.84942" lon="6.44185">
        <ele>2203</ele>
        <time>2018-10-17T08:09:13Z</time>
      </trkpt>
      <trkpt lat="45.84942" lon="6.44185">
        <ele>2203</ele>
        <time>2018-10-17T08:09:14Z</time>
      </trkpt>
      <trkpt lat="45.84942" lon="6.44185">
        <ele>2203</ele>
        <time>2018-10-17T08:09:15Z</time>
      </trkpt>
      <trkpt lat="45.84942" lon="6.44185">
        <ele>2203</ele>
        <time>2018-10-17T08:09:16Z</time>
      </trkpt>
      <trkpt lat="45.84944" lon="6.44184">
        <ele>2203</ele>
        <time>2018-10-17T08:09:17Z</time>
      </trkpt>
      <trkpt lat="45.84944" lon="6.44184">
        <ele>2204</ele>
        <time>2018-10-17T08:09:18Z</time>
      </trkpt>
      <trkpt lat="45.84944" lon="6.44184">
        <ele>2204</ele>
        <time>2018-10-17T08:09:19Z</time>
      </trkpt>
      <trkpt lat="45.84944" lon="6.44184">
        <ele>2205</ele>
        <time>2018-10-17T08:09:20Z</time>
      </trkpt>
      <trkpt lat="45.84944" lon="6.44184">
        <ele>2205</ele>
        <time>2018-10-17T08:09:21Z</time>
      </trkpt>
      <trkpt lat="45.84944" lon="6.44184">
        <ele>2205</ele>
        <time>2018-10-17T08:09:22Z</time>
      </trkpt>
      <trkpt lat="45.84945" lon="6.44185">
        <ele>2206</ele>
        <time>2018-10-17T08:09:23Z</time>
      </trkpt>
      <trkpt lat="45.84945" lon="6.44185">
        <ele>2206</ele>
        <time>2018-10-17T08:09:24Z</time>
      </trkpt>
      <trkpt lat="45.84945" lon="6.44185">
        <ele>2206</ele>
        <time>2018-10-17T08:09:25Z</time>
      </trkpt>
      <trkpt lat="45.84947" lon="6.44184">
        <ele>2206</ele>
        <time>2018-10-17T08:09:26Z</time>
      </trkpt>
      <trkpt lat="45.84947" lon="6.44184">
        <ele>2207</ele>
        <time>2018-10-17T08:09:27Z</time>
      </trkpt>
      <trkpt lat="45.84947" lon="6.44184">
        <ele>2207</ele>
        <time>2018-10-17T08:09:28Z</time>
      </trkpt>
      <trkpt lat="45.84948" lon="6.44182">
        <ele>2207</ele>
        <time>2018-10-17T08:09:29Z</time>
      </trkpt>
      <trkpt lat="45.84948" lon="6.44182">
        <ele>2207</ele>
        <time>2018-10-17T08:09:30Z</time>
      </trkpt>
      <trkpt lat="45.84948" lon="6.44182">
        <ele>2207</ele>
        <time>2018-10-17T08:09:31Z</time>
      </trkpt>
      <trkpt lat="45.8495" lon="6.44181">
        <ele>2207</ele>
        <time>2018-10-17T08:09:32Z</time>
      </trkpt>
      <trkpt lat="45.8495" lon="6.44181">
        <ele>2207</ele>
        <time>2018-10-17T08:09:33Z</time>
      </trkpt>
      <trkpt lat="45.8495" lon="6.44181">
        <ele>2208</ele>
        <time>2018-10-17T08:09:34Z</time>
      </trkpt>
      <trkpt lat="45.8495" lon="6.44181">
        <ele>2208</ele>
        <time>2018-10-17T08:09:35Z</time>
      </trkpt>
      <trkpt lat="45.84952" lon="6.44179">
        <ele>2208</ele>
        <time>2018-10-17T08:09:36Z</time>
      </trkpt>
      <trkpt lat="45.84952" lon="6.44179">
        <ele>2209</ele>
        <time>2018-10-17T08:09:37Z</time>
      </trkpt>
      <trkpt lat="45.84952" lon="6.44179">
        <ele>2209</ele>
        <time>2018-10-17T08:09:38Z</time>
      </trkpt>
      <trkpt lat="45.84952" lon="6.44179">
        <ele>2209</ele>
        <time>2018-10-17T08:09:39Z</time>
      </trkpt>
      <trkpt lat="45.84952" lon="6.44179">
        <ele>2209</ele>
        <time>2018-10-17T08:09:40Z</time>
      </trkpt>
      <trkpt lat="45.84953" lon="6.44177">
        <ele>2209</ele>
        <time>2018-10-17T08:09:41Z</time>
      </trkpt>
      <trkpt lat="45.84953" lon="6.44177">
        <ele>2209</ele>
        <time>2018-10-17T08:09:42Z</time>
      </trkpt>
      <trkpt lat="45.84953" lon="6.44177">
        <ele>2210</ele>
        <time>2018-10-17T08:09:43Z</time>
      </trkpt>
      <trkpt lat="45.84955" lon="6.44175">
        <ele>2210</ele>
        <time>2018-10-17T08:09:44Z</time>
      </trkpt>
      <trkpt lat="45.84955" lon="6.44175">
        <ele>2210</ele>
        <time>2018-10-17T08:09:45Z</time>
      </trkpt>
      <trkpt lat="45.84955" lon="6.44175">
        <ele>2210</ele>
        <time>2018-10-17T08:09:46Z</time>
      </trkpt>
      <trkpt lat="45.84955" lon="6.44175">
        <ele>2211</ele>
        <time>2018-10-17T08:09:47Z</time>
      </trkpt>
      <trkpt lat="45.84957" lon="6.44174">
        <ele>2211</ele>
        <time>2018-10-17T08:09:48Z</time>
      </trkpt>
      <trkpt lat="45.84957" lon="6.44174">
        <ele>2211</ele>
        <time>2018-10-17T08:09:49Z</time>
      </trkpt>
      <trkpt lat="45.84957" lon="6.44174">
        <ele>2212</ele>
        <time>2018-10-17T08:09:50Z</time>
      </trkpt>
      <trkpt lat="45.84957" lon="6.44174">
        <ele>2212</ele>
        <time>2018-10-17T08:09:51Z</time>
      </trkpt>
      <trkpt lat="45.84957" lon="6.44174">
        <ele>2212</ele>
        <time>2018-10-17T08:09:52Z</time>
      </trkpt>
      <trkpt lat="45.84959" lon="6.44173">
        <ele>2212</ele>
        <time>2018-10-17T08:09:53Z</time>
      </trkpt>
      <trkpt lat="45.84959" lon="6.44173">
        <ele>2212</ele>
        <time>2018-10-17T08:09:54Z</time>
      </trkpt>
      <trkpt lat="45.84959" lon="6.44173">
        <ele>2212</ele>
        <time>2018-10-17T08:09:55Z</time>
      </trkpt>
      <trkpt lat="45.84959" lon="6.44173">
        <ele>2212</ele>
        <time>2018-10-17T08:09:56Z</time>
      </trkpt>
      <trkpt lat="45.84961" lon="6.44172">
        <ele>2213</ele>
        <time>2018-10-17T08:09:57Z</time>
      </trkpt>
      <trkpt lat="45.84961" lon="6.44172">
        <ele>2213</ele>
        <time>2018-10-17T08:09:58Z</time>
      </trkpt>
      <trkpt lat="45.84961" lon="6.44172">
        <ele>2213</ele>
        <time>2018-10-17T08:09:59Z</time>
      </trkpt>
      <trkpt lat="45.84961" lon="6.44172">
        <ele>2213</ele>
        <time>2018-10-17T08:10:00Z</time>
      </trkpt>
      <trkpt lat="45.84963" lon="6.44172">
        <ele>2213</ele>
        <time>2018-10-17T08:10:01Z</time>
      </trkpt>
      <trkpt lat="45.84963" lon="6.44172">
        <ele>2214</ele>
        <time>2018-10-17T08:10:02Z</time>
      </trkpt>
      <trkpt lat="45.84963" lon="6.44172">
        <ele>2214</ele>
        <time>2018-10-17T08:10:03Z</time>
      </trkpt>
      <trkpt lat="45.84963" lon="6.44172">
        <ele>2214</ele>
        <time>2018-10-17T08:10:04Z</time>
      </trkpt>
      <trkpt lat="45.84963" lon="6.44172">
        <ele>2214</ele>
        <time>2018-10-17T08:10:05Z</time>
      </trkpt>
      <trkpt lat="45.84964" lon="6.44174">
        <ele>2214</ele>
        <time>2018-10-17T08:10:06Z</time>
      </trkpt>
      <trkpt lat="45.84964" lon="6.44174">
        <ele>2215</ele>
        <time>2018-10-17T08:10:07Z</time>
      </trkpt>
      <trkpt lat="45.84964" lon="6.44174">
        <ele>2215</ele>
        <time>2018-10-17T08:10:08Z</time>
      </trkpt>
      <trkpt lat="45.84964" lon="6.44174">
        <ele>2215</ele>
        <time>2018-10-17T08:10:09Z</time>
      </trkpt>
      <trkpt lat="45.84965" lon="6.44177">
        <ele>2215</ele>
        <time>2018-10-17T08:10:10Z</time>
      </trkpt>
      <trkpt lat="45.84965" lon="6.44177">
        <ele>2216</ele>
        <time>2018-10-17T08:10:11Z</time>
      </trkpt>
      <trkpt lat="45.84965" lon="6.44177">
        <ele>2216</ele>
        <time>2018-10-17T08:10:12Z</time>
      </trkpt>
      <trkpt lat="45.84965" lon="6.44177">
        <ele>2216</ele>
        <time>2018-10-17T08:10:13Z</time>
      </trkpt>
      <trkpt lat="45.84965" lon="6.44177">
        <ele>2216</ele>
        <time>2018-10-17T08:10:14Z</time>
      </trkpt>
      <trkpt lat="45.84966" lon="6.4418">
        <ele>2216</ele>
        <time>2018-10-17T08:10:15Z</time>
      </trkpt>
      <trkpt lat="45.84966" lon="6.4418">
        <ele>2216</ele>
        <time>2018-10-17T08:10:16Z</time>
      </trkpt>
      <trkpt lat="45.84966" lon="6.4418">
        <ele>2216</ele>
        <time>2018-10-17T08:10:17Z</time>
      </trkpt>
      <trkpt lat="45.84966" lon="6.4418">
        <ele>2216</ele>
        <time>2018-10-17T08:10:18Z</time>
      </trkpt>
      <trkpt lat="45.84967" lon="6.44182">
        <ele>2217</ele>
        <time>2018-10-17T08:10:19Z</time>
      </trkpt>
      <trkpt lat="45.84967" lon="6.44182">
        <ele>2217</ele>
        <time>2018-10-17T08:10:20Z</time>
      </trkpt>
      <trkpt lat="45.84967" lon="6.44182">
        <ele>2218</ele>
        <time>2018-10-17T08:10:21Z</time>
      </trkpt>
      <trkpt lat="45.84968" lon="6.44185">
        <ele>2218</ele>
        <time>2018-10-17T08:10:22Z</time>
      </trkpt>
      <trkpt lat="45.84968" lon="6.44185">
        <ele>2218</ele>
        <time>2018-10-17T08:10:23Z</time>
      </trkpt>
      <trkpt lat="45.84968" lon="6.44185">
        <ele>2218</ele>
        <time>2018-10-17T08:10:24Z</time>
      </trkpt>
      <trkpt lat="45.84968" lon="6.44188">
        <ele>2218</ele>
        <time>2018-10-17T08:10:25Z</time>
      </trkpt>
      <trkpt lat="45.84968" lon="6.44188">
        <ele>2218</ele>
        <time>2018-10-17T08:10:26Z</time>
      </trkpt>
      <trkpt lat="45.84968" lon="6.44188">
        <ele>2219</ele>
        <time>2018-10-17T08:10:27Z</time>
      </trkpt>
      <trkpt lat="45.84968" lon="6.44188">
        <ele>2219</ele>
        <time>2018-10-17T08:10:28Z</time>
      </trkpt>
      <trkpt lat="45.84969" lon="6.4419">
        <ele>2219</ele>
        <time>2018-10-17T08:10:29Z</time>
      </trkpt>
      <trkpt lat="45.84969" lon="6.4419">
        <ele>2219</ele>
        <time>2018-10-17T08:10:30Z</time>
      </trkpt>
      <trkpt lat="45.84969" lon="6.4419">
        <ele>2220</ele>
        <time>2018-10-17T08:10:31Z</time>
      </trkpt>
      <trkpt lat="45.84969" lon="6.4419">
        <ele>2220</ele>
        <time>2018-10-17T08:10:32Z</time>
      </trkpt>
      <trkpt lat="45.84969" lon="6.44194">
        <ele>2220</ele>
        <time>2018-10-17T08:10:33Z</time>
      </trkpt>
      <trkpt lat="45.84969" lon="6.44194">
        <ele>2222</ele>
        <time>2018-10-17T08:10:34Z</time>
      </trkpt>
      <trkpt lat="45.84969" lon="6.44194">
        <ele>2222</ele>
        <time>2018-10-17T08:10:35Z</time>
      </trkpt>
      <trkpt lat="45.8497" lon="6.44196">
        <ele>2222</ele>
        <time>2018-10-17T08:10:36Z</time>
      </trkpt>
      <trkpt lat="45.8497" lon="6.44196">
        <ele>2222</ele>
        <time>2018-10-17T08:10:37Z</time>
      </trkpt>
      <trkpt lat="45.8497" lon="6.44196">
        <ele>2223</ele>
        <time>2018-10-17T08:10:38Z</time>
      </trkpt>
      <trkpt lat="45.8497" lon="6.44199">
        <ele>2223</ele>
        <time>2018-10-17T08:10:39Z</time>
      </trkpt>
      <trkpt lat="45.8497" lon="6.44199">
        <ele>2223</ele>
        <time>2018-10-17T08:10:40Z</time>
      </trkpt>
      <trkpt lat="45.8497" lon="6.44199">
        <ele>2223</ele>
        <time>2018-10-17T08:10:41Z</time>
      </trkpt>
      <trkpt lat="45.8497" lon="6.44202">
        <ele>2223</ele>
        <time>2018-10-17T08:10:42Z</time>
      </trkpt>
      <trkpt lat="45.8497" lon="6.44202">
        <ele>2223</ele>
        <time>2018-10-17T08:10:43Z</time>
      </trkpt>
      <trkpt lat="45.8497" lon="6.44202">
        <ele>2223</ele>
        <time>2018-10-17T08:10:44Z</time>
      </trkpt>
      <trkpt lat="45.8497" lon="6.44202">
        <ele>2223</ele>
        <time>2018-10-17T08:10:45Z</time>
      </trkpt>
      <trkpt lat="45.84971" lon="6.44205">
        <ele>2223</ele>
        <time>2018-10-17T08:10:46Z</time>
      </trkpt>
      <trkpt lat="45.84971" lon="6.44205">
        <ele>2223</ele>
        <time>2018-10-17T08:10:47Z</time>
      </trkpt>
      <trkpt lat="45.84973" lon="6.44206">
        <ele>2223</ele>
        <time>2018-10-17T08:10:48Z</time>
      </trkpt>
      <trkpt lat="45.84973" lon="6.44206">
        <ele>2223</ele>
        <time>2018-10-17T08:10:49Z</time>
      </trkpt>
      <trkpt lat="45.84973" lon="6.44206">
        <ele>2223</ele>
        <time>2018-10-17T08:10:50Z</time>
      </trkpt>
      <trkpt lat="45.84973" lon="6.4421">
        <ele>2223</ele>
        <time>2018-10-17T08:10:51Z</time>
      </trkpt>
      <trkpt lat="45.84973" lon="6.4421">
        <ele>2223</ele>
        <time>2018-10-17T08:10:52Z</time>
      </trkpt>
      <trkpt lat="45.84971" lon="6.44211">
        <ele>2224</ele>
        <time>2018-10-17T08:10:53Z</time>
      </trkpt>
      <trkpt lat="45.84971" lon="6.44211">
        <ele>2224</ele>
        <time>2018-10-17T08:10:54Z</time>
      </trkpt>
      <trkpt lat="45.84971" lon="6.44211">
        <ele>2224</ele>
        <time>2018-10-17T08:10:55Z</time>
      </trkpt>
      <trkpt lat="45.84971" lon="6.44214">
        <ele>2224</ele>
        <time>2018-10-17T08:10:56Z</time>
      </trkpt>
      <trkpt lat="45.84971" lon="6.44214">
        <ele>2224</ele>
        <time>2018-10-17T08:10:57Z</time>
      </trkpt>
      <trkpt lat="45.84971" lon="6.44214">
        <ele>2225</ele>
        <time>2018-10-17T08:10:58Z</time>
      </trkpt>
      <trkpt lat="45.84971" lon="6.44217">
        <ele>2225</ele>
        <time>2018-10-17T08:10:59Z</time>
      </trkpt>
      <trkpt lat="45.84971" lon="6.44217">
        <ele>2226</ele>
        <time>2018-10-17T08:11:00Z</time>
      </trkpt>
      <trkpt lat="45.84971" lon="6.44217">
        <ele>2226</ele>
        <time>2018-10-17T08:11:01Z</time>
      </trkpt>
      <trkpt lat="45.8497" lon="6.44221">
        <ele>2227</ele>
        <time>2018-10-17T08:11:02Z</time>
      </trkpt>
      <trkpt lat="45.8497" lon="6.44221">
        <ele>2227</ele>
        <time>2018-10-17T08:11:03Z</time>
      </trkpt>
      <trkpt lat="45.84969" lon="6.44223">
        <ele>2227</ele>
        <time>2018-10-17T08:11:04Z</time>
      </trkpt>
      <trkpt lat="45.84969" lon="6.44223">
        <ele>2227</ele>
        <time>2018-10-17T08:11:05Z</time>
      </trkpt>
      <trkpt lat="45.84969" lon="6.44223">
        <ele>2227</ele>
        <time>2018-10-17T08:11:06Z</time>
      </trkpt>
      <trkpt lat="45.8497" lon="6.44226">
        <ele>2227</ele>
        <time>2018-10-17T08:11:07Z</time>
      </trkpt>
      <trkpt lat="45.8497" lon="6.44226">
        <ele>2228</ele>
        <time>2018-10-17T08:11:08Z</time>
      </trkpt>
      <trkpt lat="45.8497" lon="6.44226">
        <ele>2228</ele>
        <time>2018-10-17T08:11:09Z</time>
      </trkpt>
      <trkpt lat="45.84971" lon="6.44228">
        <ele>2228</ele>
        <time>2018-10-17T08:11:10Z</time>
      </trkpt>
      <trkpt lat="45.84971" lon="6.44228">
        <ele>2229</ele>
        <time>2018-10-17T08:11:11Z</time>
      </trkpt>
      <trkpt lat="45.84971" lon="6.44228">
        <ele>2229</ele>
        <time>2018-10-17T08:11:12Z</time>
      </trkpt>
      <trkpt lat="45.84971" lon="6.44228">
        <ele>2229</ele>
        <time>2018-10-17T08:11:13Z</time>
      </trkpt>
      <trkpt lat="45.84972" lon="6.4423">
        <ele>2229</ele>
        <time>2018-10-17T08:11:14Z</time>
      </trkpt>
      <trkpt lat="45.84972" lon="6.4423">
        <ele>2229</ele>
        <time>2018-10-17T08:11:15Z</time>
      </trkpt>
      <trkpt lat="45.84972" lon="6.4423">
        <ele>2229</ele>
        <time>2018-10-17T08:11:16Z</time>
      </trkpt>
      <trkpt lat="45.84972" lon="6.4423">
        <ele>2229</ele>
        <time>2018-10-17T08:11:17Z</time>
      </trkpt>
      <trkpt lat="45.84973" lon="6.44233">
        <ele>2229</ele>
        <time>2018-10-17T08:11:18Z</time>
      </trkpt>
      <trkpt lat="45.84973" lon="6.44233">
        <ele>2229</ele>
        <time>2018-10-17T08:11:19Z</time>
      </trkpt>
      <trkpt lat="45.84973" lon="6.44233">
        <ele>2230</ele>
        <time>2018-10-17T08:11:20Z</time>
      </trkpt>
      <trkpt lat="45.84973" lon="6.44235">
        <ele>2230</ele>
        <time>2018-10-17T08:11:21Z</time>
      </trkpt>
      <trkpt lat="45.84973" lon="6.44235">
        <ele>2230</ele>
        <time>2018-10-17T08:11:22Z</time>
      </trkpt>
      <trkpt lat="45.84973" lon="6.44235">
        <ele>2230</ele>
        <time>2018-10-17T08:11:23Z</time>
      </trkpt>
      <trkpt lat="45.84972" lon="6.44238">
        <ele>2231</ele>
        <time>2018-10-17T08:11:24Z</time>
      </trkpt>
      <trkpt lat="45.84972" lon="6.44238">
        <ele>2231</ele>
        <time>2018-10-17T08:11:25Z</time>
      </trkpt>
      <trkpt lat="45.84972" lon="6.44238">
        <ele>2231</ele>
        <time>2018-10-17T08:11:26Z</time>
      </trkpt>
      <trkpt lat="45.84972" lon="6.44242">
        <ele>2231</ele>
        <time>2018-10-17T08:11:27Z</time>
      </trkpt>
      <trkpt lat="45.84972" lon="6.44242">
        <ele>2232</ele>
        <time>2018-10-17T08:11:28Z</time>
      </trkpt>
      <trkpt lat="45.84972" lon="6.44242">
        <ele>2232</ele>
        <time>2018-10-17T08:11:29Z</time>
      </trkpt>
      <trkpt lat="45.84972" lon="6.44245">
        <ele>2232</ele>
        <time>2018-10-17T08:11:30Z</time>
      </trkpt>
      <trkpt lat="45.84972" lon="6.44245">
        <ele>2232</ele>
        <time>2018-10-17T08:11:31Z</time>
      </trkpt>
      <trkpt lat="45.84972" lon="6.44245">
        <ele>2232</ele>
        <time>2018-10-17T08:11:32Z</time>
      </trkpt>
      <trkpt lat="45.84971" lon="6.44249">
        <ele>2232</ele>
        <time>2018-10-17T08:11:33Z</time>
      </trkpt>
      <trkpt lat="45.84971" lon="6.44249">
        <ele>2232</ele>
        <time>2018-10-17T08:11:34Z</time>
      </trkpt>
      <trkpt lat="45.84971" lon="6.44249">
        <ele>2232</ele>
        <time>2018-10-17T08:11:35Z</time>
      </trkpt>
      <trkpt lat="45.84971" lon="6.44252">
        <ele>2232</ele>
        <time>2018-10-17T08:11:36Z</time>
      </trkpt>
      <trkpt lat="45.84971" lon="6.44252">
        <ele>2233</ele>
        <time>2018-10-17T08:11:37Z</time>
      </trkpt>
      <trkpt lat="45.84971" lon="6.44252">
        <ele>2233</ele>
        <time>2018-10-17T08:11:38Z</time>
      </trkpt>
      <trkpt lat="45.84971" lon="6.44256">
        <ele>2233</ele>
        <time>2018-10-17T08:11:39Z</time>
      </trkpt>
      <trkpt lat="45.84971" lon="6.44256">
        <ele>2234</ele>
        <time>2018-10-17T08:11:40Z</time>
      </trkpt>
      <trkpt lat="45.84971" lon="6.44256">
        <ele>2234</ele>
        <time>2018-10-17T08:11:41Z</time>
      </trkpt>
      <trkpt lat="45.84971" lon="6.44256">
        <ele>2234</ele>
        <time>2018-10-17T08:11:42Z</time>
      </trkpt>
      <trkpt lat="45.84971" lon="6.44258">
        <ele>2234</ele>
        <time>2018-10-17T08:11:43Z</time>
      </trkpt>
      <trkpt lat="45.84971" lon="6.44258">
        <ele>2234</ele>
        <time>2018-10-17T08:11:44Z</time>
      </trkpt>
      <trkpt lat="45.84971" lon="6.44258">
        <ele>2235</ele>
        <time>2018-10-17T08:11:45Z</time>
      </trkpt>
      <trkpt lat="45.84971" lon="6.44258">
        <ele>2235</ele>
        <time>2018-10-17T08:11:46Z</time>
      </trkpt>
      <trkpt lat="45.84971" lon="6.44261">
        <ele>2235</ele>
        <time>2018-10-17T08:11:47Z</time>
      </trkpt>
      <trkpt lat="45.84971" lon="6.44261">
        <ele>2235</ele>
        <time>2018-10-17T08:11:48Z</time>
      </trkpt>
      <trkpt lat="45.84971" lon="6.44261">
        <ele>2235</ele>
        <time>2018-10-17T08:11:49Z</time>
      </trkpt>
      <trkpt lat="45.84971" lon="6.44261">
        <ele>2235</ele>
        <time>2018-10-17T08:11:50Z</time>
      </trkpt>
      <trkpt lat="45.84972" lon="6.44264">
        <ele>2235</ele>
        <time>2018-10-17T08:11:51Z</time>
      </trkpt>
      <trkpt lat="45.84972" lon="6.44264">
        <ele>2235</ele>
        <time>2018-10-17T08:11:52Z</time>
      </trkpt>
      <trkpt lat="45.84972" lon="6.44264">
        <ele>2235</ele>
        <time>2018-10-17T08:11:53Z</time>
      </trkpt>
      <trkpt lat="45.84972" lon="6.44264">
        <ele>2235</ele>
        <time>2018-10-17T08:11:54Z</time>
      </trkpt>
      <trkpt lat="45.84973" lon="6.44267">
        <ele>2236</ele>
        <time>2018-10-17T08:11:55Z</time>
      </trkpt>
      <trkpt lat="45.84973" lon="6.44267">
        <ele>2237</ele>
        <time>2018-10-17T08:11:56Z</time>
      </trkpt>
      <trkpt lat="45.84973" lon="6.44267">
        <ele>2237</ele>
        <time>2018-10-17T08:11:57Z</time>
      </trkpt>
      <trkpt lat="45.84973" lon="6.44267">
        <ele>2237</ele>
        <time>2018-10-17T08:11:58Z</time>
      </trkpt>
      <trkpt lat="45.84973" lon="6.4427">
        <ele>2238</ele>
        <time>2018-10-17T08:11:59Z</time>
      </trkpt>
      <trkpt lat="45.84973" lon="6.4427">
        <ele>2238</ele>
        <time>2018-10-17T08:12:00Z</time>
      </trkpt>
      <trkpt lat="45.84973" lon="6.4427">
        <ele>2238</ele>
        <time>2018-10-17T08:12:01Z</time>
      </trkpt>
      <trkpt lat="45.84973" lon="6.4427">
        <ele>2238</ele>
        <time>2018-10-17T08:12:02Z</time>
      </trkpt>
      <trkpt lat="45.84974" lon="6.44272">
        <ele>2238</ele>
        <time>2018-10-17T08:12:03Z</time>
      </trkpt>
      <trkpt lat="45.84974" lon="6.44272">
        <ele>2239</ele>
        <time>2018-10-17T08:12:04Z</time>
      </trkpt>
      <trkpt lat="45.84974" lon="6.44272">
        <ele>2239</ele>
        <time>2018-10-17T08:12:05Z</time>
      </trkpt>
      <trkpt lat="45.84976" lon="6.44274">
        <ele>2239</ele>
        <time>2018-10-17T08:12:06Z</time>
      </trkpt>
      <trkpt lat="45.84976" lon="6.44274">
        <ele>2239</ele>
        <time>2018-10-17T08:12:07Z</time>
      </trkpt>
      <trkpt lat="45.84976" lon="6.44274">
        <ele>2239</ele>
        <time>2018-10-17T08:12:08Z</time>
      </trkpt>
      <trkpt lat="45.84976" lon="6.44274">
        <ele>2239</ele>
        <time>2018-10-17T08:12:09Z</time>
      </trkpt>
      <trkpt lat="45.84977" lon="6.44277">
        <ele>2239</ele>
        <time>2018-10-17T08:12:10Z</time>
      </trkpt>
      <trkpt lat="45.84977" lon="6.44277">
        <ele>2240</ele>
        <time>2018-10-17T08:12:11Z</time>
      </trkpt>
      <trkpt lat="45.84977" lon="6.44277">
        <ele>2240</ele>
        <time>2018-10-17T08:12:12Z</time>
      </trkpt>
      <trkpt lat="45.84977" lon="6.4428">
        <ele>2240</ele>
        <time>2018-10-17T08:12:13Z</time>
      </trkpt>
      <trkpt lat="45.84977" lon="6.4428">
        <ele>2241</ele>
        <time>2018-10-17T08:12:14Z</time>
      </trkpt>
      <trkpt lat="45.84977" lon="6.4428">
        <ele>2242</ele>
        <time>2018-10-17T08:12:15Z</time>
      </trkpt>
      <trkpt lat="45.84978" lon="6.44282">
        <ele>2242</ele>
        <time>2018-10-17T08:12:16Z</time>
      </trkpt>
      <trkpt lat="45.84978" lon="6.44282">
        <ele>2242</ele>
        <time>2018-10-17T08:12:17Z</time>
      </trkpt>
      <trkpt lat="45.84978" lon="6.44282">
        <ele>2242</ele>
        <time>2018-10-17T08:12:18Z</time>
      </trkpt>
      <trkpt lat="45.84976" lon="6.44284">
        <ele>2242</ele>
        <time>2018-10-17T08:12:19Z</time>
      </trkpt>
      <trkpt lat="45.84976" lon="6.44284">
        <ele>2242</ele>
        <time>2018-10-17T08:12:20Z</time>
      </trkpt>
      <trkpt lat="45.84976" lon="6.44284">
        <ele>2242</ele>
        <time>2018-10-17T08:12:21Z</time>
      </trkpt>
      <trkpt lat="45.84976" lon="6.44284">
        <ele>2242</ele>
        <time>2018-10-17T08:12:22Z</time>
      </trkpt>
      <trkpt lat="45.84974" lon="6.44287">
        <ele>2242</ele>
        <time>2018-10-17T08:12:23Z</time>
      </trkpt>
      <trkpt lat="45.84974" lon="6.44287">
        <ele>2243</ele>
        <time>2018-10-17T08:12:24Z</time>
      </trkpt>
      <trkpt lat="45.84974" lon="6.44287">
        <ele>2243</ele>
        <time>2018-10-17T08:12:25Z</time>
      </trkpt>
      <trkpt lat="45.84974" lon="6.44287">
        <ele>2243</ele>
        <time>2018-10-17T08:12:26Z</time>
      </trkpt>
      <trkpt lat="45.84972" lon="6.44288">
        <ele>2243</ele>
        <time>2018-10-17T08:12:27Z</time>
      </trkpt>
      <trkpt lat="45.84972" lon="6.44288">
        <ele>2243</ele>
        <time>2018-10-17T08:12:28Z</time>
      </trkpt>
      <trkpt lat="45.84972" lon="6.44288">
        <ele>2243</ele>
        <time>2018-10-17T08:12:29Z</time>
      </trkpt>
      <trkpt lat="45.84972" lon="6.44288">
        <ele>2243</ele>
        <time>2018-10-17T08:12:30Z</time>
      </trkpt>
      <trkpt lat="45.84972" lon="6.44288">
        <ele>2243</ele>
        <time>2018-10-17T08:12:31Z</time>
      </trkpt>
      <trkpt lat="45.84972" lon="6.44291">
        <ele>2244</ele>
        <time>2018-10-17T08:12:32Z</time>
      </trkpt>
      <trkpt lat="45.84972" lon="6.44291">
        <ele>2244</ele>
        <time>2018-10-17T08:12:33Z</time>
      </trkpt>
      <trkpt lat="45.84972" lon="6.44291">
        <ele>2245</ele>
        <time>2018-10-17T08:12:34Z</time>
      </trkpt>
      <trkpt lat="45.84972" lon="6.44291">
        <ele>2245</ele>
        <time>2018-10-17T08:12:35Z</time>
      </trkpt>
      <trkpt lat="45.84972" lon="6.44291">
        <ele>2246</ele>
        <time>2018-10-17T08:12:36Z</time>
      </trkpt>
      <trkpt lat="45.84973" lon="6.44293">
        <ele>2246</ele>
        <time>2018-10-17T08:12:37Z</time>
      </trkpt>
      <trkpt lat="45.84973" lon="6.44293">
        <ele>2246</ele>
        <time>2018-10-17T08:12:38Z</time>
      </trkpt>
      <trkpt lat="45.84973" lon="6.44293">
        <ele>2246</ele>
        <time>2018-10-17T08:12:39Z</time>
      </trkpt>
      <trkpt lat="45.84973" lon="6.44293">
        <ele>2246</ele>
        <time>2018-10-17T08:12:40Z</time>
      </trkpt>
      <trkpt lat="45.84973" lon="6.44293">
        <ele>2246</ele>
        <time>2018-10-17T08:12:41Z</time>
      </trkpt>
      <trkpt lat="45.84973" lon="6.44293">
        <ele>2248</ele>
        <time>2018-10-17T08:12:42Z</time>
      </trkpt>
      <trkpt lat="45.84974" lon="6.44296">
        <ele>2248</ele>
        <time>2018-10-17T08:12:43Z</time>
      </trkpt>
      <trkpt lat="45.84974" lon="6.44296">
        <ele>2248</ele>
        <time>2018-10-17T08:12:44Z</time>
      </trkpt>
      <trkpt lat="45.84974" lon="6.44296">
        <ele>2249</ele>
        <time>2018-10-17T08:12:45Z</time>
      </trkpt>
      <trkpt lat="45.84976" lon="6.44295">
        <ele>2249</ele>
        <time>2018-10-17T08:12:46Z</time>
      </trkpt>
      <trkpt lat="45.84976" lon="6.44295">
        <ele>2249</ele>
        <time>2018-10-17T08:12:47Z</time>
      </trkpt>
      <trkpt lat="45.84976" lon="6.44295">
        <ele>2250</ele>
        <time>2018-10-17T08:12:48Z</time>
      </trkpt>
      <trkpt lat="45.84978" lon="6.44296">
        <ele>2250</ele>
        <time>2018-10-17T08:12:49Z</time>
      </trkpt>
      <trkpt lat="45.84978" lon="6.44296">
        <ele>2250</ele>
        <time>2018-10-17T08:12:50Z</time>
      </trkpt>
      <trkpt lat="45.84978" lon="6.44296">
        <ele>2250</ele>
        <time>2018-10-17T08:12:51Z</time>
      </trkpt>
      <trkpt lat="45.84978" lon="6.44296">
        <ele>2250</ele>
        <time>2018-10-17T08:12:52Z</time>
      </trkpt>
      <trkpt lat="45.84978" lon="6.44299">
        <ele>2250</ele>
        <time>2018-10-17T08:12:53Z</time>
      </trkpt>
      <trkpt lat="45.84978" lon="6.44299">
        <ele>2250</ele>
        <time>2018-10-17T08:12:54Z</time>
      </trkpt>
      <trkpt lat="45.84978" lon="6.44299">
        <ele>2251</ele>
        <time>2018-10-17T08:12:55Z</time>
      </trkpt>
      <trkpt lat="45.84978" lon="6.44299">
        <ele>2251</ele>
        <time>2018-10-17T08:12:56Z</time>
      </trkpt>
      <trkpt lat="45.84978" lon="6.44299">
        <ele>2251</ele>
        <time>2018-10-17T08:12:57Z</time>
      </trkpt>
      <trkpt lat="45.84978" lon="6.44299">
        <ele>2251</ele>
        <time>2018-10-17T08:12:58Z</time>
      </trkpt>
      <trkpt lat="45.84978" lon="6.44299">
        <ele>2251</ele>
        <time>2018-10-17T08:12:59Z</time>
      </trkpt>
      <trkpt lat="45.84978" lon="6.44299">
        <ele>2252</ele>
        <time>2018-10-17T08:13:00Z</time>
      </trkpt>
      <trkpt lat="45.84978" lon="6.44299">
        <ele>2252</ele>
        <time>2018-10-17T08:13:01Z</time>
      </trkpt>
      <trkpt lat="45.84978" lon="6.44299">
        <ele>2253</ele>
        <time>2018-10-17T08:13:02Z</time>
      </trkpt>
      <trkpt lat="45.8498" lon="6.44301">
        <ele>2253</ele>
        <time>2018-10-17T08:13:03Z</time>
      </trkpt>
      <trkpt lat="45.8498" lon="6.44301">
        <ele>2253</ele>
        <time>2018-10-17T08:13:04Z</time>
      </trkpt>
      <trkpt lat="45.8498" lon="6.44301">
        <ele>2253</ele>
        <time>2018-10-17T08:13:05Z</time>
      </trkpt>
      <trkpt lat="45.84979" lon="6.44305">
        <ele>2253</ele>
        <time>2018-10-17T08:13:06Z</time>
      </trkpt>
      <trkpt lat="45.84979" lon="6.44305">
        <ele>2253</ele>
        <time>2018-10-17T08:13:07Z</time>
      </trkpt>
      <trkpt lat="45.84978" lon="6.44307">
        <ele>2253</ele>
        <time>2018-10-17T08:13:08Z</time>
      </trkpt>
      <trkpt lat="45.84978" lon="6.44307">
        <ele>2253</ele>
        <time>2018-10-17T08:13:09Z</time>
      </trkpt>
      <trkpt lat="45.84978" lon="6.44307">
        <ele>2253</ele>
        <time>2018-10-17T08:13:10Z</time>
      </trkpt>
      <trkpt lat="45.84977" lon="6.4431">
        <ele>2253</ele>
        <time>2018-10-17T08:13:11Z</time>
      </trkpt>
      <trkpt lat="45.84977" lon="6.4431">
        <ele>2254</ele>
        <time>2018-10-17T08:13:12Z</time>
      </trkpt>
      <trkpt lat="45.84977" lon="6.4431">
        <ele>2254</ele>
        <time>2018-10-17T08:13:13Z</time>
      </trkpt>
      <trkpt lat="45.84975" lon="6.44313">
        <ele>2254</ele>
        <time>2018-10-17T08:13:14Z</time>
      </trkpt>
      <trkpt lat="45.84975" lon="6.44313">
        <ele>2254</ele>
        <time>2018-10-17T08:13:15Z</time>
      </trkpt>
      <trkpt lat="45.84975" lon="6.44313">
        <ele>2255</ele>
        <time>2018-10-17T08:13:16Z</time>
      </trkpt>
      <trkpt lat="45.84974" lon="6.44316">
        <ele>2255</ele>
        <time>2018-10-17T08:13:17Z</time>
      </trkpt>
      <trkpt lat="45.84974" lon="6.44316">
        <ele>2255</ele>
        <time>2018-10-17T08:13:18Z</time>
      </trkpt>
      <trkpt lat="45.84974" lon="6.44316">
        <ele>2255</ele>
        <time>2018-10-17T08:13:19Z</time>
      </trkpt>
      <trkpt lat="45.84974" lon="6.44318">
        <ele>2255</ele>
        <time>2018-10-17T08:13:20Z</time>
      </trkpt>
      <trkpt lat="45.84974" lon="6.44318">
        <ele>2255</ele>
        <time>2018-10-17T08:13:21Z</time>
      </trkpt>
      <trkpt lat="45.84974" lon="6.44318">
        <ele>2256</ele>
        <time>2018-10-17T08:13:22Z</time>
      </trkpt>
      <trkpt lat="45.84974" lon="6.44318">
        <ele>2256</ele>
        <time>2018-10-17T08:13:23Z</time>
      </trkpt>
      <trkpt lat="45.84974" lon="6.44318">
        <ele>2257</ele>
        <time>2018-10-17T08:13:24Z</time>
      </trkpt>
      <trkpt lat="45.84974" lon="6.44321">
        <ele>2257</ele>
        <time>2018-10-17T08:13:25Z</time>
      </trkpt>
      <trkpt lat="45.84974" lon="6.44321">
        <ele>2257</ele>
        <time>2018-10-17T08:13:26Z</time>
      </trkpt>
      <trkpt lat="45.84974" lon="6.44321">
        <ele>2258</ele>
        <time>2018-10-17T08:13:27Z</time>
      </trkpt>
      <trkpt lat="45.84974" lon="6.44321">
        <ele>2258</ele>
        <time>2018-10-17T08:13:28Z</time>
      </trkpt>
      <trkpt lat="45.84974" lon="6.44321">
        <ele>2258</ele>
        <time>2018-10-17T08:13:29Z</time>
      </trkpt>
      <trkpt lat="45.84974" lon="6.44324">
        <ele>2258</ele>
        <time>2018-10-17T08:13:30Z</time>
      </trkpt>
      <trkpt lat="45.84974" lon="6.44324">
        <ele>2258</ele>
        <time>2018-10-17T08:13:31Z</time>
      </trkpt>
      <trkpt lat="45.84974" lon="6.44324">
        <ele>2258</ele>
        <time>2018-10-17T08:13:32Z</time>
      </trkpt>
      <trkpt lat="45.84974" lon="6.44324">
        <ele>2258</ele>
        <time>2018-10-17T08:13:33Z</time>
      </trkpt>
      <trkpt lat="45.84974" lon="6.44324">
        <ele>2258</ele>
        <time>2018-10-17T08:13:34Z</time>
      </trkpt>
      <trkpt lat="45.84975" lon="6.44327">
        <ele>2259</ele>
        <time>2018-10-17T08:13:35Z</time>
      </trkpt>
      <trkpt lat="45.84975" lon="6.44327">
        <ele>2259</ele>
        <time>2018-10-17T08:13:36Z</time>
      </trkpt>
      <trkpt lat="45.84975" lon="6.44327">
        <ele>2260</ele>
        <time>2018-10-17T08:13:37Z</time>
      </trkpt>
      <trkpt lat="45.84976" lon="6.44329">
        <ele>2260</ele>
        <time>2018-10-17T08:13:38Z</time>
      </trkpt>
      <trkpt lat="45.84976" lon="6.44329">
        <ele>2260</ele>
        <time>2018-10-17T08:13:39Z</time>
      </trkpt>
      <trkpt lat="45.84976" lon="6.44329">
        <ele>2260</ele>
        <time>2018-10-17T08:13:40Z</time>
      </trkpt>
      <trkpt lat="45.84976" lon="6.44329">
        <ele>2260</ele>
        <time>2018-10-17T08:13:41Z</time>
      </trkpt>
      <trkpt lat="45.84975" lon="6.44333">
        <ele>2260</ele>
        <time>2018-10-17T08:13:42Z</time>
      </trkpt>
      <trkpt lat="45.84975" lon="6.44333">
        <ele>2261</ele>
        <time>2018-10-17T08:13:43Z</time>
      </trkpt>
      <trkpt lat="45.84975" lon="6.44333">
        <ele>2261</ele>
        <time>2018-10-17T08:13:44Z</time>
      </trkpt>
      <trkpt lat="45.84976" lon="6.44336">
        <ele>2261</ele>
        <time>2018-10-17T08:13:45Z</time>
      </trkpt>
      <trkpt lat="45.84976" lon="6.44336">
        <ele>2261</ele>
        <time>2018-10-17T08:13:46Z</time>
      </trkpt>
      <trkpt lat="45.84976" lon="6.44336">
        <ele>2261</ele>
        <time>2018-10-17T08:13:47Z</time>
      </trkpt>
      <trkpt lat="45.84976" lon="6.44336">
        <ele>2261</ele>
        <time>2018-10-17T08:13:48Z</time>
      </trkpt>
      <trkpt lat="45.84976" lon="6.44338">
        <ele>2261</ele>
        <time>2018-10-17T08:13:49Z</time>
      </trkpt>
      <trkpt lat="45.84976" lon="6.44338">
        <ele>2261</ele>
        <time>2018-10-17T08:13:50Z</time>
      </trkpt>
      <trkpt lat="45.84976" lon="6.44338">
        <ele>2262</ele>
        <time>2018-10-17T08:13:51Z</time>
      </trkpt>
      <trkpt lat="45.84977" lon="6.44341">
        <ele>2262</ele>
        <time>2018-10-17T08:13:52Z</time>
      </trkpt>
      <trkpt lat="45.84977" lon="6.44341">
        <ele>2262</ele>
        <time>2018-10-17T08:13:53Z</time>
      </trkpt>
      <trkpt lat="45.84977" lon="6.44341">
        <ele>2263</ele>
        <time>2018-10-17T08:13:54Z</time>
      </trkpt>
      <trkpt lat="45.84977" lon="6.44341">
        <ele>2263</ele>
        <time>2018-10-17T08:13:55Z</time>
      </trkpt>
      <trkpt lat="45.84978" lon="6.44344">
        <ele>2263</ele>
        <time>2018-10-17T08:13:56Z</time>
      </trkpt>
      <trkpt lat="45.84978" lon="6.44344">
        <ele>2264</ele>
        <time>2018-10-17T08:13:57Z</time>
      </trkpt>
      <trkpt lat="45.84978" lon="6.44344">
        <ele>2264</ele>
        <time>2018-10-17T08:13:58Z</time>
      </trkpt>
      <trkpt lat="45.84978" lon="6.44344">
        <ele>2264</ele>
        <time>2018-10-17T08:13:59Z</time>
      </trkpt>
      <trkpt lat="45.84978" lon="6.44344">
        <ele>2264</ele>
        <time>2018-10-17T08:14:00Z</time>
      </trkpt>
      <trkpt lat="45.84978" lon="6.44347">
        <ele>2265</ele>
        <time>2018-10-17T08:14:01Z</time>
      </trkpt>
      <trkpt lat="45.84978" lon="6.44347">
        <ele>2265</ele>
        <time>2018-10-17T08:14:02Z</time>
      </trkpt>
      <trkpt lat="45.84978" lon="6.44347">
        <ele>2265</ele>
        <time>2018-10-17T08:14:03Z</time>
      </trkpt>
      <trkpt lat="45.84978" lon="6.44347">
        <ele>2265</ele>
        <time>2018-10-17T08:14:04Z</time>
      </trkpt>
      <trkpt lat="45.84979" lon="6.4435">
        <ele>2265</ele>
        <time>2018-10-17T08:14:05Z</time>
      </trkpt>
      <trkpt lat="45.84979" lon="6.4435">
        <ele>2265</ele>
        <time>2018-10-17T08:14:06Z</time>
      </trkpt>
      <trkpt lat="45.84979" lon="6.4435">
        <ele>2266</ele>
        <time>2018-10-17T08:14:07Z</time>
      </trkpt>
      <trkpt lat="45.84979" lon="6.44352">
        <ele>2266</ele>
        <time>2018-10-17T08:14:08Z</time>
      </trkpt>
      <trkpt lat="45.84979" lon="6.44352">
        <ele>2266</ele>
        <time>2018-10-17T08:14:09Z</time>
      </trkpt>
      <trkpt lat="45.84979" lon="6.44352">
        <ele>2266</ele>
        <time>2018-10-17T08:14:10Z</time>
      </trkpt>
      <trkpt lat="45.84979" lon="6.44356">
        <ele>2266</ele>
        <time>2018-10-17T08:14:11Z</time>
      </trkpt>
      <trkpt lat="45.84979" lon="6.44356">
        <ele>2266</ele>
        <time>2018-10-17T08:14:12Z</time>
      </trkpt>
      <trkpt lat="45.84979" lon="6.44356">
        <ele>2266</ele>
        <time>2018-10-17T08:14:13Z</time>
      </trkpt>
      <trkpt lat="45.84979" lon="6.44358">
        <ele>2267</ele>
        <time>2018-10-17T08:14:14Z</time>
      </trkpt>
      <trkpt lat="45.84979" lon="6.44358">
        <ele>2267</ele>
        <time>2018-10-17T08:14:15Z</time>
      </trkpt>
      <trkpt lat="45.84979" lon="6.44358">
        <ele>2267</ele>
        <time>2018-10-17T08:14:16Z</time>
      </trkpt>
      <trkpt lat="45.84979" lon="6.44361">
        <ele>2267</ele>
        <time>2018-10-17T08:14:17Z</time>
      </trkpt>
      <trkpt lat="45.84979" lon="6.44361">
        <ele>2267</ele>
        <time>2018-10-17T08:14:18Z</time>
      </trkpt>
      <trkpt lat="45.84979" lon="6.44361">
        <ele>2267</ele>
        <time>2018-10-17T08:14:19Z</time>
      </trkpt>
      <trkpt lat="45.84978" lon="6.44364">
        <ele>2267</ele>
        <time>2018-10-17T08:14:20Z</time>
      </trkpt>
      <trkpt lat="45.84978" lon="6.44364">
        <ele>2267</ele>
        <time>2018-10-17T08:14:21Z</time>
      </trkpt>
      <trkpt lat="45.84978" lon="6.44364">
        <ele>2268</ele>
        <time>2018-10-17T08:14:22Z</time>
      </trkpt>
      <trkpt lat="45.84979" lon="6.44366">
        <ele>2268</ele>
        <time>2018-10-17T08:14:23Z</time>
      </trkpt>
      <trkpt lat="45.84979" lon="6.44366">
        <ele>2268</ele>
        <time>2018-10-17T08:14:24Z</time>
      </trkpt>
      <trkpt lat="45.84979" lon="6.44366">
        <ele>2268</ele>
        <time>2018-10-17T08:14:25Z</time>
      </trkpt>
      <trkpt lat="45.84979" lon="6.44366">
        <ele>2269</ele>
        <time>2018-10-17T08:14:26Z</time>
      </trkpt>
      <trkpt lat="45.84979" lon="6.44366">
        <ele>2269</ele>
        <time>2018-10-17T08:14:27Z</time>
      </trkpt>
      <trkpt lat="45.8498" lon="6.44369">
        <ele>2270</ele>
        <time>2018-10-17T08:14:28Z</time>
      </trkpt>
      <trkpt lat="45.8498" lon="6.44369">
        <ele>2270</ele>
        <time>2018-10-17T08:14:29Z</time>
      </trkpt>
      <trkpt lat="45.8498" lon="6.44369">
        <ele>2270</ele>
        <time>2018-10-17T08:14:30Z</time>
      </trkpt>
      <trkpt lat="45.8498" lon="6.44369">
        <ele>2270</ele>
        <time>2018-10-17T08:14:31Z</time>
      </trkpt>
      <trkpt lat="45.84981" lon="6.44371">
        <ele>2270</ele>
        <time>2018-10-17T08:14:32Z</time>
      </trkpt>
      <trkpt lat="45.84981" lon="6.44371">
        <ele>2270</ele>
        <time>2018-10-17T08:14:33Z</time>
      </trkpt>
      <trkpt lat="45.84981" lon="6.44371">
        <ele>2270</ele>
        <time>2018-10-17T08:14:34Z</time>
      </trkpt>
      <trkpt lat="45.84981" lon="6.44371">
        <ele>2270</ele>
        <time>2018-10-17T08:14:35Z</time>
      </trkpt>
      <trkpt lat="45.84981" lon="6.44371">
        <ele>2270</ele>
        <time>2018-10-17T08:14:36Z</time>
      </trkpt>
      <trkpt lat="45.84983" lon="6.44372">
        <ele>2271</ele>
        <time>2018-10-17T08:14:37Z</time>
      </trkpt>
      <trkpt lat="45.84983" lon="6.44372">
        <ele>2272</ele>
        <time>2018-10-17T08:14:38Z</time>
      </trkpt>
      <trkpt lat="45.84983" lon="6.44372">
        <ele>2272</ele>
        <time>2018-10-17T08:14:39Z</time>
      </trkpt>
      <trkpt lat="45.84983" lon="6.44372">
        <ele>2272</ele>
        <time>2018-10-17T08:14:40Z</time>
      </trkpt>
      <trkpt lat="45.84984" lon="6.44375">
        <ele>2272</ele>
        <time>2018-10-17T08:14:41Z</time>
      </trkpt>
      <trkpt lat="45.84984" lon="6.44375">
        <ele>2272</ele>
        <time>2018-10-17T08:14:42Z</time>
      </trkpt>
      <trkpt lat="45.84984" lon="6.44375">
        <ele>2274</ele>
        <time>2018-10-17T08:14:43Z</time>
      </trkpt>
      <trkpt lat="45.84984" lon="6.44375">
        <ele>2274</ele>
        <time>2018-10-17T08:14:44Z</time>
      </trkpt>
      <trkpt lat="45.84984" lon="6.44375">
        <ele>2274</ele>
        <time>2018-10-17T08:14:45Z</time>
      </trkpt>
      <trkpt lat="45.84984" lon="6.44375">
        <ele>2274</ele>
        <time>2018-10-17T08:14:46Z</time>
      </trkpt>
      <trkpt lat="45.84984" lon="6.44378">
        <ele>2274</ele>
        <time>2018-10-17T08:14:47Z</time>
      </trkpt>
      <trkpt lat="45.84984" lon="6.44378">
        <ele>2274</ele>
        <time>2018-10-17T08:14:48Z</time>
      </trkpt>
      <trkpt lat="45.84984" lon="6.44378">
        <ele>2275</ele>
        <time>2018-10-17T08:14:49Z</time>
      </trkpt>
      <trkpt lat="45.84984" lon="6.44378">
        <ele>2275</ele>
        <time>2018-10-17T08:14:50Z</time>
      </trkpt>
      <trkpt lat="45.84984" lon="6.44381">
        <ele>2276</ele>
        <time>2018-10-17T08:14:51Z</time>
      </trkpt>
      <trkpt lat="45.84984" lon="6.44381">
        <ele>2276</ele>
        <time>2018-10-17T08:14:52Z</time>
      </trkpt>
      <trkpt lat="45.84984" lon="6.44381">
        <ele>2276</ele>
        <time>2018-10-17T08:14:53Z</time>
      </trkpt>
      <trkpt lat="45.84984" lon="6.44381">
        <ele>2276</ele>
        <time>2018-10-17T08:14:54Z</time>
      </trkpt>
      <trkpt lat="45.84984" lon="6.44384">
        <ele>2277</ele>
        <time>2018-10-17T08:14:55Z</time>
      </trkpt>
      <trkpt lat="45.84984" lon="6.44384">
        <ele>2277</ele>
        <time>2018-10-17T08:14:56Z</time>
      </trkpt>
      <trkpt lat="45.84984" lon="6.44384">
        <ele>2277</ele>
        <time>2018-10-17T08:14:57Z</time>
      </trkpt>
      <trkpt lat="45.84984" lon="6.44384">
        <ele>2277</ele>
        <time>2018-10-17T08:14:58Z</time>
      </trkpt>
      <trkpt lat="45.84984" lon="6.44384">
        <ele>2277</ele>
        <time>2018-10-17T08:14:59Z</time>
      </trkpt>
      <trkpt lat="45.84984" lon="6.44384">
        <ele>2277</ele>
        <time>2018-10-17T08:15:00Z</time>
      </trkpt>
      <trkpt lat="45.84986" lon="6.44386">
        <ele>2277</ele>
        <time>2018-10-17T08:15:01Z</time>
      </trkpt>
      <trkpt lat="45.84986" lon="6.44386">
        <ele>2278</ele>
        <time>2018-10-17T08:15:02Z</time>
      </trkpt>
      <trkpt lat="45.84986" lon="6.44386">
        <ele>2278</ele>
        <time>2018-10-17T08:15:03Z</time>
      </trkpt>
      <trkpt lat="45.84985" lon="6.4439">
        <ele>2278</ele>
        <time>2018-10-17T08:15:04Z</time>
      </trkpt>
      <trkpt lat="45.84985" lon="6.4439">
        <ele>2279</ele>
        <time>2018-10-17T08:15:05Z</time>
      </trkpt>
      <trkpt lat="45.84985" lon="6.4439">
        <ele>2279</ele>
        <time>2018-10-17T08:15:06Z</time>
      </trkpt>
      <trkpt lat="45.84985" lon="6.44393">
        <ele>2279</ele>
        <time>2018-10-17T08:15:07Z</time>
      </trkpt>
      <trkpt lat="45.84985" lon="6.44393">
        <ele>2279</ele>
        <time>2018-10-17T08:15:08Z</time>
      </trkpt>
      <trkpt lat="45.84985" lon="6.44393">
        <ele>2279</ele>
        <time>2018-10-17T08:15:09Z</time>
      </trkpt>
      <trkpt lat="45.84985" lon="6.44393">
        <ele>2279</ele>
        <time>2018-10-17T08:15:10Z</time>
      </trkpt>
      <trkpt lat="45.84985" lon="6.44393">
        <ele>2280</ele>
        <time>2018-10-17T08:15:11Z</time>
      </trkpt>
      <trkpt lat="45.84985" lon="6.44395">
        <ele>2280</ele>
        <time>2018-10-17T08:15:12Z</time>
      </trkpt>
      <trkpt lat="45.84985" lon="6.44395">
        <ele>2280</ele>
        <time>2018-10-17T08:15:13Z</time>
      </trkpt>
      <trkpt lat="45.84985" lon="6.44395">
        <ele>2281</ele>
        <time>2018-10-17T08:15:14Z</time>
      </trkpt>
      <trkpt lat="45.84985" lon="6.44395">
        <ele>2281</ele>
        <time>2018-10-17T08:15:15Z</time>
      </trkpt>
      <trkpt lat="45.84985" lon="6.44395">
        <ele>2281</ele>
        <time>2018-10-17T08:15:16Z</time>
      </trkpt>
      <trkpt lat="45.84985" lon="6.44395">
        <ele>2281</ele>
        <time>2018-10-17T08:15:17Z</time>
      </trkpt>
      <trkpt lat="45.84987" lon="6.44396">
        <ele>2281</ele>
        <time>2018-10-17T08:15:18Z</time>
      </trkpt>
      <trkpt lat="45.84987" lon="6.44396">
        <ele>2282</ele>
        <time>2018-10-17T08:15:19Z</time>
      </trkpt>
      <trkpt lat="45.84987" lon="6.44396">
        <ele>2283</ele>
        <time>2018-10-17T08:15:20Z</time>
      </trkpt>
      <trkpt lat="45.84987" lon="6.44396">
        <ele>2283</ele>
        <time>2018-10-17T08:15:21Z</time>
      </trkpt>
      <trkpt lat="45.84987" lon="6.44396">
        <ele>2283</ele>
        <time>2018-10-17T08:15:22Z</time>
      </trkpt>
      <trkpt lat="45.84987" lon="6.44399">
        <ele>2283</ele>
        <time>2018-10-17T08:15:23Z</time>
      </trkpt>
      <trkpt lat="45.84987" lon="6.44399">
        <ele>2283</ele>
        <time>2018-10-17T08:15:24Z</time>
      </trkpt>
      <trkpt lat="45.84987" lon="6.44399">
        <ele>2284</ele>
        <time>2018-10-17T08:15:25Z</time>
      </trkpt>
      <trkpt lat="45.84987" lon="6.44399">
        <ele>2284</ele>
        <time>2018-10-17T08:15:26Z</time>
      </trkpt>
      <trkpt lat="45.84986" lon="6.44402">
        <ele>2284</ele>
        <time>2018-10-17T08:15:27Z</time>
      </trkpt>
      <trkpt lat="45.84986" lon="6.44402">
        <ele>2284</ele>
        <time>2018-10-17T08:15:28Z</time>
      </trkpt>
      <trkpt lat="45.84986" lon="6.44402">
        <ele>2284</ele>
        <time>2018-10-17T08:15:29Z</time>
      </trkpt>
      <trkpt lat="45.84986" lon="6.44402">
        <ele>2284</ele>
        <time>2018-10-17T08:15:30Z</time>
      </trkpt>
      <trkpt lat="45.84987" lon="6.44404">
        <ele>2284</ele>
        <time>2018-10-17T08:15:31Z</time>
      </trkpt>
      <trkpt lat="45.84987" lon="6.44404">
        <ele>2285</ele>
        <time>2018-10-17T08:15:32Z</time>
      </trkpt>
      <trkpt lat="45.84987" lon="6.44404">
        <ele>2285</ele>
        <time>2018-10-17T08:15:33Z</time>
      </trkpt>
      <trkpt lat="45.84987" lon="6.44407">
        <ele>2285</ele>
        <time>2018-10-17T08:15:34Z</time>
      </trkpt>
      <trkpt lat="45.84987" lon="6.44407">
        <ele>2285</ele>
        <time>2018-10-17T08:15:35Z</time>
      </trkpt>
      <trkpt lat="45.84987" lon="6.44407">
        <ele>2285</ele>
        <time>2018-10-17T08:15:36Z</time>
      </trkpt>
      <trkpt lat="45.84987" lon="6.44407">
        <ele>2286</ele>
        <time>2018-10-17T08:15:37Z</time>
      </trkpt>
      <trkpt lat="45.84987" lon="6.4441">
        <ele>2286</ele>
        <time>2018-10-17T08:15:38Z</time>
      </trkpt>
      <trkpt lat="45.84987" lon="6.4441">
        <ele>2286</ele>
        <time>2018-10-17T08:15:39Z</time>
      </trkpt>
      <trkpt lat="45.84987" lon="6.4441">
        <ele>2286</ele>
        <time>2018-10-17T08:15:40Z</time>
      </trkpt>
      <trkpt lat="45.84987" lon="6.4441">
        <ele>2286</ele>
        <time>2018-10-17T08:15:41Z</time>
      </trkpt>
      <trkpt lat="45.84986" lon="6.44413">
        <ele>2287</ele>
        <time>2018-10-17T08:15:42Z</time>
      </trkpt>
      <trkpt lat="45.84986" lon="6.44413">
        <ele>2287</ele>
        <time>2018-10-17T08:15:43Z</time>
      </trkpt>
      <trkpt lat="45.84986" lon="6.44413">
        <ele>2288</ele>
        <time>2018-10-17T08:15:44Z</time>
      </trkpt>
      <trkpt lat="45.84986" lon="6.44413">
        <ele>2288</ele>
        <time>2018-10-17T08:15:45Z</time>
      </trkpt>
      <trkpt lat="45.84986" lon="6.44413">
        <ele>2288</ele>
        <time>2018-10-17T08:15:46Z</time>
      </trkpt>
      <trkpt lat="45.84987" lon="6.44415">
        <ele>2288</ele>
        <time>2018-10-17T08:15:47Z</time>
      </trkpt>
      <trkpt lat="45.84987" lon="6.44415">
        <ele>2288</ele>
        <time>2018-10-17T08:15:48Z</time>
      </trkpt>
      <trkpt lat="45.84987" lon="6.44415">
        <ele>2289</ele>
        <time>2018-10-17T08:15:49Z</time>
      </trkpt>
      <trkpt lat="45.84987" lon="6.44415">
        <ele>2289</ele>
        <time>2018-10-17T08:15:50Z</time>
      </trkpt>
      <trkpt lat="45.84988" lon="6.44418">
        <ele>2289</ele>
        <time>2018-10-17T08:15:51Z</time>
      </trkpt>
      <trkpt lat="45.84988" lon="6.44418">
        <ele>2290</ele>
        <time>2018-10-17T08:15:52Z</time>
      </trkpt>
      <trkpt lat="45.84988" lon="6.44418">
        <ele>2290</ele>
        <time>2018-10-17T08:15:53Z</time>
      </trkpt>
      <trkpt lat="45.84986" lon="6.44421">
        <ele>2290</ele>
        <time>2018-10-17T08:15:54Z</time>
      </trkpt>
      <trkpt lat="45.84986" lon="6.44421">
        <ele>2290</ele>
        <time>2018-10-17T08:15:55Z</time>
      </trkpt>
      <trkpt lat="45.84986" lon="6.44421">
        <ele>2290</ele>
        <time>2018-10-17T08:15:56Z</time>
      </trkpt>
      <trkpt lat="45.84985" lon="6.44423">
        <ele>2290</ele>
        <time>2018-10-17T08:15:57Z</time>
      </trkpt>
      <trkpt lat="45.84985" lon="6.44423">
        <ele>2290</ele>
        <time>2018-10-17T08:15:58Z</time>
      </trkpt>
      <trkpt lat="45.84985" lon="6.44423">
        <ele>2290</ele>
        <time>2018-10-17T08:15:59Z</time>
      </trkpt>
      <trkpt lat="45.84985" lon="6.44423">
        <ele>2290</ele>
        <time>2018-10-17T08:16:00Z</time>
      </trkpt>
      <trkpt lat="45.84987" lon="6.44425">
        <ele>2291</ele>
        <time>2018-10-17T08:16:01Z</time>
      </trkpt>
      <trkpt lat="45.84987" lon="6.44425">
        <ele>2292</ele>
        <time>2018-10-17T08:16:02Z</time>
      </trkpt>
      <trkpt lat="45.84987" lon="6.44425">
        <ele>2292</ele>
        <time>2018-10-17T08:16:03Z</time>
      </trkpt>
      <trkpt lat="45.84989" lon="6.44425">
        <ele>2292</ele>
        <time>2018-10-17T08:16:04Z</time>
      </trkpt>
      <trkpt lat="45.84989" lon="6.44425">
        <ele>2292</ele>
        <time>2018-10-17T08:16:05Z</time>
      </trkpt>
      <trkpt lat="45.84989" lon="6.44425">
        <ele>2292</ele>
        <time>2018-10-17T08:16:06Z</time>
      </trkpt>
      <trkpt lat="45.84991" lon="6.44426">
        <ele>2292</ele>
        <time>2018-10-17T08:16:07Z</time>
      </trkpt>
      <trkpt lat="45.84991" lon="6.44426">
        <ele>2293</ele>
        <time>2018-10-17T08:16:08Z</time>
      </trkpt>
      <trkpt lat="45.84991" lon="6.44426">
        <ele>2293</ele>
        <time>2018-10-17T08:16:09Z</time>
      </trkpt>
      <trkpt lat="45.8499" lon="6.44428">
        <ele>2294</ele>
        <time>2018-10-17T08:16:10Z</time>
      </trkpt>
      <trkpt lat="45.8499" lon="6.44428">
        <ele>2294</ele>
        <time>2018-10-17T08:16:11Z</time>
      </trkpt>
      <trkpt lat="45.8499" lon="6.44428">
        <ele>2294</ele>
        <time>2018-10-17T08:16:12Z</time>
      </trkpt>
      <trkpt lat="45.8499" lon="6.44428">
        <ele>2294</ele>
        <time>2018-10-17T08:16:13Z</time>
      </trkpt>
      <trkpt lat="45.8499" lon="6.44428">
        <ele>2294</ele>
        <time>2018-10-17T08:16:14Z</time>
      </trkpt>
      <trkpt lat="45.84992" lon="6.4443">
        <ele>2294</ele>
        <time>2018-10-17T08:16:15Z</time>
      </trkpt>
      <trkpt lat="45.84992" lon="6.4443">
        <ele>2294</ele>
        <time>2018-10-17T08:16:16Z</time>
      </trkpt>
      <trkpt lat="45.84992" lon="6.4443">
        <ele>2295</ele>
        <time>2018-10-17T08:16:17Z</time>
      </trkpt>
      <trkpt lat="45.84994" lon="6.44429">
        <ele>2296</ele>
        <time>2018-10-17T08:16:18Z</time>
      </trkpt>
      <trkpt lat="45.84994" lon="6.44429">
        <ele>2296</ele>
        <time>2018-10-17T08:16:19Z</time>
      </trkpt>
      <trkpt lat="45.84994" lon="6.44429">
        <ele>2296</ele>
        <time>2018-10-17T08:16:20Z</time>
      </trkpt>
      <trkpt lat="45.84994" lon="6.44429">
        <ele>2296</ele>
        <time>2018-10-17T08:16:21Z</time>
      </trkpt>
      <trkpt lat="45.84994" lon="6.44429">
        <ele>2296</ele>
        <time>2018-10-17T08:16:22Z</time>
      </trkpt>
      <trkpt lat="45.84996" lon="6.4443">
        <ele>2296</ele>
        <time>2018-10-17T08:16:23Z</time>
      </trkpt>
      <trkpt lat="45.84996" lon="6.4443">
        <ele>2297</ele>
        <time>2018-10-17T08:16:24Z</time>
      </trkpt>
      <trkpt lat="45.84996" lon="6.4443">
        <ele>2297</ele>
        <time>2018-10-17T08:16:25Z</time>
      </trkpt>
      <trkpt lat="45.84996" lon="6.4443">
        <ele>2297</ele>
        <time>2018-10-17T08:16:26Z</time>
      </trkpt>
      <trkpt lat="45.84997" lon="6.44432">
        <ele>2298</ele>
        <time>2018-10-17T08:16:27Z</time>
      </trkpt>
      <trkpt lat="45.84997" lon="6.44432">
        <ele>2298</ele>
        <time>2018-10-17T08:16:28Z</time>
      </trkpt>
      <trkpt lat="45.84997" lon="6.44432">
        <ele>2298</ele>
        <time>2018-10-17T08:16:29Z</time>
      </trkpt>
      <trkpt lat="45.84997" lon="6.44432">
        <ele>2300</ele>
        <time>2018-10-17T08:16:30Z</time>
      </trkpt>
      <trkpt lat="45.84996" lon="6.44435">
        <ele>2300</ele>
        <time>2018-10-17T08:16:31Z</time>
      </trkpt>
      <trkpt lat="45.84996" lon="6.44435">
        <ele>2300</ele>
        <time>2018-10-17T08:16:32Z</time>
      </trkpt>
      <trkpt lat="45.84996" lon="6.44435">
        <ele>2300</ele>
        <time>2018-10-17T08:16:33Z</time>
      </trkpt>
      <trkpt lat="45.84996" lon="6.44435">
        <ele>2300</ele>
        <time>2018-10-17T08:16:34Z</time>
      </trkpt>
      <trkpt lat="45.84996" lon="6.44435">
        <ele>2300</ele>
        <time>2018-10-17T08:16:35Z</time>
      </trkpt>
      <trkpt lat="45.84996" lon="6.44435">
        <ele>2300</ele>
        <time>2018-10-17T08:16:36Z</time>
      </trkpt>
      <trkpt lat="45.84999" lon="6.44436">
        <ele>2300</ele>
        <time>2018-10-17T08:16:37Z</time>
      </trkpt>
      <trkpt lat="45.84999" lon="6.44436">
        <ele>2300</ele>
        <time>2018-10-17T08:16:38Z</time>
      </trkpt>
      <trkpt lat="45.84999" lon="6.44436">
        <ele>2301</ele>
        <time>2018-10-17T08:16:39Z</time>
      </trkpt>
      <trkpt lat="45.84999" lon="6.44436">
        <ele>2302</ele>
        <time>2018-10-17T08:16:40Z</time>
      </trkpt>
      <trkpt lat="45.85001" lon="6.44436">
        <ele>2303</ele>
        <time>2018-10-17T08:16:41Z</time>
      </trkpt>
      <trkpt lat="45.85001" lon="6.44436">
        <ele>2303</ele>
        <time>2018-10-17T08:16:42Z</time>
      </trkpt>
      <trkpt lat="45.85001" lon="6.44436">
        <ele>2303</ele>
        <time>2018-10-17T08:16:43Z</time>
      </trkpt>
      <trkpt lat="45.85001" lon="6.44436">
        <ele>2303</ele>
        <time>2018-10-17T08:16:44Z</time>
      </trkpt>
      <trkpt lat="45.85003" lon="6.44438">
        <ele>2303</ele>
        <time>2018-10-17T08:16:45Z</time>
      </trkpt>
      <trkpt lat="45.85003" lon="6.44438">
        <ele>2303</ele>
        <time>2018-10-17T08:16:46Z</time>
      </trkpt>
      <trkpt lat="45.85003" lon="6.44438">
        <ele>2303</ele>
        <time>2018-10-17T08:16:47Z</time>
      </trkpt>
      <trkpt lat="45.85003" lon="6.44438">
        <ele>2303</ele>
        <time>2018-10-17T08:16:48Z</time>
      </trkpt>
      <trkpt lat="45.85002" lon="6.44441">
        <ele>2303</ele>
        <time>2018-10-17T08:16:49Z</time>
      </trkpt>
      <trkpt lat="45.85002" lon="6.44441">
        <ele>2303</ele>
        <time>2018-10-17T08:16:50Z</time>
      </trkpt>
      <trkpt lat="45.85002" lon="6.44441">
        <ele>2303</ele>
        <time>2018-10-17T08:16:51Z</time>
      </trkpt>
      <trkpt lat="45.85001" lon="6.44444">
        <ele>2304</ele>
        <time>2018-10-17T08:16:52Z</time>
      </trkpt>
      <trkpt lat="45.85001" lon="6.44444">
        <ele>2304</ele>
        <time>2018-10-17T08:16:53Z</time>
      </trkpt>
      <trkpt lat="45.85001" lon="6.44444">
        <ele>2304</ele>
        <time>2018-10-17T08:16:54Z</time>
      </trkpt>
      <trkpt lat="45.85" lon="6.44446">
        <ele>2304</ele>
        <time>2018-10-17T08:16:55Z</time>
      </trkpt>
      <trkpt lat="45.85" lon="6.44446">
        <ele>2305</ele>
        <time>2018-10-17T08:16:56Z</time>
      </trkpt>
      <trkpt lat="45.85" lon="6.44446">
        <ele>2305</ele>
        <time>2018-10-17T08:16:57Z</time>
      </trkpt>
      <trkpt lat="45.85" lon="6.44446">
        <ele>2305</ele>
        <time>2018-10-17T08:16:58Z</time>
      </trkpt>
      <trkpt lat="45.84999" lon="6.44448">
        <ele>2305</ele>
        <time>2018-10-17T08:16:59Z</time>
      </trkpt>
      <trkpt lat="45.84999" lon="6.44448">
        <ele>2305</ele>
        <time>2018-10-17T08:17:00Z</time>
      </trkpt>
      <trkpt lat="45.84999" lon="6.44448">
        <ele>2305</ele>
        <time>2018-10-17T08:17:01Z</time>
      </trkpt>
      <trkpt lat="45.84999" lon="6.44448">
        <ele>2305</ele>
        <time>2018-10-17T08:17:02Z</time>
      </trkpt>
      <trkpt lat="45.85" lon="6.44451">
        <ele>2305</ele>
        <time>2018-10-17T08:17:03Z</time>
      </trkpt>
      <trkpt lat="45.85" lon="6.44451">
        <ele>2305</ele>
        <time>2018-10-17T08:17:04Z</time>
      </trkpt>
      <trkpt lat="45.85" lon="6.44451">
        <ele>2305</ele>
        <time>2018-10-17T08:17:05Z</time>
      </trkpt>
      <trkpt lat="45.85002" lon="6.44451">
        <ele>2305</ele>
        <time>2018-10-17T08:17:06Z</time>
      </trkpt>
      <trkpt lat="45.85002" lon="6.44451">
        <ele>2306</ele>
        <time>2018-10-17T08:17:07Z</time>
      </trkpt>
      <trkpt lat="45.85002" lon="6.44451">
        <ele>2307</ele>
        <time>2018-10-17T08:17:08Z</time>
      </trkpt>
      <trkpt lat="45.85002" lon="6.44451">
        <ele>2307</ele>
        <time>2018-10-17T08:17:09Z</time>
      </trkpt>
      <trkpt lat="45.85004" lon="6.44452">
        <ele>2307</ele>
        <time>2018-10-17T08:17:10Z</time>
      </trkpt>
      <trkpt lat="45.85004" lon="6.44452">
        <ele>2307</ele>
        <time>2018-10-17T08:17:11Z</time>
      </trkpt>
      <trkpt lat="45.85004" lon="6.44452">
        <ele>2307</ele>
        <time>2018-10-17T08:17:12Z</time>
      </trkpt>
      <trkpt lat="45.85004" lon="6.44452">
        <ele>2307</ele>
        <time>2018-10-17T08:17:13Z</time>
      </trkpt>
      <trkpt lat="45.85004" lon="6.44452">
        <ele>2308</ele>
        <time>2018-10-17T08:17:14Z</time>
      </trkpt>
      <trkpt lat="45.85005" lon="6.44454">
        <ele>2309</ele>
        <time>2018-10-17T08:17:15Z</time>
      </trkpt>
      <trkpt lat="45.85005" lon="6.44454">
        <ele>2309</ele>
        <time>2018-10-17T08:17:16Z</time>
      </trkpt>
      <trkpt lat="45.85005" lon="6.44454">
        <ele>2309</ele>
        <time>2018-10-17T08:17:17Z</time>
      </trkpt>
      <trkpt lat="45.85005" lon="6.44454">
        <ele>2309</ele>
        <time>2018-10-17T08:17:18Z</time>
      </trkpt>
      <trkpt lat="45.85006" lon="6.44456">
        <ele>2309</ele>
        <time>2018-10-17T08:17:19Z</time>
      </trkpt>
      <trkpt lat="45.85006" lon="6.44456">
        <ele>2309</ele>
        <time>2018-10-17T08:17:20Z</time>
      </trkpt>
      <trkpt lat="45.85006" lon="6.44456">
        <ele>2309</ele>
        <time>2018-10-17T08:17:21Z</time>
      </trkpt>
      <trkpt lat="45.85006" lon="6.44456">
        <ele>2309</ele>
        <time>2018-10-17T08:17:22Z</time>
      </trkpt>
      <trkpt lat="45.85006" lon="6.44456">
        <ele>2310</ele>
        <time>2018-10-17T08:17:23Z</time>
      </trkpt>
      <trkpt lat="45.85008" lon="6.44457">
        <ele>2311</ele>
        <time>2018-10-17T08:17:24Z</time>
      </trkpt>
      <trkpt lat="45.85008" lon="6.44457">
        <ele>2311</ele>
        <time>2018-10-17T08:17:25Z</time>
      </trkpt>
      <trkpt lat="45.85008" lon="6.44457">
        <ele>2311</ele>
        <time>2018-10-17T08:17:26Z</time>
      </trkpt>
      <trkpt lat="45.85008" lon="6.44457">
        <ele>2311</ele>
        <time>2018-10-17T08:17:27Z</time>
      </trkpt>
      <trkpt lat="45.85008" lon="6.44457">
        <ele>2312</ele>
        <time>2018-10-17T08:17:28Z</time>
      </trkpt>
      <trkpt lat="45.85008" lon="6.44457">
        <ele>2312</ele>
        <time>2018-10-17T08:17:29Z</time>
      </trkpt>
      <trkpt lat="45.85008" lon="6.44457">
        <ele>2312</ele>
        <time>2018-10-17T08:17:30Z</time>
      </trkpt>
      <trkpt lat="45.8501" lon="6.4446">
        <ele>2313</ele>
        <time>2018-10-17T08:17:31Z</time>
      </trkpt>
      <trkpt lat="45.8501" lon="6.4446">
        <ele>2313</ele>
        <time>2018-10-17T08:17:32Z</time>
      </trkpt>
      <trkpt lat="45.8501" lon="6.4446">
        <ele>2313</ele>
        <time>2018-10-17T08:17:33Z</time>
      </trkpt>
      <trkpt lat="45.8501" lon="6.4446">
        <ele>2313</ele>
        <time>2018-10-17T08:17:34Z</time>
      </trkpt>
      <trkpt lat="45.8501" lon="6.4446">
        <ele>2313</ele>
        <time>2018-10-17T08:17:35Z</time>
      </trkpt>
      <trkpt lat="45.85009" lon="6.44462">
        <ele>2314</ele>
        <time>2018-10-17T08:17:36Z</time>
      </trkpt>
      <trkpt lat="45.85009" lon="6.44462">
        <ele>2314</ele>
        <time>2018-10-17T08:17:37Z</time>
      </trkpt>
      <trkpt lat="45.85009" lon="6.44462">
        <ele>2314</ele>
        <time>2018-10-17T08:17:38Z</time>
      </trkpt>
      <trkpt lat="45.85009" lon="6.44465">
        <ele>2314</ele>
        <time>2018-10-17T08:17:39Z</time>
      </trkpt>
      <trkpt lat="45.85009" lon="6.44465">
        <ele>2314</ele>
        <time>2018-10-17T08:17:40Z</time>
      </trkpt>
      <trkpt lat="45.85009" lon="6.44465">
        <ele>2314</ele>
        <time>2018-10-17T08:17:41Z</time>
      </trkpt>
      <trkpt lat="45.85008" lon="6.44467">
        <ele>2315</ele>
        <time>2018-10-17T08:17:42Z</time>
      </trkpt>
      <trkpt lat="45.85008" lon="6.44467">
        <ele>2315</ele>
        <time>2018-10-17T08:17:43Z</time>
      </trkpt>
      <trkpt lat="45.85008" lon="6.44467">
        <ele>2315</ele>
        <time>2018-10-17T08:17:44Z</time>
      </trkpt>
      <trkpt lat="45.85007" lon="6.4447">
        <ele>2315</ele>
        <time>2018-10-17T08:17:45Z</time>
      </trkpt>
      <trkpt lat="45.85007" lon="6.4447">
        <ele>2315</ele>
        <time>2018-10-17T08:17:46Z</time>
      </trkpt>
      <trkpt lat="45.85007" lon="6.4447">
        <ele>2315</ele>
        <time>2018-10-17T08:17:47Z</time>
      </trkpt>
      <trkpt lat="45.85007" lon="6.4447">
        <ele>2315</ele>
        <time>2018-10-17T08:17:48Z</time>
      </trkpt>
      <trkpt lat="45.85007" lon="6.4447">
        <ele>2315</ele>
        <time>2018-10-17T08:17:49Z</time>
      </trkpt>
      <trkpt lat="45.85007" lon="6.4447">
        <ele>2315</ele>
        <time>2018-10-17T08:17:50Z</time>
      </trkpt>
      <trkpt lat="45.85009" lon="6.44472">
        <ele>2316</ele>
        <time>2018-10-17T08:17:51Z</time>
      </trkpt>
      <trkpt lat="45.85009" lon="6.44472">
        <ele>2316</ele>
        <time>2018-10-17T08:17:52Z</time>
      </trkpt>
      <trkpt lat="45.85009" lon="6.44472">
        <ele>2316</ele>
        <time>2018-10-17T08:17:53Z</time>
      </trkpt>
      <trkpt lat="45.85011" lon="6.4447">
        <ele>2316</ele>
        <time>2018-10-17T08:17:54Z</time>
      </trkpt>
      <trkpt lat="45.85011" lon="6.4447">
        <ele>2316</ele>
        <time>2018-10-17T08:17:55Z</time>
      </trkpt>
      <trkpt lat="45.85011" lon="6.4447">
        <ele>2316</ele>
        <time>2018-10-17T08:17:56Z</time>
      </trkpt>
      <trkpt lat="45.85012" lon="6.44471">
        <ele>2317</ele>
        <time>2018-10-17T08:17:57Z</time>
      </trkpt>
      <trkpt lat="45.85012" lon="6.44471">
        <ele>2317</ele>
        <time>2018-10-17T08:17:58Z</time>
      </trkpt>
      <trkpt lat="45.85012" lon="6.44471">
        <ele>2317</ele>
        <time>2018-10-17T08:17:59Z</time>
      </trkpt>
      <trkpt lat="45.85012" lon="6.44471">
        <ele>2317</ele>
        <time>2018-10-17T08:18:00Z</time>
      </trkpt>
      <trkpt lat="45.85012" lon="6.44474">
        <ele>2317</ele>
        <time>2018-10-17T08:18:01Z</time>
      </trkpt>
      <trkpt lat="45.85012" lon="6.44474">
        <ele>2318</ele>
        <time>2018-10-17T08:18:02Z</time>
      </trkpt>
      <trkpt lat="45.85012" lon="6.44474">
        <ele>2318</ele>
        <time>2018-10-17T08:18:03Z</time>
      </trkpt>
      <trkpt lat="45.85012" lon="6.44474">
        <ele>2318</ele>
        <time>2018-10-17T08:18:04Z</time>
      </trkpt>
      <trkpt lat="45.85013" lon="6.44477">
        <ele>2319</ele>
        <time>2018-10-17T08:18:05Z</time>
      </trkpt>
      <trkpt lat="45.85013" lon="6.44477">
        <ele>2319</ele>
        <time>2018-10-17T08:18:06Z</time>
      </trkpt>
      <trkpt lat="45.85013" lon="6.44477">
        <ele>2320</ele>
        <time>2018-10-17T08:18:07Z</time>
      </trkpt>
      <trkpt lat="45.85013" lon="6.44477">
        <ele>2321</ele>
        <time>2018-10-17T08:18:08Z</time>
      </trkpt>
      <trkpt lat="45.85013" lon="6.44477">
        <ele>2321</ele>
        <time>2018-10-17T08:18:09Z</time>
      </trkpt>
      <trkpt lat="45.85013" lon="6.44477">
        <ele>2321</ele>
        <time>2018-10-17T08:18:10Z</time>
      </trkpt>
      <trkpt lat="45.85013" lon="6.44477">
        <ele>2321</ele>
        <time>2018-10-17T08:18:11Z</time>
      </trkpt>
      <trkpt lat="45.85015" lon="6.44477">
        <ele>2321</ele>
        <time>2018-10-17T08:18:12Z</time>
      </trkpt>
      <trkpt lat="45.85015" lon="6.44477">
        <ele>2321</ele>
        <time>2018-10-17T08:18:13Z</time>
      </trkpt>
      <trkpt lat="45.85015" lon="6.44477">
        <ele>2322</ele>
        <time>2018-10-17T08:18:14Z</time>
      </trkpt>
      <trkpt lat="45.85015" lon="6.44477">
        <ele>2322</ele>
        <time>2018-10-17T08:18:15Z</time>
      </trkpt>
      <trkpt lat="45.85017" lon="6.44478">
        <ele>2322</ele>
        <time>2018-10-17T08:18:16Z</time>
      </trkpt>
      <trkpt lat="45.85017" lon="6.44478">
        <ele>2322</ele>
        <time>2018-10-17T08:18:17Z</time>
      </trkpt>
      <trkpt lat="45.85017" lon="6.44478">
        <ele>2322</ele>
        <time>2018-10-17T08:18:18Z</time>
      </trkpt>
      <trkpt lat="45.85017" lon="6.44478">
        <ele>2323</ele>
        <time>2018-10-17T08:18:19Z</time>
      </trkpt>
      <trkpt lat="45.85017" lon="6.44478">
        <ele>2323</ele>
        <time>2018-10-17T08:18:20Z</time>
      </trkpt>
      <trkpt lat="45.85017" lon="6.44478">
        <ele>2323</ele>
        <time>2018-10-17T08:18:21Z</time>
      </trkpt>
      <trkpt lat="45.85017" lon="6.44478">
        <ele>2323</ele>
        <time>2018-10-17T08:18:22Z</time>
      </trkpt>
      <trkpt lat="45.85019" lon="6.44479">
        <ele>2323</ele>
        <time>2018-10-17T08:18:23Z</time>
      </trkpt>
      <trkpt lat="45.85019" lon="6.44479">
        <ele>2323</ele>
        <time>2018-10-17T08:18:24Z</time>
      </trkpt>
      <trkpt lat="45.85019" lon="6.44479">
        <ele>2324</ele>
        <time>2018-10-17T08:18:25Z</time>
      </trkpt>
      <trkpt lat="45.85019" lon="6.44479">
        <ele>2324</ele>
        <time>2018-10-17T08:18:26Z</time>
      </trkpt>
      <trkpt lat="45.85019" lon="6.44479">
        <ele>2324</ele>
        <time>2018-10-17T08:18:27Z</time>
      </trkpt>
      <trkpt lat="45.85019" lon="6.44479">
        <ele>2325</ele>
        <time>2018-10-17T08:18:28Z</time>
      </trkpt>
      <trkpt lat="45.85021" lon="6.44477">
        <ele>2325</ele>
        <time>2018-10-17T08:18:29Z</time>
      </trkpt>
      <trkpt lat="45.85021" lon="6.44477">
        <ele>2325</ele>
        <time>2018-10-17T08:18:30Z</time>
      </trkpt>
      <trkpt lat="45.85021" lon="6.44477">
        <ele>2325</ele>
        <time>2018-10-17T08:18:31Z</time>
      </trkpt>
      <trkpt lat="45.85021" lon="6.44477">
        <ele>2325</ele>
        <time>2018-10-17T08:18:32Z</time>
      </trkpt>
      <trkpt lat="45.85023" lon="6.44475">
        <ele>2325</ele>
        <time>2018-10-17T08:18:33Z</time>
      </trkpt>
      <trkpt lat="45.85023" lon="6.44475">
        <ele>2325</ele>
        <time>2018-10-17T08:18:34Z</time>
      </trkpt>
      <trkpt lat="45.85024" lon="6.44473">
        <ele>2325</ele>
        <time>2018-10-17T08:18:35Z</time>
      </trkpt>
      <trkpt lat="45.85024" lon="6.44473">
        <ele>2326</ele>
        <time>2018-10-17T08:18:36Z</time>
      </trkpt>
      <trkpt lat="45.85024" lon="6.44473">
        <ele>2326</ele>
        <time>2018-10-17T08:18:37Z</time>
      </trkpt>
      <trkpt lat="45.85024" lon="6.44473">
        <ele>2326</ele>
        <time>2018-10-17T08:18:38Z</time>
      </trkpt>
      <trkpt lat="45.85026" lon="6.44473">
        <ele>2326</ele>
        <time>2018-10-17T08:18:39Z</time>
      </trkpt>
      <trkpt lat="45.85026" lon="6.44473">
        <ele>2326</ele>
        <time>2018-10-17T08:18:40Z</time>
      </trkpt>
      <trkpt lat="45.85026" lon="6.44473">
        <ele>2326</ele>
        <time>2018-10-17T08:18:41Z</time>
      </trkpt>
      <trkpt lat="45.85026" lon="6.44473">
        <ele>2327</ele>
        <time>2018-10-17T08:18:42Z</time>
      </trkpt>
      <trkpt lat="45.85026" lon="6.44473">
        <ele>2327</ele>
        <time>2018-10-17T08:18:43Z</time>
      </trkpt>
      <trkpt lat="45.85026" lon="6.44473">
        <ele>2327</ele>
        <time>2018-10-17T08:18:44Z</time>
      </trkpt>
      <trkpt lat="45.85026" lon="6.44473">
        <ele>2327</ele>
        <time>2018-10-17T08:18:45Z</time>
      </trkpt>
      <trkpt lat="45.85026" lon="6.44473">
        <ele>2327</ele>
        <time>2018-10-17T08:18:46Z</time>
      </trkpt>
      <trkpt lat="45.85027" lon="6.44475">
        <ele>2327</ele>
        <time>2018-10-17T08:18:47Z</time>
      </trkpt>
      <trkpt lat="45.85027" lon="6.44475">
        <ele>2328</ele>
        <time>2018-10-17T08:18:48Z</time>
      </trkpt>
      <trkpt lat="45.85027" lon="6.44475">
        <ele>2328</ele>
        <time>2018-10-17T08:18:49Z</time>
      </trkpt>
      <trkpt lat="45.85027" lon="6.44475">
        <ele>2328</ele>
        <time>2018-10-17T08:18:50Z</time>
      </trkpt>
      <trkpt lat="45.85028" lon="6.44478">
        <ele>2328</ele>
        <time>2018-10-17T08:18:51Z</time>
      </trkpt>
      <trkpt lat="45.85028" lon="6.44478">
        <ele>2329</ele>
        <time>2018-10-17T08:18:52Z</time>
      </trkpt>
      <trkpt lat="45.85028" lon="6.44478">
        <ele>2329</ele>
        <time>2018-10-17T08:18:53Z</time>
      </trkpt>
      <trkpt lat="45.85028" lon="6.44478">
        <ele>2329</ele>
        <time>2018-10-17T08:18:54Z</time>
      </trkpt>
      <trkpt lat="45.85028" lon="6.44478">
        <ele>2330</ele>
        <time>2018-10-17T08:18:55Z</time>
      </trkpt>
      <trkpt lat="45.85028" lon="6.44478">
        <ele>2330</ele>
        <time>2018-10-17T08:18:56Z</time>
      </trkpt>
      <trkpt lat="45.85028" lon="6.4448">
        <ele>2330</ele>
        <time>2018-10-17T08:18:57Z</time>
      </trkpt>
      <trkpt lat="45.85028" lon="6.4448">
        <ele>2330</ele>
        <time>2018-10-17T08:18:58Z</time>
      </trkpt>
      <trkpt lat="45.85028" lon="6.4448">
        <ele>2330</ele>
        <time>2018-10-17T08:18:59Z</time>
      </trkpt>
      <trkpt lat="45.85028" lon="6.4448">
        <ele>2330</ele>
        <time>2018-10-17T08:19:00Z</time>
      </trkpt>
      <trkpt lat="45.85028" lon="6.4448">
        <ele>2330</ele>
        <time>2018-10-17T08:19:01Z</time>
      </trkpt>
      <trkpt lat="45.85028" lon="6.4448">
        <ele>2331</ele>
        <time>2018-10-17T08:19:02Z</time>
      </trkpt>
      <trkpt lat="45.85028" lon="6.4448">
        <ele>2331</ele>
        <time>2018-10-17T08:19:03Z</time>
      </trkpt>
      <trkpt lat="45.85029" lon="6.44483">
        <ele>2333</ele>
        <time>2018-10-17T08:19:04Z</time>
      </trkpt>
      <trkpt lat="45.85029" lon="6.44483">
        <ele>2333</ele>
        <time>2018-10-17T08:19:05Z</time>
      </trkpt>
      <trkpt lat="45.85029" lon="6.44483">
        <ele>2333</ele>
        <time>2018-10-17T08:19:06Z</time>
      </trkpt>
      <trkpt lat="45.85029" lon="6.44483">
        <ele>2333</ele>
        <time>2018-10-17T08:19:07Z</time>
      </trkpt>
      <trkpt lat="45.85029" lon="6.44483">
        <ele>2333</ele>
        <time>2018-10-17T08:19:08Z</time>
      </trkpt>
      <trkpt lat="45.85029" lon="6.44483">
        <ele>2333</ele>
        <time>2018-10-17T08:19:09Z</time>
      </trkpt>
      <trkpt lat="45.85029" lon="6.44483">
        <ele>2333</ele>
        <time>2018-10-17T08:19:10Z</time>
      </trkpt>
      <trkpt lat="45.85029" lon="6.44483">
        <ele>2333</ele>
        <time>2018-10-17T08:19:11Z</time>
      </trkpt>
      <trkpt lat="45.85031" lon="6.44484">
        <ele>2334</ele>
        <time>2018-10-17T08:19:12Z</time>
      </trkpt>
      <trkpt lat="45.85031" lon="6.44484">
        <ele>2335</ele>
        <time>2018-10-17T08:19:13Z</time>
      </trkpt>
      <trkpt lat="45.85031" lon="6.44484">
        <ele>2335</ele>
        <time>2018-10-17T08:19:14Z</time>
      </trkpt>
      <trkpt lat="45.85031" lon="6.44484">
        <ele>2335</ele>
        <time>2018-10-17T08:19:15Z</time>
      </trkpt>
      <trkpt lat="45.85031" lon="6.44484">
        <ele>2336</ele>
        <time>2018-10-17T08:19:16Z</time>
      </trkpt>
      <trkpt lat="45.85031" lon="6.44484">
        <ele>2336</ele>
        <time>2018-10-17T08:19:17Z</time>
      </trkpt>
      <trkpt lat="45.85031" lon="6.44484">
        <ele>2336</ele>
        <time>2018-10-17T08:19:18Z</time>
      </trkpt>
      <trkpt lat="45.85031" lon="6.44484">
        <ele>2336</ele>
        <time>2018-10-17T08:19:19Z</time>
      </trkpt>
      <trkpt lat="45.85032" lon="6.44487">
        <ele>2336</ele>
        <time>2018-10-17T08:19:20Z</time>
      </trkpt>
      <trkpt lat="45.85032" lon="6.44487">
        <ele>2336</ele>
        <time>2018-10-17T08:19:21Z</time>
      </trkpt>
      <trkpt lat="45.85032" lon="6.44487">
        <ele>2336</ele>
        <time>2018-10-17T08:19:22Z</time>
      </trkpt>
      <trkpt lat="45.85032" lon="6.44487">
        <ele>2337</ele>
        <time>2018-10-17T08:19:23Z</time>
      </trkpt>
      <trkpt lat="45.85033" lon="6.44489">
        <ele>2337</ele>
        <time>2018-10-17T08:19:24Z</time>
      </trkpt>
      <trkpt lat="45.85033" lon="6.44489">
        <ele>2337</ele>
        <time>2018-10-17T08:19:25Z</time>
      </trkpt>
      <trkpt lat="45.85033" lon="6.44489">
        <ele>2337</ele>
        <time>2018-10-17T08:19:26Z</time>
      </trkpt>
      <trkpt lat="45.85033" lon="6.44489">
        <ele>2337</ele>
        <time>2018-10-17T08:19:27Z</time>
      </trkpt>
      <trkpt lat="45.85033" lon="6.44489">
        <ele>2337</ele>
        <time>2018-10-17T08:19:28Z</time>
      </trkpt>
      <trkpt lat="45.85033" lon="6.44489">
        <ele>2337</ele>
        <time>2018-10-17T08:19:29Z</time>
      </trkpt>
      <trkpt lat="45.85033" lon="6.44489">
        <ele>2337</ele>
        <time>2018-10-17T08:19:30Z</time>
      </trkpt>
      <trkpt lat="45.85033" lon="6.44489">
        <ele>2337</ele>
        <time>2018-10-17T08:19:31Z</time>
      </trkpt>
      <trkpt lat="45.85033" lon="6.44489">
        <ele>2337</ele>
        <time>2018-10-17T08:19:32Z</time>
      </trkpt>
      <trkpt lat="45.85033" lon="6.44489">
        <ele>2337</ele>
        <time>2018-10-17T08:19:33Z</time>
      </trkpt>
      <trkpt lat="45.85033" lon="6.44489">
        <ele>2337</ele>
        <time>2018-10-17T08:19:34Z</time>
      </trkpt>
      <trkpt lat="45.85033" lon="6.44489">
        <ele>2337</ele>
        <time>2018-10-17T08:19:35Z</time>
      </trkpt>
      <trkpt lat="45.85033" lon="6.44489">
        <ele>2337</ele>
        <time>2018-10-17T08:19:36Z</time>
      </trkpt>
      <trkpt lat="45.85033" lon="6.44489">
        <ele>2337</ele>
        <time>2018-10-17T08:19:37Z</time>
      </trkpt>
      <trkpt lat="45.85033" lon="6.44489">
        <ele>2337</ele>
        <time>2018-10-17T08:19:38Z</time>
      </trkpt>
      <trkpt lat="45.85033" lon="6.44489">
        <ele>2337</ele>
        <time>2018-10-17T08:19:39Z</time>
      </trkpt>
      <trkpt lat="45.85033" lon="6.44489">
        <ele>2338</ele>
        <time>2018-10-17T08:19:40Z</time>
      </trkpt>
      <trkpt lat="45.85033" lon="6.44489">
        <ele>2338</ele>
        <time>2018-10-17T08:19:41Z</time>
      </trkpt>
      <trkpt lat="45.85033" lon="6.44489">
        <ele>2338</ele>
        <time>2018-10-17T08:19:42Z</time>
      </trkpt>
      <trkpt lat="45.85033" lon="6.44489">
        <ele>2338</ele>
        <time>2018-10-17T08:19:43Z</time>
      </trkpt>
      <trkpt lat="45.85033" lon="6.44489">
        <ele>2338</ele>
        <time>2018-10-17T08:19:44Z</time>
      </trkpt>
      <trkpt lat="45.85033" lon="6.44489">
        <ele>2338</ele>
        <time>2018-10-17T08:19:45Z</time>
      </trkpt>
      <trkpt lat="45.85033" lon="6.44489">
        <ele>2338</ele>
        <time>2018-10-17T08:19:46Z</time>
      </trkpt>
      <trkpt lat="45.85033" lon="6.44489">
        <ele>2338</ele>
        <time>2018-10-17T08:19:47Z</time>
      </trkpt>
      <trkpt lat="45.85033" lon="6.44489">
        <ele>2338</ele>
        <time>2018-10-17T08:19:48Z</time>
      </trkpt>
      <trkpt lat="45.85033" lon="6.44489">
        <ele>2338</ele>
        <time>2018-10-17T08:19:49Z</time>
      </trkpt>
      <trkpt lat="45.85033" lon="6.44489">
        <ele>2338</ele>
        <time>2018-10-17T08:19:50Z</time>
      </trkpt>
      <trkpt lat="45.85033" lon="6.44489">
        <ele>2338</ele>
        <time>2018-10-17T08:19:51Z</time>
      </trkpt>
      <trkpt lat="45.85033" lon="6.44489">
        <ele>2338</ele>
        <time>2018-10-17T08:19:52Z</time>
      </trkpt>
      <trkpt lat="45.85033" lon="6.44489">
        <ele>2338</ele>
        <time>2018-10-17T08:19:53Z</time>
      </trkpt>
      <trkpt lat="45.85033" lon="6.44489">
        <ele>2338</ele>
        <time>2018-10-17T08:19:54Z</time>
      </trkpt>
      <trkpt lat="45.85033" lon="6.44489">
        <ele>2338</ele>
        <time>2018-10-17T08:19:55Z</time>
      </trkpt>
      <trkpt lat="45.85033" lon="6.44489">
        <ele>2338</ele>
        <time>2018-10-17T08:19:56Z</time>
      </trkpt>
      <trkpt lat="45.85033" lon="6.44489">
        <ele>2338</ele>
        <time>2018-10-17T08:19:57Z</time>
      </trkpt>
      <trkpt lat="45.85033" lon="6.44489">
        <ele>2338</ele>
        <time>2018-10-17T08:19:58Z</time>
      </trkpt>
      <trkpt lat="45.85033" lon="6.44489">
        <ele>2338</ele>
        <time>2018-10-17T08:19:59Z</time>
      </trkpt>
      <trkpt lat="45.85033" lon="6.44489">
        <ele>2338</ele>
        <time>2018-10-17T08:20:00Z</time>
      </trkpt>
      <trkpt lat="45.85033" lon="6.44489">
        <ele>2338</ele>
        <time>2018-10-17T08:20:01Z</time>
      </trkpt>
      <trkpt lat="45.85033" lon="6.44489">
        <ele>2338</ele>
        <time>2018-10-17T08:20:02Z</time>
      </trkpt>
      <trkpt lat="45.85033" lon="6.44489">
        <ele>2338</ele>
        <time>2018-10-17T08:20:03Z</time>
      </trkpt>
      <trkpt lat="45.85032" lon="6.44492">
        <ele>2338</ele>
        <time>2018-10-17T08:20:04Z</time>
      </trkpt>
      <trkpt lat="45.85032" lon="6.44492">
        <ele>2338</ele>
        <time>2018-10-17T08:20:05Z</time>
      </trkpt>
      <trkpt lat="45.85032" lon="6.44492">
        <ele>2338</ele>
        <time>2018-10-17T08:20:06Z</time>
      </trkpt>
      <trkpt lat="45.85031" lon="6.44494">
        <ele>2338</ele>
        <time>2018-10-17T08:20:07Z</time>
      </trkpt>
      <trkpt lat="45.85031" lon="6.44494">
        <ele>2338</ele>
        <time>2018-10-17T08:20:08Z</time>
      </trkpt>
      <trkpt lat="45.8503" lon="6.44497">
        <ele>2338</ele>
        <time>2018-10-17T08:20:09Z</time>
      </trkpt>
      <trkpt lat="45.8503" lon="6.44497">
        <ele>2338</ele>
        <time>2018-10-17T08:20:10Z</time>
      </trkpt>
      <trkpt lat="45.8503" lon="6.44497">
        <ele>2338</ele>
        <time>2018-10-17T08:20:11Z</time>
      </trkpt>
      <trkpt lat="45.85028" lon="6.445">
        <ele>2338</ele>
        <time>2018-10-17T08:20:12Z</time>
      </trkpt>
      <trkpt lat="45.85028" lon="6.445">
        <ele>2338</ele>
        <time>2018-10-17T08:20:13Z</time>
      </trkpt>
      <trkpt lat="45.85028" lon="6.445">
        <ele>2338</ele>
        <time>2018-10-17T08:20:14Z</time>
      </trkpt>
      <trkpt lat="45.85026" lon="6.44502">
        <ele>2338</ele>
        <time>2018-10-17T08:20:15Z</time>
      </trkpt>
      <trkpt lat="45.85026" lon="6.44502">
        <ele>2338</ele>
        <time>2018-10-17T08:20:16Z</time>
      </trkpt>
      <trkpt lat="45.85026" lon="6.44502">
        <ele>2338</ele>
        <time>2018-10-17T08:20:17Z</time>
      </trkpt>
      <trkpt lat="45.85025" lon="6.44505">
        <ele>2338</ele>
        <time>2018-10-17T08:20:18Z</time>
      </trkpt>
      <trkpt lat="45.85025" lon="6.44505">
        <ele>2338</ele>
        <time>2018-10-17T08:20:19Z</time>
      </trkpt>
      <trkpt lat="45.85025" lon="6.44505">
        <ele>2338</ele>
        <time>2018-10-17T08:20:20Z</time>
      </trkpt>
      <trkpt lat="45.85024" lon="6.44508">
        <ele>2338</ele>
        <time>2018-10-17T08:20:21Z</time>
      </trkpt>
      <trkpt lat="45.85024" lon="6.44508">
        <ele>2338</ele>
        <time>2018-10-17T08:20:22Z</time>
      </trkpt>
      <trkpt lat="45.85024" lon="6.44508">
        <ele>2338</ele>
        <time>2018-10-17T08:20:23Z</time>
      </trkpt>
      <trkpt lat="45.85024" lon="6.44508">
        <ele>2338</ele>
        <time>2018-10-17T08:20:24Z</time>
      </trkpt>
      <trkpt lat="45.85024" lon="6.44508">
        <ele>2337</ele>
        <time>2018-10-17T08:20:25Z</time>
      </trkpt>
      <trkpt lat="45.85023" lon="6.44511">
        <ele>2337</ele>
        <time>2018-10-17T08:20:26Z</time>
      </trkpt>
      <trkpt lat="45.85023" lon="6.44511">
        <ele>2337</ele>
        <time>2018-10-17T08:20:27Z</time>
      </trkpt>
      <trkpt lat="45.85022" lon="6.44513">
        <ele>2338</ele>
        <time>2018-10-17T08:20:28Z</time>
      </trkpt>
      <trkpt lat="45.85022" lon="6.44513">
        <ele>2338</ele>
        <time>2018-10-17T08:20:29Z</time>
      </trkpt>
      <trkpt lat="45.85022" lon="6.44513">
        <ele>2338</ele>
        <time>2018-10-17T08:20:30Z</time>
      </trkpt>
      <trkpt lat="45.85022" lon="6.44513">
        <ele>2338</ele>
        <time>2018-10-17T08:20:31Z</time>
      </trkpt>
      <trkpt lat="45.85022" lon="6.44513">
        <ele>2338</ele>
        <time>2018-10-17T08:20:32Z</time>
      </trkpt>
      <trkpt lat="45.8502" lon="6.44516">
        <ele>2338</ele>
        <time>2018-10-17T08:20:33Z</time>
      </trkpt>
      <trkpt lat="45.8502" lon="6.44516">
        <ele>2338</ele>
        <time>2018-10-17T08:20:34Z</time>
      </trkpt>
      <trkpt lat="45.8502" lon="6.44516">
        <ele>2338</ele>
        <time>2018-10-17T08:20:35Z</time>
      </trkpt>
      <trkpt lat="45.8502" lon="6.44516">
        <ele>2338</ele>
        <time>2018-10-17T08:20:36Z</time>
      </trkpt>
      <trkpt lat="45.85019" lon="6.44519">
        <ele>2338</ele>
        <time>2018-10-17T08:20:37Z</time>
      </trkpt>
      <trkpt lat="45.85019" lon="6.44519">
        <ele>2338</ele>
        <time>2018-10-17T08:20:38Z</time>
      </trkpt>
      <trkpt lat="45.85019" lon="6.44519">
        <ele>2338</ele>
        <time>2018-10-17T08:20:39Z</time>
      </trkpt>
      <trkpt lat="45.85019" lon="6.44519">
        <ele>2338</ele>
        <time>2018-10-17T08:20:40Z</time>
      </trkpt>
      <trkpt lat="45.85019" lon="6.44519">
        <ele>2338</ele>
        <time>2018-10-17T08:20:41Z</time>
      </trkpt>
      <trkpt lat="45.85019" lon="6.44519">
        <ele>2338</ele>
        <time>2018-10-17T08:20:42Z</time>
      </trkpt>
      <trkpt lat="45.85019" lon="6.44519">
        <ele>2338</ele>
        <time>2018-10-17T08:20:43Z</time>
      </trkpt>
      <trkpt lat="45.85019" lon="6.44519">
        <ele>2338</ele>
        <time>2018-10-17T08:20:44Z</time>
      </trkpt>
      <trkpt lat="45.85018" lon="6.44522">
        <ele>2338</ele>
        <time>2018-10-17T08:20:45Z</time>
      </trkpt>
      <trkpt lat="45.85018" lon="6.44522">
        <ele>2338</ele>
        <time>2018-10-17T08:20:46Z</time>
      </trkpt>
      <trkpt lat="45.85018" lon="6.44522">
        <ele>2338</ele>
        <time>2018-10-17T08:20:47Z</time>
      </trkpt>
      <trkpt lat="45.85018" lon="6.44522">
        <ele>2338</ele>
        <time>2018-10-17T08:20:48Z</time>
      </trkpt>
      <trkpt lat="45.85018" lon="6.44525">
        <ele>2339</ele>
        <time>2018-10-17T08:20:49Z</time>
      </trkpt>
      <trkpt lat="45.85018" lon="6.44525">
        <ele>2339</ele>
        <time>2018-10-17T08:20:50Z</time>
      </trkpt>
      <trkpt lat="45.85018" lon="6.44525">
        <ele>2339</ele>
        <time>2018-10-17T08:20:51Z</time>
      </trkpt>
      <trkpt lat="45.85018" lon="6.44525">
        <ele>2338</ele>
        <time>2018-10-17T08:20:52Z</time>
      </trkpt>
      <trkpt lat="45.85018" lon="6.44525">
        <ele>2338</ele>
        <time>2018-10-17T08:20:53Z</time>
      </trkpt>
      <trkpt lat="45.85018" lon="6.44525">
        <ele>2338</ele>
        <time>2018-10-17T08:20:54Z</time>
      </trkpt>
      <trkpt lat="45.85018" lon="6.44525">
        <ele>2338</ele>
        <time>2018-10-17T08:20:55Z</time>
      </trkpt>
      <trkpt lat="45.85018" lon="6.44525">
        <ele>2338</ele>
        <time>2018-10-17T08:20:56Z</time>
      </trkpt>
      <trkpt lat="45.85018" lon="6.44528">
        <ele>2338</ele>
        <time>2018-10-17T08:20:57Z</time>
      </trkpt>
      <trkpt lat="45.85018" lon="6.44528">
        <ele>2338</ele>
        <time>2018-10-17T08:20:58Z</time>
      </trkpt>
      <trkpt lat="45.85018" lon="6.44528">
        <ele>2338</ele>
        <time>2018-10-17T08:20:59Z</time>
      </trkpt>
      <trkpt lat="45.85017" lon="6.44531">
        <ele>2340</ele>
        <time>2018-10-17T08:21:00Z</time>
      </trkpt>
      <trkpt lat="45.85017" lon="6.44531">
        <ele>2340</ele>
        <time>2018-10-17T08:21:01Z</time>
      </trkpt>
      <trkpt lat="45.85017" lon="6.44531">
        <ele>2340</ele>
        <time>2018-10-17T08:21:02Z</time>
      </trkpt>
      <trkpt lat="45.85017" lon="6.44531">
        <ele>2340</ele>
        <time>2018-10-17T08:21:03Z</time>
      </trkpt>
      <trkpt lat="45.85017" lon="6.44531">
        <ele>2340</ele>
        <time>2018-10-17T08:21:04Z</time>
      </trkpt>
      <trkpt lat="45.85017" lon="6.44531">
        <ele>2341</ele>
        <time>2018-10-17T08:21:05Z</time>
      </trkpt>
      <trkpt lat="45.85017" lon="6.44531">
        <ele>2341</ele>
        <time>2018-10-17T08:21:06Z</time>
      </trkpt>
      <trkpt lat="45.85018" lon="6.44533">
        <ele>2342</ele>
        <time>2018-10-17T08:21:07Z</time>
      </trkpt>
      <trkpt lat="45.85018" lon="6.44533">
        <ele>2342</ele>
        <time>2018-10-17T08:21:08Z</time>
      </trkpt>
      <trkpt lat="45.85018" lon="6.44533">
        <ele>2342</ele>
        <time>2018-10-17T08:21:09Z</time>
      </trkpt>
      <trkpt lat="45.85018" lon="6.44533">
        <ele>2342</ele>
        <time>2018-10-17T08:21:10Z</time>
      </trkpt>
      <trkpt lat="45.85019" lon="6.44536">
        <ele>2342</ele>
        <time>2018-10-17T08:21:11Z</time>
      </trkpt>
      <trkpt lat="45.85019" lon="6.44536">
        <ele>2342</ele>
        <time>2018-10-17T08:21:12Z</time>
      </trkpt>
      <trkpt lat="45.85019" lon="6.44536">
        <ele>2342</ele>
        <time>2018-10-17T08:21:13Z</time>
      </trkpt>
      <trkpt lat="45.85021" lon="6.44538">
        <ele>2343</ele>
        <time>2018-10-17T08:21:14Z</time>
      </trkpt>
      <trkpt lat="45.85021" lon="6.44538">
        <ele>2343</ele>
        <time>2018-10-17T08:21:15Z</time>
      </trkpt>
      <trkpt lat="45.85021" lon="6.44538">
        <ele>2344</ele>
        <time>2018-10-17T08:21:16Z</time>
      </trkpt>
      <trkpt lat="45.85021" lon="6.4454">
        <ele>2344</ele>
        <time>2018-10-17T08:21:17Z</time>
      </trkpt>
      <trkpt lat="45.85021" lon="6.4454">
        <ele>2344</ele>
        <time>2018-10-17T08:21:18Z</time>
      </trkpt>
      <trkpt lat="45.85021" lon="6.4454">
        <ele>2344</ele>
        <time>2018-10-17T08:21:19Z</time>
      </trkpt>
      <trkpt lat="45.85021" lon="6.4454">
        <ele>2344</ele>
        <time>2018-10-17T08:21:20Z</time>
      </trkpt>
      <trkpt lat="45.85021" lon="6.4454">
        <ele>2344</ele>
        <time>2018-10-17T08:21:21Z</time>
      </trkpt>
      <trkpt lat="45.85021" lon="6.4454">
        <ele>2344</ele>
        <time>2018-10-17T08:21:22Z</time>
      </trkpt>
      <trkpt lat="45.85021" lon="6.4454">
        <ele>2344</ele>
        <time>2018-10-17T08:21:23Z</time>
      </trkpt>
      <trkpt lat="45.85023" lon="6.44541">
        <ele>2345</ele>
        <time>2018-10-17T08:21:24Z</time>
      </trkpt>
      <trkpt lat="45.85023" lon="6.44541">
        <ele>2346</ele>
        <time>2018-10-17T08:21:25Z</time>
      </trkpt>
      <trkpt lat="45.85023" lon="6.44541">
        <ele>2346</ele>
        <time>2018-10-17T08:21:26Z</time>
      </trkpt>
      <trkpt lat="45.85023" lon="6.44541">
        <ele>2346</ele>
        <time>2018-10-17T08:21:27Z</time>
      </trkpt>
      <trkpt lat="45.85023" lon="6.44541">
        <ele>2346</ele>
        <time>2018-10-17T08:21:28Z</time>
      </trkpt>
      <trkpt lat="45.85024" lon="6.44544">
        <ele>2346</ele>
        <time>2018-10-17T08:21:29Z</time>
      </trkpt>
      <trkpt lat="45.85024" lon="6.44544">
        <ele>2346</ele>
        <time>2018-10-17T08:21:30Z</time>
      </trkpt>
      <trkpt lat="45.85024" lon="6.44544">
        <ele>2346</ele>
        <time>2018-10-17T08:21:31Z</time>
      </trkpt>
      <trkpt lat="45.85024" lon="6.44544">
        <ele>2346</ele>
        <time>2018-10-17T08:21:32Z</time>
      </trkpt>
      <trkpt lat="45.85024" lon="6.44544">
        <ele>2346</ele>
        <time>2018-10-17T08:21:33Z</time>
      </trkpt>
      <trkpt lat="45.85026" lon="6.44546">
        <ele>2346</ele>
        <time>2018-10-17T08:21:34Z</time>
      </trkpt>
      <trkpt lat="45.85026" lon="6.44546">
        <ele>2346</ele>
        <time>2018-10-17T08:21:35Z</time>
      </trkpt>
      <trkpt lat="45.85026" lon="6.44546">
        <ele>2347</ele>
        <time>2018-10-17T08:21:36Z</time>
      </trkpt>
      <trkpt lat="45.85026" lon="6.44546">
        <ele>2347</ele>
        <time>2018-10-17T08:21:37Z</time>
      </trkpt>
      <trkpt lat="45.85026" lon="6.44546">
        <ele>2347</ele>
        <time>2018-10-17T08:21:38Z</time>
      </trkpt>
      <trkpt lat="45.85026" lon="6.44546">
        <ele>2347</ele>
        <time>2018-10-17T08:21:39Z</time>
      </trkpt>
      <trkpt lat="45.85026" lon="6.44546">
        <ele>2347</ele>
        <time>2018-10-17T08:21:40Z</time>
      </trkpt>
      <trkpt lat="45.85027" lon="6.44548">
        <ele>2348</ele>
        <time>2018-10-17T08:21:41Z</time>
      </trkpt>
      <trkpt lat="45.85027" lon="6.44548">
        <ele>2348</ele>
        <time>2018-10-17T08:21:42Z</time>
      </trkpt>
      <trkpt lat="45.85027" lon="6.44548">
        <ele>2348</ele>
        <time>2018-10-17T08:21:43Z</time>
      </trkpt>
      <trkpt lat="45.85027" lon="6.44548">
        <ele>2348</ele>
        <time>2018-10-17T08:21:44Z</time>
      </trkpt>
      <trkpt lat="45.85027" lon="6.44551">
        <ele>2349</ele>
        <time>2018-10-17T08:21:45Z</time>
      </trkpt>
      <trkpt lat="45.85027" lon="6.44551">
        <ele>2349</ele>
        <time>2018-10-17T08:21:46Z</time>
      </trkpt>
      <trkpt lat="45.85027" lon="6.44551">
        <ele>2349</ele>
        <time>2018-10-17T08:21:47Z</time>
      </trkpt>
      <trkpt lat="45.85027" lon="6.44551">
        <ele>2349</ele>
        <time>2018-10-17T08:21:48Z</time>
      </trkpt>
      <trkpt lat="45.85027" lon="6.44551">
        <ele>2349</ele>
        <time>2018-10-17T08:21:49Z</time>
      </trkpt>
      <trkpt lat="45.85028" lon="6.44554">
        <ele>2350</ele>
        <time>2018-10-17T08:21:50Z</time>
      </trkpt>
      <trkpt lat="45.85028" lon="6.44554">
        <ele>2350</ele>
        <time>2018-10-17T08:21:51Z</time>
      </trkpt>
      <trkpt lat="45.85028" lon="6.44554">
        <ele>2350</ele>
        <time>2018-10-17T08:21:52Z</time>
      </trkpt>
      <trkpt lat="45.85028" lon="6.44554">
        <ele>2350</ele>
        <time>2018-10-17T08:21:53Z</time>
      </trkpt>
      <trkpt lat="45.85028" lon="6.44557">
        <ele>2352</ele>
        <time>2018-10-17T08:21:54Z</time>
      </trkpt>
      <trkpt lat="45.85028" lon="6.44557">
        <ele>2352</ele>
        <time>2018-10-17T08:21:55Z</time>
      </trkpt>
      <trkpt lat="45.85028" lon="6.44557">
        <ele>2352</ele>
        <time>2018-10-17T08:21:56Z</time>
      </trkpt>
      <trkpt lat="45.85028" lon="6.44557">
        <ele>2352</ele>
        <time>2018-10-17T08:21:57Z</time>
      </trkpt>
      <trkpt lat="45.85028" lon="6.44557">
        <ele>2352</ele>
        <time>2018-10-17T08:21:58Z</time>
      </trkpt>
      <trkpt lat="45.85028" lon="6.44557">
        <ele>2353</ele>
        <time>2018-10-17T08:21:59Z</time>
      </trkpt>
      <trkpt lat="45.85028" lon="6.44557">
        <ele>2353</ele>
        <time>2018-10-17T08:22:00Z</time>
      </trkpt>
      <trkpt lat="45.85028" lon="6.44557">
        <ele>2353</ele>
        <time>2018-10-17T08:22:01Z</time>
      </trkpt>
      <trkpt lat="45.85028" lon="6.44557">
        <ele>2353</ele>
        <time>2018-10-17T08:22:02Z</time>
      </trkpt>
      <trkpt lat="45.8503" lon="6.44559">
        <ele>2353</ele>
        <time>2018-10-17T08:22:03Z</time>
      </trkpt>
      <trkpt lat="45.8503" lon="6.44559">
        <ele>2353</ele>
        <time>2018-10-17T08:22:04Z</time>
      </trkpt>
      <trkpt lat="45.8503" lon="6.44559">
        <ele>2353</ele>
        <time>2018-10-17T08:22:05Z</time>
      </trkpt>
      <trkpt lat="45.8503" lon="6.44559">
        <ele>2353</ele>
        <time>2018-10-17T08:22:06Z</time>
      </trkpt>
      <trkpt lat="45.8503" lon="6.44561">
        <ele>2353</ele>
        <time>2018-10-17T08:22:07Z</time>
      </trkpt>
      <trkpt lat="45.8503" lon="6.44561">
        <ele>2354</ele>
        <time>2018-10-17T08:22:08Z</time>
      </trkpt>
      <trkpt lat="45.8503" lon="6.44561">
        <ele>2354</ele>
        <time>2018-10-17T08:22:09Z</time>
      </trkpt>
      <trkpt lat="45.8503" lon="6.44561">
        <ele>2354</ele>
        <time>2018-10-17T08:22:10Z</time>
      </trkpt>
      <trkpt lat="45.8503" lon="6.44561">
        <ele>2355</ele>
        <time>2018-10-17T08:22:11Z</time>
      </trkpt>
      <trkpt lat="45.8503" lon="6.44561">
        <ele>2355</ele>
        <time>2018-10-17T08:22:12Z</time>
      </trkpt>
      <trkpt lat="45.8503" lon="6.44561">
        <ele>2355</ele>
        <time>2018-10-17T08:22:13Z</time>
      </trkpt>
      <trkpt lat="45.85032" lon="6.44564">
        <ele>2355</ele>
        <time>2018-10-17T08:22:14Z</time>
      </trkpt>
      <trkpt lat="45.85032" lon="6.44564">
        <ele>2355</ele>
        <time>2018-10-17T08:22:15Z</time>
      </trkpt>
      <trkpt lat="45.85032" lon="6.44564">
        <ele>2356</ele>
        <time>2018-10-17T08:22:16Z</time>
      </trkpt>
      <trkpt lat="45.85032" lon="6.44564">
        <ele>2356</ele>
        <time>2018-10-17T08:22:17Z</time>
      </trkpt>
      <trkpt lat="45.85032" lon="6.44564">
        <ele>2356</ele>
        <time>2018-10-17T08:22:18Z</time>
      </trkpt>
      <trkpt lat="45.85032" lon="6.44564">
        <ele>2356</ele>
        <time>2018-10-17T08:22:19Z</time>
      </trkpt>
      <trkpt lat="45.85032" lon="6.44564">
        <ele>2356</ele>
        <time>2018-10-17T08:22:20Z</time>
      </trkpt>
      <trkpt lat="45.85032" lon="6.44564">
        <ele>2356</ele>
        <time>2018-10-17T08:22:21Z</time>
      </trkpt>
      <trkpt lat="45.85032" lon="6.44564">
        <ele>2356</ele>
        <time>2018-10-17T08:22:22Z</time>
      </trkpt>
      <trkpt lat="45.85032" lon="6.44564">
        <ele>2356</ele>
        <time>2018-10-17T08:22:23Z</time>
      </trkpt>
      <trkpt lat="45.85032" lon="6.44564">
        <ele>2356</ele>
        <time>2018-10-17T08:22:24Z</time>
      </trkpt>
      <trkpt lat="45.85032" lon="6.44564">
        <ele>2356</ele>
        <time>2018-10-17T08:22:25Z</time>
      </trkpt>
      <trkpt lat="45.85034" lon="6.44564">
        <ele>2357</ele>
        <time>2018-10-17T08:22:26Z</time>
      </trkpt>
      <trkpt lat="45.85034" lon="6.44564">
        <ele>2358</ele>
        <time>2018-10-17T08:22:27Z</time>
      </trkpt>
      <trkpt lat="45.85034" lon="6.44564">
        <ele>2358</ele>
        <time>2018-10-17T08:22:28Z</time>
      </trkpt>
      <trkpt lat="45.85034" lon="6.44564">
        <ele>2359</ele>
        <time>2018-10-17T08:22:29Z</time>
      </trkpt>
      <trkpt lat="45.85035" lon="6.44566">
        <ele>2359</ele>
        <time>2018-10-17T08:22:30Z</time>
      </trkpt>
      <trkpt lat="45.85035" lon="6.44566">
        <ele>2359</ele>
        <time>2018-10-17T08:22:31Z</time>
      </trkpt>
      <trkpt lat="45.85035" lon="6.44566">
        <ele>2359</ele>
        <time>2018-10-17T08:22:32Z</time>
      </trkpt>
      <trkpt lat="45.85035" lon="6.44566">
        <ele>2359</ele>
        <time>2018-10-17T08:22:33Z</time>
      </trkpt>
      <trkpt lat="45.85035" lon="6.44566">
        <ele>2359</ele>
        <time>2018-10-17T08:22:34Z</time>
      </trkpt>
      <trkpt lat="45.85036" lon="6.44569">
        <ele>2359</ele>
        <time>2018-10-17T08:22:35Z</time>
      </trkpt>
      <trkpt lat="45.85036" lon="6.44569">
        <ele>2359</ele>
        <time>2018-10-17T08:22:36Z</time>
      </trkpt>
      <trkpt lat="45.85036" lon="6.44569">
        <ele>2359</ele>
        <time>2018-10-17T08:22:37Z</time>
      </trkpt>
      <trkpt lat="45.85036" lon="6.44569">
        <ele>2360</ele>
        <time>2018-10-17T08:22:38Z</time>
      </trkpt>
      <trkpt lat="45.85036" lon="6.44569">
        <ele>2360</ele>
        <time>2018-10-17T08:22:39Z</time>
      </trkpt>
      <trkpt lat="45.85036" lon="6.44572">
        <ele>2360</ele>
        <time>2018-10-17T08:22:40Z</time>
      </trkpt>
      <trkpt lat="45.85036" lon="6.44572">
        <ele>2360</ele>
        <time>2018-10-17T08:22:41Z</time>
      </trkpt>
      <trkpt lat="45.85036" lon="6.44572">
        <ele>2360</ele>
        <time>2018-10-17T08:22:42Z</time>
      </trkpt>
      <trkpt lat="45.85036" lon="6.44575">
        <ele>2361</ele>
        <time>2018-10-17T08:22:43Z</time>
      </trkpt>
      <trkpt lat="45.85036" lon="6.44575">
        <ele>2361</ele>
        <time>2018-10-17T08:22:44Z</time>
      </trkpt>
      <trkpt lat="45.85036" lon="6.44575">
        <ele>2361</ele>
        <time>2018-10-17T08:22:45Z</time>
      </trkpt>
      <trkpt lat="45.85036" lon="6.44575">
        <ele>2361</ele>
        <time>2018-10-17T08:22:46Z</time>
      </trkpt>
      <trkpt lat="45.85036" lon="6.44575">
        <ele>2361</ele>
        <time>2018-10-17T08:22:47Z</time>
      </trkpt>
      <trkpt lat="45.85037" lon="6.44578">
        <ele>2361</ele>
        <time>2018-10-17T08:22:48Z</time>
      </trkpt>
      <trkpt lat="45.85037" lon="6.44578">
        <ele>2361</ele>
        <time>2018-10-17T08:22:49Z</time>
      </trkpt>
      <trkpt lat="45.85037" lon="6.44578">
        <ele>2362</ele>
        <time>2018-10-17T08:22:50Z</time>
      </trkpt>
      <trkpt lat="45.85037" lon="6.44578">
        <ele>2362</ele>
        <time>2018-10-17T08:22:51Z</time>
      </trkpt>
      <trkpt lat="45.85037" lon="6.44581">
        <ele>2362</ele>
        <time>2018-10-17T08:22:52Z</time>
      </trkpt>
      <trkpt lat="45.85037" lon="6.44581">
        <ele>2363</ele>
        <time>2018-10-17T08:22:53Z</time>
      </trkpt>
      <trkpt lat="45.85037" lon="6.44581">
        <ele>2363</ele>
        <time>2018-10-17T08:22:54Z</time>
      </trkpt>
      <trkpt lat="45.85037" lon="6.44581">
        <ele>2363</ele>
        <time>2018-10-17T08:22:55Z</time>
      </trkpt>
      <trkpt lat="45.85037" lon="6.44581">
        <ele>2363</ele>
        <time>2018-10-17T08:22:56Z</time>
      </trkpt>
      <trkpt lat="45.85037" lon="6.44584">
        <ele>2363</ele>
        <time>2018-10-17T08:22:57Z</time>
      </trkpt>
      <trkpt lat="45.85037" lon="6.44584">
        <ele>2363</ele>
        <time>2018-10-17T08:22:58Z</time>
      </trkpt>
      <trkpt lat="45.85037" lon="6.44584">
        <ele>2363</ele>
        <time>2018-10-17T08:22:59Z</time>
      </trkpt>
      <trkpt lat="45.85037" lon="6.44584">
        <ele>2365</ele>
        <time>2018-10-17T08:23:00Z</time>
      </trkpt>
      <trkpt lat="45.85037" lon="6.44584">
        <ele>2365</ele>
        <time>2018-10-17T08:23:01Z</time>
      </trkpt>
      <trkpt lat="45.85037" lon="6.44587">
        <ele>2366</ele>
        <time>2018-10-17T08:23:02Z</time>
      </trkpt>
      <trkpt lat="45.85037" lon="6.44587">
        <ele>2366</ele>
        <time>2018-10-17T08:23:03Z</time>
      </trkpt>
      <trkpt lat="45.85037" lon="6.44587">
        <ele>2366</ele>
        <time>2018-10-17T08:23:04Z</time>
      </trkpt>
      <trkpt lat="45.85037" lon="6.44587">
        <ele>2366</ele>
        <time>2018-10-17T08:23:05Z</time>
      </trkpt>
      <trkpt lat="45.85037" lon="6.44587">
        <ele>2366</ele>
        <time>2018-10-17T08:23:06Z</time>
      </trkpt>
      <trkpt lat="45.85037" lon="6.44587">
        <ele>2366</ele>
        <time>2018-10-17T08:23:07Z</time>
      </trkpt>
      <trkpt lat="45.85037" lon="6.4459">
        <ele>2366</ele>
        <time>2018-10-17T08:23:08Z</time>
      </trkpt>
      <trkpt lat="45.85037" lon="6.4459">
        <ele>2367</ele>
        <time>2018-10-17T08:23:09Z</time>
      </trkpt>
      <trkpt lat="45.85037" lon="6.4459">
        <ele>2368</ele>
        <time>2018-10-17T08:23:10Z</time>
      </trkpt>
      <trkpt lat="45.85037" lon="6.4459">
        <ele>2368</ele>
        <time>2018-10-17T08:23:11Z</time>
      </trkpt>
      <trkpt lat="45.85036" lon="6.44593">
        <ele>2368</ele>
        <time>2018-10-17T08:23:12Z</time>
      </trkpt>
      <trkpt lat="45.85036" lon="6.44593">
        <ele>2368</ele>
        <time>2018-10-17T08:23:13Z</time>
      </trkpt>
      <trkpt lat="45.85036" lon="6.44593">
        <ele>2368</ele>
        <time>2018-10-17T08:23:14Z</time>
      </trkpt>
      <trkpt lat="45.85036" lon="6.44593">
        <ele>2368</ele>
        <time>2018-10-17T08:23:15Z</time>
      </trkpt>
      <trkpt lat="45.85035" lon="6.44595">
        <ele>2368</ele>
        <time>2018-10-17T08:23:16Z</time>
      </trkpt>
      <trkpt lat="45.85035" lon="6.44595">
        <ele>2369</ele>
        <time>2018-10-17T08:23:17Z</time>
      </trkpt>
      <trkpt lat="45.85035" lon="6.44595">
        <ele>2369</ele>
        <time>2018-10-17T08:23:18Z</time>
      </trkpt>
      <trkpt lat="45.85035" lon="6.44595">
        <ele>2369</ele>
        <time>2018-10-17T08:23:19Z</time>
      </trkpt>
      <trkpt lat="45.85035" lon="6.44598">
        <ele>2369</ele>
        <time>2018-10-17T08:23:20Z</time>
      </trkpt>
      <trkpt lat="45.85035" lon="6.44598">
        <ele>2369</ele>
        <time>2018-10-17T08:23:21Z</time>
      </trkpt>
      <trkpt lat="45.85035" lon="6.44598">
        <ele>2369</ele>
        <time>2018-10-17T08:23:22Z</time>
      </trkpt>
      <trkpt lat="45.85035" lon="6.44598">
        <ele>2369</ele>
        <time>2018-10-17T08:23:23Z</time>
      </trkpt>
      <trkpt lat="45.85036" lon="6.44602">
        <ele>2370</ele>
        <time>2018-10-17T08:23:24Z</time>
      </trkpt>
      <trkpt lat="45.85036" lon="6.44602">
        <ele>2370</ele>
        <time>2018-10-17T08:23:25Z</time>
      </trkpt>
      <trkpt lat="45.85036" lon="6.44602">
        <ele>2370</ele>
        <time>2018-10-17T08:23:26Z</time>
      </trkpt>
      <trkpt lat="45.85036" lon="6.44602">
        <ele>2370</ele>
        <time>2018-10-17T08:23:27Z</time>
      </trkpt>
      <trkpt lat="45.85035" lon="6.44605">
        <ele>2370</ele>
        <time>2018-10-17T08:23:28Z</time>
      </trkpt>
      <trkpt lat="45.85035" lon="6.44605">
        <ele>2371</ele>
        <time>2018-10-17T08:23:29Z</time>
      </trkpt>
      <trkpt lat="45.85035" lon="6.44605">
        <ele>2371</ele>
        <time>2018-10-17T08:23:30Z</time>
      </trkpt>
      <trkpt lat="45.85035" lon="6.44605">
        <ele>2371</ele>
        <time>2018-10-17T08:23:31Z</time>
      </trkpt>
      <trkpt lat="45.85035" lon="6.44605">
        <ele>2371</ele>
        <time>2018-10-17T08:23:32Z</time>
      </trkpt>
      <trkpt lat="45.85034" lon="6.44607">
        <ele>2371</ele>
        <time>2018-10-17T08:23:33Z</time>
      </trkpt>
      <trkpt lat="45.85034" lon="6.44607">
        <ele>2371</ele>
        <time>2018-10-17T08:23:34Z</time>
      </trkpt>
      <trkpt lat="45.85034" lon="6.44607">
        <ele>2371</ele>
        <time>2018-10-17T08:23:35Z</time>
      </trkpt>
      <trkpt lat="45.85034" lon="6.44607">
        <ele>2371</ele>
        <time>2018-10-17T08:23:36Z</time>
      </trkpt>
      <trkpt lat="45.85035" lon="6.4461">
        <ele>2371</ele>
        <time>2018-10-17T08:23:37Z</time>
      </trkpt>
      <trkpt lat="45.85035" lon="6.4461">
        <ele>2371</ele>
        <time>2018-10-17T08:23:38Z</time>
      </trkpt>
      <trkpt lat="45.85035" lon="6.4461">
        <ele>2372</ele>
        <time>2018-10-17T08:23:39Z</time>
      </trkpt>
      <trkpt lat="45.85035" lon="6.4461">
        <ele>2372</ele>
        <time>2018-10-17T08:23:40Z</time>
      </trkpt>
      <trkpt lat="45.85035" lon="6.4461">
        <ele>2372</ele>
        <time>2018-10-17T08:23:41Z</time>
      </trkpt>
      <trkpt lat="45.85035" lon="6.44613">
        <ele>2372</ele>
        <time>2018-10-17T08:23:42Z</time>
      </trkpt>
      <trkpt lat="45.85035" lon="6.44613">
        <ele>2372</ele>
        <time>2018-10-17T08:23:43Z</time>
      </trkpt>
      <trkpt lat="45.85035" lon="6.44613">
        <ele>2373</ele>
        <time>2018-10-17T08:23:44Z</time>
      </trkpt>
      <trkpt lat="45.85035" lon="6.44613">
        <ele>2374</ele>
        <time>2018-10-17T08:23:45Z</time>
      </trkpt>
      <trkpt lat="45.85035" lon="6.44613">
        <ele>2374</ele>
        <time>2018-10-17T08:23:46Z</time>
      </trkpt>
      <trkpt lat="45.85034" lon="6.44615">
        <ele>2374</ele>
        <time>2018-10-17T08:23:47Z</time>
      </trkpt>
      <trkpt lat="45.85034" lon="6.44615">
        <ele>2374</ele>
        <time>2018-10-17T08:23:48Z</time>
      </trkpt>
      <trkpt lat="45.85034" lon="6.44615">
        <ele>2374</ele>
        <time>2018-10-17T08:23:49Z</time>
      </trkpt>
      <trkpt lat="45.85034" lon="6.44615">
        <ele>2374</ele>
        <time>2018-10-17T08:23:50Z</time>
      </trkpt>
      <trkpt lat="45.85034" lon="6.44615">
        <ele>2374</ele>
        <time>2018-10-17T08:23:51Z</time>
      </trkpt>
      <trkpt lat="45.85034" lon="6.44615">
        <ele>2375</ele>
        <time>2018-10-17T08:23:52Z</time>
      </trkpt>
      <trkpt lat="45.85034" lon="6.44615">
        <ele>2375</ele>
        <time>2018-10-17T08:23:53Z</time>
      </trkpt>
      <trkpt lat="45.85035" lon="6.44618">
        <ele>2375</ele>
        <time>2018-10-17T08:23:54Z</time>
      </trkpt>
      <trkpt lat="45.85035" lon="6.44618">
        <ele>2375</ele>
        <time>2018-10-17T08:23:55Z</time>
      </trkpt>
      <trkpt lat="45.85035" lon="6.44618">
        <ele>2375</ele>
        <time>2018-10-17T08:23:56Z</time>
      </trkpt>
      <trkpt lat="45.85037" lon="6.44619">
        <ele>2375</ele>
        <time>2018-10-17T08:23:57Z</time>
      </trkpt>
      <trkpt lat="45.85037" lon="6.44619">
        <ele>2375</ele>
        <time>2018-10-17T08:23:58Z</time>
      </trkpt>
      <trkpt lat="45.85037" lon="6.44619">
        <ele>2375</ele>
        <time>2018-10-17T08:23:59Z</time>
      </trkpt>
      <trkpt lat="45.85037" lon="6.44619">
        <ele>2375</ele>
        <time>2018-10-17T08:24:00Z</time>
      </trkpt>
      <trkpt lat="45.85037" lon="6.44619">
        <ele>2375</ele>
        <time>2018-10-17T08:24:01Z</time>
      </trkpt>
      <trkpt lat="45.85037" lon="6.44619">
        <ele>2376</ele>
        <time>2018-10-17T08:24:02Z</time>
      </trkpt>
      <trkpt lat="45.85037" lon="6.44619">
        <ele>2376</ele>
        <time>2018-10-17T08:24:03Z</time>
      </trkpt>
      <trkpt lat="45.85037" lon="6.44619">
        <ele>2376</ele>
        <time>2018-10-17T08:24:04Z</time>
      </trkpt>
      <trkpt lat="45.85037" lon="6.44619">
        <ele>2376</ele>
        <time>2018-10-17T08:24:05Z</time>
      </trkpt>
      <trkpt lat="45.85037" lon="6.44619">
        <ele>2377</ele>
        <time>2018-10-17T08:24:06Z</time>
      </trkpt>
      <trkpt lat="45.85036" lon="6.44622">
        <ele>2377</ele>
        <time>2018-10-17T08:24:07Z</time>
      </trkpt>
      <trkpt lat="45.85036" lon="6.44622">
        <ele>2377</ele>
        <time>2018-10-17T08:24:08Z</time>
      </trkpt>
      <trkpt lat="45.85036" lon="6.44622">
        <ele>2377</ele>
        <time>2018-10-17T08:24:09Z</time>
      </trkpt>
      <trkpt lat="45.85036" lon="6.44622">
        <ele>2377</ele>
        <time>2018-10-17T08:24:10Z</time>
      </trkpt>
      <trkpt lat="45.85036" lon="6.44622">
        <ele>2377</ele>
        <time>2018-10-17T08:24:11Z</time>
      </trkpt>
      <trkpt lat="45.85036" lon="6.44622">
        <ele>2377</ele>
        <time>2018-10-17T08:24:12Z</time>
      </trkpt>
      <trkpt lat="45.85036" lon="6.44622">
        <ele>2377</ele>
        <time>2018-10-17T08:24:13Z</time>
      </trkpt>
      <trkpt lat="45.85036" lon="6.44622">
        <ele>2377</ele>
        <time>2018-10-17T08:24:14Z</time>
      </trkpt>
      <trkpt lat="45.85036" lon="6.44622">
        <ele>2377</ele>
        <time>2018-10-17T08:24:15Z</time>
      </trkpt>
      <trkpt lat="45.85036" lon="6.44622">
        <ele>2377</ele>
        <time>2018-10-17T08:24:16Z</time>
      </trkpt>
      <trkpt lat="45.85036" lon="6.44622">
        <ele>2378</ele>
        <time>2018-10-17T08:24:17Z</time>
      </trkpt>
      <trkpt lat="45.85036" lon="6.44622">
        <ele>2378</ele>
        <time>2018-10-17T08:24:18Z</time>
      </trkpt>
      <trkpt lat="45.85036" lon="6.44622">
        <ele>2378</ele>
        <time>2018-10-17T08:24:19Z</time>
      </trkpt>
      <trkpt lat="45.85036" lon="6.44622">
        <ele>2378</ele>
        <time>2018-10-17T08:24:20Z</time>
      </trkpt>
      <trkpt lat="45.85036" lon="6.44622">
        <ele>2378</ele>
        <time>2018-10-17T08:24:21Z</time>
      </trkpt>
      <trkpt lat="45.85036" lon="6.44622">
        <ele>2378</ele>
        <time>2018-10-17T08:24:22Z</time>
      </trkpt>
      <trkpt lat="45.85036" lon="6.44622">
        <ele>2378</ele>
        <time>2018-10-17T08:24:23Z</time>
      </trkpt>
      <trkpt lat="45.85036" lon="6.44622">
        <ele>2378</ele>
        <time>2018-10-17T08:24:24Z</time>
      </trkpt>
      <trkpt lat="45.85036" lon="6.44622">
        <ele>2378</ele>
        <time>2018-10-17T08:24:25Z</time>
      </trkpt>
      <trkpt lat="45.85036" lon="6.44622">
        <ele>2378</ele>
        <time>2018-10-17T08:24:26Z</time>
      </trkpt>
      <trkpt lat="45.85036" lon="6.44622">
        <ele>2378</ele>
        <time>2018-10-17T08:24:27Z</time>
      </trkpt>
      <trkpt lat="45.85036" lon="6.44622">
        <ele>2378</ele>
        <time>2018-10-17T08:24:28Z</time>
      </trkpt>
      <trkpt lat="45.85036" lon="6.44622">
        <ele>2378</ele>
        <time>2018-10-17T08:24:29Z</time>
      </trkpt>
      <trkpt lat="45.85036" lon="6.44622">
        <ele>2378</ele>
        <time>2018-10-17T08:24:30Z</time>
      </trkpt>
      <trkpt lat="45.85036" lon="6.44622">
        <ele>2378</ele>
        <time>2018-10-17T08:24:31Z</time>
      </trkpt>
      <trkpt lat="45.85036" lon="6.44622">
        <ele>2378</ele>
        <time>2018-10-17T08:24:32Z</time>
      </trkpt>
      <trkpt lat="45.85036" lon="6.44622">
        <ele>2378</ele>
        <time>2018-10-17T08:24:33Z</time>
      </trkpt>
      <trkpt lat="45.85036" lon="6.44622">
        <ele>2378</ele>
        <time>2018-10-17T08:24:34Z</time>
      </trkpt>
      <trkpt lat="45.85036" lon="6.44622">
        <ele>2378</ele>
        <time>2018-10-17T08:24:35Z</time>
      </trkpt>
      <trkpt lat="45.85036" lon="6.44622">
        <ele>2378</ele>
        <time>2018-10-17T08:24:36Z</time>
      </trkpt>
      <trkpt lat="45.85036" lon="6.44622">
        <ele>2378</ele>
        <time>2018-10-17T08:24:37Z</time>
      </trkpt>
      <trkpt lat="45.85036" lon="6.44622">
        <ele>2378</ele>
        <time>2018-10-17T08:24:38Z</time>
      </trkpt>
      <trkpt lat="45.85036" lon="6.44622">
        <ele>2378</ele>
        <time>2018-10-17T08:24:39Z</time>
      </trkpt>
      <trkpt lat="45.85036" lon="6.44622">
        <ele>2378</ele>
        <time>2018-10-17T08:24:40Z</time>
      </trkpt>
      <trkpt lat="45.85036" lon="6.44622">
        <ele>2378</ele>
        <time>2018-10-17T08:24:41Z</time>
      </trkpt>
      <trkpt lat="45.85036" lon="6.44622">
        <ele>2378</ele>
        <time>2018-10-17T08:24:42Z</time>
      </trkpt>
      <trkpt lat="45.85036" lon="6.44622">
        <ele>2378</ele>
        <time>2018-10-17T08:24:43Z</time>
      </trkpt>
      <trkpt lat="45.85036" lon="6.44622">
        <ele>2378</ele>
        <time>2018-10-17T08:24:44Z</time>
      </trkpt>
      <trkpt lat="45.85036" lon="6.44622">
        <ele>2378</ele>
        <time>2018-10-17T08:24:45Z</time>
      </trkpt>
      <trkpt lat="45.85036" lon="6.44622">
        <ele>2377</ele>
        <time>2018-10-17T08:24:46Z</time>
      </trkpt>
      <trkpt lat="45.85036" lon="6.44622">
        <ele>2378</ele>
        <time>2018-10-17T08:24:47Z</time>
      </trkpt>
      <trkpt lat="45.85036" lon="6.44622">
        <ele>2378</ele>
        <time>2018-10-17T08:24:48Z</time>
      </trkpt>
      <trkpt lat="45.85036" lon="6.44622">
        <ele>2378</ele>
        <time>2018-10-17T08:24:49Z</time>
      </trkpt>
      <trkpt lat="45.85036" lon="6.44622">
        <ele>2379</ele>
        <time>2018-10-17T08:24:50Z</time>
      </trkpt>
      <trkpt lat="45.85036" lon="6.44622">
        <ele>2379</ele>
        <time>2018-10-17T08:24:51Z</time>
      </trkpt>
      <trkpt lat="45.85036" lon="6.44622">
        <ele>2379</ele>
        <time>2018-10-17T08:24:52Z</time>
      </trkpt>
      <trkpt lat="45.85036" lon="6.44622">
        <ele>2379</ele>
        <time>2018-10-17T08:24:53Z</time>
      </trkpt>
      <trkpt lat="45.85036" lon="6.44622">
        <ele>2379</ele>
        <time>2018-10-17T08:24:54Z</time>
      </trkpt>
      <trkpt lat="45.85036" lon="6.44622">
        <ele>2379</ele>
        <time>2018-10-17T08:24:55Z</time>
      </trkpt>
      <trkpt lat="45.85036" lon="6.44622">
        <ele>2379</ele>
        <time>2018-10-17T08:24:56Z</time>
      </trkpt>
      <trkpt lat="45.85036" lon="6.44622">
        <ele>2379</ele>
        <time>2018-10-17T08:24:57Z</time>
      </trkpt>
      <trkpt lat="45.85038" lon="6.44624">
        <ele>2380</ele>
        <time>2018-10-17T08:24:58Z</time>
      </trkpt>
      <trkpt lat="45.85038" lon="6.44624">
        <ele>2380</ele>
        <time>2018-10-17T08:24:59Z</time>
      </trkpt>
      <trkpt lat="45.85038" lon="6.44624">
        <ele>2381</ele>
        <time>2018-10-17T08:25:00Z</time>
      </trkpt>
      <trkpt lat="45.85038" lon="6.44624">
        <ele>2381</ele>
        <time>2018-10-17T08:25:01Z</time>
      </trkpt>
      <trkpt lat="45.85038" lon="6.44624">
        <ele>2382</ele>
        <time>2018-10-17T08:25:02Z</time>
      </trkpt>
      <trkpt lat="45.85039" lon="6.44627">
        <ele>2382</ele>
        <time>2018-10-17T08:25:03Z</time>
      </trkpt>
      <trkpt lat="45.85039" lon="6.44627">
        <ele>2382</ele>
        <time>2018-10-17T08:25:04Z</time>
      </trkpt>
      <trkpt lat="45.85039" lon="6.44627">
        <ele>2382</ele>
        <time>2018-10-17T08:25:05Z</time>
      </trkpt>
      <trkpt lat="45.85039" lon="6.44629">
        <ele>2382</ele>
        <time>2018-10-17T08:25:06Z</time>
      </trkpt>
      <trkpt lat="45.85039" lon="6.44629">
        <ele>2382</ele>
        <time>2018-10-17T08:25:07Z</time>
      </trkpt>
      <trkpt lat="45.85039" lon="6.44629">
        <ele>2383</ele>
        <time>2018-10-17T08:25:08Z</time>
      </trkpt>
      <trkpt lat="45.85039" lon="6.44629">
        <ele>2384</ele>
        <time>2018-10-17T08:25:09Z</time>
      </trkpt>
      <trkpt lat="45.8504" lon="6.44632">
        <ele>2384</ele>
        <time>2018-10-17T08:25:10Z</time>
      </trkpt>
      <trkpt lat="45.8504" lon="6.44632">
        <ele>2386</ele>
        <time>2018-10-17T08:25:11Z</time>
      </trkpt>
      <trkpt lat="45.8504" lon="6.44632">
        <ele>2386</ele>
        <time>2018-10-17T08:25:12Z</time>
      </trkpt>
      <trkpt lat="45.85041" lon="6.44635">
        <ele>2386</ele>
        <time>2018-10-17T08:25:13Z</time>
      </trkpt>
      <trkpt lat="45.85041" lon="6.44635">
        <ele>2386</ele>
        <time>2018-10-17T08:25:14Z</time>
      </trkpt>
      <trkpt lat="45.85041" lon="6.44635">
        <ele>2386</ele>
        <time>2018-10-17T08:25:15Z</time>
      </trkpt>
      <trkpt lat="45.85041" lon="6.44635">
        <ele>2386</ele>
        <time>2018-10-17T08:25:16Z</time>
      </trkpt>
      <trkpt lat="45.85041" lon="6.44635">
        <ele>2386</ele>
        <time>2018-10-17T08:25:17Z</time>
      </trkpt>
      <trkpt lat="45.85041" lon="6.44635">
        <ele>2386</ele>
        <time>2018-10-17T08:25:18Z</time>
      </trkpt>
      <trkpt lat="45.85041" lon="6.44635">
        <ele>2386</ele>
        <time>2018-10-17T08:25:19Z</time>
      </trkpt>
      <trkpt lat="45.85041" lon="6.44635">
        <ele>2386</ele>
        <time>2018-10-17T08:25:20Z</time>
      </trkpt>
      <trkpt lat="45.85041" lon="6.44635">
        <ele>2386</ele>
        <time>2018-10-17T08:25:21Z</time>
      </trkpt>
      <trkpt lat="45.85041" lon="6.44635">
        <ele>2386</ele>
        <time>2018-10-17T08:25:22Z</time>
      </trkpt>
      <trkpt lat="45.85041" lon="6.44635">
        <ele>2386</ele>
        <time>2018-10-17T08:25:23Z</time>
      </trkpt>
      <trkpt lat="45.85041" lon="6.44635">
        <ele>2386</ele>
        <time>2018-10-17T08:25:24Z</time>
      </trkpt>
      <trkpt lat="45.85041" lon="6.44635">
        <ele>2386</ele>
        <time>2018-10-17T08:25:25Z</time>
      </trkpt>
      <trkpt lat="45.85041" lon="6.44635">
        <ele>2386</ele>
        <time>2018-10-17T08:25:26Z</time>
      </trkpt>
      <trkpt lat="45.85041" lon="6.44635">
        <ele>2386</ele>
        <time>2018-10-17T08:25:27Z</time>
      </trkpt>
      <trkpt lat="45.85041" lon="6.44635">
        <ele>2386</ele>
        <time>2018-10-17T08:25:28Z</time>
      </trkpt>
      <trkpt lat="45.85041" lon="6.44635">
        <ele>2386</ele>
        <time>2018-10-17T08:25:29Z</time>
      </trkpt>
      <trkpt lat="45.85041" lon="6.44635">
        <ele>2386</ele>
        <time>2018-10-17T08:25:30Z</time>
      </trkpt>
      <trkpt lat="45.85041" lon="6.44635">
        <ele>2386</ele>
        <time>2018-10-17T08:25:31Z</time>
      </trkpt>
      <trkpt lat="45.85041" lon="6.44635">
        <ele>2386</ele>
        <time>2018-10-17T08:25:32Z</time>
      </trkpt>
      <trkpt lat="45.85041" lon="6.44635">
        <ele>2386</ele>
        <time>2018-10-17T08:25:33Z</time>
      </trkpt>
      <trkpt lat="45.85041" lon="6.44635">
        <ele>2386</ele>
        <time>2018-10-17T08:25:34Z</time>
      </trkpt>
      <trkpt lat="45.85041" lon="6.44638">
        <ele>2387</ele>
        <time>2018-10-17T08:25:35Z</time>
      </trkpt>
      <trkpt lat="45.85041" lon="6.44638">
        <ele>2388</ele>
        <time>2018-10-17T08:25:36Z</time>
      </trkpt>
      <trkpt lat="45.85041" lon="6.44638">
        <ele>2388</ele>
        <time>2018-10-17T08:25:37Z</time>
      </trkpt>
      <trkpt lat="45.85041" lon="6.44638">
        <ele>2388</ele>
        <time>2018-10-17T08:25:38Z</time>
      </trkpt>
      <trkpt lat="45.85041" lon="6.44638">
        <ele>2388</ele>
        <time>2018-10-17T08:25:39Z</time>
      </trkpt>
      <trkpt lat="45.85041" lon="6.44641">
        <ele>2389</ele>
        <time>2018-10-17T08:25:40Z</time>
      </trkpt>
      <trkpt lat="45.85041" lon="6.44641">
        <ele>2389</ele>
        <time>2018-10-17T08:25:41Z</time>
      </trkpt>
      <trkpt lat="45.85041" lon="6.44641">
        <ele>2389</ele>
        <time>2018-10-17T08:25:42Z</time>
      </trkpt>
      <trkpt lat="45.85041" lon="6.44641">
        <ele>2389</ele>
        <time>2018-10-17T08:25:43Z</time>
      </trkpt>
      <trkpt lat="45.85041" lon="6.44641">
        <ele>2389</ele>
        <time>2018-10-17T08:25:44Z</time>
      </trkpt>
      <trkpt lat="45.85041" lon="6.44641">
        <ele>2389</ele>
        <time>2018-10-17T08:25:45Z</time>
      </trkpt>
      <trkpt lat="45.85041" lon="6.44641">
        <ele>2389</ele>
        <time>2018-10-17T08:25:46Z</time>
      </trkpt>
      <trkpt lat="45.85041" lon="6.44643">
        <ele>2390</ele>
        <time>2018-10-17T08:25:47Z</time>
      </trkpt>
      <trkpt lat="45.85041" lon="6.44643">
        <ele>2391</ele>
        <time>2018-10-17T08:25:48Z</time>
      </trkpt>
      <trkpt lat="45.85041" lon="6.44643">
        <ele>2391</ele>
        <time>2018-10-17T08:25:49Z</time>
      </trkpt>
      <trkpt lat="45.8504" lon="6.44646">
        <ele>2391</ele>
        <time>2018-10-17T08:25:50Z</time>
      </trkpt>
      <trkpt lat="45.8504" lon="6.44646">
        <ele>2392</ele>
        <time>2018-10-17T08:25:51Z</time>
      </trkpt>
      <trkpt lat="45.8504" lon="6.44646">
        <ele>2392</ele>
        <time>2018-10-17T08:25:52Z</time>
      </trkpt>
      <trkpt lat="45.8504" lon="6.44646">
        <ele>2392</ele>
        <time>2018-10-17T08:25:53Z</time>
      </trkpt>
      <trkpt lat="45.85041" lon="6.44649">
        <ele>2392</ele>
        <time>2018-10-17T08:25:54Z</time>
      </trkpt>
      <trkpt lat="45.85041" lon="6.44649">
        <ele>2392</ele>
        <time>2018-10-17T08:25:55Z</time>
      </trkpt>
      <trkpt lat="45.85041" lon="6.44649">
        <ele>2392</ele>
        <time>2018-10-17T08:25:56Z</time>
      </trkpt>
      <trkpt lat="45.85041" lon="6.44649">
        <ele>2393</ele>
        <time>2018-10-17T08:25:57Z</time>
      </trkpt>
      <trkpt lat="45.85039" lon="6.44651">
        <ele>2394</ele>
        <time>2018-10-17T08:25:58Z</time>
      </trkpt>
      <trkpt lat="45.85039" lon="6.44651">
        <ele>2394</ele>
        <time>2018-10-17T08:25:59Z</time>
      </trkpt>
      <trkpt lat="45.85039" lon="6.44651">
        <ele>2394</ele>
        <time>2018-10-17T08:26:00Z</time>
      </trkpt>
      <trkpt lat="45.85039" lon="6.44651">
        <ele>2394</ele>
        <time>2018-10-17T08:26:01Z</time>
      </trkpt>
      <trkpt lat="45.85039" lon="6.44651">
        <ele>2394</ele>
        <time>2018-10-17T08:26:02Z</time>
      </trkpt>
      <trkpt lat="45.85039" lon="6.44651">
        <ele>2395</ele>
        <time>2018-10-17T08:26:03Z</time>
      </trkpt>
      <trkpt lat="45.85039" lon="6.44651">
        <ele>2395</ele>
        <time>2018-10-17T08:26:04Z</time>
      </trkpt>
      <trkpt lat="45.85039" lon="6.44651">
        <ele>2395</ele>
        <time>2018-10-17T08:26:05Z</time>
      </trkpt>
      <trkpt lat="45.85039" lon="6.44651">
        <ele>2395</ele>
        <time>2018-10-17T08:26:06Z</time>
      </trkpt>
      <trkpt lat="45.85039" lon="6.44651">
        <ele>2396</ele>
        <time>2018-10-17T08:26:07Z</time>
      </trkpt>
      <trkpt lat="45.85039" lon="6.44651">
        <ele>2396</ele>
        <time>2018-10-17T08:26:08Z</time>
      </trkpt>
      <trkpt lat="45.85039" lon="6.44651">
        <ele>2396</ele>
        <time>2018-10-17T08:26:09Z</time>
      </trkpt>
      <trkpt lat="45.85039" lon="6.44654">
        <ele>2396</ele>
        <time>2018-10-17T08:26:10Z</time>
      </trkpt>
      <trkpt lat="45.85039" lon="6.44654">
        <ele>2397</ele>
        <time>2018-10-17T08:26:11Z</time>
      </trkpt>
      <trkpt lat="45.85039" lon="6.44654">
        <ele>2397</ele>
        <time>2018-10-17T08:26:12Z</time>
      </trkpt>
      <trkpt lat="45.85039" lon="6.44654">
        <ele>2397</ele>
        <time>2018-10-17T08:26:13Z</time>
      </trkpt>
      <trkpt lat="45.85039" lon="6.44654">
        <ele>2397</ele>
        <time>2018-10-17T08:26:14Z</time>
      </trkpt>
      <trkpt lat="45.85039" lon="6.44654">
        <ele>2397</ele>
        <time>2018-10-17T08:26:15Z</time>
      </trkpt>
      <trkpt lat="45.85039" lon="6.44654">
        <ele>2397</ele>
        <time>2018-10-17T08:26:16Z</time>
      </trkpt>
      <trkpt lat="45.85039" lon="6.44656">
        <ele>2397</ele>
        <time>2018-10-17T08:26:17Z</time>
      </trkpt>
      <trkpt lat="45.85039" lon="6.44656">
        <ele>2398</ele>
        <time>2018-10-17T08:26:18Z</time>
      </trkpt>
      <trkpt lat="45.85039" lon="6.44656">
        <ele>2398</ele>
        <time>2018-10-17T08:26:19Z</time>
      </trkpt>
      <trkpt lat="45.85039" lon="6.44656">
        <ele>2398</ele>
        <time>2018-10-17T08:26:20Z</time>
      </trkpt>
      <trkpt lat="45.85039" lon="6.44656">
        <ele>2398</ele>
        <time>2018-10-17T08:26:21Z</time>
      </trkpt>
      <trkpt lat="45.85039" lon="6.44656">
        <ele>2400</ele>
        <time>2018-10-17T08:26:22Z</time>
      </trkpt>
      <trkpt lat="45.85039" lon="6.44656">
        <ele>2400</ele>
        <time>2018-10-17T08:26:23Z</time>
      </trkpt>
      <trkpt lat="45.85039" lon="6.44656">
        <ele>2400</ele>
        <time>2018-10-17T08:26:24Z</time>
      </trkpt>
      <trkpt lat="45.85039" lon="6.44656">
        <ele>2401</ele>
        <time>2018-10-17T08:26:25Z</time>
      </trkpt>
      <trkpt lat="45.85039" lon="6.44656">
        <ele>2401</ele>
        <time>2018-10-17T08:26:26Z</time>
      </trkpt>
      <trkpt lat="45.85039" lon="6.44659">
        <ele>2401</ele>
        <time>2018-10-17T08:26:27Z</time>
      </trkpt>
      <trkpt lat="45.85039" lon="6.44659">
        <ele>2401</ele>
        <time>2018-10-17T08:26:28Z</time>
      </trkpt>
      <trkpt lat="45.85039" lon="6.44659">
        <ele>2401</ele>
        <time>2018-10-17T08:26:29Z</time>
      </trkpt>
      <trkpt lat="45.85039" lon="6.44659">
        <ele>2402</ele>
        <time>2018-10-17T08:26:30Z</time>
      </trkpt>
      <trkpt lat="45.85039" lon="6.44659">
        <ele>2402</ele>
        <time>2018-10-17T08:26:31Z</time>
      </trkpt>
      <trkpt lat="45.85039" lon="6.44659">
        <ele>2402</ele>
        <time>2018-10-17T08:26:32Z</time>
      </trkpt>
      <trkpt lat="45.85039" lon="6.44662">
        <ele>2402</ele>
        <time>2018-10-17T08:26:33Z</time>
      </trkpt>
      <trkpt lat="45.85039" lon="6.44662">
        <ele>2402</ele>
        <time>2018-10-17T08:26:34Z</time>
      </trkpt>
      <trkpt lat="45.85039" lon="6.44662">
        <ele>2402</ele>
        <time>2018-10-17T08:26:35Z</time>
      </trkpt>
      <trkpt lat="45.85039" lon="6.44662">
        <ele>2402</ele>
        <time>2018-10-17T08:26:36Z</time>
      </trkpt>
      <trkpt lat="45.8504" lon="6.44665">
        <ele>2403</ele>
        <time>2018-10-17T08:26:37Z</time>
      </trkpt>
      <trkpt lat="45.8504" lon="6.44665">
        <ele>2403</ele>
        <time>2018-10-17T08:26:38Z</time>
      </trkpt>
      <trkpt lat="45.8504" lon="6.44665">
        <ele>2403</ele>
        <time>2018-10-17T08:26:39Z</time>
      </trkpt>
      <trkpt lat="45.8504" lon="6.44665">
        <ele>2403</ele>
        <time>2018-10-17T08:26:40Z</time>
      </trkpt>
      <trkpt lat="45.8504" lon="6.44665">
        <ele>2403</ele>
        <time>2018-10-17T08:26:41Z</time>
      </trkpt>
      <trkpt lat="45.8504" lon="6.44665">
        <ele>2404</ele>
        <time>2018-10-17T08:26:42Z</time>
      </trkpt>
      <trkpt lat="45.8504" lon="6.44665">
        <ele>2404</ele>
        <time>2018-10-17T08:26:43Z</time>
      </trkpt>
      <trkpt lat="45.8504" lon="6.44665">
        <ele>2404</ele>
        <time>2018-10-17T08:26:44Z</time>
      </trkpt>
      <trkpt lat="45.8504" lon="6.44665">
        <ele>2404</ele>
        <time>2018-10-17T08:26:45Z</time>
      </trkpt>
      <trkpt lat="45.8504" lon="6.44665">
        <ele>2404</ele>
        <time>2018-10-17T08:26:46Z</time>
      </trkpt>
      <trkpt lat="45.8504" lon="6.44665">
        <ele>2404</ele>
        <time>2018-10-17T08:26:47Z</time>
      </trkpt>
      <trkpt lat="45.8504" lon="6.44665">
        <ele>2404</ele>
        <time>2018-10-17T08:26:48Z</time>
      </trkpt>
      <trkpt lat="45.8504" lon="6.44665">
        <ele>2404</ele>
        <time>2018-10-17T08:26:49Z</time>
      </trkpt>
      <trkpt lat="45.8504" lon="6.44665">
        <ele>2404</ele>
        <time>2018-10-17T08:26:50Z</time>
      </trkpt>
      <trkpt lat="45.8504" lon="6.44665">
        <ele>2404</ele>
        <time>2018-10-17T08:26:51Z</time>
      </trkpt>
      <trkpt lat="45.8504" lon="6.44665">
        <ele>2405</ele>
        <time>2018-10-17T08:26:52Z</time>
      </trkpt>
      <trkpt lat="45.8504" lon="6.44665">
        <ele>2405</ele>
        <time>2018-10-17T08:26:53Z</time>
      </trkpt>
      <trkpt lat="45.8504" lon="6.44665">
        <ele>2405</ele>
        <time>2018-10-17T08:26:54Z</time>
      </trkpt>
      <trkpt lat="45.8504" lon="6.44665">
        <ele>2405</ele>
        <time>2018-10-17T08:26:55Z</time>
      </trkpt>
      <trkpt lat="45.8504" lon="6.44665">
        <ele>2404</ele>
        <time>2018-10-17T08:26:56Z</time>
      </trkpt>
      <trkpt lat="45.8504" lon="6.44665">
        <ele>2404</ele>
        <time>2018-10-17T08:26:57Z</time>
      </trkpt>
      <trkpt lat="45.8504" lon="6.44665">
        <ele>2404</ele>
        <time>2018-10-17T08:26:58Z</time>
      </trkpt>
      <trkpt lat="45.8504" lon="6.44665">
        <ele>2405</ele>
        <time>2018-10-17T08:26:59Z</time>
      </trkpt>
      <trkpt lat="45.8504" lon="6.44665">
        <ele>2405</ele>
        <time>2018-10-17T08:27:00Z</time>
      </trkpt>
      <trkpt lat="45.8504" lon="6.44665">
        <ele>2405</ele>
        <time>2018-10-17T08:27:01Z</time>
      </trkpt>
      <trkpt lat="45.8504" lon="6.44665">
        <ele>2406</ele>
        <time>2018-10-17T08:27:02Z</time>
      </trkpt>
      <trkpt lat="45.8504" lon="6.44665">
        <ele>2406</ele>
        <time>2018-10-17T08:27:03Z</time>
      </trkpt>
      <trkpt lat="45.8504" lon="6.44668">
        <ele>2407</ele>
        <time>2018-10-17T08:27:04Z</time>
      </trkpt>
      <trkpt lat="45.8504" lon="6.44668">
        <ele>2407</ele>
        <time>2018-10-17T08:27:05Z</time>
      </trkpt>
      <trkpt lat="45.8504" lon="6.44668">
        <ele>2407</ele>
        <time>2018-10-17T08:27:06Z</time>
      </trkpt>
      <trkpt lat="45.8504" lon="6.44668">
        <ele>2407</ele>
        <time>2018-10-17T08:27:07Z</time>
      </trkpt>
      <trkpt lat="45.8504" lon="6.44671">
        <ele>2407</ele>
        <time>2018-10-17T08:27:08Z</time>
      </trkpt>
      <trkpt lat="45.8504" lon="6.44671">
        <ele>2407</ele>
        <time>2018-10-17T08:27:09Z</time>
      </trkpt>
      <trkpt lat="45.8504" lon="6.44671">
        <ele>2408</ele>
        <time>2018-10-17T08:27:10Z</time>
      </trkpt>
      <trkpt lat="45.8504" lon="6.44671">
        <ele>2408</ele>
        <time>2018-10-17T08:27:11Z</time>
      </trkpt>
      <trkpt lat="45.8504" lon="6.44671">
        <ele>2409</ele>
        <time>2018-10-17T08:27:12Z</time>
      </trkpt>
      <trkpt lat="45.8504" lon="6.44674">
        <ele>2409</ele>
        <time>2018-10-17T08:27:13Z</time>
      </trkpt>
      <trkpt lat="45.8504" lon="6.44674">
        <ele>2410</ele>
        <time>2018-10-17T08:27:14Z</time>
      </trkpt>
      <trkpt lat="45.8504" lon="6.44674">
        <ele>2411</ele>
        <time>2018-10-17T08:27:15Z</time>
      </trkpt>
      <trkpt lat="45.8504" lon="6.44674">
        <ele>2411</ele>
        <time>2018-10-17T08:27:16Z</time>
      </trkpt>
      <trkpt lat="45.8504" lon="6.44674">
        <ele>2411</ele>
        <time>2018-10-17T08:27:17Z</time>
      </trkpt>
      <trkpt lat="45.8504" lon="6.44674">
        <ele>2411</ele>
        <time>2018-10-17T08:27:18Z</time>
      </trkpt>
      <trkpt lat="45.85041" lon="6.44676">
        <ele>2411</ele>
        <time>2018-10-17T08:27:19Z</time>
      </trkpt>
      <trkpt lat="45.85041" lon="6.44676">
        <ele>2411</ele>
        <time>2018-10-17T08:27:20Z</time>
      </trkpt>
      <trkpt lat="45.85041" lon="6.44676">
        <ele>2412</ele>
        <time>2018-10-17T08:27:21Z</time>
      </trkpt>
      <trkpt lat="45.85041" lon="6.44679">
        <ele>2413</ele>
        <time>2018-10-17T08:27:22Z</time>
      </trkpt>
      <trkpt lat="45.85041" lon="6.44679">
        <ele>2413</ele>
        <time>2018-10-17T08:27:23Z</time>
      </trkpt>
      <trkpt lat="45.85041" lon="6.44679">
        <ele>2413</ele>
        <time>2018-10-17T08:27:24Z</time>
      </trkpt>
      <trkpt lat="45.85041" lon="6.44679">
        <ele>2413</ele>
        <time>2018-10-17T08:27:25Z</time>
      </trkpt>
      <trkpt lat="45.85041" lon="6.44679">
        <ele>2414</ele>
        <time>2018-10-17T08:27:26Z</time>
      </trkpt>
      <trkpt lat="45.85041" lon="6.44679">
        <ele>2414</ele>
        <time>2018-10-17T08:27:27Z</time>
      </trkpt>
      <trkpt lat="45.8504" lon="6.44682">
        <ele>2414</ele>
        <time>2018-10-17T08:27:28Z</time>
      </trkpt>
      <trkpt lat="45.8504" lon="6.44682">
        <ele>2414</ele>
        <time>2018-10-17T08:27:29Z</time>
      </trkpt>
      <trkpt lat="45.8504" lon="6.44682">
        <ele>2415</ele>
        <time>2018-10-17T08:27:30Z</time>
      </trkpt>
      <trkpt lat="45.8504" lon="6.44682">
        <ele>2415</ele>
        <time>2018-10-17T08:27:31Z</time>
      </trkpt>
      <trkpt lat="45.8504" lon="6.44682">
        <ele>2415</ele>
        <time>2018-10-17T08:27:32Z</time>
      </trkpt>
      <trkpt lat="45.8504" lon="6.44682">
        <ele>2415</ele>
        <time>2018-10-17T08:27:33Z</time>
      </trkpt>
      <trkpt lat="45.8504" lon="6.44682">
        <ele>2415</ele>
        <time>2018-10-17T08:27:34Z</time>
      </trkpt>
      <trkpt lat="45.85038" lon="6.44683">
        <ele>2415</ele>
        <time>2018-10-17T08:27:35Z</time>
      </trkpt>
      <trkpt lat="45.85038" lon="6.44683">
        <ele>2416</ele>
        <time>2018-10-17T08:27:36Z</time>
      </trkpt>
      <trkpt lat="45.85038" lon="6.44683">
        <ele>2416</ele>
        <time>2018-10-17T08:27:37Z</time>
      </trkpt>
      <trkpt lat="45.85038" lon="6.44683">
        <ele>2416</ele>
        <time>2018-10-17T08:27:38Z</time>
      </trkpt>
      <trkpt lat="45.85038" lon="6.44683">
        <ele>2416</ele>
        <time>2018-10-17T08:27:39Z</time>
      </trkpt>
      <trkpt lat="45.85038" lon="6.44683">
        <ele>2416</ele>
        <time>2018-10-17T08:27:40Z</time>
      </trkpt>
      <trkpt lat="45.85038" lon="6.44683">
        <ele>2416</ele>
        <time>2018-10-17T08:27:41Z</time>
      </trkpt>
      <trkpt lat="45.85038" lon="6.44683">
        <ele>2416</ele>
        <time>2018-10-17T08:27:42Z</time>
      </trkpt>
      <trkpt lat="45.85038" lon="6.44683">
        <ele>2416</ele>
        <time>2018-10-17T08:27:43Z</time>
      </trkpt>
      <trkpt lat="45.85038" lon="6.44683">
        <ele>2416</ele>
        <time>2018-10-17T08:27:44Z</time>
      </trkpt>
      <trkpt lat="45.85038" lon="6.44683">
        <ele>2416</ele>
        <time>2018-10-17T08:27:45Z</time>
      </trkpt>
      <trkpt lat="45.85038" lon="6.44683">
        <ele>2416</ele>
        <time>2018-10-17T08:27:46Z</time>
      </trkpt>
      <trkpt lat="45.85038" lon="6.44683">
        <ele>2416</ele>
        <time>2018-10-17T08:27:47Z</time>
      </trkpt>
      <trkpt lat="45.85038" lon="6.44683">
        <ele>2417</ele>
        <time>2018-10-17T08:27:48Z</time>
      </trkpt>
      <trkpt lat="45.85038" lon="6.44683">
        <ele>2417</ele>
        <time>2018-10-17T08:27:49Z</time>
      </trkpt>
      <trkpt lat="45.85038" lon="6.44683">
        <ele>2417</ele>
        <time>2018-10-17T08:27:50Z</time>
      </trkpt>
      <trkpt lat="45.85038" lon="6.44683">
        <ele>2417</ele>
        <time>2018-10-17T08:27:51Z</time>
      </trkpt>
      <trkpt lat="45.85038" lon="6.44683">
        <ele>2417</ele>
        <time>2018-10-17T08:27:52Z</time>
      </trkpt>
      <trkpt lat="45.85038" lon="6.44683">
        <ele>2417</ele>
        <time>2018-10-17T08:27:53Z</time>
      </trkpt>
      <trkpt lat="45.85038" lon="6.44683">
        <ele>2417</ele>
        <time>2018-10-17T08:27:54Z</time>
      </trkpt>
      <trkpt lat="45.85038" lon="6.44683">
        <ele>2417</ele>
        <time>2018-10-17T08:27:55Z</time>
      </trkpt>
      <trkpt lat="45.85038" lon="6.44683">
        <ele>2417</ele>
        <time>2018-10-17T08:27:56Z</time>
      </trkpt>
      <trkpt lat="45.85038" lon="6.44683">
        <ele>2417</ele>
        <time>2018-10-17T08:27:57Z</time>
      </trkpt>
      <trkpt lat="45.85038" lon="6.44683">
        <ele>2417</ele>
        <time>2018-10-17T08:27:58Z</time>
      </trkpt>
      <trkpt lat="45.85038" lon="6.44683">
        <ele>2417</ele>
        <time>2018-10-17T08:27:59Z</time>
      </trkpt>
      <trkpt lat="45.85038" lon="6.44683">
        <ele>2417</ele>
        <time>2018-10-17T08:28:00Z</time>
      </trkpt>
      <trkpt lat="45.85038" lon="6.44683">
        <ele>2417</ele>
        <time>2018-10-17T08:28:01Z</time>
      </trkpt>
      <trkpt lat="45.85038" lon="6.44683">
        <ele>2417</ele>
        <time>2018-10-17T08:28:02Z</time>
      </trkpt>
      <trkpt lat="45.85038" lon="6.44683">
        <ele>2417</ele>
        <time>2018-10-17T08:28:03Z</time>
      </trkpt>
      <trkpt lat="45.85038" lon="6.44683">
        <ele>2417</ele>
        <time>2018-10-17T08:28:04Z</time>
      </trkpt>
      <trkpt lat="45.85038" lon="6.44683">
        <ele>2417</ele>
        <time>2018-10-17T08:28:05Z</time>
      </trkpt>
      <trkpt lat="45.85038" lon="6.44683">
        <ele>2416</ele>
        <time>2018-10-17T08:28:06Z</time>
      </trkpt>
      <trkpt lat="45.85038" lon="6.44683">
        <ele>2416</ele>
        <time>2018-10-17T08:28:07Z</time>
      </trkpt>
      <trkpt lat="45.85038" lon="6.44683">
        <ele>2416</ele>
        <time>2018-10-17T08:28:08Z</time>
      </trkpt>
      <trkpt lat="45.85038" lon="6.44683">
        <ele>2416</ele>
        <time>2018-10-17T08:28:09Z</time>
      </trkpt>
      <trkpt lat="45.85038" lon="6.44683">
        <ele>2416</ele>
        <time>2018-10-17T08:28:10Z</time>
      </trkpt>
      <trkpt lat="45.85038" lon="6.44683">
        <ele>2416</ele>
        <time>2018-10-17T08:28:11Z</time>
      </trkpt>
      <trkpt lat="45.85038" lon="6.44683">
        <ele>2416</ele>
        <time>2018-10-17T08:28:12Z</time>
      </trkpt>
      <trkpt lat="45.85038" lon="6.44683">
        <ele>2416</ele>
        <time>2018-10-17T08:28:13Z</time>
      </trkpt>
      <trkpt lat="45.85038" lon="6.44683">
        <ele>2416</ele>
        <time>2018-10-17T08:28:14Z</time>
      </trkpt>
      <trkpt lat="45.85038" lon="6.44683">
        <ele>2416</ele>
        <time>2018-10-17T08:28:15Z</time>
      </trkpt>
      <trkpt lat="45.85038" lon="6.44683">
        <ele>2416</ele>
        <time>2018-10-17T08:28:16Z</time>
      </trkpt>
      <trkpt lat="45.85038" lon="6.44683">
        <ele>2416</ele>
        <time>2018-10-17T08:28:17Z</time>
      </trkpt>
      <trkpt lat="45.85038" lon="6.44683">
        <ele>2416</ele>
        <time>2018-10-17T08:28:18Z</time>
      </trkpt>
      <trkpt lat="45.85038" lon="6.44683">
        <ele>2416</ele>
        <time>2018-10-17T08:28:19Z</time>
      </trkpt>
      <trkpt lat="45.85038" lon="6.44683">
        <ele>2416</ele>
        <time>2018-10-17T08:28:20Z</time>
      </trkpt>
      <trkpt lat="45.85038" lon="6.44683">
        <ele>2416</ele>
        <time>2018-10-17T08:28:21Z</time>
      </trkpt>
      <trkpt lat="45.85038" lon="6.44683">
        <ele>2416</ele>
        <time>2018-10-17T08:28:22Z</time>
      </trkpt>
      <trkpt lat="45.85038" lon="6.44683">
        <ele>2415</ele>
        <time>2018-10-17T08:28:23Z</time>
      </trkpt>
      <trkpt lat="45.85038" lon="6.44683">
        <ele>2415</ele>
        <time>2018-10-17T08:28:24Z</time>
      </trkpt>
      <trkpt lat="45.85038" lon="6.44683">
        <ele>2415</ele>
        <time>2018-10-17T08:28:25Z</time>
      </trkpt>
      <trkpt lat="45.85038" lon="6.44683">
        <ele>2415</ele>
        <time>2018-10-17T08:28:26Z</time>
      </trkpt>
      <trkpt lat="45.85038" lon="6.44683">
        <ele>2415</ele>
        <time>2018-10-17T08:28:27Z</time>
      </trkpt>
      <trkpt lat="45.85038" lon="6.44683">
        <ele>2415</ele>
        <time>2018-10-17T08:28:28Z</time>
      </trkpt>
      <trkpt lat="45.85038" lon="6.44683">
        <ele>2415</ele>
        <time>2018-10-17T08:28:29Z</time>
      </trkpt>
      <trkpt lat="45.85038" lon="6.44683">
        <ele>2415</ele>
        <time>2018-10-17T08:28:30Z</time>
      </trkpt>
      <trkpt lat="45.85038" lon="6.44683">
        <ele>2415</ele>
        <time>2018-10-17T08:28:31Z</time>
      </trkpt>
      <trkpt lat="45.85038" lon="6.44683">
        <ele>2415</ele>
        <time>2018-10-17T08:28:32Z</time>
      </trkpt>
      <trkpt lat="45.85038" lon="6.44683">
        <ele>2415</ele>
        <time>2018-10-17T08:28:33Z</time>
      </trkpt>
      <trkpt lat="45.85038" lon="6.44683">
        <ele>2415</ele>
        <time>2018-10-17T08:28:34Z</time>
      </trkpt>
      <trkpt lat="45.85038" lon="6.44683">
        <ele>2415</ele>
        <time>2018-10-17T08:28:35Z</time>
      </trkpt>
      <trkpt lat="45.85038" lon="6.44683">
        <ele>2415</ele>
        <time>2018-10-17T08:28:36Z</time>
      </trkpt>
      <trkpt lat="45.85038" lon="6.44683">
        <ele>2417</ele>
        <time>2018-10-17T08:28:37Z</time>
      </trkpt>
      <trkpt lat="45.85038" lon="6.44683">
        <ele>2417</ele>
        <time>2018-10-17T08:28:38Z</time>
      </trkpt>
      <trkpt lat="45.85038" lon="6.44683">
        <ele>2417</ele>
        <time>2018-10-17T08:28:39Z</time>
      </trkpt>
      <trkpt lat="45.85038" lon="6.44683">
        <ele>2417</ele>
        <time>2018-10-17T08:28:40Z</time>
      </trkpt>
      <trkpt lat="45.85038" lon="6.44683">
        <ele>2417</ele>
        <time>2018-10-17T08:28:41Z</time>
      </trkpt>
      <trkpt lat="45.85038" lon="6.44683">
        <ele>2417</ele>
        <time>2018-10-17T08:28:42Z</time>
      </trkpt>
      <trkpt lat="45.85038" lon="6.44683">
        <ele>2417</ele>
        <time>2018-10-17T08:28:43Z</time>
      </trkpt>
      <trkpt lat="45.85038" lon="6.44683">
        <ele>2417</ele>
        <time>2018-10-17T08:28:44Z</time>
      </trkpt>
      <trkpt lat="45.85038" lon="6.44683">
        <ele>2417</ele>
        <time>2018-10-17T08:28:45Z</time>
      </trkpt>
      <trkpt lat="45.85038" lon="6.44683">
        <ele>2417</ele>
        <time>2018-10-17T08:28:46Z</time>
      </trkpt>
      <trkpt lat="45.85038" lon="6.44683">
        <ele>2417</ele>
        <time>2018-10-17T08:28:47Z</time>
      </trkpt>
      <trkpt lat="45.85038" lon="6.44683">
        <ele>2417</ele>
        <time>2018-10-17T08:28:48Z</time>
      </trkpt>
      <trkpt lat="45.85038" lon="6.44683">
        <ele>2417</ele>
        <time>2018-10-17T08:28:49Z</time>
      </trkpt>
      <trkpt lat="45.85038" lon="6.44683">
        <ele>2418</ele>
        <time>2018-10-17T08:28:50Z</time>
      </trkpt>
      <trkpt lat="45.85038" lon="6.44683">
        <ele>2418</ele>
        <time>2018-10-17T08:28:51Z</time>
      </trkpt>
      <trkpt lat="45.85038" lon="6.44683">
        <ele>2418</ele>
        <time>2018-10-17T08:28:52Z</time>
      </trkpt>
      <trkpt lat="45.85038" lon="6.44683">
        <ele>2418</ele>
        <time>2018-10-17T08:28:53Z</time>
      </trkpt>
      <trkpt lat="45.85038" lon="6.44683">
        <ele>2417</ele>
        <time>2018-10-17T08:28:54Z</time>
      </trkpt>
      <trkpt lat="45.85038" lon="6.44683">
        <ele>2417</ele>
        <time>2018-10-17T08:28:55Z</time>
      </trkpt>
      <trkpt lat="45.85038" lon="6.44683">
        <ele>2417</ele>
        <time>2018-10-17T08:28:56Z</time>
      </trkpt>
      <trkpt lat="45.85038" lon="6.44683">
        <ele>2417</ele>
        <time>2018-10-17T08:28:57Z</time>
      </trkpt>
      <trkpt lat="45.85038" lon="6.44683">
        <ele>2417</ele>
        <time>2018-10-17T08:28:58Z</time>
      </trkpt>
      <trkpt lat="45.85038" lon="6.44683">
        <ele>2417</ele>
        <time>2018-10-17T08:28:59Z</time>
      </trkpt>
      <trkpt lat="45.85038" lon="6.44683">
        <ele>2417</ele>
        <time>2018-10-17T08:29:00Z</time>
      </trkpt>
      <trkpt lat="45.85039" lon="6.4468">
        <ele>2417</ele>
        <time>2018-10-17T08:29:01Z</time>
      </trkpt>
      <trkpt lat="45.85039" lon="6.4468">
        <ele>2417</ele>
        <time>2018-10-17T08:29:02Z</time>
      </trkpt>
      <trkpt lat="45.85039" lon="6.4468">
        <ele>2417</ele>
        <time>2018-10-17T08:29:03Z</time>
      </trkpt>
      <trkpt lat="45.85039" lon="6.4468">
        <ele>2417</ele>
        <time>2018-10-17T08:29:04Z</time>
      </trkpt>
      <trkpt lat="45.85039" lon="6.4468">
        <ele>2417</ele>
        <time>2018-10-17T08:29:05Z</time>
      </trkpt>
      <trkpt lat="45.85039" lon="6.4468">
        <ele>2418</ele>
        <time>2018-10-17T08:29:06Z</time>
      </trkpt>
      <trkpt lat="45.85039" lon="6.4468">
        <ele>2418</ele>
        <time>2018-10-17T08:29:07Z</time>
      </trkpt>
      <trkpt lat="45.85039" lon="6.4468">
        <ele>2418</ele>
        <time>2018-10-17T08:29:08Z</time>
      </trkpt>
      <trkpt lat="45.85039" lon="6.4468">
        <ele>2418</ele>
        <time>2018-10-17T08:29:09Z</time>
      </trkpt>
      <trkpt lat="45.85039" lon="6.4468">
        <ele>2418</ele>
        <time>2018-10-17T08:29:10Z</time>
      </trkpt>
      <trkpt lat="45.85039" lon="6.4468">
        <ele>2418</ele>
        <time>2018-10-17T08:29:11Z</time>
      </trkpt>
      <trkpt lat="45.85039" lon="6.4468">
        <ele>2418</ele>
        <time>2018-10-17T08:29:12Z</time>
      </trkpt>
      <trkpt lat="45.85039" lon="6.4468">
        <ele>2418</ele>
        <time>2018-10-17T08:29:13Z</time>
      </trkpt>
      <trkpt lat="45.85039" lon="6.4468">
        <ele>2418</ele>
        <time>2018-10-17T08:29:14Z</time>
      </trkpt>
      <trkpt lat="45.85039" lon="6.4468">
        <ele>2418</ele>
        <time>2018-10-17T08:29:15Z</time>
      </trkpt>
      <trkpt lat="45.85039" lon="6.4468">
        <ele>2418</ele>
        <time>2018-10-17T08:29:16Z</time>
      </trkpt>
      <trkpt lat="45.85039" lon="6.4468">
        <ele>2418</ele>
        <time>2018-10-17T08:29:17Z</time>
      </trkpt>
      <trkpt lat="45.85039" lon="6.4468">
        <ele>2418</ele>
        <time>2018-10-17T08:29:18Z</time>
      </trkpt>
      <trkpt lat="45.85039" lon="6.4468">
        <ele>2418</ele>
        <time>2018-10-17T08:29:19Z</time>
      </trkpt>
      <trkpt lat="45.85039" lon="6.4468">
        <ele>2418</ele>
        <time>2018-10-17T08:29:20Z</time>
      </trkpt>
      <trkpt lat="45.85039" lon="6.4468">
        <ele>2418</ele>
        <time>2018-10-17T08:29:21Z</time>
      </trkpt>
      <trkpt lat="45.85039" lon="6.4468">
        <ele>2418</ele>
        <time>2018-10-17T08:29:22Z</time>
      </trkpt>
      <trkpt lat="45.85039" lon="6.4468">
        <ele>2418</ele>
        <time>2018-10-17T08:29:23Z</time>
      </trkpt>
      <trkpt lat="45.85039" lon="6.4468">
        <ele>2418</ele>
        <time>2018-10-17T08:29:24Z</time>
      </trkpt>
      <trkpt lat="45.85039" lon="6.4468">
        <ele>2418</ele>
        <time>2018-10-17T08:29:25Z</time>
      </trkpt>
      <trkpt lat="45.85039" lon="6.4468">
        <ele>2418</ele>
        <time>2018-10-17T08:29:26Z</time>
      </trkpt>
      <trkpt lat="45.85039" lon="6.4468">
        <ele>2418</ele>
        <time>2018-10-17T08:29:27Z</time>
      </trkpt>
      <trkpt lat="45.85039" lon="6.4468">
        <ele>2418</ele>
        <time>2018-10-17T08:29:28Z</time>
      </trkpt>
      <trkpt lat="45.85039" lon="6.4468">
        <ele>2418</ele>
        <time>2018-10-17T08:29:29Z</time>
      </trkpt>
      <trkpt lat="45.85039" lon="6.4468">
        <ele>2417</ele>
        <time>2018-10-17T08:29:30Z</time>
      </trkpt>
      <trkpt lat="45.85039" lon="6.4468">
        <ele>2417</ele>
        <time>2018-10-17T08:29:31Z</time>
      </trkpt>
      <trkpt lat="45.85039" lon="6.4468">
        <ele>2417</ele>
        <time>2018-10-17T08:29:32Z</time>
      </trkpt>
      <trkpt lat="45.85039" lon="6.4468">
        <ele>2417</ele>
        <time>2018-10-17T08:29:33Z</time>
      </trkpt>
      <trkpt lat="45.85039" lon="6.4468">
        <ele>2419</ele>
        <time>2018-10-17T08:29:34Z</time>
      </trkpt>
      <trkpt lat="45.85039" lon="6.4468">
        <ele>2419</ele>
        <time>2018-10-17T08:29:35Z</time>
      </trkpt>
      <trkpt lat="45.85039" lon="6.4468">
        <ele>2419</ele>
        <time>2018-10-17T08:29:36Z</time>
      </trkpt>
      <trkpt lat="45.85039" lon="6.4468">
        <ele>2419</ele>
        <time>2018-10-17T08:29:37Z</time>
      </trkpt>
      <trkpt lat="45.85039" lon="6.4468">
        <ele>2419</ele>
        <time>2018-10-17T08:29:38Z</time>
      </trkpt>
      <trkpt lat="45.85039" lon="6.4468">
        <ele>2419</ele>
        <time>2018-10-17T08:29:39Z</time>
      </trkpt>
      <trkpt lat="45.85039" lon="6.4468">
        <ele>2420</ele>
        <time>2018-10-17T08:29:40Z</time>
      </trkpt>
      <trkpt lat="45.85037" lon="6.44682">
        <ele>2420</ele>
        <time>2018-10-17T08:29:41Z</time>
      </trkpt>
      <trkpt lat="45.85037" lon="6.44682">
        <ele>2420</ele>
        <time>2018-10-17T08:29:42Z</time>
      </trkpt>
      <trkpt lat="45.85037" lon="6.44682">
        <ele>2420</ele>
        <time>2018-10-17T08:29:43Z</time>
      </trkpt>
      <trkpt lat="45.85037" lon="6.44682">
        <ele>2420</ele>
        <time>2018-10-17T08:29:44Z</time>
      </trkpt>
      <trkpt lat="45.85037" lon="6.44682">
        <ele>2420</ele>
        <time>2018-10-17T08:29:45Z</time>
      </trkpt>
      <trkpt lat="45.85037" lon="6.44682">
        <ele>2421</ele>
        <time>2018-10-17T08:29:46Z</time>
      </trkpt>
      <trkpt lat="45.85037" lon="6.44682">
        <ele>2421</ele>
        <time>2018-10-17T08:29:47Z</time>
      </trkpt>
      <trkpt lat="45.85037" lon="6.44682">
        <ele>2421</ele>
        <time>2018-10-17T08:29:48Z</time>
      </trkpt>
      <trkpt lat="45.85035" lon="6.44682">
        <ele>2421</ele>
        <time>2018-10-17T08:29:49Z</time>
      </trkpt>
      <trkpt lat="45.85035" lon="6.44682">
        <ele>2421</ele>
        <time>2018-10-17T08:29:50Z</time>
      </trkpt>
      <trkpt lat="45.85035" lon="6.44682">
        <ele>2421</ele>
        <time>2018-10-17T08:29:51Z</time>
      </trkpt>
      <trkpt lat="45.85035" lon="6.44682">
        <ele>2422</ele>
        <time>2018-10-17T08:29:52Z</time>
      </trkpt>
      <trkpt lat="45.85035" lon="6.44682">
        <ele>2422</ele>
        <time>2018-10-17T08:29:53Z</time>
      </trkpt>
      <trkpt lat="45.85035" lon="6.44682">
        <ele>2422</ele>
        <time>2018-10-17T08:29:54Z</time>
      </trkpt>
      <trkpt lat="45.85033" lon="6.44683">
        <ele>2423</ele>
        <time>2018-10-17T08:29:55Z</time>
      </trkpt>
      <trkpt lat="45.85033" lon="6.44683">
        <ele>2423</ele>
        <time>2018-10-17T08:29:56Z</time>
      </trkpt>
      <trkpt lat="45.85033" lon="6.44683">
        <ele>2423</ele>
        <time>2018-10-17T08:29:57Z</time>
      </trkpt>
      <trkpt lat="45.85033" lon="6.44683">
        <ele>2423</ele>
        <time>2018-10-17T08:29:58Z</time>
      </trkpt>
      <trkpt lat="45.85033" lon="6.44683">
        <ele>2423</ele>
        <time>2018-10-17T08:29:59Z</time>
      </trkpt>
      <trkpt lat="45.85033" lon="6.44683">
        <ele>2423</ele>
        <time>2018-10-17T08:30:00Z</time>
      </trkpt>
      <trkpt lat="45.85033" lon="6.44683">
        <ele>2424</ele>
        <time>2018-10-17T08:30:01Z</time>
      </trkpt>
      <trkpt lat="45.85033" lon="6.44683">
        <ele>2424</ele>
        <time>2018-10-17T08:30:02Z</time>
      </trkpt>
      <trkpt lat="45.85032" lon="6.44684">
        <ele>2424</ele>
        <time>2018-10-17T08:30:03Z</time>
      </trkpt>
      <trkpt lat="45.85032" lon="6.44684">
        <ele>2425</ele>
        <time>2018-10-17T08:30:04Z</time>
      </trkpt>
      <trkpt lat="45.85032" lon="6.44684">
        <ele>2425</ele>
        <time>2018-10-17T08:30:05Z</time>
      </trkpt>
      <trkpt lat="45.85032" lon="6.44684">
        <ele>2425</ele>
        <time>2018-10-17T08:30:06Z</time>
      </trkpt>
      <trkpt lat="45.85032" lon="6.44684">
        <ele>2425</ele>
        <time>2018-10-17T08:30:07Z</time>
      </trkpt>
      <trkpt lat="45.85032" lon="6.44684">
        <ele>2425</ele>
        <time>2018-10-17T08:30:08Z</time>
      </trkpt>
      <trkpt lat="45.8503" lon="6.44686">
        <ele>2426</ele>
        <time>2018-10-17T08:30:09Z</time>
      </trkpt>
      <trkpt lat="45.8503" lon="6.44686">
        <ele>2426</ele>
        <time>2018-10-17T08:30:10Z</time>
      </trkpt>
      <trkpt lat="45.8503" lon="6.44686">
        <ele>2427</ele>
        <time>2018-10-17T08:30:11Z</time>
      </trkpt>
      <trkpt lat="45.8503" lon="6.44686">
        <ele>2427</ele>
        <time>2018-10-17T08:30:12Z</time>
      </trkpt>
      <trkpt lat="45.8503" lon="6.44686">
        <ele>2427</ele>
        <time>2018-10-17T08:30:13Z</time>
      </trkpt>
      <trkpt lat="45.8503" lon="6.44686">
        <ele>2427</ele>
        <time>2018-10-17T08:30:14Z</time>
      </trkpt>
      <trkpt lat="45.85028" lon="6.44689">
        <ele>2427</ele>
        <time>2018-10-17T08:30:15Z</time>
      </trkpt>
      <trkpt lat="45.85028" lon="6.44689">
        <ele>2428</ele>
        <time>2018-10-17T08:30:16Z</time>
      </trkpt>
      <trkpt lat="45.85028" lon="6.44689">
        <ele>2428</ele>
        <time>2018-10-17T08:30:17Z</time>
      </trkpt>
      <trkpt lat="45.85028" lon="6.44689">
        <ele>2429</ele>
        <time>2018-10-17T08:30:18Z</time>
      </trkpt>
      <trkpt lat="45.85028" lon="6.44689">
        <ele>2429</ele>
        <time>2018-10-17T08:30:19Z</time>
      </trkpt>
      <trkpt lat="45.85028" lon="6.44689">
        <ele>2429</ele>
        <time>2018-10-17T08:30:20Z</time>
      </trkpt>
      <trkpt lat="45.85028" lon="6.44689">
        <ele>2429</ele>
        <time>2018-10-17T08:30:21Z</time>
      </trkpt>
      <trkpt lat="45.85026" lon="6.4469">
        <ele>2429</ele>
        <time>2018-10-17T08:30:22Z</time>
      </trkpt>
      <trkpt lat="45.85026" lon="6.4469">
        <ele>2429</ele>
        <time>2018-10-17T08:30:23Z</time>
      </trkpt>
      <trkpt lat="45.85026" lon="6.4469">
        <ele>2431</ele>
        <time>2018-10-17T08:30:24Z</time>
      </trkpt>
      <trkpt lat="45.85026" lon="6.4469">
        <ele>2432</ele>
        <time>2018-10-17T08:30:25Z</time>
      </trkpt>
      <trkpt lat="45.85026" lon="6.4469">
        <ele>2432</ele>
        <time>2018-10-17T08:30:26Z</time>
      </trkpt>
      <trkpt lat="45.85026" lon="6.4469">
        <ele>2432</ele>
        <time>2018-10-17T08:30:27Z</time>
      </trkpt>
      <trkpt lat="45.85026" lon="6.4469">
        <ele>2432</ele>
        <time>2018-10-17T08:30:28Z</time>
      </trkpt>
      <trkpt lat="45.85026" lon="6.4469">
        <ele>2433</ele>
        <time>2018-10-17T08:30:29Z</time>
      </trkpt>
      <trkpt lat="45.85025" lon="6.44692">
        <ele>2433</ele>
        <time>2018-10-17T08:30:30Z</time>
      </trkpt>
      <trkpt lat="45.85025" lon="6.44692">
        <ele>2433</ele>
        <time>2018-10-17T08:30:31Z</time>
      </trkpt>
      <trkpt lat="45.85025" lon="6.44692">
        <ele>2433</ele>
        <time>2018-10-17T08:30:32Z</time>
      </trkpt>
      <trkpt lat="45.85025" lon="6.44692">
        <ele>2433</ele>
        <time>2018-10-17T08:30:33Z</time>
      </trkpt>
      <trkpt lat="45.85025" lon="6.44692">
        <ele>2433</ele>
        <time>2018-10-17T08:30:34Z</time>
      </trkpt>
      <trkpt lat="45.85024" lon="6.44694">
        <ele>2434</ele>
        <time>2018-10-17T08:30:35Z</time>
      </trkpt>
      <trkpt lat="45.85024" lon="6.44694">
        <ele>2434</ele>
        <time>2018-10-17T08:30:36Z</time>
      </trkpt>
      <trkpt lat="45.85024" lon="6.44694">
        <ele>2434</ele>
        <time>2018-10-17T08:30:37Z</time>
      </trkpt>
      <trkpt lat="45.85024" lon="6.44694">
        <ele>2434</ele>
        <time>2018-10-17T08:30:38Z</time>
      </trkpt>
      <trkpt lat="45.85024" lon="6.44694">
        <ele>2435</ele>
        <time>2018-10-17T08:30:39Z</time>
      </trkpt>
      <trkpt lat="45.85024" lon="6.44694">
        <ele>2435</ele>
        <time>2018-10-17T08:30:40Z</time>
      </trkpt>
      <trkpt lat="45.85024" lon="6.44694">
        <ele>2435</ele>
        <time>2018-10-17T08:30:41Z</time>
      </trkpt>
      <trkpt lat="45.85024" lon="6.44694">
        <ele>2435</ele>
        <time>2018-10-17T08:30:42Z</time>
      </trkpt>
      <trkpt lat="45.85024" lon="6.44694">
        <ele>2435</ele>
        <time>2018-10-17T08:30:43Z</time>
      </trkpt>
      <trkpt lat="45.85024" lon="6.44694">
        <ele>2436</ele>
        <time>2018-10-17T08:30:44Z</time>
      </trkpt>
      <trkpt lat="45.85023" lon="6.44696">
        <ele>2436</ele>
        <time>2018-10-17T08:30:45Z</time>
      </trkpt>
      <trkpt lat="45.85023" lon="6.44696">
        <ele>2436</ele>
        <time>2018-10-17T08:30:46Z</time>
      </trkpt>
      <trkpt lat="45.85023" lon="6.44696">
        <ele>2436</ele>
        <time>2018-10-17T08:30:47Z</time>
      </trkpt>
      <trkpt lat="45.85023" lon="6.44696">
        <ele>2436</ele>
        <time>2018-10-17T08:30:48Z</time>
      </trkpt>
      <trkpt lat="45.85023" lon="6.44696">
        <ele>2437</ele>
        <time>2018-10-17T08:30:49Z</time>
      </trkpt>
      <trkpt lat="45.85023" lon="6.44696">
        <ele>2437</ele>
        <time>2018-10-17T08:30:50Z</time>
      </trkpt>
      <trkpt lat="45.85023" lon="6.44696">
        <ele>2438</ele>
        <time>2018-10-17T08:30:51Z</time>
      </trkpt>
      <trkpt lat="45.85022" lon="6.44699">
        <ele>2439</ele>
        <time>2018-10-17T08:30:52Z</time>
      </trkpt>
      <trkpt lat="45.85022" lon="6.44699">
        <ele>2439</ele>
        <time>2018-10-17T08:30:53Z</time>
      </trkpt>
      <trkpt lat="45.85022" lon="6.44699">
        <ele>2439</ele>
        <time>2018-10-17T08:30:54Z</time>
      </trkpt>
      <trkpt lat="45.85022" lon="6.44699">
        <ele>2439</ele>
        <time>2018-10-17T08:30:55Z</time>
      </trkpt>
      <trkpt lat="45.85022" lon="6.44699">
        <ele>2439</ele>
        <time>2018-10-17T08:30:56Z</time>
      </trkpt>
      <trkpt lat="45.85022" lon="6.44699">
        <ele>2439</ele>
        <time>2018-10-17T08:30:57Z</time>
      </trkpt>
      <trkpt lat="45.85022" lon="6.44699">
        <ele>2439</ele>
        <time>2018-10-17T08:30:58Z</time>
      </trkpt>
      <trkpt lat="45.85022" lon="6.44699">
        <ele>2439</ele>
        <time>2018-10-17T08:30:59Z</time>
      </trkpt>
      <trkpt lat="45.85022" lon="6.44699">
        <ele>2440</ele>
        <time>2018-10-17T08:31:00Z</time>
      </trkpt>
      <trkpt lat="45.85022" lon="6.44699">
        <ele>2440</ele>
        <time>2018-10-17T08:31:01Z</time>
      </trkpt>
      <trkpt lat="45.85022" lon="6.44699">
        <ele>2440</ele>
        <time>2018-10-17T08:31:02Z</time>
      </trkpt>
      <trkpt lat="45.85022" lon="6.44699">
        <ele>2440</ele>
        <time>2018-10-17T08:31:03Z</time>
      </trkpt>
      <trkpt lat="45.85022" lon="6.44699">
        <ele>2440</ele>
        <time>2018-10-17T08:31:04Z</time>
      </trkpt>
      <trkpt lat="45.85022" lon="6.44699">
        <ele>2440</ele>
        <time>2018-10-17T08:31:05Z</time>
      </trkpt>
      <trkpt lat="45.85021" lon="6.44701">
        <ele>2440</ele>
        <time>2018-10-17T08:31:06Z</time>
      </trkpt>
      <trkpt lat="45.85021" lon="6.44701">
        <ele>2441</ele>
        <time>2018-10-17T08:31:07Z</time>
      </trkpt>
      <trkpt lat="45.85021" lon="6.44701">
        <ele>2442</ele>
        <time>2018-10-17T08:31:08Z</time>
      </trkpt>
      <trkpt lat="45.85021" lon="6.44701">
        <ele>2442</ele>
        <time>2018-10-17T08:31:09Z</time>
      </trkpt>
      <trkpt lat="45.8502" lon="6.44704">
        <ele>2442</ele>
        <time>2018-10-17T08:31:10Z</time>
      </trkpt>
      <trkpt lat="45.8502" lon="6.44704">
        <ele>2443</ele>
        <time>2018-10-17T08:31:11Z</time>
      </trkpt>
      <trkpt lat="45.8502" lon="6.44704">
        <ele>2443</ele>
        <time>2018-10-17T08:31:12Z</time>
      </trkpt>
      <trkpt lat="45.8502" lon="6.44704">
        <ele>2443</ele>
        <time>2018-10-17T08:31:13Z</time>
      </trkpt>
      <trkpt lat="45.8502" lon="6.44704">
        <ele>2443</ele>
        <time>2018-10-17T08:31:14Z</time>
      </trkpt>
      <trkpt lat="45.8502" lon="6.44706">
        <ele>2445</ele>
        <time>2018-10-17T08:31:15Z</time>
      </trkpt>
      <trkpt lat="45.8502" lon="6.44706">
        <ele>2446</ele>
        <time>2018-10-17T08:31:16Z</time>
      </trkpt>
      <trkpt lat="45.8502" lon="6.44706">
        <ele>2446</ele>
        <time>2018-10-17T08:31:17Z</time>
      </trkpt>
      <trkpt lat="45.8502" lon="6.44706">
        <ele>2446</ele>
        <time>2018-10-17T08:31:18Z</time>
      </trkpt>
      <trkpt lat="45.8502" lon="6.44706">
        <ele>2446</ele>
        <time>2018-10-17T08:31:19Z</time>
      </trkpt>
      <trkpt lat="45.8502" lon="6.44706">
        <ele>2446</ele>
        <time>2018-10-17T08:31:20Z</time>
      </trkpt>
      <trkpt lat="45.85019" lon="6.4471">
        <ele>2447</ele>
        <time>2018-10-17T08:31:21Z</time>
      </trkpt>
      <trkpt lat="45.85019" lon="6.4471">
        <ele>2447</ele>
        <time>2018-10-17T08:31:22Z</time>
      </trkpt>
      <trkpt lat="45.85019" lon="6.4471">
        <ele>2447</ele>
        <time>2018-10-17T08:31:23Z</time>
      </trkpt>
      <trkpt lat="45.85019" lon="6.4471">
        <ele>2447</ele>
        <time>2018-10-17T08:31:24Z</time>
      </trkpt>
      <trkpt lat="45.85019" lon="6.4471">
        <ele>2448</ele>
        <time>2018-10-17T08:31:25Z</time>
      </trkpt>
      <trkpt lat="45.85019" lon="6.44712">
        <ele>2448</ele>
        <time>2018-10-17T08:31:26Z</time>
      </trkpt>
      <trkpt lat="45.85019" lon="6.44712">
        <ele>2448</ele>
        <time>2018-10-17T08:31:27Z</time>
      </trkpt>
      <trkpt lat="45.85019" lon="6.44712">
        <ele>2449</ele>
        <time>2018-10-17T08:31:28Z</time>
      </trkpt>
      <trkpt lat="45.85019" lon="6.44712">
        <ele>2449</ele>
        <time>2018-10-17T08:31:29Z</time>
      </trkpt>
      <trkpt lat="45.85019" lon="6.44712">
        <ele>2449</ele>
        <time>2018-10-17T08:31:30Z</time>
      </trkpt>
      <trkpt lat="45.85019" lon="6.44712">
        <ele>2449</ele>
        <time>2018-10-17T08:31:31Z</time>
      </trkpt>
      <trkpt lat="45.85019" lon="6.44712">
        <ele>2449</ele>
        <time>2018-10-17T08:31:32Z</time>
      </trkpt>
      <trkpt lat="45.85019" lon="6.44712">
        <ele>2449</ele>
        <time>2018-10-17T08:31:33Z</time>
      </trkpt>
      <trkpt lat="45.85019" lon="6.44712">
        <ele>2449</ele>
        <time>2018-10-17T08:31:34Z</time>
      </trkpt>
      <trkpt lat="45.85019" lon="6.44712">
        <ele>2449</ele>
        <time>2018-10-17T08:31:35Z</time>
      </trkpt>
      <trkpt lat="45.85019" lon="6.44712">
        <ele>2449</ele>
        <time>2018-10-17T08:31:36Z</time>
      </trkpt>
      <trkpt lat="45.85019" lon="6.44712">
        <ele>2449</ele>
        <time>2018-10-17T08:31:37Z</time>
      </trkpt>
      <trkpt lat="45.85019" lon="6.44712">
        <ele>2449</ele>
        <time>2018-10-17T08:31:38Z</time>
      </trkpt>
      <trkpt lat="45.85019" lon="6.44712">
        <ele>2449</ele>
        <time>2018-10-17T08:31:39Z</time>
      </trkpt>
      <trkpt lat="45.85019" lon="6.44712">
        <ele>2449</ele>
        <time>2018-10-17T08:31:40Z</time>
      </trkpt>
      <trkpt lat="45.85019" lon="6.44712">
        <ele>2449</ele>
        <time>2018-10-17T08:31:41Z</time>
      </trkpt>
      <trkpt lat="45.85019" lon="6.44712">
        <ele>2449</ele>
        <time>2018-10-17T08:31:42Z</time>
      </trkpt>
      <trkpt lat="45.85019" lon="6.44712">
        <ele>2449</ele>
        <time>2018-10-17T08:31:43Z</time>
      </trkpt>
      <trkpt lat="45.85019" lon="6.44712">
        <ele>2449</ele>
        <time>2018-10-17T08:31:44Z</time>
      </trkpt>
      <trkpt lat="45.85019" lon="6.44712">
        <ele>2449</ele>
        <time>2018-10-17T08:31:45Z</time>
      </trkpt>
      <trkpt lat="45.85019" lon="6.44712">
        <ele>2449</ele>
        <time>2018-10-17T08:31:46Z</time>
      </trkpt>
      <trkpt lat="45.85019" lon="6.44712">
        <ele>2449</ele>
        <time>2018-10-17T08:31:47Z</time>
      </trkpt>
      <trkpt lat="45.85019" lon="6.44712">
        <ele>2449</ele>
        <time>2018-10-17T08:31:48Z</time>
      </trkpt>
      <trkpt lat="45.85019" lon="6.44712">
        <ele>2449</ele>
        <time>2018-10-17T08:31:49Z</time>
      </trkpt>
      <trkpt lat="45.85019" lon="6.44712">
        <ele>2449</ele>
        <time>2018-10-17T08:31:50Z</time>
      </trkpt>
      <trkpt lat="45.85019" lon="6.44712">
        <ele>2449</ele>
        <time>2018-10-17T08:31:51Z</time>
      </trkpt>
      <trkpt lat="45.85019" lon="6.44712">
        <ele>2449</ele>
        <time>2018-10-17T08:31:52Z</time>
      </trkpt>
      <trkpt lat="45.85019" lon="6.44712">
        <ele>2449</ele>
        <time>2018-10-17T08:31:53Z</time>
      </trkpt>
      <trkpt lat="45.85019" lon="6.44712">
        <ele>2449</ele>
        <time>2018-10-17T08:31:54Z</time>
      </trkpt>
      <trkpt lat="45.85019" lon="6.44712">
        <ele>2449</ele>
        <time>2018-10-17T08:31:55Z</time>
      </trkpt>
      <trkpt lat="45.85019" lon="6.44712">
        <ele>2449</ele>
        <time>2018-10-17T08:31:56Z</time>
      </trkpt>
      <trkpt lat="45.85019" lon="6.44712">
        <ele>2449</ele>
        <time>2018-10-17T08:31:57Z</time>
      </trkpt>
      <trkpt lat="45.85019" lon="6.44712">
        <ele>2448</ele>
        <time>2018-10-17T08:31:58Z</time>
      </trkpt>
      <trkpt lat="45.85019" lon="6.44712">
        <ele>2449</ele>
        <time>2018-10-17T08:31:59Z</time>
      </trkpt>
      <trkpt lat="45.85019" lon="6.44712">
        <ele>2449</ele>
        <time>2018-10-17T08:32:00Z</time>
      </trkpt>
      <trkpt lat="45.85019" lon="6.44712">
        <ele>2449</ele>
        <time>2018-10-17T08:32:01Z</time>
      </trkpt>
      <trkpt lat="45.85019" lon="6.44712">
        <ele>2449</ele>
        <time>2018-10-17T08:32:02Z</time>
      </trkpt>
      <trkpt lat="45.85019" lon="6.44716">
        <ele>2449</ele>
        <time>2018-10-17T08:32:03Z</time>
      </trkpt>
      <trkpt lat="45.85019" lon="6.44716">
        <ele>2450</ele>
        <time>2018-10-17T08:32:04Z</time>
      </trkpt>
      <trkpt lat="45.85019" lon="6.44716">
        <ele>2450</ele>
        <time>2018-10-17T08:32:05Z</time>
      </trkpt>
      <trkpt lat="45.85019" lon="6.44716">
        <ele>2450</ele>
        <time>2018-10-17T08:32:06Z</time>
      </trkpt>
      <trkpt lat="45.85019" lon="6.44716">
        <ele>2450</ele>
        <time>2018-10-17T08:32:07Z</time>
      </trkpt>
      <trkpt lat="45.85018" lon="6.44718">
        <ele>2450</ele>
        <time>2018-10-17T08:32:08Z</time>
      </trkpt>
      <trkpt lat="45.85018" lon="6.44718">
        <ele>2450</ele>
        <time>2018-10-17T08:32:09Z</time>
      </trkpt>
      <trkpt lat="45.85018" lon="6.44718">
        <ele>2450</ele>
        <time>2018-10-17T08:32:10Z</time>
      </trkpt>
      <trkpt lat="45.85018" lon="6.44718">
        <ele>2451</ele>
        <time>2018-10-17T08:32:11Z</time>
      </trkpt>
      <trkpt lat="45.85018" lon="6.44718">
        <ele>2451</ele>
        <time>2018-10-17T08:32:12Z</time>
      </trkpt>
      <trkpt lat="45.85017" lon="6.44721">
        <ele>2451</ele>
        <time>2018-10-17T08:32:13Z</time>
      </trkpt>
      <trkpt lat="45.85017" lon="6.44721">
        <ele>2452</ele>
        <time>2018-10-17T08:32:14Z</time>
      </trkpt>
      <trkpt lat="45.85017" lon="6.44721">
        <ele>2452</ele>
        <time>2018-10-17T08:32:15Z</time>
      </trkpt>
      <trkpt lat="45.85017" lon="6.44721">
        <ele>2452</ele>
        <time>2018-10-17T08:32:16Z</time>
      </trkpt>
      <trkpt lat="45.85016" lon="6.44723">
        <ele>2453</ele>
        <time>2018-10-17T08:32:17Z</time>
      </trkpt>
      <trkpt lat="45.85016" lon="6.44723">
        <ele>2453</ele>
        <time>2018-10-17T08:32:18Z</time>
      </trkpt>
      <trkpt lat="45.85016" lon="6.44723">
        <ele>2454</ele>
        <time>2018-10-17T08:32:19Z</time>
      </trkpt>
      <trkpt lat="45.85016" lon="6.44723">
        <ele>2454</ele>
        <time>2018-10-17T08:32:20Z</time>
      </trkpt>
      <trkpt lat="45.85015" lon="6.44725">
        <ele>2456</ele>
        <time>2018-10-17T08:32:21Z</time>
      </trkpt>
      <trkpt lat="45.85015" lon="6.44725">
        <ele>2456</ele>
        <time>2018-10-17T08:32:22Z</time>
      </trkpt>
      <trkpt lat="45.85015" lon="6.44725">
        <ele>2456</ele>
        <time>2018-10-17T08:32:23Z</time>
      </trkpt>
      <trkpt lat="45.85015" lon="6.44725">
        <ele>2456</ele>
        <time>2018-10-17T08:32:24Z</time>
      </trkpt>
      <trkpt lat="45.85015" lon="6.44725">
        <ele>2456</ele>
        <time>2018-10-17T08:32:25Z</time>
      </trkpt>
      <trkpt lat="45.85015" lon="6.44725">
        <ele>2456</ele>
        <time>2018-10-17T08:32:26Z</time>
      </trkpt>
      <trkpt lat="45.85014" lon="6.44728">
        <ele>2456</ele>
        <time>2018-10-17T08:32:27Z</time>
      </trkpt>
      <trkpt lat="45.85014" lon="6.44728">
        <ele>2456</ele>
        <time>2018-10-17T08:32:28Z</time>
      </trkpt>
      <trkpt lat="45.85014" lon="6.44728">
        <ele>2456</ele>
        <time>2018-10-17T08:32:29Z</time>
      </trkpt>
      <trkpt lat="45.85014" lon="6.44728">
        <ele>2457</ele>
        <time>2018-10-17T08:32:30Z</time>
      </trkpt>
      <trkpt lat="45.85014" lon="6.44728">
        <ele>2458</ele>
        <time>2018-10-17T08:32:31Z</time>
      </trkpt>
      <trkpt lat="45.85014" lon="6.44728">
        <ele>2458</ele>
        <time>2018-10-17T08:32:32Z</time>
      </trkpt>
      <trkpt lat="45.85014" lon="6.44728">
        <ele>2458</ele>
        <time>2018-10-17T08:32:33Z</time>
      </trkpt>
      <trkpt lat="45.85014" lon="6.44728">
        <ele>2458</ele>
        <time>2018-10-17T08:32:34Z</time>
      </trkpt>
      <trkpt lat="45.85013" lon="6.4473">
        <ele>2458</ele>
        <time>2018-10-17T08:32:35Z</time>
      </trkpt>
      <trkpt lat="45.85013" lon="6.4473">
        <ele>2458</ele>
        <time>2018-10-17T08:32:36Z</time>
      </trkpt>
      <trkpt lat="45.85013" lon="6.4473">
        <ele>2458</ele>
        <time>2018-10-17T08:32:37Z</time>
      </trkpt>
      <trkpt lat="45.85013" lon="6.4473">
        <ele>2459</ele>
        <time>2018-10-17T08:32:38Z</time>
      </trkpt>
      <trkpt lat="45.85012" lon="6.44733">
        <ele>2459</ele>
        <time>2018-10-17T08:32:39Z</time>
      </trkpt>
      <trkpt lat="45.85012" lon="6.44733">
        <ele>2459</ele>
        <time>2018-10-17T08:32:40Z</time>
      </trkpt>
      <trkpt lat="45.85012" lon="6.44733">
        <ele>2460</ele>
        <time>2018-10-17T08:32:41Z</time>
      </trkpt>
      <trkpt lat="45.85012" lon="6.44733">
        <ele>2460</ele>
        <time>2018-10-17T08:32:42Z</time>
      </trkpt>
      <trkpt lat="45.85012" lon="6.44733">
        <ele>2460</ele>
        <time>2018-10-17T08:32:43Z</time>
      </trkpt>
      <trkpt lat="45.85012" lon="6.44733">
        <ele>2460</ele>
        <time>2018-10-17T08:32:44Z</time>
      </trkpt>
      <trkpt lat="45.85012" lon="6.44733">
        <ele>2460</ele>
        <time>2018-10-17T08:32:45Z</time>
      </trkpt>
      <trkpt lat="45.85012" lon="6.44733">
        <ele>2460</ele>
        <time>2018-10-17T08:32:46Z</time>
      </trkpt>
      <trkpt lat="45.85012" lon="6.44733">
        <ele>2461</ele>
        <time>2018-10-17T08:32:47Z</time>
      </trkpt>
      <trkpt lat="45.8501" lon="6.44733">
        <ele>2461</ele>
        <time>2018-10-17T08:32:48Z</time>
      </trkpt>
      <trkpt lat="45.8501" lon="6.44733">
        <ele>2461</ele>
        <time>2018-10-17T08:32:49Z</time>
      </trkpt>
      <trkpt lat="45.8501" lon="6.44733">
        <ele>2461</ele>
        <time>2018-10-17T08:32:50Z</time>
      </trkpt>
      <trkpt lat="45.85008" lon="6.44732">
        <ele>2461</ele>
        <time>2018-10-17T08:32:51Z</time>
      </trkpt>
      <trkpt lat="45.85008" lon="6.44732">
        <ele>2461</ele>
        <time>2018-10-17T08:32:52Z</time>
      </trkpt>
      <trkpt lat="45.85008" lon="6.44732">
        <ele>2461</ele>
        <time>2018-10-17T08:32:53Z</time>
      </trkpt>
      <trkpt lat="45.85006" lon="6.44731">
        <ele>2461</ele>
        <time>2018-10-17T08:32:54Z</time>
      </trkpt>
      <trkpt lat="45.85006" lon="6.44731">
        <ele>2462</ele>
        <time>2018-10-17T08:32:55Z</time>
      </trkpt>
      <trkpt lat="45.85006" lon="6.44731">
        <ele>2462</ele>
        <time>2018-10-17T08:32:56Z</time>
      </trkpt>
      <trkpt lat="45.85004" lon="6.4473">
        <ele>2462</ele>
        <time>2018-10-17T08:32:57Z</time>
      </trkpt>
      <trkpt lat="45.85004" lon="6.4473">
        <ele>2462</ele>
        <time>2018-10-17T08:32:58Z</time>
      </trkpt>
      <trkpt lat="45.85004" lon="6.4473">
        <ele>2462</ele>
        <time>2018-10-17T08:32:59Z</time>
      </trkpt>
      <trkpt lat="45.85002" lon="6.44729">
        <ele>2464</ele>
        <time>2018-10-17T08:33:00Z</time>
      </trkpt>
      <trkpt lat="45.85002" lon="6.44729">
        <ele>2464</ele>
        <time>2018-10-17T08:33:01Z</time>
      </trkpt>
      <trkpt lat="45.85002" lon="6.44729">
        <ele>2464</ele>
        <time>2018-10-17T08:33:02Z</time>
      </trkpt>
      <trkpt lat="45.85002" lon="6.44729">
        <ele>2465</ele>
        <time>2018-10-17T08:33:03Z</time>
      </trkpt>
      <trkpt lat="45.85" lon="6.44729">
        <ele>2465</ele>
        <time>2018-10-17T08:33:04Z</time>
      </trkpt>
      <trkpt lat="45.85" lon="6.44729">
        <ele>2466</ele>
        <time>2018-10-17T08:33:05Z</time>
      </trkpt>
      <trkpt lat="45.85" lon="6.44729">
        <ele>2466</ele>
        <time>2018-10-17T08:33:06Z</time>
      </trkpt>
      <trkpt lat="45.85" lon="6.44729">
        <ele>2467</ele>
        <time>2018-10-17T08:33:07Z</time>
      </trkpt>
      <trkpt lat="45.84997" lon="6.44728">
        <ele>2467</ele>
        <time>2018-10-17T08:33:08Z</time>
      </trkpt>
      <trkpt lat="45.84997" lon="6.44728">
        <ele>2467</ele>
        <time>2018-10-17T08:33:09Z</time>
      </trkpt>
      <trkpt lat="45.84997" lon="6.44728">
        <ele>2467</ele>
        <time>2018-10-17T08:33:10Z</time>
      </trkpt>
      <trkpt lat="45.84996" lon="6.44728">
        <ele>2467</ele>
        <time>2018-10-17T08:33:11Z</time>
      </trkpt>
      <trkpt lat="45.84996" lon="6.44728">
        <ele>2467</ele>
        <time>2018-10-17T08:33:12Z</time>
      </trkpt>
      <trkpt lat="45.84996" lon="6.44728">
        <ele>2467</ele>
        <time>2018-10-17T08:33:13Z</time>
      </trkpt>
      <trkpt lat="45.84996" lon="6.44728">
        <ele>2468</ele>
        <time>2018-10-17T08:33:14Z</time>
      </trkpt>
      <trkpt lat="45.84993" lon="6.44727">
        <ele>2468</ele>
        <time>2018-10-17T08:33:15Z</time>
      </trkpt>
      <trkpt lat="45.84993" lon="6.44727">
        <ele>2468</ele>
        <time>2018-10-17T08:33:16Z</time>
      </trkpt>
      <trkpt lat="45.84993" lon="6.44727">
        <ele>2468</ele>
        <time>2018-10-17T08:33:17Z</time>
      </trkpt>
      <trkpt lat="45.84993" lon="6.44727">
        <ele>2469</ele>
        <time>2018-10-17T08:33:18Z</time>
      </trkpt>
      <trkpt lat="45.84993" lon="6.44727">
        <ele>2469</ele>
        <time>2018-10-17T08:33:19Z</time>
      </trkpt>
      <trkpt lat="45.84992" lon="6.44726">
        <ele>2470</ele>
        <time>2018-10-17T08:33:20Z</time>
      </trkpt>
      <trkpt lat="45.84992" lon="6.44726">
        <ele>2470</ele>
        <time>2018-10-17T08:33:21Z</time>
      </trkpt>
      <trkpt lat="45.84992" lon="6.44726">
        <ele>2470</ele>
        <time>2018-10-17T08:33:22Z</time>
      </trkpt>
      <trkpt lat="45.84992" lon="6.44726">
        <ele>2470</ele>
        <time>2018-10-17T08:33:23Z</time>
      </trkpt>
      <trkpt lat="45.84992" lon="6.44726">
        <ele>2470</ele>
        <time>2018-10-17T08:33:24Z</time>
      </trkpt>
      <trkpt lat="45.84992" lon="6.44726">
        <ele>2470</ele>
        <time>2018-10-17T08:33:25Z</time>
      </trkpt>
      <trkpt lat="45.84992" lon="6.44726">
        <ele>2470</ele>
        <time>2018-10-17T08:33:26Z</time>
      </trkpt>
      <trkpt lat="45.84992" lon="6.44726">
        <ele>2470</ele>
        <time>2018-10-17T08:33:27Z</time>
      </trkpt>
      <trkpt lat="45.84992" lon="6.44726">
        <ele>2470</ele>
        <time>2018-10-17T08:33:28Z</time>
      </trkpt>
      <trkpt lat="45.84992" lon="6.44726">
        <ele>2471</ele>
        <time>2018-10-17T08:33:29Z</time>
      </trkpt>
      <trkpt lat="45.84992" lon="6.44726">
        <ele>2471</ele>
        <time>2018-10-17T08:33:30Z</time>
      </trkpt>
      <trkpt lat="45.84992" lon="6.44726">
        <ele>2471</ele>
        <time>2018-10-17T08:33:31Z</time>
      </trkpt>
      <trkpt lat="45.84992" lon="6.44726">
        <ele>2471</ele>
        <time>2018-10-17T08:33:32Z</time>
      </trkpt>
      <trkpt lat="45.84992" lon="6.44726">
        <ele>2471</ele>
        <time>2018-10-17T08:33:33Z</time>
      </trkpt>
      <trkpt lat="45.84992" lon="6.44726">
        <ele>2471</ele>
        <time>2018-10-17T08:33:34Z</time>
      </trkpt>
      <trkpt lat="45.84992" lon="6.44726">
        <ele>2471</ele>
        <time>2018-10-17T08:33:35Z</time>
      </trkpt>
      <trkpt lat="45.84992" lon="6.44726">
        <ele>2471</ele>
        <time>2018-10-17T08:33:36Z</time>
      </trkpt>
      <trkpt lat="45.84992" lon="6.44726">
        <ele>2471</ele>
        <time>2018-10-17T08:33:37Z</time>
      </trkpt>
      <trkpt lat="45.8499" lon="6.44727">
        <ele>2472</ele>
        <time>2018-10-17T08:33:38Z</time>
      </trkpt>
      <trkpt lat="45.8499" lon="6.44727">
        <ele>2472</ele>
        <time>2018-10-17T08:33:39Z</time>
      </trkpt>
      <trkpt lat="45.8499" lon="6.44727">
        <ele>2472</ele>
        <time>2018-10-17T08:33:40Z</time>
      </trkpt>
      <trkpt lat="45.8499" lon="6.44727">
        <ele>2474</ele>
        <time>2018-10-17T08:33:41Z</time>
      </trkpt>
      <trkpt lat="45.8499" lon="6.44727">
        <ele>2474</ele>
        <time>2018-10-17T08:33:42Z</time>
      </trkpt>
      <trkpt lat="45.84988" lon="6.44728">
        <ele>2474</ele>
        <time>2018-10-17T08:33:43Z</time>
      </trkpt>
      <trkpt lat="45.84988" lon="6.44728">
        <ele>2474</ele>
        <time>2018-10-17T08:33:44Z</time>
      </trkpt>
      <trkpt lat="45.84988" lon="6.44728">
        <ele>2474</ele>
        <time>2018-10-17T08:33:45Z</time>
      </trkpt>
      <trkpt lat="45.84988" lon="6.44728">
        <ele>2475</ele>
        <time>2018-10-17T08:33:46Z</time>
      </trkpt>
      <trkpt lat="45.84987" lon="6.4473">
        <ele>2476</ele>
        <time>2018-10-17T08:33:47Z</time>
      </trkpt>
      <trkpt lat="45.84987" lon="6.4473">
        <ele>2476</ele>
        <time>2018-10-17T08:33:48Z</time>
      </trkpt>
      <trkpt lat="45.84987" lon="6.4473">
        <ele>2476</ele>
        <time>2018-10-17T08:33:49Z</time>
      </trkpt>
      <trkpt lat="45.84987" lon="6.4473">
        <ele>2476</ele>
        <time>2018-10-17T08:33:50Z</time>
      </trkpt>
      <trkpt lat="45.84987" lon="6.4473">
        <ele>2477</ele>
        <time>2018-10-17T08:33:51Z</time>
      </trkpt>
      <trkpt lat="45.84987" lon="6.4473">
        <ele>2478</ele>
        <time>2018-10-17T08:33:52Z</time>
      </trkpt>
      <trkpt lat="45.84987" lon="6.4473">
        <ele>2478</ele>
        <time>2018-10-17T08:33:53Z</time>
      </trkpt>
      <trkpt lat="45.84987" lon="6.4473">
        <ele>2478</ele>
        <time>2018-10-17T08:33:54Z</time>
      </trkpt>
      <trkpt lat="45.84987" lon="6.4473">
        <ele>2478</ele>
        <time>2018-10-17T08:33:55Z</time>
      </trkpt>
      <trkpt lat="45.84987" lon="6.4473">
        <ele>2478</ele>
        <time>2018-10-17T08:33:56Z</time>
      </trkpt>
      <trkpt lat="45.84987" lon="6.4473">
        <ele>2478</ele>
        <time>2018-10-17T08:33:57Z</time>
      </trkpt>
      <trkpt lat="45.84987" lon="6.4473">
        <ele>2478</ele>
        <time>2018-10-17T08:33:58Z</time>
      </trkpt>
      <trkpt lat="45.84987" lon="6.4473">
        <ele>2478</ele>
        <time>2018-10-17T08:33:59Z</time>
      </trkpt>
      <trkpt lat="45.84987" lon="6.4473">
        <ele>2478</ele>
        <time>2018-10-17T08:34:00Z</time>
      </trkpt>
      <trkpt lat="45.84987" lon="6.4473">
        <ele>2478</ele>
        <time>2018-10-17T08:34:01Z</time>
      </trkpt>
      <trkpt lat="45.84988" lon="6.44733">
        <ele>2478</ele>
        <time>2018-10-17T08:34:02Z</time>
      </trkpt>
      <trkpt lat="45.84988" lon="6.44733">
        <ele>2478</ele>
        <time>2018-10-17T08:34:03Z</time>
      </trkpt>
      <trkpt lat="45.84988" lon="6.44733">
        <ele>2478</ele>
        <time>2018-10-17T08:34:04Z</time>
      </trkpt>
      <trkpt lat="45.84988" lon="6.44733">
        <ele>2478</ele>
        <time>2018-10-17T08:34:05Z</time>
      </trkpt>
      <trkpt lat="45.84988" lon="6.44733">
        <ele>2478</ele>
        <time>2018-10-17T08:34:06Z</time>
      </trkpt>
      <trkpt lat="45.84988" lon="6.44733">
        <ele>2478</ele>
        <time>2018-10-17T08:34:07Z</time>
      </trkpt>
      <trkpt lat="45.84988" lon="6.44733">
        <ele>2478</ele>
        <time>2018-10-17T08:34:08Z</time>
      </trkpt>
      <trkpt lat="45.84988" lon="6.44733">
        <ele>2478</ele>
        <time>2018-10-17T08:34:09Z</time>
      </trkpt>
      <trkpt lat="45.84988" lon="6.44733">
        <ele>2477</ele>
        <time>2018-10-17T08:34:10Z</time>
      </trkpt>
      <trkpt lat="45.84988" lon="6.44733">
        <ele>2477</ele>
        <time>2018-10-17T08:34:11Z</time>
      </trkpt>
      <trkpt lat="45.84988" lon="6.44733">
        <ele>2477</ele>
        <time>2018-10-17T08:34:12Z</time>
      </trkpt>
      <trkpt lat="45.84988" lon="6.44733">
        <ele>2477</ele>
        <time>2018-10-17T08:34:13Z</time>
      </trkpt>
      <trkpt lat="45.84988" lon="6.44733">
        <ele>2477</ele>
        <time>2018-10-17T08:34:14Z</time>
      </trkpt>
      <trkpt lat="45.84988" lon="6.44733">
        <ele>2477</ele>
        <time>2018-10-17T08:34:15Z</time>
      </trkpt>
      <trkpt lat="45.84988" lon="6.44733">
        <ele>2477</ele>
        <time>2018-10-17T08:34:16Z</time>
      </trkpt>
      <trkpt lat="45.84988" lon="6.44733">
        <ele>2476</ele>
        <time>2018-10-17T08:34:17Z</time>
      </trkpt>
      <trkpt lat="45.84988" lon="6.44733">
        <ele>2476</ele>
        <time>2018-10-17T08:34:18Z</time>
      </trkpt>
      <trkpt lat="45.84988" lon="6.44733">
        <ele>2476</ele>
        <time>2018-10-17T08:34:19Z</time>
      </trkpt>
      <trkpt lat="45.84988" lon="6.44733">
        <ele>2476</ele>
        <time>2018-10-17T08:34:20Z</time>
      </trkpt>
      <trkpt lat="45.84988" lon="6.44733">
        <ele>2476</ele>
        <time>2018-10-17T08:34:21Z</time>
      </trkpt>
      <trkpt lat="45.84988" lon="6.44733">
        <ele>2476</ele>
        <time>2018-10-17T08:34:22Z</time>
      </trkpt>
      <trkpt lat="45.84988" lon="6.44733">
        <ele>2477</ele>
        <time>2018-10-17T08:34:23Z</time>
      </trkpt>
      <trkpt lat="45.84988" lon="6.44733">
        <ele>2477</ele>
        <time>2018-10-17T08:34:24Z</time>
      </trkpt>
      <trkpt lat="45.84989" lon="6.44734">
        <ele>2477</ele>
        <time>2018-10-17T08:34:25Z</time>
      </trkpt>
      <trkpt lat="45.84989" lon="6.44734">
        <ele>2477</ele>
        <time>2018-10-17T08:34:26Z</time>
      </trkpt>
      <trkpt lat="45.84989" lon="6.44734">
        <ele>2477</ele>
        <time>2018-10-17T08:34:27Z</time>
      </trkpt>
      <trkpt lat="45.84989" lon="6.44734">
        <ele>2477</ele>
        <time>2018-10-17T08:34:28Z</time>
      </trkpt>
      <trkpt lat="45.84989" lon="6.44734">
        <ele>2477</ele>
        <time>2018-10-17T08:34:29Z</time>
      </trkpt>
      <trkpt lat="45.84989" lon="6.44734">
        <ele>2477</ele>
        <time>2018-10-17T08:34:30Z</time>
      </trkpt>
      <trkpt lat="45.84989" lon="6.44734">
        <ele>2477</ele>
        <time>2018-10-17T08:34:31Z</time>
      </trkpt>
      <trkpt lat="45.84989" lon="6.44734">
        <ele>2477</ele>
        <time>2018-10-17T08:34:32Z</time>
      </trkpt>
      <trkpt lat="45.84989" lon="6.44734">
        <ele>2477</ele>
        <time>2018-10-17T08:34:33Z</time>
      </trkpt>
      <trkpt lat="45.84989" lon="6.44734">
        <ele>2477</ele>
        <time>2018-10-17T08:34:34Z</time>
      </trkpt>
      <trkpt lat="45.84989" lon="6.44734">
        <ele>2477</ele>
        <time>2018-10-17T08:34:35Z</time>
      </trkpt>
      <trkpt lat="45.84989" lon="6.44734">
        <ele>2477</ele>
        <time>2018-10-17T08:34:36Z</time>
      </trkpt>
      <trkpt lat="45.84989" lon="6.44734">
        <ele>2477</ele>
        <time>2018-10-17T08:34:37Z</time>
      </trkpt>
      <trkpt lat="45.84989" lon="6.44734">
        <ele>2477</ele>
        <time>2018-10-17T08:34:38Z</time>
      </trkpt>
      <trkpt lat="45.84989" lon="6.44734">
        <ele>2477</ele>
        <time>2018-10-17T08:34:39Z</time>
      </trkpt>
      <trkpt lat="45.84989" lon="6.44734">
        <ele>2478</ele>
        <time>2018-10-17T08:34:40Z</time>
      </trkpt>
      <trkpt lat="45.84989" lon="6.44734">
        <ele>2478</ele>
        <time>2018-10-17T08:34:41Z</time>
      </trkpt>
      <trkpt lat="45.84989" lon="6.44734">
        <ele>2478</ele>
        <time>2018-10-17T08:34:42Z</time>
      </trkpt>
      <trkpt lat="45.84989" lon="6.44734">
        <ele>2478</ele>
        <time>2018-10-17T08:34:43Z</time>
      </trkpt>
      <trkpt lat="45.84989" lon="6.44734">
        <ele>2478</ele>
        <time>2018-10-17T08:34:44Z</time>
      </trkpt>
      <trkpt lat="45.84989" lon="6.44734">
        <ele>2478</ele>
        <time>2018-10-17T08:34:45Z</time>
      </trkpt>
      <trkpt lat="45.84989" lon="6.44734">
        <ele>2478</ele>
        <time>2018-10-17T08:34:46Z</time>
      </trkpt>
      <trkpt lat="45.84989" lon="6.44734">
        <ele>2478</ele>
        <time>2018-10-17T08:34:47Z</time>
      </trkpt>
      <trkpt lat="45.84989" lon="6.44734">
        <ele>2479</ele>
        <time>2018-10-17T08:34:48Z</time>
      </trkpt>
      <trkpt lat="45.84989" lon="6.44734">
        <ele>2479</ele>
        <time>2018-10-17T08:34:49Z</time>
      </trkpt>
      <trkpt lat="45.84989" lon="6.44734">
        <ele>2479</ele>
        <time>2018-10-17T08:34:50Z</time>
      </trkpt>
      <trkpt lat="45.84989" lon="6.44734">
        <ele>2479</ele>
        <time>2018-10-17T08:34:51Z</time>
      </trkpt>
      <trkpt lat="45.84989" lon="6.44734">
        <ele>2479</ele>
        <time>2018-10-17T08:34:52Z</time>
      </trkpt>
      <trkpt lat="45.84989" lon="6.44734">
        <ele>2479</ele>
        <time>2018-10-17T08:34:53Z</time>
      </trkpt>
      <trkpt lat="45.84989" lon="6.44734">
        <ele>2479</ele>
        <time>2018-10-17T08:34:54Z</time>
      </trkpt>
      <trkpt lat="45.84989" lon="6.44734">
        <ele>2479</ele>
        <time>2018-10-17T08:34:55Z</time>
      </trkpt>
      <trkpt lat="45.84989" lon="6.44734">
        <ele>2479</ele>
        <time>2018-10-17T08:34:56Z</time>
      </trkpt>
      <trkpt lat="45.84989" lon="6.44734">
        <ele>2479</ele>
        <time>2018-10-17T08:34:57Z</time>
      </trkpt>
      <trkpt lat="45.84989" lon="6.44734">
        <ele>2479</ele>
        <time>2018-10-17T08:34:58Z</time>
      </trkpt>
      <trkpt lat="45.84988" lon="6.44731">
        <ele>2479</ele>
        <time>2018-10-17T08:34:59Z</time>
      </trkpt>
      <trkpt lat="45.84988" lon="6.44731">
        <ele>2479</ele>
        <time>2018-10-17T08:35:00Z</time>
      </trkpt>
      <trkpt lat="45.84988" lon="6.44731">
        <ele>2479</ele>
        <time>2018-10-17T08:35:01Z</time>
      </trkpt>
      <trkpt lat="45.84988" lon="6.44731">
        <ele>2479</ele>
        <time>2018-10-17T08:35:02Z</time>
      </trkpt>
      <trkpt lat="45.84986" lon="6.44731">
        <ele>2479</ele>
        <time>2018-10-17T08:35:03Z</time>
      </trkpt>
      <trkpt lat="45.84986" lon="6.44731">
        <ele>2479</ele>
        <time>2018-10-17T08:35:04Z</time>
      </trkpt>
      <trkpt lat="45.84986" lon="6.44731">
        <ele>2479</ele>
        <time>2018-10-17T08:35:05Z</time>
      </trkpt>
      <trkpt lat="45.84986" lon="6.44731">
        <ele>2479</ele>
        <time>2018-10-17T08:35:06Z</time>
      </trkpt>
      <trkpt lat="45.84986" lon="6.44731">
        <ele>2479</ele>
        <time>2018-10-17T08:35:07Z</time>
      </trkpt>
      <trkpt lat="45.84986" lon="6.44731">
        <ele>2479</ele>
        <time>2018-10-17T08:35:08Z</time>
      </trkpt>
      <trkpt lat="45.84986" lon="6.44731">
        <ele>2479</ele>
        <time>2018-10-17T08:35:09Z</time>
      </trkpt>
      <trkpt lat="45.84986" lon="6.44731">
        <ele>2479</ele>
        <time>2018-10-17T08:35:10Z</time>
      </trkpt>
      <trkpt lat="45.84986" lon="6.44731">
        <ele>2479</ele>
        <time>2018-10-17T08:35:11Z</time>
      </trkpt>
      <trkpt lat="45.84986" lon="6.44731">
        <ele>2479</ele>
        <time>2018-10-17T08:35:12Z</time>
      </trkpt>
      <trkpt lat="45.84986" lon="6.44731">
        <ele>2479</ele>
        <time>2018-10-17T08:35:13Z</time>
      </trkpt>
      <trkpt lat="45.84986" lon="6.44731">
        <ele>2479</ele>
        <time>2018-10-17T08:35:14Z</time>
      </trkpt>
      <trkpt lat="45.84986" lon="6.44731">
        <ele>2479</ele>
        <time>2018-10-17T08:35:15Z</time>
      </trkpt>
      <trkpt lat="45.84986" lon="6.44731">
        <ele>2479</ele>
        <time>2018-10-17T08:35:16Z</time>
      </trkpt>
      <trkpt lat="45.84986" lon="6.44731">
        <ele>2479</ele>
        <time>2018-10-17T08:35:17Z</time>
      </trkpt>
      <trkpt lat="45.84986" lon="6.44731">
        <ele>2479</ele>
        <time>2018-10-17T08:35:18Z</time>
      </trkpt>
      <trkpt lat="45.84984" lon="6.44732">
        <ele>2479</ele>
        <time>2018-10-17T08:35:19Z</time>
      </trkpt>
      <trkpt lat="45.84984" lon="6.44732">
        <ele>2479</ele>
        <time>2018-10-17T08:35:20Z</time>
      </trkpt>
      <trkpt lat="45.84984" lon="6.44732">
        <ele>2478</ele>
        <time>2018-10-17T08:35:21Z</time>
      </trkpt>
      <trkpt lat="45.84983" lon="6.44733">
        <ele>2478</ele>
        <time>2018-10-17T08:35:22Z</time>
      </trkpt>
      <trkpt lat="45.84983" lon="6.44733">
        <ele>2478</ele>
        <time>2018-10-17T08:35:23Z</time>
      </trkpt>
      <trkpt lat="45.84981" lon="6.44734">
        <ele>2478</ele>
        <time>2018-10-17T08:35:24Z</time>
      </trkpt>
      <trkpt lat="45.84981" lon="6.44734">
        <ele>2478</ele>
        <time>2018-10-17T08:35:25Z</time>
      </trkpt>
      <trkpt lat="45.84979" lon="6.44736">
        <ele>2479</ele>
        <time>2018-10-17T08:35:26Z</time>
      </trkpt>
      <trkpt lat="45.84979" lon="6.44736">
        <ele>2479</ele>
        <time>2018-10-17T08:35:27Z</time>
      </trkpt>
      <trkpt lat="45.84977" lon="6.44737">
        <ele>2479</ele>
        <time>2018-10-17T08:35:28Z</time>
      </trkpt>
      <trkpt lat="45.84977" lon="6.44737">
        <ele>2479</ele>
        <time>2018-10-17T08:35:29Z</time>
      </trkpt>
      <trkpt lat="45.84975" lon="6.44738">
        <ele>2479</ele>
        <time>2018-10-17T08:35:30Z</time>
      </trkpt>
      <trkpt lat="45.84975" lon="6.44738">
        <ele>2479</ele>
        <time>2018-10-17T08:35:31Z</time>
      </trkpt>
      <trkpt lat="45.84975" lon="6.44738">
        <ele>2479</ele>
        <time>2018-10-17T08:35:32Z</time>
      </trkpt>
      <trkpt lat="45.84975" lon="6.44738">
        <ele>2479</ele>
        <time>2018-10-17T08:35:33Z</time>
      </trkpt>
      <trkpt lat="45.84975" lon="6.44738">
        <ele>2479</ele>
        <time>2018-10-17T08:35:34Z</time>
      </trkpt>
      <trkpt lat="45.84975" lon="6.44738">
        <ele>2479</ele>
        <time>2018-10-17T08:35:35Z</time>
      </trkpt>
      <trkpt lat="45.84973" lon="6.44739">
        <ele>2479</ele>
        <time>2018-10-17T08:35:36Z</time>
      </trkpt>
      <trkpt lat="45.84973" lon="6.44739">
        <ele>2479</ele>
        <time>2018-10-17T08:35:37Z</time>
      </trkpt>
      <trkpt lat="45.84973" lon="6.44739">
        <ele>2479</ele>
        <time>2018-10-17T08:35:38Z</time>
      </trkpt>
      <trkpt lat="45.84973" lon="6.44739">
        <ele>2479</ele>
        <time>2018-10-17T08:35:39Z</time>
      </trkpt>
      <trkpt lat="45.84973" lon="6.44739">
        <ele>2479</ele>
        <time>2018-10-17T08:35:40Z</time>
      </trkpt>
      <trkpt lat="45.84973" lon="6.44739">
        <ele>2479</ele>
        <time>2018-10-17T08:35:41Z</time>
      </trkpt>
      <trkpt lat="45.84973" lon="6.44739">
        <ele>2479</ele>
        <time>2018-10-17T08:35:42Z</time>
      </trkpt>
      <trkpt lat="45.84973" lon="6.44739">
        <ele>2479</ele>
        <time>2018-10-17T08:35:43Z</time>
      </trkpt>
      <trkpt lat="45.84973" lon="6.44739">
        <ele>2479</ele>
        <time>2018-10-17T08:35:44Z</time>
      </trkpt>
      <trkpt lat="45.84973" lon="6.44739">
        <ele>2479</ele>
        <time>2018-10-17T08:35:45Z</time>
      </trkpt>
      <trkpt lat="45.84973" lon="6.44739">
        <ele>2479</ele>
        <time>2018-10-17T08:35:46Z</time>
      </trkpt>
      <trkpt lat="45.84973" lon="6.44739">
        <ele>2479</ele>
        <time>2018-10-17T08:35:47Z</time>
      </trkpt>
      <trkpt lat="45.84973" lon="6.44739">
        <ele>2479</ele>
        <time>2018-10-17T08:35:48Z</time>
      </trkpt>
      <trkpt lat="45.84973" lon="6.44739">
        <ele>2480</ele>
        <time>2018-10-17T08:35:49Z</time>
      </trkpt>
      <trkpt lat="45.84973" lon="6.44739">
        <ele>2480</ele>
        <time>2018-10-17T08:35:50Z</time>
      </trkpt>
      <trkpt lat="45.84973" lon="6.44739">
        <ele>2480</ele>
        <time>2018-10-17T08:35:51Z</time>
      </trkpt>
      <trkpt lat="45.84973" lon="6.44739">
        <ele>2480</ele>
        <time>2018-10-17T08:35:52Z</time>
      </trkpt>
      <trkpt lat="45.84973" lon="6.44739">
        <ele>2480</ele>
        <time>2018-10-17T08:35:53Z</time>
      </trkpt>
      <trkpt lat="45.84973" lon="6.44739">
        <ele>2480</ele>
        <time>2018-10-17T08:35:54Z</time>
      </trkpt>
      <trkpt lat="45.84973" lon="6.44739">
        <ele>2480</ele>
        <time>2018-10-17T08:35:55Z</time>
      </trkpt>
      <trkpt lat="45.84973" lon="6.44739">
        <ele>2479</ele>
        <time>2018-10-17T08:35:56Z</time>
      </trkpt>
      <trkpt lat="45.84973" lon="6.44739">
        <ele>2479</ele>
        <time>2018-10-17T08:35:57Z</time>
      </trkpt>
      <trkpt lat="45.84973" lon="6.44739">
        <ele>2479</ele>
        <time>2018-10-17T08:35:58Z</time>
      </trkpt>
      <trkpt lat="45.84973" lon="6.44739">
        <ele>2479</ele>
        <time>2018-10-17T08:35:59Z</time>
      </trkpt>
      <trkpt lat="45.84973" lon="6.44739">
        <ele>2479</ele>
        <time>2018-10-17T08:36:00Z</time>
      </trkpt>
      <trkpt lat="45.84973" lon="6.44739">
        <ele>2479</ele>
        <time>2018-10-17T08:36:01Z</time>
      </trkpt>
      <trkpt lat="45.84973" lon="6.44739">
        <ele>2479</ele>
        <time>2018-10-17T08:36:02Z</time>
      </trkpt>
      <trkpt lat="45.84973" lon="6.44739">
        <ele>2480</ele>
        <time>2018-10-17T08:36:03Z</time>
      </trkpt>
      <trkpt lat="45.84973" lon="6.44739">
        <ele>2480</ele>
        <time>2018-10-17T08:36:04Z</time>
      </trkpt>
      <trkpt lat="45.84973" lon="6.44739">
        <ele>2480</ele>
        <time>2018-10-17T08:36:05Z</time>
      </trkpt>
      <trkpt lat="45.84973" lon="6.44739">
        <ele>2480</ele>
        <time>2018-10-17T08:36:06Z</time>
      </trkpt>
      <trkpt lat="45.84973" lon="6.44739">
        <ele>2480</ele>
        <time>2018-10-17T08:36:07Z</time>
      </trkpt>
      <trkpt lat="45.84971" lon="6.4474">
        <ele>2480</ele>
        <time>2018-10-17T08:36:08Z</time>
      </trkpt>
      <trkpt lat="45.84971" lon="6.4474">
        <ele>2480</ele>
        <time>2018-10-17T08:36:09Z</time>
      </trkpt>
      <trkpt lat="45.84971" lon="6.4474">
        <ele>2480</ele>
        <time>2018-10-17T08:36:10Z</time>
      </trkpt>
      <trkpt lat="45.84971" lon="6.4474">
        <ele>2480</ele>
        <time>2018-10-17T08:36:11Z</time>
      </trkpt>
      <trkpt lat="45.84971" lon="6.4474">
        <ele>2480</ele>
        <time>2018-10-17T08:36:12Z</time>
      </trkpt>
      <trkpt lat="45.84971" lon="6.4474">
        <ele>2480</ele>
        <time>2018-10-17T08:36:13Z</time>
      </trkpt>
      <trkpt lat="45.84971" lon="6.4474">
        <ele>2480</ele>
        <time>2018-10-17T08:36:14Z</time>
      </trkpt>
      <trkpt lat="45.84971" lon="6.4474">
        <ele>2480</ele>
        <time>2018-10-17T08:36:15Z</time>
      </trkpt>
      <trkpt lat="45.84971" lon="6.4474">
        <ele>2480</ele>
        <time>2018-10-17T08:36:16Z</time>
      </trkpt>
      <trkpt lat="45.84971" lon="6.4474">
        <ele>2480</ele>
        <time>2018-10-17T08:36:17Z</time>
      </trkpt>
      <trkpt lat="45.84971" lon="6.4474">
        <ele>2480</ele>
        <time>2018-10-17T08:36:18Z</time>
      </trkpt>
      <trkpt lat="45.84971" lon="6.4474">
        <ele>2480</ele>
        <time>2018-10-17T08:36:19Z</time>
      </trkpt>
      <trkpt lat="45.84971" lon="6.4474">
        <ele>2480</ele>
        <time>2018-10-17T08:36:20Z</time>
      </trkpt>
      <trkpt lat="45.84971" lon="6.4474">
        <ele>2480</ele>
        <time>2018-10-17T08:36:21Z</time>
      </trkpt>
      <trkpt lat="45.84971" lon="6.4474">
        <ele>2480</ele>
        <time>2018-10-17T08:36:22Z</time>
      </trkpt>
      <trkpt lat="45.84971" lon="6.4474">
        <ele>2480</ele>
        <time>2018-10-17T08:36:23Z</time>
      </trkpt>
      <trkpt lat="45.84971" lon="6.4474">
        <ele>2480</ele>
        <time>2018-10-17T08:36:24Z</time>
      </trkpt>
      <trkpt lat="45.84971" lon="6.4474">
        <ele>2480</ele>
        <time>2018-10-17T08:36:25Z</time>
      </trkpt>
      <trkpt lat="45.84971" lon="6.4474">
        <ele>2480</ele>
        <time>2018-10-17T08:36:26Z</time>
      </trkpt>
      <trkpt lat="45.84971" lon="6.4474">
        <ele>2480</ele>
        <time>2018-10-17T08:36:27Z</time>
      </trkpt>
      <trkpt lat="45.84971" lon="6.4474">
        <ele>2480</ele>
        <time>2018-10-17T08:36:28Z</time>
      </trkpt>
      <trkpt lat="45.84971" lon="6.4474">
        <ele>2480</ele>
        <time>2018-10-17T08:36:29Z</time>
      </trkpt>
      <trkpt lat="45.84971" lon="6.4474">
        <ele>2480</ele>
        <time>2018-10-17T08:36:30Z</time>
      </trkpt>
      <trkpt lat="45.84971" lon="6.4474">
        <ele>2480</ele>
        <time>2018-10-17T08:36:31Z</time>
      </trkpt>
      <trkpt lat="45.84971" lon="6.4474">
        <ele>2479</ele>
        <time>2018-10-17T08:36:32Z</time>
      </trkpt>
      <trkpt lat="45.84971" lon="6.4474">
        <ele>2479</ele>
        <time>2018-10-17T08:36:33Z</time>
      </trkpt>
      <trkpt lat="45.84971" lon="6.4474">
        <ele>2479</ele>
        <time>2018-10-17T08:36:34Z</time>
      </trkpt>
      <trkpt lat="45.84971" lon="6.4474">
        <ele>2479</ele>
        <time>2018-10-17T08:36:35Z</time>
      </trkpt>
      <trkpt lat="45.84971" lon="6.4474">
        <ele>2479</ele>
        <time>2018-10-17T08:36:36Z</time>
      </trkpt>
      <trkpt lat="45.84971" lon="6.4474">
        <ele>2480</ele>
        <time>2018-10-17T08:36:37Z</time>
      </trkpt>
      <trkpt lat="45.84971" lon="6.4474">
        <ele>2481</ele>
        <time>2018-10-17T08:36:38Z</time>
      </trkpt>
      <trkpt lat="45.84971" lon="6.4474">
        <ele>2481</ele>
        <time>2018-10-17T08:36:39Z</time>
      </trkpt>
      <trkpt lat="45.84971" lon="6.4474">
        <ele>2481</ele>
        <time>2018-10-17T08:36:40Z</time>
      </trkpt>
      <trkpt lat="45.84971" lon="6.4474">
        <ele>2481</ele>
        <time>2018-10-17T08:36:41Z</time>
      </trkpt>
      <trkpt lat="45.84971" lon="6.4474">
        <ele>2481</ele>
        <time>2018-10-17T08:36:42Z</time>
      </trkpt>
      <trkpt lat="45.84971" lon="6.4474">
        <ele>2481</ele>
        <time>2018-10-17T08:36:43Z</time>
      </trkpt>
      <trkpt lat="45.84971" lon="6.4474">
        <ele>2481</ele>
        <time>2018-10-17T08:36:44Z</time>
      </trkpt>
      <trkpt lat="45.84971" lon="6.4474">
        <ele>2481</ele>
        <time>2018-10-17T08:36:45Z</time>
      </trkpt>
      <trkpt lat="45.84971" lon="6.4474">
        <ele>2481</ele>
        <time>2018-10-17T08:36:46Z</time>
      </trkpt>
      <trkpt lat="45.84971" lon="6.4474">
        <ele>2481</ele>
        <time>2018-10-17T08:36:47Z</time>
      </trkpt>
      <trkpt lat="45.84971" lon="6.4474">
        <ele>2481</ele>
        <time>2018-10-17T08:36:48Z</time>
      </trkpt>
      <trkpt lat="45.84971" lon="6.4474">
        <ele>2481</ele>
        <time>2018-10-17T08:36:49Z</time>
      </trkpt>
      <trkpt lat="45.84971" lon="6.4474">
        <ele>2481</ele>
        <time>2018-10-17T08:36:50Z</time>
      </trkpt>
      <trkpt lat="45.84971" lon="6.4474">
        <ele>2481</ele>
        <time>2018-10-17T08:36:51Z</time>
      </trkpt>
      <trkpt lat="45.84971" lon="6.4474">
        <ele>2481</ele>
        <time>2018-10-17T08:36:52Z</time>
      </trkpt>
      <trkpt lat="45.84971" lon="6.4474">
        <ele>2480</ele>
        <time>2018-10-17T08:36:53Z</time>
      </trkpt>
      <trkpt lat="45.84971" lon="6.4474">
        <ele>2480</ele>
        <time>2018-10-17T08:36:54Z</time>
      </trkpt>
      <trkpt lat="45.84971" lon="6.4474">
        <ele>2480</ele>
        <time>2018-10-17T08:36:55Z</time>
      </trkpt>
      <trkpt lat="45.84971" lon="6.4474">
        <ele>2480</ele>
        <time>2018-10-17T08:36:56Z</time>
      </trkpt>
      <trkpt lat="45.84971" lon="6.4474">
        <ele>2480</ele>
        <time>2018-10-17T08:36:57Z</time>
      </trkpt>
      <trkpt lat="45.84971" lon="6.4474">
        <ele>2480</ele>
        <time>2018-10-17T08:36:58Z</time>
      </trkpt>
      <trkpt lat="45.84971" lon="6.4474">
        <ele>2480</ele>
        <time>2018-10-17T08:36:59Z</time>
      </trkpt>
      <trkpt lat="45.84971" lon="6.4474">
        <ele>2480</ele>
        <time>2018-10-17T08:37:00Z</time>
      </trkpt>
      <trkpt lat="45.84971" lon="6.4474">
        <ele>2480</ele>
        <time>2018-10-17T08:37:01Z</time>
      </trkpt>
      <trkpt lat="45.84971" lon="6.4474">
        <ele>2480</ele>
        <time>2018-10-17T08:37:02Z</time>
      </trkpt>
      <trkpt lat="45.84971" lon="6.4474">
        <ele>2480</ele>
        <time>2018-10-17T08:37:03Z</time>
      </trkpt>
      <trkpt lat="45.84971" lon="6.4474">
        <ele>2480</ele>
        <time>2018-10-17T08:37:04Z</time>
      </trkpt>
      <trkpt lat="45.84971" lon="6.4474">
        <ele>2480</ele>
        <time>2018-10-17T08:37:05Z</time>
      </trkpt>
      <trkpt lat="45.84971" lon="6.4474">
        <ele>2480</ele>
        <time>2018-10-17T08:37:06Z</time>
      </trkpt>
      <trkpt lat="45.84971" lon="6.4474">
        <ele>2480</ele>
        <time>2018-10-17T08:37:07Z</time>
      </trkpt>
      <trkpt lat="45.84971" lon="6.4474">
        <ele>2480</ele>
        <time>2018-10-17T08:37:08Z</time>
      </trkpt>
      <trkpt lat="45.84971" lon="6.4474">
        <ele>2480</ele>
        <time>2018-10-17T08:37:09Z</time>
      </trkpt>
      <trkpt lat="45.84971" lon="6.4474">
        <ele>2480</ele>
        <time>2018-10-17T08:37:10Z</time>
      </trkpt>
      <trkpt lat="45.84971" lon="6.4474">
        <ele>2480</ele>
        <time>2018-10-17T08:37:11Z</time>
      </trkpt>
      <trkpt lat="45.84971" lon="6.4474">
        <ele>2480</ele>
        <time>2018-10-17T08:37:12Z</time>
      </trkpt>
      <trkpt lat="45.84971" lon="6.4474">
        <ele>2480</ele>
        <time>2018-10-17T08:37:13Z</time>
      </trkpt>
      <trkpt lat="45.84971" lon="6.4474">
        <ele>2480</ele>
        <time>2018-10-17T08:37:14Z</time>
      </trkpt>
      <trkpt lat="45.84971" lon="6.4474">
        <ele>2480</ele>
        <time>2018-10-17T08:37:15Z</time>
      </trkpt>
      <trkpt lat="45.84971" lon="6.4474">
        <ele>2480</ele>
        <time>2018-10-17T08:37:16Z</time>
      </trkpt>
      <trkpt lat="45.84971" lon="6.4474">
        <ele>2480</ele>
        <time>2018-10-17T08:37:17Z</time>
      </trkpt>
      <trkpt lat="45.84971" lon="6.4474">
        <ele>2480</ele>
        <time>2018-10-17T08:37:18Z</time>
      </trkpt>
      <trkpt lat="45.84971" lon="6.4474">
        <ele>2480</ele>
        <time>2018-10-17T08:37:19Z</time>
      </trkpt>
      <trkpt lat="45.84971" lon="6.4474">
        <ele>2480</ele>
        <time>2018-10-17T08:37:20Z</time>
      </trkpt>
      <trkpt lat="45.84971" lon="6.4474">
        <ele>2480</ele>
        <time>2018-10-17T08:37:21Z</time>
      </trkpt>
      <trkpt lat="45.84971" lon="6.4474">
        <ele>2480</ele>
        <time>2018-10-17T08:37:22Z</time>
      </trkpt>
      <trkpt lat="45.84971" lon="6.4474">
        <ele>2481</ele>
        <time>2018-10-17T08:37:23Z</time>
      </trkpt>
      <trkpt lat="45.84971" lon="6.4474">
        <ele>2481</ele>
        <time>2018-10-17T08:37:24Z</time>
      </trkpt>
      <trkpt lat="45.84971" lon="6.4474">
        <ele>2481</ele>
        <time>2018-10-17T08:37:25Z</time>
      </trkpt>
      <trkpt lat="45.84971" lon="6.4474">
        <ele>2481</ele>
        <time>2018-10-17T08:37:26Z</time>
      </trkpt>
      <trkpt lat="45.84971" lon="6.4474">
        <ele>2481</ele>
        <time>2018-10-17T08:37:27Z</time>
      </trkpt>
      <trkpt lat="45.84971" lon="6.4474">
        <ele>2481</ele>
        <time>2018-10-17T08:37:28Z</time>
      </trkpt>
      <trkpt lat="45.84971" lon="6.4474">
        <ele>2481</ele>
        <time>2018-10-17T08:37:29Z</time>
      </trkpt>
      <trkpt lat="45.84971" lon="6.4474">
        <ele>2481</ele>
        <time>2018-10-17T08:37:30Z</time>
      </trkpt>
      <trkpt lat="45.84971" lon="6.4474">
        <ele>2481</ele>
        <time>2018-10-17T08:37:31Z</time>
      </trkpt>
      <trkpt lat="45.84971" lon="6.4474">
        <ele>2481</ele>
        <time>2018-10-17T08:37:32Z</time>
      </trkpt>
      <trkpt lat="45.84971" lon="6.4474">
        <ele>2481</ele>
        <time>2018-10-17T08:37:33Z</time>
      </trkpt>
      <trkpt lat="45.84971" lon="6.4474">
        <ele>2481</ele>
        <time>2018-10-17T08:37:34Z</time>
      </trkpt>
      <trkpt lat="45.84971" lon="6.4474">
        <ele>2481</ele>
        <time>2018-10-17T08:37:35Z</time>
      </trkpt>
      <trkpt lat="45.84971" lon="6.4474">
        <ele>2481</ele>
        <time>2018-10-17T08:37:36Z</time>
      </trkpt>
      <trkpt lat="45.84971" lon="6.4474">
        <ele>2481</ele>
        <time>2018-10-17T08:37:37Z</time>
      </trkpt>
      <trkpt lat="45.84971" lon="6.4474">
        <ele>2481</ele>
        <time>2018-10-17T08:37:38Z</time>
      </trkpt>
      <trkpt lat="45.84971" lon="6.4474">
        <ele>2481</ele>
        <time>2018-10-17T08:37:39Z</time>
      </trkpt>
      <trkpt lat="45.84971" lon="6.4474">
        <ele>2481</ele>
        <time>2018-10-17T08:37:40Z</time>
      </trkpt>
      <trkpt lat="45.84971" lon="6.4474">
        <ele>2481</ele>
        <time>2018-10-17T08:37:41Z</time>
      </trkpt>
      <trkpt lat="45.84971" lon="6.4474">
        <ele>2481</ele>
        <time>2018-10-17T08:37:42Z</time>
      </trkpt>
      <trkpt lat="45.84971" lon="6.4474">
        <ele>2481</ele>
        <time>2018-10-17T08:37:43Z</time>
      </trkpt>
      <trkpt lat="45.84971" lon="6.4474">
        <ele>2481</ele>
        <time>2018-10-17T08:37:44Z</time>
      </trkpt>
      <trkpt lat="45.84971" lon="6.4474">
        <ele>2481</ele>
        <time>2018-10-17T08:37:45Z</time>
      </trkpt>
      <trkpt lat="45.84971" lon="6.4474">
        <ele>2480</ele>
        <time>2018-10-17T08:37:46Z</time>
      </trkpt>
      <trkpt lat="45.84971" lon="6.4474">
        <ele>2481</ele>
        <time>2018-10-17T08:37:47Z</time>
      </trkpt>
      <trkpt lat="45.84971" lon="6.4474">
        <ele>2481</ele>
        <time>2018-10-17T08:37:48Z</time>
      </trkpt>
      <trkpt lat="45.84971" lon="6.4474">
        <ele>2481</ele>
        <time>2018-10-17T08:37:49Z</time>
      </trkpt>
      <trkpt lat="45.84971" lon="6.4474">
        <ele>2481</ele>
        <time>2018-10-17T08:37:50Z</time>
      </trkpt>
      <trkpt lat="45.84971" lon="6.4474">
        <ele>2481</ele>
        <time>2018-10-17T08:37:51Z</time>
      </trkpt>
      <trkpt lat="45.84971" lon="6.4474">
        <ele>2481</ele>
        <time>2018-10-17T08:37:52Z</time>
      </trkpt>
      <trkpt lat="45.84971" lon="6.4474">
        <ele>2481</ele>
        <time>2018-10-17T08:37:53Z</time>
      </trkpt>
      <trkpt lat="45.84971" lon="6.4474">
        <ele>2481</ele>
        <time>2018-10-17T08:37:54Z</time>
      </trkpt>
      <trkpt lat="45.84971" lon="6.4474">
        <ele>2481</ele>
        <time>2018-10-17T08:37:55Z</time>
      </trkpt>
      <trkpt lat="45.84971" lon="6.4474">
        <ele>2481</ele>
        <time>2018-10-17T08:37:56Z</time>
      </trkpt>
      <trkpt lat="45.84971" lon="6.4474">
        <ele>2481</ele>
        <time>2018-10-17T08:37:57Z</time>
      </trkpt>
      <trkpt lat="45.84971" lon="6.4474">
        <ele>2481</ele>
        <time>2018-10-17T08:37:58Z</time>
      </trkpt>
      <trkpt lat="45.84971" lon="6.4474">
        <ele>2481</ele>
        <time>2018-10-17T08:37:59Z</time>
      </trkpt>
      <trkpt lat="45.84971" lon="6.4474">
        <ele>2481</ele>
        <time>2018-10-17T08:38:00Z</time>
      </trkpt>
      <trkpt lat="45.84971" lon="6.4474">
        <ele>2481</ele>
        <time>2018-10-17T08:38:01Z</time>
      </trkpt>
      <trkpt lat="45.84971" lon="6.4474">
        <ele>2481</ele>
        <time>2018-10-17T08:38:02Z</time>
      </trkpt>
      <trkpt lat="45.84971" lon="6.4474">
        <ele>2481</ele>
        <time>2018-10-17T08:38:03Z</time>
      </trkpt>
      <trkpt lat="45.84971" lon="6.4474">
        <ele>2481</ele>
        <time>2018-10-17T08:38:04Z</time>
      </trkpt>
      <trkpt lat="45.84971" lon="6.4474">
        <ele>2481</ele>
        <time>2018-10-17T08:38:05Z</time>
      </trkpt>
      <trkpt lat="45.84971" lon="6.4474">
        <ele>2481</ele>
        <time>2018-10-17T08:38:06Z</time>
      </trkpt>
      <trkpt lat="45.84971" lon="6.4474">
        <ele>2481</ele>
        <time>2018-10-17T08:38:07Z</time>
      </trkpt>
      <trkpt lat="45.84971" lon="6.4474">
        <ele>2481</ele>
        <time>2018-10-17T08:38:08Z</time>
      </trkpt>
      <trkpt lat="45.84971" lon="6.4474">
        <ele>2481</ele>
        <time>2018-10-17T08:38:09Z</time>
      </trkpt>
      <trkpt lat="45.84971" lon="6.4474">
        <ele>2481</ele>
        <time>2018-10-17T08:38:10Z</time>
      </trkpt>
      <trkpt lat="45.84971" lon="6.4474">
        <ele>2481</ele>
        <time>2018-10-17T08:38:11Z</time>
      </trkpt>
      <trkpt lat="45.84971" lon="6.4474">
        <ele>2481</ele>
        <time>2018-10-17T08:38:12Z</time>
      </trkpt>
      <trkpt lat="45.84971" lon="6.4474">
        <ele>2481</ele>
        <time>2018-10-17T08:38:13Z</time>
      </trkpt>
      <trkpt lat="45.84971" lon="6.4474">
        <ele>2481</ele>
        <time>2018-10-17T08:38:14Z</time>
      </trkpt>
      <trkpt lat="45.84971" lon="6.4474">
        <ele>2481</ele>
        <time>2018-10-17T08:38:15Z</time>
      </trkpt>
      <trkpt lat="45.84971" lon="6.4474">
        <ele>2481</ele>
        <time>2018-10-17T08:38:16Z</time>
      </trkpt>
      <trkpt lat="45.84971" lon="6.4474">
        <ele>2481</ele>
        <time>2018-10-17T08:38:17Z</time>
      </trkpt>
      <trkpt lat="45.84971" lon="6.4474">
        <ele>2481</ele>
        <time>2018-10-17T08:38:18Z</time>
      </trkpt>
      <trkpt lat="45.84971" lon="6.4474">
        <ele>2481</ele>
        <time>2018-10-17T08:38:19Z</time>
      </trkpt>
      <trkpt lat="45.84971" lon="6.4474">
        <ele>2481</ele>
        <time>2018-10-17T08:38:20Z</time>
      </trkpt>
      <trkpt lat="45.84971" lon="6.4474">
        <ele>2481</ele>
        <time>2018-10-17T08:38:21Z</time>
      </trkpt>
      <trkpt lat="45.84971" lon="6.4474">
        <ele>2481</ele>
        <time>2018-10-17T08:38:22Z</time>
      </trkpt>
      <trkpt lat="45.84971" lon="6.4474">
        <ele>2481</ele>
        <time>2018-10-17T08:38:23Z</time>
      </trkpt>
      <trkpt lat="45.84971" lon="6.4474">
        <ele>2481</ele>
        <time>2018-10-17T08:38:24Z</time>
      </trkpt>
      <trkpt lat="45.84971" lon="6.4474">
        <ele>2481</ele>
        <time>2018-10-17T08:38:25Z</time>
      </trkpt>
      <trkpt lat="45.84971" lon="6.4474">
        <ele>2481</ele>
        <time>2018-10-17T08:38:26Z</time>
      </trkpt>
      <trkpt lat="45.84971" lon="6.4474">
        <ele>2481</ele>
        <time>2018-10-17T08:38:27Z</time>
      </trkpt>
      <trkpt lat="45.84971" lon="6.4474">
        <ele>2481</ele>
        <time>2018-10-17T08:38:28Z</time>
      </trkpt>
      <trkpt lat="45.84971" lon="6.4474">
        <ele>2481</ele>
        <time>2018-10-17T08:38:29Z</time>
      </trkpt>
      <trkpt lat="45.84971" lon="6.4474">
        <ele>2481</ele>
        <time>2018-10-17T08:38:30Z</time>
      </trkpt>
      <trkpt lat="45.84971" lon="6.4474">
        <ele>2481</ele>
        <time>2018-10-17T08:38:31Z</time>
      </trkpt>
      <trkpt lat="45.84971" lon="6.4474">
        <ele>2481</ele>
        <time>2018-10-17T08:38:32Z</time>
      </trkpt>
      <trkpt lat="45.84971" lon="6.4474">
        <ele>2481</ele>
        <time>2018-10-17T08:38:33Z</time>
      </trkpt>
      <trkpt lat="45.84971" lon="6.4474">
        <ele>2481</ele>
        <time>2018-10-17T08:38:34Z</time>
      </trkpt>
      <trkpt lat="45.84971" lon="6.4474">
        <ele>2481</ele>
        <time>2018-10-17T08:38:35Z</time>
      </trkpt>
      <trkpt lat="45.84971" lon="6.4474">
        <ele>2481</ele>
        <time>2018-10-17T08:38:36Z</time>
      </trkpt>
      <trkpt lat="45.84971" lon="6.4474">
        <ele>2481</ele>
        <time>2018-10-17T08:38:37Z</time>
      </trkpt>
      <trkpt lat="45.84971" lon="6.4474">
        <ele>2481</ele>
        <time>2018-10-17T08:38:38Z</time>
      </trkpt>
      <trkpt lat="45.84971" lon="6.4474">
        <ele>2481</ele>
        <time>2018-10-17T08:38:39Z</time>
      </trkpt>
      <trkpt lat="45.84971" lon="6.4474">
        <ele>2481</ele>
        <time>2018-10-17T08:38:40Z</time>
      </trkpt>
      <trkpt lat="45.84971" lon="6.4474">
        <ele>2481</ele>
        <time>2018-10-17T08:38:41Z</time>
      </trkpt>
      <trkpt lat="45.84971" lon="6.4474">
        <ele>2481</ele>
        <time>2018-10-17T08:38:42Z</time>
      </trkpt>
      <trkpt lat="45.84971" lon="6.4474">
        <ele>2481</ele>
        <time>2018-10-17T08:38:43Z</time>
      </trkpt>
      <trkpt lat="45.84971" lon="6.4474">
        <ele>2481</ele>
        <time>2018-10-17T08:38:44Z</time>
      </trkpt>
      <trkpt lat="45.84971" lon="6.4474">
        <ele>2481</ele>
        <time>2018-10-17T08:38:45Z</time>
      </trkpt>
      <trkpt lat="45.84971" lon="6.4474">
        <ele>2480</ele>
        <time>2018-10-17T08:38:46Z</time>
      </trkpt>
      <trkpt lat="45.84971" lon="6.4474">
        <ele>2480</ele>
        <time>2018-10-17T08:38:47Z</time>
      </trkpt>
      <trkpt lat="45.84971" lon="6.4474">
        <ele>2480</ele>
        <time>2018-10-17T08:38:48Z</time>
      </trkpt>
      <trkpt lat="45.84971" lon="6.4474">
        <ele>2480</ele>
        <time>2018-10-17T08:38:49Z</time>
      </trkpt>
      <trkpt lat="45.84971" lon="6.4474">
        <ele>2480</ele>
        <time>2018-10-17T08:38:50Z</time>
      </trkpt>
      <trkpt lat="45.84971" lon="6.4474">
        <ele>2480</ele>
        <time>2018-10-17T08:38:51Z</time>
      </trkpt>
      <trkpt lat="45.84971" lon="6.4474">
        <ele>2480</ele>
        <time>2018-10-17T08:38:52Z</time>
      </trkpt>
      <trkpt lat="45.84971" lon="6.4474">
        <ele>2480</ele>
        <time>2018-10-17T08:38:53Z</time>
      </trkpt>
      <trkpt lat="45.84971" lon="6.4474">
        <ele>2480</ele>
        <time>2018-10-17T08:38:54Z</time>
      </trkpt>
      <trkpt lat="45.84971" lon="6.4474">
        <ele>2480</ele>
        <time>2018-10-17T08:38:55Z</time>
      </trkpt>
      <trkpt lat="45.84971" lon="6.4474">
        <ele>2480</ele>
        <time>2018-10-17T08:38:56Z</time>
      </trkpt>
      <trkpt lat="45.84971" lon="6.4474">
        <ele>2480</ele>
        <time>2018-10-17T08:38:57Z</time>
      </trkpt>
      <trkpt lat="45.84971" lon="6.4474">
        <ele>2481</ele>
        <time>2018-10-17T08:38:58Z</time>
      </trkpt>
      <trkpt lat="45.84971" lon="6.4474">
        <ele>2481</ele>
        <time>2018-10-17T08:38:59Z</time>
      </trkpt>
      <trkpt lat="45.84971" lon="6.4474">
        <ele>2481</ele>
        <time>2018-10-17T08:39:00Z</time>
      </trkpt>
      <trkpt lat="45.84971" lon="6.4474">
        <ele>2481</ele>
        <time>2018-10-17T08:39:01Z</time>
      </trkpt>
      <trkpt lat="45.84971" lon="6.4474">
        <ele>2482</ele>
        <time>2018-10-17T08:39:02Z</time>
      </trkpt>
      <trkpt lat="45.84971" lon="6.4474">
        <ele>2482</ele>
        <time>2018-10-17T08:39:03Z</time>
      </trkpt>
      <trkpt lat="45.84971" lon="6.4474">
        <ele>2482</ele>
        <time>2018-10-17T08:39:04Z</time>
      </trkpt>
      <trkpt lat="45.84971" lon="6.4474">
        <ele>2482</ele>
        <time>2018-10-17T08:39:05Z</time>
      </trkpt>
      <trkpt lat="45.84971" lon="6.4474">
        <ele>2482</ele>
        <time>2018-10-17T08:39:06Z</time>
      </trkpt>
      <trkpt lat="45.84971" lon="6.4474">
        <ele>2482</ele>
        <time>2018-10-17T08:39:07Z</time>
      </trkpt>
      <trkpt lat="45.84971" lon="6.4474">
        <ele>2480</ele>
        <time>2018-10-17T08:39:08Z</time>
      </trkpt>
      <trkpt lat="45.84971" lon="6.4474">
        <ele>2480</ele>
        <time>2018-10-17T08:39:09Z</time>
      </trkpt>
      <trkpt lat="45.84971" lon="6.4474">
        <ele>2482</ele>
        <time>2018-10-17T08:39:10Z</time>
      </trkpt>
      <trkpt lat="45.84971" lon="6.4474">
        <ele>2482</ele>
        <time>2018-10-17T08:39:11Z</time>
      </trkpt>
      <trkpt lat="45.84971" lon="6.4474">
        <ele>2482</ele>
        <time>2018-10-17T08:39:12Z</time>
      </trkpt>
      <trkpt lat="45.84971" lon="6.4474">
        <ele>2482</ele>
        <time>2018-10-17T08:39:13Z</time>
      </trkpt>
      <trkpt lat="45.84971" lon="6.4474">
        <ele>2482</ele>
        <time>2018-10-17T08:39:14Z</time>
      </trkpt>
      <trkpt lat="45.84971" lon="6.4474">
        <ele>2482</ele>
        <time>2018-10-17T08:39:15Z</time>
      </trkpt>
      <trkpt lat="45.84971" lon="6.4474">
        <ele>2482</ele>
        <time>2018-10-17T08:39:16Z</time>
      </trkpt>
      <trkpt lat="45.84971" lon="6.4474">
        <ele>2482</ele>
        <time>2018-10-17T08:39:17Z</time>
      </trkpt>
      <trkpt lat="45.84971" lon="6.4474">
        <ele>2482</ele>
        <time>2018-10-17T08:39:18Z</time>
      </trkpt>
      <trkpt lat="45.84971" lon="6.4474">
        <ele>2482</ele>
        <time>2018-10-17T08:39:19Z</time>
      </trkpt>
      <trkpt lat="45.84971" lon="6.4474">
        <ele>2482</ele>
        <time>2018-10-17T08:39:20Z</time>
      </trkpt>
      <trkpt lat="45.84971" lon="6.4474">
        <ele>2482</ele>
        <time>2018-10-17T08:39:21Z</time>
      </trkpt>
      <trkpt lat="45.84971" lon="6.4474">
        <ele>2482</ele>
        <time>2018-10-17T08:39:22Z</time>
      </trkpt>
      <trkpt lat="45.84971" lon="6.4474">
        <ele>2482</ele>
        <time>2018-10-17T08:39:23Z</time>
      </trkpt>
      <trkpt lat="45.84971" lon="6.4474">
        <ele>2482</ele>
        <time>2018-10-17T08:39:24Z</time>
      </trkpt>
      <trkpt lat="45.84971" lon="6.4474">
        <ele>2482</ele>
        <time>2018-10-17T08:39:25Z</time>
      </trkpt>
      <trkpt lat="45.84971" lon="6.4474">
        <ele>2482</ele>
        <time>2018-10-17T08:39:26Z</time>
      </trkpt>
      <trkpt lat="45.84971" lon="6.4474">
        <ele>2482</ele>
        <time>2018-10-17T08:39:27Z</time>
      </trkpt>
      <trkpt lat="45.84971" lon="6.4474">
        <ele>2482</ele>
        <time>2018-10-17T08:39:28Z</time>
      </trkpt>
      <trkpt lat="45.84971" lon="6.4474">
        <ele>2482</ele>
        <time>2018-10-17T08:39:29Z</time>
      </trkpt>
      <trkpt lat="45.84971" lon="6.4474">
        <ele>2482</ele>
        <time>2018-10-17T08:39:30Z</time>
      </trkpt>
      <trkpt lat="45.84971" lon="6.4474">
        <ele>2482</ele>
        <time>2018-10-17T08:39:31Z</time>
      </trkpt>
      <trkpt lat="45.84971" lon="6.4474">
        <ele>2482</ele>
        <time>2018-10-17T08:39:32Z</time>
      </trkpt>
      <trkpt lat="45.84971" lon="6.4474">
        <ele>2482</ele>
        <time>2018-10-17T08:39:33Z</time>
      </trkpt>
      <trkpt lat="45.84971" lon="6.4474">
        <ele>2481</ele>
        <time>2018-10-17T08:39:34Z</time>
      </trkpt>
      <trkpt lat="45.84971" lon="6.4474">
        <ele>2481</ele>
        <time>2018-10-17T08:39:35Z</time>
      </trkpt>
      <trkpt lat="45.84971" lon="6.4474">
        <ele>2481</ele>
        <time>2018-10-17T08:39:36Z</time>
      </trkpt>
      <trkpt lat="45.84971" lon="6.4474">
        <ele>2481</ele>
        <time>2018-10-17T08:39:37Z</time>
      </trkpt>
      <trkpt lat="45.84971" lon="6.4474">
        <ele>2481</ele>
        <time>2018-10-17T08:39:38Z</time>
      </trkpt>
      <trkpt lat="45.84971" lon="6.4474">
        <ele>2481</ele>
        <time>2018-10-17T08:39:39Z</time>
      </trkpt>
      <trkpt lat="45.84971" lon="6.4474">
        <ele>2481</ele>
        <time>2018-10-17T08:39:40Z</time>
      </trkpt>
      <trkpt lat="45.84971" lon="6.4474">
        <ele>2481</ele>
        <time>2018-10-17T08:39:41Z</time>
      </trkpt>
      <trkpt lat="45.84971" lon="6.4474">
        <ele>2482</ele>
        <time>2018-10-17T08:39:42Z</time>
      </trkpt>
      <trkpt lat="45.84971" lon="6.4474">
        <ele>2482</ele>
        <time>2018-10-17T08:39:43Z</time>
      </trkpt>
      <trkpt lat="45.84971" lon="6.4474">
        <ele>2482</ele>
        <time>2018-10-17T08:39:44Z</time>
      </trkpt>
      <trkpt lat="45.84971" lon="6.4474">
        <ele>2482</ele>
        <time>2018-10-17T08:39:45Z</time>
      </trkpt>
      <trkpt lat="45.84971" lon="6.4474">
        <ele>2481</ele>
        <time>2018-10-17T08:39:46Z</time>
      </trkpt>
      <trkpt lat="45.84971" lon="6.4474">
        <ele>2481</ele>
        <time>2018-10-17T08:39:47Z</time>
      </trkpt>
      <trkpt lat="45.84971" lon="6.4474">
        <ele>2481</ele>
        <time>2018-10-17T08:39:48Z</time>
      </trkpt>
      <trkpt lat="45.84971" lon="6.4474">
        <ele>2482</ele>
        <time>2018-10-17T08:39:49Z</time>
      </trkpt>
      <trkpt lat="45.84971" lon="6.4474">
        <ele>2482</ele>
        <time>2018-10-17T08:39:50Z</time>
      </trkpt>
      <trkpt lat="45.84971" lon="6.4474">
        <ele>2482</ele>
        <time>2018-10-17T08:39:51Z</time>
      </trkpt>
      <trkpt lat="45.84971" lon="6.4474">
        <ele>2482</ele>
        <time>2018-10-17T08:39:52Z</time>
      </trkpt>
      <trkpt lat="45.84971" lon="6.4474">
        <ele>2482</ele>
        <time>2018-10-17T08:39:53Z</time>
      </trkpt>
      <trkpt lat="45.84971" lon="6.4474">
        <ele>2482</ele>
        <time>2018-10-17T08:39:54Z</time>
      </trkpt>
      <trkpt lat="45.84971" lon="6.4474">
        <ele>2482</ele>
        <time>2018-10-17T08:39:55Z</time>
      </trkpt>
      <trkpt lat="45.84971" lon="6.4474">
        <ele>2482</ele>
        <time>2018-10-17T08:39:56Z</time>
      </trkpt>
      <trkpt lat="45.84971" lon="6.4474">
        <ele>2482</ele>
        <time>2018-10-17T08:39:57Z</time>
      </trkpt>
      <trkpt lat="45.84971" lon="6.4474">
        <ele>2482</ele>
        <time>2018-10-17T08:39:58Z</time>
      </trkpt>
      <trkpt lat="45.84971" lon="6.4474">
        <ele>2482</ele>
        <time>2018-10-17T08:39:59Z</time>
      </trkpt>
      <trkpt lat="45.84971" lon="6.4474">
        <ele>2482</ele>
        <time>2018-10-17T08:40:00Z</time>
      </trkpt>
      <trkpt lat="45.84971" lon="6.4474">
        <ele>2482</ele>
        <time>2018-10-17T08:40:01Z</time>
      </trkpt>
      <trkpt lat="45.84971" lon="6.4474">
        <ele>2482</ele>
        <time>2018-10-17T08:40:02Z</time>
      </trkpt>
      <trkpt lat="45.84971" lon="6.4474">
        <ele>2482</ele>
        <time>2018-10-17T08:40:03Z</time>
      </trkpt>
      <trkpt lat="45.84971" lon="6.4474">
        <ele>2482</ele>
        <time>2018-10-17T08:40:04Z</time>
      </trkpt>
      <trkpt lat="45.84971" lon="6.4474">
        <ele>2482</ele>
        <time>2018-10-17T08:40:05Z</time>
      </trkpt>
      <trkpt lat="45.84971" lon="6.4474">
        <ele>2482</ele>
        <time>2018-10-17T08:40:06Z</time>
      </trkpt>
      <trkpt lat="45.84971" lon="6.4474">
        <ele>2482</ele>
        <time>2018-10-17T08:40:07Z</time>
      </trkpt>
      <trkpt lat="45.84971" lon="6.4474">
        <ele>2482</ele>
        <time>2018-10-17T08:40:08Z</time>
      </trkpt>
      <trkpt lat="45.84971" lon="6.4474">
        <ele>2482</ele>
        <time>2018-10-17T08:40:09Z</time>
      </trkpt>
      <trkpt lat="45.84971" lon="6.4474">
        <ele>2483</ele>
        <time>2018-10-17T08:40:10Z</time>
      </trkpt>
      <trkpt lat="45.84971" lon="6.4474">
        <ele>2483</ele>
        <time>2018-10-17T08:40:11Z</time>
      </trkpt>
      <trkpt lat="45.84971" lon="6.4474">
        <ele>2483</ele>
        <time>2018-10-17T08:40:12Z</time>
      </trkpt>
      <trkpt lat="45.84971" lon="6.4474">
        <ele>2483</ele>
        <time>2018-10-17T08:40:13Z</time>
      </trkpt>
      <trkpt lat="45.84971" lon="6.4474">
        <ele>2483</ele>
        <time>2018-10-17T08:40:14Z</time>
      </trkpt>
      <trkpt lat="45.84971" lon="6.4474">
        <ele>2483</ele>
        <time>2018-10-17T08:40:15Z</time>
      </trkpt>
      <trkpt lat="45.84971" lon="6.4474">
        <ele>2483</ele>
        <time>2018-10-17T08:40:16Z</time>
      </trkpt>
      <trkpt lat="45.84971" lon="6.4474">
        <ele>2483</ele>
        <time>2018-10-17T08:40:17Z</time>
      </trkpt>
      <trkpt lat="45.84971" lon="6.4474">
        <ele>2483</ele>
        <time>2018-10-17T08:40:18Z</time>
      </trkpt>
      <trkpt lat="45.84971" lon="6.4474">
        <ele>2483</ele>
        <time>2018-10-17T08:40:19Z</time>
      </trkpt>
      <trkpt lat="45.84971" lon="6.4474">
        <ele>2483</ele>
        <time>2018-10-17T08:40:20Z</time>
      </trkpt>
      <trkpt lat="45.84971" lon="6.4474">
        <ele>2483</ele>
        <time>2018-10-17T08:40:21Z</time>
      </trkpt>
      <trkpt lat="45.84971" lon="6.4474">
        <ele>2483</ele>
        <time>2018-10-17T08:40:22Z</time>
      </trkpt>
      <trkpt lat="45.84971" lon="6.4474">
        <ele>2483</ele>
        <time>2018-10-17T08:40:23Z</time>
      </trkpt>
      <trkpt lat="45.84971" lon="6.4474">
        <ele>2483</ele>
        <time>2018-10-17T08:40:24Z</time>
      </trkpt>
      <trkpt lat="45.84971" lon="6.4474">
        <ele>2483</ele>
        <time>2018-10-17T08:40:25Z</time>
      </trkpt>
      <trkpt lat="45.84971" lon="6.4474">
        <ele>2483</ele>
        <time>2018-10-17T08:40:26Z</time>
      </trkpt>
      <trkpt lat="45.84971" lon="6.4474">
        <ele>2483</ele>
        <time>2018-10-17T08:40:27Z</time>
      </trkpt>
      <trkpt lat="45.84971" lon="6.4474">
        <ele>2483</ele>
        <time>2018-10-17T08:40:28Z</time>
      </trkpt>
      <trkpt lat="45.84971" lon="6.4474">
        <ele>2483</ele>
        <time>2018-10-17T08:40:29Z</time>
      </trkpt>
      <trkpt lat="45.84971" lon="6.4474">
        <ele>2483</ele>
        <time>2018-10-17T08:40:30Z</time>
      </trkpt>
      <trkpt lat="45.84971" lon="6.4474">
        <ele>2483</ele>
        <time>2018-10-17T08:40:31Z</time>
      </trkpt>
      <trkpt lat="45.84971" lon="6.4474">
        <ele>2483</ele>
        <time>2018-10-17T08:40:32Z</time>
      </trkpt>
      <trkpt lat="45.84971" lon="6.4474">
        <ele>2483</ele>
        <time>2018-10-17T08:40:33Z</time>
      </trkpt>
      <trkpt lat="45.84971" lon="6.4474">
        <ele>2483</ele>
        <time>2018-10-17T08:40:34Z</time>
      </trkpt>
      <trkpt lat="45.84971" lon="6.4474">
        <ele>2483</ele>
        <time>2018-10-17T08:40:35Z</time>
      </trkpt>
      <trkpt lat="45.84971" lon="6.4474">
        <ele>2483</ele>
        <time>2018-10-17T08:40:36Z</time>
      </trkpt>
      <trkpt lat="45.84971" lon="6.4474">
        <ele>2483</ele>
        <time>2018-10-17T08:40:37Z</time>
      </trkpt>
      <trkpt lat="45.84971" lon="6.4474">
        <ele>2483</ele>
        <time>2018-10-17T08:40:38Z</time>
      </trkpt>
      <trkpt lat="45.84971" lon="6.4474">
        <ele>2483</ele>
        <time>2018-10-17T08:40:39Z</time>
      </trkpt>
      <trkpt lat="45.84971" lon="6.4474">
        <ele>2483</ele>
        <time>2018-10-17T08:40:40Z</time>
      </trkpt>
      <trkpt lat="45.84971" lon="6.4474">
        <ele>2483</ele>
        <time>2018-10-17T08:40:41Z</time>
      </trkpt>
      <trkpt lat="45.84971" lon="6.4474">
        <ele>2483</ele>
        <time>2018-10-17T08:40:42Z</time>
      </trkpt>
      <trkpt lat="45.84971" lon="6.4474">
        <ele>2483</ele>
        <time>2018-10-17T08:40:43Z</time>
      </trkpt>
      <trkpt lat="45.84971" lon="6.4474">
        <ele>2483</ele>
        <time>2018-10-17T08:40:44Z</time>
      </trkpt>
      <trkpt lat="45.84971" lon="6.4474">
        <ele>2483</ele>
        <time>2018-10-17T08:40:45Z</time>
      </trkpt>
      <trkpt lat="45.84971" lon="6.4474">
        <ele>2483</ele>
        <time>2018-10-17T08:40:46Z</time>
      </trkpt>
      <trkpt lat="45.84971" lon="6.4474">
        <ele>2483</ele>
        <time>2018-10-17T08:40:47Z</time>
      </trkpt>
      <trkpt lat="45.84971" lon="6.4474">
        <ele>2483</ele>
        <time>2018-10-17T08:40:48Z</time>
      </trkpt>
      <trkpt lat="45.84971" lon="6.4474">
        <ele>2483</ele>
        <time>2018-10-17T08:40:49Z</time>
      </trkpt>
      <trkpt lat="45.84971" lon="6.4474">
        <ele>2483</ele>
        <time>2018-10-17T08:40:50Z</time>
      </trkpt>
      <trkpt lat="45.84971" lon="6.4474">
        <ele>2483</ele>
        <time>2018-10-17T08:40:51Z</time>
      </trkpt>
      <trkpt lat="45.84971" lon="6.4474">
        <ele>2483</ele>
        <time>2018-10-17T08:40:52Z</time>
      </trkpt>
      <trkpt lat="45.84971" lon="6.4474">
        <ele>2483</ele>
        <time>2018-10-17T08:40:53Z</time>
      </trkpt>
      <trkpt lat="45.84971" lon="6.4474">
        <ele>2483</ele>
        <time>2018-10-17T08:40:54Z</time>
      </trkpt>
      <trkpt lat="45.84971" lon="6.4474">
        <ele>2483</ele>
        <time>2018-10-17T08:40:55Z</time>
      </trkpt>
      <trkpt lat="45.84971" lon="6.4474">
        <ele>2483</ele>
        <time>2018-10-17T08:40:56Z</time>
      </trkpt>
      <trkpt lat="45.84971" lon="6.4474">
        <ele>2483</ele>
        <time>2018-10-17T08:40:57Z</time>
      </trkpt>
      <trkpt lat="45.84971" lon="6.4474">
        <ele>2483</ele>
        <time>2018-10-17T08:40:58Z</time>
      </trkpt>
      <trkpt lat="45.84971" lon="6.4474">
        <ele>2483</ele>
        <time>2018-10-17T08:40:59Z</time>
      </trkpt>
      <trkpt lat="45.84971" lon="6.4474">
        <ele>2483</ele>
        <time>2018-10-17T08:41:00Z</time>
      </trkpt>
      <trkpt lat="45.84971" lon="6.4474">
        <ele>2483</ele>
        <time>2018-10-17T08:41:01Z</time>
      </trkpt>
      <trkpt lat="45.84971" lon="6.4474">
        <ele>2483</ele>
        <time>2018-10-17T08:41:02Z</time>
      </trkpt>
      <trkpt lat="45.84971" lon="6.4474">
        <ele>2483</ele>
        <time>2018-10-17T08:41:03Z</time>
      </trkpt>
      <trkpt lat="45.84971" lon="6.4474">
        <ele>2483</ele>
        <time>2018-10-17T08:41:04Z</time>
      </trkpt>
      <trkpt lat="45.84971" lon="6.4474">
        <ele>2483</ele>
        <time>2018-10-17T08:41:05Z</time>
      </trkpt>
      <trkpt lat="45.84971" lon="6.4474">
        <ele>2483</ele>
        <time>2018-10-17T08:41:06Z</time>
      </trkpt>
      <trkpt lat="45.84971" lon="6.4474">
        <ele>2483</ele>
        <time>2018-10-17T08:41:07Z</time>
      </trkpt>
      <trkpt lat="45.84971" lon="6.4474">
        <ele>2483</ele>
        <time>2018-10-17T08:41:08Z</time>
      </trkpt>
      <trkpt lat="45.84971" lon="6.4474">
        <ele>2483</ele>
        <time>2018-10-17T08:41:09Z</time>
      </trkpt>
      <trkpt lat="45.84971" lon="6.4474">
        <ele>2483</ele>
        <time>2018-10-17T08:41:10Z</time>
      </trkpt>
      <trkpt lat="45.84971" lon="6.4474">
        <ele>2483</ele>
        <time>2018-10-17T08:41:11Z</time>
      </trkpt>
      <trkpt lat="45.84971" lon="6.4474">
        <ele>2483</ele>
        <time>2018-10-17T08:41:12Z</time>
      </trkpt>
      <trkpt lat="45.84971" lon="6.4474">
        <ele>2483</ele>
        <time>2018-10-17T08:41:13Z</time>
      </trkpt>
      <trkpt lat="45.84971" lon="6.4474">
        <ele>2483</ele>
        <time>2018-10-17T08:41:14Z</time>
      </trkpt>
      <trkpt lat="45.84971" lon="6.4474">
        <ele>2483</ele>
        <time>2018-10-17T08:41:15Z</time>
      </trkpt>
      <trkpt lat="45.84971" lon="6.4474">
        <ele>2483</ele>
        <time>2018-10-17T08:41:16Z</time>
      </trkpt>
      <trkpt lat="45.84971" lon="6.4474">
        <ele>2483</ele>
        <time>2018-10-17T08:41:17Z</time>
      </trkpt>
      <trkpt lat="45.84971" lon="6.4474">
        <ele>2483</ele>
        <time>2018-10-17T08:41:18Z</time>
      </trkpt>
      <trkpt lat="45.84971" lon="6.4474">
        <ele>2483</ele>
        <time>2018-10-17T08:41:19Z</time>
      </trkpt>
      <trkpt lat="45.84971" lon="6.4474">
        <ele>2483</ele>
        <time>2018-10-17T08:41:20Z</time>
      </trkpt>
      <trkpt lat="45.84971" lon="6.4474">
        <ele>2483</ele>
        <time>2018-10-17T08:41:21Z</time>
      </trkpt>
      <trkpt lat="45.84971" lon="6.4474">
        <ele>2483</ele>
        <time>2018-10-17T08:41:22Z</time>
      </trkpt>
      <trkpt lat="45.84971" lon="6.4474">
        <ele>2483</ele>
        <time>2018-10-17T08:41:23Z</time>
      </trkpt>
      <trkpt lat="45.84971" lon="6.4474">
        <ele>2483</ele>
        <time>2018-10-17T08:41:24Z</time>
      </trkpt>
      <trkpt lat="45.84971" lon="6.4474">
        <ele>2483</ele>
        <time>2018-10-17T08:41:25Z</time>
      </trkpt>
      <trkpt lat="45.84971" lon="6.4474">
        <ele>2483</ele>
        <time>2018-10-17T08:41:26Z</time>
      </trkpt>
      <trkpt lat="45.84971" lon="6.4474">
        <ele>2483</ele>
        <time>2018-10-17T08:41:27Z</time>
      </trkpt>
      <trkpt lat="45.84971" lon="6.4474">
        <ele>2483</ele>
        <time>2018-10-17T08:41:28Z</time>
      </trkpt>
      <trkpt lat="45.84971" lon="6.4474">
        <ele>2483</ele>
        <time>2018-10-17T08:41:29Z</time>
      </trkpt>
      <trkpt lat="45.84971" lon="6.4474">
        <ele>2483</ele>
        <time>2018-10-17T08:41:30Z</time>
      </trkpt>
      <trkpt lat="45.84971" lon="6.4474">
        <ele>2483</ele>
        <time>2018-10-17T08:41:31Z</time>
      </trkpt>
      <trkpt lat="45.84971" lon="6.4474">
        <ele>2483</ele>
        <time>2018-10-17T08:41:32Z</time>
      </trkpt>
      <trkpt lat="45.84971" lon="6.4474">
        <ele>2482</ele>
        <time>2018-10-17T08:41:33Z</time>
      </trkpt>
      <trkpt lat="45.84971" lon="6.4474">
        <ele>2482</ele>
        <time>2018-10-17T08:41:34Z</time>
      </trkpt>
      <trkpt lat="45.84971" lon="6.4474">
        <ele>2482</ele>
        <time>2018-10-17T08:41:35Z</time>
      </trkpt>
      <trkpt lat="45.84971" lon="6.4474">
        <ele>2482</ele>
        <time>2018-10-17T08:41:36Z</time>
      </trkpt>
      <trkpt lat="45.84971" lon="6.4474">
        <ele>2482</ele>
        <time>2018-10-17T08:41:37Z</time>
      </trkpt>
      <trkpt lat="45.84971" lon="6.4474">
        <ele>2482</ele>
        <time>2018-10-17T08:41:38Z</time>
      </trkpt>
      <trkpt lat="45.84971" lon="6.4474">
        <ele>2482</ele>
        <time>2018-10-17T08:41:39Z</time>
      </trkpt>
      <trkpt lat="45.84971" lon="6.4474">
        <ele>2482</ele>
        <time>2018-10-17T08:41:40Z</time>
      </trkpt>
      <trkpt lat="45.84971" lon="6.4474">
        <ele>2482</ele>
        <time>2018-10-17T08:41:41Z</time>
      </trkpt>
      <trkpt lat="45.84971" lon="6.4474">
        <ele>2483</ele>
        <time>2018-10-17T08:41:42Z</time>
      </trkpt>
      <trkpt lat="45.84971" lon="6.4474">
        <ele>2483</ele>
        <time>2018-10-17T08:41:43Z</time>
      </trkpt>
      <trkpt lat="45.84971" lon="6.4474">
        <ele>2483</ele>
        <time>2018-10-17T08:41:44Z</time>
      </trkpt>
      <trkpt lat="45.84971" lon="6.4474">
        <ele>2483</ele>
        <time>2018-10-17T08:41:45Z</time>
      </trkpt>
      <trkpt lat="45.84971" lon="6.4474">
        <ele>2483</ele>
        <time>2018-10-17T08:41:46Z</time>
      </trkpt>
      <trkpt lat="45.84971" lon="6.4474">
        <ele>2483</ele>
        <time>2018-10-17T08:41:47Z</time>
      </trkpt>
      <trkpt lat="45.84971" lon="6.4474">
        <ele>2483</ele>
        <time>2018-10-17T08:41:48Z</time>
      </trkpt>
      <trkpt lat="45.84971" lon="6.4474">
        <ele>2482</ele>
        <time>2018-10-17T08:41:49Z</time>
      </trkpt>
      <trkpt lat="45.84971" lon="6.4474">
        <ele>2482</ele>
        <time>2018-10-17T08:41:50Z</time>
      </trkpt>
      <trkpt lat="45.84971" lon="6.4474">
        <ele>2482</ele>
        <time>2018-10-17T08:41:51Z</time>
      </trkpt>
      <trkpt lat="45.84971" lon="6.4474">
        <ele>2481</ele>
        <time>2018-10-17T08:41:52Z</time>
      </trkpt>
      <trkpt lat="45.84971" lon="6.4474">
        <ele>2481</ele>
        <time>2018-10-17T08:41:53Z</time>
      </trkpt>
      <trkpt lat="45.84971" lon="6.4474">
        <ele>2482</ele>
        <time>2018-10-17T08:41:54Z</time>
      </trkpt>
      <trkpt lat="45.84971" lon="6.4474">
        <ele>2482</ele>
        <time>2018-10-17T08:41:55Z</time>
      </trkpt>
      <trkpt lat="45.84971" lon="6.4474">
        <ele>2482</ele>
        <time>2018-10-17T08:41:56Z</time>
      </trkpt>
      <trkpt lat="45.84971" lon="6.4474">
        <ele>2482</ele>
        <time>2018-10-17T08:41:57Z</time>
      </trkpt>
      <trkpt lat="45.84971" lon="6.4474">
        <ele>2482</ele>
        <time>2018-10-17T08:41:58Z</time>
      </trkpt>
      <trkpt lat="45.84971" lon="6.4474">
        <ele>2483</ele>
        <time>2018-10-17T08:41:59Z</time>
      </trkpt>
      <trkpt lat="45.84971" lon="6.4474">
        <ele>2483</ele>
        <time>2018-10-17T08:42:00Z</time>
      </trkpt>
      <trkpt lat="45.84971" lon="6.4474">
        <ele>2483</ele>
        <time>2018-10-17T08:42:01Z</time>
      </trkpt>
      <trkpt lat="45.84971" lon="6.4474">
        <ele>2483</ele>
        <time>2018-10-17T08:42:02Z</time>
      </trkpt>
      <trkpt lat="45.84971" lon="6.4474">
        <ele>2483</ele>
        <time>2018-10-17T08:42:03Z</time>
      </trkpt>
      <trkpt lat="45.84971" lon="6.4474">
        <ele>2483</ele>
        <time>2018-10-17T08:42:04Z</time>
      </trkpt>
      <trkpt lat="45.84971" lon="6.4474">
        <ele>2483</ele>
        <time>2018-10-17T08:42:05Z</time>
      </trkpt>
      <trkpt lat="45.84971" lon="6.4474">
        <ele>2483</ele>
        <time>2018-10-17T08:42:06Z</time>
      </trkpt>
      <trkpt lat="45.84971" lon="6.4474">
        <ele>2483</ele>
        <time>2018-10-17T08:42:07Z</time>
      </trkpt>
      <trkpt lat="45.84971" lon="6.4474">
        <ele>2484</ele>
        <time>2018-10-17T08:42:08Z</time>
      </trkpt>
      <trkpt lat="45.84971" lon="6.4474">
        <ele>2484</ele>
        <time>2018-10-17T08:42:09Z</time>
      </trkpt>
      <trkpt lat="45.84971" lon="6.4474">
        <ele>2484</ele>
        <time>2018-10-17T08:42:10Z</time>
      </trkpt>
      <trkpt lat="45.84971" lon="6.4474">
        <ele>2484</ele>
        <time>2018-10-17T08:42:11Z</time>
      </trkpt>
      <trkpt lat="45.84971" lon="6.4474">
        <ele>2484</ele>
        <time>2018-10-17T08:42:12Z</time>
      </trkpt>
      <trkpt lat="45.84971" lon="6.4474">
        <ele>2484</ele>
        <time>2018-10-17T08:42:13Z</time>
      </trkpt>
      <trkpt lat="45.84971" lon="6.4474">
        <ele>2484</ele>
        <time>2018-10-17T08:42:14Z</time>
      </trkpt>
      <trkpt lat="45.84971" lon="6.4474">
        <ele>2483</ele>
        <time>2018-10-17T08:42:15Z</time>
      </trkpt>
      <trkpt lat="45.84971" lon="6.4474">
        <ele>2483</ele>
        <time>2018-10-17T08:42:16Z</time>
      </trkpt>
      <trkpt lat="45.84971" lon="6.4474">
        <ele>2483</ele>
        <time>2018-10-17T08:42:17Z</time>
      </trkpt>
      <trkpt lat="45.84971" lon="6.4474">
        <ele>2483</ele>
        <time>2018-10-17T08:42:18Z</time>
      </trkpt>
      <trkpt lat="45.84971" lon="6.4474">
        <ele>2483</ele>
        <time>2018-10-17T08:42:19Z</time>
      </trkpt>
      <trkpt lat="45.84971" lon="6.4474">
        <ele>2483</ele>
        <time>2018-10-17T08:42:20Z</time>
      </trkpt>
      <trkpt lat="45.84971" lon="6.4474">
        <ele>2483</ele>
        <time>2018-10-17T08:42:21Z</time>
      </trkpt>
      <trkpt lat="45.84971" lon="6.4474">
        <ele>2483</ele>
        <time>2018-10-17T08:42:22Z</time>
      </trkpt>
      <trkpt lat="45.84971" lon="6.4474">
        <ele>2483</ele>
        <time>2018-10-17T08:42:23Z</time>
      </trkpt>
      <trkpt lat="45.84971" lon="6.4474">
        <ele>2483</ele>
        <time>2018-10-17T08:42:24Z</time>
      </trkpt>
      <trkpt lat="45.84971" lon="6.4474">
        <ele>2483</ele>
        <time>2018-10-17T08:42:25Z</time>
      </trkpt>
      <trkpt lat="45.84971" lon="6.4474">
        <ele>2483</ele>
        <time>2018-10-17T08:42:26Z</time>
      </trkpt>
      <trkpt lat="45.84971" lon="6.4474">
        <ele>2483</ele>
        <time>2018-10-17T08:42:27Z</time>
      </trkpt>
      <trkpt lat="45.84971" lon="6.4474">
        <ele>2483</ele>
        <time>2018-10-17T08:42:28Z</time>
      </trkpt>
      <trkpt lat="45.84971" lon="6.4474">
        <ele>2483</ele>
        <time>2018-10-17T08:42:29Z</time>
      </trkpt>
      <trkpt lat="45.84971" lon="6.4474">
        <ele>2483</ele>
        <time>2018-10-17T08:42:30Z</time>
      </trkpt>
      <trkpt lat="45.84971" lon="6.4474">
        <ele>2483</ele>
        <time>2018-10-17T08:42:31Z</time>
      </trkpt>
      <trkpt lat="45.84971" lon="6.4474">
        <ele>2483</ele>
        <time>2018-10-17T08:42:32Z</time>
      </trkpt>
      <trkpt lat="45.84971" lon="6.4474">
        <ele>2483</ele>
        <time>2018-10-17T08:42:33Z</time>
      </trkpt>
      <trkpt lat="45.8497" lon="6.44738">
        <ele>2483</ele>
        <time>2018-10-17T08:42:34Z</time>
      </trkpt>
      <trkpt lat="45.8497" lon="6.44738">
        <ele>2483</ele>
        <time>2018-10-17T08:42:35Z</time>
      </trkpt>
      <trkpt lat="45.8497" lon="6.44738">
        <ele>2483</ele>
        <time>2018-10-17T08:42:36Z</time>
      </trkpt>
      <trkpt lat="45.8497" lon="6.44738">
        <ele>2483</ele>
        <time>2018-10-17T08:42:37Z</time>
      </trkpt>
      <trkpt lat="45.8497" lon="6.44738">
        <ele>2483</ele>
        <time>2018-10-17T08:42:38Z</time>
      </trkpt>
      <trkpt lat="45.8497" lon="6.44738">
        <ele>2483</ele>
        <time>2018-10-17T08:42:39Z</time>
      </trkpt>
      <trkpt lat="45.8497" lon="6.44738">
        <ele>2483</ele>
        <time>2018-10-17T08:42:40Z</time>
      </trkpt>
      <trkpt lat="45.8497" lon="6.44738">
        <ele>2484</ele>
        <time>2018-10-17T08:42:41Z</time>
      </trkpt>
      <trkpt lat="45.8497" lon="6.44738">
        <ele>2484</ele>
        <time>2018-10-17T08:42:42Z</time>
      </trkpt>
      <trkpt lat="45.8497" lon="6.44738">
        <ele>2484</ele>
        <time>2018-10-17T08:42:43Z</time>
      </trkpt>
      <trkpt lat="45.8497" lon="6.44738">
        <ele>2484</ele>
        <time>2018-10-17T08:42:44Z</time>
      </trkpt>
      <trkpt lat="45.8497" lon="6.44738">
        <ele>2484</ele>
        <time>2018-10-17T08:42:45Z</time>
      </trkpt>
      <trkpt lat="45.8497" lon="6.44738">
        <ele>2484</ele>
        <time>2018-10-17T08:42:46Z</time>
      </trkpt>
      <trkpt lat="45.8497" lon="6.44738">
        <ele>2484</ele>
        <time>2018-10-17T08:42:47Z</time>
      </trkpt>
      <trkpt lat="45.8497" lon="6.44738">
        <ele>2484</ele>
        <time>2018-10-17T08:42:48Z</time>
      </trkpt>
      <trkpt lat="45.8497" lon="6.44738">
        <ele>2484</ele>
        <time>2018-10-17T08:42:49Z</time>
      </trkpt>
      <trkpt lat="45.8497" lon="6.44738">
        <ele>2484</ele>
        <time>2018-10-17T08:42:50Z</time>
      </trkpt>
      <trkpt lat="45.8497" lon="6.44738">
        <ele>2483</ele>
        <time>2018-10-17T08:42:51Z</time>
      </trkpt>
      <trkpt lat="45.8497" lon="6.44738">
        <ele>2483</ele>
        <time>2018-10-17T08:42:52Z</time>
      </trkpt>
      <trkpt lat="45.8497" lon="6.44738">
        <ele>2483</ele>
        <time>2018-10-17T08:42:53Z</time>
      </trkpt>
      <trkpt lat="45.8497" lon="6.44738">
        <ele>2483</ele>
        <time>2018-10-17T08:42:54Z</time>
      </trkpt>
      <trkpt lat="45.8497" lon="6.44738">
        <ele>2483</ele>
        <time>2018-10-17T08:42:55Z</time>
      </trkpt>
      <trkpt lat="45.8497" lon="6.44738">
        <ele>2483</ele>
        <time>2018-10-17T08:42:56Z</time>
      </trkpt>
      <trkpt lat="45.8497" lon="6.44738">
        <ele>2483</ele>
        <time>2018-10-17T08:42:57Z</time>
      </trkpt>
      <trkpt lat="45.8497" lon="6.44738">
        <ele>2483</ele>
        <time>2018-10-17T08:42:58Z</time>
      </trkpt>
      <trkpt lat="45.8497" lon="6.44738">
        <ele>2483</ele>
        <time>2018-10-17T08:42:59Z</time>
      </trkpt>
      <trkpt lat="45.8497" lon="6.44738">
        <ele>2483</ele>
        <time>2018-10-17T08:43:00Z</time>
      </trkpt>
      <trkpt lat="45.8497" lon="6.44738">
        <ele>2483</ele>
        <time>2018-10-17T08:43:01Z</time>
      </trkpt>
      <trkpt lat="45.8497" lon="6.44738">
        <ele>2483</ele>
        <time>2018-10-17T08:43:02Z</time>
      </trkpt>
      <trkpt lat="45.8497" lon="6.44738">
        <ele>2483</ele>
        <time>2018-10-17T08:43:03Z</time>
      </trkpt>
      <trkpt lat="45.8497" lon="6.44738">
        <ele>2483</ele>
        <time>2018-10-17T08:43:04Z</time>
      </trkpt>
      <trkpt lat="45.8497" lon="6.44738">
        <ele>2483</ele>
        <time>2018-10-17T08:43:05Z</time>
      </trkpt>
      <trkpt lat="45.84968" lon="6.44736">
        <ele>2483</ele>
        <time>2018-10-17T08:43:06Z</time>
      </trkpt>
      <trkpt lat="45.84968" lon="6.44736">
        <ele>2483</ele>
        <time>2018-10-17T08:43:07Z</time>
      </trkpt>
      <trkpt lat="45.84968" lon="6.44736">
        <ele>2482</ele>
        <time>2018-10-17T08:43:08Z</time>
      </trkpt>
      <trkpt lat="45.84966" lon="6.44737">
        <ele>2482</ele>
        <time>2018-10-17T08:43:09Z</time>
      </trkpt>
      <trkpt lat="45.84966" lon="6.44737">
        <ele>2482</ele>
        <time>2018-10-17T08:43:10Z</time>
      </trkpt>
      <trkpt lat="45.84966" lon="6.44737">
        <ele>2482</ele>
        <time>2018-10-17T08:43:11Z</time>
      </trkpt>
      <trkpt lat="45.84964" lon="6.44736">
        <ele>2481</ele>
        <time>2018-10-17T08:43:12Z</time>
      </trkpt>
      <trkpt lat="45.84964" lon="6.44736">
        <ele>2480</ele>
        <time>2018-10-17T08:43:13Z</time>
      </trkpt>
      <trkpt lat="45.84964" lon="6.44736">
        <ele>2480</ele>
        <time>2018-10-17T08:43:14Z</time>
      </trkpt>
      <trkpt lat="45.84964" lon="6.44736">
        <ele>2480</ele>
        <time>2018-10-17T08:43:15Z</time>
      </trkpt>
      <trkpt lat="45.84961" lon="6.44737">
        <ele>2480</ele>
        <time>2018-10-17T08:43:16Z</time>
      </trkpt>
      <trkpt lat="45.84961" lon="6.44737">
        <ele>2480</ele>
        <time>2018-10-17T08:43:17Z</time>
      </trkpt>
      <trkpt lat="45.84959" lon="6.44736">
        <ele>2480</ele>
        <time>2018-10-17T08:43:18Z</time>
      </trkpt>
      <trkpt lat="45.84959" lon="6.44736">
        <ele>2480</ele>
        <time>2018-10-17T08:43:19Z</time>
      </trkpt>
      <trkpt lat="45.84959" lon="6.44736">
        <ele>2480</ele>
        <time>2018-10-17T08:43:20Z</time>
      </trkpt>
      <trkpt lat="45.84957" lon="6.44736">
        <ele>2480</ele>
        <time>2018-10-17T08:43:21Z</time>
      </trkpt>
      <trkpt lat="45.84957" lon="6.44736">
        <ele>2480</ele>
        <time>2018-10-17T08:43:22Z</time>
      </trkpt>
      <trkpt lat="45.84957" lon="6.44736">
        <ele>2479</ele>
        <time>2018-10-17T08:43:23Z</time>
      </trkpt>
      <trkpt lat="45.84955" lon="6.44734">
        <ele>2478</ele>
        <time>2018-10-17T08:43:24Z</time>
      </trkpt>
      <trkpt lat="45.84955" lon="6.44734">
        <ele>2478</ele>
        <time>2018-10-17T08:43:25Z</time>
      </trkpt>
      <trkpt lat="45.84955" lon="6.44734">
        <ele>2477</ele>
        <time>2018-10-17T08:43:26Z</time>
      </trkpt>
      <trkpt lat="45.84955" lon="6.44734">
        <ele>2477</ele>
        <time>2018-10-17T08:43:27Z</time>
      </trkpt>
      <trkpt lat="45.84955" lon="6.44734">
        <ele>2477</ele>
        <time>2018-10-17T08:43:28Z</time>
      </trkpt>
      <trkpt lat="45.84954" lon="6.44731">
        <ele>2477</ele>
        <time>2018-10-17T08:43:29Z</time>
      </trkpt>
      <trkpt lat="45.84954" lon="6.44731">
        <ele>2477</ele>
        <time>2018-10-17T08:43:30Z</time>
      </trkpt>
      <trkpt lat="45.84954" lon="6.44731">
        <ele>2477</ele>
        <time>2018-10-17T08:43:31Z</time>
      </trkpt>
      <trkpt lat="45.84954" lon="6.44731">
        <ele>2477</ele>
        <time>2018-10-17T08:43:32Z</time>
      </trkpt>
      <trkpt lat="45.84954" lon="6.44731">
        <ele>2476</ele>
        <time>2018-10-17T08:43:33Z</time>
      </trkpt>
      <trkpt lat="45.84954" lon="6.44731">
        <ele>2475</ele>
        <time>2018-10-17T08:43:34Z</time>
      </trkpt>
      <trkpt lat="45.84954" lon="6.44731">
        <ele>2475</ele>
        <time>2018-10-17T08:43:35Z</time>
      </trkpt>
      <trkpt lat="45.84954" lon="6.44728">
        <ele>2475</ele>
        <time>2018-10-17T08:43:36Z</time>
      </trkpt>
      <trkpt lat="45.84954" lon="6.44728">
        <ele>2474</ele>
        <time>2018-10-17T08:43:37Z</time>
      </trkpt>
      <trkpt lat="45.84954" lon="6.44728">
        <ele>2474</ele>
        <time>2018-10-17T08:43:38Z</time>
      </trkpt>
      <trkpt lat="45.84954" lon="6.44728">
        <ele>2474</ele>
        <time>2018-10-17T08:43:39Z</time>
      </trkpt>
      <trkpt lat="45.84954" lon="6.44728">
        <ele>2474</ele>
        <time>2018-10-17T08:43:40Z</time>
      </trkpt>
      <trkpt lat="45.84952" lon="6.44727">
        <ele>2474</ele>
        <time>2018-10-17T08:43:41Z</time>
      </trkpt>
      <trkpt lat="45.84952" lon="6.44727">
        <ele>2474</ele>
        <time>2018-10-17T08:43:42Z</time>
      </trkpt>
      <trkpt lat="45.84952" lon="6.44727">
        <ele>2474</ele>
        <time>2018-10-17T08:43:43Z</time>
      </trkpt>
      <trkpt lat="45.84952" lon="6.44727">
        <ele>2474</ele>
        <time>2018-10-17T08:43:44Z</time>
      </trkpt>
      <trkpt lat="45.84952" lon="6.44727">
        <ele>2474</ele>
        <time>2018-10-17T08:43:45Z</time>
      </trkpt>
      <trkpt lat="45.84952" lon="6.44727">
        <ele>2474</ele>
        <time>2018-10-17T08:43:46Z</time>
      </trkpt>
      <trkpt lat="45.84952" lon="6.44727">
        <ele>2473</ele>
        <time>2018-10-17T08:43:47Z</time>
      </trkpt>
      <trkpt lat="45.84952" lon="6.44727">
        <ele>2473</ele>
        <time>2018-10-17T08:43:48Z</time>
      </trkpt>
      <trkpt lat="45.84952" lon="6.44724">
        <ele>2473</ele>
        <time>2018-10-17T08:43:49Z</time>
      </trkpt>
      <trkpt lat="45.84952" lon="6.44724">
        <ele>2473</ele>
        <time>2018-10-17T08:43:50Z</time>
      </trkpt>
      <trkpt lat="45.84952" lon="6.44724">
        <ele>2473</ele>
        <time>2018-10-17T08:43:51Z</time>
      </trkpt>
      <trkpt lat="45.84952" lon="6.44724">
        <ele>2473</ele>
        <time>2018-10-17T08:43:52Z</time>
      </trkpt>
      <trkpt lat="45.84952" lon="6.44724">
        <ele>2472</ele>
        <time>2018-10-17T08:43:53Z</time>
      </trkpt>
      <trkpt lat="45.8495" lon="6.44722">
        <ele>2471</ele>
        <time>2018-10-17T08:43:54Z</time>
      </trkpt>
      <trkpt lat="45.8495" lon="6.44722">
        <ele>2471</ele>
        <time>2018-10-17T08:43:55Z</time>
      </trkpt>
      <trkpt lat="45.8495" lon="6.44722">
        <ele>2470</ele>
        <time>2018-10-17T08:43:56Z</time>
      </trkpt>
      <trkpt lat="45.84948" lon="6.44721">
        <ele>2470</ele>
        <time>2018-10-17T08:43:57Z</time>
      </trkpt>
      <trkpt lat="45.84948" lon="6.44721">
        <ele>2470</ele>
        <time>2018-10-17T08:43:58Z</time>
      </trkpt>
      <trkpt lat="45.84948" lon="6.44721">
        <ele>2470</ele>
        <time>2018-10-17T08:43:59Z</time>
      </trkpt>
      <trkpt lat="45.84948" lon="6.44721">
        <ele>2470</ele>
        <time>2018-10-17T08:44:00Z</time>
      </trkpt>
      <trkpt lat="45.84946" lon="6.4472">
        <ele>2470</ele>
        <time>2018-10-17T08:44:01Z</time>
      </trkpt>
      <trkpt lat="45.84946" lon="6.4472">
        <ele>2470</ele>
        <time>2018-10-17T08:44:02Z</time>
      </trkpt>
      <trkpt lat="45.84946" lon="6.4472">
        <ele>2469</ele>
        <time>2018-10-17T08:44:03Z</time>
      </trkpt>
      <trkpt lat="45.84946" lon="6.4472">
        <ele>2469</ele>
        <time>2018-10-17T08:44:04Z</time>
      </trkpt>
      <trkpt lat="45.84944" lon="6.44718">
        <ele>2467</ele>
        <time>2018-10-17T08:44:05Z</time>
      </trkpt>
      <trkpt lat="45.84944" lon="6.44718">
        <ele>2467</ele>
        <time>2018-10-17T08:44:06Z</time>
      </trkpt>
      <trkpt lat="45.84944" lon="6.44718">
        <ele>2467</ele>
        <time>2018-10-17T08:44:07Z</time>
      </trkpt>
      <trkpt lat="45.84944" lon="6.44718">
        <ele>2466</ele>
        <time>2018-10-17T08:44:08Z</time>
      </trkpt>
      <trkpt lat="45.84943" lon="6.44716">
        <ele>2466</ele>
        <time>2018-10-17T08:44:09Z</time>
      </trkpt>
      <trkpt lat="45.84943" lon="6.44716">
        <ele>2466</ele>
        <time>2018-10-17T08:44:10Z</time>
      </trkpt>
      <trkpt lat="45.84943" lon="6.44716">
        <ele>2466</ele>
        <time>2018-10-17T08:44:11Z</time>
      </trkpt>
      <trkpt lat="45.84943" lon="6.44716">
        <ele>2466</ele>
        <time>2018-10-17T08:44:12Z</time>
      </trkpt>
      <trkpt lat="45.84943" lon="6.44713">
        <ele>2465</ele>
        <time>2018-10-17T08:44:13Z</time>
      </trkpt>
      <trkpt lat="45.84943" lon="6.44713">
        <ele>2464</ele>
        <time>2018-10-17T08:44:14Z</time>
      </trkpt>
      <trkpt lat="45.84943" lon="6.44713">
        <ele>2464</ele>
        <time>2018-10-17T08:44:15Z</time>
      </trkpt>
      <trkpt lat="45.84943" lon="6.44713">
        <ele>2464</ele>
        <time>2018-10-17T08:44:16Z</time>
      </trkpt>
      <trkpt lat="45.8494" lon="6.44713">
        <ele>2464</ele>
        <time>2018-10-17T08:44:17Z</time>
      </trkpt>
      <trkpt lat="45.8494" lon="6.44713">
        <ele>2464</ele>
        <time>2018-10-17T08:44:18Z</time>
      </trkpt>
      <trkpt lat="45.8494" lon="6.44713">
        <ele>2463</ele>
        <time>2018-10-17T08:44:19Z</time>
      </trkpt>
      <trkpt lat="45.84938" lon="6.44712">
        <ele>2463</ele>
        <time>2018-10-17T08:44:20Z</time>
      </trkpt>
      <trkpt lat="45.84938" lon="6.44712">
        <ele>2462</ele>
        <time>2018-10-17T08:44:21Z</time>
      </trkpt>
      <trkpt lat="45.84937" lon="6.44711">
        <ele>2462</ele>
        <time>2018-10-17T08:44:22Z</time>
      </trkpt>
      <trkpt lat="45.84937" lon="6.44711">
        <ele>2462</ele>
        <time>2018-10-17T08:44:23Z</time>
      </trkpt>
      <trkpt lat="45.84935" lon="6.44709">
        <ele>2461</ele>
        <time>2018-10-17T08:44:24Z</time>
      </trkpt>
      <trkpt lat="45.84935" lon="6.44709">
        <ele>2460</ele>
        <time>2018-10-17T08:44:25Z</time>
      </trkpt>
      <trkpt lat="45.84934" lon="6.44708">
        <ele>2460</ele>
        <time>2018-10-17T08:44:26Z</time>
      </trkpt>
      <trkpt lat="45.84934" lon="6.44708">
        <ele>2460</ele>
        <time>2018-10-17T08:44:27Z</time>
      </trkpt>
      <trkpt lat="45.84934" lon="6.44708">
        <ele>2460</ele>
        <time>2018-10-17T08:44:28Z</time>
      </trkpt>
      <trkpt lat="45.84934" lon="6.44708">
        <ele>2460</ele>
        <time>2018-10-17T08:44:29Z</time>
      </trkpt>
      <trkpt lat="45.84932" lon="6.44705">
        <ele>2460</ele>
        <time>2018-10-17T08:44:30Z</time>
      </trkpt>
      <trkpt lat="45.84932" lon="6.44705">
        <ele>2459</ele>
        <time>2018-10-17T08:44:31Z</time>
      </trkpt>
      <trkpt lat="45.84932" lon="6.44705">
        <ele>2459</ele>
        <time>2018-10-17T08:44:32Z</time>
      </trkpt>
      <trkpt lat="45.84932" lon="6.44705">
        <ele>2459</ele>
        <time>2018-10-17T08:44:33Z</time>
      </trkpt>
      <trkpt lat="45.84932" lon="6.44705">
        <ele>2459</ele>
        <time>2018-10-17T08:44:34Z</time>
      </trkpt>
      <trkpt lat="45.84932" lon="6.44702">
        <ele>2458</ele>
        <time>2018-10-17T08:44:35Z</time>
      </trkpt>
      <trkpt lat="45.84932" lon="6.44702">
        <ele>2457</ele>
        <time>2018-10-17T08:44:36Z</time>
      </trkpt>
      <trkpt lat="45.84932" lon="6.44702">
        <ele>2457</ele>
        <time>2018-10-17T08:44:37Z</time>
      </trkpt>
      <trkpt lat="45.84932" lon="6.44702">
        <ele>2457</ele>
        <time>2018-10-17T08:44:38Z</time>
      </trkpt>
      <trkpt lat="45.84932" lon="6.44702">
        <ele>2457</ele>
        <time>2018-10-17T08:44:39Z</time>
      </trkpt>
      <trkpt lat="45.84932" lon="6.44702">
        <ele>2456</ele>
        <time>2018-10-17T08:44:40Z</time>
      </trkpt>
      <trkpt lat="45.8493" lon="6.44701">
        <ele>2456</ele>
        <time>2018-10-17T08:44:41Z</time>
      </trkpt>
      <trkpt lat="45.8493" lon="6.44701">
        <ele>2456</ele>
        <time>2018-10-17T08:44:42Z</time>
      </trkpt>
      <trkpt lat="45.8493" lon="6.44701">
        <ele>2456</ele>
        <time>2018-10-17T08:44:43Z</time>
      </trkpt>
      <trkpt lat="45.8493" lon="6.44701">
        <ele>2455</ele>
        <time>2018-10-17T08:44:44Z</time>
      </trkpt>
      <trkpt lat="45.8493" lon="6.44701">
        <ele>2455</ele>
        <time>2018-10-17T08:44:45Z</time>
      </trkpt>
      <trkpt lat="45.84928" lon="6.44699">
        <ele>2455</ele>
        <time>2018-10-17T08:44:46Z</time>
      </trkpt>
      <trkpt lat="45.84928" lon="6.44699">
        <ele>2455</ele>
        <time>2018-10-17T08:44:47Z</time>
      </trkpt>
      <trkpt lat="45.84928" lon="6.44699">
        <ele>2455</ele>
        <time>2018-10-17T08:44:48Z</time>
      </trkpt>
      <trkpt lat="45.84926" lon="6.44697">
        <ele>2455</ele>
        <time>2018-10-17T08:44:49Z</time>
      </trkpt>
      <trkpt lat="45.84926" lon="6.44697">
        <ele>2455</ele>
        <time>2018-10-17T08:44:50Z</time>
      </trkpt>
      <trkpt lat="45.84926" lon="6.44697">
        <ele>2454</ele>
        <time>2018-10-17T08:44:51Z</time>
      </trkpt>
      <trkpt lat="45.84926" lon="6.44697">
        <ele>2454</ele>
        <time>2018-10-17T08:44:52Z</time>
      </trkpt>
      <trkpt lat="45.84926" lon="6.44694">
        <ele>2453</ele>
        <time>2018-10-17T08:44:53Z</time>
      </trkpt>
      <trkpt lat="45.84926" lon="6.44694">
        <ele>2453</ele>
        <time>2018-10-17T08:44:54Z</time>
      </trkpt>
      <trkpt lat="45.84926" lon="6.44694">
        <ele>2453</ele>
        <time>2018-10-17T08:44:55Z</time>
      </trkpt>
      <trkpt lat="45.84926" lon="6.44694">
        <ele>2453</ele>
        <time>2018-10-17T08:44:56Z</time>
      </trkpt>
      <trkpt lat="45.84926" lon="6.44694">
        <ele>2452</ele>
        <time>2018-10-17T08:44:57Z</time>
      </trkpt>
      <trkpt lat="45.84926" lon="6.44694">
        <ele>2452</ele>
        <time>2018-10-17T08:44:58Z</time>
      </trkpt>
      <trkpt lat="45.84926" lon="6.44694">
        <ele>2451</ele>
        <time>2018-10-17T08:44:59Z</time>
      </trkpt>
      <trkpt lat="45.84925" lon="6.44692">
        <ele>2451</ele>
        <time>2018-10-17T08:45:00Z</time>
      </trkpt>
      <trkpt lat="45.84925" lon="6.44692">
        <ele>2451</ele>
        <time>2018-10-17T08:45:01Z</time>
      </trkpt>
      <trkpt lat="45.84923" lon="6.44692">
        <ele>2451</ele>
        <time>2018-10-17T08:45:02Z</time>
      </trkpt>
      <trkpt lat="45.84923" lon="6.44692">
        <ele>2451</ele>
        <time>2018-10-17T08:45:03Z</time>
      </trkpt>
      <trkpt lat="45.84923" lon="6.44692">
        <ele>2451</ele>
        <time>2018-10-17T08:45:04Z</time>
      </trkpt>
      <trkpt lat="45.84921" lon="6.44691">
        <ele>2452</ele>
        <time>2018-10-17T08:45:05Z</time>
      </trkpt>
      <trkpt lat="45.84921" lon="6.44691">
        <ele>2452</ele>
        <time>2018-10-17T08:45:06Z</time>
      </trkpt>
      <trkpt lat="45.84921" lon="6.44691">
        <ele>2452</ele>
        <time>2018-10-17T08:45:07Z</time>
      </trkpt>
      <trkpt lat="45.84921" lon="6.44691">
        <ele>2452</ele>
        <time>2018-10-17T08:45:08Z</time>
      </trkpt>
      <trkpt lat="45.84921" lon="6.44691">
        <ele>2452</ele>
        <time>2018-10-17T08:45:09Z</time>
      </trkpt>
      <trkpt lat="45.84919" lon="6.44693">
        <ele>2452</ele>
        <time>2018-10-17T08:45:10Z</time>
      </trkpt>
      <trkpt lat="45.84919" lon="6.44693">
        <ele>2452</ele>
        <time>2018-10-17T08:45:11Z</time>
      </trkpt>
      <trkpt lat="45.84919" lon="6.44693">
        <ele>2453</ele>
        <time>2018-10-17T08:45:12Z</time>
      </trkpt>
      <trkpt lat="45.84918" lon="6.44694">
        <ele>2453</ele>
        <time>2018-10-17T08:45:13Z</time>
      </trkpt>
      <trkpt lat="45.84918" lon="6.44694">
        <ele>2453</ele>
        <time>2018-10-17T08:45:14Z</time>
      </trkpt>
      <trkpt lat="45.84916" lon="6.44694">
        <ele>2453</ele>
        <time>2018-10-17T08:45:15Z</time>
      </trkpt>
      <trkpt lat="45.84916" lon="6.44694">
        <ele>2453</ele>
        <time>2018-10-17T08:45:16Z</time>
      </trkpt>
      <trkpt lat="45.84916" lon="6.44694">
        <ele>2453</ele>
        <time>2018-10-17T08:45:17Z</time>
      </trkpt>
      <trkpt lat="45.84916" lon="6.44694">
        <ele>2453</ele>
        <time>2018-10-17T08:45:18Z</time>
      </trkpt>
      <trkpt lat="45.84916" lon="6.44694">
        <ele>2453</ele>
        <time>2018-10-17T08:45:19Z</time>
      </trkpt>
      <trkpt lat="45.84916" lon="6.44694">
        <ele>2453</ele>
        <time>2018-10-17T08:45:20Z</time>
      </trkpt>
      <trkpt lat="45.84916" lon="6.44694">
        <ele>2453</ele>
        <time>2018-10-17T08:45:21Z</time>
      </trkpt>
      <trkpt lat="45.84916" lon="6.44694">
        <ele>2454</ele>
        <time>2018-10-17T08:45:22Z</time>
      </trkpt>
      <trkpt lat="45.84916" lon="6.44694">
        <ele>2454</ele>
        <time>2018-10-17T08:45:23Z</time>
      </trkpt>
      <trkpt lat="45.84913" lon="6.44694">
        <ele>2454</ele>
        <time>2018-10-17T08:45:24Z</time>
      </trkpt>
      <trkpt lat="45.84913" lon="6.44694">
        <ele>2454</ele>
        <time>2018-10-17T08:45:25Z</time>
      </trkpt>
      <trkpt lat="45.84913" lon="6.44694">
        <ele>2454</ele>
        <time>2018-10-17T08:45:26Z</time>
      </trkpt>
      <trkpt lat="45.84912" lon="6.44693">
        <ele>2454</ele>
        <time>2018-10-17T08:45:27Z</time>
      </trkpt>
      <trkpt lat="45.84912" lon="6.44693">
        <ele>2454</ele>
        <time>2018-10-17T08:45:28Z</time>
      </trkpt>
      <trkpt lat="45.84912" lon="6.44693">
        <ele>2454</ele>
        <time>2018-10-17T08:45:29Z</time>
      </trkpt>
      <trkpt lat="45.84912" lon="6.44693">
        <ele>2454</ele>
        <time>2018-10-17T08:45:30Z</time>
      </trkpt>
      <trkpt lat="45.84912" lon="6.44693">
        <ele>2456</ele>
        <time>2018-10-17T08:45:31Z</time>
      </trkpt>
      <trkpt lat="45.84912" lon="6.44693">
        <ele>2456</ele>
        <time>2018-10-17T08:45:32Z</time>
      </trkpt>
      <trkpt lat="45.8491" lon="6.44694">
        <ele>2456</ele>
        <time>2018-10-17T08:45:33Z</time>
      </trkpt>
      <trkpt lat="45.8491" lon="6.44694">
        <ele>2456</ele>
        <time>2018-10-17T08:45:34Z</time>
      </trkpt>
      <trkpt lat="45.8491" lon="6.44694">
        <ele>2456</ele>
        <time>2018-10-17T08:45:35Z</time>
      </trkpt>
      <trkpt lat="45.8491" lon="6.44694">
        <ele>2456</ele>
        <time>2018-10-17T08:45:36Z</time>
      </trkpt>
      <trkpt lat="45.8491" lon="6.44694">
        <ele>2456</ele>
        <time>2018-10-17T08:45:37Z</time>
      </trkpt>
      <trkpt lat="45.8491" lon="6.44694">
        <ele>2456</ele>
        <time>2018-10-17T08:45:38Z</time>
      </trkpt>
      <trkpt lat="45.84908" lon="6.44693">
        <ele>2457</ele>
        <time>2018-10-17T08:45:39Z</time>
      </trkpt>
      <trkpt lat="45.84908" lon="6.44693">
        <ele>2458</ele>
        <time>2018-10-17T08:45:40Z</time>
      </trkpt>
      <trkpt lat="45.84908" lon="6.44693">
        <ele>2458</ele>
        <time>2018-10-17T08:45:41Z</time>
      </trkpt>
      <trkpt lat="45.84908" lon="6.44693">
        <ele>2458</ele>
        <time>2018-10-17T08:45:42Z</time>
      </trkpt>
      <trkpt lat="45.84908" lon="6.44693">
        <ele>2459</ele>
        <time>2018-10-17T08:45:43Z</time>
      </trkpt>
      <trkpt lat="45.84908" lon="6.44693">
        <ele>2459</ele>
        <time>2018-10-17T08:45:44Z</time>
      </trkpt>
      <trkpt lat="45.84908" lon="6.44693">
        <ele>2460</ele>
        <time>2018-10-17T08:45:45Z</time>
      </trkpt>
      <trkpt lat="45.84908" lon="6.44693">
        <ele>2460</ele>
        <time>2018-10-17T08:45:46Z</time>
      </trkpt>
      <trkpt lat="45.84908" lon="6.44693">
        <ele>2460</ele>
        <time>2018-10-17T08:45:47Z</time>
      </trkpt>
      <trkpt lat="45.84908" lon="6.44693">
        <ele>2460</ele>
        <time>2018-10-17T08:45:48Z</time>
      </trkpt>
      <trkpt lat="45.84906" lon="6.44694">
        <ele>2459</ele>
        <time>2018-10-17T08:45:49Z</time>
      </trkpt>
      <trkpt lat="45.84906" lon="6.44694">
        <ele>2459</ele>
        <time>2018-10-17T08:45:50Z</time>
      </trkpt>
      <trkpt lat="45.84906" lon="6.44694">
        <ele>2459</ele>
        <time>2018-10-17T08:45:51Z</time>
      </trkpt>
      <trkpt lat="45.84906" lon="6.44694">
        <ele>2459</ele>
        <time>2018-10-17T08:45:52Z</time>
      </trkpt>
      <trkpt lat="45.84904" lon="6.44696">
        <ele>2459</ele>
        <time>2018-10-17T08:45:53Z</time>
      </trkpt>
      <trkpt lat="45.84904" lon="6.44696">
        <ele>2460</ele>
        <time>2018-10-17T08:45:54Z</time>
      </trkpt>
      <trkpt lat="45.84904" lon="6.44696">
        <ele>2460</ele>
        <time>2018-10-17T08:45:55Z</time>
      </trkpt>
      <trkpt lat="45.84904" lon="6.44696">
        <ele>2460</ele>
        <time>2018-10-17T08:45:56Z</time>
      </trkpt>
      <trkpt lat="45.84904" lon="6.44696">
        <ele>2460</ele>
        <time>2018-10-17T08:45:57Z</time>
      </trkpt>
      <trkpt lat="45.84904" lon="6.44696">
        <ele>2460</ele>
        <time>2018-10-17T08:45:58Z</time>
      </trkpt>
      <trkpt lat="45.84904" lon="6.44696">
        <ele>2460</ele>
        <time>2018-10-17T08:45:59Z</time>
      </trkpt>
      <trkpt lat="45.84904" lon="6.44696">
        <ele>2460</ele>
        <time>2018-10-17T08:46:00Z</time>
      </trkpt>
      <trkpt lat="45.84904" lon="6.44696">
        <ele>2460</ele>
        <time>2018-10-17T08:46:01Z</time>
      </trkpt>
      <trkpt lat="45.84904" lon="6.44696">
        <ele>2460</ele>
        <time>2018-10-17T08:46:02Z</time>
      </trkpt>
      <trkpt lat="45.84904" lon="6.44696">
        <ele>2460</ele>
        <time>2018-10-17T08:46:03Z</time>
      </trkpt>
      <trkpt lat="45.84904" lon="6.44696">
        <ele>2460</ele>
        <time>2018-10-17T08:46:04Z</time>
      </trkpt>
      <trkpt lat="45.84902" lon="6.44696">
        <ele>2460</ele>
        <time>2018-10-17T08:46:05Z</time>
      </trkpt>
      <trkpt lat="45.84902" lon="6.44696">
        <ele>2460</ele>
        <time>2018-10-17T08:46:06Z</time>
      </trkpt>
      <trkpt lat="45.84902" lon="6.44696">
        <ele>2461</ele>
        <time>2018-10-17T08:46:07Z</time>
      </trkpt>
      <trkpt lat="45.84902" lon="6.44696">
        <ele>2462</ele>
        <time>2018-10-17T08:46:08Z</time>
      </trkpt>
      <trkpt lat="45.84902" lon="6.44696">
        <ele>2462</ele>
        <time>2018-10-17T08:46:09Z</time>
      </trkpt>
      <trkpt lat="45.849" lon="6.44696">
        <ele>2462</ele>
        <time>2018-10-17T08:46:10Z</time>
      </trkpt>
      <trkpt lat="45.849" lon="6.44696">
        <ele>2462</ele>
        <time>2018-10-17T08:46:11Z</time>
      </trkpt>
      <trkpt lat="45.849" lon="6.44696">
        <ele>2462</ele>
        <time>2018-10-17T08:46:12Z</time>
      </trkpt>
      <trkpt lat="45.849" lon="6.44696">
        <ele>2463</ele>
        <time>2018-10-17T08:46:13Z</time>
      </trkpt>
      <trkpt lat="45.849" lon="6.44696">
        <ele>2463</ele>
        <time>2018-10-17T08:46:14Z</time>
      </trkpt>
      <trkpt lat="45.84898" lon="6.44696">
        <ele>2463</ele>
        <time>2018-10-17T08:46:15Z</time>
      </trkpt>
      <trkpt lat="45.84898" lon="6.44696">
        <ele>2463</ele>
        <time>2018-10-17T08:46:16Z</time>
      </trkpt>
      <trkpt lat="45.84898" lon="6.44696">
        <ele>2463</ele>
        <time>2018-10-17T08:46:17Z</time>
      </trkpt>
      <trkpt lat="45.84896" lon="6.44696">
        <ele>2463</ele>
        <time>2018-10-17T08:46:18Z</time>
      </trkpt>
      <trkpt lat="45.84896" lon="6.44696">
        <ele>2463</ele>
        <time>2018-10-17T08:46:19Z</time>
      </trkpt>
      <trkpt lat="45.84896" lon="6.44696">
        <ele>2463</ele>
        <time>2018-10-17T08:46:20Z</time>
      </trkpt>
      <trkpt lat="45.84896" lon="6.44696">
        <ele>2463</ele>
        <time>2018-10-17T08:46:21Z</time>
      </trkpt>
      <trkpt lat="45.84896" lon="6.44696">
        <ele>2463</ele>
        <time>2018-10-17T08:46:22Z</time>
      </trkpt>
      <trkpt lat="45.84894" lon="6.44696">
        <ele>2463</ele>
        <time>2018-10-17T08:46:23Z</time>
      </trkpt>
      <trkpt lat="45.84894" lon="6.44696">
        <ele>2463</ele>
        <time>2018-10-17T08:46:24Z</time>
      </trkpt>
      <trkpt lat="45.84894" lon="6.44696">
        <ele>2464</ele>
        <time>2018-10-17T08:46:25Z</time>
      </trkpt>
      <trkpt lat="45.84891" lon="6.44697">
        <ele>2464</ele>
        <time>2018-10-17T08:46:26Z</time>
      </trkpt>
      <trkpt lat="45.84891" lon="6.44697">
        <ele>2464</ele>
        <time>2018-10-17T08:46:27Z</time>
      </trkpt>
      <trkpt lat="45.84889" lon="6.44697">
        <ele>2464</ele>
        <time>2018-10-17T08:46:28Z</time>
      </trkpt>
      <trkpt lat="45.84889" lon="6.44697">
        <ele>2464</ele>
        <time>2018-10-17T08:46:29Z</time>
      </trkpt>
      <trkpt lat="45.84888" lon="6.44696">
        <ele>2464</ele>
        <time>2018-10-17T08:46:30Z</time>
      </trkpt>
      <trkpt lat="45.84888" lon="6.44696">
        <ele>2464</ele>
        <time>2018-10-17T08:46:31Z</time>
      </trkpt>
      <trkpt lat="45.84888" lon="6.44696">
        <ele>2464</ele>
        <time>2018-10-17T08:46:32Z</time>
      </trkpt>
      <trkpt lat="45.84885" lon="6.44696">
        <ele>2464</ele>
        <time>2018-10-17T08:46:33Z</time>
      </trkpt>
      <trkpt lat="45.84885" lon="6.44696">
        <ele>2464</ele>
        <time>2018-10-17T08:46:34Z</time>
      </trkpt>
      <trkpt lat="45.84883" lon="6.44695">
        <ele>2464</ele>
        <time>2018-10-17T08:46:35Z</time>
      </trkpt>
      <trkpt lat="45.84883" lon="6.44695">
        <ele>2464</ele>
        <time>2018-10-17T08:46:36Z</time>
      </trkpt>
      <trkpt lat="45.84883" lon="6.44695">
        <ele>2464</ele>
        <time>2018-10-17T08:46:37Z</time>
      </trkpt>
      <trkpt lat="45.84882" lon="6.44693">
        <ele>2464</ele>
        <time>2018-10-17T08:46:38Z</time>
      </trkpt>
      <trkpt lat="45.84882" lon="6.44693">
        <ele>2464</ele>
        <time>2018-10-17T08:46:39Z</time>
      </trkpt>
      <trkpt lat="45.84882" lon="6.44693">
        <ele>2464</ele>
        <time>2018-10-17T08:46:40Z</time>
      </trkpt>
      <trkpt lat="45.84882" lon="6.44693">
        <ele>2464</ele>
        <time>2018-10-17T08:46:41Z</time>
      </trkpt>
      <trkpt lat="45.8488" lon="6.44692">
        <ele>2464</ele>
        <time>2018-10-17T08:46:42Z</time>
      </trkpt>
      <trkpt lat="45.8488" lon="6.44692">
        <ele>2464</ele>
        <time>2018-10-17T08:46:43Z</time>
      </trkpt>
      <trkpt lat="45.8488" lon="6.44692">
        <ele>2463</ele>
        <time>2018-10-17T08:46:44Z</time>
      </trkpt>
      <trkpt lat="45.84878" lon="6.44691">
        <ele>2462</ele>
        <time>2018-10-17T08:46:45Z</time>
      </trkpt>
      <trkpt lat="45.84878" lon="6.44691">
        <ele>2462</ele>
        <time>2018-10-17T08:46:46Z</time>
      </trkpt>
      <trkpt lat="45.84878" lon="6.44691">
        <ele>2462</ele>
        <time>2018-10-17T08:46:47Z</time>
      </trkpt>
      <trkpt lat="45.84875" lon="6.4469">
        <ele>2461</ele>
        <time>2018-10-17T08:46:48Z</time>
      </trkpt>
      <trkpt lat="45.84875" lon="6.4469">
        <ele>2461</ele>
        <time>2018-10-17T08:46:49Z</time>
      </trkpt>
      <trkpt lat="45.84874" lon="6.4469">
        <ele>2460</ele>
        <time>2018-10-17T08:46:50Z</time>
      </trkpt>
      <trkpt lat="45.84874" lon="6.4469">
        <ele>2460</ele>
        <time>2018-10-17T08:46:51Z</time>
      </trkpt>
      <trkpt lat="45.84874" lon="6.4469">
        <ele>2460</ele>
        <time>2018-10-17T08:46:52Z</time>
      </trkpt>
      <trkpt lat="45.84874" lon="6.4469">
        <ele>2460</ele>
        <time>2018-10-17T08:46:53Z</time>
      </trkpt>
      <trkpt lat="45.84871" lon="6.44689">
        <ele>2460</ele>
        <time>2018-10-17T08:46:54Z</time>
      </trkpt>
      <trkpt lat="45.84871" lon="6.44689">
        <ele>2460</ele>
        <time>2018-10-17T08:46:55Z</time>
      </trkpt>
      <trkpt lat="45.84869" lon="6.4469">
        <ele>2460</ele>
        <time>2018-10-17T08:46:56Z</time>
      </trkpt>
      <trkpt lat="45.84869" lon="6.4469">
        <ele>2460</ele>
        <time>2018-10-17T08:46:57Z</time>
      </trkpt>
      <trkpt lat="45.84867" lon="6.4469">
        <ele>2460</ele>
        <time>2018-10-17T08:46:58Z</time>
      </trkpt>
      <trkpt lat="45.84867" lon="6.4469">
        <ele>2460</ele>
        <time>2018-10-17T08:46:59Z</time>
      </trkpt>
      <trkpt lat="45.84867" lon="6.4469">
        <ele>2460</ele>
        <time>2018-10-17T08:47:00Z</time>
      </trkpt>
      <trkpt lat="45.84865" lon="6.44691">
        <ele>2459</ele>
        <time>2018-10-17T08:47:01Z</time>
      </trkpt>
      <trkpt lat="45.84865" lon="6.44691">
        <ele>2459</ele>
        <time>2018-10-17T08:47:02Z</time>
      </trkpt>
      <trkpt lat="45.84865" lon="6.44691">
        <ele>2459</ele>
        <time>2018-10-17T08:47:03Z</time>
      </trkpt>
      <trkpt lat="45.84865" lon="6.44691">
        <ele>2459</ele>
        <time>2018-10-17T08:47:04Z</time>
      </trkpt>
      <trkpt lat="45.84863" lon="6.44691">
        <ele>2459</ele>
        <time>2018-10-17T08:47:05Z</time>
      </trkpt>
      <trkpt lat="45.84863" lon="6.44691">
        <ele>2459</ele>
        <time>2018-10-17T08:47:06Z</time>
      </trkpt>
      <trkpt lat="45.84863" lon="6.44691">
        <ele>2459</ele>
        <time>2018-10-17T08:47:07Z</time>
      </trkpt>
      <trkpt lat="45.84861" lon="6.44689">
        <ele>2458</ele>
        <time>2018-10-17T08:47:08Z</time>
      </trkpt>
      <trkpt lat="45.84861" lon="6.44689">
        <ele>2458</ele>
        <time>2018-10-17T08:47:09Z</time>
      </trkpt>
      <trkpt lat="45.84861" lon="6.44689">
        <ele>2458</ele>
        <time>2018-10-17T08:47:10Z</time>
      </trkpt>
      <trkpt lat="45.84859" lon="6.44688">
        <ele>2458</ele>
        <time>2018-10-17T08:47:11Z</time>
      </trkpt>
      <trkpt lat="45.84859" lon="6.44688">
        <ele>2458</ele>
        <time>2018-10-17T08:47:12Z</time>
      </trkpt>
      <trkpt lat="45.84859" lon="6.44688">
        <ele>2458</ele>
        <time>2018-10-17T08:47:13Z</time>
      </trkpt>
      <trkpt lat="45.84859" lon="6.44688">
        <ele>2458</ele>
        <time>2018-10-17T08:47:14Z</time>
      </trkpt>
      <trkpt lat="45.84859" lon="6.44688">
        <ele>2458</ele>
        <time>2018-10-17T08:47:15Z</time>
      </trkpt>
      <trkpt lat="45.84859" lon="6.44688">
        <ele>2457</ele>
        <time>2018-10-17T08:47:16Z</time>
      </trkpt>
      <trkpt lat="45.84859" lon="6.44688">
        <ele>2457</ele>
        <time>2018-10-17T08:47:17Z</time>
      </trkpt>
      <trkpt lat="45.84859" lon="6.44688">
        <ele>2457</ele>
        <time>2018-10-17T08:47:18Z</time>
      </trkpt>
      <trkpt lat="45.84859" lon="6.44688">
        <ele>2457</ele>
        <time>2018-10-17T08:47:19Z</time>
      </trkpt>
      <trkpt lat="45.84859" lon="6.44688">
        <ele>2457</ele>
        <time>2018-10-17T08:47:20Z</time>
      </trkpt>
      <trkpt lat="45.84859" lon="6.44688">
        <ele>2457</ele>
        <time>2018-10-17T08:47:21Z</time>
      </trkpt>
      <trkpt lat="45.84859" lon="6.44688">
        <ele>2457</ele>
        <time>2018-10-17T08:47:22Z</time>
      </trkpt>
      <trkpt lat="45.84857" lon="6.44688">
        <ele>2457</ele>
        <time>2018-10-17T08:47:23Z</time>
      </trkpt>
      <trkpt lat="45.84857" lon="6.44688">
        <ele>2457</ele>
        <time>2018-10-17T08:47:24Z</time>
      </trkpt>
      <trkpt lat="45.84857" lon="6.44688">
        <ele>2457</ele>
        <time>2018-10-17T08:47:25Z</time>
      </trkpt>
      <trkpt lat="45.84857" lon="6.44688">
        <ele>2457</ele>
        <time>2018-10-17T08:47:26Z</time>
      </trkpt>
      <trkpt lat="45.84857" lon="6.44688">
        <ele>2457</ele>
        <time>2018-10-17T08:47:27Z</time>
      </trkpt>
      <trkpt lat="45.84857" lon="6.44688">
        <ele>2457</ele>
        <time>2018-10-17T08:47:28Z</time>
      </trkpt>
      <trkpt lat="45.84857" lon="6.44688">
        <ele>2457</ele>
        <time>2018-10-17T08:47:29Z</time>
      </trkpt>
      <trkpt lat="45.84857" lon="6.44688">
        <ele>2457</ele>
        <time>2018-10-17T08:47:30Z</time>
      </trkpt>
      <trkpt lat="45.84857" lon="6.44688">
        <ele>2457</ele>
        <time>2018-10-17T08:47:31Z</time>
      </trkpt>
      <trkpt lat="45.84857" lon="6.44688">
        <ele>2457</ele>
        <time>2018-10-17T08:47:32Z</time>
      </trkpt>
      <trkpt lat="45.84857" lon="6.44688">
        <ele>2457</ele>
        <time>2018-10-17T08:47:33Z</time>
      </trkpt>
      <trkpt lat="45.84857" lon="6.44688">
        <ele>2457</ele>
        <time>2018-10-17T08:47:34Z</time>
      </trkpt>
      <trkpt lat="45.84857" lon="6.44688">
        <ele>2457</ele>
        <time>2018-10-17T08:47:35Z</time>
      </trkpt>
      <trkpt lat="45.84856" lon="6.44687">
        <ele>2457</ele>
        <time>2018-10-17T08:47:36Z</time>
      </trkpt>
      <trkpt lat="45.84856" lon="6.44687">
        <ele>2456</ele>
        <time>2018-10-17T08:47:37Z</time>
      </trkpt>
      <trkpt lat="45.84856" lon="6.44687">
        <ele>2456</ele>
        <time>2018-10-17T08:47:38Z</time>
      </trkpt>
      <trkpt lat="45.84856" lon="6.44687">
        <ele>2456</ele>
        <time>2018-10-17T08:47:39Z</time>
      </trkpt>
      <trkpt lat="45.84856" lon="6.44687">
        <ele>2456</ele>
        <time>2018-10-17T08:47:40Z</time>
      </trkpt>
      <trkpt lat="45.84854" lon="6.44685">
        <ele>2456</ele>
        <time>2018-10-17T08:47:41Z</time>
      </trkpt>
      <trkpt lat="45.84854" lon="6.44685">
        <ele>2456</ele>
        <time>2018-10-17T08:47:42Z</time>
      </trkpt>
      <trkpt lat="45.84852" lon="6.44684">
        <ele>2456</ele>
        <time>2018-10-17T08:47:43Z</time>
      </trkpt>
      <trkpt lat="45.84852" lon="6.44684">
        <ele>2456</ele>
        <time>2018-10-17T08:47:44Z</time>
      </trkpt>
      <trkpt lat="45.84852" lon="6.44684">
        <ele>2456</ele>
        <time>2018-10-17T08:47:45Z</time>
      </trkpt>
      <trkpt lat="45.84852" lon="6.44684">
        <ele>2456</ele>
        <time>2018-10-17T08:47:46Z</time>
      </trkpt>
      <trkpt lat="45.84852" lon="6.44684">
        <ele>2456</ele>
        <time>2018-10-17T08:47:47Z</time>
      </trkpt>
      <trkpt lat="45.8485" lon="6.44682">
        <ele>2457</ele>
        <time>2018-10-17T08:47:48Z</time>
      </trkpt>
      <trkpt lat="45.8485" lon="6.44682">
        <ele>2457</ele>
        <time>2018-10-17T08:47:49Z</time>
      </trkpt>
      <trkpt lat="45.84849" lon="6.44681">
        <ele>2457</ele>
        <time>2018-10-17T08:47:50Z</time>
      </trkpt>
      <trkpt lat="45.84849" lon="6.44681">
        <ele>2457</ele>
        <time>2018-10-17T08:47:51Z</time>
      </trkpt>
      <trkpt lat="45.84849" lon="6.44681">
        <ele>2457</ele>
        <time>2018-10-17T08:47:52Z</time>
      </trkpt>
      <trkpt lat="45.84846" lon="6.44679">
        <ele>2457</ele>
        <time>2018-10-17T08:47:53Z</time>
      </trkpt>
      <trkpt lat="45.84846" lon="6.44679">
        <ele>2457</ele>
        <time>2018-10-17T08:47:54Z</time>
      </trkpt>
      <trkpt lat="45.84846" lon="6.44679">
        <ele>2457</ele>
        <time>2018-10-17T08:47:55Z</time>
      </trkpt>
      <trkpt lat="45.84844" lon="6.44679">
        <ele>2458</ele>
        <time>2018-10-17T08:47:56Z</time>
      </trkpt>
      <trkpt lat="45.84844" lon="6.44679">
        <ele>2458</ele>
        <time>2018-10-17T08:47:57Z</time>
      </trkpt>
      <trkpt lat="45.84844" lon="6.44679">
        <ele>2458</ele>
        <time>2018-10-17T08:47:58Z</time>
      </trkpt>
      <trkpt lat="45.84844" lon="6.44679">
        <ele>2458</ele>
        <time>2018-10-17T08:47:59Z</time>
      </trkpt>
      <trkpt lat="45.84844" lon="6.44679">
        <ele>2458</ele>
        <time>2018-10-17T08:48:00Z</time>
      </trkpt>
      <trkpt lat="45.84844" lon="6.44679">
        <ele>2458</ele>
        <time>2018-10-17T08:48:01Z</time>
      </trkpt>
      <trkpt lat="45.84844" lon="6.44679">
        <ele>2458</ele>
        <time>2018-10-17T08:48:02Z</time>
      </trkpt>
      <trkpt lat="45.84843" lon="6.44677">
        <ele>2458</ele>
        <time>2018-10-17T08:48:03Z</time>
      </trkpt>
      <trkpt lat="45.84843" lon="6.44677">
        <ele>2458</ele>
        <time>2018-10-17T08:48:04Z</time>
      </trkpt>
      <trkpt lat="45.84843" lon="6.44677">
        <ele>2458</ele>
        <time>2018-10-17T08:48:05Z</time>
      </trkpt>
      <trkpt lat="45.84843" lon="6.44677">
        <ele>2459</ele>
        <time>2018-10-17T08:48:06Z</time>
      </trkpt>
      <trkpt lat="45.84843" lon="6.44677">
        <ele>2459</ele>
        <time>2018-10-17T08:48:07Z</time>
      </trkpt>
      <trkpt lat="45.84843" lon="6.44677">
        <ele>2459</ele>
        <time>2018-10-17T08:48:08Z</time>
      </trkpt>
      <trkpt lat="45.84843" lon="6.44677">
        <ele>2459</ele>
        <time>2018-10-17T08:48:09Z</time>
      </trkpt>
      <trkpt lat="45.84843" lon="6.44677">
        <ele>2459</ele>
        <time>2018-10-17T08:48:10Z</time>
      </trkpt>
      <trkpt lat="45.84843" lon="6.44677">
        <ele>2458</ele>
        <time>2018-10-17T08:48:11Z</time>
      </trkpt>
      <trkpt lat="45.8484" lon="6.44676">
        <ele>2459</ele>
        <time>2018-10-17T08:48:12Z</time>
      </trkpt>
      <trkpt lat="45.8484" lon="6.44676">
        <ele>2459</ele>
        <time>2018-10-17T08:48:13Z</time>
      </trkpt>
      <trkpt lat="45.8484" lon="6.44676">
        <ele>2460</ele>
        <time>2018-10-17T08:48:14Z</time>
      </trkpt>
      <trkpt lat="45.84838" lon="6.44675">
        <ele>2460</ele>
        <time>2018-10-17T08:48:15Z</time>
      </trkpt>
      <trkpt lat="45.84838" lon="6.44675">
        <ele>2460</ele>
        <time>2018-10-17T08:48:16Z</time>
      </trkpt>
      <trkpt lat="45.84838" lon="6.44675">
        <ele>2460</ele>
        <time>2018-10-17T08:48:17Z</time>
      </trkpt>
      <trkpt lat="45.84838" lon="6.44675">
        <ele>2460</ele>
        <time>2018-10-17T08:48:18Z</time>
      </trkpt>
      <trkpt lat="45.84835" lon="6.44675">
        <ele>2460</ele>
        <time>2018-10-17T08:48:19Z</time>
      </trkpt>
      <trkpt lat="45.84835" lon="6.44675">
        <ele>2460</ele>
        <time>2018-10-17T08:48:20Z</time>
      </trkpt>
      <trkpt lat="45.84835" lon="6.44675">
        <ele>2460</ele>
        <time>2018-10-17T08:48:21Z</time>
      </trkpt>
      <trkpt lat="45.84835" lon="6.44675">
        <ele>2460</ele>
        <time>2018-10-17T08:48:22Z</time>
      </trkpt>
      <trkpt lat="45.84833" lon="6.44674">
        <ele>2460</ele>
        <time>2018-10-17T08:48:23Z</time>
      </trkpt>
      <trkpt lat="45.84833" lon="6.44674">
        <ele>2460</ele>
        <time>2018-10-17T08:48:24Z</time>
      </trkpt>
      <trkpt lat="45.84833" lon="6.44674">
        <ele>2460</ele>
        <time>2018-10-17T08:48:25Z</time>
      </trkpt>
      <trkpt lat="45.84831" lon="6.44673">
        <ele>2460</ele>
        <time>2018-10-17T08:48:26Z</time>
      </trkpt>
      <trkpt lat="45.84831" lon="6.44673">
        <ele>2460</ele>
        <time>2018-10-17T08:48:27Z</time>
      </trkpt>
      <trkpt lat="45.84831" lon="6.44673">
        <ele>2460</ele>
        <time>2018-10-17T08:48:28Z</time>
      </trkpt>
      <trkpt lat="45.84831" lon="6.44673">
        <ele>2460</ele>
        <time>2018-10-17T08:48:29Z</time>
      </trkpt>
      <trkpt lat="45.84831" lon="6.44673">
        <ele>2460</ele>
        <time>2018-10-17T08:48:30Z</time>
      </trkpt>
      <trkpt lat="45.84831" lon="6.44673">
        <ele>2460</ele>
        <time>2018-10-17T08:48:31Z</time>
      </trkpt>
      <trkpt lat="45.84829" lon="6.44672">
        <ele>2460</ele>
        <time>2018-10-17T08:48:32Z</time>
      </trkpt>
      <trkpt lat="45.84829" lon="6.44672">
        <ele>2460</ele>
        <time>2018-10-17T08:48:33Z</time>
      </trkpt>
      <trkpt lat="45.84826" lon="6.44672">
        <ele>2460</ele>
        <time>2018-10-17T08:48:34Z</time>
      </trkpt>
      <trkpt lat="45.84826" lon="6.44672">
        <ele>2460</ele>
        <time>2018-10-17T08:48:35Z</time>
      </trkpt>
      <trkpt lat="45.84826" lon="6.44672">
        <ele>2460</ele>
        <time>2018-10-17T08:48:36Z</time>
      </trkpt>
      <trkpt lat="45.84824" lon="6.4467">
        <ele>2460</ele>
        <time>2018-10-17T08:48:37Z</time>
      </trkpt>
      <trkpt lat="45.84824" lon="6.4467">
        <ele>2460</ele>
        <time>2018-10-17T08:48:38Z</time>
      </trkpt>
      <trkpt lat="45.84824" lon="6.4467">
        <ele>2460</ele>
        <time>2018-10-17T08:48:39Z</time>
      </trkpt>
      <trkpt lat="45.84824" lon="6.4467">
        <ele>2460</ele>
        <time>2018-10-17T08:48:40Z</time>
      </trkpt>
      <trkpt lat="45.84824" lon="6.4467">
        <ele>2460</ele>
        <time>2018-10-17T08:48:41Z</time>
      </trkpt>
      <trkpt lat="45.84824" lon="6.4467">
        <ele>2460</ele>
        <time>2018-10-17T08:48:42Z</time>
      </trkpt>
      <trkpt lat="45.84822" lon="6.4467">
        <ele>2460</ele>
        <time>2018-10-17T08:48:43Z</time>
      </trkpt>
      <trkpt lat="45.84822" lon="6.4467">
        <ele>2460</ele>
        <time>2018-10-17T08:48:44Z</time>
      </trkpt>
      <trkpt lat="45.84822" lon="6.4467">
        <ele>2460</ele>
        <time>2018-10-17T08:48:45Z</time>
      </trkpt>
      <trkpt lat="45.8482" lon="6.44669">
        <ele>2460</ele>
        <time>2018-10-17T08:48:46Z</time>
      </trkpt>
      <trkpt lat="45.8482" lon="6.44669">
        <ele>2460</ele>
        <time>2018-10-17T08:48:47Z</time>
      </trkpt>
      <trkpt lat="45.84818" lon="6.44668">
        <ele>2460</ele>
        <time>2018-10-17T08:48:48Z</time>
      </trkpt>
      <trkpt lat="45.84818" lon="6.44668">
        <ele>2460</ele>
        <time>2018-10-17T08:48:49Z</time>
      </trkpt>
      <trkpt lat="45.84818" lon="6.44668">
        <ele>2460</ele>
        <time>2018-10-17T08:48:50Z</time>
      </trkpt>
      <trkpt lat="45.84817" lon="6.44666">
        <ele>2460</ele>
        <time>2018-10-17T08:48:51Z</time>
      </trkpt>
      <trkpt lat="45.84817" lon="6.44666">
        <ele>2460</ele>
        <time>2018-10-17T08:48:52Z</time>
      </trkpt>
      <trkpt lat="45.84817" lon="6.44666">
        <ele>2460</ele>
        <time>2018-10-17T08:48:53Z</time>
      </trkpt>
      <trkpt lat="45.84817" lon="6.44666">
        <ele>2460</ele>
        <time>2018-10-17T08:48:54Z</time>
      </trkpt>
      <trkpt lat="45.84817" lon="6.44666">
        <ele>2460</ele>
        <time>2018-10-17T08:48:55Z</time>
      </trkpt>
      <trkpt lat="45.84817" lon="6.44666">
        <ele>2460</ele>
        <time>2018-10-17T08:48:56Z</time>
      </trkpt>
      <trkpt lat="45.84817" lon="6.44666">
        <ele>2460</ele>
        <time>2018-10-17T08:48:57Z</time>
      </trkpt>
      <trkpt lat="45.84817" lon="6.44666">
        <ele>2460</ele>
        <time>2018-10-17T08:48:58Z</time>
      </trkpt>
      <trkpt lat="45.84817" lon="6.44666">
        <ele>2460</ele>
        <time>2018-10-17T08:48:59Z</time>
      </trkpt>
      <trkpt lat="45.84817" lon="6.44666">
        <ele>2460</ele>
        <time>2018-10-17T08:49:00Z</time>
      </trkpt>
      <trkpt lat="45.84817" lon="6.44666">
        <ele>2460</ele>
        <time>2018-10-17T08:49:01Z</time>
      </trkpt>
      <trkpt lat="45.84817" lon="6.44666">
        <ele>2460</ele>
        <time>2018-10-17T08:49:02Z</time>
      </trkpt>
      <trkpt lat="45.84817" lon="6.44666">
        <ele>2460</ele>
        <time>2018-10-17T08:49:03Z</time>
      </trkpt>
      <trkpt lat="45.84817" lon="6.44666">
        <ele>2460</ele>
        <time>2018-10-17T08:49:04Z</time>
      </trkpt>
      <trkpt lat="45.84817" lon="6.44666">
        <ele>2460</ele>
        <time>2018-10-17T08:49:05Z</time>
      </trkpt>
      <trkpt lat="45.84817" lon="6.44666">
        <ele>2460</ele>
        <time>2018-10-17T08:49:06Z</time>
      </trkpt>
      <trkpt lat="45.84817" lon="6.44666">
        <ele>2460</ele>
        <time>2018-10-17T08:49:07Z</time>
      </trkpt>
      <trkpt lat="45.84817" lon="6.44666">
        <ele>2460</ele>
        <time>2018-10-17T08:49:08Z</time>
      </trkpt>
      <trkpt lat="45.84815" lon="6.44664">
        <ele>2460</ele>
        <time>2018-10-17T08:49:09Z</time>
      </trkpt>
      <trkpt lat="45.84815" lon="6.44664">
        <ele>2460</ele>
        <time>2018-10-17T08:49:10Z</time>
      </trkpt>
      <trkpt lat="45.84815" lon="6.44664">
        <ele>2460</ele>
        <time>2018-10-17T08:49:11Z</time>
      </trkpt>
      <trkpt lat="45.84815" lon="6.44664">
        <ele>2460</ele>
        <time>2018-10-17T08:49:12Z</time>
      </trkpt>
      <trkpt lat="45.84815" lon="6.44664">
        <ele>2460</ele>
        <time>2018-10-17T08:49:13Z</time>
      </trkpt>
      <trkpt lat="45.84815" lon="6.44664">
        <ele>2460</ele>
        <time>2018-10-17T08:49:14Z</time>
      </trkpt>
      <trkpt lat="45.84814" lon="6.44662">
        <ele>2460</ele>
        <time>2018-10-17T08:49:15Z</time>
      </trkpt>
      <trkpt lat="45.84814" lon="6.44662">
        <ele>2460</ele>
        <time>2018-10-17T08:49:16Z</time>
      </trkpt>
      <trkpt lat="45.84814" lon="6.44662">
        <ele>2460</ele>
        <time>2018-10-17T08:49:17Z</time>
      </trkpt>
      <trkpt lat="45.84814" lon="6.44662">
        <ele>2459</ele>
        <time>2018-10-17T08:49:18Z</time>
      </trkpt>
      <trkpt lat="45.84814" lon="6.44662">
        <ele>2459</ele>
        <time>2018-10-17T08:49:19Z</time>
      </trkpt>
      <trkpt lat="45.84814" lon="6.44662">
        <ele>2458</ele>
        <time>2018-10-17T08:49:20Z</time>
      </trkpt>
      <trkpt lat="45.84814" lon="6.44662">
        <ele>2458</ele>
        <time>2018-10-17T08:49:21Z</time>
      </trkpt>
      <trkpt lat="45.84814" lon="6.44662">
        <ele>2458</ele>
        <time>2018-10-17T08:49:22Z</time>
      </trkpt>
      <trkpt lat="45.84814" lon="6.44662">
        <ele>2458</ele>
        <time>2018-10-17T08:49:23Z</time>
      </trkpt>
      <trkpt lat="45.84812" lon="6.4466">
        <ele>2458</ele>
        <time>2018-10-17T08:49:24Z</time>
      </trkpt>
      <trkpt lat="45.84812" lon="6.4466">
        <ele>2458</ele>
        <time>2018-10-17T08:49:25Z</time>
      </trkpt>
      <trkpt lat="45.84812" lon="6.4466">
        <ele>2458</ele>
        <time>2018-10-17T08:49:26Z</time>
      </trkpt>
      <trkpt lat="45.84812" lon="6.4466">
        <ele>2458</ele>
        <time>2018-10-17T08:49:27Z</time>
      </trkpt>
      <trkpt lat="45.8481" lon="6.44658">
        <ele>2458</ele>
        <time>2018-10-17T08:49:28Z</time>
      </trkpt>
      <trkpt lat="45.8481" lon="6.44658">
        <ele>2458</ele>
        <time>2018-10-17T08:49:29Z</time>
      </trkpt>
      <trkpt lat="45.8481" lon="6.44658">
        <ele>2457</ele>
        <time>2018-10-17T08:49:30Z</time>
      </trkpt>
      <trkpt lat="45.8481" lon="6.44658">
        <ele>2457</ele>
        <time>2018-10-17T08:49:31Z</time>
      </trkpt>
      <trkpt lat="45.84809" lon="6.44656">
        <ele>2457</ele>
        <time>2018-10-17T08:49:32Z</time>
      </trkpt>
      <trkpt lat="45.84809" lon="6.44656">
        <ele>2458</ele>
        <time>2018-10-17T08:49:33Z</time>
      </trkpt>
      <trkpt lat="45.84809" lon="6.44656">
        <ele>2458</ele>
        <time>2018-10-17T08:49:34Z</time>
      </trkpt>
      <trkpt lat="45.84809" lon="6.44656">
        <ele>2458</ele>
        <time>2018-10-17T08:49:35Z</time>
      </trkpt>
      <trkpt lat="45.84809" lon="6.44656">
        <ele>2458</ele>
        <time>2018-10-17T08:49:36Z</time>
      </trkpt>
      <trkpt lat="45.84809" lon="6.44656">
        <ele>2457</ele>
        <time>2018-10-17T08:49:37Z</time>
      </trkpt>
      <trkpt lat="45.84808" lon="6.44653">
        <ele>2457</ele>
        <time>2018-10-17T08:49:38Z</time>
      </trkpt>
      <trkpt lat="45.84808" lon="6.44653">
        <ele>2457</ele>
        <time>2018-10-17T08:49:39Z</time>
      </trkpt>
      <trkpt lat="45.84808" lon="6.44653">
        <ele>2456</ele>
        <time>2018-10-17T08:49:40Z</time>
      </trkpt>
      <trkpt lat="45.84808" lon="6.44653">
        <ele>2456</ele>
        <time>2018-10-17T08:49:41Z</time>
      </trkpt>
      <trkpt lat="45.84808" lon="6.44653">
        <ele>2456</ele>
        <time>2018-10-17T08:49:42Z</time>
      </trkpt>
      <trkpt lat="45.84806" lon="6.44652">
        <ele>2456</ele>
        <time>2018-10-17T08:49:43Z</time>
      </trkpt>
      <trkpt lat="45.84806" lon="6.44652">
        <ele>2456</ele>
        <time>2018-10-17T08:49:44Z</time>
      </trkpt>
      <trkpt lat="45.84806" lon="6.44652">
        <ele>2456</ele>
        <time>2018-10-17T08:49:45Z</time>
      </trkpt>
      <trkpt lat="45.84806" lon="6.44652">
        <ele>2456</ele>
        <time>2018-10-17T08:49:46Z</time>
      </trkpt>
      <trkpt lat="45.84806" lon="6.44652">
        <ele>2456</ele>
        <time>2018-10-17T08:49:47Z</time>
      </trkpt>
      <trkpt lat="45.84806" lon="6.44652">
        <ele>2456</ele>
        <time>2018-10-17T08:49:48Z</time>
      </trkpt>
      <trkpt lat="45.84806" lon="6.44652">
        <ele>2456</ele>
        <time>2018-10-17T08:49:49Z</time>
      </trkpt>
      <trkpt lat="45.84806" lon="6.44652">
        <ele>2456</ele>
        <time>2018-10-17T08:49:50Z</time>
      </trkpt>
      <trkpt lat="45.84806" lon="6.44652">
        <ele>2456</ele>
        <time>2018-10-17T08:49:51Z</time>
      </trkpt>
      <trkpt lat="45.84804" lon="6.44652">
        <ele>2456</ele>
        <time>2018-10-17T08:49:52Z</time>
      </trkpt>
      <trkpt lat="45.84804" lon="6.44652">
        <ele>2456</ele>
        <time>2018-10-17T08:49:53Z</time>
      </trkpt>
      <trkpt lat="45.84804" lon="6.44652">
        <ele>2456</ele>
        <time>2018-10-17T08:49:54Z</time>
      </trkpt>
      <trkpt lat="45.84804" lon="6.44652">
        <ele>2455</ele>
        <time>2018-10-17T08:49:55Z</time>
      </trkpt>
      <trkpt lat="45.84804" lon="6.44652">
        <ele>2455</ele>
        <time>2018-10-17T08:49:56Z</time>
      </trkpt>
      <trkpt lat="45.84804" lon="6.44652">
        <ele>2455</ele>
        <time>2018-10-17T08:49:57Z</time>
      </trkpt>
      <trkpt lat="45.84804" lon="6.44652">
        <ele>2455</ele>
        <time>2018-10-17T08:49:58Z</time>
      </trkpt>
      <trkpt lat="45.84803" lon="6.44654">
        <ele>2455</ele>
        <time>2018-10-17T08:49:59Z</time>
      </trkpt>
      <trkpt lat="45.84803" lon="6.44654">
        <ele>2454</ele>
        <time>2018-10-17T08:50:00Z</time>
      </trkpt>
      <trkpt lat="45.84803" lon="6.44654">
        <ele>2454</ele>
        <time>2018-10-17T08:50:01Z</time>
      </trkpt>
      <trkpt lat="45.84803" lon="6.44654">
        <ele>2454</ele>
        <time>2018-10-17T08:50:02Z</time>
      </trkpt>
      <trkpt lat="45.84803" lon="6.44654">
        <ele>2454</ele>
        <time>2018-10-17T08:50:03Z</time>
      </trkpt>
      <trkpt lat="45.84803" lon="6.44654">
        <ele>2453</ele>
        <time>2018-10-17T08:50:04Z</time>
      </trkpt>
      <trkpt lat="45.84801" lon="6.44654">
        <ele>2453</ele>
        <time>2018-10-17T08:50:05Z</time>
      </trkpt>
      <trkpt lat="45.84801" lon="6.44654">
        <ele>2453</ele>
        <time>2018-10-17T08:50:06Z</time>
      </trkpt>
      <trkpt lat="45.84801" lon="6.44654">
        <ele>2453</ele>
        <time>2018-10-17T08:50:07Z</time>
      </trkpt>
      <trkpt lat="45.84799" lon="6.44655">
        <ele>2453</ele>
        <time>2018-10-17T08:50:08Z</time>
      </trkpt>
      <trkpt lat="45.84799" lon="6.44655">
        <ele>2453</ele>
        <time>2018-10-17T08:50:09Z</time>
      </trkpt>
      <trkpt lat="45.84799" lon="6.44655">
        <ele>2453</ele>
        <time>2018-10-17T08:50:10Z</time>
      </trkpt>
      <trkpt lat="45.84799" lon="6.44655">
        <ele>2453</ele>
        <time>2018-10-17T08:50:11Z</time>
      </trkpt>
      <trkpt lat="45.84797" lon="6.44655">
        <ele>2453</ele>
        <time>2018-10-17T08:50:12Z</time>
      </trkpt>
      <trkpt lat="45.84797" lon="6.44655">
        <ele>2452</ele>
        <time>2018-10-17T08:50:13Z</time>
      </trkpt>
      <trkpt lat="45.84797" lon="6.44655">
        <ele>2452</ele>
        <time>2018-10-17T08:50:14Z</time>
      </trkpt>
      <trkpt lat="45.84797" lon="6.44655">
        <ele>2452</ele>
        <time>2018-10-17T08:50:15Z</time>
      </trkpt>
      <trkpt lat="45.84797" lon="6.44655">
        <ele>2452</ele>
        <time>2018-10-17T08:50:16Z</time>
      </trkpt>
      <trkpt lat="45.84797" lon="6.44655">
        <ele>2452</ele>
        <time>2018-10-17T08:50:17Z</time>
      </trkpt>
      <trkpt lat="45.84797" lon="6.44655">
        <ele>2452</ele>
        <time>2018-10-17T08:50:18Z</time>
      </trkpt>
      <trkpt lat="45.84797" lon="6.44655">
        <ele>2453</ele>
        <time>2018-10-17T08:50:19Z</time>
      </trkpt>
      <trkpt lat="45.84797" lon="6.44655">
        <ele>2453</ele>
        <time>2018-10-17T08:50:20Z</time>
      </trkpt>
      <trkpt lat="45.84797" lon="6.44655">
        <ele>2453</ele>
        <time>2018-10-17T08:50:21Z</time>
      </trkpt>
      <trkpt lat="45.84797" lon="6.44655">
        <ele>2453</ele>
        <time>2018-10-17T08:50:22Z</time>
      </trkpt>
      <trkpt lat="45.84795" lon="6.44656">
        <ele>2453</ele>
        <time>2018-10-17T08:50:23Z</time>
      </trkpt>
      <trkpt lat="45.84795" lon="6.44656">
        <ele>2453</ele>
        <time>2018-10-17T08:50:24Z</time>
      </trkpt>
      <trkpt lat="45.84795" lon="6.44656">
        <ele>2453</ele>
        <time>2018-10-17T08:50:25Z</time>
      </trkpt>
      <trkpt lat="45.84795" lon="6.44656">
        <ele>2453</ele>
        <time>2018-10-17T08:50:26Z</time>
      </trkpt>
      <trkpt lat="45.84795" lon="6.44656">
        <ele>2453</ele>
        <time>2018-10-17T08:50:27Z</time>
      </trkpt>
      <trkpt lat="45.84795" lon="6.44656">
        <ele>2453</ele>
        <time>2018-10-17T08:50:28Z</time>
      </trkpt>
      <trkpt lat="45.84795" lon="6.44656">
        <ele>2453</ele>
        <time>2018-10-17T08:50:29Z</time>
      </trkpt>
      <trkpt lat="45.84795" lon="6.44656">
        <ele>2452</ele>
        <time>2018-10-17T08:50:30Z</time>
      </trkpt>
      <trkpt lat="45.84795" lon="6.44656">
        <ele>2452</ele>
        <time>2018-10-17T08:50:31Z</time>
      </trkpt>
      <trkpt lat="45.84795" lon="6.44656">
        <ele>2452</ele>
        <time>2018-10-17T08:50:32Z</time>
      </trkpt>
      <trkpt lat="45.84795" lon="6.44656">
        <ele>2452</ele>
        <time>2018-10-17T08:50:33Z</time>
      </trkpt>
      <trkpt lat="45.84795" lon="6.44656">
        <ele>2452</ele>
        <time>2018-10-17T08:50:34Z</time>
      </trkpt>
      <trkpt lat="45.84795" lon="6.44656">
        <ele>2452</ele>
        <time>2018-10-17T08:50:35Z</time>
      </trkpt>
      <trkpt lat="45.84795" lon="6.44656">
        <ele>2452</ele>
        <time>2018-10-17T08:50:36Z</time>
      </trkpt>
      <trkpt lat="45.84795" lon="6.44656">
        <ele>2452</ele>
        <time>2018-10-17T08:50:37Z</time>
      </trkpt>
      <trkpt lat="45.84795" lon="6.44656">
        <ele>2452</ele>
        <time>2018-10-17T08:50:38Z</time>
      </trkpt>
      <trkpt lat="45.84795" lon="6.44656">
        <ele>2452</ele>
        <time>2018-10-17T08:50:39Z</time>
      </trkpt>
      <trkpt lat="45.84795" lon="6.44656">
        <ele>2452</ele>
        <time>2018-10-17T08:50:40Z</time>
      </trkpt>
      <trkpt lat="45.84795" lon="6.44656">
        <ele>2452</ele>
        <time>2018-10-17T08:50:41Z</time>
      </trkpt>
      <trkpt lat="45.84795" lon="6.44656">
        <ele>2452</ele>
        <time>2018-10-17T08:50:42Z</time>
      </trkpt>
      <trkpt lat="45.84795" lon="6.44656">
        <ele>2452</ele>
        <time>2018-10-17T08:50:43Z</time>
      </trkpt>
      <trkpt lat="45.84795" lon="6.44656">
        <ele>2452</ele>
        <time>2018-10-17T08:50:44Z</time>
      </trkpt>
      <trkpt lat="45.84795" lon="6.44656">
        <ele>2451</ele>
        <time>2018-10-17T08:50:45Z</time>
      </trkpt>
      <trkpt lat="45.84795" lon="6.44656">
        <ele>2451</ele>
        <time>2018-10-17T08:50:46Z</time>
      </trkpt>
      <trkpt lat="45.84795" lon="6.44656">
        <ele>2451</ele>
        <time>2018-10-17T08:50:47Z</time>
      </trkpt>
      <trkpt lat="45.84795" lon="6.44656">
        <ele>2451</ele>
        <time>2018-10-17T08:50:48Z</time>
      </trkpt>
      <trkpt lat="45.84795" lon="6.44656">
        <ele>2452</ele>
        <time>2018-10-17T08:50:49Z</time>
      </trkpt>
      <trkpt lat="45.84795" lon="6.44656">
        <ele>2452</ele>
        <time>2018-10-17T08:50:50Z</time>
      </trkpt>
      <trkpt lat="45.84795" lon="6.44656">
        <ele>2452</ele>
        <time>2018-10-17T08:50:51Z</time>
      </trkpt>
      <trkpt lat="45.84795" lon="6.44656">
        <ele>2452</ele>
        <time>2018-10-17T08:50:52Z</time>
      </trkpt>
      <trkpt lat="45.84793" lon="6.44656">
        <ele>2452</ele>
        <time>2018-10-17T08:50:53Z</time>
      </trkpt>
      <trkpt lat="45.84793" lon="6.44656">
        <ele>2452</ele>
        <time>2018-10-17T08:50:54Z</time>
      </trkpt>
      <trkpt lat="45.84791" lon="6.44655">
        <ele>2452</ele>
        <time>2018-10-17T08:50:55Z</time>
      </trkpt>
      <trkpt lat="45.84791" lon="6.44655">
        <ele>2452</ele>
        <time>2018-10-17T08:50:56Z</time>
      </trkpt>
      <trkpt lat="45.84791" lon="6.44655">
        <ele>2452</ele>
        <time>2018-10-17T08:50:57Z</time>
      </trkpt>
      <trkpt lat="45.84791" lon="6.44655">
        <ele>2452</ele>
        <time>2018-10-17T08:50:58Z</time>
      </trkpt>
      <trkpt lat="45.84789" lon="6.44654">
        <ele>2452</ele>
        <time>2018-10-17T08:50:59Z</time>
      </trkpt>
      <trkpt lat="45.84789" lon="6.44654">
        <ele>2452</ele>
        <time>2018-10-17T08:51:00Z</time>
      </trkpt>
      <trkpt lat="45.84787" lon="6.44654">
        <ele>2451</ele>
        <time>2018-10-17T08:51:01Z</time>
      </trkpt>
      <trkpt lat="45.84787" lon="6.44654">
        <ele>2451</ele>
        <time>2018-10-17T08:51:02Z</time>
      </trkpt>
      <trkpt lat="45.84787" lon="6.44654">
        <ele>2451</ele>
        <time>2018-10-17T08:51:03Z</time>
      </trkpt>
      <trkpt lat="45.84787" lon="6.44654">
        <ele>2451</ele>
        <time>2018-10-17T08:51:04Z</time>
      </trkpt>
      <trkpt lat="45.84785" lon="6.44652">
        <ele>2451</ele>
        <time>2018-10-17T08:51:05Z</time>
      </trkpt>
      <trkpt lat="45.84785" lon="6.44652">
        <ele>2451</ele>
        <time>2018-10-17T08:51:06Z</time>
      </trkpt>
      <trkpt lat="45.84782" lon="6.44652">
        <ele>2451</ele>
        <time>2018-10-17T08:51:07Z</time>
      </trkpt>
      <trkpt lat="45.84782" lon="6.44652">
        <ele>2451</ele>
        <time>2018-10-17T08:51:08Z</time>
      </trkpt>
      <trkpt lat="45.84782" lon="6.44652">
        <ele>2451</ele>
        <time>2018-10-17T08:51:09Z</time>
      </trkpt>
      <trkpt lat="45.84782" lon="6.44652">
        <ele>2451</ele>
        <time>2018-10-17T08:51:10Z</time>
      </trkpt>
      <trkpt lat="45.8478" lon="6.44649">
        <ele>2450</ele>
        <time>2018-10-17T08:51:11Z</time>
      </trkpt>
      <trkpt lat="45.8478" lon="6.44649">
        <ele>2450</ele>
        <time>2018-10-17T08:51:12Z</time>
      </trkpt>
      <trkpt lat="45.84779" lon="6.44649">
        <ele>2450</ele>
        <time>2018-10-17T08:51:13Z</time>
      </trkpt>
      <trkpt lat="45.84779" lon="6.44649">
        <ele>2450</ele>
        <time>2018-10-17T08:51:14Z</time>
      </trkpt>
      <trkpt lat="45.84779" lon="6.44649">
        <ele>2450</ele>
        <time>2018-10-17T08:51:15Z</time>
      </trkpt>
      <trkpt lat="45.84779" lon="6.44649">
        <ele>2450</ele>
        <time>2018-10-17T08:51:16Z</time>
      </trkpt>
      <trkpt lat="45.84777" lon="6.44648">
        <ele>2450</ele>
        <time>2018-10-17T08:51:17Z</time>
      </trkpt>
      <trkpt lat="45.84777" lon="6.44648">
        <ele>2450</ele>
        <time>2018-10-17T08:51:18Z</time>
      </trkpt>
      <trkpt lat="45.84775" lon="6.44647">
        <ele>2450</ele>
        <time>2018-10-17T08:51:19Z</time>
      </trkpt>
      <trkpt lat="45.84775" lon="6.44647">
        <ele>2450</ele>
        <time>2018-10-17T08:51:20Z</time>
      </trkpt>
      <trkpt lat="45.84773" lon="6.44645">
        <ele>2450</ele>
        <time>2018-10-17T08:51:21Z</time>
      </trkpt>
      <trkpt lat="45.84773" lon="6.44645">
        <ele>2451</ele>
        <time>2018-10-17T08:51:22Z</time>
      </trkpt>
      <trkpt lat="45.84773" lon="6.44645">
        <ele>2451</ele>
        <time>2018-10-17T08:51:23Z</time>
      </trkpt>
      <trkpt lat="45.84771" lon="6.44645">
        <ele>2451</ele>
        <time>2018-10-17T08:51:24Z</time>
      </trkpt>
      <trkpt lat="45.84771" lon="6.44645">
        <ele>2451</ele>
        <time>2018-10-17T08:51:25Z</time>
      </trkpt>
      <trkpt lat="45.84771" lon="6.44645">
        <ele>2451</ele>
        <time>2018-10-17T08:51:26Z</time>
      </trkpt>
      <trkpt lat="45.84769" lon="6.44644">
        <ele>2451</ele>
        <time>2018-10-17T08:51:27Z</time>
      </trkpt>
      <trkpt lat="45.84769" lon="6.44644">
        <ele>2451</ele>
        <time>2018-10-17T08:51:28Z</time>
      </trkpt>
      <trkpt lat="45.84769" lon="6.44644">
        <ele>2452</ele>
        <time>2018-10-17T08:51:29Z</time>
      </trkpt>
      <trkpt lat="45.84769" lon="6.44644">
        <ele>2452</ele>
        <time>2018-10-17T08:51:30Z</time>
      </trkpt>
      <trkpt lat="45.84767" lon="6.44643">
        <ele>2452</ele>
        <time>2018-10-17T08:51:31Z</time>
      </trkpt>
      <trkpt lat="45.84767" lon="6.44643">
        <ele>2452</ele>
        <time>2018-10-17T08:51:32Z</time>
      </trkpt>
      <trkpt lat="45.84767" lon="6.44643">
        <ele>2452</ele>
        <time>2018-10-17T08:51:33Z</time>
      </trkpt>
      <trkpt lat="45.84767" lon="6.44643">
        <ele>2453</ele>
        <time>2018-10-17T08:51:34Z</time>
      </trkpt>
      <trkpt lat="45.84767" lon="6.44643">
        <ele>2453</ele>
        <time>2018-10-17T08:51:35Z</time>
      </trkpt>
      <trkpt lat="45.84765" lon="6.44642">
        <ele>2453</ele>
        <time>2018-10-17T08:51:36Z</time>
      </trkpt>
      <trkpt lat="45.84765" lon="6.44642">
        <ele>2453</ele>
        <time>2018-10-17T08:51:37Z</time>
      </trkpt>
      <trkpt lat="45.84765" lon="6.44642">
        <ele>2453</ele>
        <time>2018-10-17T08:51:38Z</time>
      </trkpt>
      <trkpt lat="45.84765" lon="6.44642">
        <ele>2453</ele>
        <time>2018-10-17T08:51:39Z</time>
      </trkpt>
      <trkpt lat="45.84763" lon="6.44641">
        <ele>2453</ele>
        <time>2018-10-17T08:51:40Z</time>
      </trkpt>
      <trkpt lat="45.84763" lon="6.44641">
        <ele>2453</ele>
        <time>2018-10-17T08:51:41Z</time>
      </trkpt>
      <trkpt lat="45.84761" lon="6.44641">
        <ele>2454</ele>
        <time>2018-10-17T08:51:42Z</time>
      </trkpt>
      <trkpt lat="45.84761" lon="6.44641">
        <ele>2454</ele>
        <time>2018-10-17T08:51:43Z</time>
      </trkpt>
      <trkpt lat="45.84761" lon="6.44641">
        <ele>2454</ele>
        <time>2018-10-17T08:51:44Z</time>
      </trkpt>
      <trkpt lat="45.84759" lon="6.4464">
        <ele>2454</ele>
        <time>2018-10-17T08:51:45Z</time>
      </trkpt>
      <trkpt lat="45.84759" lon="6.4464">
        <ele>2454</ele>
        <time>2018-10-17T08:51:46Z</time>
      </trkpt>
      <trkpt lat="45.84759" lon="6.4464">
        <ele>2454</ele>
        <time>2018-10-17T08:51:47Z</time>
      </trkpt>
      <trkpt lat="45.84757" lon="6.4464">
        <ele>2454</ele>
        <time>2018-10-17T08:51:48Z</time>
      </trkpt>
      <trkpt lat="45.84757" lon="6.4464">
        <ele>2454</ele>
        <time>2018-10-17T08:51:49Z</time>
      </trkpt>
      <trkpt lat="45.84757" lon="6.4464">
        <ele>2454</ele>
        <time>2018-10-17T08:51:50Z</time>
      </trkpt>
      <trkpt lat="45.84757" lon="6.4464">
        <ele>2454</ele>
        <time>2018-10-17T08:51:51Z</time>
      </trkpt>
      <trkpt lat="45.84755" lon="6.44641">
        <ele>2454</ele>
        <time>2018-10-17T08:51:52Z</time>
      </trkpt>
      <trkpt lat="45.84755" lon="6.44641">
        <ele>2454</ele>
        <time>2018-10-17T08:51:53Z</time>
      </trkpt>
      <trkpt lat="45.84755" lon="6.44641">
        <ele>2454</ele>
        <time>2018-10-17T08:51:54Z</time>
      </trkpt>
      <trkpt lat="45.84753" lon="6.44642">
        <ele>2454</ele>
        <time>2018-10-17T08:51:55Z</time>
      </trkpt>
      <trkpt lat="45.84753" lon="6.44642">
        <ele>2454</ele>
        <time>2018-10-17T08:51:56Z</time>
      </trkpt>
      <trkpt lat="45.84753" lon="6.44642">
        <ele>2455</ele>
        <time>2018-10-17T08:51:57Z</time>
      </trkpt>
      <trkpt lat="45.84753" lon="6.44642">
        <ele>2455</ele>
        <time>2018-10-17T08:51:58Z</time>
      </trkpt>
      <trkpt lat="45.84753" lon="6.44642">
        <ele>2455</ele>
        <time>2018-10-17T08:51:59Z</time>
      </trkpt>
      <trkpt lat="45.84753" lon="6.44642">
        <ele>2455</ele>
        <time>2018-10-17T08:52:00Z</time>
      </trkpt>
      <trkpt lat="45.84753" lon="6.44642">
        <ele>2455</ele>
        <time>2018-10-17T08:52:01Z</time>
      </trkpt>
      <trkpt lat="45.84753" lon="6.44642">
        <ele>2455</ele>
        <time>2018-10-17T08:52:02Z</time>
      </trkpt>
      <trkpt lat="45.84753" lon="6.44642">
        <ele>2455</ele>
        <time>2018-10-17T08:52:03Z</time>
      </trkpt>
      <trkpt lat="45.84753" lon="6.44642">
        <ele>2455</ele>
        <time>2018-10-17T08:52:04Z</time>
      </trkpt>
      <trkpt lat="45.84753" lon="6.44642">
        <ele>2455</ele>
        <time>2018-10-17T08:52:05Z</time>
      </trkpt>
      <trkpt lat="45.84753" lon="6.44642">
        <ele>2455</ele>
        <time>2018-10-17T08:52:06Z</time>
      </trkpt>
      <trkpt lat="45.84753" lon="6.44642">
        <ele>2456</ele>
        <time>2018-10-17T08:52:07Z</time>
      </trkpt>
      <trkpt lat="45.84751" lon="6.44642">
        <ele>2456</ele>
        <time>2018-10-17T08:52:08Z</time>
      </trkpt>
      <trkpt lat="45.84751" lon="6.44642">
        <ele>2457</ele>
        <time>2018-10-17T08:52:09Z</time>
      </trkpt>
      <trkpt lat="45.84751" lon="6.44642">
        <ele>2457</ele>
        <time>2018-10-17T08:52:10Z</time>
      </trkpt>
      <trkpt lat="45.8475" lon="6.44644">
        <ele>2457</ele>
        <time>2018-10-17T08:52:11Z</time>
      </trkpt>
      <trkpt lat="45.8475" lon="6.44644">
        <ele>2457</ele>
        <time>2018-10-17T08:52:12Z</time>
      </trkpt>
      <trkpt lat="45.8475" lon="6.44644">
        <ele>2457</ele>
        <time>2018-10-17T08:52:13Z</time>
      </trkpt>
      <trkpt lat="45.8475" lon="6.44644">
        <ele>2457</ele>
        <time>2018-10-17T08:52:14Z</time>
      </trkpt>
      <trkpt lat="45.8475" lon="6.44644">
        <ele>2457</ele>
        <time>2018-10-17T08:52:15Z</time>
      </trkpt>
      <trkpt lat="45.8475" lon="6.44644">
        <ele>2457</ele>
        <time>2018-10-17T08:52:16Z</time>
      </trkpt>
      <trkpt lat="45.8475" lon="6.44644">
        <ele>2457</ele>
        <time>2018-10-17T08:52:17Z</time>
      </trkpt>
      <trkpt lat="45.8475" lon="6.44644">
        <ele>2457</ele>
        <time>2018-10-17T08:52:18Z</time>
      </trkpt>
      <trkpt lat="45.8475" lon="6.44644">
        <ele>2457</ele>
        <time>2018-10-17T08:52:19Z</time>
      </trkpt>
      <trkpt lat="45.84748" lon="6.44644">
        <ele>2457</ele>
        <time>2018-10-17T08:52:20Z</time>
      </trkpt>
      <trkpt lat="45.84748" lon="6.44644">
        <ele>2457</ele>
        <time>2018-10-17T08:52:21Z</time>
      </trkpt>
      <trkpt lat="45.84748" lon="6.44644">
        <ele>2457</ele>
        <time>2018-10-17T08:52:22Z</time>
      </trkpt>
      <trkpt lat="45.84748" lon="6.44644">
        <ele>2457</ele>
        <time>2018-10-17T08:52:23Z</time>
      </trkpt>
      <trkpt lat="45.84748" lon="6.44644">
        <ele>2457</ele>
        <time>2018-10-17T08:52:24Z</time>
      </trkpt>
      <trkpt lat="45.84748" lon="6.44644">
        <ele>2457</ele>
        <time>2018-10-17T08:52:25Z</time>
      </trkpt>
      <trkpt lat="45.84748" lon="6.44644">
        <ele>2457</ele>
        <time>2018-10-17T08:52:26Z</time>
      </trkpt>
      <trkpt lat="45.84748" lon="6.44644">
        <ele>2458</ele>
        <time>2018-10-17T08:52:27Z</time>
      </trkpt>
      <trkpt lat="45.84748" lon="6.44644">
        <ele>2458</ele>
        <time>2018-10-17T08:52:28Z</time>
      </trkpt>
      <trkpt lat="45.84748" lon="6.44644">
        <ele>2458</ele>
        <time>2018-10-17T08:52:29Z</time>
      </trkpt>
      <trkpt lat="45.84748" lon="6.44644">
        <ele>2458</ele>
        <time>2018-10-17T08:52:30Z</time>
      </trkpt>
      <trkpt lat="45.84748" lon="6.44644">
        <ele>2458</ele>
        <time>2018-10-17T08:52:31Z</time>
      </trkpt>
      <trkpt lat="45.84748" lon="6.44644">
        <ele>2458</ele>
        <time>2018-10-17T08:52:32Z</time>
      </trkpt>
      <trkpt lat="45.84748" lon="6.44644">
        <ele>2459</ele>
        <time>2018-10-17T08:52:33Z</time>
      </trkpt>
      <trkpt lat="45.84748" lon="6.44644">
        <ele>2459</ele>
        <time>2018-10-17T08:52:34Z</time>
      </trkpt>
      <trkpt lat="45.84748" lon="6.44644">
        <ele>2459</ele>
        <time>2018-10-17T08:52:35Z</time>
      </trkpt>
      <trkpt lat="45.84746" lon="6.44642">
        <ele>2459</ele>
        <time>2018-10-17T08:52:36Z</time>
      </trkpt>
      <trkpt lat="45.84746" lon="6.44642">
        <ele>2459</ele>
        <time>2018-10-17T08:52:37Z</time>
      </trkpt>
      <trkpt lat="45.84746" lon="6.44642">
        <ele>2459</ele>
        <time>2018-10-17T08:52:38Z</time>
      </trkpt>
      <trkpt lat="45.84746" lon="6.44642">
        <ele>2459</ele>
        <time>2018-10-17T08:52:39Z</time>
      </trkpt>
      <trkpt lat="45.84746" lon="6.44642">
        <ele>2459</ele>
        <time>2018-10-17T08:52:40Z</time>
      </trkpt>
      <trkpt lat="45.84746" lon="6.44642">
        <ele>2459</ele>
        <time>2018-10-17T08:52:41Z</time>
      </trkpt>
      <trkpt lat="45.84746" lon="6.44642">
        <ele>2459</ele>
        <time>2018-10-17T08:52:42Z</time>
      </trkpt>
      <trkpt lat="45.84746" lon="6.44642">
        <ele>2459</ele>
        <time>2018-10-17T08:52:43Z</time>
      </trkpt>
      <trkpt lat="45.84746" lon="6.44642">
        <ele>2459</ele>
        <time>2018-10-17T08:52:44Z</time>
      </trkpt>
      <trkpt lat="45.84746" lon="6.44642">
        <ele>2460</ele>
        <time>2018-10-17T08:52:45Z</time>
      </trkpt>
      <trkpt lat="45.84744" lon="6.44642">
        <ele>2460</ele>
        <time>2018-10-17T08:52:46Z</time>
      </trkpt>
      <trkpt lat="45.84744" lon="6.44642">
        <ele>2460</ele>
        <time>2018-10-17T08:52:47Z</time>
      </trkpt>
      <trkpt lat="45.84744" lon="6.44642">
        <ele>2460</ele>
        <time>2018-10-17T08:52:48Z</time>
      </trkpt>
      <trkpt lat="45.84744" lon="6.44642">
        <ele>2460</ele>
        <time>2018-10-17T08:52:49Z</time>
      </trkpt>
      <trkpt lat="45.84744" lon="6.44642">
        <ele>2460</ele>
        <time>2018-10-17T08:52:50Z</time>
      </trkpt>
      <trkpt lat="45.84744" lon="6.44642">
        <ele>2460</ele>
        <time>2018-10-17T08:52:51Z</time>
      </trkpt>
      <trkpt lat="45.84744" lon="6.44642">
        <ele>2461</ele>
        <time>2018-10-17T08:52:52Z</time>
      </trkpt>
      <trkpt lat="45.84744" lon="6.44642">
        <ele>2461</ele>
        <time>2018-10-17T08:52:53Z</time>
      </trkpt>
      <trkpt lat="45.84744" lon="6.44642">
        <ele>2461</ele>
        <time>2018-10-17T08:52:54Z</time>
      </trkpt>
      <trkpt lat="45.84744" lon="6.44642">
        <ele>2461</ele>
        <time>2018-10-17T08:52:55Z</time>
      </trkpt>
      <trkpt lat="45.84744" lon="6.44642">
        <ele>2461</ele>
        <time>2018-10-17T08:52:56Z</time>
      </trkpt>
      <trkpt lat="45.84744" lon="6.44642">
        <ele>2461</ele>
        <time>2018-10-17T08:52:57Z</time>
      </trkpt>
      <trkpt lat="45.84744" lon="6.44642">
        <ele>2461</ele>
        <time>2018-10-17T08:52:58Z</time>
      </trkpt>
      <trkpt lat="45.84744" lon="6.44642">
        <ele>2461</ele>
        <time>2018-10-17T08:52:59Z</time>
      </trkpt>
      <trkpt lat="45.84744" lon="6.44642">
        <ele>2461</ele>
        <time>2018-10-17T08:53:00Z</time>
      </trkpt>
      <trkpt lat="45.84744" lon="6.44642">
        <ele>2461</ele>
        <time>2018-10-17T08:53:01Z</time>
      </trkpt>
      <trkpt lat="45.84742" lon="6.4464">
        <ele>2461</ele>
        <time>2018-10-17T08:53:02Z</time>
      </trkpt>
      <trkpt lat="45.84742" lon="6.4464">
        <ele>2461</ele>
        <time>2018-10-17T08:53:03Z</time>
      </trkpt>
      <trkpt lat="45.84742" lon="6.4464">
        <ele>2461</ele>
        <time>2018-10-17T08:53:04Z</time>
      </trkpt>
      <trkpt lat="45.84742" lon="6.4464">
        <ele>2461</ele>
        <time>2018-10-17T08:53:05Z</time>
      </trkpt>
      <trkpt lat="45.84742" lon="6.4464">
        <ele>2461</ele>
        <time>2018-10-17T08:53:06Z</time>
      </trkpt>
      <trkpt lat="45.84742" lon="6.4464">
        <ele>2461</ele>
        <time>2018-10-17T08:53:07Z</time>
      </trkpt>
      <trkpt lat="45.84742" lon="6.4464">
        <ele>2461</ele>
        <time>2018-10-17T08:53:08Z</time>
      </trkpt>
      <trkpt lat="45.8474" lon="6.44639">
        <ele>2461</ele>
        <time>2018-10-17T08:53:09Z</time>
      </trkpt>
      <trkpt lat="45.8474" lon="6.44639">
        <ele>2461</ele>
        <time>2018-10-17T08:53:10Z</time>
      </trkpt>
      <trkpt lat="45.8474" lon="6.44639">
        <ele>2461</ele>
        <time>2018-10-17T08:53:11Z</time>
      </trkpt>
      <trkpt lat="45.84739" lon="6.44638">
        <ele>2461</ele>
        <time>2018-10-17T08:53:12Z</time>
      </trkpt>
      <trkpt lat="45.84739" lon="6.44638">
        <ele>2461</ele>
        <time>2018-10-17T08:53:13Z</time>
      </trkpt>
      <trkpt lat="45.84739" lon="6.44638">
        <ele>2461</ele>
        <time>2018-10-17T08:53:14Z</time>
      </trkpt>
      <trkpt lat="45.84739" lon="6.44638">
        <ele>2461</ele>
        <time>2018-10-17T08:53:15Z</time>
      </trkpt>
      <trkpt lat="45.84739" lon="6.44638">
        <ele>2461</ele>
        <time>2018-10-17T08:53:16Z</time>
      </trkpt>
      <trkpt lat="45.84739" lon="6.44638">
        <ele>2461</ele>
        <time>2018-10-17T08:53:17Z</time>
      </trkpt>
      <trkpt lat="45.84739" lon="6.44638">
        <ele>2461</ele>
        <time>2018-10-17T08:53:18Z</time>
      </trkpt>
      <trkpt lat="45.84737" lon="6.44637">
        <ele>2461</ele>
        <time>2018-10-17T08:53:19Z</time>
      </trkpt>
      <trkpt lat="45.84737" lon="6.44637">
        <ele>2461</ele>
        <time>2018-10-17T08:53:20Z</time>
      </trkpt>
      <trkpt lat="45.84737" lon="6.44637">
        <ele>2461</ele>
        <time>2018-10-17T08:53:21Z</time>
      </trkpt>
      <trkpt lat="45.84737" lon="6.44637">
        <ele>2461</ele>
        <time>2018-10-17T08:53:22Z</time>
      </trkpt>
      <trkpt lat="45.84737" lon="6.44637">
        <ele>2461</ele>
        <time>2018-10-17T08:53:23Z</time>
      </trkpt>
      <trkpt lat="45.84737" lon="6.44637">
        <ele>2461</ele>
        <time>2018-10-17T08:53:24Z</time>
      </trkpt>
      <trkpt lat="45.84737" lon="6.44637">
        <ele>2461</ele>
        <time>2018-10-17T08:53:25Z</time>
      </trkpt>
      <trkpt lat="45.84736" lon="6.44635">
        <ele>2461</ele>
        <time>2018-10-17T08:53:26Z</time>
      </trkpt>
      <trkpt lat="45.84736" lon="6.44635">
        <ele>2461</ele>
        <time>2018-10-17T08:53:27Z</time>
      </trkpt>
      <trkpt lat="45.84736" lon="6.44635">
        <ele>2462</ele>
        <time>2018-10-17T08:53:28Z</time>
      </trkpt>
      <trkpt lat="45.84736" lon="6.44635">
        <ele>2462</ele>
        <time>2018-10-17T08:53:29Z</time>
      </trkpt>
      <trkpt lat="45.84736" lon="6.44635">
        <ele>2462</ele>
        <time>2018-10-17T08:53:30Z</time>
      </trkpt>
      <trkpt lat="45.84736" lon="6.44635">
        <ele>2462</ele>
        <time>2018-10-17T08:53:31Z</time>
      </trkpt>
      <trkpt lat="45.84736" lon="6.44635">
        <ele>2461</ele>
        <time>2018-10-17T08:53:32Z</time>
      </trkpt>
      <trkpt lat="45.84736" lon="6.44635">
        <ele>2461</ele>
        <time>2018-10-17T08:53:33Z</time>
      </trkpt>
      <trkpt lat="45.84735" lon="6.44632">
        <ele>2461</ele>
        <time>2018-10-17T08:53:34Z</time>
      </trkpt>
      <trkpt lat="45.84735" lon="6.44632">
        <ele>2461</ele>
        <time>2018-10-17T08:53:35Z</time>
      </trkpt>
      <trkpt lat="45.84735" lon="6.44632">
        <ele>2461</ele>
        <time>2018-10-17T08:53:36Z</time>
      </trkpt>
      <trkpt lat="45.84735" lon="6.44632">
        <ele>2461</ele>
        <time>2018-10-17T08:53:37Z</time>
      </trkpt>
      <trkpt lat="45.84735" lon="6.44632">
        <ele>2463</ele>
        <time>2018-10-17T08:53:38Z</time>
      </trkpt>
      <trkpt lat="45.84735" lon="6.44632">
        <ele>2463</ele>
        <time>2018-10-17T08:53:39Z</time>
      </trkpt>
      <trkpt lat="45.84735" lon="6.44632">
        <ele>2464</ele>
        <time>2018-10-17T08:53:40Z</time>
      </trkpt>
      <trkpt lat="45.84734" lon="6.44631">
        <ele>2464</ele>
        <time>2018-10-17T08:53:41Z</time>
      </trkpt>
      <trkpt lat="45.84734" lon="6.44631">
        <ele>2465</ele>
        <time>2018-10-17T08:53:42Z</time>
      </trkpt>
      <trkpt lat="45.84734" lon="6.44631">
        <ele>2465</ele>
        <time>2018-10-17T08:53:43Z</time>
      </trkpt>
      <trkpt lat="45.84734" lon="6.44631">
        <ele>2465</ele>
        <time>2018-10-17T08:53:44Z</time>
      </trkpt>
      <trkpt lat="45.84734" lon="6.44631">
        <ele>2465</ele>
        <time>2018-10-17T08:53:45Z</time>
      </trkpt>
      <trkpt lat="45.84734" lon="6.44631">
        <ele>2465</ele>
        <time>2018-10-17T08:53:46Z</time>
      </trkpt>
      <trkpt lat="45.84734" lon="6.44631">
        <ele>2465</ele>
        <time>2018-10-17T08:53:47Z</time>
      </trkpt>
      <trkpt lat="45.84734" lon="6.44631">
        <ele>2465</ele>
        <time>2018-10-17T08:53:48Z</time>
      </trkpt>
      <trkpt lat="45.84734" lon="6.44631">
        <ele>2465</ele>
        <time>2018-10-17T08:53:49Z</time>
      </trkpt>
      <trkpt lat="45.84731" lon="6.44629">
        <ele>2465</ele>
        <time>2018-10-17T08:53:50Z</time>
      </trkpt>
      <trkpt lat="45.84731" lon="6.44629">
        <ele>2465</ele>
        <time>2018-10-17T08:53:51Z</time>
      </trkpt>
      <trkpt lat="45.84731" lon="6.44629">
        <ele>2465</ele>
        <time>2018-10-17T08:53:52Z</time>
      </trkpt>
      <trkpt lat="45.84731" lon="6.44629">
        <ele>2466</ele>
        <time>2018-10-17T08:53:53Z</time>
      </trkpt>
      <trkpt lat="45.84731" lon="6.44629">
        <ele>2466</ele>
        <time>2018-10-17T08:53:54Z</time>
      </trkpt>
      <trkpt lat="45.84731" lon="6.44629">
        <ele>2466</ele>
        <time>2018-10-17T08:53:55Z</time>
      </trkpt>
      <trkpt lat="45.84731" lon="6.44629">
        <ele>2466</ele>
        <time>2018-10-17T08:53:56Z</time>
      </trkpt>
      <trkpt lat="45.84731" lon="6.44629">
        <ele>2466</ele>
        <time>2018-10-17T08:53:57Z</time>
      </trkpt>
      <trkpt lat="45.84731" lon="6.44629">
        <ele>2466</ele>
        <time>2018-10-17T08:53:58Z</time>
      </trkpt>
      <trkpt lat="45.8473" lon="6.44628">
        <ele>2466</ele>
        <time>2018-10-17T08:53:59Z</time>
      </trkpt>
      <trkpt lat="45.8473" lon="6.44628">
        <ele>2466</ele>
        <time>2018-10-17T08:54:00Z</time>
      </trkpt>
      <trkpt lat="45.8473" lon="6.44628">
        <ele>2466</ele>
        <time>2018-10-17T08:54:01Z</time>
      </trkpt>
      <trkpt lat="45.8473" lon="6.44628">
        <ele>2466</ele>
        <time>2018-10-17T08:54:02Z</time>
      </trkpt>
      <trkpt lat="45.8473" lon="6.44628">
        <ele>2466</ele>
        <time>2018-10-17T08:54:03Z</time>
      </trkpt>
      <trkpt lat="45.84728" lon="6.44626">
        <ele>2467</ele>
        <time>2018-10-17T08:54:04Z</time>
      </trkpt>
      <trkpt lat="45.84728" lon="6.44626">
        <ele>2467</ele>
        <time>2018-10-17T08:54:05Z</time>
      </trkpt>
      <trkpt lat="45.84728" lon="6.44626">
        <ele>2467</ele>
        <time>2018-10-17T08:54:06Z</time>
      </trkpt>
      <trkpt lat="45.84726" lon="6.44625">
        <ele>2467</ele>
        <time>2018-10-17T08:54:07Z</time>
      </trkpt>
      <trkpt lat="45.84726" lon="6.44625">
        <ele>2467</ele>
        <time>2018-10-17T08:54:08Z</time>
      </trkpt>
      <trkpt lat="45.84726" lon="6.44625">
        <ele>2467</ele>
        <time>2018-10-17T08:54:09Z</time>
      </trkpt>
      <trkpt lat="45.84726" lon="6.44625">
        <ele>2468</ele>
        <time>2018-10-17T08:54:10Z</time>
      </trkpt>
      <trkpt lat="45.84726" lon="6.44625">
        <ele>2468</ele>
        <time>2018-10-17T08:54:11Z</time>
      </trkpt>
      <trkpt lat="45.84723" lon="6.44624">
        <ele>2468</ele>
        <time>2018-10-17T08:54:12Z</time>
      </trkpt>
      <trkpt lat="45.84723" lon="6.44624">
        <ele>2468</ele>
        <time>2018-10-17T08:54:13Z</time>
      </trkpt>
      <trkpt lat="45.84723" lon="6.44624">
        <ele>2469</ele>
        <time>2018-10-17T08:54:14Z</time>
      </trkpt>
      <trkpt lat="45.84722" lon="6.44622">
        <ele>2469</ele>
        <time>2018-10-17T08:54:15Z</time>
      </trkpt>
      <trkpt lat="45.84722" lon="6.44622">
        <ele>2470</ele>
        <time>2018-10-17T08:54:16Z</time>
      </trkpt>
      <trkpt lat="45.84722" lon="6.44622">
        <ele>2470</ele>
        <time>2018-10-17T08:54:17Z</time>
      </trkpt>
      <trkpt lat="45.8472" lon="6.4462">
        <ele>2470</ele>
        <time>2018-10-17T08:54:18Z</time>
      </trkpt>
      <trkpt lat="45.8472" lon="6.4462">
        <ele>2470</ele>
        <time>2018-10-17T08:54:19Z</time>
      </trkpt>
      <trkpt lat="45.8472" lon="6.4462">
        <ele>2470</ele>
        <time>2018-10-17T08:54:20Z</time>
      </trkpt>
      <trkpt lat="45.8472" lon="6.4462">
        <ele>2470</ele>
        <time>2018-10-17T08:54:21Z</time>
      </trkpt>
      <trkpt lat="45.8472" lon="6.4462">
        <ele>2469</ele>
        <time>2018-10-17T08:54:22Z</time>
      </trkpt>
      <trkpt lat="45.8472" lon="6.4462">
        <ele>2469</ele>
        <time>2018-10-17T08:54:23Z</time>
      </trkpt>
      <trkpt lat="45.8472" lon="6.4462">
        <ele>2469</ele>
        <time>2018-10-17T08:54:24Z</time>
      </trkpt>
      <trkpt lat="45.8472" lon="6.4462">
        <ele>2469</ele>
        <time>2018-10-17T08:54:25Z</time>
      </trkpt>
      <trkpt lat="45.84719" lon="6.44618">
        <ele>2469</ele>
        <time>2018-10-17T08:54:26Z</time>
      </trkpt>
      <trkpt lat="45.84719" lon="6.44618">
        <ele>2469</ele>
        <time>2018-10-17T08:54:27Z</time>
      </trkpt>
      <trkpt lat="45.84719" lon="6.44618">
        <ele>2469</ele>
        <time>2018-10-17T08:54:28Z</time>
      </trkpt>
      <trkpt lat="45.84719" lon="6.44618">
        <ele>2469</ele>
        <time>2018-10-17T08:54:29Z</time>
      </trkpt>
      <trkpt lat="45.84717" lon="6.44616">
        <ele>2469</ele>
        <time>2018-10-17T08:54:30Z</time>
      </trkpt>
      <trkpt lat="45.84717" lon="6.44616">
        <ele>2469</ele>
        <time>2018-10-17T08:54:31Z</time>
      </trkpt>
      <trkpt lat="45.84717" lon="6.44616">
        <ele>2469</ele>
        <time>2018-10-17T08:54:32Z</time>
      </trkpt>
      <trkpt lat="45.84717" lon="6.44616">
        <ele>2469</ele>
        <time>2018-10-17T08:54:33Z</time>
      </trkpt>
      <trkpt lat="45.84717" lon="6.44616">
        <ele>2469</ele>
        <time>2018-10-17T08:54:34Z</time>
      </trkpt>
      <trkpt lat="45.84717" lon="6.44616">
        <ele>2469</ele>
        <time>2018-10-17T08:54:35Z</time>
      </trkpt>
      <trkpt lat="45.84717" lon="6.44616">
        <ele>2469</ele>
        <time>2018-10-17T08:54:36Z</time>
      </trkpt>
      <trkpt lat="45.84717" lon="6.44616">
        <ele>2470</ele>
        <time>2018-10-17T08:54:37Z</time>
      </trkpt>
      <trkpt lat="45.84717" lon="6.44616">
        <ele>2470</ele>
        <time>2018-10-17T08:54:38Z</time>
      </trkpt>
      <trkpt lat="45.84715" lon="6.44615">
        <ele>2470</ele>
        <time>2018-10-17T08:54:39Z</time>
      </trkpt>
      <trkpt lat="45.84715" lon="6.44615">
        <ele>2470</ele>
        <time>2018-10-17T08:54:40Z</time>
      </trkpt>
      <trkpt lat="45.84715" lon="6.44615">
        <ele>2470</ele>
        <time>2018-10-17T08:54:41Z</time>
      </trkpt>
      <trkpt lat="45.84715" lon="6.44615">
        <ele>2470</ele>
        <time>2018-10-17T08:54:42Z</time>
      </trkpt>
      <trkpt lat="45.84715" lon="6.44615">
        <ele>2471</ele>
        <time>2018-10-17T08:54:43Z</time>
      </trkpt>
      <trkpt lat="45.84715" lon="6.44615">
        <ele>2471</ele>
        <time>2018-10-17T08:54:44Z</time>
      </trkpt>
      <trkpt lat="45.84715" lon="6.44615">
        <ele>2471</ele>
        <time>2018-10-17T08:54:45Z</time>
      </trkpt>
      <trkpt lat="45.84715" lon="6.44615">
        <ele>2471</ele>
        <time>2018-10-17T08:54:46Z</time>
      </trkpt>
      <trkpt lat="45.84715" lon="6.44612">
        <ele>2471</ele>
        <time>2018-10-17T08:54:47Z</time>
      </trkpt>
      <trkpt lat="45.84715" lon="6.44612">
        <ele>2471</ele>
        <time>2018-10-17T08:54:48Z</time>
      </trkpt>
      <trkpt lat="45.84715" lon="6.44612">
        <ele>2471</ele>
        <time>2018-10-17T08:54:49Z</time>
      </trkpt>
      <trkpt lat="45.84715" lon="6.44612">
        <ele>2471</ele>
        <time>2018-10-17T08:54:50Z</time>
      </trkpt>
      <trkpt lat="45.84715" lon="6.44612">
        <ele>2471</ele>
        <time>2018-10-17T08:54:51Z</time>
      </trkpt>
      <trkpt lat="45.84715" lon="6.44612">
        <ele>2471</ele>
        <time>2018-10-17T08:54:52Z</time>
      </trkpt>
      <trkpt lat="45.84715" lon="6.44612">
        <ele>2472</ele>
        <time>2018-10-17T08:54:53Z</time>
      </trkpt>
      <trkpt lat="45.84715" lon="6.44612">
        <ele>2472</ele>
        <time>2018-10-17T08:54:54Z</time>
      </trkpt>
      <trkpt lat="45.84715" lon="6.44612">
        <ele>2472</ele>
        <time>2018-10-17T08:54:55Z</time>
      </trkpt>
      <trkpt lat="45.84713" lon="6.44611">
        <ele>2472</ele>
        <time>2018-10-17T08:54:56Z</time>
      </trkpt>
      <trkpt lat="45.84713" lon="6.44611">
        <ele>2472</ele>
        <time>2018-10-17T08:54:57Z</time>
      </trkpt>
      <trkpt lat="45.84713" lon="6.44611">
        <ele>2473</ele>
        <time>2018-10-17T08:54:58Z</time>
      </trkpt>
      <trkpt lat="45.84712" lon="6.44609">
        <ele>2473</ele>
        <time>2018-10-17T08:54:59Z</time>
      </trkpt>
      <trkpt lat="45.84712" lon="6.44609">
        <ele>2473</ele>
        <time>2018-10-17T08:55:00Z</time>
      </trkpt>
      <trkpt lat="45.84712" lon="6.44609">
        <ele>2473</ele>
        <time>2018-10-17T08:55:01Z</time>
      </trkpt>
      <trkpt lat="45.84712" lon="6.44609">
        <ele>2473</ele>
        <time>2018-10-17T08:55:02Z</time>
      </trkpt>
      <trkpt lat="45.8471" lon="6.44607">
        <ele>2473</ele>
        <time>2018-10-17T08:55:03Z</time>
      </trkpt>
      <trkpt lat="45.8471" lon="6.44607">
        <ele>2473</ele>
        <time>2018-10-17T08:55:04Z</time>
      </trkpt>
      <trkpt lat="45.8471" lon="6.44607">
        <ele>2473</ele>
        <time>2018-10-17T08:55:05Z</time>
      </trkpt>
      <trkpt lat="45.8471" lon="6.44607">
        <ele>2473</ele>
        <time>2018-10-17T08:55:06Z</time>
      </trkpt>
      <trkpt lat="45.8471" lon="6.44607">
        <ele>2473</ele>
        <time>2018-10-17T08:55:07Z</time>
      </trkpt>
      <trkpt lat="45.8471" lon="6.44607">
        <ele>2473</ele>
        <time>2018-10-17T08:55:08Z</time>
      </trkpt>
      <trkpt lat="45.84708" lon="6.44605">
        <ele>2475</ele>
        <time>2018-10-17T08:55:09Z</time>
      </trkpt>
      <trkpt lat="45.84708" lon="6.44605">
        <ele>2475</ele>
        <time>2018-10-17T08:55:10Z</time>
      </trkpt>
      <trkpt lat="45.84708" lon="6.44605">
        <ele>2475</ele>
        <time>2018-10-17T08:55:11Z</time>
      </trkpt>
      <trkpt lat="45.84708" lon="6.44605">
        <ele>2475</ele>
        <time>2018-10-17T08:55:12Z</time>
      </trkpt>
      <trkpt lat="45.84708" lon="6.44605">
        <ele>2475</ele>
        <time>2018-10-17T08:55:13Z</time>
      </trkpt>
      <trkpt lat="45.84708" lon="6.44605">
        <ele>2475</ele>
        <time>2018-10-17T08:55:14Z</time>
      </trkpt>
      <trkpt lat="45.84708" lon="6.44605">
        <ele>2475</ele>
        <time>2018-10-17T08:55:15Z</time>
      </trkpt>
      <trkpt lat="45.84707" lon="6.44603">
        <ele>2475</ele>
        <time>2018-10-17T08:55:16Z</time>
      </trkpt>
      <trkpt lat="45.84707" lon="6.44603">
        <ele>2475</ele>
        <time>2018-10-17T08:55:17Z</time>
      </trkpt>
      <trkpt lat="45.84707" lon="6.44603">
        <ele>2476</ele>
        <time>2018-10-17T08:55:18Z</time>
      </trkpt>
      <trkpt lat="45.84707" lon="6.44603">
        <ele>2476</ele>
        <time>2018-10-17T08:55:19Z</time>
      </trkpt>
      <trkpt lat="45.84707" lon="6.44603">
        <ele>2476</ele>
        <time>2018-10-17T08:55:20Z</time>
      </trkpt>
      <trkpt lat="45.84707" lon="6.44603">
        <ele>2476</ele>
        <time>2018-10-17T08:55:21Z</time>
      </trkpt>
      <trkpt lat="45.84706" lon="6.44602">
        <ele>2476</ele>
        <time>2018-10-17T08:55:22Z</time>
      </trkpt>
      <trkpt lat="45.84706" lon="6.44602">
        <ele>2476</ele>
        <time>2018-10-17T08:55:23Z</time>
      </trkpt>
      <trkpt lat="45.84706" lon="6.44602">
        <ele>2476</ele>
        <time>2018-10-17T08:55:24Z</time>
      </trkpt>
      <trkpt lat="45.84704" lon="6.446">
        <ele>2476</ele>
        <time>2018-10-17T08:55:25Z</time>
      </trkpt>
      <trkpt lat="45.84704" lon="6.446">
        <ele>2476</ele>
        <time>2018-10-17T08:55:26Z</time>
      </trkpt>
      <trkpt lat="45.84702" lon="6.44599">
        <ele>2476</ele>
        <time>2018-10-17T08:55:27Z</time>
      </trkpt>
      <trkpt lat="45.84702" lon="6.44599">
        <ele>2476</ele>
        <time>2018-10-17T08:55:28Z</time>
      </trkpt>
      <trkpt lat="45.84702" lon="6.44599">
        <ele>2476</ele>
        <time>2018-10-17T08:55:29Z</time>
      </trkpt>
      <trkpt lat="45.84702" lon="6.44599">
        <ele>2476</ele>
        <time>2018-10-17T08:55:30Z</time>
      </trkpt>
      <trkpt lat="45.847" lon="6.44599">
        <ele>2476</ele>
        <time>2018-10-17T08:55:31Z</time>
      </trkpt>
      <trkpt lat="45.847" lon="6.44599">
        <ele>2476</ele>
        <time>2018-10-17T08:55:32Z</time>
      </trkpt>
      <trkpt lat="45.847" lon="6.44599">
        <ele>2476</ele>
        <time>2018-10-17T08:55:33Z</time>
      </trkpt>
      <trkpt lat="45.84698" lon="6.44598">
        <ele>2476</ele>
        <time>2018-10-17T08:55:34Z</time>
      </trkpt>
      <trkpt lat="45.84698" lon="6.44598">
        <ele>2476</ele>
        <time>2018-10-17T08:55:35Z</time>
      </trkpt>
      <trkpt lat="45.84698" lon="6.44598">
        <ele>2476</ele>
        <time>2018-10-17T08:55:36Z</time>
      </trkpt>
      <trkpt lat="45.84698" lon="6.44598">
        <ele>2476</ele>
        <time>2018-10-17T08:55:37Z</time>
      </trkpt>
      <trkpt lat="45.84698" lon="6.44598">
        <ele>2477</ele>
        <time>2018-10-17T08:55:38Z</time>
      </trkpt>
      <trkpt lat="45.84698" lon="6.44598">
        <ele>2477</ele>
        <time>2018-10-17T08:55:39Z</time>
      </trkpt>
      <trkpt lat="45.84698" lon="6.44598">
        <ele>2477</ele>
        <time>2018-10-17T08:55:40Z</time>
      </trkpt>
      <trkpt lat="45.84698" lon="6.44598">
        <ele>2477</ele>
        <time>2018-10-17T08:55:41Z</time>
      </trkpt>
      <trkpt lat="45.84698" lon="6.44598">
        <ele>2477</ele>
        <time>2018-10-17T08:55:42Z</time>
      </trkpt>
      <trkpt lat="45.84698" lon="6.44598">
        <ele>2477</ele>
        <time>2018-10-17T08:55:43Z</time>
      </trkpt>
      <trkpt lat="45.84698" lon="6.44598">
        <ele>2477</ele>
        <time>2018-10-17T08:55:44Z</time>
      </trkpt>
      <trkpt lat="45.84698" lon="6.44598">
        <ele>2477</ele>
        <time>2018-10-17T08:55:45Z</time>
      </trkpt>
      <trkpt lat="45.84698" lon="6.44598">
        <ele>2477</ele>
        <time>2018-10-17T08:55:46Z</time>
      </trkpt>
      <trkpt lat="45.84698" lon="6.44598">
        <ele>2477</ele>
        <time>2018-10-17T08:55:47Z</time>
      </trkpt>
      <trkpt lat="45.84698" lon="6.44598">
        <ele>2477</ele>
        <time>2018-10-17T08:55:48Z</time>
      </trkpt>
      <trkpt lat="45.84698" lon="6.44598">
        <ele>2477</ele>
        <time>2018-10-17T08:55:49Z</time>
      </trkpt>
      <trkpt lat="45.84698" lon="6.44598">
        <ele>2477</ele>
        <time>2018-10-17T08:55:50Z</time>
      </trkpt>
      <trkpt lat="45.84698" lon="6.44598">
        <ele>2477</ele>
        <time>2018-10-17T08:55:51Z</time>
      </trkpt>
      <trkpt lat="45.84698" lon="6.44598">
        <ele>2477</ele>
        <time>2018-10-17T08:55:52Z</time>
      </trkpt>
      <trkpt lat="45.84698" lon="6.44598">
        <ele>2477</ele>
        <time>2018-10-17T08:55:53Z</time>
      </trkpt>
      <trkpt lat="45.84698" lon="6.44598">
        <ele>2477</ele>
        <time>2018-10-17T08:55:54Z</time>
      </trkpt>
      <trkpt lat="45.84698" lon="6.44598">
        <ele>2477</ele>
        <time>2018-10-17T08:55:55Z</time>
      </trkpt>
      <trkpt lat="45.84698" lon="6.44598">
        <ele>2477</ele>
        <time>2018-10-17T08:55:56Z</time>
      </trkpt>
      <trkpt lat="45.84698" lon="6.44598">
        <ele>2477</ele>
        <time>2018-10-17T08:55:57Z</time>
      </trkpt>
      <trkpt lat="45.84698" lon="6.44598">
        <ele>2477</ele>
        <time>2018-10-17T08:55:58Z</time>
      </trkpt>
      <trkpt lat="45.84698" lon="6.44598">
        <ele>2477</ele>
        <time>2018-10-17T08:55:59Z</time>
      </trkpt>
      <trkpt lat="45.84698" lon="6.44598">
        <ele>2477</ele>
        <time>2018-10-17T08:56:00Z</time>
      </trkpt>
      <trkpt lat="45.84698" lon="6.44598">
        <ele>2477</ele>
        <time>2018-10-17T08:56:01Z</time>
      </trkpt>
      <trkpt lat="45.84698" lon="6.44598">
        <ele>2477</ele>
        <time>2018-10-17T08:56:02Z</time>
      </trkpt>
      <trkpt lat="45.84698" lon="6.44598">
        <ele>2477</ele>
        <time>2018-10-17T08:56:03Z</time>
      </trkpt>
      <trkpt lat="45.84698" lon="6.44598">
        <ele>2477</ele>
        <time>2018-10-17T08:56:04Z</time>
      </trkpt>
      <trkpt lat="45.84698" lon="6.44598">
        <ele>2477</ele>
        <time>2018-10-17T08:56:05Z</time>
      </trkpt>
      <trkpt lat="45.84698" lon="6.44598">
        <ele>2476</ele>
        <time>2018-10-17T08:56:06Z</time>
      </trkpt>
      <trkpt lat="45.84698" lon="6.44598">
        <ele>2476</ele>
        <time>2018-10-17T08:56:07Z</time>
      </trkpt>
      <trkpt lat="45.84698" lon="6.44598">
        <ele>2476</ele>
        <time>2018-10-17T08:56:08Z</time>
      </trkpt>
      <trkpt lat="45.84698" lon="6.44598">
        <ele>2476</ele>
        <time>2018-10-17T08:56:09Z</time>
      </trkpt>
      <trkpt lat="45.84698" lon="6.44598">
        <ele>2476</ele>
        <time>2018-10-17T08:56:10Z</time>
      </trkpt>
      <trkpt lat="45.84698" lon="6.44598">
        <ele>2476</ele>
        <time>2018-10-17T08:56:11Z</time>
      </trkpt>
      <trkpt lat="45.84698" lon="6.44598">
        <ele>2477</ele>
        <time>2018-10-17T08:56:12Z</time>
      </trkpt>
      <trkpt lat="45.84698" lon="6.44598">
        <ele>2477</ele>
        <time>2018-10-17T08:56:13Z</time>
      </trkpt>
      <trkpt lat="45.84698" lon="6.44598">
        <ele>2477</ele>
        <time>2018-10-17T08:56:14Z</time>
      </trkpt>
      <trkpt lat="45.84698" lon="6.44598">
        <ele>2476</ele>
        <time>2018-10-17T08:56:15Z</time>
      </trkpt>
      <trkpt lat="45.84698" lon="6.44598">
        <ele>2476</ele>
        <time>2018-10-17T08:56:16Z</time>
      </trkpt>
      <trkpt lat="45.84698" lon="6.44598">
        <ele>2476</ele>
        <time>2018-10-17T08:56:17Z</time>
      </trkpt>
      <trkpt lat="45.84698" lon="6.44598">
        <ele>2477</ele>
        <time>2018-10-17T08:56:18Z</time>
      </trkpt>
      <trkpt lat="45.84698" lon="6.44598">
        <ele>2477</ele>
        <time>2018-10-17T08:56:19Z</time>
      </trkpt>
      <trkpt lat="45.84698" lon="6.44598">
        <ele>2477</ele>
        <time>2018-10-17T08:56:20Z</time>
      </trkpt>
      <trkpt lat="45.84698" lon="6.44598">
        <ele>2477</ele>
        <time>2018-10-17T08:56:21Z</time>
      </trkpt>
      <trkpt lat="45.84698" lon="6.44598">
        <ele>2477</ele>
        <time>2018-10-17T08:56:22Z</time>
      </trkpt>
      <trkpt lat="45.84698" lon="6.44598">
        <ele>2477</ele>
        <time>2018-10-17T08:56:23Z</time>
      </trkpt>
      <trkpt lat="45.84698" lon="6.44598">
        <ele>2477</ele>
        <time>2018-10-17T08:56:24Z</time>
      </trkpt>
      <trkpt lat="45.84698" lon="6.44598">
        <ele>2477</ele>
        <time>2018-10-17T08:56:25Z</time>
      </trkpt>
      <trkpt lat="45.84698" lon="6.44598">
        <ele>2477</ele>
        <time>2018-10-17T08:56:26Z</time>
      </trkpt>
      <trkpt lat="45.84698" lon="6.44598">
        <ele>2477</ele>
        <time>2018-10-17T08:56:27Z</time>
      </trkpt>
      <trkpt lat="45.84698" lon="6.44598">
        <ele>2477</ele>
        <time>2018-10-17T08:56:28Z</time>
      </trkpt>
      <trkpt lat="45.84698" lon="6.44598">
        <ele>2477</ele>
        <time>2018-10-17T08:56:29Z</time>
      </trkpt>
      <trkpt lat="45.84698" lon="6.44598">
        <ele>2477</ele>
        <time>2018-10-17T08:56:30Z</time>
      </trkpt>
      <trkpt lat="45.84698" lon="6.44598">
        <ele>2477</ele>
        <time>2018-10-17T08:56:31Z</time>
      </trkpt>
      <trkpt lat="45.84698" lon="6.44598">
        <ele>2477</ele>
        <time>2018-10-17T08:56:32Z</time>
      </trkpt>
      <trkpt lat="45.84698" lon="6.44598">
        <ele>2477</ele>
        <time>2018-10-17T08:56:33Z</time>
      </trkpt>
      <trkpt lat="45.84696" lon="6.44597">
        <ele>2477</ele>
        <time>2018-10-17T08:56:34Z</time>
      </trkpt>
      <trkpt lat="45.84696" lon="6.44597">
        <ele>2477</ele>
        <time>2018-10-17T08:56:35Z</time>
      </trkpt>
      <trkpt lat="45.84694" lon="6.44598">
        <ele>2477</ele>
        <time>2018-10-17T08:56:36Z</time>
      </trkpt>
      <trkpt lat="45.84694" lon="6.44598">
        <ele>2477</ele>
        <time>2018-10-17T08:56:37Z</time>
      </trkpt>
      <trkpt lat="45.84692" lon="6.44599">
        <ele>2477</ele>
        <time>2018-10-17T08:56:38Z</time>
      </trkpt>
      <trkpt lat="45.84692" lon="6.44599">
        <ele>2477</ele>
        <time>2018-10-17T08:56:39Z</time>
      </trkpt>
      <trkpt lat="45.84692" lon="6.44599">
        <ele>2477</ele>
        <time>2018-10-17T08:56:40Z</time>
      </trkpt>
      <trkpt lat="45.84691" lon="6.44601">
        <ele>2476</ele>
        <time>2018-10-17T08:56:41Z</time>
      </trkpt>
      <trkpt lat="45.84691" lon="6.44601">
        <ele>2476</ele>
        <time>2018-10-17T08:56:42Z</time>
      </trkpt>
      <trkpt lat="45.84691" lon="6.44601">
        <ele>2476</ele>
        <time>2018-10-17T08:56:43Z</time>
      </trkpt>
      <trkpt lat="45.84688" lon="6.44603">
        <ele>2476</ele>
        <time>2018-10-17T08:56:44Z</time>
      </trkpt>
      <trkpt lat="45.84688" lon="6.44603">
        <ele>2475</ele>
        <time>2018-10-17T08:56:45Z</time>
      </trkpt>
      <trkpt lat="45.84686" lon="6.44604">
        <ele>2475</ele>
        <time>2018-10-17T08:56:46Z</time>
      </trkpt>
      <trkpt lat="45.84686" lon="6.44604">
        <ele>2475</ele>
        <time>2018-10-17T08:56:47Z</time>
      </trkpt>
      <trkpt lat="45.84686" lon="6.44604">
        <ele>2474</ele>
        <time>2018-10-17T08:56:48Z</time>
      </trkpt>
      <trkpt lat="45.84684" lon="6.44603">
        <ele>2473</ele>
        <time>2018-10-17T08:56:49Z</time>
      </trkpt>
      <trkpt lat="45.84684" lon="6.44603">
        <ele>2473</ele>
        <time>2018-10-17T08:56:50Z</time>
      </trkpt>
      <trkpt lat="45.84684" lon="6.44603">
        <ele>2473</ele>
        <time>2018-10-17T08:56:51Z</time>
      </trkpt>
      <trkpt lat="45.84682" lon="6.44603">
        <ele>2473</ele>
        <time>2018-10-17T08:56:52Z</time>
      </trkpt>
      <trkpt lat="45.84682" lon="6.44603">
        <ele>2472</ele>
        <time>2018-10-17T08:56:53Z</time>
      </trkpt>
      <trkpt lat="45.8468" lon="6.44603">
        <ele>2472</ele>
        <time>2018-10-17T08:56:54Z</time>
      </trkpt>
      <trkpt lat="45.8468" lon="6.44603">
        <ele>2472</ele>
        <time>2018-10-17T08:56:55Z</time>
      </trkpt>
      <trkpt lat="45.84678" lon="6.44602">
        <ele>2472</ele>
        <time>2018-10-17T08:56:56Z</time>
      </trkpt>
      <trkpt lat="45.84678" lon="6.44602">
        <ele>2472</ele>
        <time>2018-10-17T08:56:57Z</time>
      </trkpt>
      <trkpt lat="45.84678" lon="6.44602">
        <ele>2472</ele>
        <time>2018-10-17T08:56:58Z</time>
      </trkpt>
      <trkpt lat="45.84676" lon="6.44602">
        <ele>2472</ele>
        <time>2018-10-17T08:56:59Z</time>
      </trkpt>
      <trkpt lat="45.84676" lon="6.44602">
        <ele>2471</ele>
        <time>2018-10-17T08:57:00Z</time>
      </trkpt>
      <trkpt lat="45.84676" lon="6.44602">
        <ele>2470</ele>
        <time>2018-10-17T08:57:01Z</time>
      </trkpt>
      <trkpt lat="45.84674" lon="6.446">
        <ele>2470</ele>
        <time>2018-10-17T08:57:02Z</time>
      </trkpt>
      <trkpt lat="45.84674" lon="6.446">
        <ele>2470</ele>
        <time>2018-10-17T08:57:03Z</time>
      </trkpt>
      <trkpt lat="45.84674" lon="6.446">
        <ele>2470</ele>
        <time>2018-10-17T08:57:04Z</time>
      </trkpt>
      <trkpt lat="45.84674" lon="6.446">
        <ele>2470</ele>
        <time>2018-10-17T08:57:05Z</time>
      </trkpt>
      <trkpt lat="45.84674" lon="6.446">
        <ele>2470</ele>
        <time>2018-10-17T08:57:06Z</time>
      </trkpt>
      <trkpt lat="45.84672" lon="6.44599">
        <ele>2470</ele>
        <time>2018-10-17T08:57:07Z</time>
      </trkpt>
      <trkpt lat="45.84672" lon="6.44599">
        <ele>2469</ele>
        <time>2018-10-17T08:57:08Z</time>
      </trkpt>
      <trkpt lat="45.84672" lon="6.44599">
        <ele>2469</ele>
        <time>2018-10-17T08:57:09Z</time>
      </trkpt>
      <trkpt lat="45.84672" lon="6.44599">
        <ele>2469</ele>
        <time>2018-10-17T08:57:10Z</time>
      </trkpt>
      <trkpt lat="45.84672" lon="6.44597">
        <ele>2469</ele>
        <time>2018-10-17T08:57:11Z</time>
      </trkpt>
      <trkpt lat="45.84672" lon="6.44597">
        <ele>2467</ele>
        <time>2018-10-17T08:57:12Z</time>
      </trkpt>
      <trkpt lat="45.84672" lon="6.44597">
        <ele>2466</ele>
        <time>2018-10-17T08:57:13Z</time>
      </trkpt>
      <trkpt lat="45.84672" lon="6.44597">
        <ele>2466</ele>
        <time>2018-10-17T08:57:14Z</time>
      </trkpt>
      <trkpt lat="45.84672" lon="6.44597">
        <ele>2466</ele>
        <time>2018-10-17T08:57:15Z</time>
      </trkpt>
      <trkpt lat="45.84674" lon="6.44594">
        <ele>2466</ele>
        <time>2018-10-17T08:57:16Z</time>
      </trkpt>
      <trkpt lat="45.84674" lon="6.44594">
        <ele>2466</ele>
        <time>2018-10-17T08:57:17Z</time>
      </trkpt>
      <trkpt lat="45.84674" lon="6.44594">
        <ele>2466</ele>
        <time>2018-10-17T08:57:18Z</time>
      </trkpt>
      <trkpt lat="45.84674" lon="6.44594">
        <ele>2466</ele>
        <time>2018-10-17T08:57:19Z</time>
      </trkpt>
      <trkpt lat="45.84674" lon="6.44594">
        <ele>2466</ele>
        <time>2018-10-17T08:57:20Z</time>
      </trkpt>
      <trkpt lat="45.84673" lon="6.44592">
        <ele>2465</ele>
        <time>2018-10-17T08:57:21Z</time>
      </trkpt>
      <trkpt lat="45.84673" lon="6.44592">
        <ele>2465</ele>
        <time>2018-10-17T08:57:22Z</time>
      </trkpt>
      <trkpt lat="45.84673" lon="6.44592">
        <ele>2465</ele>
        <time>2018-10-17T08:57:23Z</time>
      </trkpt>
      <trkpt lat="45.84671" lon="6.44591">
        <ele>2465</ele>
        <time>2018-10-17T08:57:24Z</time>
      </trkpt>
      <trkpt lat="45.84671" lon="6.44591">
        <ele>2465</ele>
        <time>2018-10-17T08:57:25Z</time>
      </trkpt>
      <trkpt lat="45.84671" lon="6.44591">
        <ele>2464</ele>
        <time>2018-10-17T08:57:26Z</time>
      </trkpt>
      <trkpt lat="45.84669" lon="6.44591">
        <ele>2464</ele>
        <time>2018-10-17T08:57:27Z</time>
      </trkpt>
      <trkpt lat="45.84669" lon="6.44591">
        <ele>2464</ele>
        <time>2018-10-17T08:57:28Z</time>
      </trkpt>
      <trkpt lat="45.84669" lon="6.44591">
        <ele>2464</ele>
        <time>2018-10-17T08:57:29Z</time>
      </trkpt>
      <trkpt lat="45.84667" lon="6.44591">
        <ele>2463</ele>
        <time>2018-10-17T08:57:30Z</time>
      </trkpt>
      <trkpt lat="45.84667" lon="6.44591">
        <ele>2463</ele>
        <time>2018-10-17T08:57:31Z</time>
      </trkpt>
      <trkpt lat="45.84665" lon="6.4459">
        <ele>2463</ele>
        <time>2018-10-17T08:57:32Z</time>
      </trkpt>
      <trkpt lat="45.84665" lon="6.4459">
        <ele>2462</ele>
        <time>2018-10-17T08:57:33Z</time>
      </trkpt>
      <trkpt lat="45.84663" lon="6.4459">
        <ele>2462</ele>
        <time>2018-10-17T08:57:34Z</time>
      </trkpt>
      <trkpt lat="45.84663" lon="6.4459">
        <ele>2462</ele>
        <time>2018-10-17T08:57:35Z</time>
      </trkpt>
      <trkpt lat="45.84661" lon="6.44589">
        <ele>2462</ele>
        <time>2018-10-17T08:57:36Z</time>
      </trkpt>
      <trkpt lat="45.84661" lon="6.44589">
        <ele>2462</ele>
        <time>2018-10-17T08:57:37Z</time>
      </trkpt>
      <trkpt lat="45.84658" lon="6.44589">
        <ele>2462</ele>
        <time>2018-10-17T08:57:38Z</time>
      </trkpt>
      <trkpt lat="45.84658" lon="6.44589">
        <ele>2462</ele>
        <time>2018-10-17T08:57:39Z</time>
      </trkpt>
      <trkpt lat="45.84656" lon="6.44588">
        <ele>2461</ele>
        <time>2018-10-17T08:57:40Z</time>
      </trkpt>
      <trkpt lat="45.84656" lon="6.44588">
        <ele>2461</ele>
        <time>2018-10-17T08:57:41Z</time>
      </trkpt>
      <trkpt lat="45.84653" lon="6.44588">
        <ele>2461</ele>
        <time>2018-10-17T08:57:42Z</time>
      </trkpt>
      <trkpt lat="45.84653" lon="6.44588">
        <ele>2461</ele>
        <time>2018-10-17T08:57:43Z</time>
      </trkpt>
      <trkpt lat="45.84651" lon="6.44587">
        <ele>2461</ele>
        <time>2018-10-17T08:57:44Z</time>
      </trkpt>
      <trkpt lat="45.84651" lon="6.44587">
        <ele>2461</ele>
        <time>2018-10-17T08:57:45Z</time>
      </trkpt>
      <trkpt lat="45.84649" lon="6.44587">
        <ele>2460</ele>
        <time>2018-10-17T08:57:46Z</time>
      </trkpt>
      <trkpt lat="45.84649" lon="6.44587">
        <ele>2460</ele>
        <time>2018-10-17T08:57:47Z</time>
      </trkpt>
      <trkpt lat="45.84647" lon="6.44586">
        <ele>2460</ele>
        <time>2018-10-17T08:57:48Z</time>
      </trkpt>
      <trkpt lat="45.84647" lon="6.44586">
        <ele>2460</ele>
        <time>2018-10-17T08:57:49Z</time>
      </trkpt>
      <trkpt lat="45.84645" lon="6.44585">
        <ele>2460</ele>
        <time>2018-10-17T08:57:50Z</time>
      </trkpt>
      <trkpt lat="45.84645" lon="6.44585">
        <ele>2460</ele>
        <time>2018-10-17T08:57:51Z</time>
      </trkpt>
      <trkpt lat="45.84645" lon="6.44585">
        <ele>2460</ele>
        <time>2018-10-17T08:57:52Z</time>
      </trkpt>
      <trkpt lat="45.84643" lon="6.44584">
        <ele>2459</ele>
        <time>2018-10-17T08:57:53Z</time>
      </trkpt>
      <trkpt lat="45.84643" lon="6.44584">
        <ele>2458</ele>
        <time>2018-10-17T08:57:54Z</time>
      </trkpt>
      <trkpt lat="45.84641" lon="6.44583">
        <ele>2458</ele>
        <time>2018-10-17T08:57:55Z</time>
      </trkpt>
      <trkpt lat="45.84641" lon="6.44583">
        <ele>2458</ele>
        <time>2018-10-17T08:57:56Z</time>
      </trkpt>
      <trkpt lat="45.84641" lon="6.44583">
        <ele>2458</ele>
        <time>2018-10-17T08:57:57Z</time>
      </trkpt>
      <trkpt lat="45.84638" lon="6.44584">
        <ele>2458</ele>
        <time>2018-10-17T08:57:58Z</time>
      </trkpt>
      <trkpt lat="45.84638" lon="6.44584">
        <ele>2458</ele>
        <time>2018-10-17T08:57:59Z</time>
      </trkpt>
      <trkpt lat="45.84638" lon="6.44584">
        <ele>2458</ele>
        <time>2018-10-17T08:58:00Z</time>
      </trkpt>
      <trkpt lat="45.84636" lon="6.44585">
        <ele>2458</ele>
        <time>2018-10-17T08:58:01Z</time>
      </trkpt>
      <trkpt lat="45.84636" lon="6.44585">
        <ele>2458</ele>
        <time>2018-10-17T08:58:02Z</time>
      </trkpt>
      <trkpt lat="45.84636" lon="6.44585">
        <ele>2458</ele>
        <time>2018-10-17T08:58:03Z</time>
      </trkpt>
      <trkpt lat="45.84636" lon="6.44585">
        <ele>2458</ele>
        <time>2018-10-17T08:58:04Z</time>
      </trkpt>
      <trkpt lat="45.84634" lon="6.44583">
        <ele>2458</ele>
        <time>2018-10-17T08:58:05Z</time>
      </trkpt>
      <trkpt lat="45.84634" lon="6.44583">
        <ele>2458</ele>
        <time>2018-10-17T08:58:06Z</time>
      </trkpt>
      <trkpt lat="45.84634" lon="6.44583">
        <ele>2458</ele>
        <time>2018-10-17T08:58:07Z</time>
      </trkpt>
      <trkpt lat="45.84632" lon="6.44582">
        <ele>2458</ele>
        <time>2018-10-17T08:58:08Z</time>
      </trkpt>
      <trkpt lat="45.84632" lon="6.44582">
        <ele>2458</ele>
        <time>2018-10-17T08:58:09Z</time>
      </trkpt>
      <trkpt lat="45.84632" lon="6.44582">
        <ele>2458</ele>
        <time>2018-10-17T08:58:10Z</time>
      </trkpt>
      <trkpt lat="45.8463" lon="6.44581">
        <ele>2458</ele>
        <time>2018-10-17T08:58:11Z</time>
      </trkpt>
      <trkpt lat="45.8463" lon="6.44581">
        <ele>2459</ele>
        <time>2018-10-17T08:58:12Z</time>
      </trkpt>
      <trkpt lat="45.8463" lon="6.44581">
        <ele>2459</ele>
        <time>2018-10-17T08:58:13Z</time>
      </trkpt>
      <trkpt lat="45.84628" lon="6.44579">
        <ele>2459</ele>
        <time>2018-10-17T08:58:14Z</time>
      </trkpt>
      <trkpt lat="45.84628" lon="6.44579">
        <ele>2457</ele>
        <time>2018-10-17T08:58:15Z</time>
      </trkpt>
      <trkpt lat="45.84626" lon="6.44578">
        <ele>2456</ele>
        <time>2018-10-17T08:58:16Z</time>
      </trkpt>
      <trkpt lat="45.84626" lon="6.44578">
        <ele>2456</ele>
        <time>2018-10-17T08:58:17Z</time>
      </trkpt>
      <trkpt lat="45.84626" lon="6.44578">
        <ele>2456</ele>
        <time>2018-10-17T08:58:18Z</time>
      </trkpt>
      <trkpt lat="45.84624" lon="6.44577">
        <ele>2456</ele>
        <time>2018-10-17T08:58:19Z</time>
      </trkpt>
      <trkpt lat="45.84624" lon="6.44577">
        <ele>2457</ele>
        <time>2018-10-17T08:58:20Z</time>
      </trkpt>
      <trkpt lat="45.84624" lon="6.44577">
        <ele>2457</ele>
        <time>2018-10-17T08:58:21Z</time>
      </trkpt>
      <trkpt lat="45.84622" lon="6.44576">
        <ele>2457</ele>
        <time>2018-10-17T08:58:22Z</time>
      </trkpt>
      <trkpt lat="45.84622" lon="6.44576">
        <ele>2457</ele>
        <time>2018-10-17T08:58:23Z</time>
      </trkpt>
      <trkpt lat="45.8462" lon="6.44575">
        <ele>2457</ele>
        <time>2018-10-17T08:58:24Z</time>
      </trkpt>
      <trkpt lat="45.8462" lon="6.44575">
        <ele>2457</ele>
        <time>2018-10-17T08:58:25Z</time>
      </trkpt>
      <trkpt lat="45.8462" lon="6.44575">
        <ele>2457</ele>
        <time>2018-10-17T08:58:26Z</time>
      </trkpt>
      <trkpt lat="45.84617" lon="6.44573">
        <ele>2457</ele>
        <time>2018-10-17T08:58:27Z</time>
      </trkpt>
      <trkpt lat="45.84617" lon="6.44573">
        <ele>2457</ele>
        <time>2018-10-17T08:58:28Z</time>
      </trkpt>
      <trkpt lat="45.84616" lon="6.44571">
        <ele>2457</ele>
        <time>2018-10-17T08:58:29Z</time>
      </trkpt>
      <trkpt lat="45.84616" lon="6.44571">
        <ele>2457</ele>
        <time>2018-10-17T08:58:30Z</time>
      </trkpt>
      <trkpt lat="45.84614" lon="6.44569">
        <ele>2457</ele>
        <time>2018-10-17T08:58:31Z</time>
      </trkpt>
      <trkpt lat="45.84614" lon="6.44569">
        <ele>2457</ele>
        <time>2018-10-17T08:58:32Z</time>
      </trkpt>
      <trkpt lat="45.84613" lon="6.44568">
        <ele>2457</ele>
        <time>2018-10-17T08:58:33Z</time>
      </trkpt>
      <trkpt lat="45.84613" lon="6.44568">
        <ele>2458</ele>
        <time>2018-10-17T08:58:34Z</time>
      </trkpt>
      <trkpt lat="45.84613" lon="6.44568">
        <ele>2458</ele>
        <time>2018-10-17T08:58:35Z</time>
      </trkpt>
      <trkpt lat="45.84611" lon="6.44566">
        <ele>2458</ele>
        <time>2018-10-17T08:58:36Z</time>
      </trkpt>
      <trkpt lat="45.84611" lon="6.44566">
        <ele>2458</ele>
        <time>2018-10-17T08:58:37Z</time>
      </trkpt>
      <trkpt lat="45.84611" lon="6.44566">
        <ele>2458</ele>
        <time>2018-10-17T08:58:38Z</time>
      </trkpt>
      <trkpt lat="45.84608" lon="6.44565">
        <ele>2458</ele>
        <time>2018-10-17T08:58:39Z</time>
      </trkpt>
      <trkpt lat="45.84608" lon="6.44565">
        <ele>2458</ele>
        <time>2018-10-17T08:58:40Z</time>
      </trkpt>
      <trkpt lat="45.84608" lon="6.44565">
        <ele>2458</ele>
        <time>2018-10-17T08:58:41Z</time>
      </trkpt>
      <trkpt lat="45.84607" lon="6.44564">
        <ele>2458</ele>
        <time>2018-10-17T08:58:42Z</time>
      </trkpt>
      <trkpt lat="45.84607" lon="6.44564">
        <ele>2458</ele>
        <time>2018-10-17T08:58:43Z</time>
      </trkpt>
      <trkpt lat="45.84607" lon="6.44564">
        <ele>2459</ele>
        <time>2018-10-17T08:58:44Z</time>
      </trkpt>
      <trkpt lat="45.84607" lon="6.44564">
        <ele>2459</ele>
        <time>2018-10-17T08:58:45Z</time>
      </trkpt>
      <trkpt lat="45.84604" lon="6.44564">
        <ele>2459</ele>
        <time>2018-10-17T08:58:46Z</time>
      </trkpt>
      <trkpt lat="45.84604" lon="6.44564">
        <ele>2460</ele>
        <time>2018-10-17T08:58:47Z</time>
      </trkpt>
      <trkpt lat="45.84604" lon="6.44564">
        <ele>2460</ele>
        <time>2018-10-17T08:58:48Z</time>
      </trkpt>
      <trkpt lat="45.84604" lon="6.44564">
        <ele>2460</ele>
        <time>2018-10-17T08:58:49Z</time>
      </trkpt>
      <trkpt lat="45.84604" lon="6.44564">
        <ele>2460</ele>
        <time>2018-10-17T08:58:50Z</time>
      </trkpt>
      <trkpt lat="45.84604" lon="6.44564">
        <ele>2459</ele>
        <time>2018-10-17T08:58:51Z</time>
      </trkpt>
      <trkpt lat="45.84602" lon="6.44563">
        <ele>2459</ele>
        <time>2018-10-17T08:58:52Z</time>
      </trkpt>
      <trkpt lat="45.84602" lon="6.44563">
        <ele>2460</ele>
        <time>2018-10-17T08:58:53Z</time>
      </trkpt>
      <trkpt lat="45.84602" lon="6.44563">
        <ele>2460</ele>
        <time>2018-10-17T08:58:54Z</time>
      </trkpt>
      <trkpt lat="45.846" lon="6.44561">
        <ele>2460</ele>
        <time>2018-10-17T08:58:55Z</time>
      </trkpt>
      <trkpt lat="45.846" lon="6.44561">
        <ele>2460</ele>
        <time>2018-10-17T08:58:56Z</time>
      </trkpt>
      <trkpt lat="45.846" lon="6.44561">
        <ele>2460</ele>
        <time>2018-10-17T08:58:57Z</time>
      </trkpt>
      <trkpt lat="45.846" lon="6.44561">
        <ele>2461</ele>
        <time>2018-10-17T08:58:58Z</time>
      </trkpt>
      <trkpt lat="45.846" lon="6.44561">
        <ele>2461</ele>
        <time>2018-10-17T08:58:59Z</time>
      </trkpt>
      <trkpt lat="45.846" lon="6.44561">
        <ele>2461</ele>
        <time>2018-10-17T08:59:00Z</time>
      </trkpt>
      <trkpt lat="45.846" lon="6.44561">
        <ele>2461</ele>
        <time>2018-10-17T08:59:01Z</time>
      </trkpt>
      <trkpt lat="45.846" lon="6.44561">
        <ele>2461</ele>
        <time>2018-10-17T08:59:02Z</time>
      </trkpt>
      <trkpt lat="45.84599" lon="6.44559">
        <ele>2461</ele>
        <time>2018-10-17T08:59:03Z</time>
      </trkpt>
      <trkpt lat="45.84599" lon="6.44559">
        <ele>2461</ele>
        <time>2018-10-17T08:59:04Z</time>
      </trkpt>
      <trkpt lat="45.84599" lon="6.44559">
        <ele>2461</ele>
        <time>2018-10-17T08:59:05Z</time>
      </trkpt>
      <trkpt lat="45.84598" lon="6.44557">
        <ele>2461</ele>
        <time>2018-10-17T08:59:06Z</time>
      </trkpt>
      <trkpt lat="45.84598" lon="6.44557">
        <ele>2460</ele>
        <time>2018-10-17T08:59:07Z</time>
      </trkpt>
      <trkpt lat="45.84598" lon="6.44557">
        <ele>2460</ele>
        <time>2018-10-17T08:59:08Z</time>
      </trkpt>
      <trkpt lat="45.84597" lon="6.44554">
        <ele>2459</ele>
        <time>2018-10-17T08:59:09Z</time>
      </trkpt>
      <trkpt lat="45.84597" lon="6.44554">
        <ele>2459</ele>
        <time>2018-10-17T08:59:10Z</time>
      </trkpt>
      <trkpt lat="45.84597" lon="6.44554">
        <ele>2459</ele>
        <time>2018-10-17T08:59:11Z</time>
      </trkpt>
      <trkpt lat="45.84597" lon="6.44554">
        <ele>2459</ele>
        <time>2018-10-17T08:59:12Z</time>
      </trkpt>
      <trkpt lat="45.84596" lon="6.44552">
        <ele>2459</ele>
        <time>2018-10-17T08:59:13Z</time>
      </trkpt>
      <trkpt lat="45.84596" lon="6.44552">
        <ele>2459</ele>
        <time>2018-10-17T08:59:14Z</time>
      </trkpt>
      <trkpt lat="45.84596" lon="6.44552">
        <ele>2458</ele>
        <time>2018-10-17T08:59:15Z</time>
      </trkpt>
      <trkpt lat="45.84596" lon="6.44552">
        <ele>2458</ele>
        <time>2018-10-17T08:59:16Z</time>
      </trkpt>
      <trkpt lat="45.84596" lon="6.44552">
        <ele>2458</ele>
        <time>2018-10-17T08:59:17Z</time>
      </trkpt>
      <trkpt lat="45.84596" lon="6.44552">
        <ele>2458</ele>
        <time>2018-10-17T08:59:18Z</time>
      </trkpt>
      <trkpt lat="45.84595" lon="6.4455">
        <ele>2458</ele>
        <time>2018-10-17T08:59:19Z</time>
      </trkpt>
      <trkpt lat="45.84595" lon="6.4455">
        <ele>2458</ele>
        <time>2018-10-17T08:59:20Z</time>
      </trkpt>
      <trkpt lat="45.84595" lon="6.4455">
        <ele>2458</ele>
        <time>2018-10-17T08:59:21Z</time>
      </trkpt>
      <trkpt lat="45.84595" lon="6.4455">
        <ele>2458</ele>
        <time>2018-10-17T08:59:22Z</time>
      </trkpt>
      <trkpt lat="45.84595" lon="6.4455">
        <ele>2458</ele>
        <time>2018-10-17T08:59:23Z</time>
      </trkpt>
      <trkpt lat="45.84594" lon="6.44547">
        <ele>2458</ele>
        <time>2018-10-17T08:59:24Z</time>
      </trkpt>
      <trkpt lat="45.84594" lon="6.44547">
        <ele>2458</ele>
        <time>2018-10-17T08:59:25Z</time>
      </trkpt>
      <trkpt lat="45.84594" lon="6.44547">
        <ele>2458</ele>
        <time>2018-10-17T08:59:26Z</time>
      </trkpt>
      <trkpt lat="45.84594" lon="6.44547">
        <ele>2458</ele>
        <time>2018-10-17T08:59:27Z</time>
      </trkpt>
      <trkpt lat="45.84594" lon="6.44547">
        <ele>2457</ele>
        <time>2018-10-17T08:59:28Z</time>
      </trkpt>
      <trkpt lat="45.84592" lon="6.44546">
        <ele>2457</ele>
        <time>2018-10-17T08:59:29Z</time>
      </trkpt>
      <trkpt lat="45.84592" lon="6.44546">
        <ele>2457</ele>
        <time>2018-10-17T08:59:30Z</time>
      </trkpt>
      <trkpt lat="45.84592" lon="6.44546">
        <ele>2457</ele>
        <time>2018-10-17T08:59:31Z</time>
      </trkpt>
      <trkpt lat="45.84592" lon="6.44546">
        <ele>2457</ele>
        <time>2018-10-17T08:59:32Z</time>
      </trkpt>
      <trkpt lat="45.84592" lon="6.44546">
        <ele>2457</ele>
        <time>2018-10-17T08:59:33Z</time>
      </trkpt>
      <trkpt lat="45.8459" lon="6.44545">
        <ele>2457</ele>
        <time>2018-10-17T08:59:34Z</time>
      </trkpt>
      <trkpt lat="45.8459" lon="6.44545">
        <ele>2456</ele>
        <time>2018-10-17T08:59:35Z</time>
      </trkpt>
      <trkpt lat="45.8459" lon="6.44545">
        <ele>2456</ele>
        <time>2018-10-17T08:59:36Z</time>
      </trkpt>
      <trkpt lat="45.8459" lon="6.44545">
        <ele>2456</ele>
        <time>2018-10-17T08:59:37Z</time>
      </trkpt>
      <trkpt lat="45.8459" lon="6.44545">
        <ele>2456</ele>
        <time>2018-10-17T08:59:38Z</time>
      </trkpt>
      <trkpt lat="45.8459" lon="6.44545">
        <ele>2456</ele>
        <time>2018-10-17T08:59:39Z</time>
      </trkpt>
      <trkpt lat="45.8459" lon="6.44545">
        <ele>2456</ele>
        <time>2018-10-17T08:59:40Z</time>
      </trkpt>
      <trkpt lat="45.8459" lon="6.44545">
        <ele>2456</ele>
        <time>2018-10-17T08:59:41Z</time>
      </trkpt>
      <trkpt lat="45.8459" lon="6.44545">
        <ele>2456</ele>
        <time>2018-10-17T08:59:42Z</time>
      </trkpt>
      <trkpt lat="45.8459" lon="6.44545">
        <ele>2456</ele>
        <time>2018-10-17T08:59:43Z</time>
      </trkpt>
      <trkpt lat="45.8459" lon="6.44545">
        <ele>2456</ele>
        <time>2018-10-17T08:59:44Z</time>
      </trkpt>
      <trkpt lat="45.8459" lon="6.44545">
        <ele>2456</ele>
        <time>2018-10-17T08:59:45Z</time>
      </trkpt>
      <trkpt lat="45.8459" lon="6.44545">
        <ele>2456</ele>
        <time>2018-10-17T08:59:46Z</time>
      </trkpt>
      <trkpt lat="45.8459" lon="6.44545">
        <ele>2456</ele>
        <time>2018-10-17T08:59:47Z</time>
      </trkpt>
      <trkpt lat="45.8459" lon="6.44545">
        <ele>2456</ele>
        <time>2018-10-17T08:59:48Z</time>
      </trkpt>
      <trkpt lat="45.8459" lon="6.44545">
        <ele>2456</ele>
        <time>2018-10-17T08:59:49Z</time>
      </trkpt>
      <trkpt lat="45.8459" lon="6.44545">
        <ele>2456</ele>
        <time>2018-10-17T08:59:50Z</time>
      </trkpt>
      <trkpt lat="45.84588" lon="6.44544">
        <ele>2456</ele>
        <time>2018-10-17T08:59:51Z</time>
      </trkpt>
      <trkpt lat="45.84588" lon="6.44544">
        <ele>2456</ele>
        <time>2018-10-17T08:59:52Z</time>
      </trkpt>
      <trkpt lat="45.84588" lon="6.44544">
        <ele>2456</ele>
        <time>2018-10-17T08:59:53Z</time>
      </trkpt>
      <trkpt lat="45.84588" lon="6.44544">
        <ele>2456</ele>
        <time>2018-10-17T08:59:54Z</time>
      </trkpt>
      <trkpt lat="45.84588" lon="6.44544">
        <ele>2455</ele>
        <time>2018-10-17T08:59:55Z</time>
      </trkpt>
      <trkpt lat="45.84588" lon="6.44544">
        <ele>2455</ele>
        <time>2018-10-17T08:59:56Z</time>
      </trkpt>
      <trkpt lat="45.84588" lon="6.44544">
        <ele>2455</ele>
        <time>2018-10-17T08:59:57Z</time>
      </trkpt>
      <trkpt lat="45.84588" lon="6.44544">
        <ele>2455</ele>
        <time>2018-10-17T08:59:58Z</time>
      </trkpt>
      <trkpt lat="45.84588" lon="6.44544">
        <ele>2455</ele>
        <time>2018-10-17T08:59:59Z</time>
      </trkpt>
      <trkpt lat="45.84588" lon="6.44544">
        <ele>2455</ele>
        <time>2018-10-17T09:00:00Z</time>
      </trkpt>
      <trkpt lat="45.84588" lon="6.44544">
        <ele>2455</ele>
        <time>2018-10-17T09:00:01Z</time>
      </trkpt>
      <trkpt lat="45.84588" lon="6.44544">
        <ele>2455</ele>
        <time>2018-10-17T09:00:02Z</time>
      </trkpt>
      <trkpt lat="45.84587" lon="6.44543">
        <ele>2455</ele>
        <time>2018-10-17T09:00:03Z</time>
      </trkpt>
      <trkpt lat="45.84587" lon="6.44543">
        <ele>2455</ele>
        <time>2018-10-17T09:00:04Z</time>
      </trkpt>
      <trkpt lat="45.84587" lon="6.44543">
        <ele>2455</ele>
        <time>2018-10-17T09:00:05Z</time>
      </trkpt>
      <trkpt lat="45.84587" lon="6.44543">
        <ele>2455</ele>
        <time>2018-10-17T09:00:06Z</time>
      </trkpt>
      <trkpt lat="45.84587" lon="6.44543">
        <ele>2455</ele>
        <time>2018-10-17T09:00:07Z</time>
      </trkpt>
      <trkpt lat="45.84587" lon="6.44543">
        <ele>2455</ele>
        <time>2018-10-17T09:00:08Z</time>
      </trkpt>
      <trkpt lat="45.84587" lon="6.44543">
        <ele>2455</ele>
        <time>2018-10-17T09:00:09Z</time>
      </trkpt>
      <trkpt lat="45.84587" lon="6.44543">
        <ele>2456</ele>
        <time>2018-10-17T09:00:10Z</time>
      </trkpt>
      <trkpt lat="45.84587" lon="6.44543">
        <ele>2456</ele>
        <time>2018-10-17T09:00:11Z</time>
      </trkpt>
      <trkpt lat="45.84587" lon="6.44543">
        <ele>2456</ele>
        <time>2018-10-17T09:00:12Z</time>
      </trkpt>
      <trkpt lat="45.84587" lon="6.44543">
        <ele>2454</ele>
        <time>2018-10-17T09:00:13Z</time>
      </trkpt>
      <trkpt lat="45.84587" lon="6.44543">
        <ele>2455</ele>
        <time>2018-10-17T09:00:14Z</time>
      </trkpt>
      <trkpt lat="45.84587" lon="6.44543">
        <ele>2455</ele>
        <time>2018-10-17T09:00:15Z</time>
      </trkpt>
      <trkpt lat="45.84587" lon="6.44543">
        <ele>2455</ele>
        <time>2018-10-17T09:00:16Z</time>
      </trkpt>
      <trkpt lat="45.84587" lon="6.44543">
        <ele>2455</ele>
        <time>2018-10-17T09:00:17Z</time>
      </trkpt>
      <trkpt lat="45.84587" lon="6.44543">
        <ele>2455</ele>
        <time>2018-10-17T09:00:18Z</time>
      </trkpt>
      <trkpt lat="45.84587" lon="6.44543">
        <ele>2455</ele>
        <time>2018-10-17T09:00:19Z</time>
      </trkpt>
      <trkpt lat="45.84587" lon="6.44543">
        <ele>2455</ele>
        <time>2018-10-17T09:00:20Z</time>
      </trkpt>
      <trkpt lat="45.84587" lon="6.44543">
        <ele>2455</ele>
        <time>2018-10-17T09:00:21Z</time>
      </trkpt>
      <trkpt lat="45.84587" lon="6.44543">
        <ele>2455</ele>
        <time>2018-10-17T09:00:22Z</time>
      </trkpt>
      <trkpt lat="45.84587" lon="6.44543">
        <ele>2455</ele>
        <time>2018-10-17T09:00:23Z</time>
      </trkpt>
      <trkpt lat="45.84587" lon="6.44543">
        <ele>2455</ele>
        <time>2018-10-17T09:00:24Z</time>
      </trkpt>
      <trkpt lat="45.84587" lon="6.44543">
        <ele>2455</ele>
        <time>2018-10-17T09:00:25Z</time>
      </trkpt>
      <trkpt lat="45.84587" lon="6.44543">
        <ele>2455</ele>
        <time>2018-10-17T09:00:26Z</time>
      </trkpt>
      <trkpt lat="45.84587" lon="6.44543">
        <ele>2456</ele>
        <time>2018-10-17T09:00:27Z</time>
      </trkpt>
      <trkpt lat="45.84587" lon="6.44543">
        <ele>2456</ele>
        <time>2018-10-17T09:00:28Z</time>
      </trkpt>
      <trkpt lat="45.84587" lon="6.44543">
        <ele>2456</ele>
        <time>2018-10-17T09:00:29Z</time>
      </trkpt>
      <trkpt lat="45.84587" lon="6.44543">
        <ele>2456</ele>
        <time>2018-10-17T09:00:30Z</time>
      </trkpt>
      <trkpt lat="45.84587" lon="6.44543">
        <ele>2455</ele>
        <time>2018-10-17T09:00:31Z</time>
      </trkpt>
      <trkpt lat="45.84587" lon="6.44543">
        <ele>2455</ele>
        <time>2018-10-17T09:00:32Z</time>
      </trkpt>
      <trkpt lat="45.84587" lon="6.44543">
        <ele>2455</ele>
        <time>2018-10-17T09:00:33Z</time>
      </trkpt>
      <trkpt lat="45.84587" lon="6.44543">
        <ele>2455</ele>
        <time>2018-10-17T09:00:34Z</time>
      </trkpt>
      <trkpt lat="45.84587" lon="6.44543">
        <ele>2455</ele>
        <time>2018-10-17T09:00:35Z</time>
      </trkpt>
      <trkpt lat="45.84587" lon="6.44543">
        <ele>2455</ele>
        <time>2018-10-17T09:00:36Z</time>
      </trkpt>
      <trkpt lat="45.84587" lon="6.44543">
        <ele>2455</ele>
        <time>2018-10-17T09:00:37Z</time>
      </trkpt>
      <trkpt lat="45.84587" lon="6.44543">
        <ele>2455</ele>
        <time>2018-10-17T09:00:38Z</time>
      </trkpt>
      <trkpt lat="45.84587" lon="6.44543">
        <ele>2455</ele>
        <time>2018-10-17T09:00:39Z</time>
      </trkpt>
      <trkpt lat="45.84587" lon="6.44543">
        <ele>2455</ele>
        <time>2018-10-17T09:00:40Z</time>
      </trkpt>
      <trkpt lat="45.84587" lon="6.44543">
        <ele>2455</ele>
        <time>2018-10-17T09:00:41Z</time>
      </trkpt>
      <trkpt lat="45.84587" lon="6.44543">
        <ele>2455</ele>
        <time>2018-10-17T09:00:42Z</time>
      </trkpt>
      <trkpt lat="45.84587" lon="6.44543">
        <ele>2455</ele>
        <time>2018-10-17T09:00:43Z</time>
      </trkpt>
      <trkpt lat="45.84587" lon="6.44543">
        <ele>2455</ele>
        <time>2018-10-17T09:00:44Z</time>
      </trkpt>
      <trkpt lat="45.84587" lon="6.44543">
        <ele>2456</ele>
        <time>2018-10-17T09:00:45Z</time>
      </trkpt>
      <trkpt lat="45.84587" lon="6.44543">
        <ele>2456</ele>
        <time>2018-10-17T09:00:46Z</time>
      </trkpt>
      <trkpt lat="45.84586" lon="6.4454">
        <ele>2456</ele>
        <time>2018-10-17T09:00:47Z</time>
      </trkpt>
      <trkpt lat="45.84586" lon="6.4454">
        <ele>2456</ele>
        <time>2018-10-17T09:00:48Z</time>
      </trkpt>
      <trkpt lat="45.84586" lon="6.4454">
        <ele>2456</ele>
        <time>2018-10-17T09:00:49Z</time>
      </trkpt>
      <trkpt lat="45.84586" lon="6.4454">
        <ele>2455</ele>
        <time>2018-10-17T09:00:50Z</time>
      </trkpt>
      <trkpt lat="45.84586" lon="6.4454">
        <ele>2455</ele>
        <time>2018-10-17T09:00:51Z</time>
      </trkpt>
      <trkpt lat="45.84586" lon="6.4454">
        <ele>2455</ele>
        <time>2018-10-17T09:00:52Z</time>
      </trkpt>
      <trkpt lat="45.84586" lon="6.4454">
        <ele>2455</ele>
        <time>2018-10-17T09:00:53Z</time>
      </trkpt>
      <trkpt lat="45.84584" lon="6.44539">
        <ele>2455</ele>
        <time>2018-10-17T09:00:54Z</time>
      </trkpt>
      <trkpt lat="45.84584" lon="6.44539">
        <ele>2455</ele>
        <time>2018-10-17T09:00:55Z</time>
      </trkpt>
      <trkpt lat="45.84584" lon="6.44539">
        <ele>2455</ele>
        <time>2018-10-17T09:00:56Z</time>
      </trkpt>
      <trkpt lat="45.84584" lon="6.44539">
        <ele>2455</ele>
        <time>2018-10-17T09:00:57Z</time>
      </trkpt>
      <trkpt lat="45.84584" lon="6.44539">
        <ele>2455</ele>
        <time>2018-10-17T09:00:58Z</time>
      </trkpt>
      <trkpt lat="45.84582" lon="6.44536">
        <ele>2455</ele>
        <time>2018-10-17T09:00:59Z</time>
      </trkpt>
      <trkpt lat="45.84582" lon="6.44536">
        <ele>2455</ele>
        <time>2018-10-17T09:01:00Z</time>
      </trkpt>
      <trkpt lat="45.84579" lon="6.44533">
        <ele>2455</ele>
        <time>2018-10-17T09:01:01Z</time>
      </trkpt>
      <trkpt lat="45.84579" lon="6.44533">
        <ele>2456</ele>
        <time>2018-10-17T09:01:02Z</time>
      </trkpt>
      <trkpt lat="45.84579" lon="6.44533">
        <ele>2456</ele>
        <time>2018-10-17T09:01:03Z</time>
      </trkpt>
      <trkpt lat="45.84578" lon="6.44532">
        <ele>2456</ele>
        <time>2018-10-17T09:01:04Z</time>
      </trkpt>
      <trkpt lat="45.84578" lon="6.44532">
        <ele>2456</ele>
        <time>2018-10-17T09:01:05Z</time>
      </trkpt>
      <trkpt lat="45.84578" lon="6.44532">
        <ele>2456</ele>
        <time>2018-10-17T09:01:06Z</time>
      </trkpt>
      <trkpt lat="45.84578" lon="6.44532">
        <ele>2456</ele>
        <time>2018-10-17T09:01:07Z</time>
      </trkpt>
      <trkpt lat="45.84578" lon="6.44532">
        <ele>2456</ele>
        <time>2018-10-17T09:01:08Z</time>
      </trkpt>
      <trkpt lat="45.84578" lon="6.44532">
        <ele>2456</ele>
        <time>2018-10-17T09:01:09Z</time>
      </trkpt>
      <trkpt lat="45.84578" lon="6.44532">
        <ele>2456</ele>
        <time>2018-10-17T09:01:10Z</time>
      </trkpt>
      <trkpt lat="45.84578" lon="6.44532">
        <ele>2456</ele>
        <time>2018-10-17T09:01:11Z</time>
      </trkpt>
      <trkpt lat="45.84578" lon="6.44532">
        <ele>2456</ele>
        <time>2018-10-17T09:01:12Z</time>
      </trkpt>
      <trkpt lat="45.84578" lon="6.44532">
        <ele>2456</ele>
        <time>2018-10-17T09:01:13Z</time>
      </trkpt>
      <trkpt lat="45.84578" lon="6.44532">
        <ele>2456</ele>
        <time>2018-10-17T09:01:14Z</time>
      </trkpt>
      <trkpt lat="45.84578" lon="6.44532">
        <ele>2456</ele>
        <time>2018-10-17T09:01:15Z</time>
      </trkpt>
      <trkpt lat="45.84578" lon="6.44532">
        <ele>2457</ele>
        <time>2018-10-17T09:01:16Z</time>
      </trkpt>
      <trkpt lat="45.84578" lon="6.44532">
        <ele>2457</ele>
        <time>2018-10-17T09:01:17Z</time>
      </trkpt>
      <trkpt lat="45.84578" lon="6.44532">
        <ele>2457</ele>
        <time>2018-10-17T09:01:18Z</time>
      </trkpt>
      <trkpt lat="45.84578" lon="6.44532">
        <ele>2457</ele>
        <time>2018-10-17T09:01:19Z</time>
      </trkpt>
      <trkpt lat="45.84578" lon="6.44532">
        <ele>2457</ele>
        <time>2018-10-17T09:01:20Z</time>
      </trkpt>
      <trkpt lat="45.84576" lon="6.44531">
        <ele>2457</ele>
        <time>2018-10-17T09:01:21Z</time>
      </trkpt>
      <trkpt lat="45.84576" lon="6.44531">
        <ele>2457</ele>
        <time>2018-10-17T09:01:22Z</time>
      </trkpt>
      <trkpt lat="45.84576" lon="6.44531">
        <ele>2457</ele>
        <time>2018-10-17T09:01:23Z</time>
      </trkpt>
      <trkpt lat="45.84576" lon="6.44531">
        <ele>2457</ele>
        <time>2018-10-17T09:01:24Z</time>
      </trkpt>
      <trkpt lat="45.84576" lon="6.44531">
        <ele>2457</ele>
        <time>2018-10-17T09:01:25Z</time>
      </trkpt>
      <trkpt lat="45.84576" lon="6.44531">
        <ele>2457</ele>
        <time>2018-10-17T09:01:26Z</time>
      </trkpt>
      <trkpt lat="45.84576" lon="6.44531">
        <ele>2457</ele>
        <time>2018-10-17T09:01:27Z</time>
      </trkpt>
      <trkpt lat="45.84576" lon="6.44531">
        <ele>2457</ele>
        <time>2018-10-17T09:01:28Z</time>
      </trkpt>
      <trkpt lat="45.84574" lon="6.44529">
        <ele>2458</ele>
        <time>2018-10-17T09:01:29Z</time>
      </trkpt>
      <trkpt lat="45.84574" lon="6.44529">
        <ele>2458</ele>
        <time>2018-10-17T09:01:30Z</time>
      </trkpt>
      <trkpt lat="45.84574" lon="6.44529">
        <ele>2458</ele>
        <time>2018-10-17T09:01:31Z</time>
      </trkpt>
      <trkpt lat="45.84574" lon="6.44529">
        <ele>2458</ele>
        <time>2018-10-17T09:01:32Z</time>
      </trkpt>
      <trkpt lat="45.84574" lon="6.44529">
        <ele>2458</ele>
        <time>2018-10-17T09:01:33Z</time>
      </trkpt>
      <trkpt lat="45.84574" lon="6.44529">
        <ele>2458</ele>
        <time>2018-10-17T09:01:34Z</time>
      </trkpt>
      <trkpt lat="45.84574" lon="6.44529">
        <ele>2458</ele>
        <time>2018-10-17T09:01:35Z</time>
      </trkpt>
      <trkpt lat="45.84574" lon="6.44529">
        <ele>2458</ele>
        <time>2018-10-17T09:01:36Z</time>
      </trkpt>
      <trkpt lat="45.84574" lon="6.44529">
        <ele>2459</ele>
        <time>2018-10-17T09:01:37Z</time>
      </trkpt>
      <trkpt lat="45.84573" lon="6.44528">
        <ele>2459</ele>
        <time>2018-10-17T09:01:38Z</time>
      </trkpt>
      <trkpt lat="45.84573" lon="6.44528">
        <ele>2459</ele>
        <time>2018-10-17T09:01:39Z</time>
      </trkpt>
      <trkpt lat="45.84573" lon="6.44528">
        <ele>2459</ele>
        <time>2018-10-17T09:01:40Z</time>
      </trkpt>
      <trkpt lat="45.84573" lon="6.44528">
        <ele>2459</ele>
        <time>2018-10-17T09:01:41Z</time>
      </trkpt>
      <trkpt lat="45.84571" lon="6.44527">
        <ele>2459</ele>
        <time>2018-10-17T09:01:42Z</time>
      </trkpt>
      <trkpt lat="45.84571" lon="6.44527">
        <ele>2459</ele>
        <time>2018-10-17T09:01:43Z</time>
      </trkpt>
      <trkpt lat="45.84571" lon="6.44527">
        <ele>2459</ele>
        <time>2018-10-17T09:01:44Z</time>
      </trkpt>
      <trkpt lat="45.84569" lon="6.44525">
        <ele>2459</ele>
        <time>2018-10-17T09:01:45Z</time>
      </trkpt>
      <trkpt lat="45.84569" lon="6.44525">
        <ele>2459</ele>
        <time>2018-10-17T09:01:46Z</time>
      </trkpt>
      <trkpt lat="45.84569" lon="6.44525">
        <ele>2459</ele>
        <time>2018-10-17T09:01:47Z</time>
      </trkpt>
      <trkpt lat="45.84569" lon="6.44525">
        <ele>2459</ele>
        <time>2018-10-17T09:01:48Z</time>
      </trkpt>
      <trkpt lat="45.84569" lon="6.44525">
        <ele>2459</ele>
        <time>2018-10-17T09:01:49Z</time>
      </trkpt>
      <trkpt lat="45.84569" lon="6.44525">
        <ele>2459</ele>
        <time>2018-10-17T09:01:50Z</time>
      </trkpt>
      <trkpt lat="45.84569" lon="6.44525">
        <ele>2459</ele>
        <time>2018-10-17T09:01:51Z</time>
      </trkpt>
      <trkpt lat="45.84569" lon="6.44525">
        <ele>2459</ele>
        <time>2018-10-17T09:01:52Z</time>
      </trkpt>
      <trkpt lat="45.84569" lon="6.44525">
        <ele>2459</ele>
        <time>2018-10-17T09:01:53Z</time>
      </trkpt>
      <trkpt lat="45.84569" lon="6.44525">
        <ele>2459</ele>
        <time>2018-10-17T09:01:54Z</time>
      </trkpt>
      <trkpt lat="45.84569" lon="6.44525">
        <ele>2459</ele>
        <time>2018-10-17T09:01:55Z</time>
      </trkpt>
      <trkpt lat="45.84569" lon="6.44525">
        <ele>2459</ele>
        <time>2018-10-17T09:01:56Z</time>
      </trkpt>
      <trkpt lat="45.84569" lon="6.44525">
        <ele>2459</ele>
        <time>2018-10-17T09:01:57Z</time>
      </trkpt>
      <trkpt lat="45.84569" lon="6.44525">
        <ele>2460</ele>
        <time>2018-10-17T09:01:58Z</time>
      </trkpt>
      <trkpt lat="45.84568" lon="6.44523">
        <ele>2460</ele>
        <time>2018-10-17T09:01:59Z</time>
      </trkpt>
      <trkpt lat="45.84568" lon="6.44523">
        <ele>2460</ele>
        <time>2018-10-17T09:02:00Z</time>
      </trkpt>
      <trkpt lat="45.84568" lon="6.44523">
        <ele>2460</ele>
        <time>2018-10-17T09:02:01Z</time>
      </trkpt>
      <trkpt lat="45.84568" lon="6.44523">
        <ele>2460</ele>
        <time>2018-10-17T09:02:02Z</time>
      </trkpt>
      <trkpt lat="45.84568" lon="6.44523">
        <ele>2460</ele>
        <time>2018-10-17T09:02:03Z</time>
      </trkpt>
      <trkpt lat="45.84568" lon="6.44523">
        <ele>2460</ele>
        <time>2018-10-17T09:02:04Z</time>
      </trkpt>
      <trkpt lat="45.84567" lon="6.44521">
        <ele>2460</ele>
        <time>2018-10-17T09:02:05Z</time>
      </trkpt>
      <trkpt lat="45.84567" lon="6.44521">
        <ele>2460</ele>
        <time>2018-10-17T09:02:06Z</time>
      </trkpt>
      <trkpt lat="45.84567" lon="6.44521">
        <ele>2460</ele>
        <time>2018-10-17T09:02:07Z</time>
      </trkpt>
      <trkpt lat="45.84566" lon="6.44519">
        <ele>2460</ele>
        <time>2018-10-17T09:02:08Z</time>
      </trkpt>
      <trkpt lat="45.84566" lon="6.44519">
        <ele>2460</ele>
        <time>2018-10-17T09:02:09Z</time>
      </trkpt>
      <trkpt lat="45.84566" lon="6.44519">
        <ele>2459</ele>
        <time>2018-10-17T09:02:10Z</time>
      </trkpt>
      <trkpt lat="45.84566" lon="6.44519">
        <ele>2459</ele>
        <time>2018-10-17T09:02:11Z</time>
      </trkpt>
      <trkpt lat="45.84566" lon="6.44519">
        <ele>2459</ele>
        <time>2018-10-17T09:02:12Z</time>
      </trkpt>
      <trkpt lat="45.84566" lon="6.44519">
        <ele>2459</ele>
        <time>2018-10-17T09:02:13Z</time>
      </trkpt>
      <trkpt lat="45.84566" lon="6.44519">
        <ele>2459</ele>
        <time>2018-10-17T09:02:14Z</time>
      </trkpt>
      <trkpt lat="45.84566" lon="6.44519">
        <ele>2459</ele>
        <time>2018-10-17T09:02:15Z</time>
      </trkpt>
      <trkpt lat="45.84566" lon="6.44519">
        <ele>2459</ele>
        <time>2018-10-17T09:02:16Z</time>
      </trkpt>
      <trkpt lat="45.84566" lon="6.44519">
        <ele>2459</ele>
        <time>2018-10-17T09:02:17Z</time>
      </trkpt>
      <trkpt lat="45.84566" lon="6.44519">
        <ele>2459</ele>
        <time>2018-10-17T09:02:18Z</time>
      </trkpt>
      <trkpt lat="45.84566" lon="6.44519">
        <ele>2459</ele>
        <time>2018-10-17T09:02:19Z</time>
      </trkpt>
      <trkpt lat="45.84566" lon="6.44519">
        <ele>2459</ele>
        <time>2018-10-17T09:02:20Z</time>
      </trkpt>
      <trkpt lat="45.84566" lon="6.44519">
        <ele>2459</ele>
        <time>2018-10-17T09:02:21Z</time>
      </trkpt>
      <trkpt lat="45.84565" lon="6.44517">
        <ele>2459</ele>
        <time>2018-10-17T09:02:22Z</time>
      </trkpt>
      <trkpt lat="45.84565" lon="6.44517">
        <ele>2459</ele>
        <time>2018-10-17T09:02:23Z</time>
      </trkpt>
      <trkpt lat="45.84565" lon="6.44517">
        <ele>2459</ele>
        <time>2018-10-17T09:02:24Z</time>
      </trkpt>
      <trkpt lat="45.84565" lon="6.44517">
        <ele>2459</ele>
        <time>2018-10-17T09:02:25Z</time>
      </trkpt>
      <trkpt lat="45.84563" lon="6.44515">
        <ele>2459</ele>
        <time>2018-10-17T09:02:26Z</time>
      </trkpt>
      <trkpt lat="45.84563" lon="6.44515">
        <ele>2459</ele>
        <time>2018-10-17T09:02:27Z</time>
      </trkpt>
      <trkpt lat="45.84563" lon="6.44515">
        <ele>2459</ele>
        <time>2018-10-17T09:02:28Z</time>
      </trkpt>
      <trkpt lat="45.84563" lon="6.44515">
        <ele>2459</ele>
        <time>2018-10-17T09:02:29Z</time>
      </trkpt>
      <trkpt lat="45.84563" lon="6.44515">
        <ele>2460</ele>
        <time>2018-10-17T09:02:30Z</time>
      </trkpt>
      <trkpt lat="45.84562" lon="6.44514">
        <ele>2460</ele>
        <time>2018-10-17T09:02:31Z</time>
      </trkpt>
      <trkpt lat="45.84562" lon="6.44514">
        <ele>2460</ele>
        <time>2018-10-17T09:02:32Z</time>
      </trkpt>
      <trkpt lat="45.84562" lon="6.44514">
        <ele>2460</ele>
        <time>2018-10-17T09:02:33Z</time>
      </trkpt>
      <trkpt lat="45.84562" lon="6.44514">
        <ele>2460</ele>
        <time>2018-10-17T09:02:34Z</time>
      </trkpt>
      <trkpt lat="45.8456" lon="6.44512">
        <ele>2460</ele>
        <time>2018-10-17T09:02:35Z</time>
      </trkpt>
      <trkpt lat="45.8456" lon="6.44512">
        <ele>2461</ele>
        <time>2018-10-17T09:02:36Z</time>
      </trkpt>
      <trkpt lat="45.8456" lon="6.44512">
        <ele>2461</ele>
        <time>2018-10-17T09:02:37Z</time>
      </trkpt>
      <trkpt lat="45.8456" lon="6.44512">
        <ele>2461</ele>
        <time>2018-10-17T09:02:38Z</time>
      </trkpt>
      <trkpt lat="45.84558" lon="6.44511">
        <ele>2461</ele>
        <time>2018-10-17T09:02:39Z</time>
      </trkpt>
      <trkpt lat="45.84558" lon="6.44511">
        <ele>2461</ele>
        <time>2018-10-17T09:02:40Z</time>
      </trkpt>
      <trkpt lat="45.84558" lon="6.44511">
        <ele>2462</ele>
        <time>2018-10-17T09:02:41Z</time>
      </trkpt>
      <trkpt lat="45.84556" lon="6.44509">
        <ele>2462</ele>
        <time>2018-10-17T09:02:42Z</time>
      </trkpt>
      <trkpt lat="45.84556" lon="6.44509">
        <ele>2462</ele>
        <time>2018-10-17T09:02:43Z</time>
      </trkpt>
      <trkpt lat="45.84556" lon="6.44509">
        <ele>2462</ele>
        <time>2018-10-17T09:02:44Z</time>
      </trkpt>
      <trkpt lat="45.84555" lon="6.44506">
        <ele>2462</ele>
        <time>2018-10-17T09:02:45Z</time>
      </trkpt>
      <trkpt lat="45.84555" lon="6.44506">
        <ele>2462</ele>
        <time>2018-10-17T09:02:46Z</time>
      </trkpt>
      <trkpt lat="45.84555" lon="6.44506">
        <ele>2462</ele>
        <time>2018-10-17T09:02:47Z</time>
      </trkpt>
      <trkpt lat="45.84554" lon="6.44503">
        <ele>2462</ele>
        <time>2018-10-17T09:02:48Z</time>
      </trkpt>
      <trkpt lat="45.84554" lon="6.44503">
        <ele>2462</ele>
        <time>2018-10-17T09:02:49Z</time>
      </trkpt>
      <trkpt lat="45.84554" lon="6.44503">
        <ele>2462</ele>
        <time>2018-10-17T09:02:50Z</time>
      </trkpt>
      <trkpt lat="45.84554" lon="6.44503">
        <ele>2462</ele>
        <time>2018-10-17T09:02:51Z</time>
      </trkpt>
      <trkpt lat="45.84554" lon="6.44503">
        <ele>2462</ele>
        <time>2018-10-17T09:02:52Z</time>
      </trkpt>
      <trkpt lat="45.84554" lon="6.44503">
        <ele>2462</ele>
        <time>2018-10-17T09:02:53Z</time>
      </trkpt>
      <trkpt lat="45.84554" lon="6.44503">
        <ele>2462</ele>
        <time>2018-10-17T09:02:54Z</time>
      </trkpt>
      <trkpt lat="45.84554" lon="6.44503">
        <ele>2462</ele>
        <time>2018-10-17T09:02:55Z</time>
      </trkpt>
      <trkpt lat="45.84554" lon="6.44503">
        <ele>2462</ele>
        <time>2018-10-17T09:02:56Z</time>
      </trkpt>
      <trkpt lat="45.84554" lon="6.44503">
        <ele>2462</ele>
        <time>2018-10-17T09:02:57Z</time>
      </trkpt>
      <trkpt lat="45.84554" lon="6.44503">
        <ele>2462</ele>
        <time>2018-10-17T09:02:58Z</time>
      </trkpt>
      <trkpt lat="45.84554" lon="6.44503">
        <ele>2462</ele>
        <time>2018-10-17T09:02:59Z</time>
      </trkpt>
      <trkpt lat="45.84554" lon="6.44503">
        <ele>2462</ele>
        <time>2018-10-17T09:03:00Z</time>
      </trkpt>
      <trkpt lat="45.84554" lon="6.44503">
        <ele>2461</ele>
        <time>2018-10-17T09:03:01Z</time>
      </trkpt>
      <trkpt lat="45.84554" lon="6.44503">
        <ele>2461</ele>
        <time>2018-10-17T09:03:02Z</time>
      </trkpt>
      <trkpt lat="45.84554" lon="6.44503">
        <ele>2461</ele>
        <time>2018-10-17T09:03:03Z</time>
      </trkpt>
      <trkpt lat="45.84554" lon="6.44503">
        <ele>2461</ele>
        <time>2018-10-17T09:03:04Z</time>
      </trkpt>
      <trkpt lat="45.84554" lon="6.44503">
        <ele>2461</ele>
        <time>2018-10-17T09:03:05Z</time>
      </trkpt>
      <trkpt lat="45.84554" lon="6.44503">
        <ele>2461</ele>
        <time>2018-10-17T09:03:06Z</time>
      </trkpt>
      <trkpt lat="45.84554" lon="6.44503">
        <ele>2461</ele>
        <time>2018-10-17T09:03:07Z</time>
      </trkpt>
      <trkpt lat="45.84554" lon="6.44503">
        <ele>2461</ele>
        <time>2018-10-17T09:03:08Z</time>
      </trkpt>
      <trkpt lat="45.84554" lon="6.44503">
        <ele>2461</ele>
        <time>2018-10-17T09:03:09Z</time>
      </trkpt>
      <trkpt lat="45.84551" lon="6.44503">
        <ele>2460</ele>
        <time>2018-10-17T09:03:10Z</time>
      </trkpt>
      <trkpt lat="45.84551" lon="6.44503">
        <ele>2460</ele>
        <time>2018-10-17T09:03:11Z</time>
      </trkpt>
      <trkpt lat="45.84551" lon="6.44503">
        <ele>2460</ele>
        <time>2018-10-17T09:03:12Z</time>
      </trkpt>
      <trkpt lat="45.84551" lon="6.44503">
        <ele>2460</ele>
        <time>2018-10-17T09:03:13Z</time>
      </trkpt>
      <trkpt lat="45.84551" lon="6.44503">
        <ele>2460</ele>
        <time>2018-10-17T09:03:14Z</time>
      </trkpt>
      <trkpt lat="45.84551" lon="6.44503">
        <ele>2460</ele>
        <time>2018-10-17T09:03:15Z</time>
      </trkpt>
      <trkpt lat="45.84551" lon="6.44501">
        <ele>2460</ele>
        <time>2018-10-17T09:03:16Z</time>
      </trkpt>
      <trkpt lat="45.84551" lon="6.44501">
        <ele>2460</ele>
        <time>2018-10-17T09:03:17Z</time>
      </trkpt>
      <trkpt lat="45.84551" lon="6.44501">
        <ele>2460</ele>
        <time>2018-10-17T09:03:18Z</time>
      </trkpt>
      <trkpt lat="45.84551" lon="6.44501">
        <ele>2460</ele>
        <time>2018-10-17T09:03:19Z</time>
      </trkpt>
      <trkpt lat="45.84551" lon="6.44501">
        <ele>2460</ele>
        <time>2018-10-17T09:03:20Z</time>
      </trkpt>
      <trkpt lat="45.84551" lon="6.44501">
        <ele>2460</ele>
        <time>2018-10-17T09:03:21Z</time>
      </trkpt>
      <trkpt lat="45.84551" lon="6.44501">
        <ele>2460</ele>
        <time>2018-10-17T09:03:22Z</time>
      </trkpt>
      <trkpt lat="45.84551" lon="6.44501">
        <ele>2460</ele>
        <time>2018-10-17T09:03:23Z</time>
      </trkpt>
      <trkpt lat="45.84551" lon="6.44501">
        <ele>2459</ele>
        <time>2018-10-17T09:03:24Z</time>
      </trkpt>
      <trkpt lat="45.84551" lon="6.44501">
        <ele>2459</ele>
        <time>2018-10-17T09:03:25Z</time>
      </trkpt>
      <trkpt lat="45.84551" lon="6.44501">
        <ele>2459</ele>
        <time>2018-10-17T09:03:26Z</time>
      </trkpt>
      <trkpt lat="45.84551" lon="6.44501">
        <ele>2459</ele>
        <time>2018-10-17T09:03:27Z</time>
      </trkpt>
      <trkpt lat="45.84551" lon="6.44501">
        <ele>2459</ele>
        <time>2018-10-17T09:03:28Z</time>
      </trkpt>
      <trkpt lat="45.84551" lon="6.44501">
        <ele>2459</ele>
        <time>2018-10-17T09:03:29Z</time>
      </trkpt>
      <trkpt lat="45.84551" lon="6.44501">
        <ele>2459</ele>
        <time>2018-10-17T09:03:30Z</time>
      </trkpt>
      <trkpt lat="45.84551" lon="6.44501">
        <ele>2459</ele>
        <time>2018-10-17T09:03:31Z</time>
      </trkpt>
      <trkpt lat="45.84551" lon="6.44501">
        <ele>2459</ele>
        <time>2018-10-17T09:03:32Z</time>
      </trkpt>
      <trkpt lat="45.84551" lon="6.44501">
        <ele>2459</ele>
        <time>2018-10-17T09:03:33Z</time>
      </trkpt>
      <trkpt lat="45.84551" lon="6.44501">
        <ele>2459</ele>
        <time>2018-10-17T09:03:34Z</time>
      </trkpt>
      <trkpt lat="45.84551" lon="6.44501">
        <ele>2459</ele>
        <time>2018-10-17T09:03:35Z</time>
      </trkpt>
      <trkpt lat="45.84551" lon="6.44501">
        <ele>2459</ele>
        <time>2018-10-17T09:03:36Z</time>
      </trkpt>
      <trkpt lat="45.84551" lon="6.44501">
        <ele>2459</ele>
        <time>2018-10-17T09:03:37Z</time>
      </trkpt>
      <trkpt lat="45.84549" lon="6.445">
        <ele>2458</ele>
        <time>2018-10-17T09:03:38Z</time>
      </trkpt>
      <trkpt lat="45.84549" lon="6.445">
        <ele>2458</ele>
        <time>2018-10-17T09:03:39Z</time>
      </trkpt>
      <trkpt lat="45.84549" lon="6.445">
        <ele>2458</ele>
        <time>2018-10-17T09:03:40Z</time>
      </trkpt>
      <trkpt lat="45.84549" lon="6.445">
        <ele>2458</ele>
        <time>2018-10-17T09:03:41Z</time>
      </trkpt>
      <trkpt lat="45.84549" lon="6.445">
        <ele>2458</ele>
        <time>2018-10-17T09:03:42Z</time>
      </trkpt>
      <trkpt lat="45.84549" lon="6.445">
        <ele>2458</ele>
        <time>2018-10-17T09:03:43Z</time>
      </trkpt>
      <trkpt lat="45.84549" lon="6.445">
        <ele>2458</ele>
        <time>2018-10-17T09:03:44Z</time>
      </trkpt>
      <trkpt lat="45.84549" lon="6.445">
        <ele>2458</ele>
        <time>2018-10-17T09:03:45Z</time>
      </trkpt>
      <trkpt lat="45.84549" lon="6.445">
        <ele>2458</ele>
        <time>2018-10-17T09:03:46Z</time>
      </trkpt>
      <trkpt lat="45.84549" lon="6.445">
        <ele>2458</ele>
        <time>2018-10-17T09:03:47Z</time>
      </trkpt>
      <trkpt lat="45.84549" lon="6.445">
        <ele>2458</ele>
        <time>2018-10-17T09:03:48Z</time>
      </trkpt>
      <trkpt lat="45.84549" lon="6.445">
        <ele>2458</ele>
        <time>2018-10-17T09:03:49Z</time>
      </trkpt>
      <trkpt lat="45.84549" lon="6.445">
        <ele>2459</ele>
        <time>2018-10-17T09:03:50Z</time>
      </trkpt>
      <trkpt lat="45.84549" lon="6.445">
        <ele>2457</ele>
        <time>2018-10-17T09:03:51Z</time>
      </trkpt>
      <trkpt lat="45.84547" lon="6.44499">
        <ele>2457</ele>
        <time>2018-10-17T09:03:52Z</time>
      </trkpt>
      <trkpt lat="45.84547" lon="6.44499">
        <ele>2457</ele>
        <time>2018-10-17T09:03:53Z</time>
      </trkpt>
      <trkpt lat="45.84547" lon="6.44499">
        <ele>2458</ele>
        <time>2018-10-17T09:03:54Z</time>
      </trkpt>
      <trkpt lat="45.84547" lon="6.44499">
        <ele>2458</ele>
        <time>2018-10-17T09:03:55Z</time>
      </trkpt>
      <trkpt lat="45.84547" lon="6.44499">
        <ele>2458</ele>
        <time>2018-10-17T09:03:56Z</time>
      </trkpt>
      <trkpt lat="45.84547" lon="6.44499">
        <ele>2458</ele>
        <time>2018-10-17T09:03:57Z</time>
      </trkpt>
      <trkpt lat="45.84547" lon="6.44499">
        <ele>2458</ele>
        <time>2018-10-17T09:03:58Z</time>
      </trkpt>
      <trkpt lat="45.84547" lon="6.44499">
        <ele>2458</ele>
        <time>2018-10-17T09:03:59Z</time>
      </trkpt>
      <trkpt lat="45.84547" lon="6.44499">
        <ele>2458</ele>
        <time>2018-10-17T09:04:00Z</time>
      </trkpt>
      <trkpt lat="45.84547" lon="6.44499">
        <ele>2458</ele>
        <time>2018-10-17T09:04:01Z</time>
      </trkpt>
      <trkpt lat="45.84547" lon="6.44499">
        <ele>2459</ele>
        <time>2018-10-17T09:04:02Z</time>
      </trkpt>
      <trkpt lat="45.84547" lon="6.44499">
        <ele>2459</ele>
        <time>2018-10-17T09:04:03Z</time>
      </trkpt>
      <trkpt lat="45.84547" lon="6.44499">
        <ele>2459</ele>
        <time>2018-10-17T09:04:04Z</time>
      </trkpt>
      <trkpt lat="45.84547" lon="6.44499">
        <ele>2458</ele>
        <time>2018-10-17T09:04:05Z</time>
      </trkpt>
      <trkpt lat="45.84547" lon="6.44499">
        <ele>2458</ele>
        <time>2018-10-17T09:04:06Z</time>
      </trkpt>
      <trkpt lat="45.84547" lon="6.44499">
        <ele>2458</ele>
        <time>2018-10-17T09:04:07Z</time>
      </trkpt>
      <trkpt lat="45.84547" lon="6.44499">
        <ele>2458</ele>
        <time>2018-10-17T09:04:08Z</time>
      </trkpt>
      <trkpt lat="45.84547" lon="6.44499">
        <ele>2457</ele>
        <time>2018-10-17T09:04:09Z</time>
      </trkpt>
      <trkpt lat="45.84547" lon="6.44499">
        <ele>2457</ele>
        <time>2018-10-17T09:04:10Z</time>
      </trkpt>
      <trkpt lat="45.84547" lon="6.44499">
        <ele>2457</ele>
        <time>2018-10-17T09:04:11Z</time>
      </trkpt>
      <trkpt lat="45.84546" lon="6.44501">
        <ele>2457</ele>
        <time>2018-10-17T09:04:12Z</time>
      </trkpt>
      <trkpt lat="45.84546" lon="6.44501">
        <ele>2457</ele>
        <time>2018-10-17T09:04:13Z</time>
      </trkpt>
      <trkpt lat="45.84546" lon="6.44501">
        <ele>2457</ele>
        <time>2018-10-17T09:04:14Z</time>
      </trkpt>
      <trkpt lat="45.84546" lon="6.44501">
        <ele>2457</ele>
        <time>2018-10-17T09:04:15Z</time>
      </trkpt>
      <trkpt lat="45.84544" lon="6.445">
        <ele>2457</ele>
        <time>2018-10-17T09:04:16Z</time>
      </trkpt>
      <trkpt lat="45.84544" lon="6.445">
        <ele>2456</ele>
        <time>2018-10-17T09:04:17Z</time>
      </trkpt>
      <trkpt lat="45.84544" lon="6.445">
        <ele>2456</ele>
        <time>2018-10-17T09:04:18Z</time>
      </trkpt>
      <trkpt lat="45.84543" lon="6.44498">
        <ele>2456</ele>
        <time>2018-10-17T09:04:19Z</time>
      </trkpt>
      <trkpt lat="45.84543" lon="6.44498">
        <ele>2455</ele>
        <time>2018-10-17T09:04:20Z</time>
      </trkpt>
      <trkpt lat="45.84543" lon="6.44498">
        <ele>2454</ele>
        <time>2018-10-17T09:04:21Z</time>
      </trkpt>
      <trkpt lat="45.84543" lon="6.44498">
        <ele>2453</ele>
        <time>2018-10-17T09:04:22Z</time>
      </trkpt>
      <trkpt lat="45.84541" lon="6.44496">
        <ele>2453</ele>
        <time>2018-10-17T09:04:23Z</time>
      </trkpt>
      <trkpt lat="45.84541" lon="6.44496">
        <ele>2453</ele>
        <time>2018-10-17T09:04:24Z</time>
      </trkpt>
      <trkpt lat="45.84541" lon="6.44496">
        <ele>2453</ele>
        <time>2018-10-17T09:04:25Z</time>
      </trkpt>
      <trkpt lat="45.8454" lon="6.44494">
        <ele>2452</ele>
        <time>2018-10-17T09:04:26Z</time>
      </trkpt>
      <trkpt lat="45.8454" lon="6.44494">
        <ele>2452</ele>
        <time>2018-10-17T09:04:27Z</time>
      </trkpt>
      <trkpt lat="45.8454" lon="6.44494">
        <ele>2452</ele>
        <time>2018-10-17T09:04:28Z</time>
      </trkpt>
      <trkpt lat="45.84538" lon="6.44493">
        <ele>2451</ele>
        <time>2018-10-17T09:04:29Z</time>
      </trkpt>
      <trkpt lat="45.84538" lon="6.44493">
        <ele>2451</ele>
        <time>2018-10-17T09:04:30Z</time>
      </trkpt>
      <trkpt lat="45.84538" lon="6.44493">
        <ele>2451</ele>
        <time>2018-10-17T09:04:31Z</time>
      </trkpt>
      <trkpt lat="45.84538" lon="6.44493">
        <ele>2451</ele>
        <time>2018-10-17T09:04:32Z</time>
      </trkpt>
      <trkpt lat="45.84536" lon="6.44492">
        <ele>2450</ele>
        <time>2018-10-17T09:04:33Z</time>
      </trkpt>
      <trkpt lat="45.84536" lon="6.44492">
        <ele>2450</ele>
        <time>2018-10-17T09:04:34Z</time>
      </trkpt>
      <trkpt lat="45.84536" lon="6.44492">
        <ele>2450</ele>
        <time>2018-10-17T09:04:35Z</time>
      </trkpt>
      <trkpt lat="45.84536" lon="6.44492">
        <ele>2450</ele>
        <time>2018-10-17T09:04:36Z</time>
      </trkpt>
      <trkpt lat="45.84534" lon="6.4449">
        <ele>2450</ele>
        <time>2018-10-17T09:04:37Z</time>
      </trkpt>
      <trkpt lat="45.84534" lon="6.4449">
        <ele>2450</ele>
        <time>2018-10-17T09:04:38Z</time>
      </trkpt>
      <trkpt lat="45.84534" lon="6.4449">
        <ele>2449</ele>
        <time>2018-10-17T09:04:39Z</time>
      </trkpt>
      <trkpt lat="45.84533" lon="6.44488">
        <ele>2449</ele>
        <time>2018-10-17T09:04:40Z</time>
      </trkpt>
      <trkpt lat="45.84533" lon="6.44488">
        <ele>2448</ele>
        <time>2018-10-17T09:04:41Z</time>
      </trkpt>
      <trkpt lat="45.84533" lon="6.44488">
        <ele>2448</ele>
        <time>2018-10-17T09:04:42Z</time>
      </trkpt>
      <trkpt lat="45.84533" lon="6.44488">
        <ele>2447</ele>
        <time>2018-10-17T09:04:43Z</time>
      </trkpt>
      <trkpt lat="45.8453" lon="6.44487">
        <ele>2446</ele>
        <time>2018-10-17T09:04:44Z</time>
      </trkpt>
      <trkpt lat="45.8453" lon="6.44487">
        <ele>2446</ele>
        <time>2018-10-17T09:04:45Z</time>
      </trkpt>
      <trkpt lat="45.8453" lon="6.44487">
        <ele>2446</ele>
        <time>2018-10-17T09:04:46Z</time>
      </trkpt>
      <trkpt lat="45.84529" lon="6.44485">
        <ele>2446</ele>
        <time>2018-10-17T09:04:47Z</time>
      </trkpt>
      <trkpt lat="45.84529" lon="6.44485">
        <ele>2446</ele>
        <time>2018-10-17T09:04:48Z</time>
      </trkpt>
      <trkpt lat="45.84529" lon="6.44485">
        <ele>2446</ele>
        <time>2018-10-17T09:04:49Z</time>
      </trkpt>
      <trkpt lat="45.84529" lon="6.44485">
        <ele>2446</ele>
        <time>2018-10-17T09:04:50Z</time>
      </trkpt>
      <trkpt lat="45.84526" lon="6.44486">
        <ele>2445</ele>
        <time>2018-10-17T09:04:51Z</time>
      </trkpt>
      <trkpt lat="45.84526" lon="6.44486">
        <ele>2445</ele>
        <time>2018-10-17T09:04:52Z</time>
      </trkpt>
      <trkpt lat="45.84524" lon="6.44486">
        <ele>2444</ele>
        <time>2018-10-17T09:04:53Z</time>
      </trkpt>
      <trkpt lat="45.84524" lon="6.44486">
        <ele>2444</ele>
        <time>2018-10-17T09:04:54Z</time>
      </trkpt>
      <trkpt lat="45.84524" lon="6.44486">
        <ele>2444</ele>
        <time>2018-10-17T09:04:55Z</time>
      </trkpt>
      <trkpt lat="45.84522" lon="6.44486">
        <ele>2443</ele>
        <time>2018-10-17T09:04:56Z</time>
      </trkpt>
      <trkpt lat="45.84522" lon="6.44486">
        <ele>2441</ele>
        <time>2018-10-17T09:04:57Z</time>
      </trkpt>
      <trkpt lat="45.84522" lon="6.44486">
        <ele>2440</ele>
        <time>2018-10-17T09:04:58Z</time>
      </trkpt>
      <trkpt lat="45.8452" lon="6.44486">
        <ele>2440</ele>
        <time>2018-10-17T09:04:59Z</time>
      </trkpt>
      <trkpt lat="45.8452" lon="6.44486">
        <ele>2440</ele>
        <time>2018-10-17T09:05:00Z</time>
      </trkpt>
      <trkpt lat="45.8452" lon="6.44486">
        <ele>2439</ele>
        <time>2018-10-17T09:05:01Z</time>
      </trkpt>
      <trkpt lat="45.84517" lon="6.44486">
        <ele>2439</ele>
        <time>2018-10-17T09:05:02Z</time>
      </trkpt>
      <trkpt lat="45.84517" lon="6.44486">
        <ele>2439</ele>
        <time>2018-10-17T09:05:03Z</time>
      </trkpt>
      <trkpt lat="45.84517" lon="6.44486">
        <ele>2438</ele>
        <time>2018-10-17T09:05:04Z</time>
      </trkpt>
      <trkpt lat="45.84515" lon="6.44487">
        <ele>2437</ele>
        <time>2018-10-17T09:05:05Z</time>
      </trkpt>
      <trkpt lat="45.84515" lon="6.44487">
        <ele>2437</ele>
        <time>2018-10-17T09:05:06Z</time>
      </trkpt>
      <trkpt lat="45.84515" lon="6.44487">
        <ele>2436</ele>
        <time>2018-10-17T09:05:07Z</time>
      </trkpt>
      <trkpt lat="45.84513" lon="6.44489">
        <ele>2436</ele>
        <time>2018-10-17T09:05:08Z</time>
      </trkpt>
      <trkpt lat="45.84513" lon="6.44489">
        <ele>2436</ele>
        <time>2018-10-17T09:05:09Z</time>
      </trkpt>
      <trkpt lat="45.84513" lon="6.44489">
        <ele>2436</ele>
        <time>2018-10-17T09:05:10Z</time>
      </trkpt>
      <trkpt lat="45.84511" lon="6.4449">
        <ele>2437</ele>
        <time>2018-10-17T09:05:11Z</time>
      </trkpt>
      <trkpt lat="45.84511" lon="6.4449">
        <ele>2437</ele>
        <time>2018-10-17T09:05:12Z</time>
      </trkpt>
      <trkpt lat="45.84509" lon="6.44491">
        <ele>2437</ele>
        <time>2018-10-17T09:05:13Z</time>
      </trkpt>
      <trkpt lat="45.84509" lon="6.44491">
        <ele>2436</ele>
        <time>2018-10-17T09:05:14Z</time>
      </trkpt>
      <trkpt lat="45.84506" lon="6.44492">
        <ele>2436</ele>
        <time>2018-10-17T09:05:15Z</time>
      </trkpt>
      <trkpt lat="45.84506" lon="6.44492">
        <ele>2436</ele>
        <time>2018-10-17T09:05:16Z</time>
      </trkpt>
      <trkpt lat="45.84505" lon="6.44494">
        <ele>2436</ele>
        <time>2018-10-17T09:05:17Z</time>
      </trkpt>
      <trkpt lat="45.84505" lon="6.44494">
        <ele>2436</ele>
        <time>2018-10-17T09:05:18Z</time>
      </trkpt>
      <trkpt lat="45.84503" lon="6.44496">
        <ele>2435</ele>
        <time>2018-10-17T09:05:19Z</time>
      </trkpt>
      <trkpt lat="45.84503" lon="6.44496">
        <ele>2435</ele>
        <time>2018-10-17T09:05:20Z</time>
      </trkpt>
      <trkpt lat="45.84501" lon="6.44497">
        <ele>2435</ele>
        <time>2018-10-17T09:05:21Z</time>
      </trkpt>
      <trkpt lat="45.84501" lon="6.44497">
        <ele>2435</ele>
        <time>2018-10-17T09:05:22Z</time>
      </trkpt>
      <trkpt lat="45.84501" lon="6.44497">
        <ele>2435</ele>
        <time>2018-10-17T09:05:23Z</time>
      </trkpt>
      <trkpt lat="45.84499" lon="6.44498">
        <ele>2435</ele>
        <time>2018-10-17T09:05:24Z</time>
      </trkpt>
      <trkpt lat="45.84499" lon="6.44498">
        <ele>2435</ele>
        <time>2018-10-17T09:05:25Z</time>
      </trkpt>
      <trkpt lat="45.84499" lon="6.44498">
        <ele>2435</ele>
        <time>2018-10-17T09:05:26Z</time>
      </trkpt>
      <trkpt lat="45.84496" lon="6.44499">
        <ele>2434</ele>
        <time>2018-10-17T09:05:27Z</time>
      </trkpt>
      <trkpt lat="45.84496" lon="6.44499">
        <ele>2434</ele>
        <time>2018-10-17T09:05:28Z</time>
      </trkpt>
      <trkpt lat="45.84495" lon="6.44499">
        <ele>2434</ele>
        <time>2018-10-17T09:05:29Z</time>
      </trkpt>
      <trkpt lat="45.84495" lon="6.44499">
        <ele>2434</ele>
        <time>2018-10-17T09:05:30Z</time>
      </trkpt>
      <trkpt lat="45.84492" lon="6.44498">
        <ele>2434</ele>
        <time>2018-10-17T09:05:31Z</time>
      </trkpt>
      <trkpt lat="45.84492" lon="6.44498">
        <ele>2433</ele>
        <time>2018-10-17T09:05:32Z</time>
      </trkpt>
      <trkpt lat="45.84492" lon="6.44498">
        <ele>2433</ele>
        <time>2018-10-17T09:05:33Z</time>
      </trkpt>
      <trkpt lat="45.8449" lon="6.44498">
        <ele>2433</ele>
        <time>2018-10-17T09:05:34Z</time>
      </trkpt>
      <trkpt lat="45.8449" lon="6.44498">
        <ele>2433</ele>
        <time>2018-10-17T09:05:35Z</time>
      </trkpt>
      <trkpt lat="45.8449" lon="6.44498">
        <ele>2432</ele>
        <time>2018-10-17T09:05:36Z</time>
      </trkpt>
      <trkpt lat="45.84488" lon="6.44496">
        <ele>2432</ele>
        <time>2018-10-17T09:05:37Z</time>
      </trkpt>
      <trkpt lat="45.84488" lon="6.44496">
        <ele>2432</ele>
        <time>2018-10-17T09:05:38Z</time>
      </trkpt>
      <trkpt lat="45.84488" lon="6.44496">
        <ele>2432</ele>
        <time>2018-10-17T09:05:39Z</time>
      </trkpt>
      <trkpt lat="45.84487" lon="6.44493">
        <ele>2431</ele>
        <time>2018-10-17T09:05:40Z</time>
      </trkpt>
      <trkpt lat="45.84487" lon="6.44493">
        <ele>2431</ele>
        <time>2018-10-17T09:05:41Z</time>
      </trkpt>
      <trkpt lat="45.84487" lon="6.44493">
        <ele>2430</ele>
        <time>2018-10-17T09:05:42Z</time>
      </trkpt>
      <trkpt lat="45.84485" lon="6.44491">
        <ele>2430</ele>
        <time>2018-10-17T09:05:43Z</time>
      </trkpt>
      <trkpt lat="45.84485" lon="6.44491">
        <ele>2429</ele>
        <time>2018-10-17T09:05:44Z</time>
      </trkpt>
      <trkpt lat="45.84485" lon="6.44491">
        <ele>2429</ele>
        <time>2018-10-17T09:05:45Z</time>
      </trkpt>
      <trkpt lat="45.84483" lon="6.4449">
        <ele>2429</ele>
        <time>2018-10-17T09:05:46Z</time>
      </trkpt>
      <trkpt lat="45.84483" lon="6.4449">
        <ele>2428</ele>
        <time>2018-10-17T09:05:47Z</time>
      </trkpt>
      <trkpt lat="45.84483" lon="6.4449">
        <ele>2428</ele>
        <time>2018-10-17T09:05:48Z</time>
      </trkpt>
      <trkpt lat="45.84482" lon="6.44487">
        <ele>2427</ele>
        <time>2018-10-17T09:05:49Z</time>
      </trkpt>
      <trkpt lat="45.84482" lon="6.44487">
        <ele>2427</ele>
        <time>2018-10-17T09:05:50Z</time>
      </trkpt>
      <trkpt lat="45.84482" lon="6.44487">
        <ele>2427</ele>
        <time>2018-10-17T09:05:51Z</time>
      </trkpt>
      <trkpt lat="45.84481" lon="6.44485">
        <ele>2426</ele>
        <time>2018-10-17T09:05:52Z</time>
      </trkpt>
      <trkpt lat="45.84481" lon="6.44485">
        <ele>2426</ele>
        <time>2018-10-17T09:05:53Z</time>
      </trkpt>
      <trkpt lat="45.84481" lon="6.44485">
        <ele>2426</ele>
        <time>2018-10-17T09:05:54Z</time>
      </trkpt>
      <trkpt lat="45.8448" lon="6.44481">
        <ele>2426</ele>
        <time>2018-10-17T09:05:55Z</time>
      </trkpt>
      <trkpt lat="45.8448" lon="6.44481">
        <ele>2425</ele>
        <time>2018-10-17T09:05:56Z</time>
      </trkpt>
      <trkpt lat="45.84479" lon="6.44478">
        <ele>2424</ele>
        <time>2018-10-17T09:05:57Z</time>
      </trkpt>
      <trkpt lat="45.84479" lon="6.44478">
        <ele>2423</ele>
        <time>2018-10-17T09:05:58Z</time>
      </trkpt>
      <trkpt lat="45.84478" lon="6.44475">
        <ele>2423</ele>
        <time>2018-10-17T09:05:59Z</time>
      </trkpt>
      <trkpt lat="45.84478" lon="6.44475">
        <ele>2423</ele>
        <time>2018-10-17T09:06:00Z</time>
      </trkpt>
      <trkpt lat="45.84476" lon="6.44473">
        <ele>2420</ele>
        <time>2018-10-17T09:06:01Z</time>
      </trkpt>
      <trkpt lat="45.84476" lon="6.44473">
        <ele>2420</ele>
        <time>2018-10-17T09:06:02Z</time>
      </trkpt>
      <trkpt lat="45.84475" lon="6.4447">
        <ele>2420</ele>
        <time>2018-10-17T09:06:03Z</time>
      </trkpt>
      <trkpt lat="45.84475" lon="6.4447">
        <ele>2421</ele>
        <time>2018-10-17T09:06:04Z</time>
      </trkpt>
      <trkpt lat="45.84475" lon="6.4447">
        <ele>2419</ele>
        <time>2018-10-17T09:06:05Z</time>
      </trkpt>
      <trkpt lat="45.84475" lon="6.44467">
        <ele>2420</ele>
        <time>2018-10-17T09:06:06Z</time>
      </trkpt>
      <trkpt lat="45.84475" lon="6.44467">
        <ele>2420</ele>
        <time>2018-10-17T09:06:07Z</time>
      </trkpt>
      <trkpt lat="45.84475" lon="6.44467">
        <ele>2420</ele>
        <time>2018-10-17T09:06:08Z</time>
      </trkpt>
      <trkpt lat="45.84475" lon="6.44467">
        <ele>2420</ele>
        <time>2018-10-17T09:06:09Z</time>
      </trkpt>
      <trkpt lat="45.84475" lon="6.44467">
        <ele>2420</ele>
        <time>2018-10-17T09:06:10Z</time>
      </trkpt>
      <trkpt lat="45.84475" lon="6.44467">
        <ele>2420</ele>
        <time>2018-10-17T09:06:11Z</time>
      </trkpt>
      <trkpt lat="45.84475" lon="6.44467">
        <ele>2420</ele>
        <time>2018-10-17T09:06:12Z</time>
      </trkpt>
      <trkpt lat="45.84475" lon="6.44467">
        <ele>2420</ele>
        <time>2018-10-17T09:06:13Z</time>
      </trkpt>
      <trkpt lat="45.84475" lon="6.44467">
        <ele>2420</ele>
        <time>2018-10-17T09:06:14Z</time>
      </trkpt>
      <trkpt lat="45.84475" lon="6.44467">
        <ele>2420</ele>
        <time>2018-10-17T09:06:15Z</time>
      </trkpt>
      <trkpt lat="45.84475" lon="6.44467">
        <ele>2420</ele>
        <time>2018-10-17T09:06:16Z</time>
      </trkpt>
      <trkpt lat="45.84475" lon="6.44467">
        <ele>2419</ele>
        <time>2018-10-17T09:06:17Z</time>
      </trkpt>
      <trkpt lat="45.84475" lon="6.44467">
        <ele>2419</ele>
        <time>2018-10-17T09:06:18Z</time>
      </trkpt>
      <trkpt lat="45.84475" lon="6.44467">
        <ele>2419</ele>
        <time>2018-10-17T09:06:19Z</time>
      </trkpt>
      <trkpt lat="45.84475" lon="6.44467">
        <ele>2419</ele>
        <time>2018-10-17T09:06:20Z</time>
      </trkpt>
      <trkpt lat="45.84475" lon="6.44467">
        <ele>2419</ele>
        <time>2018-10-17T09:06:21Z</time>
      </trkpt>
      <trkpt lat="45.84475" lon="6.44467">
        <ele>2419</ele>
        <time>2018-10-17T09:06:22Z</time>
      </trkpt>
      <trkpt lat="45.84475" lon="6.44467">
        <ele>2419</ele>
        <time>2018-10-17T09:06:23Z</time>
      </trkpt>
      <trkpt lat="45.84475" lon="6.44467">
        <ele>2419</ele>
        <time>2018-10-17T09:06:24Z</time>
      </trkpt>
      <trkpt lat="45.84475" lon="6.44467">
        <ele>2419</ele>
        <time>2018-10-17T09:06:25Z</time>
      </trkpt>
      <trkpt lat="45.84475" lon="6.44467">
        <ele>2419</ele>
        <time>2018-10-17T09:06:26Z</time>
      </trkpt>
      <trkpt lat="45.84475" lon="6.44464">
        <ele>2419</ele>
        <time>2018-10-17T09:06:27Z</time>
      </trkpt>
      <trkpt lat="45.84475" lon="6.44464">
        <ele>2418</ele>
        <time>2018-10-17T09:06:28Z</time>
      </trkpt>
      <trkpt lat="45.84474" lon="6.44461">
        <ele>2418</ele>
        <time>2018-10-17T09:06:29Z</time>
      </trkpt>
      <trkpt lat="45.84474" lon="6.44461">
        <ele>2417</ele>
        <time>2018-10-17T09:06:30Z</time>
      </trkpt>
      <trkpt lat="45.84473" lon="6.44459">
        <ele>2416</ele>
        <time>2018-10-17T09:06:31Z</time>
      </trkpt>
      <trkpt lat="45.84473" lon="6.44459">
        <ele>2415</ele>
        <time>2018-10-17T09:06:32Z</time>
      </trkpt>
      <trkpt lat="45.84473" lon="6.44459">
        <ele>2415</ele>
        <time>2018-10-17T09:06:33Z</time>
      </trkpt>
      <trkpt lat="45.84471" lon="6.44458">
        <ele>2415</ele>
        <time>2018-10-17T09:06:34Z</time>
      </trkpt>
      <trkpt lat="45.84471" lon="6.44458">
        <ele>2415</ele>
        <time>2018-10-17T09:06:35Z</time>
      </trkpt>
      <trkpt lat="45.84469" lon="6.44457">
        <ele>2415</ele>
        <time>2018-10-17T09:06:36Z</time>
      </trkpt>
      <trkpt lat="45.84469" lon="6.44457">
        <ele>2415</ele>
        <time>2018-10-17T09:06:37Z</time>
      </trkpt>
      <trkpt lat="45.84469" lon="6.44457">
        <ele>2414</ele>
        <time>2018-10-17T09:06:38Z</time>
      </trkpt>
      <trkpt lat="45.84469" lon="6.44457">
        <ele>2414</ele>
        <time>2018-10-17T09:06:39Z</time>
      </trkpt>
      <trkpt lat="45.84469" lon="6.44457">
        <ele>2414</ele>
        <time>2018-10-17T09:06:40Z</time>
      </trkpt>
      <trkpt lat="45.84469" lon="6.44457">
        <ele>2414</ele>
        <time>2018-10-17T09:06:41Z</time>
      </trkpt>
      <trkpt lat="45.84469" lon="6.44457">
        <ele>2414</ele>
        <time>2018-10-17T09:06:42Z</time>
      </trkpt>
      <trkpt lat="45.84469" lon="6.44457">
        <ele>2413</ele>
        <time>2018-10-17T09:06:43Z</time>
      </trkpt>
      <trkpt lat="45.84469" lon="6.44457">
        <ele>2413</ele>
        <time>2018-10-17T09:06:44Z</time>
      </trkpt>
      <trkpt lat="45.84469" lon="6.44457">
        <ele>2413</ele>
        <time>2018-10-17T09:06:45Z</time>
      </trkpt>
      <trkpt lat="45.84469" lon="6.44457">
        <ele>2413</ele>
        <time>2018-10-17T09:06:46Z</time>
      </trkpt>
      <trkpt lat="45.84467" lon="6.44455">
        <ele>2413</ele>
        <time>2018-10-17T09:06:47Z</time>
      </trkpt>
      <trkpt lat="45.84467" lon="6.44455">
        <ele>2413</ele>
        <time>2018-10-17T09:06:48Z</time>
      </trkpt>
      <trkpt lat="45.84467" lon="6.44455">
        <ele>2412</ele>
        <time>2018-10-17T09:06:49Z</time>
      </trkpt>
      <trkpt lat="45.84467" lon="6.44455">
        <ele>2412</ele>
        <time>2018-10-17T09:06:50Z</time>
      </trkpt>
      <trkpt lat="45.84467" lon="6.44451">
        <ele>2412</ele>
        <time>2018-10-17T09:06:51Z</time>
      </trkpt>
      <trkpt lat="45.84467" lon="6.44451">
        <ele>2411</ele>
        <time>2018-10-17T09:06:52Z</time>
      </trkpt>
      <trkpt lat="45.84467" lon="6.44448">
        <ele>2411</ele>
        <time>2018-10-17T09:06:53Z</time>
      </trkpt>
      <trkpt lat="45.84467" lon="6.44448">
        <ele>2410</ele>
        <time>2018-10-17T09:06:54Z</time>
      </trkpt>
      <trkpt lat="45.84467" lon="6.44445">
        <ele>2409</ele>
        <time>2018-10-17T09:06:55Z</time>
      </trkpt>
      <trkpt lat="45.84467" lon="6.44445">
        <ele>2409</ele>
        <time>2018-10-17T09:06:56Z</time>
      </trkpt>
      <trkpt lat="45.84467" lon="6.44441">
        <ele>2408</ele>
        <time>2018-10-17T09:06:57Z</time>
      </trkpt>
      <trkpt lat="45.84467" lon="6.44441">
        <ele>2408</ele>
        <time>2018-10-17T09:06:58Z</time>
      </trkpt>
      <trkpt lat="45.84466" lon="6.44437">
        <ele>2408</ele>
        <time>2018-10-17T09:06:59Z</time>
      </trkpt>
      <trkpt lat="45.84466" lon="6.44437">
        <ele>2408</ele>
        <time>2018-10-17T09:07:00Z</time>
      </trkpt>
      <trkpt lat="45.84465" lon="6.44434">
        <ele>2406</ele>
        <time>2018-10-17T09:07:01Z</time>
      </trkpt>
      <trkpt lat="45.84465" lon="6.44434">
        <ele>2406</ele>
        <time>2018-10-17T09:07:02Z</time>
      </trkpt>
      <trkpt lat="45.84464" lon="6.44431">
        <ele>2405</ele>
        <time>2018-10-17T09:07:03Z</time>
      </trkpt>
      <trkpt lat="45.84464" lon="6.44431">
        <ele>2404</ele>
        <time>2018-10-17T09:07:04Z</time>
      </trkpt>
      <trkpt lat="45.84463" lon="6.44428">
        <ele>2403</ele>
        <time>2018-10-17T09:07:05Z</time>
      </trkpt>
      <trkpt lat="45.84463" lon="6.44428">
        <ele>2403</ele>
        <time>2018-10-17T09:07:06Z</time>
      </trkpt>
      <trkpt lat="45.84462" lon="6.44426">
        <ele>2403</ele>
        <time>2018-10-17T09:07:07Z</time>
      </trkpt>
      <trkpt lat="45.84462" lon="6.44426">
        <ele>2402</ele>
        <time>2018-10-17T09:07:08Z</time>
      </trkpt>
      <trkpt lat="45.84462" lon="6.44426">
        <ele>2402</ele>
        <time>2018-10-17T09:07:09Z</time>
      </trkpt>
      <trkpt lat="45.84462" lon="6.44423">
        <ele>2402</ele>
        <time>2018-10-17T09:07:10Z</time>
      </trkpt>
      <trkpt lat="45.84462" lon="6.44423">
        <ele>2402</ele>
        <time>2018-10-17T09:07:11Z</time>
      </trkpt>
      <trkpt lat="45.84462" lon="6.44423">
        <ele>2401</ele>
        <time>2018-10-17T09:07:12Z</time>
      </trkpt>
      <trkpt lat="45.84461" lon="6.4442">
        <ele>2401</ele>
        <time>2018-10-17T09:07:13Z</time>
      </trkpt>
      <trkpt lat="45.84461" lon="6.4442">
        <ele>2401</ele>
        <time>2018-10-17T09:07:14Z</time>
      </trkpt>
      <trkpt lat="45.84461" lon="6.44417">
        <ele>2400</ele>
        <time>2018-10-17T09:07:15Z</time>
      </trkpt>
      <trkpt lat="45.84461" lon="6.44417">
        <ele>2400</ele>
        <time>2018-10-17T09:07:16Z</time>
      </trkpt>
      <trkpt lat="45.8446" lon="6.44414">
        <ele>2400</ele>
        <time>2018-10-17T09:07:17Z</time>
      </trkpt>
      <trkpt lat="45.8446" lon="6.44414">
        <ele>2400</ele>
        <time>2018-10-17T09:07:18Z</time>
      </trkpt>
      <trkpt lat="45.84459" lon="6.44412">
        <ele>2399</ele>
        <time>2018-10-17T09:07:19Z</time>
      </trkpt>
      <trkpt lat="45.84459" lon="6.44412">
        <ele>2398</ele>
        <time>2018-10-17T09:07:20Z</time>
      </trkpt>
      <trkpt lat="45.84459" lon="6.44412">
        <ele>2397</ele>
        <time>2018-10-17T09:07:21Z</time>
      </trkpt>
      <trkpt lat="45.84459" lon="6.44409">
        <ele>2396</ele>
        <time>2018-10-17T09:07:22Z</time>
      </trkpt>
      <trkpt lat="45.84459" lon="6.44409">
        <ele>2396</ele>
        <time>2018-10-17T09:07:23Z</time>
      </trkpt>
      <trkpt lat="45.84458" lon="6.44406">
        <ele>2396</ele>
        <time>2018-10-17T09:07:24Z</time>
      </trkpt>
      <trkpt lat="45.84458" lon="6.44406">
        <ele>2395</ele>
        <time>2018-10-17T09:07:25Z</time>
      </trkpt>
      <trkpt lat="45.84457" lon="6.44404">
        <ele>2394</ele>
        <time>2018-10-17T09:07:26Z</time>
      </trkpt>
      <trkpt lat="45.84457" lon="6.44404">
        <ele>2394</ele>
        <time>2018-10-17T09:07:27Z</time>
      </trkpt>
      <trkpt lat="45.84457" lon="6.44404">
        <ele>2393</ele>
        <time>2018-10-17T09:07:28Z</time>
      </trkpt>
      <trkpt lat="45.84455" lon="6.44401">
        <ele>2392</ele>
        <time>2018-10-17T09:07:29Z</time>
      </trkpt>
      <trkpt lat="45.84455" lon="6.44401">
        <ele>2392</ele>
        <time>2018-10-17T09:07:30Z</time>
      </trkpt>
      <trkpt lat="45.84455" lon="6.44401">
        <ele>2392</ele>
        <time>2018-10-17T09:07:31Z</time>
      </trkpt>
      <trkpt lat="45.84454" lon="6.44399">
        <ele>2392</ele>
        <time>2018-10-17T09:07:32Z</time>
      </trkpt>
      <trkpt lat="45.84454" lon="6.44399">
        <ele>2391</ele>
        <time>2018-10-17T09:07:33Z</time>
      </trkpt>
      <trkpt lat="45.84454" lon="6.44399">
        <ele>2389</ele>
        <time>2018-10-17T09:07:34Z</time>
      </trkpt>
      <trkpt lat="45.84452" lon="6.44397">
        <ele>2389</ele>
        <time>2018-10-17T09:07:35Z</time>
      </trkpt>
      <trkpt lat="45.84452" lon="6.44397">
        <ele>2389</ele>
        <time>2018-10-17T09:07:36Z</time>
      </trkpt>
      <trkpt lat="45.84451" lon="6.44393">
        <ele>2390</ele>
        <time>2018-10-17T09:07:37Z</time>
      </trkpt>
      <trkpt lat="45.84451" lon="6.44393">
        <ele>2388</ele>
        <time>2018-10-17T09:07:38Z</time>
      </trkpt>
      <trkpt lat="45.84451" lon="6.4439">
        <ele>2387</ele>
        <time>2018-10-17T09:07:39Z</time>
      </trkpt>
      <trkpt lat="45.84451" lon="6.4439">
        <ele>2386</ele>
        <time>2018-10-17T09:07:40Z</time>
      </trkpt>
      <trkpt lat="45.84449" lon="6.44386">
        <ele>2386</ele>
        <time>2018-10-17T09:07:41Z</time>
      </trkpt>
      <trkpt lat="45.84449" lon="6.44386">
        <ele>2385</ele>
        <time>2018-10-17T09:07:42Z</time>
      </trkpt>
      <trkpt lat="45.84448" lon="6.44383">
        <ele>2384</ele>
        <time>2018-10-17T09:07:43Z</time>
      </trkpt>
      <trkpt lat="45.84448" lon="6.44383">
        <ele>2383</ele>
        <time>2018-10-17T09:07:44Z</time>
      </trkpt>
      <trkpt lat="45.84447" lon="6.44379">
        <ele>2383</ele>
        <time>2018-10-17T09:07:45Z</time>
      </trkpt>
      <trkpt lat="45.84447" lon="6.44379">
        <ele>2382</ele>
        <time>2018-10-17T09:07:46Z</time>
      </trkpt>
      <trkpt lat="45.84445" lon="6.44376">
        <ele>2381</ele>
        <time>2018-10-17T09:07:47Z</time>
      </trkpt>
      <trkpt lat="45.84445" lon="6.44376">
        <ele>2381</ele>
        <time>2018-10-17T09:07:48Z</time>
      </trkpt>
      <trkpt lat="45.84444" lon="6.44373">
        <ele>2380</ele>
        <time>2018-10-17T09:07:49Z</time>
      </trkpt>
      <trkpt lat="45.84444" lon="6.44373">
        <ele>2379</ele>
        <time>2018-10-17T09:07:50Z</time>
      </trkpt>
      <trkpt lat="45.84442" lon="6.4437">
        <ele>2379</ele>
        <time>2018-10-17T09:07:51Z</time>
      </trkpt>
      <trkpt lat="45.84442" lon="6.4437">
        <ele>2378</ele>
        <time>2018-10-17T09:07:52Z</time>
      </trkpt>
      <trkpt lat="45.84441" lon="6.44366">
        <ele>2377</ele>
        <time>2018-10-17T09:07:53Z</time>
      </trkpt>
      <trkpt lat="45.84441" lon="6.44366">
        <ele>2377</ele>
        <time>2018-10-17T09:07:54Z</time>
      </trkpt>
      <trkpt lat="45.8444" lon="6.44362">
        <ele>2376</ele>
        <time>2018-10-17T09:07:55Z</time>
      </trkpt>
      <trkpt lat="45.8444" lon="6.44362">
        <ele>2376</ele>
        <time>2018-10-17T09:07:56Z</time>
      </trkpt>
      <trkpt lat="45.84438" lon="6.44359">
        <ele>2375</ele>
        <time>2018-10-17T09:07:57Z</time>
      </trkpt>
      <trkpt lat="45.84438" lon="6.44359">
        <ele>2374</ele>
        <time>2018-10-17T09:07:58Z</time>
      </trkpt>
      <trkpt lat="45.84436" lon="6.44356">
        <ele>2373</ele>
        <time>2018-10-17T09:07:59Z</time>
      </trkpt>
      <trkpt lat="45.84434" lon="6.44352">
        <ele>2371.6</ele>
        <time>2018-10-17T09:08:01Z</time>
      </trkpt>
      <trkpt lat="45.84434" lon="6.44352">
        <ele>2371</ele>
        <time>2018-10-17T09:08:02Z</time>
      </trkpt>
      <trkpt lat="45.84433" lon="6.44349">
        <ele>2369</ele>
        <time>2018-10-17T09:08:03Z</time>
      </trkpt>
      <trkpt lat="45.84433" lon="6.44349">
        <ele>2368</ele>
        <time>2018-10-17T09:08:04Z</time>
      </trkpt>
      <trkpt lat="45.84432" lon="6.44345">
        <ele>2368</ele>
        <time>2018-10-17T09:08:05Z</time>
      </trkpt>
      <trkpt lat="45.84432" lon="6.44345">
        <ele>2368</ele>
        <time>2018-10-17T09:08:06Z</time>
      </trkpt>
      <trkpt lat="45.84431" lon="6.44342">
        <ele>2367</ele>
        <time>2018-10-17T09:08:07Z</time>
      </trkpt>
      <trkpt lat="45.84431" lon="6.44342">
        <ele>2367</ele>
        <time>2018-10-17T09:08:08Z</time>
      </trkpt>
      <trkpt lat="45.84429" lon="6.44339">
        <ele>2367</ele>
        <time>2018-10-17T09:08:09Z</time>
      </trkpt>
      <trkpt lat="45.84429" lon="6.44339">
        <ele>2366</ele>
        <time>2018-10-17T09:08:10Z</time>
      </trkpt>
      <trkpt lat="45.84428" lon="6.44336">
        <ele>2365</ele>
        <time>2018-10-17T09:08:11Z</time>
      </trkpt>
      <trkpt lat="45.84428" lon="6.44336">
        <ele>2365</ele>
        <time>2018-10-17T09:08:12Z</time>
      </trkpt>
      <trkpt lat="45.84426" lon="6.44334">
        <ele>2364</ele>
        <time>2018-10-17T09:08:13Z</time>
      </trkpt>
      <trkpt lat="45.84426" lon="6.44334">
        <ele>2364</ele>
        <time>2018-10-17T09:08:14Z</time>
      </trkpt>
      <trkpt lat="45.84425" lon="6.44331">
        <ele>2364</ele>
        <time>2018-10-17T09:08:15Z</time>
      </trkpt>
      <trkpt lat="45.84425" lon="6.44331">
        <ele>2363</ele>
        <time>2018-10-17T09:08:16Z</time>
      </trkpt>
      <trkpt lat="45.84424" lon="6.44328">
        <ele>2362</ele>
        <time>2018-10-17T09:08:17Z</time>
      </trkpt>
      <trkpt lat="45.84424" lon="6.44328">
        <ele>2362</ele>
        <time>2018-10-17T09:08:18Z</time>
      </trkpt>
      <trkpt lat="45.84423" lon="6.44325">
        <ele>2361</ele>
        <time>2018-10-17T09:08:19Z</time>
      </trkpt>
      <trkpt lat="45.84423" lon="6.44325">
        <ele>2360</ele>
        <time>2018-10-17T09:08:20Z</time>
      </trkpt>
      <trkpt lat="45.84423" lon="6.44321">
        <ele>2360</ele>
        <time>2018-10-17T09:08:21Z</time>
      </trkpt>
      <trkpt lat="45.84423" lon="6.44321">
        <ele>2359</ele>
        <time>2018-10-17T09:08:22Z</time>
      </trkpt>
      <trkpt lat="45.84423" lon="6.44317">
        <ele>2358</ele>
        <time>2018-10-17T09:08:23Z</time>
      </trkpt>
      <trkpt lat="45.84423" lon="6.44317">
        <ele>2358</ele>
        <time>2018-10-17T09:08:24Z</time>
      </trkpt>
      <trkpt lat="45.84422" lon="6.44314">
        <ele>2357</ele>
        <time>2018-10-17T09:08:25Z</time>
      </trkpt>
      <trkpt lat="45.84422" lon="6.44314">
        <ele>2356</ele>
        <time>2018-10-17T09:08:26Z</time>
      </trkpt>
      <trkpt lat="45.8442" lon="6.4431">
        <ele>2356</ele>
        <time>2018-10-17T09:08:27Z</time>
      </trkpt>
      <trkpt lat="45.8442" lon="6.4431">
        <ele>2355</ele>
        <time>2018-10-17T09:08:28Z</time>
      </trkpt>
      <trkpt lat="45.84418" lon="6.44307">
        <ele>2355</ele>
        <time>2018-10-17T09:08:29Z</time>
      </trkpt>
      <trkpt lat="45.84418" lon="6.44307">
        <ele>2353</ele>
        <time>2018-10-17T09:08:30Z</time>
      </trkpt>
      <trkpt lat="45.84417" lon="6.44303">
        <ele>2353</ele>
        <time>2018-10-17T09:08:31Z</time>
      </trkpt>
      <trkpt lat="45.84417" lon="6.44303">
        <ele>2352</ele>
        <time>2018-10-17T09:08:32Z</time>
      </trkpt>
      <trkpt lat="45.84416" lon="6.443">
        <ele>2351</ele>
        <time>2018-10-17T09:08:33Z</time>
      </trkpt>
      <trkpt lat="45.84416" lon="6.443">
        <ele>2351</ele>
        <time>2018-10-17T09:08:34Z</time>
      </trkpt>
      <trkpt lat="45.84415" lon="6.44296">
        <ele>2350</ele>
        <time>2018-10-17T09:08:35Z</time>
      </trkpt>
      <trkpt lat="45.84415" lon="6.44296">
        <ele>2349</ele>
        <time>2018-10-17T09:08:36Z</time>
      </trkpt>
      <trkpt lat="45.84414" lon="6.44292">
        <ele>2349</ele>
        <time>2018-10-17T09:08:37Z</time>
      </trkpt>
      <trkpt lat="45.84414" lon="6.44292">
        <ele>2348</ele>
        <time>2018-10-17T09:08:38Z</time>
      </trkpt>
      <trkpt lat="45.84413" lon="6.44289">
        <ele>2348</ele>
        <time>2018-10-17T09:08:39Z</time>
      </trkpt>
      <trkpt lat="45.84413" lon="6.44289">
        <ele>2348</ele>
        <time>2018-10-17T09:08:40Z</time>
      </trkpt>
      <trkpt lat="45.84413" lon="6.44289">
        <ele>2347</ele>
        <time>2018-10-17T09:08:41Z</time>
      </trkpt>
      <trkpt lat="45.84413" lon="6.44289">
        <ele>2347</ele>
        <time>2018-10-17T09:08:42Z</time>
      </trkpt>
      <trkpt lat="45.84413" lon="6.44289">
        <ele>2346</ele>
        <time>2018-10-17T09:08:43Z</time>
      </trkpt>
      <trkpt lat="45.84413" lon="6.44289">
        <ele>2346</ele>
        <time>2018-10-17T09:08:44Z</time>
      </trkpt>
      <trkpt lat="45.84413" lon="6.44289">
        <ele>2346</ele>
        <time>2018-10-17T09:08:45Z</time>
      </trkpt>
      <trkpt lat="45.84413" lon="6.44289">
        <ele>2346</ele>
        <time>2018-10-17T09:08:46Z</time>
      </trkpt>
      <trkpt lat="45.84413" lon="6.44289">
        <ele>2346</ele>
        <time>2018-10-17T09:08:47Z</time>
      </trkpt>
      <trkpt lat="45.84413" lon="6.44289">
        <ele>2346</ele>
        <time>2018-10-17T09:08:48Z</time>
      </trkpt>
      <trkpt lat="45.84413" lon="6.44289">
        <ele>2346</ele>
        <time>2018-10-17T09:08:49Z</time>
      </trkpt>
      <trkpt lat="45.84413" lon="6.44289">
        <ele>2346</ele>
        <time>2018-10-17T09:08:50Z</time>
      </trkpt>
      <trkpt lat="45.84413" lon="6.44289">
        <ele>2347</ele>
        <time>2018-10-17T09:08:51Z</time>
      </trkpt>
      <trkpt lat="45.84413" lon="6.44289">
        <ele>2347</ele>
        <time>2018-10-17T09:08:52Z</time>
      </trkpt>
      <trkpt lat="45.84413" lon="6.44289">
        <ele>2347</ele>
        <time>2018-10-17T09:08:53Z</time>
      </trkpt>
      <trkpt lat="45.84413" lon="6.44289">
        <ele>2347</ele>
        <time>2018-10-17T09:08:54Z</time>
      </trkpt>
      <trkpt lat="45.84413" lon="6.44289">
        <ele>2346</ele>
        <time>2018-10-17T09:08:55Z</time>
      </trkpt>
      <trkpt lat="45.84413" lon="6.44286">
        <ele>2346</ele>
        <time>2018-10-17T09:08:56Z</time>
      </trkpt>
      <trkpt lat="45.84413" lon="6.44286">
        <ele>2345</ele>
        <time>2018-10-17T09:08:57Z</time>
      </trkpt>
      <trkpt lat="45.84411" lon="6.44282">
        <ele>2344</ele>
        <time>2018-10-17T09:08:58Z</time>
      </trkpt>
      <trkpt lat="45.84411" lon="6.44282">
        <ele>2344</ele>
        <time>2018-10-17T09:08:59Z</time>
      </trkpt>
      <trkpt lat="45.8441" lon="6.44279">
        <ele>2344</ele>
        <time>2018-10-17T09:09:00Z</time>
      </trkpt>
      <trkpt lat="45.8441" lon="6.44279">
        <ele>2342</ele>
        <time>2018-10-17T09:09:01Z</time>
      </trkpt>
      <trkpt lat="45.84409" lon="6.44276">
        <ele>2342</ele>
        <time>2018-10-17T09:09:02Z</time>
      </trkpt>
      <trkpt lat="45.84409" lon="6.44276">
        <ele>2341</ele>
        <time>2018-10-17T09:09:03Z</time>
      </trkpt>
      <trkpt lat="45.84408" lon="6.44272">
        <ele>2340</ele>
        <time>2018-10-17T09:09:04Z</time>
      </trkpt>
      <trkpt lat="45.84408" lon="6.44272">
        <ele>2340</ele>
        <time>2018-10-17T09:09:05Z</time>
      </trkpt>
      <trkpt lat="45.84407" lon="6.44269">
        <ele>2340</ele>
        <time>2018-10-17T09:09:06Z</time>
      </trkpt>
      <trkpt lat="45.84407" lon="6.44269">
        <ele>2339</ele>
        <time>2018-10-17T09:09:07Z</time>
      </trkpt>
      <trkpt lat="45.84406" lon="6.44265">
        <ele>2338</ele>
        <time>2018-10-17T09:09:08Z</time>
      </trkpt>
      <trkpt lat="45.84406" lon="6.44265">
        <ele>2338</ele>
        <time>2018-10-17T09:09:09Z</time>
      </trkpt>
      <trkpt lat="45.84404" lon="6.44262">
        <ele>2338</ele>
        <time>2018-10-17T09:09:10Z</time>
      </trkpt>
      <trkpt lat="45.84404" lon="6.44262">
        <ele>2337</ele>
        <time>2018-10-17T09:09:11Z</time>
      </trkpt>
      <trkpt lat="45.84403" lon="6.44259">
        <ele>2337</ele>
        <time>2018-10-17T09:09:12Z</time>
      </trkpt>
      <trkpt lat="45.84403" lon="6.44259">
        <ele>2334</ele>
        <time>2018-10-17T09:09:13Z</time>
      </trkpt>
      <trkpt lat="45.84402" lon="6.44256">
        <ele>2333</ele>
        <time>2018-10-17T09:09:14Z</time>
      </trkpt>
      <trkpt lat="45.84402" lon="6.44256">
        <ele>2333</ele>
        <time>2018-10-17T09:09:15Z</time>
      </trkpt>
      <trkpt lat="45.84402" lon="6.44253">
        <ele>2332</ele>
        <time>2018-10-17T09:09:16Z</time>
      </trkpt>
      <trkpt lat="45.84402" lon="6.44253">
        <ele>2331</ele>
        <time>2018-10-17T09:09:17Z</time>
      </trkpt>
      <trkpt lat="45.84402" lon="6.4425">
        <ele>2331</ele>
        <time>2018-10-17T09:09:18Z</time>
      </trkpt>
      <trkpt lat="45.84402" lon="6.4425">
        <ele>2330</ele>
        <time>2018-10-17T09:09:19Z</time>
      </trkpt>
      <trkpt lat="45.844" lon="6.44248">
        <ele>2330</ele>
        <time>2018-10-17T09:09:20Z</time>
      </trkpt>
      <trkpt lat="45.844" lon="6.44248">
        <ele>2329</ele>
        <time>2018-10-17T09:09:21Z</time>
      </trkpt>
      <trkpt lat="45.844" lon="6.44245">
        <ele>2329</ele>
        <time>2018-10-17T09:09:22Z</time>
      </trkpt>
      <trkpt lat="45.844" lon="6.44245">
        <ele>2329</ele>
        <time>2018-10-17T09:09:23Z</time>
      </trkpt>
      <trkpt lat="45.84399" lon="6.44243">
        <ele>2327</ele>
        <time>2018-10-17T09:09:24Z</time>
      </trkpt>
      <trkpt lat="45.84399" lon="6.44243">
        <ele>2327</ele>
        <time>2018-10-17T09:09:25Z</time>
      </trkpt>
      <trkpt lat="45.84399" lon="6.44243">
        <ele>2327</ele>
        <time>2018-10-17T09:09:26Z</time>
      </trkpt>
      <trkpt lat="45.84398" lon="6.44239">
        <ele>2327</ele>
        <time>2018-10-17T09:09:27Z</time>
      </trkpt>
      <trkpt lat="45.84398" lon="6.44239">
        <ele>2326</ele>
        <time>2018-10-17T09:09:28Z</time>
      </trkpt>
      <trkpt lat="45.84397" lon="6.44236">
        <ele>2325</ele>
        <time>2018-10-17T09:09:29Z</time>
      </trkpt>
      <trkpt lat="45.84397" lon="6.44236">
        <ele>2324</ele>
        <time>2018-10-17T09:09:30Z</time>
      </trkpt>
      <trkpt lat="45.84396" lon="6.44233">
        <ele>2324</ele>
        <time>2018-10-17T09:09:31Z</time>
      </trkpt>
      <trkpt lat="45.84396" lon="6.44233">
        <ele>2323</ele>
        <time>2018-10-17T09:09:32Z</time>
      </trkpt>
      <trkpt lat="45.84395" lon="6.4423">
        <ele>2323</ele>
        <time>2018-10-17T09:09:33Z</time>
      </trkpt>
      <trkpt lat="45.84395" lon="6.4423">
        <ele>2322</ele>
        <time>2018-10-17T09:09:34Z</time>
      </trkpt>
      <trkpt lat="45.84395" lon="6.44227">
        <ele>2321</ele>
        <time>2018-10-17T09:09:35Z</time>
      </trkpt>
      <trkpt lat="45.84395" lon="6.44227">
        <ele>2320</ele>
        <time>2018-10-17T09:09:36Z</time>
      </trkpt>
      <trkpt lat="45.84394" lon="6.44224">
        <ele>2320</ele>
        <time>2018-10-17T09:09:37Z</time>
      </trkpt>
      <trkpt lat="45.84394" lon="6.44224">
        <ele>2320</ele>
        <time>2018-10-17T09:09:38Z</time>
      </trkpt>
      <trkpt lat="45.84394" lon="6.44222">
        <ele>2319</ele>
        <time>2018-10-17T09:09:39Z</time>
      </trkpt>
      <trkpt lat="45.84394" lon="6.44222">
        <ele>2319</ele>
        <time>2018-10-17T09:09:40Z</time>
      </trkpt>
      <trkpt lat="45.84394" lon="6.44222">
        <ele>2318</ele>
        <time>2018-10-17T09:09:41Z</time>
      </trkpt>
      <trkpt lat="45.84394" lon="6.44218">
        <ele>2317</ele>
        <time>2018-10-17T09:09:42Z</time>
      </trkpt>
      <trkpt lat="45.84394" lon="6.44218">
        <ele>2317</ele>
        <time>2018-10-17T09:09:43Z</time>
      </trkpt>
      <trkpt lat="45.84394" lon="6.44215">
        <ele>2317</ele>
        <time>2018-10-17T09:09:44Z</time>
      </trkpt>
      <trkpt lat="45.84394" lon="6.44215">
        <ele>2316</ele>
        <time>2018-10-17T09:09:45Z</time>
      </trkpt>
      <trkpt lat="45.84392" lon="6.44211">
        <ele>2315</ele>
        <time>2018-10-17T09:09:46Z</time>
      </trkpt>
      <trkpt lat="45.84392" lon="6.44211">
        <ele>2315</ele>
        <time>2018-10-17T09:09:47Z</time>
      </trkpt>
      <trkpt lat="45.84391" lon="6.44208">
        <ele>2314</ele>
        <time>2018-10-17T09:09:48Z</time>
      </trkpt>
      <trkpt lat="45.84391" lon="6.44208">
        <ele>2314</ele>
        <time>2018-10-17T09:09:49Z</time>
      </trkpt>
      <trkpt lat="45.84389" lon="6.44205">
        <ele>2314</ele>
        <time>2018-10-17T09:09:50Z</time>
      </trkpt>
      <trkpt lat="45.84389" lon="6.44205">
        <ele>2313</ele>
        <time>2018-10-17T09:09:51Z</time>
      </trkpt>
      <trkpt lat="45.84388" lon="6.44202">
        <ele>2313</ele>
        <time>2018-10-17T09:09:52Z</time>
      </trkpt>
      <trkpt lat="45.84388" lon="6.44202">
        <ele>2312</ele>
        <time>2018-10-17T09:09:53Z</time>
      </trkpt>
      <trkpt lat="45.84387" lon="6.44199">
        <ele>2311</ele>
        <time>2018-10-17T09:09:54Z</time>
      </trkpt>
      <trkpt lat="45.84387" lon="6.44199">
        <ele>2311</ele>
        <time>2018-10-17T09:09:55Z</time>
      </trkpt>
      <trkpt lat="45.84386" lon="6.44196">
        <ele>2311</ele>
        <time>2018-10-17T09:09:56Z</time>
      </trkpt>
      <trkpt lat="45.84386" lon="6.44196">
        <ele>2310</ele>
        <time>2018-10-17T09:09:57Z</time>
      </trkpt>
      <trkpt lat="45.84385" lon="6.44193">
        <ele>2309</ele>
        <time>2018-10-17T09:09:58Z</time>
      </trkpt>
      <trkpt lat="45.84385" lon="6.44193">
        <ele>2309</ele>
        <time>2018-10-17T09:09:59Z</time>
      </trkpt>
      <trkpt lat="45.84385" lon="6.44193">
        <ele>2308</ele>
        <time>2018-10-17T09:10:00Z</time>
      </trkpt>
      <trkpt lat="45.84383" lon="6.44189">
        <ele>2308</ele>
        <time>2018-10-17T09:10:01Z</time>
      </trkpt>
      <trkpt lat="45.84383" lon="6.44189">
        <ele>2308</ele>
        <time>2018-10-17T09:10:02Z</time>
      </trkpt>
      <trkpt lat="45.84382" lon="6.44186">
        <ele>2307</ele>
        <time>2018-10-17T09:10:03Z</time>
      </trkpt>
      <trkpt lat="45.84382" lon="6.44186">
        <ele>2307</ele>
        <time>2018-10-17T09:10:04Z</time>
      </trkpt>
      <trkpt lat="45.84382" lon="6.44186">
        <ele>2306</ele>
        <time>2018-10-17T09:10:05Z</time>
      </trkpt>
      <trkpt lat="45.84382" lon="6.44186">
        <ele>2306</ele>
        <time>2018-10-17T09:10:06Z</time>
      </trkpt>
      <trkpt lat="45.84382" lon="6.44186">
        <ele>2306</ele>
        <time>2018-10-17T09:10:07Z</time>
      </trkpt>
      <trkpt lat="45.84382" lon="6.44186">
        <ele>2306</ele>
        <time>2018-10-17T09:10:08Z</time>
      </trkpt>
      <trkpt lat="45.84382" lon="6.44186">
        <ele>2306</ele>
        <time>2018-10-17T09:10:09Z</time>
      </trkpt>
      <trkpt lat="45.84382" lon="6.44186">
        <ele>2306</ele>
        <time>2018-10-17T09:10:10Z</time>
      </trkpt>
      <trkpt lat="45.84381" lon="6.44182">
        <ele>2306</ele>
        <time>2018-10-17T09:10:11Z</time>
      </trkpt>
      <trkpt lat="45.84381" lon="6.44182">
        <ele>2305</ele>
        <time>2018-10-17T09:10:12Z</time>
      </trkpt>
      <trkpt lat="45.84381" lon="6.44182">
        <ele>2305</ele>
        <time>2018-10-17T09:10:13Z</time>
      </trkpt>
      <trkpt lat="45.84379" lon="6.4418">
        <ele>2305</ele>
        <time>2018-10-17T09:10:14Z</time>
      </trkpt>
      <trkpt lat="45.84379" lon="6.4418">
        <ele>2304</ele>
        <time>2018-10-17T09:10:15Z</time>
      </trkpt>
      <trkpt lat="45.84378" lon="6.44177">
        <ele>2304</ele>
        <time>2018-10-17T09:10:16Z</time>
      </trkpt>
      <trkpt lat="45.84378" lon="6.44177">
        <ele>2304</ele>
        <time>2018-10-17T09:10:17Z</time>
      </trkpt>
      <trkpt lat="45.84378" lon="6.44177">
        <ele>2303</ele>
        <time>2018-10-17T09:10:18Z</time>
      </trkpt>
      <trkpt lat="45.84377" lon="6.44175">
        <ele>2301</ele>
        <time>2018-10-17T09:10:19Z</time>
      </trkpt>
      <trkpt lat="45.84377" lon="6.44175">
        <ele>2301</ele>
        <time>2018-10-17T09:10:20Z</time>
      </trkpt>
      <trkpt lat="45.84377" lon="6.44175">
        <ele>2300</ele>
        <time>2018-10-17T09:10:21Z</time>
      </trkpt>
      <trkpt lat="45.84375" lon="6.44172">
        <ele>2299</ele>
        <time>2018-10-17T09:10:22Z</time>
      </trkpt>
      <trkpt lat="45.84375" lon="6.44172">
        <ele>2299</ele>
        <time>2018-10-17T09:10:23Z</time>
      </trkpt>
      <trkpt lat="45.84375" lon="6.44172">
        <ele>2298</ele>
        <time>2018-10-17T09:10:24Z</time>
      </trkpt>
      <trkpt lat="45.84375" lon="6.44168">
        <ele>2298</ele>
        <time>2018-10-17T09:10:25Z</time>
      </trkpt>
      <trkpt lat="45.84375" lon="6.44168">
        <ele>2297</ele>
        <time>2018-10-17T09:10:26Z</time>
      </trkpt>
      <trkpt lat="45.84376" lon="6.44166">
        <ele>2297</ele>
        <time>2018-10-17T09:10:27Z</time>
      </trkpt>
      <trkpt lat="45.84376" lon="6.44166">
        <ele>2297</ele>
        <time>2018-10-17T09:10:28Z</time>
      </trkpt>
      <trkpt lat="45.84376" lon="6.44166">
        <ele>2297</ele>
        <time>2018-10-17T09:10:29Z</time>
      </trkpt>
      <trkpt lat="45.84376" lon="6.44162">
        <ele>2296</ele>
        <time>2018-10-17T09:10:30Z</time>
      </trkpt>
      <trkpt lat="45.84376" lon="6.44162">
        <ele>2296</ele>
        <time>2018-10-17T09:10:31Z</time>
      </trkpt>
      <trkpt lat="45.84375" lon="6.44159">
        <ele>2295</ele>
        <time>2018-10-17T09:10:32Z</time>
      </trkpt>
      <trkpt lat="45.84375" lon="6.44159">
        <ele>2294</ele>
        <time>2018-10-17T09:10:33Z</time>
      </trkpt>
      <trkpt lat="45.84375" lon="6.44156">
        <ele>2294</ele>
        <time>2018-10-17T09:10:34Z</time>
      </trkpt>
      <trkpt lat="45.84375" lon="6.44156">
        <ele>2293</ele>
        <time>2018-10-17T09:10:35Z</time>
      </trkpt>
      <trkpt lat="45.84375" lon="6.44156">
        <ele>2293</ele>
        <time>2018-10-17T09:10:36Z</time>
      </trkpt>
      <trkpt lat="45.84375" lon="6.44153">
        <ele>2293</ele>
        <time>2018-10-17T09:10:37Z</time>
      </trkpt>
      <trkpt lat="45.84375" lon="6.44153">
        <ele>2293</ele>
        <time>2018-10-17T09:10:38Z</time>
      </trkpt>
      <trkpt lat="45.84375" lon="6.44153">
        <ele>2292</ele>
        <time>2018-10-17T09:10:39Z</time>
      </trkpt>
      <trkpt lat="45.84375" lon="6.44153">
        <ele>2292</ele>
        <time>2018-10-17T09:10:40Z</time>
      </trkpt>
      <trkpt lat="45.84375" lon="6.44153">
        <ele>2292</ele>
        <time>2018-10-17T09:10:41Z</time>
      </trkpt>
      <trkpt lat="45.84373" lon="6.44153">
        <ele>2292</ele>
        <time>2018-10-17T09:10:42Z</time>
      </trkpt>
      <trkpt lat="45.84373" lon="6.44153">
        <ele>2292</ele>
        <time>2018-10-17T09:10:43Z</time>
      </trkpt>
      <trkpt lat="45.84373" lon="6.44153">
        <ele>2292</ele>
        <time>2018-10-17T09:10:44Z</time>
      </trkpt>
      <trkpt lat="45.84375" lon="6.44152">
        <ele>2292</ele>
        <time>2018-10-17T09:10:45Z</time>
      </trkpt>
      <trkpt lat="45.84375" lon="6.44152">
        <ele>2292</ele>
        <time>2018-10-17T09:10:46Z</time>
      </trkpt>
      <trkpt lat="45.84375" lon="6.44152">
        <ele>2292</ele>
        <time>2018-10-17T09:10:47Z</time>
      </trkpt>
      <trkpt lat="45.84376" lon="6.44154">
        <ele>2292</ele>
        <time>2018-10-17T09:10:48Z</time>
      </trkpt>
      <trkpt lat="45.84376" lon="6.44154">
        <ele>2292</ele>
        <time>2018-10-17T09:10:49Z</time>
      </trkpt>
      <trkpt lat="45.84376" lon="6.44154">
        <ele>2291</ele>
        <time>2018-10-17T09:10:50Z</time>
      </trkpt>
      <trkpt lat="45.84376" lon="6.44154">
        <ele>2291</ele>
        <time>2018-10-17T09:10:51Z</time>
      </trkpt>
      <trkpt lat="45.84376" lon="6.44154">
        <ele>2291</ele>
        <time>2018-10-17T09:10:52Z</time>
      </trkpt>
      <trkpt lat="45.84375" lon="6.44156">
        <ele>2291</ele>
        <time>2018-10-17T09:10:53Z</time>
      </trkpt>
      <trkpt lat="45.84375" lon="6.44156">
        <ele>2291</ele>
        <time>2018-10-17T09:10:54Z</time>
      </trkpt>
      <trkpt lat="45.84375" lon="6.44156">
        <ele>2291</ele>
        <time>2018-10-17T09:10:55Z</time>
      </trkpt>
      <trkpt lat="45.84375" lon="6.44156">
        <ele>2291</ele>
        <time>2018-10-17T09:10:56Z</time>
      </trkpt>
      <trkpt lat="45.84375" lon="6.44156">
        <ele>2291</ele>
        <time>2018-10-17T09:10:57Z</time>
      </trkpt>
      <trkpt lat="45.84375" lon="6.44156">
        <ele>2291</ele>
        <time>2018-10-17T09:10:58Z</time>
      </trkpt>
      <trkpt lat="45.84375" lon="6.44159">
        <ele>2291</ele>
        <time>2018-10-17T09:10:59Z</time>
      </trkpt>
      <trkpt lat="45.84375" lon="6.44159">
        <ele>2291</ele>
        <time>2018-10-17T09:11:00Z</time>
      </trkpt>
      <trkpt lat="45.84375" lon="6.44159">
        <ele>2291</ele>
        <time>2018-10-17T09:11:01Z</time>
      </trkpt>
      <trkpt lat="45.84375" lon="6.44159">
        <ele>2291</ele>
        <time>2018-10-17T09:11:02Z</time>
      </trkpt>
      <trkpt lat="45.84375" lon="6.44159">
        <ele>2290</ele>
        <time>2018-10-17T09:11:03Z</time>
      </trkpt>
      <trkpt lat="45.84375" lon="6.44159">
        <ele>2290</ele>
        <time>2018-10-17T09:11:04Z</time>
      </trkpt>
      <trkpt lat="45.84375" lon="6.44159">
        <ele>2290</ele>
        <time>2018-10-17T09:11:05Z</time>
      </trkpt>
      <trkpt lat="45.84375" lon="6.44159">
        <ele>2290</ele>
        <time>2018-10-17T09:11:06Z</time>
      </trkpt>
      <trkpt lat="45.84375" lon="6.44159">
        <ele>2290</ele>
        <time>2018-10-17T09:11:07Z</time>
      </trkpt>
      <trkpt lat="45.84375" lon="6.44159">
        <ele>2290</ele>
        <time>2018-10-17T09:11:08Z</time>
      </trkpt>
      <trkpt lat="45.84375" lon="6.44159">
        <ele>2289</ele>
        <time>2018-10-17T09:11:09Z</time>
      </trkpt>
      <trkpt lat="45.84375" lon="6.44159">
        <ele>2289</ele>
        <time>2018-10-17T09:11:10Z</time>
      </trkpt>
      <trkpt lat="45.84375" lon="6.44159">
        <ele>2289</ele>
        <time>2018-10-17T09:11:11Z</time>
      </trkpt>
      <trkpt lat="45.84375" lon="6.44159">
        <ele>2289</ele>
        <time>2018-10-17T09:11:12Z</time>
      </trkpt>
      <trkpt lat="45.84375" lon="6.44159">
        <ele>2289</ele>
        <time>2018-10-17T09:11:13Z</time>
      </trkpt>
      <trkpt lat="45.84375" lon="6.44159">
        <ele>2289</ele>
        <time>2018-10-17T09:11:14Z</time>
      </trkpt>
      <trkpt lat="45.84375" lon="6.44159">
        <ele>2288</ele>
        <time>2018-10-17T09:11:15Z</time>
      </trkpt>
      <trkpt lat="45.84375" lon="6.44159">
        <ele>2289</ele>
        <time>2018-10-17T09:11:16Z</time>
      </trkpt>
      <trkpt lat="45.84375" lon="6.44159">
        <ele>2289</ele>
        <time>2018-10-17T09:11:17Z</time>
      </trkpt>
      <trkpt lat="45.84375" lon="6.44159">
        <ele>2289</ele>
        <time>2018-10-17T09:11:18Z</time>
      </trkpt>
      <trkpt lat="45.84375" lon="6.44159">
        <ele>2288</ele>
        <time>2018-10-17T09:11:19Z</time>
      </trkpt>
      <trkpt lat="45.84375" lon="6.44159">
        <ele>2288</ele>
        <time>2018-10-17T09:11:20Z</time>
      </trkpt>
      <trkpt lat="45.84375" lon="6.44159">
        <ele>2288</ele>
        <time>2018-10-17T09:11:21Z</time>
      </trkpt>
      <trkpt lat="45.84375" lon="6.44159">
        <ele>2288</ele>
        <time>2018-10-17T09:11:22Z</time>
      </trkpt>
      <trkpt lat="45.84373" lon="6.44157">
        <ele>2288</ele>
        <time>2018-10-17T09:11:23Z</time>
      </trkpt>
      <trkpt lat="45.84373" lon="6.44157">
        <ele>2288</ele>
        <time>2018-10-17T09:11:24Z</time>
      </trkpt>
      <trkpt lat="45.84373" lon="6.44157">
        <ele>2288</ele>
        <time>2018-10-17T09:11:25Z</time>
      </trkpt>
      <trkpt lat="45.84373" lon="6.44157">
        <ele>2288</ele>
        <time>2018-10-17T09:11:26Z</time>
      </trkpt>
      <trkpt lat="45.84373" lon="6.44157">
        <ele>2288</ele>
        <time>2018-10-17T09:11:27Z</time>
      </trkpt>
      <trkpt lat="45.84373" lon="6.44157">
        <ele>2288</ele>
        <time>2018-10-17T09:11:28Z</time>
      </trkpt>
      <trkpt lat="45.84373" lon="6.44157">
        <ele>2288</ele>
        <time>2018-10-17T09:11:29Z</time>
      </trkpt>
      <trkpt lat="45.84373" lon="6.44157">
        <ele>2288</ele>
        <time>2018-10-17T09:11:30Z</time>
      </trkpt>
      <trkpt lat="45.84373" lon="6.44157">
        <ele>2288</ele>
        <time>2018-10-17T09:11:31Z</time>
      </trkpt>
      <trkpt lat="45.84373" lon="6.44157">
        <ele>2288</ele>
        <time>2018-10-17T09:11:32Z</time>
      </trkpt>
      <trkpt lat="45.84373" lon="6.44157">
        <ele>2288</ele>
        <time>2018-10-17T09:11:33Z</time>
      </trkpt>
      <trkpt lat="45.84373" lon="6.44157">
        <ele>2288</ele>
        <time>2018-10-17T09:11:34Z</time>
      </trkpt>
      <trkpt lat="45.84373" lon="6.44157">
        <ele>2288</ele>
        <time>2018-10-17T09:11:35Z</time>
      </trkpt>
      <trkpt lat="45.84373" lon="6.44157">
        <ele>2288</ele>
        <time>2018-10-17T09:11:36Z</time>
      </trkpt>
      <trkpt lat="45.84373" lon="6.44157">
        <ele>2288</ele>
        <time>2018-10-17T09:11:37Z</time>
      </trkpt>
      <trkpt lat="45.84373" lon="6.44157">
        <ele>2288</ele>
        <time>2018-10-17T09:11:38Z</time>
      </trkpt>
      <trkpt lat="45.84373" lon="6.44157">
        <ele>2288</ele>
        <time>2018-10-17T09:11:39Z</time>
      </trkpt>
      <trkpt lat="45.84373" lon="6.44157">
        <ele>2288</ele>
        <time>2018-10-17T09:11:40Z</time>
      </trkpt>
      <trkpt lat="45.84373" lon="6.44157">
        <ele>2288</ele>
        <time>2018-10-17T09:11:41Z</time>
      </trkpt>
      <trkpt lat="45.84373" lon="6.44157">
        <ele>2288</ele>
        <time>2018-10-17T09:11:42Z</time>
      </trkpt>
      <trkpt lat="45.84373" lon="6.44157">
        <ele>2288</ele>
        <time>2018-10-17T09:11:43Z</time>
      </trkpt>
      <trkpt lat="45.84373" lon="6.44157">
        <ele>2288</ele>
        <time>2018-10-17T09:11:44Z</time>
      </trkpt>
      <trkpt lat="45.84373" lon="6.44157">
        <ele>2288</ele>
        <time>2018-10-17T09:11:45Z</time>
      </trkpt>
      <trkpt lat="45.84373" lon="6.44157">
        <ele>2288</ele>
        <time>2018-10-17T09:11:46Z</time>
      </trkpt>
      <trkpt lat="45.84373" lon="6.44157">
        <ele>2288</ele>
        <time>2018-10-17T09:11:47Z</time>
      </trkpt>
      <trkpt lat="45.84374" lon="6.44155">
        <ele>2288</ele>
        <time>2018-10-17T09:11:48Z</time>
      </trkpt>
      <trkpt lat="45.84374" lon="6.44155">
        <ele>2289</ele>
        <time>2018-10-17T09:11:49Z</time>
      </trkpt>
      <trkpt lat="45.84374" lon="6.44155">
        <ele>2289</ele>
        <time>2018-10-17T09:11:50Z</time>
      </trkpt>
      <trkpt lat="45.84374" lon="6.44155">
        <ele>2289</ele>
        <time>2018-10-17T09:11:51Z</time>
      </trkpt>
      <trkpt lat="45.84374" lon="6.44155">
        <ele>2288</ele>
        <time>2018-10-17T09:11:52Z</time>
      </trkpt>
      <trkpt lat="45.84374" lon="6.44155">
        <ele>2288</ele>
        <time>2018-10-17T09:11:53Z</time>
      </trkpt>
      <trkpt lat="45.84374" lon="6.44155">
        <ele>2288</ele>
        <time>2018-10-17T09:11:54Z</time>
      </trkpt>
      <trkpt lat="45.84374" lon="6.44155">
        <ele>2288</ele>
        <time>2018-10-17T09:11:55Z</time>
      </trkpt>
      <trkpt lat="45.84374" lon="6.44155">
        <ele>2288</ele>
        <time>2018-10-17T09:11:56Z</time>
      </trkpt>
      <trkpt lat="45.84374" lon="6.44155">
        <ele>2288</ele>
        <time>2018-10-17T09:11:57Z</time>
      </trkpt>
      <trkpt lat="45.84374" lon="6.44155">
        <ele>2288</ele>
        <time>2018-10-17T09:11:58Z</time>
      </trkpt>
      <trkpt lat="45.84374" lon="6.44155">
        <ele>2288</ele>
        <time>2018-10-17T09:11:59Z</time>
      </trkpt>
      <trkpt lat="45.84374" lon="6.44155">
        <ele>2287</ele>
        <time>2018-10-17T09:12:00Z</time>
      </trkpt>
      <trkpt lat="45.84374" lon="6.44155">
        <ele>2286</ele>
        <time>2018-10-17T09:12:01Z</time>
      </trkpt>
      <trkpt lat="45.84374" lon="6.44155">
        <ele>2286</ele>
        <time>2018-10-17T09:12:02Z</time>
      </trkpt>
      <trkpt lat="45.84374" lon="6.44155">
        <ele>2286</ele>
        <time>2018-10-17T09:12:03Z</time>
      </trkpt>
      <trkpt lat="45.84374" lon="6.44155">
        <ele>2286</ele>
        <time>2018-10-17T09:12:04Z</time>
      </trkpt>
      <trkpt lat="45.84374" lon="6.44155">
        <ele>2286</ele>
        <time>2018-10-17T09:12:05Z</time>
      </trkpt>
      <trkpt lat="45.84374" lon="6.44155">
        <ele>2286</ele>
        <time>2018-10-17T09:12:06Z</time>
      </trkpt>
      <trkpt lat="45.84374" lon="6.44155">
        <ele>2285</ele>
        <time>2018-10-17T09:12:07Z</time>
      </trkpt>
      <trkpt lat="45.84374" lon="6.44155">
        <ele>2285</ele>
        <time>2018-10-17T09:12:08Z</time>
      </trkpt>
      <trkpt lat="45.84372" lon="6.44157">
        <ele>2285</ele>
        <time>2018-10-17T09:12:09Z</time>
      </trkpt>
      <trkpt lat="45.84372" lon="6.44157">
        <ele>2285</ele>
        <time>2018-10-17T09:12:10Z</time>
      </trkpt>
      <trkpt lat="45.84371" lon="6.44159">
        <ele>2285</ele>
        <time>2018-10-17T09:12:11Z</time>
      </trkpt>
      <trkpt lat="45.84371" lon="6.44159">
        <ele>2285</ele>
        <time>2018-10-17T09:12:12Z</time>
      </trkpt>
      <trkpt lat="45.84371" lon="6.44159">
        <ele>2285</ele>
        <time>2018-10-17T09:12:13Z</time>
      </trkpt>
      <trkpt lat="45.84371" lon="6.44159">
        <ele>2284</ele>
        <time>2018-10-17T09:12:14Z</time>
      </trkpt>
      <trkpt lat="45.8437" lon="6.44161">
        <ele>2284</ele>
        <time>2018-10-17T09:12:15Z</time>
      </trkpt>
      <trkpt lat="45.8437" lon="6.44161">
        <ele>2283</ele>
        <time>2018-10-17T09:12:16Z</time>
      </trkpt>
      <trkpt lat="45.8437" lon="6.44161">
        <ele>2283</ele>
        <time>2018-10-17T09:12:17Z</time>
      </trkpt>
      <trkpt lat="45.8437" lon="6.44161">
        <ele>2282</ele>
        <time>2018-10-17T09:12:18Z</time>
      </trkpt>
      <trkpt lat="45.8437" lon="6.44161">
        <ele>2282</ele>
        <time>2018-10-17T09:12:19Z</time>
      </trkpt>
      <trkpt lat="45.8437" lon="6.44161">
        <ele>2282</ele>
        <time>2018-10-17T09:12:20Z</time>
      </trkpt>
      <trkpt lat="45.8437" lon="6.44161">
        <ele>2282</ele>
        <time>2018-10-17T09:12:21Z</time>
      </trkpt>
      <trkpt lat="45.8437" lon="6.44161">
        <ele>2282</ele>
        <time>2018-10-17T09:12:22Z</time>
      </trkpt>
      <trkpt lat="45.8437" lon="6.44161">
        <ele>2282</ele>
        <time>2018-10-17T09:12:23Z</time>
      </trkpt>
      <trkpt lat="45.8437" lon="6.44161">
        <ele>2281</ele>
        <time>2018-10-17T09:12:24Z</time>
      </trkpt>
      <trkpt lat="45.8437" lon="6.44161">
        <ele>2281</ele>
        <time>2018-10-17T09:12:25Z</time>
      </trkpt>
      <trkpt lat="45.8437" lon="6.44161">
        <ele>2281</ele>
        <time>2018-10-17T09:12:26Z</time>
      </trkpt>
      <trkpt lat="45.84368" lon="6.44163">
        <ele>2281</ele>
        <time>2018-10-17T09:12:27Z</time>
      </trkpt>
      <trkpt lat="45.84368" lon="6.44163">
        <ele>2281</ele>
        <time>2018-10-17T09:12:28Z</time>
      </trkpt>
      <trkpt lat="45.84368" lon="6.44163">
        <ele>2281</ele>
        <time>2018-10-17T09:12:29Z</time>
      </trkpt>
      <trkpt lat="45.84368" lon="6.44163">
        <ele>2281</ele>
        <time>2018-10-17T09:12:30Z</time>
      </trkpt>
      <trkpt lat="45.84366" lon="6.44164">
        <ele>2280</ele>
        <time>2018-10-17T09:12:31Z</time>
      </trkpt>
      <trkpt lat="45.84366" lon="6.44164">
        <ele>2280</ele>
        <time>2018-10-17T09:12:32Z</time>
      </trkpt>
      <trkpt lat="45.84366" lon="6.44164">
        <ele>2279</ele>
        <time>2018-10-17T09:12:33Z</time>
      </trkpt>
      <trkpt lat="45.84366" lon="6.44164">
        <ele>2279</ele>
        <time>2018-10-17T09:12:34Z</time>
      </trkpt>
      <trkpt lat="45.84366" lon="6.44164">
        <ele>2279</ele>
        <time>2018-10-17T09:12:35Z</time>
      </trkpt>
      <trkpt lat="45.84366" lon="6.44164">
        <ele>2279</ele>
        <time>2018-10-17T09:12:36Z</time>
      </trkpt>
      <trkpt lat="45.84366" lon="6.44164">
        <ele>2279</ele>
        <time>2018-10-17T09:12:37Z</time>
      </trkpt>
      <trkpt lat="45.84366" lon="6.44164">
        <ele>2279</ele>
        <time>2018-10-17T09:12:38Z</time>
      </trkpt>
      <trkpt lat="45.84366" lon="6.44164">
        <ele>2279</ele>
        <time>2018-10-17T09:12:39Z</time>
      </trkpt>
      <trkpt lat="45.84366" lon="6.44164">
        <ele>2279</ele>
        <time>2018-10-17T09:12:40Z</time>
      </trkpt>
      <trkpt lat="45.84366" lon="6.44164">
        <ele>2279</ele>
        <time>2018-10-17T09:12:41Z</time>
      </trkpt>
      <trkpt lat="45.84366" lon="6.44164">
        <ele>2279</ele>
        <time>2018-10-17T09:12:42Z</time>
      </trkpt>
      <trkpt lat="45.84366" lon="6.44164">
        <ele>2279</ele>
        <time>2018-10-17T09:12:43Z</time>
      </trkpt>
      <trkpt lat="45.84365" lon="6.44167">
        <ele>2278</ele>
        <time>2018-10-17T09:12:44Z</time>
      </trkpt>
      <trkpt lat="45.84365" lon="6.44167">
        <ele>2278</ele>
        <time>2018-10-17T09:12:45Z</time>
      </trkpt>
      <trkpt lat="45.84365" lon="6.44167">
        <ele>2278</ele>
        <time>2018-10-17T09:12:46Z</time>
      </trkpt>
      <trkpt lat="45.84365" lon="6.44167">
        <ele>2278</ele>
        <time>2018-10-17T09:12:47Z</time>
      </trkpt>
      <trkpt lat="45.84365" lon="6.44167">
        <ele>2277</ele>
        <time>2018-10-17T09:12:48Z</time>
      </trkpt>
      <trkpt lat="45.84365" lon="6.44167">
        <ele>2277</ele>
        <time>2018-10-17T09:12:49Z</time>
      </trkpt>
      <trkpt lat="45.84365" lon="6.44167">
        <ele>2277</ele>
        <time>2018-10-17T09:12:50Z</time>
      </trkpt>
      <trkpt lat="45.84365" lon="6.44167">
        <ele>2277</ele>
        <time>2018-10-17T09:12:51Z</time>
      </trkpt>
      <trkpt lat="45.84365" lon="6.44167">
        <ele>2277</ele>
        <time>2018-10-17T09:12:52Z</time>
      </trkpt>
      <trkpt lat="45.84365" lon="6.44167">
        <ele>2277</ele>
        <time>2018-10-17T09:12:53Z</time>
      </trkpt>
      <trkpt lat="45.84365" lon="6.44167">
        <ele>2277</ele>
        <time>2018-10-17T09:12:54Z</time>
      </trkpt>
      <trkpt lat="45.84365" lon="6.44167">
        <ele>2277</ele>
        <time>2018-10-17T09:12:55Z</time>
      </trkpt>
      <trkpt lat="45.84365" lon="6.44167">
        <ele>2277</ele>
        <time>2018-10-17T09:12:56Z</time>
      </trkpt>
      <trkpt lat="45.84365" lon="6.44167">
        <ele>2277</ele>
        <time>2018-10-17T09:12:57Z</time>
      </trkpt>
      <trkpt lat="45.84365" lon="6.44167">
        <ele>2277</ele>
        <time>2018-10-17T09:12:58Z</time>
      </trkpt>
      <trkpt lat="45.84365" lon="6.44167">
        <ele>2277</ele>
        <time>2018-10-17T09:12:59Z</time>
      </trkpt>
      <trkpt lat="45.84365" lon="6.44167">
        <ele>2277</ele>
        <time>2018-10-17T09:13:00Z</time>
      </trkpt>
      <trkpt lat="45.84364" lon="6.4417">
        <ele>2277</ele>
        <time>2018-10-17T09:13:01Z</time>
      </trkpt>
      <trkpt lat="45.84364" lon="6.4417">
        <ele>2277</ele>
        <time>2018-10-17T09:13:02Z</time>
      </trkpt>
      <trkpt lat="45.84364" lon="6.4417">
        <ele>2277</ele>
        <time>2018-10-17T09:13:03Z</time>
      </trkpt>
      <trkpt lat="45.84364" lon="6.4417">
        <ele>2277</ele>
        <time>2018-10-17T09:13:04Z</time>
      </trkpt>
      <trkpt lat="45.84364" lon="6.4417">
        <ele>2277</ele>
        <time>2018-10-17T09:13:05Z</time>
      </trkpt>
      <trkpt lat="45.84364" lon="6.4417">
        <ele>2277</ele>
        <time>2018-10-17T09:13:06Z</time>
      </trkpt>
      <trkpt lat="45.84364" lon="6.4417">
        <ele>2277</ele>
        <time>2018-10-17T09:13:07Z</time>
      </trkpt>
      <trkpt lat="45.84364" lon="6.4417">
        <ele>2277</ele>
        <time>2018-10-17T09:13:08Z</time>
      </trkpt>
      <trkpt lat="45.84364" lon="6.4417">
        <ele>2277</ele>
        <time>2018-10-17T09:13:09Z</time>
      </trkpt>
      <trkpt lat="45.84364" lon="6.4417">
        <ele>2277</ele>
        <time>2018-10-17T09:13:10Z</time>
      </trkpt>
      <trkpt lat="45.84364" lon="6.4417">
        <ele>2277</ele>
        <time>2018-10-17T09:13:11Z</time>
      </trkpt>
      <trkpt lat="45.84364" lon="6.4417">
        <ele>2277</ele>
        <time>2018-10-17T09:13:12Z</time>
      </trkpt>
      <trkpt lat="45.84364" lon="6.4417">
        <ele>2277</ele>
        <time>2018-10-17T09:13:13Z</time>
      </trkpt>
      <trkpt lat="45.84364" lon="6.4417">
        <ele>2277</ele>
        <time>2018-10-17T09:13:14Z</time>
      </trkpt>
      <trkpt lat="45.84364" lon="6.4417">
        <ele>2277</ele>
        <time>2018-10-17T09:13:15Z</time>
      </trkpt>
      <trkpt lat="45.84364" lon="6.4417">
        <ele>2277</ele>
        <time>2018-10-17T09:13:16Z</time>
      </trkpt>
      <trkpt lat="45.84364" lon="6.4417">
        <ele>2278</ele>
        <time>2018-10-17T09:13:17Z</time>
      </trkpt>
      <trkpt lat="45.84364" lon="6.4417">
        <ele>2278</ele>
        <time>2018-10-17T09:13:18Z</time>
      </trkpt>
      <trkpt lat="45.84364" lon="6.4417">
        <ele>2278</ele>
        <time>2018-10-17T09:13:19Z</time>
      </trkpt>
      <trkpt lat="45.84364" lon="6.4417">
        <ele>2278</ele>
        <time>2018-10-17T09:13:20Z</time>
      </trkpt>
      <trkpt lat="45.84364" lon="6.4417">
        <ele>2277</ele>
        <time>2018-10-17T09:13:21Z</time>
      </trkpt>
      <trkpt lat="45.84364" lon="6.44173">
        <ele>2277</ele>
        <time>2018-10-17T09:13:22Z</time>
      </trkpt>
      <trkpt lat="45.84364" lon="6.44173">
        <ele>2275</ele>
        <time>2018-10-17T09:13:23Z</time>
      </trkpt>
      <trkpt lat="45.84364" lon="6.44173">
        <ele>2275</ele>
        <time>2018-10-17T09:13:24Z</time>
      </trkpt>
      <trkpt lat="45.84364" lon="6.44173">
        <ele>2275</ele>
        <time>2018-10-17T09:13:25Z</time>
      </trkpt>
      <trkpt lat="45.84364" lon="6.44173">
        <ele>2275</ele>
        <time>2018-10-17T09:13:26Z</time>
      </trkpt>
      <trkpt lat="45.84364" lon="6.44173">
        <ele>2275</ele>
        <time>2018-10-17T09:13:27Z</time>
      </trkpt>
      <trkpt lat="45.84364" lon="6.44173">
        <ele>2275</ele>
        <time>2018-10-17T09:13:28Z</time>
      </trkpt>
      <trkpt lat="45.84361" lon="6.44174">
        <ele>2274</ele>
        <time>2018-10-17T09:13:29Z</time>
      </trkpt>
      <trkpt lat="45.84361" lon="6.44174">
        <ele>2274</ele>
        <time>2018-10-17T09:13:30Z</time>
      </trkpt>
      <trkpt lat="45.84361" lon="6.44174">
        <ele>2274</ele>
        <time>2018-10-17T09:13:31Z</time>
      </trkpt>
      <trkpt lat="45.84361" lon="6.44174">
        <ele>2274</ele>
        <time>2018-10-17T09:13:32Z</time>
      </trkpt>
      <trkpt lat="45.84361" lon="6.44174">
        <ele>2273</ele>
        <time>2018-10-17T09:13:33Z</time>
      </trkpt>
      <trkpt lat="45.84361" lon="6.44174">
        <ele>2273</ele>
        <time>2018-10-17T09:13:34Z</time>
      </trkpt>
      <trkpt lat="45.8436" lon="6.44176">
        <ele>2273</ele>
        <time>2018-10-17T09:13:35Z</time>
      </trkpt>
      <trkpt lat="45.8436" lon="6.44176">
        <ele>2273</ele>
        <time>2018-10-17T09:13:36Z</time>
      </trkpt>
      <trkpt lat="45.84358" lon="6.44177">
        <ele>2272</ele>
        <time>2018-10-17T09:13:37Z</time>
      </trkpt>
      <trkpt lat="45.84358" lon="6.44177">
        <ele>2272</ele>
        <time>2018-10-17T09:13:38Z</time>
      </trkpt>
      <trkpt lat="45.84358" lon="6.44177">
        <ele>2272</ele>
        <time>2018-10-17T09:13:39Z</time>
      </trkpt>
      <trkpt lat="45.84358" lon="6.44177">
        <ele>2272</ele>
        <time>2018-10-17T09:13:40Z</time>
      </trkpt>
      <trkpt lat="45.84358" lon="6.44177">
        <ele>2271</ele>
        <time>2018-10-17T09:13:41Z</time>
      </trkpt>
      <trkpt lat="45.84358" lon="6.44177">
        <ele>2271</ele>
        <time>2018-10-17T09:13:42Z</time>
      </trkpt>
      <trkpt lat="45.84358" lon="6.44177">
        <ele>2271</ele>
        <time>2018-10-17T09:13:43Z</time>
      </trkpt>
      <trkpt lat="45.84358" lon="6.44177">
        <ele>2271</ele>
        <time>2018-10-17T09:13:44Z</time>
      </trkpt>
      <trkpt lat="45.84358" lon="6.44177">
        <ele>2271</ele>
        <time>2018-10-17T09:13:45Z</time>
      </trkpt>
      <trkpt lat="45.84358" lon="6.44177">
        <ele>2271</ele>
        <time>2018-10-17T09:13:46Z</time>
      </trkpt>
      <trkpt lat="45.84358" lon="6.44177">
        <ele>2271</ele>
        <time>2018-10-17T09:13:47Z</time>
      </trkpt>
      <trkpt lat="45.84358" lon="6.44177">
        <ele>2271</ele>
        <time>2018-10-17T09:13:48Z</time>
      </trkpt>
      <trkpt lat="45.84358" lon="6.44177">
        <ele>2271</ele>
        <time>2018-10-17T09:13:49Z</time>
      </trkpt>
      <trkpt lat="45.84358" lon="6.44177">
        <ele>2271</ele>
        <time>2018-10-17T09:13:50Z</time>
      </trkpt>
      <trkpt lat="45.84358" lon="6.44177">
        <ele>2271</ele>
        <time>2018-10-17T09:13:51Z</time>
      </trkpt>
      <trkpt lat="45.84358" lon="6.44177">
        <ele>2271</ele>
        <time>2018-10-17T09:13:52Z</time>
      </trkpt>
      <trkpt lat="45.84358" lon="6.44177">
        <ele>2271</ele>
        <time>2018-10-17T09:13:53Z</time>
      </trkpt>
      <trkpt lat="45.84358" lon="6.44177">
        <ele>2271</ele>
        <time>2018-10-17T09:13:54Z</time>
      </trkpt>
      <trkpt lat="45.84358" lon="6.44177">
        <ele>2271</ele>
        <time>2018-10-17T09:13:55Z</time>
      </trkpt>
      <trkpt lat="45.84358" lon="6.44177">
        <ele>2271</ele>
        <time>2018-10-17T09:13:56Z</time>
      </trkpt>
      <trkpt lat="45.84358" lon="6.44177">
        <ele>2271</ele>
        <time>2018-10-17T09:13:57Z</time>
      </trkpt>
      <trkpt lat="45.84357" lon="6.44178">
        <ele>2271</ele>
        <time>2018-10-17T09:13:58Z</time>
      </trkpt>
      <trkpt lat="45.84357" lon="6.44178">
        <ele>2270</ele>
        <time>2018-10-17T09:13:59Z</time>
      </trkpt>
      <trkpt lat="45.84357" lon="6.44178">
        <ele>2270</ele>
        <time>2018-10-17T09:14:00Z</time>
      </trkpt>
      <trkpt lat="45.84357" lon="6.44178">
        <ele>2270</ele>
        <time>2018-10-17T09:14:01Z</time>
      </trkpt>
      <trkpt lat="45.84357" lon="6.44178">
        <ele>2270</ele>
        <time>2018-10-17T09:14:02Z</time>
      </trkpt>
      <trkpt lat="45.84357" lon="6.44178">
        <ele>2270</ele>
        <time>2018-10-17T09:14:03Z</time>
      </trkpt>
      <trkpt lat="45.84357" lon="6.44178">
        <ele>2270</ele>
        <time>2018-10-17T09:14:04Z</time>
      </trkpt>
      <trkpt lat="45.84357" lon="6.44178">
        <ele>2271</ele>
        <time>2018-10-17T09:14:05Z</time>
      </trkpt>
      <trkpt lat="45.84357" lon="6.44178">
        <ele>2271</ele>
        <time>2018-10-17T09:14:06Z</time>
      </trkpt>
      <trkpt lat="45.84357" lon="6.44178">
        <ele>2271</ele>
        <time>2018-10-17T09:14:07Z</time>
      </trkpt>
      <trkpt lat="45.84357" lon="6.44178">
        <ele>2271</ele>
        <time>2018-10-17T09:14:08Z</time>
      </trkpt>
      <trkpt lat="45.84357" lon="6.44178">
        <ele>2271</ele>
        <time>2018-10-17T09:14:09Z</time>
      </trkpt>
      <trkpt lat="45.84357" lon="6.44178">
        <ele>2271</ele>
        <time>2018-10-17T09:14:10Z</time>
      </trkpt>
      <trkpt lat="45.84357" lon="6.44178">
        <ele>2271</ele>
        <time>2018-10-17T09:14:11Z</time>
      </trkpt>
      <trkpt lat="45.84357" lon="6.44178">
        <ele>2271</ele>
        <time>2018-10-17T09:14:12Z</time>
      </trkpt>
      <trkpt lat="45.84357" lon="6.44178">
        <ele>2271</ele>
        <time>2018-10-17T09:14:13Z</time>
      </trkpt>
      <trkpt lat="45.84357" lon="6.44178">
        <ele>2271</ele>
        <time>2018-10-17T09:14:14Z</time>
      </trkpt>
      <trkpt lat="45.84357" lon="6.44178">
        <ele>2271</ele>
        <time>2018-10-17T09:14:15Z</time>
      </trkpt>
      <trkpt lat="45.84357" lon="6.44178">
        <ele>2271</ele>
        <time>2018-10-17T09:14:16Z</time>
      </trkpt>
      <trkpt lat="45.84357" lon="6.44178">
        <ele>2271</ele>
        <time>2018-10-17T09:14:17Z</time>
      </trkpt>
      <trkpt lat="45.84357" lon="6.44178">
        <ele>2271</ele>
        <time>2018-10-17T09:14:18Z</time>
      </trkpt>
      <trkpt lat="45.84357" lon="6.44178">
        <ele>2271</ele>
        <time>2018-10-17T09:14:19Z</time>
      </trkpt>
      <trkpt lat="45.84357" lon="6.44178">
        <ele>2271</ele>
        <time>2018-10-17T09:14:20Z</time>
      </trkpt>
      <trkpt lat="45.84357" lon="6.44178">
        <ele>2271</ele>
        <time>2018-10-17T09:14:21Z</time>
      </trkpt>
      <trkpt lat="45.84357" lon="6.44178">
        <ele>2271</ele>
        <time>2018-10-17T09:14:22Z</time>
      </trkpt>
      <trkpt lat="45.84357" lon="6.44178">
        <ele>2271</ele>
        <time>2018-10-17T09:14:23Z</time>
      </trkpt>
      <trkpt lat="45.84357" lon="6.44178">
        <ele>2271</ele>
        <time>2018-10-17T09:14:24Z</time>
      </trkpt>
      <trkpt lat="45.84357" lon="6.44178">
        <ele>2271</ele>
        <time>2018-10-17T09:14:25Z</time>
      </trkpt>
      <trkpt lat="45.84356" lon="6.44181">
        <ele>2271</ele>
        <time>2018-10-17T09:14:26Z</time>
      </trkpt>
      <trkpt lat="45.84356" lon="6.44181">
        <ele>2271</ele>
        <time>2018-10-17T09:14:27Z</time>
      </trkpt>
      <trkpt lat="45.84356" lon="6.44181">
        <ele>2271</ele>
        <time>2018-10-17T09:14:28Z</time>
      </trkpt>
      <trkpt lat="45.84356" lon="6.44181">
        <ele>2270</ele>
        <time>2018-10-17T09:14:29Z</time>
      </trkpt>
      <trkpt lat="45.84356" lon="6.44181">
        <ele>2270</ele>
        <time>2018-10-17T09:14:30Z</time>
      </trkpt>
      <trkpt lat="45.84356" lon="6.44181">
        <ele>2270</ele>
        <time>2018-10-17T09:14:31Z</time>
      </trkpt>
      <trkpt lat="45.84356" lon="6.44181">
        <ele>2270</ele>
        <time>2018-10-17T09:14:32Z</time>
      </trkpt>
      <trkpt lat="45.84355" lon="6.44183">
        <ele>2270</ele>
        <time>2018-10-17T09:14:33Z</time>
      </trkpt>
      <trkpt lat="45.84355" lon="6.44183">
        <ele>2269</ele>
        <time>2018-10-17T09:14:34Z</time>
      </trkpt>
      <trkpt lat="45.84355" lon="6.44183">
        <ele>2269</ele>
        <time>2018-10-17T09:14:35Z</time>
      </trkpt>
      <trkpt lat="45.84354" lon="6.44186">
        <ele>2269</ele>
        <time>2018-10-17T09:14:36Z</time>
      </trkpt>
      <trkpt lat="45.84354" lon="6.44186">
        <ele>2269</ele>
        <time>2018-10-17T09:14:37Z</time>
      </trkpt>
      <trkpt lat="45.84354" lon="6.44186">
        <ele>2269</ele>
        <time>2018-10-17T09:14:38Z</time>
      </trkpt>
      <trkpt lat="45.84354" lon="6.44188">
        <ele>2269</ele>
        <time>2018-10-17T09:14:39Z</time>
      </trkpt>
      <trkpt lat="45.84354" lon="6.44188">
        <ele>2269</ele>
        <time>2018-10-17T09:14:40Z</time>
      </trkpt>
      <trkpt lat="45.84354" lon="6.44191">
        <ele>2269</ele>
        <time>2018-10-17T09:14:41Z</time>
      </trkpt>
      <trkpt lat="45.84354" lon="6.44191">
        <ele>2269</ele>
        <time>2018-10-17T09:14:42Z</time>
      </trkpt>
      <trkpt lat="45.84354" lon="6.44191">
        <ele>2269</ele>
        <time>2018-10-17T09:14:43Z</time>
      </trkpt>
      <trkpt lat="45.84354" lon="6.44191">
        <ele>2268</ele>
        <time>2018-10-17T09:14:44Z</time>
      </trkpt>
      <trkpt lat="45.84354" lon="6.44191">
        <ele>2268</ele>
        <time>2018-10-17T09:14:45Z</time>
      </trkpt>
      <trkpt lat="45.84354" lon="6.44191">
        <ele>2268</ele>
        <time>2018-10-17T09:14:46Z</time>
      </trkpt>
      <trkpt lat="45.84354" lon="6.44194">
        <ele>2268</ele>
        <time>2018-10-17T09:14:47Z</time>
      </trkpt>
      <trkpt lat="45.84354" lon="6.44194">
        <ele>2268</ele>
        <time>2018-10-17T09:14:48Z</time>
      </trkpt>
      <trkpt lat="45.84354" lon="6.44194">
        <ele>2268</ele>
        <time>2018-10-17T09:14:49Z</time>
      </trkpt>
      <trkpt lat="45.84354" lon="6.44194">
        <ele>2268</ele>
        <time>2018-10-17T09:14:50Z</time>
      </trkpt>
      <trkpt lat="45.84354" lon="6.44197">
        <ele>2268</ele>
        <time>2018-10-17T09:14:51Z</time>
      </trkpt>
      <trkpt lat="45.84354" lon="6.44197">
        <ele>2268</ele>
        <time>2018-10-17T09:14:52Z</time>
      </trkpt>
      <trkpt lat="45.84354" lon="6.44197">
        <ele>2268</ele>
        <time>2018-10-17T09:14:53Z</time>
      </trkpt>
      <trkpt lat="45.84354" lon="6.44197">
        <ele>2268</ele>
        <time>2018-10-17T09:14:54Z</time>
      </trkpt>
      <trkpt lat="45.84354" lon="6.44197">
        <ele>2268</ele>
        <time>2018-10-17T09:14:55Z</time>
      </trkpt>
      <trkpt lat="45.84354" lon="6.442">
        <ele>2268</ele>
        <time>2018-10-17T09:14:56Z</time>
      </trkpt>
      <trkpt lat="45.84354" lon="6.442">
        <ele>2267</ele>
        <time>2018-10-17T09:14:57Z</time>
      </trkpt>
      <trkpt lat="45.84353" lon="6.44203">
        <ele>2267</ele>
        <time>2018-10-17T09:14:58Z</time>
      </trkpt>
      <trkpt lat="45.84353" lon="6.44203">
        <ele>2267</ele>
        <time>2018-10-17T09:14:59Z</time>
      </trkpt>
      <trkpt lat="45.84353" lon="6.44203">
        <ele>2266</ele>
        <time>2018-10-17T09:15:00Z</time>
      </trkpt>
      <trkpt lat="45.84352" lon="6.44206">
        <ele>2266</ele>
        <time>2018-10-17T09:15:01Z</time>
      </trkpt>
      <trkpt lat="45.84352" lon="6.44206">
        <ele>2266</ele>
        <time>2018-10-17T09:15:02Z</time>
      </trkpt>
      <trkpt lat="45.84352" lon="6.44206">
        <ele>2266</ele>
        <time>2018-10-17T09:15:03Z</time>
      </trkpt>
      <trkpt lat="45.84351" lon="6.4421">
        <ele>2266</ele>
        <time>2018-10-17T09:15:04Z</time>
      </trkpt>
      <trkpt lat="45.84351" lon="6.4421">
        <ele>2266</ele>
        <time>2018-10-17T09:15:05Z</time>
      </trkpt>
      <trkpt lat="45.8435" lon="6.44212">
        <ele>2266</ele>
        <time>2018-10-17T09:15:06Z</time>
      </trkpt>
      <trkpt lat="45.8435" lon="6.44212">
        <ele>2266</ele>
        <time>2018-10-17T09:15:07Z</time>
      </trkpt>
      <trkpt lat="45.8435" lon="6.44212">
        <ele>2266</ele>
        <time>2018-10-17T09:15:08Z</time>
      </trkpt>
      <trkpt lat="45.8435" lon="6.44215">
        <ele>2266</ele>
        <time>2018-10-17T09:15:09Z</time>
      </trkpt>
      <trkpt lat="45.8435" lon="6.44215">
        <ele>2266</ele>
        <time>2018-10-17T09:15:10Z</time>
      </trkpt>
      <trkpt lat="45.84349" lon="6.44217">
        <ele>2266</ele>
        <time>2018-10-17T09:15:11Z</time>
      </trkpt>
      <trkpt lat="45.84349" lon="6.44217">
        <ele>2266</ele>
        <time>2018-10-17T09:15:12Z</time>
      </trkpt>
      <trkpt lat="45.84349" lon="6.44217">
        <ele>2266</ele>
        <time>2018-10-17T09:15:13Z</time>
      </trkpt>
      <trkpt lat="45.84348" lon="6.4422">
        <ele>2266</ele>
        <time>2018-10-17T09:15:14Z</time>
      </trkpt>
      <trkpt lat="45.84348" lon="6.4422">
        <ele>2266</ele>
        <time>2018-10-17T09:15:15Z</time>
      </trkpt>
      <trkpt lat="45.84348" lon="6.4422">
        <ele>2266</ele>
        <time>2018-10-17T09:15:16Z</time>
      </trkpt>
      <trkpt lat="45.84348" lon="6.4422">
        <ele>2266</ele>
        <time>2018-10-17T09:15:17Z</time>
      </trkpt>
      <trkpt lat="45.84347" lon="6.44223">
        <ele>2266</ele>
        <time>2018-10-17T09:15:18Z</time>
      </trkpt>
      <trkpt lat="45.84347" lon="6.44223">
        <ele>2266</ele>
        <time>2018-10-17T09:15:19Z</time>
      </trkpt>
      <trkpt lat="45.84347" lon="6.44226">
        <ele>2266</ele>
        <time>2018-10-17T09:15:20Z</time>
      </trkpt>
      <trkpt lat="45.84347" lon="6.44226">
        <ele>2266</ele>
        <time>2018-10-17T09:15:21Z</time>
      </trkpt>
      <trkpt lat="45.84346" lon="6.44229">
        <ele>2265</ele>
        <time>2018-10-17T09:15:22Z</time>
      </trkpt>
      <trkpt lat="45.84346" lon="6.44229">
        <ele>2265</ele>
        <time>2018-10-17T09:15:23Z</time>
      </trkpt>
      <trkpt lat="45.84346" lon="6.44229">
        <ele>2265</ele>
        <time>2018-10-17T09:15:24Z</time>
      </trkpt>
      <trkpt lat="45.84345" lon="6.44232">
        <ele>2265</ele>
        <time>2018-10-17T09:15:25Z</time>
      </trkpt>
      <trkpt lat="45.84345" lon="6.44232">
        <ele>2265</ele>
        <time>2018-10-17T09:15:26Z</time>
      </trkpt>
      <trkpt lat="45.84343" lon="6.44234">
        <ele>2265</ele>
        <time>2018-10-17T09:15:27Z</time>
      </trkpt>
      <trkpt lat="45.84343" lon="6.44234">
        <ele>2264</ele>
        <time>2018-10-17T09:15:28Z</time>
      </trkpt>
      <trkpt lat="45.84343" lon="6.44234">
        <ele>2264</ele>
        <time>2018-10-17T09:15:29Z</time>
      </trkpt>
      <trkpt lat="45.84343" lon="6.44234">
        <ele>2263</ele>
        <time>2018-10-17T09:15:30Z</time>
      </trkpt>
      <trkpt lat="45.84343" lon="6.44234">
        <ele>2263</ele>
        <time>2018-10-17T09:15:31Z</time>
      </trkpt>
      <trkpt lat="45.84343" lon="6.44234">
        <ele>2263</ele>
        <time>2018-10-17T09:15:32Z</time>
      </trkpt>
      <trkpt lat="45.84343" lon="6.44234">
        <ele>2263</ele>
        <time>2018-10-17T09:15:33Z</time>
      </trkpt>
      <trkpt lat="45.84343" lon="6.44234">
        <ele>2263</ele>
        <time>2018-10-17T09:15:34Z</time>
      </trkpt>
      <trkpt lat="45.84343" lon="6.44234">
        <ele>2263</ele>
        <time>2018-10-17T09:15:35Z</time>
      </trkpt>
      <trkpt lat="45.84343" lon="6.44234">
        <ele>2263</ele>
        <time>2018-10-17T09:15:36Z</time>
      </trkpt>
      <trkpt lat="45.84343" lon="6.44234">
        <ele>2263</ele>
        <time>2018-10-17T09:15:37Z</time>
      </trkpt>
      <trkpt lat="45.84343" lon="6.44234">
        <ele>2263</ele>
        <time>2018-10-17T09:15:38Z</time>
      </trkpt>
      <trkpt lat="45.84343" lon="6.44234">
        <ele>2263</ele>
        <time>2018-10-17T09:15:39Z</time>
      </trkpt>
      <trkpt lat="45.84343" lon="6.44234">
        <ele>2263</ele>
        <time>2018-10-17T09:15:40Z</time>
      </trkpt>
      <trkpt lat="45.84343" lon="6.44234">
        <ele>2263</ele>
        <time>2018-10-17T09:15:41Z</time>
      </trkpt>
      <trkpt lat="45.84343" lon="6.44234">
        <ele>2263</ele>
        <time>2018-10-17T09:15:42Z</time>
      </trkpt>
      <trkpt lat="45.84343" lon="6.44234">
        <ele>2263</ele>
        <time>2018-10-17T09:15:43Z</time>
      </trkpt>
      <trkpt lat="45.84343" lon="6.44234">
        <ele>2263</ele>
        <time>2018-10-17T09:15:44Z</time>
      </trkpt>
      <trkpt lat="45.84343" lon="6.44234">
        <ele>2263</ele>
        <time>2018-10-17T09:15:45Z</time>
      </trkpt>
      <trkpt lat="45.84343" lon="6.44234">
        <ele>2263</ele>
        <time>2018-10-17T09:15:46Z</time>
      </trkpt>
      <trkpt lat="45.84343" lon="6.44234">
        <ele>2263</ele>
        <time>2018-10-17T09:15:47Z</time>
      </trkpt>
      <trkpt lat="45.84343" lon="6.44234">
        <ele>2263</ele>
        <time>2018-10-17T09:15:48Z</time>
      </trkpt>
      <trkpt lat="45.84343" lon="6.44234">
        <ele>2263</ele>
        <time>2018-10-17T09:15:49Z</time>
      </trkpt>
      <trkpt lat="45.84343" lon="6.44234">
        <ele>2263</ele>
        <time>2018-10-17T09:15:50Z</time>
      </trkpt>
      <trkpt lat="45.84343" lon="6.44234">
        <ele>2263</ele>
        <time>2018-10-17T09:15:51Z</time>
      </trkpt>
      <trkpt lat="45.84343" lon="6.44234">
        <ele>2263</ele>
        <time>2018-10-17T09:15:52Z</time>
      </trkpt>
      <trkpt lat="45.84343" lon="6.44234">
        <ele>2263</ele>
        <time>2018-10-17T09:15:53Z</time>
      </trkpt>
      <trkpt lat="45.84343" lon="6.44234">
        <ele>2263</ele>
        <time>2018-10-17T09:15:54Z</time>
      </trkpt>
      <trkpt lat="45.84343" lon="6.44234">
        <ele>2263</ele>
        <time>2018-10-17T09:15:55Z</time>
      </trkpt>
      <trkpt lat="45.84343" lon="6.44234">
        <ele>2263</ele>
        <time>2018-10-17T09:15:56Z</time>
      </trkpt>
      <trkpt lat="45.84343" lon="6.44234">
        <ele>2263</ele>
        <time>2018-10-17T09:15:57Z</time>
      </trkpt>
      <trkpt lat="45.84343" lon="6.44234">
        <ele>2263</ele>
        <time>2018-10-17T09:15:58Z</time>
      </trkpt>
      <trkpt lat="45.84343" lon="6.44234">
        <ele>2263</ele>
        <time>2018-10-17T09:15:59Z</time>
      </trkpt>
      <trkpt lat="45.84343" lon="6.44234">
        <ele>2263</ele>
        <time>2018-10-17T09:16:00Z</time>
      </trkpt>
      <trkpt lat="45.84343" lon="6.44234">
        <ele>2263</ele>
        <time>2018-10-17T09:16:01Z</time>
      </trkpt>
      <trkpt lat="45.84343" lon="6.44234">
        <ele>2263</ele>
        <time>2018-10-17T09:16:02Z</time>
      </trkpt>
      <trkpt lat="45.84342" lon="6.44235">
        <ele>2263</ele>
        <time>2018-10-17T09:16:03Z</time>
      </trkpt>
      <trkpt lat="45.84342" lon="6.44235">
        <ele>2263</ele>
        <time>2018-10-17T09:16:04Z</time>
      </trkpt>
      <trkpt lat="45.84342" lon="6.44235">
        <ele>2262</ele>
        <time>2018-10-17T09:16:05Z</time>
      </trkpt>
      <trkpt lat="45.84342" lon="6.44235">
        <ele>2263</ele>
        <time>2018-10-17T09:16:06Z</time>
      </trkpt>
      <trkpt lat="45.84341" lon="6.44238">
        <ele>2263</ele>
        <time>2018-10-17T09:16:07Z</time>
      </trkpt>
      <trkpt lat="45.84341" lon="6.44238">
        <ele>2262</ele>
        <time>2018-10-17T09:16:08Z</time>
      </trkpt>
      <trkpt lat="45.84341" lon="6.44238">
        <ele>2262</ele>
        <time>2018-10-17T09:16:09Z</time>
      </trkpt>
      <trkpt lat="45.84341" lon="6.44238">
        <ele>2262</ele>
        <time>2018-10-17T09:16:10Z</time>
      </trkpt>
      <trkpt lat="45.84341" lon="6.44238">
        <ele>2262</ele>
        <time>2018-10-17T09:16:11Z</time>
      </trkpt>
      <trkpt lat="45.84341" lon="6.44238">
        <ele>2262</ele>
        <time>2018-10-17T09:16:12Z</time>
      </trkpt>
      <trkpt lat="45.84341" lon="6.4424">
        <ele>2262</ele>
        <time>2018-10-17T09:16:13Z</time>
      </trkpt>
      <trkpt lat="45.84341" lon="6.4424">
        <ele>2262</ele>
        <time>2018-10-17T09:16:14Z</time>
      </trkpt>
      <trkpt lat="45.84341" lon="6.4424">
        <ele>2262</ele>
        <time>2018-10-17T09:16:15Z</time>
      </trkpt>
      <trkpt lat="45.84341" lon="6.4424">
        <ele>2262</ele>
        <time>2018-10-17T09:16:16Z</time>
      </trkpt>
      <trkpt lat="45.84341" lon="6.4424">
        <ele>2262</ele>
        <time>2018-10-17T09:16:17Z</time>
      </trkpt>
      <trkpt lat="45.84341" lon="6.4424">
        <ele>2262</ele>
        <time>2018-10-17T09:16:18Z</time>
      </trkpt>
      <trkpt lat="45.84341" lon="6.4424">
        <ele>2262</ele>
        <time>2018-10-17T09:16:19Z</time>
      </trkpt>
      <trkpt lat="45.84341" lon="6.44243">
        <ele>2262</ele>
        <time>2018-10-17T09:16:20Z</time>
      </trkpt>
      <trkpt lat="45.84341" lon="6.44243">
        <ele>2262</ele>
        <time>2018-10-17T09:16:21Z</time>
      </trkpt>
      <trkpt lat="45.84341" lon="6.44243">
        <ele>2262</ele>
        <time>2018-10-17T09:16:22Z</time>
      </trkpt>
      <trkpt lat="45.84341" lon="6.44243">
        <ele>2262</ele>
        <time>2018-10-17T09:16:23Z</time>
      </trkpt>
      <trkpt lat="45.84341" lon="6.44243">
        <ele>2262</ele>
        <time>2018-10-17T09:16:24Z</time>
      </trkpt>
      <trkpt lat="45.84341" lon="6.44243">
        <ele>2261</ele>
        <time>2018-10-17T09:16:25Z</time>
      </trkpt>
      <trkpt lat="45.84341" lon="6.44245">
        <ele>2261</ele>
        <time>2018-10-17T09:16:26Z</time>
      </trkpt>
      <trkpt lat="45.84341" lon="6.44245">
        <ele>2261</ele>
        <time>2018-10-17T09:16:27Z</time>
      </trkpt>
      <trkpt lat="45.84341" lon="6.44245">
        <ele>2261</ele>
        <time>2018-10-17T09:16:28Z</time>
      </trkpt>
      <trkpt lat="45.84341" lon="6.44245">
        <ele>2261</ele>
        <time>2018-10-17T09:16:29Z</time>
      </trkpt>
      <trkpt lat="45.84341" lon="6.44245">
        <ele>2261</ele>
        <time>2018-10-17T09:16:30Z</time>
      </trkpt>
      <trkpt lat="45.84341" lon="6.44245">
        <ele>2262</ele>
        <time>2018-10-17T09:16:31Z</time>
      </trkpt>
      <trkpt lat="45.84341" lon="6.44245">
        <ele>2262</ele>
        <time>2018-10-17T09:16:32Z</time>
      </trkpt>
      <trkpt lat="45.84341" lon="6.44245">
        <ele>2262</ele>
        <time>2018-10-17T09:16:33Z</time>
      </trkpt>
      <trkpt lat="45.84341" lon="6.44245">
        <ele>2262</ele>
        <time>2018-10-17T09:16:34Z</time>
      </trkpt>
      <trkpt lat="45.84341" lon="6.44245">
        <ele>2261</ele>
        <time>2018-10-17T09:16:35Z</time>
      </trkpt>
      <trkpt lat="45.84341" lon="6.44245">
        <ele>2261</ele>
        <time>2018-10-17T09:16:36Z</time>
      </trkpt>
      <trkpt lat="45.84341" lon="6.44245">
        <ele>2261</ele>
        <time>2018-10-17T09:16:37Z</time>
      </trkpt>
      <trkpt lat="45.84341" lon="6.44245">
        <ele>2261</ele>
        <time>2018-10-17T09:16:38Z</time>
      </trkpt>
      <trkpt lat="45.84341" lon="6.44248">
        <ele>2261</ele>
        <time>2018-10-17T09:16:39Z</time>
      </trkpt>
      <trkpt lat="45.84341" lon="6.44248">
        <ele>2261</ele>
        <time>2018-10-17T09:16:40Z</time>
      </trkpt>
      <trkpt lat="45.84341" lon="6.44248">
        <ele>2261</ele>
        <time>2018-10-17T09:16:41Z</time>
      </trkpt>
      <trkpt lat="45.84341" lon="6.44248">
        <ele>2261</ele>
        <time>2018-10-17T09:16:42Z</time>
      </trkpt>
      <trkpt lat="45.84341" lon="6.44248">
        <ele>2261</ele>
        <time>2018-10-17T09:16:43Z</time>
      </trkpt>
      <trkpt lat="45.84341" lon="6.44248">
        <ele>2261</ele>
        <time>2018-10-17T09:16:44Z</time>
      </trkpt>
      <trkpt lat="45.8434" lon="6.44251">
        <ele>2261</ele>
        <time>2018-10-17T09:16:45Z</time>
      </trkpt>
      <trkpt lat="45.8434" lon="6.44251">
        <ele>2261</ele>
        <time>2018-10-17T09:16:46Z</time>
      </trkpt>
      <trkpt lat="45.8434" lon="6.44251">
        <ele>2261</ele>
        <time>2018-10-17T09:16:47Z</time>
      </trkpt>
      <trkpt lat="45.8434" lon="6.44254">
        <ele>2261</ele>
        <time>2018-10-17T09:16:48Z</time>
      </trkpt>
      <trkpt lat="45.8434" lon="6.44254">
        <ele>2261</ele>
        <time>2018-10-17T09:16:49Z</time>
      </trkpt>
      <trkpt lat="45.8434" lon="6.44254">
        <ele>2260</ele>
        <time>2018-10-17T09:16:50Z</time>
      </trkpt>
      <trkpt lat="45.8434" lon="6.44254">
        <ele>2260</ele>
        <time>2018-10-17T09:16:51Z</time>
      </trkpt>
      <trkpt lat="45.84339" lon="6.44257">
        <ele>2260</ele>
        <time>2018-10-17T09:16:52Z</time>
      </trkpt>
      <trkpt lat="45.84339" lon="6.44257">
        <ele>2260</ele>
        <time>2018-10-17T09:16:53Z</time>
      </trkpt>
      <trkpt lat="45.84339" lon="6.44257">
        <ele>2260</ele>
        <time>2018-10-17T09:16:54Z</time>
      </trkpt>
      <trkpt lat="45.84339" lon="6.44259">
        <ele>2260</ele>
        <time>2018-10-17T09:16:55Z</time>
      </trkpt>
      <trkpt lat="45.84339" lon="6.44259">
        <ele>2260</ele>
        <time>2018-10-17T09:16:56Z</time>
      </trkpt>
      <trkpt lat="45.84339" lon="6.44259">
        <ele>2260</ele>
        <time>2018-10-17T09:16:57Z</time>
      </trkpt>
      <trkpt lat="45.84339" lon="6.44259">
        <ele>2260</ele>
        <time>2018-10-17T09:16:58Z</time>
      </trkpt>
      <trkpt lat="45.84339" lon="6.44259">
        <ele>2260</ele>
        <time>2018-10-17T09:16:59Z</time>
      </trkpt>
      <trkpt lat="45.84338" lon="6.44263">
        <ele>2260</ele>
        <time>2018-10-17T09:17:00Z</time>
      </trkpt>
      <trkpt lat="45.84338" lon="6.44263">
        <ele>2260</ele>
        <time>2018-10-17T09:17:01Z</time>
      </trkpt>
      <trkpt lat="45.84338" lon="6.44263">
        <ele>2260</ele>
        <time>2018-10-17T09:17:02Z</time>
      </trkpt>
      <trkpt lat="45.84337" lon="6.44266">
        <ele>2260</ele>
        <time>2018-10-17T09:17:03Z</time>
      </trkpt>
      <trkpt lat="45.84337" lon="6.44266">
        <ele>2260</ele>
        <time>2018-10-17T09:17:04Z</time>
      </trkpt>
      <trkpt lat="45.84336" lon="6.44269">
        <ele>2260</ele>
        <time>2018-10-17T09:17:05Z</time>
      </trkpt>
      <trkpt lat="45.84336" lon="6.44269">
        <ele>2260</ele>
        <time>2018-10-17T09:17:06Z</time>
      </trkpt>
      <trkpt lat="45.84335" lon="6.44272">
        <ele>2260</ele>
        <time>2018-10-17T09:17:07Z</time>
      </trkpt>
      <trkpt lat="45.84335" lon="6.44272">
        <ele>2260</ele>
        <time>2018-10-17T09:17:08Z</time>
      </trkpt>
      <trkpt lat="45.84335" lon="6.44272">
        <ele>2260</ele>
        <time>2018-10-17T09:17:09Z</time>
      </trkpt>
      <trkpt lat="45.84334" lon="6.44274">
        <ele>2260</ele>
        <time>2018-10-17T09:17:10Z</time>
      </trkpt>
      <trkpt lat="45.84334" lon="6.44274">
        <ele>2260</ele>
        <time>2018-10-17T09:17:11Z</time>
      </trkpt>
      <trkpt lat="45.84334" lon="6.44274">
        <ele>2260</ele>
        <time>2018-10-17T09:17:12Z</time>
      </trkpt>
      <trkpt lat="45.84334" lon="6.44274">
        <ele>2260</ele>
        <time>2018-10-17T09:17:13Z</time>
      </trkpt>
      <trkpt lat="45.84333" lon="6.44277">
        <ele>2260</ele>
        <time>2018-10-17T09:17:14Z</time>
      </trkpt>
      <trkpt lat="45.84333" lon="6.44277">
        <ele>2259</ele>
        <time>2018-10-17T09:17:15Z</time>
      </trkpt>
      <trkpt lat="45.84332" lon="6.44279">
        <ele>2259</ele>
        <time>2018-10-17T09:17:16Z</time>
      </trkpt>
      <trkpt lat="45.84332" lon="6.44279">
        <ele>2258</ele>
        <time>2018-10-17T09:17:17Z</time>
      </trkpt>
      <trkpt lat="45.84332" lon="6.44279">
        <ele>2258</ele>
        <time>2018-10-17T09:17:18Z</time>
      </trkpt>
      <trkpt lat="45.84332" lon="6.44279">
        <ele>2258</ele>
        <time>2018-10-17T09:17:19Z</time>
      </trkpt>
      <trkpt lat="45.84332" lon="6.44279">
        <ele>2257</ele>
        <time>2018-10-17T09:17:20Z</time>
      </trkpt>
      <trkpt lat="45.84332" lon="6.44279">
        <ele>2256</ele>
        <time>2018-10-17T09:17:21Z</time>
      </trkpt>
      <trkpt lat="45.84332" lon="6.44279">
        <ele>2256</ele>
        <time>2018-10-17T09:17:22Z</time>
      </trkpt>
      <trkpt lat="45.84332" lon="6.44279">
        <ele>2256</ele>
        <time>2018-10-17T09:17:23Z</time>
      </trkpt>
      <trkpt lat="45.84332" lon="6.44279">
        <ele>2256</ele>
        <time>2018-10-17T09:17:24Z</time>
      </trkpt>
      <trkpt lat="45.84332" lon="6.44279">
        <ele>2256</ele>
        <time>2018-10-17T09:17:25Z</time>
      </trkpt>
      <trkpt lat="45.84331" lon="6.44281">
        <ele>2256</ele>
        <time>2018-10-17T09:17:26Z</time>
      </trkpt>
      <trkpt lat="45.84331" lon="6.44281">
        <ele>2256</ele>
        <time>2018-10-17T09:17:27Z</time>
      </trkpt>
      <trkpt lat="45.84331" lon="6.44281">
        <ele>2256</ele>
        <time>2018-10-17T09:17:28Z</time>
      </trkpt>
      <trkpt lat="45.84331" lon="6.44281">
        <ele>2256</ele>
        <time>2018-10-17T09:17:29Z</time>
      </trkpt>
      <trkpt lat="45.84329" lon="6.44283">
        <ele>2255</ele>
        <time>2018-10-17T09:17:30Z</time>
      </trkpt>
      <trkpt lat="45.84329" lon="6.44283">
        <ele>2255</ele>
        <time>2018-10-17T09:17:31Z</time>
      </trkpt>
      <trkpt lat="45.84329" lon="6.44283">
        <ele>2255</ele>
        <time>2018-10-17T09:17:32Z</time>
      </trkpt>
      <trkpt lat="45.84329" lon="6.44283">
        <ele>2255</ele>
        <time>2018-10-17T09:17:33Z</time>
      </trkpt>
      <trkpt lat="45.84329" lon="6.44283">
        <ele>2255</ele>
        <time>2018-10-17T09:17:34Z</time>
      </trkpt>
      <trkpt lat="45.84329" lon="6.44283">
        <ele>2255</ele>
        <time>2018-10-17T09:17:35Z</time>
      </trkpt>
      <trkpt lat="45.84329" lon="6.44283">
        <ele>2255</ele>
        <time>2018-10-17T09:17:36Z</time>
      </trkpt>
      <trkpt lat="45.84329" lon="6.44283">
        <ele>2254</ele>
        <time>2018-10-17T09:17:37Z</time>
      </trkpt>
      <trkpt lat="45.84329" lon="6.44283">
        <ele>2254</ele>
        <time>2018-10-17T09:17:38Z</time>
      </trkpt>
      <trkpt lat="45.84329" lon="6.44283">
        <ele>2254</ele>
        <time>2018-10-17T09:17:39Z</time>
      </trkpt>
      <trkpt lat="45.84329" lon="6.44283">
        <ele>2254</ele>
        <time>2018-10-17T09:17:40Z</time>
      </trkpt>
      <trkpt lat="45.84329" lon="6.44283">
        <ele>2254</ele>
        <time>2018-10-17T09:17:41Z</time>
      </trkpt>
      <trkpt lat="45.84329" lon="6.44283">
        <ele>2254</ele>
        <time>2018-10-17T09:17:42Z</time>
      </trkpt>
      <trkpt lat="45.84327" lon="6.44283">
        <ele>2254</ele>
        <time>2018-10-17T09:17:43Z</time>
      </trkpt>
      <trkpt lat="45.84327" lon="6.44283">
        <ele>2253</ele>
        <time>2018-10-17T09:17:44Z</time>
      </trkpt>
      <trkpt lat="45.84327" lon="6.44283">
        <ele>2253</ele>
        <time>2018-10-17T09:17:45Z</time>
      </trkpt>
      <trkpt lat="45.84327" lon="6.44283">
        <ele>2253</ele>
        <time>2018-10-17T09:17:46Z</time>
      </trkpt>
      <trkpt lat="45.84327" lon="6.44283">
        <ele>2253</ele>
        <time>2018-10-17T09:17:47Z</time>
      </trkpt>
      <trkpt lat="45.84326" lon="6.44281">
        <ele>2253</ele>
        <time>2018-10-17T09:17:48Z</time>
      </trkpt>
      <trkpt lat="45.84326" lon="6.44281">
        <ele>2253</ele>
        <time>2018-10-17T09:17:49Z</time>
      </trkpt>
      <trkpt lat="45.84324" lon="6.44279">
        <ele>2252</ele>
        <time>2018-10-17T09:17:50Z</time>
      </trkpt>
      <trkpt lat="45.84324" lon="6.44279">
        <ele>2252</ele>
        <time>2018-10-17T09:17:51Z</time>
      </trkpt>
      <trkpt lat="45.84324" lon="6.44279">
        <ele>2252</ele>
        <time>2018-10-17T09:17:52Z</time>
      </trkpt>
      <trkpt lat="45.84324" lon="6.44279">
        <ele>2252</ele>
        <time>2018-10-17T09:17:53Z</time>
      </trkpt>
      <trkpt lat="45.84324" lon="6.44279">
        <ele>2251</ele>
        <time>2018-10-17T09:17:54Z</time>
      </trkpt>
      <trkpt lat="45.84324" lon="6.44279">
        <ele>2251</ele>
        <time>2018-10-17T09:17:55Z</time>
      </trkpt>
      <trkpt lat="45.84324" lon="6.44279">
        <ele>2251</ele>
        <time>2018-10-17T09:17:56Z</time>
      </trkpt>
      <trkpt lat="45.84324" lon="6.44279">
        <ele>2251</ele>
        <time>2018-10-17T09:17:57Z</time>
      </trkpt>
      <trkpt lat="45.84324" lon="6.44279">
        <ele>2251</ele>
        <time>2018-10-17T09:17:58Z</time>
      </trkpt>
      <trkpt lat="45.84324" lon="6.44279">
        <ele>2251</ele>
        <time>2018-10-17T09:17:59Z</time>
      </trkpt>
      <trkpt lat="45.84324" lon="6.44279">
        <ele>2251</ele>
        <time>2018-10-17T09:18:00Z</time>
      </trkpt>
      <trkpt lat="45.84324" lon="6.44282">
        <ele>2251</ele>
        <time>2018-10-17T09:18:01Z</time>
      </trkpt>
      <trkpt lat="45.84324" lon="6.44282">
        <ele>2251</ele>
        <time>2018-10-17T09:18:02Z</time>
      </trkpt>
      <trkpt lat="45.84324" lon="6.44282">
        <ele>2251</ele>
        <time>2018-10-17T09:18:03Z</time>
      </trkpt>
      <trkpt lat="45.84325" lon="6.44285">
        <ele>2251</ele>
        <time>2018-10-17T09:18:04Z</time>
      </trkpt>
      <trkpt lat="45.84325" lon="6.44285">
        <ele>2251</ele>
        <time>2018-10-17T09:18:05Z</time>
      </trkpt>
      <trkpt lat="45.84325" lon="6.44285">
        <ele>2251</ele>
        <time>2018-10-17T09:18:06Z</time>
      </trkpt>
      <trkpt lat="45.84325" lon="6.44285">
        <ele>2250</ele>
        <time>2018-10-17T09:18:07Z</time>
      </trkpt>
      <trkpt lat="45.84325" lon="6.44285">
        <ele>2250</ele>
        <time>2018-10-17T09:18:08Z</time>
      </trkpt>
      <trkpt lat="45.84325" lon="6.44285">
        <ele>2250</ele>
        <time>2018-10-17T09:18:09Z</time>
      </trkpt>
      <trkpt lat="45.84326" lon="6.44288">
        <ele>2250</ele>
        <time>2018-10-17T09:18:10Z</time>
      </trkpt>
      <trkpt lat="45.84326" lon="6.44288">
        <ele>2250</ele>
        <time>2018-10-17T09:18:11Z</time>
      </trkpt>
      <trkpt lat="45.84326" lon="6.44288">
        <ele>2250</ele>
        <time>2018-10-17T09:18:12Z</time>
      </trkpt>
      <trkpt lat="45.84326" lon="6.44288">
        <ele>2250</ele>
        <time>2018-10-17T09:18:13Z</time>
      </trkpt>
      <trkpt lat="45.84326" lon="6.44288">
        <ele>2250</ele>
        <time>2018-10-17T09:18:14Z</time>
      </trkpt>
      <trkpt lat="45.84326" lon="6.44288">
        <ele>2250</ele>
        <time>2018-10-17T09:18:15Z</time>
      </trkpt>
      <trkpt lat="45.84328" lon="6.4429">
        <ele>2250</ele>
        <time>2018-10-17T09:18:16Z</time>
      </trkpt>
      <trkpt lat="45.84328" lon="6.4429">
        <ele>2250</ele>
        <time>2018-10-17T09:18:17Z</time>
      </trkpt>
      <trkpt lat="45.84328" lon="6.4429">
        <ele>2250</ele>
        <time>2018-10-17T09:18:18Z</time>
      </trkpt>
      <trkpt lat="45.84328" lon="6.4429">
        <ele>2250</ele>
        <time>2018-10-17T09:18:19Z</time>
      </trkpt>
      <trkpt lat="45.84328" lon="6.4429">
        <ele>2250</ele>
        <time>2018-10-17T09:18:20Z</time>
      </trkpt>
      <trkpt lat="45.84328" lon="6.4429">
        <ele>2250</ele>
        <time>2018-10-17T09:18:21Z</time>
      </trkpt>
      <trkpt lat="45.84328" lon="6.4429">
        <ele>2250</ele>
        <time>2018-10-17T09:18:22Z</time>
      </trkpt>
      <trkpt lat="45.84328" lon="6.4429">
        <ele>2250</ele>
        <time>2018-10-17T09:18:23Z</time>
      </trkpt>
      <trkpt lat="45.84326" lon="6.44294">
        <ele>2250</ele>
        <time>2018-10-17T09:18:24Z</time>
      </trkpt>
      <trkpt lat="45.84326" lon="6.44294">
        <ele>2250</ele>
        <time>2018-10-17T09:18:25Z</time>
      </trkpt>
      <trkpt lat="45.84326" lon="6.44294">
        <ele>2250</ele>
        <time>2018-10-17T09:18:26Z</time>
      </trkpt>
      <trkpt lat="45.84326" lon="6.44294">
        <ele>2249</ele>
        <time>2018-10-17T09:18:27Z</time>
      </trkpt>
      <trkpt lat="45.84327" lon="6.44296">
        <ele>2249</ele>
        <time>2018-10-17T09:18:28Z</time>
      </trkpt>
      <trkpt lat="45.84327" lon="6.44296">
        <ele>2249</ele>
        <time>2018-10-17T09:18:29Z</time>
      </trkpt>
      <trkpt lat="45.84326" lon="6.44301">
        <ele>2248</ele>
        <time>2018-10-17T09:18:30Z</time>
      </trkpt>
      <trkpt lat="45.84324" lon="6.44305">
        <ele>2248</ele>
        <time>2018-10-17T09:18:31Z</time>
      </trkpt>
      <trkpt lat="45.84323" lon="6.44307">
        <ele>2248</ele>
        <time>2018-10-17T09:18:32Z</time>
      </trkpt>
      <trkpt lat="45.84322" lon="6.44308">
        <ele>2248</ele>
        <time>2018-10-17T09:18:33Z</time>
      </trkpt>
      <trkpt lat="45.84322" lon="6.44308">
        <ele>2248</ele>
        <time>2018-10-17T09:18:34Z</time>
      </trkpt>
      <trkpt lat="45.8432" lon="6.4431">
        <ele>2247</ele>
        <time>2018-10-17T09:18:35Z</time>
      </trkpt>
      <trkpt lat="45.8432" lon="6.4431">
        <ele>2246</ele>
        <time>2018-10-17T09:18:36Z</time>
      </trkpt>
      <trkpt lat="45.84318" lon="6.44312">
        <ele>2246</ele>
        <time>2018-10-17T09:18:37Z</time>
      </trkpt>
      <trkpt lat="45.84318" lon="6.44312">
        <ele>2246</ele>
        <time>2018-10-17T09:18:38Z</time>
      </trkpt>
      <trkpt lat="45.84315" lon="6.44314">
        <ele>2245</ele>
        <time>2018-10-17T09:18:39Z</time>
      </trkpt>
      <trkpt lat="45.84315" lon="6.44314">
        <ele>2245</ele>
        <time>2018-10-17T09:18:40Z</time>
      </trkpt>
      <trkpt lat="45.84315" lon="6.44314">
        <ele>2244</ele>
        <time>2018-10-17T09:18:41Z</time>
      </trkpt>
      <trkpt lat="45.84315" lon="6.44314">
        <ele>2244</ele>
        <time>2018-10-17T09:18:42Z</time>
      </trkpt>
      <trkpt lat="45.84315" lon="6.44314">
        <ele>2244</ele>
        <time>2018-10-17T09:18:43Z</time>
      </trkpt>
      <trkpt lat="45.84315" lon="6.44314">
        <ele>2244</ele>
        <time>2018-10-17T09:18:44Z</time>
      </trkpt>
      <trkpt lat="45.84315" lon="6.44314">
        <ele>2244</ele>
        <time>2018-10-17T09:18:45Z</time>
      </trkpt>
      <trkpt lat="45.84315" lon="6.44314">
        <ele>2244</ele>
        <time>2018-10-17T09:18:46Z</time>
      </trkpt>
      <trkpt lat="45.84315" lon="6.44314">
        <ele>2244</ele>
        <time>2018-10-17T09:18:47Z</time>
      </trkpt>
      <trkpt lat="45.84315" lon="6.44314">
        <ele>2244</ele>
        <time>2018-10-17T09:18:48Z</time>
      </trkpt>
      <trkpt lat="45.84315" lon="6.44314">
        <ele>2244</ele>
        <time>2018-10-17T09:18:49Z</time>
      </trkpt>
      <trkpt lat="45.84315" lon="6.44314">
        <ele>2244</ele>
        <time>2018-10-17T09:18:50Z</time>
      </trkpt>
      <trkpt lat="45.84315" lon="6.44314">
        <ele>2244</ele>
        <time>2018-10-17T09:18:51Z</time>
      </trkpt>
      <trkpt lat="45.84315" lon="6.44314">
        <ele>2244</ele>
        <time>2018-10-17T09:18:52Z</time>
      </trkpt>
      <trkpt lat="45.84315" lon="6.44314">
        <ele>2244</ele>
        <time>2018-10-17T09:18:53Z</time>
      </trkpt>
      <trkpt lat="45.84315" lon="6.44314">
        <ele>2244</ele>
        <time>2018-10-17T09:18:54Z</time>
      </trkpt>
      <trkpt lat="45.84315" lon="6.44314">
        <ele>2244</ele>
        <time>2018-10-17T09:18:55Z</time>
      </trkpt>
      <trkpt lat="45.84315" lon="6.44314">
        <ele>2244</ele>
        <time>2018-10-17T09:18:56Z</time>
      </trkpt>
      <trkpt lat="45.84315" lon="6.44314">
        <ele>2244</ele>
        <time>2018-10-17T09:18:57Z</time>
      </trkpt>
      <trkpt lat="45.84315" lon="6.44314">
        <ele>2244</ele>
        <time>2018-10-17T09:18:58Z</time>
      </trkpt>
      <trkpt lat="45.84315" lon="6.44314">
        <ele>2244</ele>
        <time>2018-10-17T09:18:59Z</time>
      </trkpt>
      <trkpt lat="45.84315" lon="6.44314">
        <ele>2244</ele>
        <time>2018-10-17T09:19:00Z</time>
      </trkpt>
      <trkpt lat="45.84315" lon="6.44314">
        <ele>2244</ele>
        <time>2018-10-17T09:19:01Z</time>
      </trkpt>
      <trkpt lat="45.84315" lon="6.44314">
        <ele>2244</ele>
        <time>2018-10-17T09:19:02Z</time>
      </trkpt>
      <trkpt lat="45.84315" lon="6.44314">
        <ele>2244</ele>
        <time>2018-10-17T09:19:03Z</time>
      </trkpt>
      <trkpt lat="45.84315" lon="6.44314">
        <ele>2244</ele>
        <time>2018-10-17T09:19:04Z</time>
      </trkpt>
      <trkpt lat="45.84315" lon="6.44314">
        <ele>2244</ele>
        <time>2018-10-17T09:19:05Z</time>
      </trkpt>
      <trkpt lat="45.84315" lon="6.44314">
        <ele>2244</ele>
        <time>2018-10-17T09:19:06Z</time>
      </trkpt>
      <trkpt lat="45.84315" lon="6.44314">
        <ele>2244</ele>
        <time>2018-10-17T09:19:07Z</time>
      </trkpt>
      <trkpt lat="45.84315" lon="6.44314">
        <ele>2244</ele>
        <time>2018-10-17T09:19:08Z</time>
      </trkpt>
      <trkpt lat="45.84315" lon="6.44314">
        <ele>2244</ele>
        <time>2018-10-17T09:19:09Z</time>
      </trkpt>
      <trkpt lat="45.84315" lon="6.44314">
        <ele>2244</ele>
        <time>2018-10-17T09:19:10Z</time>
      </trkpt>
      <trkpt lat="45.84315" lon="6.44314">
        <ele>2244</ele>
        <time>2018-10-17T09:19:11Z</time>
      </trkpt>
      <trkpt lat="45.84315" lon="6.44314">
        <ele>2244</ele>
        <time>2018-10-17T09:19:12Z</time>
      </trkpt>
      <trkpt lat="45.84313" lon="6.44314">
        <ele>2244</ele>
        <time>2018-10-17T09:19:13Z</time>
      </trkpt>
      <trkpt lat="45.84313" lon="6.44314">
        <ele>2244</ele>
        <time>2018-10-17T09:19:14Z</time>
      </trkpt>
      <trkpt lat="45.84312" lon="6.44316">
        <ele>2244</ele>
        <time>2018-10-17T09:19:15Z</time>
      </trkpt>
      <trkpt lat="45.84312" lon="6.44316">
        <ele>2244</ele>
        <time>2018-10-17T09:19:16Z</time>
      </trkpt>
      <trkpt lat="45.84312" lon="6.44316">
        <ele>2244</ele>
        <time>2018-10-17T09:19:17Z</time>
      </trkpt>
      <trkpt lat="45.84311" lon="6.44318">
        <ele>2244</ele>
        <time>2018-10-17T09:19:18Z</time>
      </trkpt>
      <trkpt lat="45.84311" lon="6.44318">
        <ele>2244</ele>
        <time>2018-10-17T09:19:19Z</time>
      </trkpt>
      <trkpt lat="45.84308" lon="6.44322">
        <ele>2244</ele>
        <time>2018-10-17T09:19:20Z</time>
      </trkpt>
      <trkpt lat="45.84307" lon="6.44324">
        <ele>2244</ele>
        <time>2018-10-17T09:19:21Z</time>
      </trkpt>
      <trkpt lat="45.84307" lon="6.44327">
        <ele>2244</ele>
        <time>2018-10-17T09:19:22Z</time>
      </trkpt>
      <trkpt lat="45.84307" lon="6.44327">
        <ele>2244</ele>
        <time>2018-10-17T09:19:23Z</time>
      </trkpt>
      <trkpt lat="45.84306" lon="6.44331">
        <ele>2244</ele>
        <time>2018-10-17T09:19:24Z</time>
      </trkpt>
      <trkpt lat="45.84306" lon="6.44331">
        <ele>2244</ele>
        <time>2018-10-17T09:19:25Z</time>
      </trkpt>
      <trkpt lat="45.84306" lon="6.44335">
        <ele>2244</ele>
        <time>2018-10-17T09:19:26Z</time>
      </trkpt>
      <trkpt lat="45.84306" lon="6.44335">
        <ele>2244</ele>
        <time>2018-10-17T09:19:27Z</time>
      </trkpt>
      <trkpt lat="45.84305" lon="6.4434">
        <ele>2244</ele>
        <time>2018-10-17T09:19:28Z</time>
      </trkpt>
      <trkpt lat="45.84305" lon="6.4434">
        <ele>2244</ele>
        <time>2018-10-17T09:19:29Z</time>
      </trkpt>
      <trkpt lat="45.84302" lon="6.44344">
        <ele>2243</ele>
        <time>2018-10-17T09:19:30Z</time>
      </trkpt>
      <trkpt lat="45.84302" lon="6.44344">
        <ele>2243</ele>
        <time>2018-10-17T09:19:31Z</time>
      </trkpt>
      <trkpt lat="45.84301" lon="6.44347">
        <ele>2242</ele>
        <time>2018-10-17T09:19:32Z</time>
      </trkpt>
      <trkpt lat="45.84301" lon="6.44347">
        <ele>2242</ele>
        <time>2018-10-17T09:19:33Z</time>
      </trkpt>
      <trkpt lat="45.84301" lon="6.44347">
        <ele>2242</ele>
        <time>2018-10-17T09:19:34Z</time>
      </trkpt>
      <trkpt lat="45.84301" lon="6.44347">
        <ele>2242</ele>
        <time>2018-10-17T09:19:35Z</time>
      </trkpt>
      <trkpt lat="45.843" lon="6.4435">
        <ele>2242</ele>
        <time>2018-10-17T09:19:36Z</time>
      </trkpt>
      <trkpt lat="45.843" lon="6.4435">
        <ele>2242</ele>
        <time>2018-10-17T09:19:37Z</time>
      </trkpt>
      <trkpt lat="45.843" lon="6.4435">
        <ele>2242</ele>
        <time>2018-10-17T09:19:38Z</time>
      </trkpt>
      <trkpt lat="45.84299" lon="6.44353">
        <ele>2242</ele>
        <time>2018-10-17T09:19:39Z</time>
      </trkpt>
      <trkpt lat="45.84299" lon="6.44353">
        <ele>2241</ele>
        <time>2018-10-17T09:19:40Z</time>
      </trkpt>
      <trkpt lat="45.84299" lon="6.44353">
        <ele>2240</ele>
        <time>2018-10-17T09:19:41Z</time>
      </trkpt>
      <trkpt lat="45.84298" lon="6.44355">
        <ele>2240</ele>
        <time>2018-10-17T09:19:42Z</time>
      </trkpt>
      <trkpt lat="45.84298" lon="6.44355">
        <ele>2240</ele>
        <time>2018-10-17T09:19:43Z</time>
      </trkpt>
      <trkpt lat="45.84298" lon="6.44355">
        <ele>2240</ele>
        <time>2018-10-17T09:19:44Z</time>
      </trkpt>
      <trkpt lat="45.84298" lon="6.44355">
        <ele>2240</ele>
        <time>2018-10-17T09:19:45Z</time>
      </trkpt>
      <trkpt lat="45.84298" lon="6.44355">
        <ele>2240</ele>
        <time>2018-10-17T09:19:46Z</time>
      </trkpt>
      <trkpt lat="45.84298" lon="6.44355">
        <ele>2240</ele>
        <time>2018-10-17T09:19:47Z</time>
      </trkpt>
      <trkpt lat="45.84298" lon="6.44355">
        <ele>2239</ele>
        <time>2018-10-17T09:19:48Z</time>
      </trkpt>
      <trkpt lat="45.84298" lon="6.44355">
        <ele>2239</ele>
        <time>2018-10-17T09:19:49Z</time>
      </trkpt>
      <trkpt lat="45.84299" lon="6.44359">
        <ele>2239</ele>
        <time>2018-10-17T09:19:50Z</time>
      </trkpt>
      <trkpt lat="45.84299" lon="6.44359">
        <ele>2239</ele>
        <time>2018-10-17T09:19:51Z</time>
      </trkpt>
      <trkpt lat="45.84299" lon="6.44362">
        <ele>2239</ele>
        <time>2018-10-17T09:19:52Z</time>
      </trkpt>
      <trkpt lat="45.84299" lon="6.44362">
        <ele>2239</ele>
        <time>2018-10-17T09:19:53Z</time>
      </trkpt>
      <trkpt lat="45.84299" lon="6.44362">
        <ele>2239</ele>
        <time>2018-10-17T09:19:54Z</time>
      </trkpt>
      <trkpt lat="45.843" lon="6.44365">
        <ele>2239</ele>
        <time>2018-10-17T09:19:55Z</time>
      </trkpt>
      <trkpt lat="45.843" lon="6.44365">
        <ele>2239</ele>
        <time>2018-10-17T09:19:56Z</time>
      </trkpt>
      <trkpt lat="45.84302" lon="6.44367">
        <ele>2239</ele>
        <time>2018-10-17T09:19:57Z</time>
      </trkpt>
      <trkpt lat="45.84302" lon="6.44367">
        <ele>2239</ele>
        <time>2018-10-17T09:19:58Z</time>
      </trkpt>
      <trkpt lat="45.84302" lon="6.44367">
        <ele>2239</ele>
        <time>2018-10-17T09:19:59Z</time>
      </trkpt>
      <trkpt lat="45.84304" lon="6.4437">
        <ele>2239</ele>
        <time>2018-10-17T09:20:00Z</time>
      </trkpt>
      <trkpt lat="45.84304" lon="6.4437">
        <ele>2239</ele>
        <time>2018-10-17T09:20:01Z</time>
      </trkpt>
      <trkpt lat="45.84304" lon="6.4437">
        <ele>2239</ele>
        <time>2018-10-17T09:20:02Z</time>
      </trkpt>
      <trkpt lat="45.84304" lon="6.44373">
        <ele>2239</ele>
        <time>2018-10-17T09:20:03Z</time>
      </trkpt>
      <trkpt lat="45.84304" lon="6.44373">
        <ele>2239</ele>
        <time>2018-10-17T09:20:04Z</time>
      </trkpt>
      <trkpt lat="45.84304" lon="6.44373">
        <ele>2239</ele>
        <time>2018-10-17T09:20:05Z</time>
      </trkpt>
      <trkpt lat="45.84304" lon="6.44373">
        <ele>2239</ele>
        <time>2018-10-17T09:20:06Z</time>
      </trkpt>
      <trkpt lat="45.84304" lon="6.44373">
        <ele>2239</ele>
        <time>2018-10-17T09:20:07Z</time>
      </trkpt>
      <trkpt lat="45.84304" lon="6.44373">
        <ele>2239</ele>
        <time>2018-10-17T09:20:08Z</time>
      </trkpt>
      <trkpt lat="45.84304" lon="6.44373">
        <ele>2239</ele>
        <time>2018-10-17T09:20:09Z</time>
      </trkpt>
      <trkpt lat="45.84304" lon="6.44377">
        <ele>2239</ele>
        <time>2018-10-17T09:20:10Z</time>
      </trkpt>
      <trkpt lat="45.84304" lon="6.44377">
        <ele>2239</ele>
        <time>2018-10-17T09:20:11Z</time>
      </trkpt>
      <trkpt lat="45.84302" lon="6.44379">
        <ele>2239</ele>
        <time>2018-10-17T09:20:12Z</time>
      </trkpt>
      <trkpt lat="45.84302" lon="6.44379">
        <ele>2239</ele>
        <time>2018-10-17T09:20:13Z</time>
      </trkpt>
      <trkpt lat="45.84302" lon="6.44379">
        <ele>2239</ele>
        <time>2018-10-17T09:20:14Z</time>
      </trkpt>
      <trkpt lat="45.84302" lon="6.44379">
        <ele>2239</ele>
        <time>2018-10-17T09:20:15Z</time>
      </trkpt>
      <trkpt lat="45.84302" lon="6.44379">
        <ele>2239</ele>
        <time>2018-10-17T09:20:16Z</time>
      </trkpt>
      <trkpt lat="45.84302" lon="6.44379">
        <ele>2239</ele>
        <time>2018-10-17T09:20:17Z</time>
      </trkpt>
      <trkpt lat="45.84302" lon="6.44379">
        <ele>2239</ele>
        <time>2018-10-17T09:20:18Z</time>
      </trkpt>
      <trkpt lat="45.84302" lon="6.44379">
        <ele>2239</ele>
        <time>2018-10-17T09:20:19Z</time>
      </trkpt>
      <trkpt lat="45.84302" lon="6.44379">
        <ele>2239</ele>
        <time>2018-10-17T09:20:20Z</time>
      </trkpt>
      <trkpt lat="45.84302" lon="6.44379">
        <ele>2238</ele>
        <time>2018-10-17T09:20:21Z</time>
      </trkpt>
      <trkpt lat="45.84301" lon="6.44382">
        <ele>2238</ele>
        <time>2018-10-17T09:20:22Z</time>
      </trkpt>
      <trkpt lat="45.84301" lon="6.44382">
        <ele>2238</ele>
        <time>2018-10-17T09:20:23Z</time>
      </trkpt>
      <trkpt lat="45.843" lon="6.44385">
        <ele>2238</ele>
        <time>2018-10-17T09:20:24Z</time>
      </trkpt>
      <trkpt lat="45.843" lon="6.44385">
        <ele>2238</ele>
        <time>2018-10-17T09:20:25Z</time>
      </trkpt>
      <trkpt lat="45.843" lon="6.44385">
        <ele>2238</ele>
        <time>2018-10-17T09:20:26Z</time>
      </trkpt>
      <trkpt lat="45.843" lon="6.44385">
        <ele>2238</ele>
        <time>2018-10-17T09:20:27Z</time>
      </trkpt>
      <trkpt lat="45.84297" lon="6.44387">
        <ele>2237</ele>
        <time>2018-10-17T09:20:28Z</time>
      </trkpt>
      <trkpt lat="45.84296" lon="6.44388">
        <ele>2237</ele>
        <time>2018-10-17T09:20:29Z</time>
      </trkpt>
      <trkpt lat="45.84294" lon="6.44389">
        <ele>2237</ele>
        <time>2018-10-17T09:20:30Z</time>
      </trkpt>
      <trkpt lat="45.84294" lon="6.44389">
        <ele>2237</ele>
        <time>2018-10-17T09:20:31Z</time>
      </trkpt>
      <trkpt lat="45.84293" lon="6.44391">
        <ele>2237</ele>
        <time>2018-10-17T09:20:32Z</time>
      </trkpt>
      <trkpt lat="45.84293" lon="6.44391">
        <ele>2236</ele>
        <time>2018-10-17T09:20:33Z</time>
      </trkpt>
      <trkpt lat="45.8429" lon="6.44394">
        <ele>2236</ele>
        <time>2018-10-17T09:20:34Z</time>
      </trkpt>
      <trkpt lat="45.8429" lon="6.44394">
        <ele>2236</ele>
        <time>2018-10-17T09:20:35Z</time>
      </trkpt>
      <trkpt lat="45.84287" lon="6.44395">
        <ele>2236</ele>
        <time>2018-10-17T09:20:36Z</time>
      </trkpt>
      <trkpt lat="45.84287" lon="6.44395">
        <ele>2236</ele>
        <time>2018-10-17T09:20:37Z</time>
      </trkpt>
      <trkpt lat="45.84287" lon="6.44395">
        <ele>2236</ele>
        <time>2018-10-17T09:20:38Z</time>
      </trkpt>
      <trkpt lat="45.84287" lon="6.44395">
        <ele>2235</ele>
        <time>2018-10-17T09:20:39Z</time>
      </trkpt>
      <trkpt lat="45.84287" lon="6.44395">
        <ele>2235</ele>
        <time>2018-10-17T09:20:40Z</time>
      </trkpt>
      <trkpt lat="45.84286" lon="6.44397">
        <ele>2234</ele>
        <time>2018-10-17T09:20:41Z</time>
      </trkpt>
      <trkpt lat="45.84286" lon="6.44397">
        <ele>2234</ele>
        <time>2018-10-17T09:20:42Z</time>
      </trkpt>
      <trkpt lat="45.84286" lon="6.44397">
        <ele>2234</ele>
        <time>2018-10-17T09:20:43Z</time>
      </trkpt>
      <trkpt lat="45.84284" lon="6.44401">
        <ele>2234</ele>
        <time>2018-10-17T09:20:44Z</time>
      </trkpt>
      <trkpt lat="45.84284" lon="6.44401">
        <ele>2234</ele>
        <time>2018-10-17T09:20:45Z</time>
      </trkpt>
      <trkpt lat="45.84283" lon="6.44405">
        <ele>2234</ele>
        <time>2018-10-17T09:20:46Z</time>
      </trkpt>
      <trkpt lat="45.84282" lon="6.44408">
        <ele>2233</ele>
        <time>2018-10-17T09:20:47Z</time>
      </trkpt>
      <trkpt lat="45.8428" lon="6.44411">
        <ele>2233</ele>
        <time>2018-10-17T09:20:48Z</time>
      </trkpt>
      <trkpt lat="45.84279" lon="6.44413">
        <ele>2231</ele>
        <time>2018-10-17T09:20:49Z</time>
      </trkpt>
      <trkpt lat="45.84279" lon="6.44413">
        <ele>2231</ele>
        <time>2018-10-17T09:20:50Z</time>
      </trkpt>
      <trkpt lat="45.84277" lon="6.44416">
        <ele>2230</ele>
        <time>2018-10-17T09:20:51Z</time>
      </trkpt>
      <trkpt lat="45.84277" lon="6.44416">
        <ele>2230</ele>
        <time>2018-10-17T09:20:52Z</time>
      </trkpt>
      <trkpt lat="45.84275" lon="6.44417">
        <ele>2230</ele>
        <time>2018-10-17T09:20:53Z</time>
      </trkpt>
      <trkpt lat="45.84275" lon="6.44417">
        <ele>2229</ele>
        <time>2018-10-17T09:20:54Z</time>
      </trkpt>
      <trkpt lat="45.84274" lon="6.4442">
        <ele>2229</ele>
        <time>2018-10-17T09:20:55Z</time>
      </trkpt>
      <trkpt lat="45.84274" lon="6.4442">
        <ele>2229</ele>
        <time>2018-10-17T09:20:56Z</time>
      </trkpt>
      <trkpt lat="45.84274" lon="6.4442">
        <ele>2229</ele>
        <time>2018-10-17T09:20:57Z</time>
      </trkpt>
      <trkpt lat="45.84274" lon="6.4442">
        <ele>2229</ele>
        <time>2018-10-17T09:20:58Z</time>
      </trkpt>
      <trkpt lat="45.84274" lon="6.4442">
        <ele>2229</ele>
        <time>2018-10-17T09:20:59Z</time>
      </trkpt>
      <trkpt lat="45.84272" lon="6.44423">
        <ele>2229</ele>
        <time>2018-10-17T09:21:00Z</time>
      </trkpt>
      <trkpt lat="45.84272" lon="6.44423">
        <ele>2229</ele>
        <time>2018-10-17T09:21:01Z</time>
      </trkpt>
      <trkpt lat="45.8427" lon="6.44426">
        <ele>2229</ele>
        <time>2018-10-17T09:21:02Z</time>
      </trkpt>
      <trkpt lat="45.8427" lon="6.44426">
        <ele>2228</ele>
        <time>2018-10-17T09:21:03Z</time>
      </trkpt>
      <trkpt lat="45.8427" lon="6.44426">
        <ele>2228</ele>
        <time>2018-10-17T09:21:04Z</time>
      </trkpt>
      <trkpt lat="45.8427" lon="6.44426">
        <ele>2227</ele>
        <time>2018-10-17T09:21:05Z</time>
      </trkpt>
      <trkpt lat="45.8427" lon="6.44426">
        <ele>2227</ele>
        <time>2018-10-17T09:21:06Z</time>
      </trkpt>
      <trkpt lat="45.8427" lon="6.44426">
        <ele>2227</ele>
        <time>2018-10-17T09:21:07Z</time>
      </trkpt>
      <trkpt lat="45.84269" lon="6.44429">
        <ele>2226</ele>
        <time>2018-10-17T09:21:08Z</time>
      </trkpt>
      <trkpt lat="45.84269" lon="6.44429">
        <ele>2226</ele>
        <time>2018-10-17T09:21:09Z</time>
      </trkpt>
      <trkpt lat="45.84268" lon="6.44432">
        <ele>2226</ele>
        <time>2018-10-17T09:21:10Z</time>
      </trkpt>
      <trkpt lat="45.84268" lon="6.44432">
        <ele>2225</ele>
        <time>2018-10-17T09:21:11Z</time>
      </trkpt>
      <trkpt lat="45.84268" lon="6.44432">
        <ele>2225</ele>
        <time>2018-10-17T09:21:12Z</time>
      </trkpt>
      <trkpt lat="45.84268" lon="6.44432">
        <ele>2225</ele>
        <time>2018-10-17T09:21:13Z</time>
      </trkpt>
      <trkpt lat="45.84268" lon="6.44435">
        <ele>2225</ele>
        <time>2018-10-17T09:21:14Z</time>
      </trkpt>
      <trkpt lat="45.84268" lon="6.44435">
        <ele>2224</ele>
        <time>2018-10-17T09:21:15Z</time>
      </trkpt>
      <trkpt lat="45.84268" lon="6.44435">
        <ele>2224</ele>
        <time>2018-10-17T09:21:16Z</time>
      </trkpt>
      <trkpt lat="45.84268" lon="6.44435">
        <ele>2224</ele>
        <time>2018-10-17T09:21:17Z</time>
      </trkpt>
      <trkpt lat="45.84268" lon="6.44435">
        <ele>2224</ele>
        <time>2018-10-17T09:21:18Z</time>
      </trkpt>
      <trkpt lat="45.84268" lon="6.44435">
        <ele>2223</ele>
        <time>2018-10-17T09:21:19Z</time>
      </trkpt>
      <trkpt lat="45.84266" lon="6.44437">
        <ele>2223</ele>
        <time>2018-10-17T09:21:20Z</time>
      </trkpt>
      <trkpt lat="45.84266" lon="6.44437">
        <ele>2223</ele>
        <time>2018-10-17T09:21:21Z</time>
      </trkpt>
      <trkpt lat="45.84265" lon="6.44435">
        <ele>2223</ele>
        <time>2018-10-17T09:21:22Z</time>
      </trkpt>
      <trkpt lat="45.84265" lon="6.44435">
        <ele>2222</ele>
        <time>2018-10-17T09:21:23Z</time>
      </trkpt>
      <trkpt lat="45.84265" lon="6.44435">
        <ele>2222</ele>
        <time>2018-10-17T09:21:24Z</time>
      </trkpt>
      <trkpt lat="45.84265" lon="6.44435">
        <ele>2222</ele>
        <time>2018-10-17T09:21:25Z</time>
      </trkpt>
      <trkpt lat="45.84266" lon="6.44437">
        <ele>2222</ele>
        <time>2018-10-17T09:21:26Z</time>
      </trkpt>
      <trkpt lat="45.84266" lon="6.44437">
        <ele>2222</ele>
        <time>2018-10-17T09:21:27Z</time>
      </trkpt>
      <trkpt lat="45.84266" lon="6.44437">
        <ele>2222</ele>
        <time>2018-10-17T09:21:28Z</time>
      </trkpt>
      <trkpt lat="45.84264" lon="6.44438">
        <ele>2221</ele>
        <time>2018-10-17T09:21:29Z</time>
      </trkpt>
      <trkpt lat="45.84264" lon="6.44438">
        <ele>2221</ele>
        <time>2018-10-17T09:21:30Z</time>
      </trkpt>
      <trkpt lat="45.84261" lon="6.44438">
        <ele>2221</ele>
        <time>2018-10-17T09:21:31Z</time>
      </trkpt>
      <trkpt lat="45.84261" lon="6.44438">
        <ele>2221</ele>
        <time>2018-10-17T09:21:32Z</time>
      </trkpt>
      <trkpt lat="45.84261" lon="6.44438">
        <ele>2221</ele>
        <time>2018-10-17T09:21:33Z</time>
      </trkpt>
      <trkpt lat="45.84261" lon="6.44438">
        <ele>2221</ele>
        <time>2018-10-17T09:21:34Z</time>
      </trkpt>
      <trkpt lat="45.84261" lon="6.44438">
        <ele>2221</ele>
        <time>2018-10-17T09:21:35Z</time>
      </trkpt>
      <trkpt lat="45.84261" lon="6.44438">
        <ele>2221</ele>
        <time>2018-10-17T09:21:36Z</time>
      </trkpt>
      <trkpt lat="45.84261" lon="6.44438">
        <ele>2220</ele>
        <time>2018-10-17T09:21:37Z</time>
      </trkpt>
      <trkpt lat="45.84259" lon="6.4444">
        <ele>2220</ele>
        <time>2018-10-17T09:21:38Z</time>
      </trkpt>
      <trkpt lat="45.84259" lon="6.4444">
        <ele>2220</ele>
        <time>2018-10-17T09:21:39Z</time>
      </trkpt>
      <trkpt lat="45.84257" lon="6.44443">
        <ele>2220</ele>
        <time>2018-10-17T09:21:40Z</time>
      </trkpt>
      <trkpt lat="45.84257" lon="6.44443">
        <ele>2219</ele>
        <time>2018-10-17T09:21:41Z</time>
      </trkpt>
      <trkpt lat="45.84255" lon="6.44444">
        <ele>2219</ele>
        <time>2018-10-17T09:21:42Z</time>
      </trkpt>
      <trkpt lat="45.84255" lon="6.44444">
        <ele>2219</ele>
        <time>2018-10-17T09:21:43Z</time>
      </trkpt>
      <trkpt lat="45.84255" lon="6.44444">
        <ele>2219</ele>
        <time>2018-10-17T09:21:44Z</time>
      </trkpt>
      <trkpt lat="45.84252" lon="6.44445">
        <ele>2219</ele>
        <time>2018-10-17T09:21:45Z</time>
      </trkpt>
      <trkpt lat="45.84252" lon="6.44445">
        <ele>2218</ele>
        <time>2018-10-17T09:21:46Z</time>
      </trkpt>
      <trkpt lat="45.8425" lon="6.44445">
        <ele>2217</ele>
        <time>2018-10-17T09:21:47Z</time>
      </trkpt>
      <trkpt lat="45.8425" lon="6.44445">
        <ele>2217</ele>
        <time>2018-10-17T09:21:48Z</time>
      </trkpt>
      <trkpt lat="45.8425" lon="6.44445">
        <ele>2216</ele>
        <time>2018-10-17T09:21:49Z</time>
      </trkpt>
      <trkpt lat="45.84248" lon="6.44447">
        <ele>2216</ele>
        <time>2018-10-17T09:21:50Z</time>
      </trkpt>
      <trkpt lat="45.84248" lon="6.44447">
        <ele>2216</ele>
        <time>2018-10-17T09:21:51Z</time>
      </trkpt>
      <trkpt lat="45.84248" lon="6.44451">
        <ele>2216</ele>
        <time>2018-10-17T09:21:52Z</time>
      </trkpt>
      <trkpt lat="45.84248" lon="6.44451">
        <ele>2216</ele>
        <time>2018-10-17T09:21:53Z</time>
      </trkpt>
      <trkpt lat="45.84248" lon="6.44451">
        <ele>2215</ele>
        <time>2018-10-17T09:21:54Z</time>
      </trkpt>
      <trkpt lat="45.84247" lon="6.44453">
        <ele>2215</ele>
        <time>2018-10-17T09:21:55Z</time>
      </trkpt>
      <trkpt lat="45.84247" lon="6.44453">
        <ele>2215</ele>
        <time>2018-10-17T09:21:56Z</time>
      </trkpt>
      <trkpt lat="45.84247" lon="6.44453">
        <ele>2214</ele>
        <time>2018-10-17T09:21:57Z</time>
      </trkpt>
      <trkpt lat="45.84245" lon="6.44456">
        <ele>2214</ele>
        <time>2018-10-17T09:21:58Z</time>
      </trkpt>
      <trkpt lat="45.84245" lon="6.44456">
        <ele>2214</ele>
        <time>2018-10-17T09:21:59Z</time>
      </trkpt>
      <trkpt lat="45.84243" lon="6.44458">
        <ele>2214</ele>
        <time>2018-10-17T09:22:00Z</time>
      </trkpt>
      <trkpt lat="45.84243" lon="6.44458">
        <ele>2214</ele>
        <time>2018-10-17T09:22:01Z</time>
      </trkpt>
      <trkpt lat="45.84243" lon="6.44458">
        <ele>2215</ele>
        <time>2018-10-17T09:22:02Z</time>
      </trkpt>
      <trkpt lat="45.84241" lon="6.4446">
        <ele>2215</ele>
        <time>2018-10-17T09:22:03Z</time>
      </trkpt>
      <trkpt lat="45.84241" lon="6.4446">
        <ele>2215</ele>
        <time>2018-10-17T09:22:04Z</time>
      </trkpt>
      <trkpt lat="45.84239" lon="6.44461">
        <ele>2215</ele>
        <time>2018-10-17T09:22:05Z</time>
      </trkpt>
      <trkpt lat="45.84239" lon="6.44461">
        <ele>2215</ele>
        <time>2018-10-17T09:22:06Z</time>
      </trkpt>
      <trkpt lat="45.84237" lon="6.44462">
        <ele>2215</ele>
        <time>2018-10-17T09:22:07Z</time>
      </trkpt>
      <trkpt lat="45.84237" lon="6.44462">
        <ele>2214</ele>
        <time>2018-10-17T09:22:08Z</time>
      </trkpt>
      <trkpt lat="45.84237" lon="6.44462">
        <ele>2214</ele>
        <time>2018-10-17T09:22:09Z</time>
      </trkpt>
      <trkpt lat="45.84237" lon="6.44462">
        <ele>2214</ele>
        <time>2018-10-17T09:22:10Z</time>
      </trkpt>
      <trkpt lat="45.84237" lon="6.44462">
        <ele>2214</ele>
        <time>2018-10-17T09:22:11Z</time>
      </trkpt>
      <trkpt lat="45.84237" lon="6.44462">
        <ele>2214</ele>
        <time>2018-10-17T09:22:12Z</time>
      </trkpt>
      <trkpt lat="45.84237" lon="6.44462">
        <ele>2214</ele>
        <time>2018-10-17T09:22:13Z</time>
      </trkpt>
      <trkpt lat="45.84235" lon="6.44463">
        <ele>2214</ele>
        <time>2018-10-17T09:22:14Z</time>
      </trkpt>
      <trkpt lat="45.84235" lon="6.44463">
        <ele>2214</ele>
        <time>2018-10-17T09:22:15Z</time>
      </trkpt>
      <trkpt lat="45.84233" lon="6.44465">
        <ele>2214</ele>
        <time>2018-10-17T09:22:16Z</time>
      </trkpt>
      <trkpt lat="45.84233" lon="6.44465">
        <ele>2214</ele>
        <time>2018-10-17T09:22:17Z</time>
      </trkpt>
      <trkpt lat="45.8423" lon="6.44466">
        <ele>2214</ele>
        <time>2018-10-17T09:22:18Z</time>
      </trkpt>
      <trkpt lat="45.84228" lon="6.44466">
        <ele>2214</ele>
        <time>2018-10-17T09:22:19Z</time>
      </trkpt>
      <trkpt lat="45.84228" lon="6.44466">
        <ele>2213</ele>
        <time>2018-10-17T09:22:20Z</time>
      </trkpt>
      <trkpt lat="45.84225" lon="6.44466">
        <ele>2212</ele>
        <time>2018-10-17T09:22:21Z</time>
      </trkpt>
      <trkpt lat="45.84225" lon="6.44466">
        <ele>2212</ele>
        <time>2018-10-17T09:22:22Z</time>
      </trkpt>
      <trkpt lat="45.84224" lon="6.44468">
        <ele>2212</ele>
        <time>2018-10-17T09:22:23Z</time>
      </trkpt>
      <trkpt lat="45.84224" lon="6.44468">
        <ele>2212</ele>
        <time>2018-10-17T09:22:24Z</time>
      </trkpt>
      <trkpt lat="45.84223" lon="6.4447">
        <ele>2212</ele>
        <time>2018-10-17T09:22:25Z</time>
      </trkpt>
      <trkpt lat="45.84223" lon="6.4447">
        <ele>2211</ele>
        <time>2018-10-17T09:22:26Z</time>
      </trkpt>
      <trkpt lat="45.84221" lon="6.44471">
        <ele>2211</ele>
        <time>2018-10-17T09:22:27Z</time>
      </trkpt>
      <trkpt lat="45.84221" lon="6.44471">
        <ele>2210</ele>
        <time>2018-10-17T09:22:28Z</time>
      </trkpt>
      <trkpt lat="45.84219" lon="6.4447">
        <ele>2209</ele>
        <time>2018-10-17T09:22:29Z</time>
      </trkpt>
      <trkpt lat="45.84219" lon="6.4447">
        <ele>2209</ele>
        <time>2018-10-17T09:22:30Z</time>
      </trkpt>
      <trkpt lat="45.84217" lon="6.44469">
        <ele>2209</ele>
        <time>2018-10-17T09:22:31Z</time>
      </trkpt>
      <trkpt lat="45.84217" lon="6.44469">
        <ele>2208</ele>
        <time>2018-10-17T09:22:32Z</time>
      </trkpt>
      <trkpt lat="45.84217" lon="6.44469">
        <ele>2208</ele>
        <time>2018-10-17T09:22:33Z</time>
      </trkpt>
      <trkpt lat="45.84215" lon="6.44468">
        <ele>2207</ele>
        <time>2018-10-17T09:22:34Z</time>
      </trkpt>
      <trkpt lat="45.84215" lon="6.44468">
        <ele>2206</ele>
        <time>2018-10-17T09:22:35Z</time>
      </trkpt>
      <trkpt lat="45.84212" lon="6.44469">
        <ele>2205</ele>
        <time>2018-10-17T09:22:36Z</time>
      </trkpt>
      <trkpt lat="45.84212" lon="6.44469">
        <ele>2204</ele>
        <time>2018-10-17T09:22:37Z</time>
      </trkpt>
      <trkpt lat="45.84208" lon="6.44466">
        <ele>2204</ele>
        <time>2018-10-17T09:22:38Z</time>
      </trkpt>
      <trkpt lat="45.84208" lon="6.44466">
        <ele>2204</ele>
        <time>2018-10-17T09:22:39Z</time>
      </trkpt>
      <trkpt lat="45.84206" lon="6.44466">
        <ele>2203</ele>
        <time>2018-10-17T09:22:40Z</time>
      </trkpt>
      <trkpt lat="45.84206" lon="6.44466">
        <ele>2203</ele>
        <time>2018-10-17T09:22:41Z</time>
      </trkpt>
      <trkpt lat="45.84206" lon="6.44466">
        <ele>2203</ele>
        <time>2018-10-17T09:22:42Z</time>
      </trkpt>
      <trkpt lat="45.84204" lon="6.44468">
        <ele>2203</ele>
        <time>2018-10-17T09:22:43Z</time>
      </trkpt>
      <trkpt lat="45.84204" lon="6.44468">
        <ele>2203</ele>
        <time>2018-10-17T09:22:44Z</time>
      </trkpt>
      <trkpt lat="45.84201" lon="6.44469">
        <ele>2203</ele>
        <time>2018-10-17T09:22:45Z</time>
      </trkpt>
      <trkpt lat="45.84201" lon="6.44469">
        <ele>2203</ele>
        <time>2018-10-17T09:22:46Z</time>
      </trkpt>
      <trkpt lat="45.84199" lon="6.44468">
        <ele>2203</ele>
        <time>2018-10-17T09:22:47Z</time>
      </trkpt>
      <trkpt lat="45.84199" lon="6.44468">
        <ele>2203</ele>
        <time>2018-10-17T09:22:48Z</time>
      </trkpt>
      <trkpt lat="45.84197" lon="6.44467">
        <ele>2203</ele>
        <time>2018-10-17T09:22:49Z</time>
      </trkpt>
      <trkpt lat="45.84197" lon="6.44467">
        <ele>2202</ele>
        <time>2018-10-17T09:22:50Z</time>
      </trkpt>
      <trkpt lat="45.84195" lon="6.44466">
        <ele>2202</ele>
        <time>2018-10-17T09:22:51Z</time>
      </trkpt>
      <trkpt lat="45.84195" lon="6.44466">
        <ele>2202</ele>
        <time>2018-10-17T09:22:52Z</time>
      </trkpt>
      <trkpt lat="45.84193" lon="6.44466">
        <ele>2202</ele>
        <time>2018-10-17T09:22:53Z</time>
      </trkpt>
      <trkpt lat="45.84193" lon="6.44466">
        <ele>2202</ele>
        <time>2018-10-17T09:22:54Z</time>
      </trkpt>
      <trkpt lat="45.84193" lon="6.44466">
        <ele>2202</ele>
        <time>2018-10-17T09:22:55Z</time>
      </trkpt>
      <trkpt lat="45.84191" lon="6.44465">
        <ele>2200</ele>
        <time>2018-10-17T09:22:56Z</time>
      </trkpt>
      <trkpt lat="45.84191" lon="6.44465">
        <ele>2199</ele>
        <time>2018-10-17T09:22:57Z</time>
      </trkpt>
      <trkpt lat="45.84191" lon="6.44465">
        <ele>2199</ele>
        <time>2018-10-17T09:22:58Z</time>
      </trkpt>
      <trkpt lat="45.84189" lon="6.44464">
        <ele>2198</ele>
        <time>2018-10-17T09:22:59Z</time>
      </trkpt>
      <trkpt lat="45.84189" lon="6.44464">
        <ele>2198</ele>
        <time>2018-10-17T09:23:00Z</time>
      </trkpt>
      <trkpt lat="45.84189" lon="6.44464">
        <ele>2198</ele>
        <time>2018-10-17T09:23:01Z</time>
      </trkpt>
      <trkpt lat="45.84189" lon="6.44464">
        <ele>2198</ele>
        <time>2018-10-17T09:23:02Z</time>
      </trkpt>
      <trkpt lat="45.84189" lon="6.44464">
        <ele>2198</ele>
        <time>2018-10-17T09:23:03Z</time>
      </trkpt>
      <trkpt lat="45.84189" lon="6.44464">
        <ele>2198</ele>
        <time>2018-10-17T09:23:04Z</time>
      </trkpt>
      <trkpt lat="45.84189" lon="6.44464">
        <ele>2198</ele>
        <time>2018-10-17T09:23:05Z</time>
      </trkpt>
      <trkpt lat="45.84189" lon="6.44464">
        <ele>2198</ele>
        <time>2018-10-17T09:23:06Z</time>
      </trkpt>
      <trkpt lat="45.84189" lon="6.44464">
        <ele>2198</ele>
        <time>2018-10-17T09:23:07Z</time>
      </trkpt>
      <trkpt lat="45.84189" lon="6.44464">
        <ele>2198</ele>
        <time>2018-10-17T09:23:08Z</time>
      </trkpt>
      <trkpt lat="45.84187" lon="6.44462">
        <ele>2198</ele>
        <time>2018-10-17T09:23:09Z</time>
      </trkpt>
      <trkpt lat="45.84187" lon="6.44462">
        <ele>2198</ele>
        <time>2018-10-17T09:23:10Z</time>
      </trkpt>
      <trkpt lat="45.84185" lon="6.44462">
        <ele>2198</ele>
        <time>2018-10-17T09:23:11Z</time>
      </trkpt>
      <trkpt lat="45.84185" lon="6.44462">
        <ele>2197</ele>
        <time>2018-10-17T09:23:12Z</time>
      </trkpt>
      <trkpt lat="45.84183" lon="6.44461">
        <ele>2197</ele>
        <time>2018-10-17T09:23:13Z</time>
      </trkpt>
      <trkpt lat="45.84183" lon="6.44461">
        <ele>2196</ele>
        <time>2018-10-17T09:23:14Z</time>
      </trkpt>
      <trkpt lat="45.8418" lon="6.44461">
        <ele>2196</ele>
        <time>2018-10-17T09:23:15Z</time>
      </trkpt>
      <trkpt lat="45.8418" lon="6.44461">
        <ele>2196</ele>
        <time>2018-10-17T09:23:16Z</time>
      </trkpt>
      <trkpt lat="45.8418" lon="6.44461">
        <ele>2196</ele>
        <time>2018-10-17T09:23:17Z</time>
      </trkpt>
      <trkpt lat="45.8418" lon="6.44461">
        <ele>2196</ele>
        <time>2018-10-17T09:23:18Z</time>
      </trkpt>
      <trkpt lat="45.8418" lon="6.44461">
        <ele>2196</ele>
        <time>2018-10-17T09:23:19Z</time>
      </trkpt>
      <trkpt lat="45.8418" lon="6.44461">
        <ele>2196</ele>
        <time>2018-10-17T09:23:20Z</time>
      </trkpt>
      <trkpt lat="45.8418" lon="6.44461">
        <ele>2196</ele>
        <time>2018-10-17T09:23:21Z</time>
      </trkpt>
      <trkpt lat="45.8418" lon="6.44461">
        <ele>2196</ele>
        <time>2018-10-17T09:23:22Z</time>
      </trkpt>
      <trkpt lat="45.8418" lon="6.44461">
        <ele>2196</ele>
        <time>2018-10-17T09:23:23Z</time>
      </trkpt>
      <trkpt lat="45.8418" lon="6.44461">
        <ele>2196</ele>
        <time>2018-10-17T09:23:24Z</time>
      </trkpt>
      <trkpt lat="45.8418" lon="6.44461">
        <ele>2196</ele>
        <time>2018-10-17T09:23:25Z</time>
      </trkpt>
      <trkpt lat="45.8418" lon="6.44458">
        <ele>2195</ele>
        <time>2018-10-17T09:23:26Z</time>
      </trkpt>
      <trkpt lat="45.8418" lon="6.44458">
        <ele>2195</ele>
        <time>2018-10-17T09:23:27Z</time>
      </trkpt>
      <trkpt lat="45.84178" lon="6.44456">
        <ele>2195</ele>
        <time>2018-10-17T09:23:28Z</time>
      </trkpt>
      <trkpt lat="45.84178" lon="6.44456">
        <ele>2194</ele>
        <time>2018-10-17T09:23:29Z</time>
      </trkpt>
      <trkpt lat="45.84177" lon="6.44454">
        <ele>2194</ele>
        <time>2018-10-17T09:23:30Z</time>
      </trkpt>
      <trkpt lat="45.84177" lon="6.44454">
        <ele>2193</ele>
        <time>2018-10-17T09:23:31Z</time>
      </trkpt>
      <trkpt lat="45.84175" lon="6.44453">
        <ele>2193</ele>
        <time>2018-10-17T09:23:32Z</time>
      </trkpt>
      <trkpt lat="45.84175" lon="6.44453">
        <ele>2193</ele>
        <time>2018-10-17T09:23:33Z</time>
      </trkpt>
      <trkpt lat="45.84173" lon="6.4445">
        <ele>2193</ele>
        <time>2018-10-17T09:23:34Z</time>
      </trkpt>
      <trkpt lat="45.84173" lon="6.4445">
        <ele>2192</ele>
        <time>2018-10-17T09:23:35Z</time>
      </trkpt>
      <trkpt lat="45.84171" lon="6.44449">
        <ele>2191</ele>
        <time>2018-10-17T09:23:36Z</time>
      </trkpt>
      <trkpt lat="45.84171" lon="6.44449">
        <ele>2191</ele>
        <time>2018-10-17T09:23:37Z</time>
      </trkpt>
      <trkpt lat="45.84169" lon="6.44447">
        <ele>2191</ele>
        <time>2018-10-17T09:23:38Z</time>
      </trkpt>
      <trkpt lat="45.84169" lon="6.44447">
        <ele>2191</ele>
        <time>2018-10-17T09:23:39Z</time>
      </trkpt>
      <trkpt lat="45.84169" lon="6.44447">
        <ele>2190</ele>
        <time>2018-10-17T09:23:40Z</time>
      </trkpt>
      <trkpt lat="45.84167" lon="6.44447">
        <ele>2189</ele>
        <time>2018-10-17T09:23:41Z</time>
      </trkpt>
      <trkpt lat="45.84167" lon="6.44447">
        <ele>2189</ele>
        <time>2018-10-17T09:23:42Z</time>
      </trkpt>
      <trkpt lat="45.84165" lon="6.44449">
        <ele>2189</ele>
        <time>2018-10-17T09:23:43Z</time>
      </trkpt>
      <trkpt lat="45.84165" lon="6.44449">
        <ele>2189</ele>
        <time>2018-10-17T09:23:44Z</time>
      </trkpt>
      <trkpt lat="45.84163" lon="6.44449">
        <ele>2189</ele>
        <time>2018-10-17T09:23:45Z</time>
      </trkpt>
      <trkpt lat="45.84163" lon="6.44449">
        <ele>2189</ele>
        <time>2018-10-17T09:23:46Z</time>
      </trkpt>
      <trkpt lat="45.8416" lon="6.44449">
        <ele>2189</ele>
        <time>2018-10-17T09:23:47Z</time>
      </trkpt>
      <trkpt lat="45.8416" lon="6.44449">
        <ele>2189</ele>
        <time>2018-10-17T09:23:48Z</time>
      </trkpt>
      <trkpt lat="45.84159" lon="6.44447">
        <ele>2189</ele>
        <time>2018-10-17T09:23:49Z</time>
      </trkpt>
      <trkpt lat="45.84159" lon="6.44447">
        <ele>2188</ele>
        <time>2018-10-17T09:23:50Z</time>
      </trkpt>
      <trkpt lat="45.84157" lon="6.44446">
        <ele>2188</ele>
        <time>2018-10-17T09:23:51Z</time>
      </trkpt>
      <trkpt lat="45.84157" lon="6.44446">
        <ele>2188</ele>
        <time>2018-10-17T09:23:52Z</time>
      </trkpt>
      <trkpt lat="45.84155" lon="6.44448">
        <ele>2188</ele>
        <time>2018-10-17T09:23:53Z</time>
      </trkpt>
      <trkpt lat="45.84155" lon="6.44448">
        <ele>2187</ele>
        <time>2018-10-17T09:23:54Z</time>
      </trkpt>
      <trkpt lat="45.84152" lon="6.44449">
        <ele>2187</ele>
        <time>2018-10-17T09:23:55Z</time>
      </trkpt>
      <trkpt lat="45.84152" lon="6.44449">
        <ele>2187</ele>
        <time>2018-10-17T09:23:56Z</time>
      </trkpt>
      <trkpt lat="45.8415" lon="6.44451">
        <ele>2187</ele>
        <time>2018-10-17T09:23:57Z</time>
      </trkpt>
      <trkpt lat="45.8415" lon="6.44451">
        <ele>2187</ele>
        <time>2018-10-17T09:23:58Z</time>
      </trkpt>
      <trkpt lat="45.84148" lon="6.44454">
        <ele>2187</ele>
        <time>2018-10-17T09:23:59Z</time>
      </trkpt>
      <trkpt lat="45.84148" lon="6.44454">
        <ele>2187</ele>
        <time>2018-10-17T09:24:00Z</time>
      </trkpt>
      <trkpt lat="45.84146" lon="6.44455">
        <ele>2187</ele>
        <time>2018-10-17T09:24:01Z</time>
      </trkpt>
      <trkpt lat="45.84146" lon="6.44455">
        <ele>2187</ele>
        <time>2018-10-17T09:24:02Z</time>
      </trkpt>
      <trkpt lat="45.84143" lon="6.44457">
        <ele>2186</ele>
        <time>2018-10-17T09:24:03Z</time>
      </trkpt>
      <trkpt lat="45.84143" lon="6.44457">
        <ele>2186</ele>
        <time>2018-10-17T09:24:04Z</time>
      </trkpt>
      <trkpt lat="45.8414" lon="6.44459">
        <ele>2186</ele>
        <time>2018-10-17T09:24:05Z</time>
      </trkpt>
      <trkpt lat="45.8414" lon="6.44459">
        <ele>2186</ele>
        <time>2018-10-17T09:24:06Z</time>
      </trkpt>
      <trkpt lat="45.84137" lon="6.4446">
        <ele>2186</ele>
        <time>2018-10-17T09:24:07Z</time>
      </trkpt>
      <trkpt lat="45.84137" lon="6.4446">
        <ele>2187</ele>
        <time>2018-10-17T09:24:08Z</time>
      </trkpt>
      <trkpt lat="45.84135" lon="6.44462">
        <ele>2187</ele>
        <time>2018-10-17T09:24:09Z</time>
      </trkpt>
      <trkpt lat="45.84135" lon="6.44462">
        <ele>2187</ele>
        <time>2018-10-17T09:24:10Z</time>
      </trkpt>
      <trkpt lat="45.84133" lon="6.44464">
        <ele>2187</ele>
        <time>2018-10-17T09:24:11Z</time>
      </trkpt>
      <trkpt lat="45.84133" lon="6.44464">
        <ele>2187</ele>
        <time>2018-10-17T09:24:12Z</time>
      </trkpt>
      <trkpt lat="45.84131" lon="6.44466">
        <ele>2188</ele>
        <time>2018-10-17T09:24:13Z</time>
      </trkpt>
      <trkpt lat="45.84131" lon="6.44466">
        <ele>2188</ele>
        <time>2018-10-17T09:24:14Z</time>
      </trkpt>
      <trkpt lat="45.8413" lon="6.44467">
        <ele>2188</ele>
        <time>2018-10-17T09:24:15Z</time>
      </trkpt>
      <trkpt lat="45.8413" lon="6.44467">
        <ele>2188</ele>
        <time>2018-10-17T09:24:16Z</time>
      </trkpt>
      <trkpt lat="45.8413" lon="6.44467">
        <ele>2188</ele>
        <time>2018-10-17T09:24:17Z</time>
      </trkpt>
      <trkpt lat="45.84128" lon="6.4447">
        <ele>2188</ele>
        <time>2018-10-17T09:24:18Z</time>
      </trkpt>
      <trkpt lat="45.84128" lon="6.4447">
        <ele>2188</ele>
        <time>2018-10-17T09:24:19Z</time>
      </trkpt>
      <trkpt lat="45.84126" lon="6.44472">
        <ele>2188</ele>
        <time>2018-10-17T09:24:20Z</time>
      </trkpt>
      <trkpt lat="45.84126" lon="6.44472">
        <ele>2188</ele>
        <time>2018-10-17T09:24:21Z</time>
      </trkpt>
      <trkpt lat="45.84124" lon="6.44474">
        <ele>2188</ele>
        <time>2018-10-17T09:24:22Z</time>
      </trkpt>
      <trkpt lat="45.84124" lon="6.44474">
        <ele>2188</ele>
        <time>2018-10-17T09:24:23Z</time>
      </trkpt>
      <trkpt lat="45.84122" lon="6.44476">
        <ele>2188</ele>
        <time>2018-10-17T09:24:24Z</time>
      </trkpt>
      <trkpt lat="45.84122" lon="6.44476">
        <ele>2188</ele>
        <time>2018-10-17T09:24:25Z</time>
      </trkpt>
      <trkpt lat="45.8412" lon="6.44478">
        <ele>2188</ele>
        <time>2018-10-17T09:24:26Z</time>
      </trkpt>
      <trkpt lat="45.8412" lon="6.44478">
        <ele>2188</ele>
        <time>2018-10-17T09:24:27Z</time>
      </trkpt>
      <trkpt lat="45.84119" lon="6.4448">
        <ele>2188</ele>
        <time>2018-10-17T09:24:28Z</time>
      </trkpt>
      <trkpt lat="45.84119" lon="6.4448">
        <ele>2188</ele>
        <time>2018-10-17T09:24:29Z</time>
      </trkpt>
      <trkpt lat="45.84117" lon="6.44482">
        <ele>2188</ele>
        <time>2018-10-17T09:24:30Z</time>
      </trkpt>
      <trkpt lat="45.84117" lon="6.44482">
        <ele>2188</ele>
        <time>2018-10-17T09:24:31Z</time>
      </trkpt>
      <trkpt lat="45.84115" lon="6.44484">
        <ele>2188</ele>
        <time>2018-10-17T09:24:32Z</time>
      </trkpt>
      <trkpt lat="45.84115" lon="6.44484">
        <ele>2188</ele>
        <time>2018-10-17T09:24:33Z</time>
      </trkpt>
      <trkpt lat="45.84114" lon="6.44486">
        <ele>2188</ele>
        <time>2018-10-17T09:24:34Z</time>
      </trkpt>
      <trkpt lat="45.84114" lon="6.44486">
        <ele>2188</ele>
        <time>2018-10-17T09:24:35Z</time>
      </trkpt>
      <trkpt lat="45.84114" lon="6.44486">
        <ele>2188</ele>
        <time>2018-10-17T09:24:36Z</time>
      </trkpt>
      <trkpt lat="45.84111" lon="6.44488">
        <ele>2188</ele>
        <time>2018-10-17T09:24:37Z</time>
      </trkpt>
      <trkpt lat="45.84111" lon="6.44488">
        <ele>2188</ele>
        <time>2018-10-17T09:24:38Z</time>
      </trkpt>
      <trkpt lat="45.8411" lon="6.4449">
        <ele>2188</ele>
        <time>2018-10-17T09:24:39Z</time>
      </trkpt>
      <trkpt lat="45.8411" lon="6.4449">
        <ele>2188</ele>
        <time>2018-10-17T09:24:40Z</time>
      </trkpt>
      <trkpt lat="45.84108" lon="6.44493">
        <ele>2188</ele>
        <time>2018-10-17T09:24:41Z</time>
      </trkpt>
      <trkpt lat="45.84108" lon="6.44493">
        <ele>2188</ele>
        <time>2018-10-17T09:24:42Z</time>
      </trkpt>
      <trkpt lat="45.84107" lon="6.44495">
        <ele>2188</ele>
        <time>2018-10-17T09:24:43Z</time>
      </trkpt>
      <trkpt lat="45.84107" lon="6.44495">
        <ele>2189</ele>
        <time>2018-10-17T09:24:44Z</time>
      </trkpt>
      <trkpt lat="45.84107" lon="6.44495">
        <ele>2189</ele>
        <time>2018-10-17T09:24:45Z</time>
      </trkpt>
      <trkpt lat="45.84107" lon="6.44495">
        <ele>2189</ele>
        <time>2018-10-17T09:24:46Z</time>
      </trkpt>
      <trkpt lat="45.84107" lon="6.44495">
        <ele>2189</ele>
        <time>2018-10-17T09:24:47Z</time>
      </trkpt>
      <trkpt lat="45.84107" lon="6.44495">
        <ele>2188</ele>
        <time>2018-10-17T09:24:48Z</time>
      </trkpt>
      <trkpt lat="45.84107" lon="6.44495">
        <ele>2188</ele>
        <time>2018-10-17T09:24:49Z</time>
      </trkpt>
      <trkpt lat="45.84107" lon="6.44495">
        <ele>2188</ele>
        <time>2018-10-17T09:24:50Z</time>
      </trkpt>
      <trkpt lat="45.84105" lon="6.44498">
        <ele>2188</ele>
        <time>2018-10-17T09:24:51Z</time>
      </trkpt>
      <trkpt lat="45.84105" lon="6.44498">
        <ele>2188</ele>
        <time>2018-10-17T09:24:52Z</time>
      </trkpt>
      <trkpt lat="45.84104" lon="6.44499">
        <ele>2188</ele>
        <time>2018-10-17T09:24:53Z</time>
      </trkpt>
      <trkpt lat="45.84104" lon="6.44499">
        <ele>2188</ele>
        <time>2018-10-17T09:24:54Z</time>
      </trkpt>
      <trkpt lat="45.84103" lon="6.44502">
        <ele>2188</ele>
        <time>2018-10-17T09:24:55Z</time>
      </trkpt>
      <trkpt lat="45.84103" lon="6.44502">
        <ele>2188</ele>
        <time>2018-10-17T09:24:56Z</time>
      </trkpt>
      <trkpt lat="45.84101" lon="6.44505">
        <ele>2188</ele>
        <time>2018-10-17T09:24:57Z</time>
      </trkpt>
      <trkpt lat="45.84101" lon="6.44505">
        <ele>2188</ele>
        <time>2018-10-17T09:24:58Z</time>
      </trkpt>
      <trkpt lat="45.84101" lon="6.44505">
        <ele>2189</ele>
        <time>2018-10-17T09:24:59Z</time>
      </trkpt>
      <trkpt lat="45.84101" lon="6.44505">
        <ele>2189</ele>
        <time>2018-10-17T09:25:00Z</time>
      </trkpt>
      <trkpt lat="45.84101" lon="6.44505">
        <ele>2189</ele>
        <time>2018-10-17T09:25:01Z</time>
      </trkpt>
      <trkpt lat="45.841" lon="6.44506">
        <ele>2189</ele>
        <time>2018-10-17T09:25:02Z</time>
      </trkpt>
      <trkpt lat="45.841" lon="6.44506">
        <ele>2189</ele>
        <time>2018-10-17T09:25:03Z</time>
      </trkpt>
      <trkpt lat="45.84098" lon="6.44509">
        <ele>2189</ele>
        <time>2018-10-17T09:25:04Z</time>
      </trkpt>
      <trkpt lat="45.84098" lon="6.44509">
        <ele>2189</ele>
        <time>2018-10-17T09:25:05Z</time>
      </trkpt>
      <trkpt lat="45.84097" lon="6.44511">
        <ele>2189</ele>
        <time>2018-10-17T09:25:06Z</time>
      </trkpt>
      <trkpt lat="45.84097" lon="6.44511">
        <ele>2189</ele>
        <time>2018-10-17T09:25:07Z</time>
      </trkpt>
      <trkpt lat="45.84096" lon="6.44515">
        <ele>2189</ele>
        <time>2018-10-17T09:25:08Z</time>
      </trkpt>
      <trkpt lat="45.84096" lon="6.44515">
        <ele>2190</ele>
        <time>2018-10-17T09:25:09Z</time>
      </trkpt>
      <trkpt lat="45.84094" lon="6.44518">
        <ele>2190</ele>
        <time>2018-10-17T09:25:10Z</time>
      </trkpt>
      <trkpt lat="45.84094" lon="6.44518">
        <ele>2190</ele>
        <time>2018-10-17T09:25:11Z</time>
      </trkpt>
      <trkpt lat="45.84094" lon="6.44521">
        <ele>2190</ele>
        <time>2018-10-17T09:25:12Z</time>
      </trkpt>
      <trkpt lat="45.84094" lon="6.44521">
        <ele>2190</ele>
        <time>2018-10-17T09:25:13Z</time>
      </trkpt>
      <trkpt lat="45.84092" lon="6.44524">
        <ele>2190</ele>
        <time>2018-10-17T09:25:14Z</time>
      </trkpt>
      <trkpt lat="45.84092" lon="6.44524">
        <ele>2190</ele>
        <time>2018-10-17T09:25:15Z</time>
      </trkpt>
      <trkpt lat="45.84091" lon="6.44527">
        <ele>2190</ele>
        <time>2018-10-17T09:25:16Z</time>
      </trkpt>
      <trkpt lat="45.84091" lon="6.44527">
        <ele>2190</ele>
        <time>2018-10-17T09:25:17Z</time>
      </trkpt>
      <trkpt lat="45.8409" lon="6.44531">
        <ele>2190</ele>
        <time>2018-10-17T09:25:18Z</time>
      </trkpt>
      <trkpt lat="45.8409" lon="6.44531">
        <ele>2190</ele>
        <time>2018-10-17T09:25:19Z</time>
      </trkpt>
      <trkpt lat="45.84089" lon="6.44535">
        <ele>2190</ele>
        <time>2018-10-17T09:25:20Z</time>
      </trkpt>
      <trkpt lat="45.84089" lon="6.44535">
        <ele>2190</ele>
        <time>2018-10-17T09:25:21Z</time>
      </trkpt>
      <trkpt lat="45.84088" lon="6.44539">
        <ele>2190</ele>
        <time>2018-10-17T09:25:22Z</time>
      </trkpt>
      <trkpt lat="45.84088" lon="6.44539">
        <ele>2190</ele>
        <time>2018-10-17T09:25:23Z</time>
      </trkpt>
      <trkpt lat="45.84087" lon="6.44544">
        <ele>2190</ele>
        <time>2018-10-17T09:25:24Z</time>
      </trkpt>
      <trkpt lat="45.84087" lon="6.44544">
        <ele>2190</ele>
        <time>2018-10-17T09:25:25Z</time>
      </trkpt>
      <trkpt lat="45.84086" lon="6.44548">
        <ele>2190</ele>
        <time>2018-10-17T09:25:26Z</time>
      </trkpt>
      <trkpt lat="45.84086" lon="6.44548">
        <ele>2190</ele>
        <time>2018-10-17T09:25:27Z</time>
      </trkpt>
      <trkpt lat="45.84086" lon="6.44553">
        <ele>2190</ele>
        <time>2018-10-17T09:25:28Z</time>
      </trkpt>
      <trkpt lat="45.84086" lon="6.44553">
        <ele>2190</ele>
        <time>2018-10-17T09:25:29Z</time>
      </trkpt>
      <trkpt lat="45.84084" lon="6.44556">
        <ele>2189</ele>
        <time>2018-10-17T09:25:30Z</time>
      </trkpt>
      <trkpt lat="45.84083" lon="6.44559">
        <ele>2189</ele>
        <time>2018-10-17T09:25:31Z</time>
      </trkpt>
      <trkpt lat="45.84083" lon="6.44561">
        <ele>2188</ele>
        <time>2018-10-17T09:25:32Z</time>
      </trkpt>
      <trkpt lat="45.84083" lon="6.44564">
        <ele>2188</ele>
        <time>2018-10-17T09:25:33Z</time>
      </trkpt>
      <trkpt lat="45.84083" lon="6.44564">
        <ele>2188</ele>
        <time>2018-10-17T09:25:34Z</time>
      </trkpt>
      <trkpt lat="45.84082" lon="6.44567">
        <ele>2188</ele>
        <time>2018-10-17T09:25:35Z</time>
      </trkpt>
      <trkpt lat="45.84082" lon="6.44567">
        <ele>2188</ele>
        <time>2018-10-17T09:25:36Z</time>
      </trkpt>
      <trkpt lat="45.84081" lon="6.44571">
        <ele>2188</ele>
        <time>2018-10-17T09:25:37Z</time>
      </trkpt>
      <trkpt lat="45.84081" lon="6.44571">
        <ele>2188</ele>
        <time>2018-10-17T09:25:38Z</time>
      </trkpt>
      <trkpt lat="45.8408" lon="6.44575">
        <ele>2188</ele>
        <time>2018-10-17T09:25:39Z</time>
      </trkpt>
      <trkpt lat="45.8408" lon="6.44575">
        <ele>2188</ele>
        <time>2018-10-17T09:25:40Z</time>
      </trkpt>
      <trkpt lat="45.8408" lon="6.44578">
        <ele>2188</ele>
        <time>2018-10-17T09:25:41Z</time>
      </trkpt>
      <trkpt lat="45.8408" lon="6.44578">
        <ele>2188</ele>
        <time>2018-10-17T09:25:42Z</time>
      </trkpt>
      <trkpt lat="45.84079" lon="6.44582">
        <ele>2188</ele>
        <time>2018-10-17T09:25:43Z</time>
      </trkpt>
      <trkpt lat="45.84079" lon="6.44582">
        <ele>2188</ele>
        <time>2018-10-17T09:25:44Z</time>
      </trkpt>
      <trkpt lat="45.84078" lon="6.44586">
        <ele>2188</ele>
        <time>2018-10-17T09:25:45Z</time>
      </trkpt>
      <trkpt lat="45.84078" lon="6.44586">
        <ele>2188</ele>
        <time>2018-10-17T09:25:46Z</time>
      </trkpt>
      <trkpt lat="45.84077" lon="6.44589">
        <ele>2188</ele>
        <time>2018-10-17T09:25:47Z</time>
      </trkpt>
      <trkpt lat="45.84077" lon="6.44589">
        <ele>2188</ele>
        <time>2018-10-17T09:25:48Z</time>
      </trkpt>
      <trkpt lat="45.84077" lon="6.44589">
        <ele>2188</ele>
        <time>2018-10-17T09:25:49Z</time>
      </trkpt>
      <trkpt lat="45.84076" lon="6.44592">
        <ele>2188</ele>
        <time>2018-10-17T09:25:50Z</time>
      </trkpt>
      <trkpt lat="45.84076" lon="6.44592">
        <ele>2188</ele>
        <time>2018-10-17T09:25:51Z</time>
      </trkpt>
      <trkpt lat="45.84075" lon="6.44596">
        <ele>2188</ele>
        <time>2018-10-17T09:25:52Z</time>
      </trkpt>
      <trkpt lat="45.84075" lon="6.44596">
        <ele>2188</ele>
        <time>2018-10-17T09:25:53Z</time>
      </trkpt>
      <trkpt lat="45.84075" lon="6.446">
        <ele>2187</ele>
        <time>2018-10-17T09:25:54Z</time>
      </trkpt>
      <trkpt lat="45.84075" lon="6.446">
        <ele>2188</ele>
        <time>2018-10-17T09:25:55Z</time>
      </trkpt>
      <trkpt lat="45.84075" lon="6.44604">
        <ele>2188</ele>
        <time>2018-10-17T09:25:56Z</time>
      </trkpt>
      <trkpt lat="45.84075" lon="6.44604">
        <ele>2188</ele>
        <time>2018-10-17T09:25:57Z</time>
      </trkpt>
      <trkpt lat="45.84074" lon="6.44607">
        <ele>2188</ele>
        <time>2018-10-17T09:25:58Z</time>
      </trkpt>
      <trkpt lat="45.84074" lon="6.44607">
        <ele>2188</ele>
        <time>2018-10-17T09:25:59Z</time>
      </trkpt>
      <trkpt lat="45.84074" lon="6.44611">
        <ele>2188</ele>
        <time>2018-10-17T09:26:00Z</time>
      </trkpt>
      <trkpt lat="45.84074" lon="6.44611">
        <ele>2188</ele>
        <time>2018-10-17T09:26:01Z</time>
      </trkpt>
      <trkpt lat="45.84072" lon="6.44615">
        <ele>2188</ele>
        <time>2018-10-17T09:26:02Z</time>
      </trkpt>
      <trkpt lat="45.84072" lon="6.44615">
        <ele>2188</ele>
        <time>2018-10-17T09:26:03Z</time>
      </trkpt>
      <trkpt lat="45.84071" lon="6.44618">
        <ele>2188</ele>
        <time>2018-10-17T09:26:04Z</time>
      </trkpt>
      <trkpt lat="45.84071" lon="6.44618">
        <ele>2188</ele>
        <time>2018-10-17T09:26:05Z</time>
      </trkpt>
      <trkpt lat="45.84071" lon="6.44618">
        <ele>2188</ele>
        <time>2018-10-17T09:26:06Z</time>
      </trkpt>
      <trkpt lat="45.84071" lon="6.44622">
        <ele>2188</ele>
        <time>2018-10-17T09:26:07Z</time>
      </trkpt>
      <trkpt lat="45.84071" lon="6.44622">
        <ele>2188</ele>
        <time>2018-10-17T09:26:08Z</time>
      </trkpt>
      <trkpt lat="45.8407" lon="6.44626">
        <ele>2188</ele>
        <time>2018-10-17T09:26:09Z</time>
      </trkpt>
      <trkpt lat="45.8407" lon="6.44626">
        <ele>2188</ele>
        <time>2018-10-17T09:26:10Z</time>
      </trkpt>
      <trkpt lat="45.8407" lon="6.44631">
        <ele>2188</ele>
        <time>2018-10-17T09:26:11Z</time>
      </trkpt>
      <trkpt lat="45.8407" lon="6.44631">
        <ele>2188</ele>
        <time>2018-10-17T09:26:12Z</time>
      </trkpt>
      <trkpt lat="45.84069" lon="6.44634">
        <ele>2188</ele>
        <time>2018-10-17T09:26:13Z</time>
      </trkpt>
      <trkpt lat="45.84069" lon="6.44634">
        <ele>2188</ele>
        <time>2018-10-17T09:26:14Z</time>
      </trkpt>
      <trkpt lat="45.84068" lon="6.44639">
        <ele>2188</ele>
        <time>2018-10-17T09:26:15Z</time>
      </trkpt>
      <trkpt lat="45.84068" lon="6.44639">
        <ele>2188</ele>
        <time>2018-10-17T09:26:16Z</time>
      </trkpt>
      <trkpt lat="45.84066" lon="6.44643">
        <ele>2188</ele>
        <time>2018-10-17T09:26:17Z</time>
      </trkpt>
      <trkpt lat="45.84066" lon="6.44643">
        <ele>2188</ele>
        <time>2018-10-17T09:26:18Z</time>
      </trkpt>
      <trkpt lat="45.84065" lon="6.44646">
        <ele>2188</ele>
        <time>2018-10-17T09:26:19Z</time>
      </trkpt>
      <trkpt lat="45.84065" lon="6.44646">
        <ele>2189</ele>
        <time>2018-10-17T09:26:20Z</time>
      </trkpt>
      <trkpt lat="45.84065" lon="6.4465">
        <ele>2189</ele>
        <time>2018-10-17T09:26:21Z</time>
      </trkpt>
      <trkpt lat="45.84065" lon="6.4465">
        <ele>2189</ele>
        <time>2018-10-17T09:26:22Z</time>
      </trkpt>
      <trkpt lat="45.84064" lon="6.44653">
        <ele>2189</ele>
        <time>2018-10-17T09:26:23Z</time>
      </trkpt>
      <trkpt lat="45.84064" lon="6.44653">
        <ele>2189</ele>
        <time>2018-10-17T09:26:24Z</time>
      </trkpt>
      <trkpt lat="45.84062" lon="6.44656">
        <ele>2189</ele>
        <time>2018-10-17T09:26:25Z</time>
      </trkpt>
      <trkpt lat="45.84062" lon="6.44656">
        <ele>2189</ele>
        <time>2018-10-17T09:26:26Z</time>
      </trkpt>
      <trkpt lat="45.8406" lon="6.44658">
        <ele>2189</ele>
        <time>2018-10-17T09:26:27Z</time>
      </trkpt>
      <trkpt lat="45.8406" lon="6.44658">
        <ele>2189</ele>
        <time>2018-10-17T09:26:28Z</time>
      </trkpt>
      <trkpt lat="45.84059" lon="6.44661">
        <ele>2189</ele>
        <time>2018-10-17T09:26:29Z</time>
      </trkpt>
      <trkpt lat="45.84059" lon="6.44661">
        <ele>2190</ele>
        <time>2018-10-17T09:26:30Z</time>
      </trkpt>
      <trkpt lat="45.84059" lon="6.44663">
        <ele>2190</ele>
        <time>2018-10-17T09:26:31Z</time>
      </trkpt>
      <trkpt lat="45.84059" lon="6.44663">
        <ele>2190</ele>
        <time>2018-10-17T09:26:32Z</time>
      </trkpt>
      <trkpt lat="45.84059" lon="6.44666">
        <ele>2190</ele>
        <time>2018-10-17T09:26:33Z</time>
      </trkpt>
      <trkpt lat="45.84059" lon="6.44666">
        <ele>2190</ele>
        <time>2018-10-17T09:26:34Z</time>
      </trkpt>
      <trkpt lat="45.84058" lon="6.4467">
        <ele>2190</ele>
        <time>2018-10-17T09:26:35Z</time>
      </trkpt>
      <trkpt lat="45.84058" lon="6.4467">
        <ele>2190</ele>
        <time>2018-10-17T09:26:36Z</time>
      </trkpt>
      <trkpt lat="45.84056" lon="6.44673">
        <ele>2189</ele>
        <time>2018-10-17T09:26:37Z</time>
      </trkpt>
      <trkpt lat="45.84056" lon="6.44673">
        <ele>2189</ele>
        <time>2018-10-17T09:26:38Z</time>
      </trkpt>
      <trkpt lat="45.84054" lon="6.44675">
        <ele>2191</ele>
        <time>2018-10-17T09:26:39Z</time>
      </trkpt>
      <trkpt lat="45.84054" lon="6.44675">
        <ele>2190</ele>
        <time>2018-10-17T09:26:40Z</time>
      </trkpt>
      <trkpt lat="45.84053" lon="6.44678">
        <ele>2190</ele>
        <time>2018-10-17T09:26:41Z</time>
      </trkpt>
      <trkpt lat="45.84053" lon="6.44678">
        <ele>2190</ele>
        <time>2018-10-17T09:26:42Z</time>
      </trkpt>
      <trkpt lat="45.84052" lon="6.44681">
        <ele>2190</ele>
        <time>2018-10-17T09:26:43Z</time>
      </trkpt>
      <trkpt lat="45.84052" lon="6.44681">
        <ele>2190</ele>
        <time>2018-10-17T09:26:44Z</time>
      </trkpt>
      <trkpt lat="45.84052" lon="6.44685">
        <ele>2190</ele>
        <time>2018-10-17T09:26:45Z</time>
      </trkpt>
      <trkpt lat="45.84052" lon="6.44685">
        <ele>2190</ele>
        <time>2018-10-17T09:26:46Z</time>
      </trkpt>
      <trkpt lat="45.84053" lon="6.44688">
        <ele>2190</ele>
        <time>2018-10-17T09:26:47Z</time>
      </trkpt>
      <trkpt lat="45.84053" lon="6.44688">
        <ele>2190</ele>
        <time>2018-10-17T09:26:48Z</time>
      </trkpt>
      <trkpt lat="45.84053" lon="6.44692">
        <ele>2190</ele>
        <time>2018-10-17T09:26:49Z</time>
      </trkpt>
      <trkpt lat="45.84053" lon="6.44692">
        <ele>2190</ele>
        <time>2018-10-17T09:26:50Z</time>
      </trkpt>
      <trkpt lat="45.84053" lon="6.44696">
        <ele>2190</ele>
        <time>2018-10-17T09:26:51Z</time>
      </trkpt>
      <trkpt lat="45.84053" lon="6.44696">
        <ele>2190</ele>
        <time>2018-10-17T09:26:52Z</time>
      </trkpt>
      <trkpt lat="45.84052" lon="6.447">
        <ele>2190</ele>
        <time>2018-10-17T09:26:53Z</time>
      </trkpt>
      <trkpt lat="45.84052" lon="6.447">
        <ele>2190</ele>
        <time>2018-10-17T09:26:54Z</time>
      </trkpt>
      <trkpt lat="45.84051" lon="6.44703">
        <ele>2190</ele>
        <time>2018-10-17T09:26:55Z</time>
      </trkpt>
      <trkpt lat="45.84051" lon="6.44703">
        <ele>2190</ele>
        <time>2018-10-17T09:26:56Z</time>
      </trkpt>
      <trkpt lat="45.8405" lon="6.44706">
        <ele>2190</ele>
        <time>2018-10-17T09:26:57Z</time>
      </trkpt>
      <trkpt lat="45.8405" lon="6.44706">
        <ele>2190</ele>
        <time>2018-10-17T09:26:58Z</time>
      </trkpt>
      <trkpt lat="45.84049" lon="6.4471">
        <ele>2190</ele>
        <time>2018-10-17T09:26:59Z</time>
      </trkpt>
      <trkpt lat="45.84049" lon="6.4471">
        <ele>2190</ele>
        <time>2018-10-17T09:27:00Z</time>
      </trkpt>
      <trkpt lat="45.84049" lon="6.44714">
        <ele>2190</ele>
        <time>2018-10-17T09:27:01Z</time>
      </trkpt>
      <trkpt lat="45.84049" lon="6.44714">
        <ele>2190</ele>
        <time>2018-10-17T09:27:02Z</time>
      </trkpt>
      <trkpt lat="45.84049" lon="6.44717">
        <ele>2190</ele>
        <time>2018-10-17T09:27:03Z</time>
      </trkpt>
      <trkpt lat="45.84049" lon="6.44717">
        <ele>2190</ele>
        <time>2018-10-17T09:27:04Z</time>
      </trkpt>
      <trkpt lat="45.84049" lon="6.44722">
        <ele>2190</ele>
        <time>2018-10-17T09:27:05Z</time>
      </trkpt>
      <trkpt lat="45.84049" lon="6.44722">
        <ele>2190</ele>
        <time>2018-10-17T09:27:06Z</time>
      </trkpt>
      <trkpt lat="45.84049" lon="6.44726">
        <ele>2190</ele>
        <time>2018-10-17T09:27:07Z</time>
      </trkpt>
      <trkpt lat="45.84049" lon="6.44726">
        <ele>2190</ele>
        <time>2018-10-17T09:27:08Z</time>
      </trkpt>
      <trkpt lat="45.84049" lon="6.4473">
        <ele>2190</ele>
        <time>2018-10-17T09:27:09Z</time>
      </trkpt>
      <trkpt lat="45.84049" lon="6.4473">
        <ele>2190</ele>
        <time>2018-10-17T09:27:10Z</time>
      </trkpt>
      <trkpt lat="45.84048" lon="6.44735">
        <ele>2190</ele>
        <time>2018-10-17T09:27:11Z</time>
      </trkpt>
      <trkpt lat="45.84048" lon="6.44735">
        <ele>2190</ele>
        <time>2018-10-17T09:27:12Z</time>
      </trkpt>
      <trkpt lat="45.84046" lon="6.44739">
        <ele>2190</ele>
        <time>2018-10-17T09:27:13Z</time>
      </trkpt>
      <trkpt lat="45.84046" lon="6.44739">
        <ele>2190</ele>
        <time>2018-10-17T09:27:14Z</time>
      </trkpt>
      <trkpt lat="45.84045" lon="6.44743">
        <ele>2190</ele>
        <time>2018-10-17T09:27:15Z</time>
      </trkpt>
      <trkpt lat="45.84045" lon="6.44743">
        <ele>2190</ele>
        <time>2018-10-17T09:27:16Z</time>
      </trkpt>
      <trkpt lat="45.84044" lon="6.44746">
        <ele>2190</ele>
        <time>2018-10-17T09:27:17Z</time>
      </trkpt>
      <trkpt lat="45.84044" lon="6.44746">
        <ele>2190</ele>
        <time>2018-10-17T09:27:18Z</time>
      </trkpt>
      <trkpt lat="45.84043" lon="6.44749">
        <ele>2191</ele>
        <time>2018-10-17T09:27:19Z</time>
      </trkpt>
      <trkpt lat="45.84043" lon="6.44749">
        <ele>2191</ele>
        <time>2018-10-17T09:27:20Z</time>
      </trkpt>
      <trkpt lat="45.84043" lon="6.44753">
        <ele>2191</ele>
        <time>2018-10-17T09:27:21Z</time>
      </trkpt>
      <trkpt lat="45.84043" lon="6.44753">
        <ele>2191</ele>
        <time>2018-10-17T09:27:22Z</time>
      </trkpt>
      <trkpt lat="45.84043" lon="6.44757">
        <ele>2191</ele>
        <time>2018-10-17T09:27:23Z</time>
      </trkpt>
      <trkpt lat="45.84043" lon="6.44757">
        <ele>2191</ele>
        <time>2018-10-17T09:27:24Z</time>
      </trkpt>
      <trkpt lat="45.84043" lon="6.44762">
        <ele>2191</ele>
        <time>2018-10-17T09:27:25Z</time>
      </trkpt>
      <trkpt lat="45.84043" lon="6.44762">
        <ele>2191</ele>
        <time>2018-10-17T09:27:26Z</time>
      </trkpt>
      <trkpt lat="45.84041" lon="6.44766">
        <ele>2191</ele>
        <time>2018-10-17T09:27:27Z</time>
      </trkpt>
      <trkpt lat="45.84041" lon="6.44766">
        <ele>2191</ele>
        <time>2018-10-17T09:27:28Z</time>
      </trkpt>
      <trkpt lat="45.84041" lon="6.44769">
        <ele>2191</ele>
        <time>2018-10-17T09:27:29Z</time>
      </trkpt>
      <trkpt lat="45.84041" lon="6.44769">
        <ele>2191</ele>
        <time>2018-10-17T09:27:30Z</time>
      </trkpt>
      <trkpt lat="45.84039" lon="6.44772">
        <ele>2191</ele>
        <time>2018-10-17T09:27:31Z</time>
      </trkpt>
      <trkpt lat="45.84039" lon="6.44772">
        <ele>2192</ele>
        <time>2018-10-17T09:27:32Z</time>
      </trkpt>
      <trkpt lat="45.84038" lon="6.44775">
        <ele>2192</ele>
        <time>2018-10-17T09:27:33Z</time>
      </trkpt>
      <trkpt lat="45.84038" lon="6.44775">
        <ele>2192</ele>
        <time>2018-10-17T09:27:34Z</time>
      </trkpt>
      <trkpt lat="45.84037" lon="6.44778">
        <ele>2192</ele>
        <time>2018-10-17T09:27:35Z</time>
      </trkpt>
      <trkpt lat="45.84037" lon="6.44778">
        <ele>2192</ele>
        <time>2018-10-17T09:27:36Z</time>
      </trkpt>
      <trkpt lat="45.84035" lon="6.44782">
        <ele>2191</ele>
        <time>2018-10-17T09:27:37Z</time>
      </trkpt>
      <trkpt lat="45.84035" lon="6.44782">
        <ele>2191</ele>
        <time>2018-10-17T09:27:38Z</time>
      </trkpt>
      <trkpt lat="45.84034" lon="6.44786">
        <ele>2190</ele>
        <time>2018-10-17T09:27:39Z</time>
      </trkpt>
      <trkpt lat="45.84034" lon="6.44786">
        <ele>2190</ele>
        <time>2018-10-17T09:27:40Z</time>
      </trkpt>
      <trkpt lat="45.84033" lon="6.44789">
        <ele>2190</ele>
        <time>2018-10-17T09:27:41Z</time>
      </trkpt>
      <trkpt lat="45.84033" lon="6.44789">
        <ele>2190</ele>
        <time>2018-10-17T09:27:42Z</time>
      </trkpt>
      <trkpt lat="45.84033" lon="6.44793">
        <ele>2190</ele>
        <time>2018-10-17T09:27:43Z</time>
      </trkpt>
      <trkpt lat="45.84033" lon="6.44793">
        <ele>2190</ele>
        <time>2018-10-17T09:27:44Z</time>
      </trkpt>
      <trkpt lat="45.84032" lon="6.44796">
        <ele>2190</ele>
        <time>2018-10-17T09:27:45Z</time>
      </trkpt>
      <trkpt lat="45.84032" lon="6.44796">
        <ele>2190</ele>
        <time>2018-10-17T09:27:46Z</time>
      </trkpt>
      <trkpt lat="45.84031" lon="6.448">
        <ele>2189</ele>
        <time>2018-10-17T09:27:47Z</time>
      </trkpt>
      <trkpt lat="45.84031" lon="6.448">
        <ele>2187</ele>
        <time>2018-10-17T09:27:48Z</time>
      </trkpt>
      <trkpt lat="45.8403" lon="6.44804">
        <ele>2187</ele>
        <time>2018-10-17T09:27:49Z</time>
      </trkpt>
      <trkpt lat="45.8403" lon="6.44804">
        <ele>2187</ele>
        <time>2018-10-17T09:27:50Z</time>
      </trkpt>
      <trkpt lat="45.84028" lon="6.44808">
        <ele>2187</ele>
        <time>2018-10-17T09:27:51Z</time>
      </trkpt>
      <trkpt lat="45.84028" lon="6.44808">
        <ele>2187</ele>
        <time>2018-10-17T09:27:52Z</time>
      </trkpt>
      <trkpt lat="45.84027" lon="6.44812">
        <ele>2187</ele>
        <time>2018-10-17T09:27:53Z</time>
      </trkpt>
      <trkpt lat="45.84027" lon="6.44812">
        <ele>2187</ele>
        <time>2018-10-17T09:27:54Z</time>
      </trkpt>
      <trkpt lat="45.84025" lon="6.44815">
        <ele>2187</ele>
        <time>2018-10-17T09:27:55Z</time>
      </trkpt>
      <trkpt lat="45.84025" lon="6.44815">
        <ele>2187</ele>
        <time>2018-10-17T09:27:56Z</time>
      </trkpt>
      <trkpt lat="45.84024" lon="6.44819">
        <ele>2186</ele>
        <time>2018-10-17T09:27:57Z</time>
      </trkpt>
      <trkpt lat="45.84022" lon="6.44821">
        <ele>2186</ele>
        <time>2018-10-17T09:27:58Z</time>
      </trkpt>
      <trkpt lat="45.84022" lon="6.44821">
        <ele>2185</ele>
        <time>2018-10-17T09:27:59Z</time>
      </trkpt>
      <trkpt lat="45.8402" lon="6.44824">
        <ele>2185</ele>
        <time>2018-10-17T09:28:00Z</time>
      </trkpt>
      <trkpt lat="45.8402" lon="6.44824">
        <ele>2185</ele>
        <time>2018-10-17T09:28:01Z</time>
      </trkpt>
      <trkpt lat="45.84019" lon="6.44827">
        <ele>2185</ele>
        <time>2018-10-17T09:28:02Z</time>
      </trkpt>
      <trkpt lat="45.84019" lon="6.44827">
        <ele>2185</ele>
        <time>2018-10-17T09:28:03Z</time>
      </trkpt>
      <trkpt lat="45.84016" lon="6.44828">
        <ele>2184</ele>
        <time>2018-10-17T09:28:04Z</time>
      </trkpt>
      <trkpt lat="45.84016" lon="6.44828">
        <ele>2183</ele>
        <time>2018-10-17T09:28:05Z</time>
      </trkpt>
      <trkpt lat="45.84013" lon="6.44829">
        <ele>2182</ele>
        <time>2018-10-17T09:28:06Z</time>
      </trkpt>
      <trkpt lat="45.84013" lon="6.44829">
        <ele>2182</ele>
        <time>2018-10-17T09:28:07Z</time>
      </trkpt>
      <trkpt lat="45.8401" lon="6.44831">
        <ele>2181</ele>
        <time>2018-10-17T09:28:08Z</time>
      </trkpt>
      <trkpt lat="45.8401" lon="6.44831">
        <ele>2180</ele>
        <time>2018-10-17T09:28:09Z</time>
      </trkpt>
      <trkpt lat="45.84007" lon="6.44833">
        <ele>2180</ele>
        <time>2018-10-17T09:28:10Z</time>
      </trkpt>
      <trkpt lat="45.84007" lon="6.44833">
        <ele>2180</ele>
        <time>2018-10-17T09:28:11Z</time>
      </trkpt>
      <trkpt lat="45.84004" lon="6.44835">
        <ele>2180</ele>
        <time>2018-10-17T09:28:12Z</time>
      </trkpt>
      <trkpt lat="45.84004" lon="6.44835">
        <ele>2179</ele>
        <time>2018-10-17T09:28:13Z</time>
      </trkpt>
      <trkpt lat="45.84001" lon="6.44838">
        <ele>2178</ele>
        <time>2018-10-17T09:28:14Z</time>
      </trkpt>
      <trkpt lat="45.83999" lon="6.44839">
        <ele>2177</ele>
        <time>2018-10-17T09:28:15Z</time>
      </trkpt>
      <trkpt lat="45.83997" lon="6.4484">
        <ele>2177</ele>
        <time>2018-10-17T09:28:16Z</time>
      </trkpt>
      <trkpt lat="45.83995" lon="6.44841">
        <ele>2176</ele>
        <time>2018-10-17T09:28:17Z</time>
      </trkpt>
      <trkpt lat="45.83993" lon="6.44843">
        <ele>2175</ele>
        <time>2018-10-17T09:28:18Z</time>
      </trkpt>
      <trkpt lat="45.83992" lon="6.44845">
        <ele>2174</ele>
        <time>2018-10-17T09:28:19Z</time>
      </trkpt>
      <trkpt lat="45.83992" lon="6.44845">
        <ele>2174</ele>
        <time>2018-10-17T09:28:20Z</time>
      </trkpt>
      <trkpt lat="45.8399" lon="6.44849">
        <ele>2173</ele>
        <time>2018-10-17T09:28:21Z</time>
      </trkpt>
      <trkpt lat="45.8399" lon="6.44849">
        <ele>2172</ele>
        <time>2018-10-17T09:28:22Z</time>
      </trkpt>
      <trkpt lat="45.83988" lon="6.44852">
        <ele>2172</ele>
        <time>2018-10-17T09:28:23Z</time>
      </trkpt>
      <trkpt lat="45.83987" lon="6.44854">
        <ele>2171</ele>
        <time>2018-10-17T09:28:24Z</time>
      </trkpt>
      <trkpt lat="45.83987" lon="6.44854">
        <ele>2171</ele>
        <time>2018-10-17T09:28:25Z</time>
      </trkpt>
      <trkpt lat="45.83984" lon="6.44857">
        <ele>2171</ele>
        <time>2018-10-17T09:28:26Z</time>
      </trkpt>
      <trkpt lat="45.83984" lon="6.44857">
        <ele>2170</ele>
        <time>2018-10-17T09:28:27Z</time>
      </trkpt>
      <trkpt lat="45.83982" lon="6.44861">
        <ele>2170</ele>
        <time>2018-10-17T09:28:28Z</time>
      </trkpt>
      <trkpt lat="45.83981" lon="6.44862">
        <ele>2170</ele>
        <time>2018-10-17T09:28:29Z</time>
      </trkpt>
      <trkpt lat="45.83981" lon="6.44862">
        <ele>2170</ele>
        <time>2018-10-17T09:28:30Z</time>
      </trkpt>
      <trkpt lat="45.83979" lon="6.44866">
        <ele>2170</ele>
        <time>2018-10-17T09:28:31Z</time>
      </trkpt>
      <trkpt lat="45.83979" lon="6.44866">
        <ele>2170</ele>
        <time>2018-10-17T09:28:32Z</time>
      </trkpt>
      <trkpt lat="45.83977" lon="6.44869">
        <ele>2169</ele>
        <time>2018-10-17T09:28:33Z</time>
      </trkpt>
      <trkpt lat="45.83977" lon="6.44869">
        <ele>2169</ele>
        <time>2018-10-17T09:28:34Z</time>
      </trkpt>
      <trkpt lat="45.83975" lon="6.44872">
        <ele>2169</ele>
        <time>2018-10-17T09:28:35Z</time>
      </trkpt>
      <trkpt lat="45.83975" lon="6.44872">
        <ele>2169</ele>
        <time>2018-10-17T09:28:36Z</time>
      </trkpt>
      <trkpt lat="45.83973" lon="6.44875">
        <ele>2168</ele>
        <time>2018-10-17T09:28:37Z</time>
      </trkpt>
      <trkpt lat="45.83973" lon="6.44875">
        <ele>2168</ele>
        <time>2018-10-17T09:28:38Z</time>
      </trkpt>
      <trkpt lat="45.83971" lon="6.44879">
        <ele>2168</ele>
        <time>2018-10-17T09:28:39Z</time>
      </trkpt>
      <trkpt lat="45.83971" lon="6.44879">
        <ele>2168</ele>
        <time>2018-10-17T09:28:40Z</time>
      </trkpt>
      <trkpt lat="45.83968" lon="6.44881">
        <ele>2168</ele>
        <time>2018-10-17T09:28:41Z</time>
      </trkpt>
      <trkpt lat="45.83968" lon="6.44881">
        <ele>2168</ele>
        <time>2018-10-17T09:28:42Z</time>
      </trkpt>
      <trkpt lat="45.83965" lon="6.44883">
        <ele>2168</ele>
        <time>2018-10-17T09:28:43Z</time>
      </trkpt>
      <trkpt lat="45.83965" lon="6.44883">
        <ele>2168</ele>
        <time>2018-10-17T09:28:44Z</time>
      </trkpt>
      <trkpt lat="45.83963" lon="6.44885">
        <ele>2168</ele>
        <time>2018-10-17T09:28:45Z</time>
      </trkpt>
      <trkpt lat="45.83963" lon="6.44885">
        <ele>2167</ele>
        <time>2018-10-17T09:28:46Z</time>
      </trkpt>
      <trkpt lat="45.8396" lon="6.44886">
        <ele>2167</ele>
        <time>2018-10-17T09:28:47Z</time>
      </trkpt>
      <trkpt lat="45.8396" lon="6.44886">
        <ele>2167</ele>
        <time>2018-10-17T09:28:48Z</time>
      </trkpt>
      <trkpt lat="45.83957" lon="6.44888">
        <ele>2167</ele>
        <time>2018-10-17T09:28:49Z</time>
      </trkpt>
      <trkpt lat="45.83957" lon="6.44888">
        <ele>2167</ele>
        <time>2018-10-17T09:28:50Z</time>
      </trkpt>
      <trkpt lat="45.83954" lon="6.4489">
        <ele>2166</ele>
        <time>2018-10-17T09:28:51Z</time>
      </trkpt>
      <trkpt lat="45.83954" lon="6.4489">
        <ele>2166</ele>
        <time>2018-10-17T09:28:52Z</time>
      </trkpt>
      <trkpt lat="45.83951" lon="6.44892">
        <ele>2166</ele>
        <time>2018-10-17T09:28:53Z</time>
      </trkpt>
      <trkpt lat="45.83951" lon="6.44892">
        <ele>2166</ele>
        <time>2018-10-17T09:28:54Z</time>
      </trkpt>
      <trkpt lat="45.83949" lon="6.44895">
        <ele>2166</ele>
        <time>2018-10-17T09:28:55Z</time>
      </trkpt>
      <trkpt lat="45.83949" lon="6.44895">
        <ele>2166</ele>
        <time>2018-10-17T09:28:56Z</time>
      </trkpt>
      <trkpt lat="45.83946" lon="6.44897">
        <ele>2165</ele>
        <time>2018-10-17T09:28:57Z</time>
      </trkpt>
      <trkpt lat="45.83946" lon="6.44897">
        <ele>2165</ele>
        <time>2018-10-17T09:28:58Z</time>
      </trkpt>
      <trkpt lat="45.83943" lon="6.44899">
        <ele>2164</ele>
        <time>2018-10-17T09:28:59Z</time>
      </trkpt>
      <trkpt lat="45.83943" lon="6.44899">
        <ele>2164</ele>
        <time>2018-10-17T09:29:00Z</time>
      </trkpt>
      <trkpt lat="45.8394" lon="6.44901">
        <ele>2164</ele>
        <time>2018-10-17T09:29:01Z</time>
      </trkpt>
      <trkpt lat="45.8394" lon="6.44901">
        <ele>2164</ele>
        <time>2018-10-17T09:29:02Z</time>
      </trkpt>
      <trkpt lat="45.83937" lon="6.44903">
        <ele>2164</ele>
        <time>2018-10-17T09:29:03Z</time>
      </trkpt>
      <trkpt lat="45.83937" lon="6.44903">
        <ele>2164</ele>
        <time>2018-10-17T09:29:04Z</time>
      </trkpt>
      <trkpt lat="45.83934" lon="6.44905">
        <ele>2164</ele>
        <time>2018-10-17T09:29:05Z</time>
      </trkpt>
      <trkpt lat="45.83934" lon="6.44905">
        <ele>2164</ele>
        <time>2018-10-17T09:29:06Z</time>
      </trkpt>
      <trkpt lat="45.83931" lon="6.44907">
        <ele>2164</ele>
        <time>2018-10-17T09:29:07Z</time>
      </trkpt>
      <trkpt lat="45.83931" lon="6.44907">
        <ele>2163</ele>
        <time>2018-10-17T09:29:08Z</time>
      </trkpt>
      <trkpt lat="45.83928" lon="6.44909">
        <ele>2163</ele>
        <time>2018-10-17T09:29:09Z</time>
      </trkpt>
      <trkpt lat="45.83928" lon="6.44909">
        <ele>2163</ele>
        <time>2018-10-17T09:29:10Z</time>
      </trkpt>
      <trkpt lat="45.83925" lon="6.44908">
        <ele>2163</ele>
        <time>2018-10-17T09:29:11Z</time>
      </trkpt>
      <trkpt lat="45.83925" lon="6.44908">
        <ele>2163</ele>
        <time>2018-10-17T09:29:12Z</time>
      </trkpt>
      <trkpt lat="45.83922" lon="6.44908">
        <ele>2163</ele>
        <time>2018-10-17T09:29:13Z</time>
      </trkpt>
      <trkpt lat="45.83922" lon="6.44908">
        <ele>2163</ele>
        <time>2018-10-17T09:29:14Z</time>
      </trkpt>
      <trkpt lat="45.83919" lon="6.44907">
        <ele>2163</ele>
        <time>2018-10-17T09:29:15Z</time>
      </trkpt>
      <trkpt lat="45.83919" lon="6.44907">
        <ele>2163</ele>
        <time>2018-10-17T09:29:16Z</time>
      </trkpt>
      <trkpt lat="45.83916" lon="6.44907">
        <ele>2163</ele>
        <time>2018-10-17T09:29:17Z</time>
      </trkpt>
      <trkpt lat="45.83916" lon="6.44907">
        <ele>2164</ele>
        <time>2018-10-17T09:29:18Z</time>
      </trkpt>
      <trkpt lat="45.83913" lon="6.44907">
        <ele>2164</ele>
        <time>2018-10-17T09:29:19Z</time>
      </trkpt>
      <trkpt lat="45.83913" lon="6.44907">
        <ele>2164</ele>
        <time>2018-10-17T09:29:20Z</time>
      </trkpt>
      <trkpt lat="45.83911" lon="6.44906">
        <ele>2164</ele>
        <time>2018-10-17T09:29:21Z</time>
      </trkpt>
      <trkpt lat="45.83911" lon="6.44906">
        <ele>2164</ele>
        <time>2018-10-17T09:29:22Z</time>
      </trkpt>
      <trkpt lat="45.83908" lon="6.44907">
        <ele>2164</ele>
        <time>2018-10-17T09:29:23Z</time>
      </trkpt>
      <trkpt lat="45.83908" lon="6.44907">
        <ele>2164</ele>
        <time>2018-10-17T09:29:24Z</time>
      </trkpt>
      <trkpt lat="45.83905" lon="6.44907">
        <ele>2164</ele>
        <time>2018-10-17T09:29:25Z</time>
      </trkpt>
      <trkpt lat="45.83905" lon="6.44907">
        <ele>2164</ele>
        <time>2018-10-17T09:29:26Z</time>
      </trkpt>
      <trkpt lat="45.83903" lon="6.44906">
        <ele>2164</ele>
        <time>2018-10-17T09:29:27Z</time>
      </trkpt>
      <trkpt lat="45.83903" lon="6.44906">
        <ele>2164</ele>
        <time>2018-10-17T09:29:28Z</time>
      </trkpt>
      <trkpt lat="45.83903" lon="6.44906">
        <ele>2164</ele>
        <time>2018-10-17T09:29:29Z</time>
      </trkpt>
      <trkpt lat="45.83901" lon="6.44905">
        <ele>2164</ele>
        <time>2018-10-17T09:29:30Z</time>
      </trkpt>
      <trkpt lat="45.83901" lon="6.44905">
        <ele>2164</ele>
        <time>2018-10-17T09:29:31Z</time>
      </trkpt>
      <trkpt lat="45.83899" lon="6.44906">
        <ele>2164</ele>
        <time>2018-10-17T09:29:32Z</time>
      </trkpt>
      <trkpt lat="45.83899" lon="6.44906">
        <ele>2164</ele>
        <time>2018-10-17T09:29:33Z</time>
      </trkpt>
      <trkpt lat="45.83896" lon="6.44906">
        <ele>2164</ele>
        <time>2018-10-17T09:29:34Z</time>
      </trkpt>
      <trkpt lat="45.83896" lon="6.44906">
        <ele>2164</ele>
        <time>2018-10-17T09:29:35Z</time>
      </trkpt>
      <trkpt lat="45.83894" lon="6.44907">
        <ele>2164</ele>
        <time>2018-10-17T09:29:36Z</time>
      </trkpt>
      <trkpt lat="45.83894" lon="6.44907">
        <ele>2164</ele>
        <time>2018-10-17T09:29:37Z</time>
      </trkpt>
      <trkpt lat="45.83892" lon="6.44909">
        <ele>2164</ele>
        <time>2018-10-17T09:29:38Z</time>
      </trkpt>
      <trkpt lat="45.83892" lon="6.44909">
        <ele>2165</ele>
        <time>2018-10-17T09:29:39Z</time>
      </trkpt>
      <trkpt lat="45.83889" lon="6.44911">
        <ele>2165</ele>
        <time>2018-10-17T09:29:40Z</time>
      </trkpt>
      <trkpt lat="45.83889" lon="6.44911">
        <ele>2165</ele>
        <time>2018-10-17T09:29:41Z</time>
      </trkpt>
      <trkpt lat="45.83887" lon="6.44912">
        <ele>2165</ele>
        <time>2018-10-17T09:29:42Z</time>
      </trkpt>
      <trkpt lat="45.83887" lon="6.44912">
        <ele>2165</ele>
        <time>2018-10-17T09:29:43Z</time>
      </trkpt>
      <trkpt lat="45.83885" lon="6.44913">
        <ele>2165</ele>
        <time>2018-10-17T09:29:44Z</time>
      </trkpt>
      <trkpt lat="45.83885" lon="6.44913">
        <ele>2165</ele>
        <time>2018-10-17T09:29:45Z</time>
      </trkpt>
      <trkpt lat="45.83882" lon="6.44914">
        <ele>2165</ele>
        <time>2018-10-17T09:29:46Z</time>
      </trkpt>
      <trkpt lat="45.83882" lon="6.44914">
        <ele>2165</ele>
        <time>2018-10-17T09:29:47Z</time>
      </trkpt>
      <trkpt lat="45.8388" lon="6.44916">
        <ele>2165</ele>
        <time>2018-10-17T09:29:48Z</time>
      </trkpt>
      <trkpt lat="45.8388" lon="6.44916">
        <ele>2165</ele>
        <time>2018-10-17T09:29:49Z</time>
      </trkpt>
      <trkpt lat="45.83877" lon="6.44917">
        <ele>2165</ele>
        <time>2018-10-17T09:29:50Z</time>
      </trkpt>
      <trkpt lat="45.83877" lon="6.44917">
        <ele>2165</ele>
        <time>2018-10-17T09:29:51Z</time>
      </trkpt>
      <trkpt lat="45.83875" lon="6.44919">
        <ele>2165</ele>
        <time>2018-10-17T09:29:52Z</time>
      </trkpt>
      <trkpt lat="45.83875" lon="6.44919">
        <ele>2165</ele>
        <time>2018-10-17T09:29:53Z</time>
      </trkpt>
      <trkpt lat="45.83874" lon="6.44922">
        <ele>2165</ele>
        <time>2018-10-17T09:29:54Z</time>
      </trkpt>
      <trkpt lat="45.83874" lon="6.44922">
        <ele>2165</ele>
        <time>2018-10-17T09:29:55Z</time>
      </trkpt>
      <trkpt lat="45.83874" lon="6.44922">
        <ele>2165</ele>
        <time>2018-10-17T09:29:56Z</time>
      </trkpt>
      <trkpt lat="45.83873" lon="6.44925">
        <ele>2166</ele>
        <time>2018-10-17T09:29:57Z</time>
      </trkpt>
      <trkpt lat="45.83873" lon="6.44925">
        <ele>2166</ele>
        <time>2018-10-17T09:29:58Z</time>
      </trkpt>
      <trkpt lat="45.83873" lon="6.44925">
        <ele>2166</ele>
        <time>2018-10-17T09:29:59Z</time>
      </trkpt>
      <trkpt lat="45.83872" lon="6.44929">
        <ele>2166</ele>
        <time>2018-10-17T09:30:00Z</time>
      </trkpt>
      <trkpt lat="45.83872" lon="6.44929">
        <ele>2166</ele>
        <time>2018-10-17T09:30:01Z</time>
      </trkpt>
      <trkpt lat="45.83871" lon="6.44932">
        <ele>2166</ele>
        <time>2018-10-17T09:30:02Z</time>
      </trkpt>
      <trkpt lat="45.83871" lon="6.44932">
        <ele>2166</ele>
        <time>2018-10-17T09:30:03Z</time>
      </trkpt>
      <trkpt lat="45.8387" lon="6.44935">
        <ele>2166</ele>
        <time>2018-10-17T09:30:04Z</time>
      </trkpt>
      <trkpt lat="45.8387" lon="6.44935">
        <ele>2166</ele>
        <time>2018-10-17T09:30:05Z</time>
      </trkpt>
      <trkpt lat="45.83868" lon="6.44938">
        <ele>2166</ele>
        <time>2018-10-17T09:30:06Z</time>
      </trkpt>
      <trkpt lat="45.83868" lon="6.44938">
        <ele>2166</ele>
        <time>2018-10-17T09:30:07Z</time>
      </trkpt>
      <trkpt lat="45.83867" lon="6.4494">
        <ele>2166</ele>
        <time>2018-10-17T09:30:08Z</time>
      </trkpt>
      <trkpt lat="45.83867" lon="6.4494">
        <ele>2166</ele>
        <time>2018-10-17T09:30:09Z</time>
      </trkpt>
      <trkpt lat="45.83865" lon="6.44942">
        <ele>2166</ele>
        <time>2018-10-17T09:30:10Z</time>
      </trkpt>
      <trkpt lat="45.83865" lon="6.44942">
        <ele>2166</ele>
        <time>2018-10-17T09:30:11Z</time>
      </trkpt>
      <trkpt lat="45.83864" lon="6.44944">
        <ele>2166</ele>
        <time>2018-10-17T09:30:12Z</time>
      </trkpt>
      <trkpt lat="45.83864" lon="6.44944">
        <ele>2164</ele>
        <time>2018-10-17T09:30:13Z</time>
      </trkpt>
      <trkpt lat="45.83861" lon="6.44947">
        <ele>2164</ele>
        <time>2018-10-17T09:30:14Z</time>
      </trkpt>
      <trkpt lat="45.83861" lon="6.44947">
        <ele>2164</ele>
        <time>2018-10-17T09:30:15Z</time>
      </trkpt>
      <trkpt lat="45.83859" lon="6.44949">
        <ele>2164</ele>
        <time>2018-10-17T09:30:16Z</time>
      </trkpt>
      <trkpt lat="45.83859" lon="6.44949">
        <ele>2164</ele>
        <time>2018-10-17T09:30:17Z</time>
      </trkpt>
      <trkpt lat="45.83857" lon="6.44952">
        <ele>2164</ele>
        <time>2018-10-17T09:30:18Z</time>
      </trkpt>
      <trkpt lat="45.83857" lon="6.44952">
        <ele>2164</ele>
        <time>2018-10-17T09:30:19Z</time>
      </trkpt>
      <trkpt lat="45.83857" lon="6.44952">
        <ele>2163</ele>
        <time>2018-10-17T09:30:20Z</time>
      </trkpt>
      <trkpt lat="45.83857" lon="6.44952">
        <ele>2163</ele>
        <time>2018-10-17T09:30:21Z</time>
      </trkpt>
      <trkpt lat="45.83857" lon="6.44952">
        <ele>2163</ele>
        <time>2018-10-17T09:30:22Z</time>
      </trkpt>
      <trkpt lat="45.83857" lon="6.44952">
        <ele>2163</ele>
        <time>2018-10-17T09:30:23Z</time>
      </trkpt>
      <trkpt lat="45.83857" lon="6.44952">
        <ele>2163</ele>
        <time>2018-10-17T09:30:24Z</time>
      </trkpt>
      <trkpt lat="45.83857" lon="6.44952">
        <ele>2163</ele>
        <time>2018-10-17T09:30:25Z</time>
      </trkpt>
      <trkpt lat="45.83857" lon="6.44952">
        <ele>2163</ele>
        <time>2018-10-17T09:30:26Z</time>
      </trkpt>
      <trkpt lat="45.83857" lon="6.44952">
        <ele>2163</ele>
        <time>2018-10-17T09:30:27Z</time>
      </trkpt>
      <trkpt lat="45.83857" lon="6.44952">
        <ele>2163</ele>
        <time>2018-10-17T09:30:28Z</time>
      </trkpt>
      <trkpt lat="45.83857" lon="6.44952">
        <ele>2163</ele>
        <time>2018-10-17T09:30:29Z</time>
      </trkpt>
      <trkpt lat="45.83857" lon="6.44952">
        <ele>2163</ele>
        <time>2018-10-17T09:30:30Z</time>
      </trkpt>
      <trkpt lat="45.83855" lon="6.44955">
        <ele>2163</ele>
        <time>2018-10-17T09:30:31Z</time>
      </trkpt>
      <trkpt lat="45.83855" lon="6.44955">
        <ele>2163</ele>
        <time>2018-10-17T09:30:32Z</time>
      </trkpt>
      <trkpt lat="45.83854" lon="6.44956">
        <ele>2163</ele>
        <time>2018-10-17T09:30:33Z</time>
      </trkpt>
      <trkpt lat="45.83854" lon="6.44956">
        <ele>2163</ele>
        <time>2018-10-17T09:30:34Z</time>
      </trkpt>
      <trkpt lat="45.83851" lon="6.44958">
        <ele>2162</ele>
        <time>2018-10-17T09:30:35Z</time>
      </trkpt>
      <trkpt lat="45.83851" lon="6.44958">
        <ele>2161</ele>
        <time>2018-10-17T09:30:36Z</time>
      </trkpt>
      <trkpt lat="45.83849" lon="6.44961">
        <ele>2161</ele>
        <time>2018-10-17T09:30:37Z</time>
      </trkpt>
      <trkpt lat="45.83849" lon="6.44961">
        <ele>2161</ele>
        <time>2018-10-17T09:30:38Z</time>
      </trkpt>
      <trkpt lat="45.83848" lon="6.44964">
        <ele>2161</ele>
        <time>2018-10-17T09:30:39Z</time>
      </trkpt>
      <trkpt lat="45.83848" lon="6.44964">
        <ele>2161</ele>
        <time>2018-10-17T09:30:40Z</time>
      </trkpt>
      <trkpt lat="45.83847" lon="6.44966">
        <ele>2161</ele>
        <time>2018-10-17T09:30:41Z</time>
      </trkpt>
      <trkpt lat="45.83847" lon="6.44966">
        <ele>2161</ele>
        <time>2018-10-17T09:30:42Z</time>
      </trkpt>
      <trkpt lat="45.83845" lon="6.44969">
        <ele>2161</ele>
        <time>2018-10-17T09:30:43Z</time>
      </trkpt>
      <trkpt lat="45.83845" lon="6.44969">
        <ele>2159</ele>
        <time>2018-10-17T09:30:44Z</time>
      </trkpt>
      <trkpt lat="45.83843" lon="6.4497">
        <ele>2158</ele>
        <time>2018-10-17T09:30:45Z</time>
      </trkpt>
      <trkpt lat="45.83843" lon="6.4497">
        <ele>2158</ele>
        <time>2018-10-17T09:30:46Z</time>
      </trkpt>
      <trkpt lat="45.8384" lon="6.44972">
        <ele>2158</ele>
        <time>2018-10-17T09:30:47Z</time>
      </trkpt>
      <trkpt lat="45.8384" lon="6.44972">
        <ele>2158</ele>
        <time>2018-10-17T09:30:48Z</time>
      </trkpt>
      <trkpt lat="45.83838" lon="6.44973">
        <ele>2158</ele>
        <time>2018-10-17T09:30:49Z</time>
      </trkpt>
      <trkpt lat="45.83838" lon="6.44973">
        <ele>2158</ele>
        <time>2018-10-17T09:30:50Z</time>
      </trkpt>
      <trkpt lat="45.83836" lon="6.44975">
        <ele>2157</ele>
        <time>2018-10-17T09:30:51Z</time>
      </trkpt>
      <trkpt lat="45.83836" lon="6.44975">
        <ele>2157</ele>
        <time>2018-10-17T09:30:52Z</time>
      </trkpt>
      <trkpt lat="45.83834" lon="6.44976">
        <ele>2157</ele>
        <time>2018-10-17T09:30:53Z</time>
      </trkpt>
      <trkpt lat="45.83834" lon="6.44976">
        <ele>2157</ele>
        <time>2018-10-17T09:30:54Z</time>
      </trkpt>
      <trkpt lat="45.83834" lon="6.44976">
        <ele>2157</ele>
        <time>2018-10-17T09:30:55Z</time>
      </trkpt>
      <trkpt lat="45.83834" lon="6.44976">
        <ele>2157</ele>
        <time>2018-10-17T09:30:56Z</time>
      </trkpt>
      <trkpt lat="45.83834" lon="6.44976">
        <ele>2157</ele>
        <time>2018-10-17T09:30:57Z</time>
      </trkpt>
      <trkpt lat="45.83832" lon="6.44978">
        <ele>2156</ele>
        <time>2018-10-17T09:30:58Z</time>
      </trkpt>
      <trkpt lat="45.83832" lon="6.44978">
        <ele>2156</ele>
        <time>2018-10-17T09:30:59Z</time>
      </trkpt>
      <trkpt lat="45.83832" lon="6.44978">
        <ele>2155</ele>
        <time>2018-10-17T09:31:00Z</time>
      </trkpt>
      <trkpt lat="45.83829" lon="6.4498">
        <ele>2155</ele>
        <time>2018-10-17T09:31:01Z</time>
      </trkpt>
      <trkpt lat="45.83829" lon="6.4498">
        <ele>2155</ele>
        <time>2018-10-17T09:31:02Z</time>
      </trkpt>
      <trkpt lat="45.83827" lon="6.44982">
        <ele>2155</ele>
        <time>2018-10-17T09:31:03Z</time>
      </trkpt>
      <trkpt lat="45.83827" lon="6.44982">
        <ele>2155</ele>
        <time>2018-10-17T09:31:04Z</time>
      </trkpt>
      <trkpt lat="45.83825" lon="6.44984">
        <ele>2154</ele>
        <time>2018-10-17T09:31:05Z</time>
      </trkpt>
      <trkpt lat="45.83825" lon="6.44984">
        <ele>2154</ele>
        <time>2018-10-17T09:31:06Z</time>
      </trkpt>
      <trkpt lat="45.83825" lon="6.44984">
        <ele>2154</ele>
        <time>2018-10-17T09:31:07Z</time>
      </trkpt>
      <trkpt lat="45.83825" lon="6.44984">
        <ele>2154</ele>
        <time>2018-10-17T09:31:08Z</time>
      </trkpt>
      <trkpt lat="45.83825" lon="6.44984">
        <ele>2154</ele>
        <time>2018-10-17T09:31:09Z</time>
      </trkpt>
      <trkpt lat="45.83825" lon="6.44984">
        <ele>2154</ele>
        <time>2018-10-17T09:31:10Z</time>
      </trkpt>
      <trkpt lat="45.83826" lon="6.44986">
        <ele>2155</ele>
        <time>2018-10-17T09:31:11Z</time>
      </trkpt>
      <trkpt lat="45.83826" lon="6.44986">
        <ele>2155</ele>
        <time>2018-10-17T09:31:12Z</time>
      </trkpt>
      <trkpt lat="45.83826" lon="6.44986">
        <ele>2155</ele>
        <time>2018-10-17T09:31:13Z</time>
      </trkpt>
      <trkpt lat="45.83826" lon="6.44986">
        <ele>2155</ele>
        <time>2018-10-17T09:31:14Z</time>
      </trkpt>
      <trkpt lat="45.83826" lon="6.44986">
        <ele>2156</ele>
        <time>2018-10-17T09:31:15Z</time>
      </trkpt>
      <trkpt lat="45.83826" lon="6.44986">
        <ele>2156</ele>
        <time>2018-10-17T09:31:16Z</time>
      </trkpt>
      <trkpt lat="45.83826" lon="6.4499">
        <ele>2156</ele>
        <time>2018-10-17T09:31:17Z</time>
      </trkpt>
      <trkpt lat="45.83826" lon="6.4499">
        <ele>2157</ele>
        <time>2018-10-17T09:31:18Z</time>
      </trkpt>
      <trkpt lat="45.83826" lon="6.4499">
        <ele>2158</ele>
        <time>2018-10-17T09:31:19Z</time>
      </trkpt>
      <trkpt lat="45.83826" lon="6.4499">
        <ele>2158</ele>
        <time>2018-10-17T09:31:20Z</time>
      </trkpt>
      <trkpt lat="45.83826" lon="6.44992">
        <ele>2158</ele>
        <time>2018-10-17T09:31:21Z</time>
      </trkpt>
      <trkpt lat="45.83826" lon="6.44992">
        <ele>2158</ele>
        <time>2018-10-17T09:31:22Z</time>
      </trkpt>
      <trkpt lat="45.83826" lon="6.44992">
        <ele>2158</ele>
        <time>2018-10-17T09:31:23Z</time>
      </trkpt>
      <trkpt lat="45.83826" lon="6.44992">
        <ele>2158</ele>
        <time>2018-10-17T09:31:24Z</time>
      </trkpt>
      <trkpt lat="45.83826" lon="6.44992">
        <ele>2158</ele>
        <time>2018-10-17T09:31:25Z</time>
      </trkpt>
      <trkpt lat="45.83826" lon="6.44992">
        <ele>2158</ele>
        <time>2018-10-17T09:31:26Z</time>
      </trkpt>
      <trkpt lat="45.83826" lon="6.44992">
        <ele>2158</ele>
        <time>2018-10-17T09:31:27Z</time>
      </trkpt>
      <trkpt lat="45.83826" lon="6.44992">
        <ele>2158</ele>
        <time>2018-10-17T09:31:28Z</time>
      </trkpt>
      <trkpt lat="45.83826" lon="6.44992">
        <ele>2158</ele>
        <time>2018-10-17T09:31:29Z</time>
      </trkpt>
      <trkpt lat="45.83826" lon="6.44992">
        <ele>2159</ele>
        <time>2018-10-17T09:31:30Z</time>
      </trkpt>
      <trkpt lat="45.83826" lon="6.44992">
        <ele>2159</ele>
        <time>2018-10-17T09:31:31Z</time>
      </trkpt>
      <trkpt lat="45.83826" lon="6.44996">
        <ele>2159</ele>
        <time>2018-10-17T09:31:32Z</time>
      </trkpt>
      <trkpt lat="45.83826" lon="6.44996">
        <ele>2160</ele>
        <time>2018-10-17T09:31:33Z</time>
      </trkpt>
      <trkpt lat="45.83826" lon="6.44996">
        <ele>2160</ele>
        <time>2018-10-17T09:31:34Z</time>
      </trkpt>
      <trkpt lat="45.83826" lon="6.44996">
        <ele>2160</ele>
        <time>2018-10-17T09:31:35Z</time>
      </trkpt>
      <trkpt lat="45.83826" lon="6.44998">
        <ele>2160</ele>
        <time>2018-10-17T09:31:36Z</time>
      </trkpt>
      <trkpt lat="45.83826" lon="6.44998">
        <ele>2160</ele>
        <time>2018-10-17T09:31:37Z</time>
      </trkpt>
      <trkpt lat="45.83826" lon="6.44998">
        <ele>2160</ele>
        <time>2018-10-17T09:31:38Z</time>
      </trkpt>
      <trkpt lat="45.83826" lon="6.44998">
        <ele>2160</ele>
        <time>2018-10-17T09:31:39Z</time>
      </trkpt>
      <trkpt lat="45.83825" lon="6.45001">
        <ele>2161</ele>
        <time>2018-10-17T09:31:40Z</time>
      </trkpt>
      <trkpt lat="45.83825" lon="6.45001">
        <ele>2161</ele>
        <time>2018-10-17T09:31:41Z</time>
      </trkpt>
      <trkpt lat="45.83825" lon="6.45001">
        <ele>2161</ele>
        <time>2018-10-17T09:31:42Z</time>
      </trkpt>
      <trkpt lat="45.83825" lon="6.45001">
        <ele>2162</ele>
        <time>2018-10-17T09:31:43Z</time>
      </trkpt>
      <trkpt lat="45.83824" lon="6.45003">
        <ele>2162</ele>
        <time>2018-10-17T09:31:44Z</time>
      </trkpt>
      <trkpt lat="45.83824" lon="6.45003">
        <ele>2163</ele>
        <time>2018-10-17T09:31:45Z</time>
      </trkpt>
      <trkpt lat="45.83824" lon="6.45003">
        <ele>2163</ele>
        <time>2018-10-17T09:31:46Z</time>
      </trkpt>
      <trkpt lat="45.83824" lon="6.45003">
        <ele>2163</ele>
        <time>2018-10-17T09:31:47Z</time>
      </trkpt>
      <trkpt lat="45.83824" lon="6.45003">
        <ele>2163</ele>
        <time>2018-10-17T09:31:48Z</time>
      </trkpt>
      <trkpt lat="45.83825" lon="6.45007">
        <ele>2163</ele>
        <time>2018-10-17T09:31:49Z</time>
      </trkpt>
      <trkpt lat="45.83825" lon="6.45007">
        <ele>2163</ele>
        <time>2018-10-17T09:31:50Z</time>
      </trkpt>
      <trkpt lat="45.83825" lon="6.45007">
        <ele>2163</ele>
        <time>2018-10-17T09:31:51Z</time>
      </trkpt>
      <trkpt lat="45.83825" lon="6.45007">
        <ele>2163</ele>
        <time>2018-10-17T09:31:52Z</time>
      </trkpt>
      <trkpt lat="45.83825" lon="6.45007">
        <ele>2164</ele>
        <time>2018-10-17T09:31:53Z</time>
      </trkpt>
      <trkpt lat="45.83825" lon="6.45007">
        <ele>2164</ele>
        <time>2018-10-17T09:31:54Z</time>
      </trkpt>
      <trkpt lat="45.83824" lon="6.45009">
        <ele>2164</ele>
        <time>2018-10-17T09:31:55Z</time>
      </trkpt>
      <trkpt lat="45.83824" lon="6.45009">
        <ele>2164</ele>
        <time>2018-10-17T09:31:56Z</time>
      </trkpt>
      <trkpt lat="45.83824" lon="6.45009">
        <ele>2164</ele>
        <time>2018-10-17T09:31:57Z</time>
      </trkpt>
      <trkpt lat="45.83824" lon="6.45009">
        <ele>2165</ele>
        <time>2018-10-17T09:31:58Z</time>
      </trkpt>
      <trkpt lat="45.83823" lon="6.45011">
        <ele>2165</ele>
        <time>2018-10-17T09:31:59Z</time>
      </trkpt>
      <trkpt lat="45.83823" lon="6.45011">
        <ele>2165</ele>
        <time>2018-10-17T09:32:00Z</time>
      </trkpt>
      <trkpt lat="45.83823" lon="6.45011">
        <ele>2165</ele>
        <time>2018-10-17T09:32:01Z</time>
      </trkpt>
      <trkpt lat="45.83823" lon="6.45011">
        <ele>2165</ele>
        <time>2018-10-17T09:32:02Z</time>
      </trkpt>
      <trkpt lat="45.83823" lon="6.45011">
        <ele>2165</ele>
        <time>2018-10-17T09:32:03Z</time>
      </trkpt>
      <trkpt lat="45.83823" lon="6.45011">
        <ele>2166</ele>
        <time>2018-10-17T09:32:04Z</time>
      </trkpt>
      <trkpt lat="45.83823" lon="6.45011">
        <ele>2166</ele>
        <time>2018-10-17T09:32:05Z</time>
      </trkpt>
      <trkpt lat="45.83823" lon="6.45011">
        <ele>2166</ele>
        <time>2018-10-17T09:32:06Z</time>
      </trkpt>
      <trkpt lat="45.83822" lon="6.45014">
        <ele>2167</ele>
        <time>2018-10-17T09:32:07Z</time>
      </trkpt>
      <trkpt lat="45.83822" lon="6.45014">
        <ele>2167</ele>
        <time>2018-10-17T09:32:08Z</time>
      </trkpt>
      <trkpt lat="45.83822" lon="6.45014">
        <ele>2167</ele>
        <time>2018-10-17T09:32:09Z</time>
      </trkpt>
      <trkpt lat="45.83822" lon="6.45014">
        <ele>2168</ele>
        <time>2018-10-17T09:32:10Z</time>
      </trkpt>
      <trkpt lat="45.83821" lon="6.45016">
        <ele>2168</ele>
        <time>2018-10-17T09:32:11Z</time>
      </trkpt>
      <trkpt lat="45.83821" lon="6.45016">
        <ele>2168</ele>
        <time>2018-10-17T09:32:12Z</time>
      </trkpt>
      <trkpt lat="45.83821" lon="6.45016">
        <ele>2168</ele>
        <time>2018-10-17T09:32:13Z</time>
      </trkpt>
      <trkpt lat="45.83821" lon="6.45016">
        <ele>2168</ele>
        <time>2018-10-17T09:32:14Z</time>
      </trkpt>
      <trkpt lat="45.83821" lon="6.45016">
        <ele>2168</ele>
        <time>2018-10-17T09:32:15Z</time>
      </trkpt>
      <trkpt lat="45.83821" lon="6.45016">
        <ele>2168</ele>
        <time>2018-10-17T09:32:16Z</time>
      </trkpt>
      <trkpt lat="45.83821" lon="6.45016">
        <ele>2168</ele>
        <time>2018-10-17T09:32:17Z</time>
      </trkpt>
      <trkpt lat="45.83821" lon="6.45016">
        <ele>2168</ele>
        <time>2018-10-17T09:32:18Z</time>
      </trkpt>
      <trkpt lat="45.83821" lon="6.45016">
        <ele>2168</ele>
        <time>2018-10-17T09:32:19Z</time>
      </trkpt>
      <trkpt lat="45.83821" lon="6.45016">
        <ele>2168</ele>
        <time>2018-10-17T09:32:20Z</time>
      </trkpt>
      <trkpt lat="45.83821" lon="6.45016">
        <ele>2169</ele>
        <time>2018-10-17T09:32:21Z</time>
      </trkpt>
      <trkpt lat="45.83821" lon="6.45016">
        <ele>2169</ele>
        <time>2018-10-17T09:32:22Z</time>
      </trkpt>
      <trkpt lat="45.83821" lon="6.45016">
        <ele>2169</ele>
        <time>2018-10-17T09:32:23Z</time>
      </trkpt>
      <trkpt lat="45.83821" lon="6.45016">
        <ele>2169</ele>
        <time>2018-10-17T09:32:24Z</time>
      </trkpt>
      <trkpt lat="45.83821" lon="6.45016">
        <ele>2169</ele>
        <time>2018-10-17T09:32:25Z</time>
      </trkpt>
      <trkpt lat="45.83821" lon="6.45016">
        <ele>2169</ele>
        <time>2018-10-17T09:32:26Z</time>
      </trkpt>
      <trkpt lat="45.83821" lon="6.45016">
        <ele>2169</ele>
        <time>2018-10-17T09:32:27Z</time>
      </trkpt>
      <trkpt lat="45.83821" lon="6.45016">
        <ele>2169</ele>
        <time>2018-10-17T09:32:28Z</time>
      </trkpt>
      <trkpt lat="45.83821" lon="6.45016">
        <ele>2169</ele>
        <time>2018-10-17T09:32:29Z</time>
      </trkpt>
      <trkpt lat="45.83821" lon="6.45016">
        <ele>2169</ele>
        <time>2018-10-17T09:32:30Z</time>
      </trkpt>
      <trkpt lat="45.83821" lon="6.45016">
        <ele>2169</ele>
        <time>2018-10-17T09:32:31Z</time>
      </trkpt>
      <trkpt lat="45.83821" lon="6.45016">
        <ele>2169</ele>
        <time>2018-10-17T09:32:32Z</time>
      </trkpt>
      <trkpt lat="45.83821" lon="6.45016">
        <ele>2169</ele>
        <time>2018-10-17T09:32:33Z</time>
      </trkpt>
      <trkpt lat="45.83821" lon="6.45016">
        <ele>2169</ele>
        <time>2018-10-17T09:32:34Z</time>
      </trkpt>
      <trkpt lat="45.83821" lon="6.45016">
        <ele>2169</ele>
        <time>2018-10-17T09:32:35Z</time>
      </trkpt>
      <trkpt lat="45.83821" lon="6.45016">
        <ele>2169</ele>
        <time>2018-10-17T09:32:36Z</time>
      </trkpt>
      <trkpt lat="45.83821" lon="6.45016">
        <ele>2169</ele>
        <time>2018-10-17T09:32:37Z</time>
      </trkpt>
      <trkpt lat="45.83821" lon="6.45016">
        <ele>2169</ele>
        <time>2018-10-17T09:32:38Z</time>
      </trkpt>
      <trkpt lat="45.83821" lon="6.45016">
        <ele>2169</ele>
        <time>2018-10-17T09:32:39Z</time>
      </trkpt>
      <trkpt lat="45.83821" lon="6.45016">
        <ele>2168</ele>
        <time>2018-10-17T09:32:40Z</time>
      </trkpt>
      <trkpt lat="45.83821" lon="6.45016">
        <ele>2168</ele>
        <time>2018-10-17T09:32:41Z</time>
      </trkpt>
      <trkpt lat="45.83821" lon="6.45016">
        <ele>2168</ele>
        <time>2018-10-17T09:32:42Z</time>
      </trkpt>
      <trkpt lat="45.83821" lon="6.45016">
        <ele>2168</ele>
        <time>2018-10-17T09:32:43Z</time>
      </trkpt>
      <trkpt lat="45.83821" lon="6.45016">
        <ele>2168</ele>
        <time>2018-10-17T09:32:44Z</time>
      </trkpt>
      <trkpt lat="45.83821" lon="6.45016">
        <ele>2168</ele>
        <time>2018-10-17T09:32:45Z</time>
      </trkpt>
      <trkpt lat="45.83821" lon="6.45016">
        <ele>2168</ele>
        <time>2018-10-17T09:32:46Z</time>
      </trkpt>
      <trkpt lat="45.83821" lon="6.45016">
        <ele>2168</ele>
        <time>2018-10-17T09:32:47Z</time>
      </trkpt>
      <trkpt lat="45.83821" lon="6.45016">
        <ele>2168</ele>
        <time>2018-10-17T09:32:48Z</time>
      </trkpt>
      <trkpt lat="45.83821" lon="6.45016">
        <ele>2168</ele>
        <time>2018-10-17T09:32:49Z</time>
      </trkpt>
      <trkpt lat="45.83821" lon="6.45016">
        <ele>2167</ele>
        <time>2018-10-17T09:32:50Z</time>
      </trkpt>
      <trkpt lat="45.83821" lon="6.45016">
        <ele>2167</ele>
        <time>2018-10-17T09:32:51Z</time>
      </trkpt>
      <trkpt lat="45.83821" lon="6.45016">
        <ele>2167</ele>
        <time>2018-10-17T09:32:52Z</time>
      </trkpt>
      <trkpt lat="45.83821" lon="6.45016">
        <ele>2167</ele>
        <time>2018-10-17T09:32:53Z</time>
      </trkpt>
      <trkpt lat="45.83821" lon="6.45016">
        <ele>2167</ele>
        <time>2018-10-17T09:32:54Z</time>
      </trkpt>
      <trkpt lat="45.83821" lon="6.45016">
        <ele>2167</ele>
        <time>2018-10-17T09:32:55Z</time>
      </trkpt>
      <trkpt lat="45.83821" lon="6.45016">
        <ele>2167</ele>
        <time>2018-10-17T09:32:56Z</time>
      </trkpt>
      <trkpt lat="45.83821" lon="6.45016">
        <ele>2167</ele>
        <time>2018-10-17T09:32:57Z</time>
      </trkpt>
      <trkpt lat="45.83821" lon="6.45016">
        <ele>2167</ele>
        <time>2018-10-17T09:32:58Z</time>
      </trkpt>
      <trkpt lat="45.83821" lon="6.45016">
        <ele>2167</ele>
        <time>2018-10-17T09:32:59Z</time>
      </trkpt>
      <trkpt lat="45.83821" lon="6.45016">
        <ele>2167</ele>
        <time>2018-10-17T09:33:00Z</time>
      </trkpt>
      <trkpt lat="45.83821" lon="6.45016">
        <ele>2167</ele>
        <time>2018-10-17T09:33:01Z</time>
      </trkpt>
      <trkpt lat="45.83821" lon="6.45016">
        <ele>2167</ele>
        <time>2018-10-17T09:33:02Z</time>
      </trkpt>
      <trkpt lat="45.83821" lon="6.45016">
        <ele>2167</ele>
        <time>2018-10-17T09:33:03Z</time>
      </trkpt>
      <trkpt lat="45.83821" lon="6.45016">
        <ele>2167</ele>
        <time>2018-10-17T09:33:04Z</time>
      </trkpt>
      <trkpt lat="45.83821" lon="6.45016">
        <ele>2167</ele>
        <time>2018-10-17T09:33:05Z</time>
      </trkpt>
      <trkpt lat="45.83821" lon="6.45016">
        <ele>2167</ele>
        <time>2018-10-17T09:33:06Z</time>
      </trkpt>
      <trkpt lat="45.83821" lon="6.45016">
        <ele>2167</ele>
        <time>2018-10-17T09:33:07Z</time>
      </trkpt>
      <trkpt lat="45.83821" lon="6.45016">
        <ele>2167</ele>
        <time>2018-10-17T09:33:08Z</time>
      </trkpt>
      <trkpt lat="45.83821" lon="6.45016">
        <ele>2167</ele>
        <time>2018-10-17T09:33:09Z</time>
      </trkpt>
      <trkpt lat="45.83821" lon="6.45016">
        <ele>2167</ele>
        <time>2018-10-17T09:33:10Z</time>
      </trkpt>
      <trkpt lat="45.83821" lon="6.45016">
        <ele>2167</ele>
        <time>2018-10-17T09:33:11Z</time>
      </trkpt>
      <trkpt lat="45.83821" lon="6.45016">
        <ele>2167</ele>
        <time>2018-10-17T09:33:12Z</time>
      </trkpt>
      <trkpt lat="45.83821" lon="6.45016">
        <ele>2167</ele>
        <time>2018-10-17T09:33:13Z</time>
      </trkpt>
      <trkpt lat="45.83821" lon="6.45016">
        <ele>2167</ele>
        <time>2018-10-17T09:33:14Z</time>
      </trkpt>
      <trkpt lat="45.83821" lon="6.45016">
        <ele>2167</ele>
        <time>2018-10-17T09:33:15Z</time>
      </trkpt>
      <trkpt lat="45.83821" lon="6.45016">
        <ele>2167</ele>
        <time>2018-10-17T09:33:16Z</time>
      </trkpt>
      <trkpt lat="45.83821" lon="6.45016">
        <ele>2167</ele>
        <time>2018-10-17T09:33:17Z</time>
      </trkpt>
      <trkpt lat="45.83821" lon="6.45016">
        <ele>2167</ele>
        <time>2018-10-17T09:33:18Z</time>
      </trkpt>
      <trkpt lat="45.83821" lon="6.45016">
        <ele>2167</ele>
        <time>2018-10-17T09:33:19Z</time>
      </trkpt>
      <trkpt lat="45.83821" lon="6.45016">
        <ele>2167</ele>
        <time>2018-10-17T09:33:20Z</time>
      </trkpt>
      <trkpt lat="45.83821" lon="6.45016">
        <ele>2167</ele>
        <time>2018-10-17T09:33:21Z</time>
      </trkpt>
      <trkpt lat="45.83821" lon="6.45016">
        <ele>2167</ele>
        <time>2018-10-17T09:33:22Z</time>
      </trkpt>
      <trkpt lat="45.83819" lon="6.45017">
        <ele>2168</ele>
        <time>2018-10-17T09:33:23Z</time>
      </trkpt>
      <trkpt lat="45.83819" lon="6.45017">
        <ele>2168</ele>
        <time>2018-10-17T09:33:24Z</time>
      </trkpt>
      <trkpt lat="45.83819" lon="6.45017">
        <ele>2168</ele>
        <time>2018-10-17T09:33:25Z</time>
      </trkpt>
      <trkpt lat="45.83817" lon="6.45018">
        <ele>2168</ele>
        <time>2018-10-17T09:33:26Z</time>
      </trkpt>
      <trkpt lat="45.83817" lon="6.45018">
        <ele>2169</ele>
        <time>2018-10-17T09:33:27Z</time>
      </trkpt>
      <trkpt lat="45.83817" lon="6.45018">
        <ele>2169</ele>
        <time>2018-10-17T09:33:28Z</time>
      </trkpt>
      <trkpt lat="45.83815" lon="6.4502">
        <ele>2169</ele>
        <time>2018-10-17T09:33:29Z</time>
      </trkpt>
      <trkpt lat="45.83815" lon="6.4502">
        <ele>2169</ele>
        <time>2018-10-17T09:33:30Z</time>
      </trkpt>
      <trkpt lat="45.83815" lon="6.4502">
        <ele>2169</ele>
        <time>2018-10-17T09:33:31Z</time>
      </trkpt>
      <trkpt lat="45.83815" lon="6.4502">
        <ele>2169</ele>
        <time>2018-10-17T09:33:32Z</time>
      </trkpt>
      <trkpt lat="45.83814" lon="6.45021">
        <ele>2169</ele>
        <time>2018-10-17T09:33:33Z</time>
      </trkpt>
      <trkpt lat="45.83814" lon="6.45021">
        <ele>2170</ele>
        <time>2018-10-17T09:33:34Z</time>
      </trkpt>
      <trkpt lat="45.83814" lon="6.45021">
        <ele>2170</ele>
        <time>2018-10-17T09:33:35Z</time>
      </trkpt>
      <trkpt lat="45.83811" lon="6.45022">
        <ele>2170</ele>
        <time>2018-10-17T09:33:36Z</time>
      </trkpt>
      <trkpt lat="45.83811" lon="6.45022">
        <ele>2171</ele>
        <time>2018-10-17T09:33:37Z</time>
      </trkpt>
      <trkpt lat="45.83811" lon="6.45022">
        <ele>2171</ele>
        <time>2018-10-17T09:33:38Z</time>
      </trkpt>
      <trkpt lat="45.83809" lon="6.45023">
        <ele>2171</ele>
        <time>2018-10-17T09:33:39Z</time>
      </trkpt>
      <trkpt lat="45.83809" lon="6.45023">
        <ele>2172</ele>
        <time>2018-10-17T09:33:40Z</time>
      </trkpt>
      <trkpt lat="45.83809" lon="6.45023">
        <ele>2172</ele>
        <time>2018-10-17T09:33:41Z</time>
      </trkpt>
      <trkpt lat="45.83809" lon="6.45023">
        <ele>2172</ele>
        <time>2018-10-17T09:33:42Z</time>
      </trkpt>
      <trkpt lat="45.83807" lon="6.45021">
        <ele>2172</ele>
        <time>2018-10-17T09:33:43Z</time>
      </trkpt>
      <trkpt lat="45.83807" lon="6.45021">
        <ele>2172</ele>
        <time>2018-10-17T09:33:44Z</time>
      </trkpt>
      <trkpt lat="45.83807" lon="6.45021">
        <ele>2172</ele>
        <time>2018-10-17T09:33:45Z</time>
      </trkpt>
      <trkpt lat="45.83805" lon="6.45021">
        <ele>2172</ele>
        <time>2018-10-17T09:33:46Z</time>
      </trkpt>
      <trkpt lat="45.83805" lon="6.45021">
        <ele>2172</ele>
        <time>2018-10-17T09:33:47Z</time>
      </trkpt>
      <trkpt lat="45.83803" lon="6.45021">
        <ele>2172</ele>
        <time>2018-10-17T09:33:48Z</time>
      </trkpt>
      <trkpt lat="45.83803" lon="6.45021">
        <ele>2172</ele>
        <time>2018-10-17T09:33:49Z</time>
      </trkpt>
      <trkpt lat="45.83803" lon="6.45021">
        <ele>2172</ele>
        <time>2018-10-17T09:33:50Z</time>
      </trkpt>
      <trkpt lat="45.83801" lon="6.4502">
        <ele>2172</ele>
        <time>2018-10-17T09:33:51Z</time>
      </trkpt>
      <trkpt lat="45.83801" lon="6.4502">
        <ele>2171</ele>
        <time>2018-10-17T09:33:52Z</time>
      </trkpt>
      <trkpt lat="45.83801" lon="6.4502">
        <ele>2171</ele>
        <time>2018-10-17T09:33:53Z</time>
      </trkpt>
      <trkpt lat="45.83799" lon="6.45021">
        <ele>2171</ele>
        <time>2018-10-17T09:33:54Z</time>
      </trkpt>
      <trkpt lat="45.83799" lon="6.45021">
        <ele>2172</ele>
        <time>2018-10-17T09:33:55Z</time>
      </trkpt>
      <trkpt lat="45.83799" lon="6.45021">
        <ele>2172</ele>
        <time>2018-10-17T09:33:56Z</time>
      </trkpt>
      <trkpt lat="45.83797" lon="6.45023">
        <ele>2172</ele>
        <time>2018-10-17T09:33:57Z</time>
      </trkpt>
      <trkpt lat="45.83797" lon="6.45023">
        <ele>2172</ele>
        <time>2018-10-17T09:33:58Z</time>
      </trkpt>
      <trkpt lat="45.83797" lon="6.45023">
        <ele>2172</ele>
        <time>2018-10-17T09:33:59Z</time>
      </trkpt>
      <trkpt lat="45.83795" lon="6.45024">
        <ele>2172</ele>
        <time>2018-10-17T09:34:00Z</time>
      </trkpt>
      <trkpt lat="45.83795" lon="6.45024">
        <ele>2172</ele>
        <time>2018-10-17T09:34:01Z</time>
      </trkpt>
      <trkpt lat="45.83795" lon="6.45024">
        <ele>2172</ele>
        <time>2018-10-17T09:34:02Z</time>
      </trkpt>
      <trkpt lat="45.83793" lon="6.45025">
        <ele>2172</ele>
        <time>2018-10-17T09:34:03Z</time>
      </trkpt>
      <trkpt lat="45.83793" lon="6.45025">
        <ele>2171</ele>
        <time>2018-10-17T09:34:04Z</time>
      </trkpt>
      <trkpt lat="45.83793" lon="6.45025">
        <ele>2171</ele>
        <time>2018-10-17T09:34:05Z</time>
      </trkpt>
      <trkpt lat="45.8379" lon="6.45024">
        <ele>2171</ele>
        <time>2018-10-17T09:34:06Z</time>
      </trkpt>
      <trkpt lat="45.8379" lon="6.45024">
        <ele>2170</ele>
        <time>2018-10-17T09:34:07Z</time>
      </trkpt>
      <trkpt lat="45.8379" lon="6.45024">
        <ele>2170</ele>
        <time>2018-10-17T09:34:08Z</time>
      </trkpt>
      <trkpt lat="45.8379" lon="6.45024">
        <ele>2170</ele>
        <time>2018-10-17T09:34:09Z</time>
      </trkpt>
      <trkpt lat="45.8379" lon="6.45024">
        <ele>2169</ele>
        <time>2018-10-17T09:34:10Z</time>
      </trkpt>
      <trkpt lat="45.8379" lon="6.45024">
        <ele>2169</ele>
        <time>2018-10-17T09:34:11Z</time>
      </trkpt>
      <trkpt lat="45.8379" lon="6.45024">
        <ele>2169</ele>
        <time>2018-10-17T09:34:12Z</time>
      </trkpt>
      <trkpt lat="45.8379" lon="6.45024">
        <ele>2169</ele>
        <time>2018-10-17T09:34:13Z</time>
      </trkpt>
      <trkpt lat="45.8379" lon="6.45024">
        <ele>2169</ele>
        <time>2018-10-17T09:34:14Z</time>
      </trkpt>
      <trkpt lat="45.83789" lon="6.45023">
        <ele>2169</ele>
        <time>2018-10-17T09:34:15Z</time>
      </trkpt>
      <trkpt lat="45.83789" lon="6.45023">
        <ele>2169</ele>
        <time>2018-10-17T09:34:16Z</time>
      </trkpt>
      <trkpt lat="45.83789" lon="6.45023">
        <ele>2169</ele>
        <time>2018-10-17T09:34:17Z</time>
      </trkpt>
      <trkpt lat="45.83789" lon="6.45023">
        <ele>2169</ele>
        <time>2018-10-17T09:34:18Z</time>
      </trkpt>
      <trkpt lat="45.83789" lon="6.45023">
        <ele>2169</ele>
        <time>2018-10-17T09:34:19Z</time>
      </trkpt>
      <trkpt lat="45.83789" lon="6.45023">
        <ele>2169</ele>
        <time>2018-10-17T09:34:20Z</time>
      </trkpt>
      <trkpt lat="45.83789" lon="6.45023">
        <ele>2169</ele>
        <time>2018-10-17T09:34:21Z</time>
      </trkpt>
      <trkpt lat="45.83789" lon="6.45023">
        <ele>2169</ele>
        <time>2018-10-17T09:34:22Z</time>
      </trkpt>
      <trkpt lat="45.83789" lon="6.45023">
        <ele>2167</ele>
        <time>2018-10-17T09:34:23Z</time>
      </trkpt>
      <trkpt lat="45.83789" lon="6.45023">
        <ele>2167</ele>
        <time>2018-10-17T09:34:24Z</time>
      </trkpt>
      <trkpt lat="45.83789" lon="6.45023">
        <ele>2167</ele>
        <time>2018-10-17T09:34:25Z</time>
      </trkpt>
      <trkpt lat="45.83789" lon="6.45023">
        <ele>2167</ele>
        <time>2018-10-17T09:34:26Z</time>
      </trkpt>
      <trkpt lat="45.83789" lon="6.45023">
        <ele>2167</ele>
        <time>2018-10-17T09:34:27Z</time>
      </trkpt>
      <trkpt lat="45.83789" lon="6.45023">
        <ele>2167</ele>
        <time>2018-10-17T09:34:28Z</time>
      </trkpt>
      <trkpt lat="45.83789" lon="6.45023">
        <ele>2167</ele>
        <time>2018-10-17T09:34:29Z</time>
      </trkpt>
      <trkpt lat="45.83787" lon="6.45022">
        <ele>2167</ele>
        <time>2018-10-17T09:34:30Z</time>
      </trkpt>
      <trkpt lat="45.83787" lon="6.45022">
        <ele>2167</ele>
        <time>2018-10-17T09:34:31Z</time>
      </trkpt>
      <trkpt lat="45.83787" lon="6.45022">
        <ele>2167</ele>
        <time>2018-10-17T09:34:32Z</time>
      </trkpt>
      <trkpt lat="45.83785" lon="6.45019">
        <ele>2167</ele>
        <time>2018-10-17T09:34:33Z</time>
      </trkpt>
      <trkpt lat="45.83785" lon="6.45019">
        <ele>2167</ele>
        <time>2018-10-17T09:34:34Z</time>
      </trkpt>
      <trkpt lat="45.83783" lon="6.45018">
        <ele>2166</ele>
        <time>2018-10-17T09:34:35Z</time>
      </trkpt>
      <trkpt lat="45.83783" lon="6.45018">
        <ele>2165</ele>
        <time>2018-10-17T09:34:36Z</time>
      </trkpt>
      <trkpt lat="45.83781" lon="6.45017">
        <ele>2164</ele>
        <time>2018-10-17T09:34:37Z</time>
      </trkpt>
      <trkpt lat="45.83781" lon="6.45017">
        <ele>2164</ele>
        <time>2018-10-17T09:34:38Z</time>
      </trkpt>
      <trkpt lat="45.83778" lon="6.45018">
        <ele>2164</ele>
        <time>2018-10-17T09:34:39Z</time>
      </trkpt>
      <trkpt lat="45.83778" lon="6.45018">
        <ele>2164</ele>
        <time>2018-10-17T09:34:40Z</time>
      </trkpt>
      <trkpt lat="45.83776" lon="6.45018">
        <ele>2164</ele>
        <time>2018-10-17T09:34:41Z</time>
      </trkpt>
      <trkpt lat="45.83776" lon="6.45018">
        <ele>2164</ele>
        <time>2018-10-17T09:34:42Z</time>
      </trkpt>
      <trkpt lat="45.83773" lon="6.45017">
        <ele>2164</ele>
        <time>2018-10-17T09:34:43Z</time>
      </trkpt>
      <trkpt lat="45.83773" lon="6.45017">
        <ele>2164</ele>
        <time>2018-10-17T09:34:44Z</time>
      </trkpt>
      <trkpt lat="45.83771" lon="6.45017">
        <ele>2164</ele>
        <time>2018-10-17T09:34:45Z</time>
      </trkpt>
      <trkpt lat="45.83771" lon="6.45017">
        <ele>2164</ele>
        <time>2018-10-17T09:34:46Z</time>
      </trkpt>
      <trkpt lat="45.83768" lon="6.45017">
        <ele>2164</ele>
        <time>2018-10-17T09:34:47Z</time>
      </trkpt>
      <trkpt lat="45.83768" lon="6.45017">
        <ele>2164</ele>
        <time>2018-10-17T09:34:48Z</time>
      </trkpt>
      <trkpt lat="45.83766" lon="6.45017">
        <ele>2164</ele>
        <time>2018-10-17T09:34:49Z</time>
      </trkpt>
      <trkpt lat="45.83766" lon="6.45017">
        <ele>2165</ele>
        <time>2018-10-17T09:34:50Z</time>
      </trkpt>
      <trkpt lat="45.83764" lon="6.45017">
        <ele>2165</ele>
        <time>2018-10-17T09:34:51Z</time>
      </trkpt>
      <trkpt lat="45.83764" lon="6.45017">
        <ele>2165</ele>
        <time>2018-10-17T09:34:52Z</time>
      </trkpt>
      <trkpt lat="45.83764" lon="6.45017">
        <ele>2166</ele>
        <time>2018-10-17T09:34:53Z</time>
      </trkpt>
      <trkpt lat="45.83762" lon="6.45017">
        <ele>2166</ele>
        <time>2018-10-17T09:34:54Z</time>
      </trkpt>
      <trkpt lat="45.83762" lon="6.45017">
        <ele>2166</ele>
        <time>2018-10-17T09:34:55Z</time>
      </trkpt>
      <trkpt lat="45.8376" lon="6.45018">
        <ele>2166</ele>
        <time>2018-10-17T09:34:56Z</time>
      </trkpt>
      <trkpt lat="45.8376" lon="6.45018">
        <ele>2166</ele>
        <time>2018-10-17T09:34:57Z</time>
      </trkpt>
      <trkpt lat="45.83758" lon="6.4502">
        <ele>2167</ele>
        <time>2018-10-17T09:34:58Z</time>
      </trkpt>
      <trkpt lat="45.83758" lon="6.4502">
        <ele>2167</ele>
        <time>2018-10-17T09:34:59Z</time>
      </trkpt>
      <trkpt lat="45.83758" lon="6.4502">
        <ele>2167</ele>
        <time>2018-10-17T09:35:00Z</time>
      </trkpt>
      <trkpt lat="45.83756" lon="6.45021">
        <ele>2167</ele>
        <time>2018-10-17T09:35:01Z</time>
      </trkpt>
      <trkpt lat="45.83756" lon="6.45021">
        <ele>2167</ele>
        <time>2018-10-17T09:35:02Z</time>
      </trkpt>
      <trkpt lat="45.83756" lon="6.45021">
        <ele>2168</ele>
        <time>2018-10-17T09:35:03Z</time>
      </trkpt>
      <trkpt lat="45.83754" lon="6.45022">
        <ele>2168</ele>
        <time>2018-10-17T09:35:04Z</time>
      </trkpt>
      <trkpt lat="45.83754" lon="6.45022">
        <ele>2168</ele>
        <time>2018-10-17T09:35:05Z</time>
      </trkpt>
      <trkpt lat="45.83752" lon="6.45022">
        <ele>2168</ele>
        <time>2018-10-17T09:35:06Z</time>
      </trkpt>
      <trkpt lat="45.83752" lon="6.45022">
        <ele>2168</ele>
        <time>2018-10-17T09:35:07Z</time>
      </trkpt>
      <trkpt lat="45.8375" lon="6.45022">
        <ele>2168</ele>
        <time>2018-10-17T09:35:08Z</time>
      </trkpt>
      <trkpt lat="45.8375" lon="6.45022">
        <ele>2168</ele>
        <time>2018-10-17T09:35:09Z</time>
      </trkpt>
      <trkpt lat="45.83748" lon="6.45023">
        <ele>2168</ele>
        <time>2018-10-17T09:35:10Z</time>
      </trkpt>
      <trkpt lat="45.83748" lon="6.45023">
        <ele>2168</ele>
        <time>2018-10-17T09:35:11Z</time>
      </trkpt>
      <trkpt lat="45.83746" lon="6.45023">
        <ele>2168</ele>
        <time>2018-10-17T09:35:12Z</time>
      </trkpt>
      <trkpt lat="45.83746" lon="6.45023">
        <ele>2168</ele>
        <time>2018-10-17T09:35:13Z</time>
      </trkpt>
      <trkpt lat="45.83744" lon="6.45023">
        <ele>2168</ele>
        <time>2018-10-17T09:35:14Z</time>
      </trkpt>
      <trkpt lat="45.83744" lon="6.45023">
        <ele>2168</ele>
        <time>2018-10-17T09:35:15Z</time>
      </trkpt>
      <trkpt lat="45.83744" lon="6.45023">
        <ele>2169</ele>
        <time>2018-10-17T09:35:16Z</time>
      </trkpt>
      <trkpt lat="45.83741" lon="6.45025">
        <ele>2169</ele>
        <time>2018-10-17T09:35:17Z</time>
      </trkpt>
      <trkpt lat="45.83741" lon="6.45025">
        <ele>2169</ele>
        <time>2018-10-17T09:35:18Z</time>
      </trkpt>
      <trkpt lat="45.83739" lon="6.45025">
        <ele>2169</ele>
        <time>2018-10-17T09:35:19Z</time>
      </trkpt>
      <trkpt lat="45.83739" lon="6.45025">
        <ele>2169</ele>
        <time>2018-10-17T09:35:20Z</time>
      </trkpt>
      <trkpt lat="45.83739" lon="6.45025">
        <ele>2170</ele>
        <time>2018-10-17T09:35:21Z</time>
      </trkpt>
      <trkpt lat="45.83736" lon="6.45024">
        <ele>2170</ele>
        <time>2018-10-17T09:35:22Z</time>
      </trkpt>
      <trkpt lat="45.83736" lon="6.45024">
        <ele>2170</ele>
        <time>2018-10-17T09:35:23Z</time>
      </trkpt>
      <trkpt lat="45.83734" lon="6.45023">
        <ele>2170</ele>
        <time>2018-10-17T09:35:24Z</time>
      </trkpt>
      <trkpt lat="45.83734" lon="6.45023">
        <ele>2170</ele>
        <time>2018-10-17T09:35:25Z</time>
      </trkpt>
      <trkpt lat="45.83731" lon="6.45023">
        <ele>2170</ele>
        <time>2018-10-17T09:35:26Z</time>
      </trkpt>
      <trkpt lat="45.83731" lon="6.45023">
        <ele>2170</ele>
        <time>2018-10-17T09:35:27Z</time>
      </trkpt>
      <trkpt lat="45.83729" lon="6.45021">
        <ele>2170</ele>
        <time>2018-10-17T09:35:28Z</time>
      </trkpt>
      <trkpt lat="45.83729" lon="6.45021">
        <ele>2170</ele>
        <time>2018-10-17T09:35:29Z</time>
      </trkpt>
      <trkpt lat="45.83727" lon="6.45019">
        <ele>2170</ele>
        <time>2018-10-17T09:35:30Z</time>
      </trkpt>
      <trkpt lat="45.83727" lon="6.45019">
        <ele>2170</ele>
        <time>2018-10-17T09:35:31Z</time>
      </trkpt>
      <trkpt lat="45.83724" lon="6.45018">
        <ele>2170</ele>
        <time>2018-10-17T09:35:32Z</time>
      </trkpt>
      <trkpt lat="45.83724" lon="6.45018">
        <ele>2169</ele>
        <time>2018-10-17T09:35:33Z</time>
      </trkpt>
      <trkpt lat="45.83722" lon="6.45016">
        <ele>2169</ele>
        <time>2018-10-17T09:35:34Z</time>
      </trkpt>
      <trkpt lat="45.83722" lon="6.45016">
        <ele>2169</ele>
        <time>2018-10-17T09:35:35Z</time>
      </trkpt>
      <trkpt lat="45.8372" lon="6.45014">
        <ele>2169</ele>
        <time>2018-10-17T09:35:36Z</time>
      </trkpt>
      <trkpt lat="45.8372" lon="6.45014">
        <ele>2169</ele>
        <time>2018-10-17T09:35:37Z</time>
      </trkpt>
      <trkpt lat="45.83718" lon="6.45013">
        <ele>2169</ele>
        <time>2018-10-17T09:35:38Z</time>
      </trkpt>
      <trkpt lat="45.83718" lon="6.45013">
        <ele>2168</ele>
        <time>2018-10-17T09:35:39Z</time>
      </trkpt>
      <trkpt lat="45.83716" lon="6.45011">
        <ele>2168</ele>
        <time>2018-10-17T09:35:40Z</time>
      </trkpt>
      <trkpt lat="45.83716" lon="6.45011">
        <ele>2169</ele>
        <time>2018-10-17T09:35:41Z</time>
      </trkpt>
      <trkpt lat="45.83714" lon="6.4501">
        <ele>2169</ele>
        <time>2018-10-17T09:35:42Z</time>
      </trkpt>
      <trkpt lat="45.83714" lon="6.4501">
        <ele>2169</ele>
        <time>2018-10-17T09:35:43Z</time>
      </trkpt>
      <trkpt lat="45.83712" lon="6.45008">
        <ele>2169</ele>
        <time>2018-10-17T09:35:44Z</time>
      </trkpt>
      <trkpt lat="45.83712" lon="6.45008">
        <ele>2170</ele>
        <time>2018-10-17T09:35:45Z</time>
      </trkpt>
      <trkpt lat="45.8371" lon="6.45007">
        <ele>2170</ele>
        <time>2018-10-17T09:35:46Z</time>
      </trkpt>
      <trkpt lat="45.8371" lon="6.45007">
        <ele>2170</ele>
        <time>2018-10-17T09:35:47Z</time>
      </trkpt>
      <trkpt lat="45.83708" lon="6.45006">
        <ele>2170</ele>
        <time>2018-10-17T09:35:48Z</time>
      </trkpt>
      <trkpt lat="45.83708" lon="6.45006">
        <ele>2170</ele>
        <time>2018-10-17T09:35:49Z</time>
      </trkpt>
      <trkpt lat="45.83705" lon="6.45005">
        <ele>2170</ele>
        <time>2018-10-17T09:35:50Z</time>
      </trkpt>
      <trkpt lat="45.83705" lon="6.45005">
        <ele>2170</ele>
        <time>2018-10-17T09:35:51Z</time>
      </trkpt>
      <trkpt lat="45.83703" lon="6.45004">
        <ele>2170</ele>
        <time>2018-10-17T09:35:52Z</time>
      </trkpt>
      <trkpt lat="45.83703" lon="6.45004">
        <ele>2170</ele>
        <time>2018-10-17T09:35:53Z</time>
      </trkpt>
      <trkpt lat="45.83703" lon="6.45004">
        <ele>2170</ele>
        <time>2018-10-17T09:35:54Z</time>
      </trkpt>
      <trkpt lat="45.83703" lon="6.45004">
        <ele>2170</ele>
        <time>2018-10-17T09:35:55Z</time>
      </trkpt>
      <trkpt lat="45.83703" lon="6.45004">
        <ele>2170</ele>
        <time>2018-10-17T09:35:56Z</time>
      </trkpt>
      <trkpt lat="45.83703" lon="6.45004">
        <ele>2170</ele>
        <time>2018-10-17T09:35:57Z</time>
      </trkpt>
      <trkpt lat="45.83703" lon="6.45004">
        <ele>2170</ele>
        <time>2018-10-17T09:35:58Z</time>
      </trkpt>
      <trkpt lat="45.83703" lon="6.45004">
        <ele>2170</ele>
        <time>2018-10-17T09:35:59Z</time>
      </trkpt>
      <trkpt lat="45.83703" lon="6.45004">
        <ele>2170</ele>
        <time>2018-10-17T09:36:00Z</time>
      </trkpt>
      <trkpt lat="45.83703" lon="6.45004">
        <ele>2170</ele>
        <time>2018-10-17T09:36:01Z</time>
      </trkpt>
      <trkpt lat="45.83703" lon="6.45004">
        <ele>2170</ele>
        <time>2018-10-17T09:36:02Z</time>
      </trkpt>
      <trkpt lat="45.83703" lon="6.45004">
        <ele>2170</ele>
        <time>2018-10-17T09:36:03Z</time>
      </trkpt>
      <trkpt lat="45.83701" lon="6.45003">
        <ele>2169</ele>
        <time>2018-10-17T09:36:04Z</time>
      </trkpt>
      <trkpt lat="45.83701" lon="6.45003">
        <ele>2169</ele>
        <time>2018-10-17T09:36:05Z</time>
      </trkpt>
      <trkpt lat="45.83699" lon="6.45002">
        <ele>2169</ele>
        <time>2018-10-17T09:36:06Z</time>
      </trkpt>
      <trkpt lat="45.83699" lon="6.45002">
        <ele>2169</ele>
        <time>2018-10-17T09:36:07Z</time>
      </trkpt>
      <trkpt lat="45.83698" lon="6.45001">
        <ele>2169</ele>
        <time>2018-10-17T09:36:08Z</time>
      </trkpt>
      <trkpt lat="45.83698" lon="6.45001">
        <ele>2168</ele>
        <time>2018-10-17T09:36:09Z</time>
      </trkpt>
      <trkpt lat="45.83698" lon="6.45001">
        <ele>2168</ele>
        <time>2018-10-17T09:36:10Z</time>
      </trkpt>
      <trkpt lat="45.83696" lon="6.44999">
        <ele>2168</ele>
        <time>2018-10-17T09:36:11Z</time>
      </trkpt>
      <trkpt lat="45.83696" lon="6.44999">
        <ele>2168</ele>
        <time>2018-10-17T09:36:12Z</time>
      </trkpt>
      <trkpt lat="45.83696" lon="6.44999">
        <ele>2167</ele>
        <time>2018-10-17T09:36:13Z</time>
      </trkpt>
      <trkpt lat="45.83694" lon="6.44999">
        <ele>2167</ele>
        <time>2018-10-17T09:36:14Z</time>
      </trkpt>
      <trkpt lat="45.83694" lon="6.44999">
        <ele>2167</ele>
        <time>2018-10-17T09:36:15Z</time>
      </trkpt>
      <trkpt lat="45.83692" lon="6.44998">
        <ele>2167</ele>
        <time>2018-10-17T09:36:16Z</time>
      </trkpt>
      <trkpt lat="45.83692" lon="6.44998">
        <ele>2167</ele>
        <time>2018-10-17T09:36:17Z</time>
      </trkpt>
      <trkpt lat="45.83692" lon="6.44998">
        <ele>2167</ele>
        <time>2018-10-17T09:36:18Z</time>
      </trkpt>
      <trkpt lat="45.8369" lon="6.44997">
        <ele>2167</ele>
        <time>2018-10-17T09:36:19Z</time>
      </trkpt>
      <trkpt lat="45.8369" lon="6.44997">
        <ele>2167</ele>
        <time>2018-10-17T09:36:20Z</time>
      </trkpt>
      <trkpt lat="45.83687" lon="6.44995">
        <ele>2167</ele>
        <time>2018-10-17T09:36:21Z</time>
      </trkpt>
      <trkpt lat="45.83687" lon="6.44995">
        <ele>2167</ele>
        <time>2018-10-17T09:36:22Z</time>
      </trkpt>
      <trkpt lat="45.83685" lon="6.44995">
        <ele>2166</ele>
        <time>2018-10-17T09:36:23Z</time>
      </trkpt>
      <trkpt lat="45.83685" lon="6.44995">
        <ele>2166</ele>
        <time>2018-10-17T09:36:24Z</time>
      </trkpt>
      <trkpt lat="45.83683" lon="6.44994">
        <ele>2166</ele>
        <time>2018-10-17T09:36:25Z</time>
      </trkpt>
      <trkpt lat="45.83683" lon="6.44994">
        <ele>2166</ele>
        <time>2018-10-17T09:36:26Z</time>
      </trkpt>
      <trkpt lat="45.83681" lon="6.44993">
        <ele>2166</ele>
        <time>2018-10-17T09:36:27Z</time>
      </trkpt>
      <trkpt lat="45.83681" lon="6.44993">
        <ele>2166</ele>
        <time>2018-10-17T09:36:28Z</time>
      </trkpt>
      <trkpt lat="45.83678" lon="6.44991">
        <ele>2166</ele>
        <time>2018-10-17T09:36:29Z</time>
      </trkpt>
      <trkpt lat="45.83678" lon="6.44991">
        <ele>2165</ele>
        <time>2018-10-17T09:36:30Z</time>
      </trkpt>
      <trkpt lat="45.83677" lon="6.44988">
        <ele>2164</ele>
        <time>2018-10-17T09:36:31Z</time>
      </trkpt>
      <trkpt lat="45.83677" lon="6.44988">
        <ele>2164</ele>
        <time>2018-10-17T09:36:32Z</time>
      </trkpt>
      <trkpt lat="45.83675" lon="6.44986">
        <ele>2164</ele>
        <time>2018-10-17T09:36:33Z</time>
      </trkpt>
      <trkpt lat="45.83675" lon="6.44986">
        <ele>2162</ele>
        <time>2018-10-17T09:36:34Z</time>
      </trkpt>
      <trkpt lat="45.83673" lon="6.44983">
        <ele>2162</ele>
        <time>2018-10-17T09:36:35Z</time>
      </trkpt>
      <trkpt lat="45.83673" lon="6.44983">
        <ele>2162</ele>
        <time>2018-10-17T09:36:36Z</time>
      </trkpt>
      <trkpt lat="45.83671" lon="6.44981">
        <ele>2161</ele>
        <time>2018-10-17T09:36:37Z</time>
      </trkpt>
      <trkpt lat="45.83671" lon="6.44981">
        <ele>2161</ele>
        <time>2018-10-17T09:36:38Z</time>
      </trkpt>
      <trkpt lat="45.83669" lon="6.44978">
        <ele>2161</ele>
        <time>2018-10-17T09:36:39Z</time>
      </trkpt>
      <trkpt lat="45.83669" lon="6.44978">
        <ele>2161</ele>
        <time>2018-10-17T09:36:40Z</time>
      </trkpt>
      <trkpt lat="45.83668" lon="6.44976">
        <ele>2161</ele>
        <time>2018-10-17T09:36:41Z</time>
      </trkpt>
      <trkpt lat="45.83668" lon="6.44976">
        <ele>2161</ele>
        <time>2018-10-17T09:36:42Z</time>
      </trkpt>
      <trkpt lat="45.83665" lon="6.44974">
        <ele>2161</ele>
        <time>2018-10-17T09:36:43Z</time>
      </trkpt>
      <trkpt lat="45.83665" lon="6.44974">
        <ele>2160</ele>
        <time>2018-10-17T09:36:44Z</time>
      </trkpt>
      <trkpt lat="45.83663" lon="6.44972">
        <ele>2160</ele>
        <time>2018-10-17T09:36:45Z</time>
      </trkpt>
      <trkpt lat="45.83663" lon="6.44972">
        <ele>2160</ele>
        <time>2018-10-17T09:36:46Z</time>
      </trkpt>
      <trkpt lat="45.83661" lon="6.44969">
        <ele>2160</ele>
        <time>2018-10-17T09:36:47Z</time>
      </trkpt>
      <trkpt lat="45.83661" lon="6.44969">
        <ele>2160</ele>
        <time>2018-10-17T09:36:48Z</time>
      </trkpt>
      <trkpt lat="45.83659" lon="6.44967">
        <ele>2160</ele>
        <time>2018-10-17T09:36:49Z</time>
      </trkpt>
      <trkpt lat="45.83659" lon="6.44967">
        <ele>2160</ele>
        <time>2018-10-17T09:36:50Z</time>
      </trkpt>
      <trkpt lat="45.83657" lon="6.44966">
        <ele>2160</ele>
        <time>2018-10-17T09:36:51Z</time>
      </trkpt>
      <trkpt lat="45.83657" lon="6.44966">
        <ele>2159</ele>
        <time>2018-10-17T09:36:52Z</time>
      </trkpt>
      <trkpt lat="45.83654" lon="6.44963">
        <ele>2159</ele>
        <time>2018-10-17T09:36:53Z</time>
      </trkpt>
      <trkpt lat="45.83654" lon="6.44963">
        <ele>2159</ele>
        <time>2018-10-17T09:36:54Z</time>
      </trkpt>
      <trkpt lat="45.83652" lon="6.44962">
        <ele>2158</ele>
        <time>2018-10-17T09:36:55Z</time>
      </trkpt>
      <trkpt lat="45.83652" lon="6.44962">
        <ele>2158</ele>
        <time>2018-10-17T09:36:56Z</time>
      </trkpt>
      <trkpt lat="45.8365" lon="6.4496">
        <ele>2158</ele>
        <time>2018-10-17T09:36:57Z</time>
      </trkpt>
      <trkpt lat="45.8365" lon="6.4496">
        <ele>2158</ele>
        <time>2018-10-17T09:36:58Z</time>
      </trkpt>
      <trkpt lat="45.83648" lon="6.4496">
        <ele>2157</ele>
        <time>2018-10-17T09:36:59Z</time>
      </trkpt>
      <trkpt lat="45.83648" lon="6.4496">
        <ele>2157</ele>
        <time>2018-10-17T09:37:00Z</time>
      </trkpt>
      <trkpt lat="45.83648" lon="6.4496">
        <ele>2157</ele>
        <time>2018-10-17T09:37:01Z</time>
      </trkpt>
      <trkpt lat="45.83646" lon="6.44959">
        <ele>2157</ele>
        <time>2018-10-17T09:37:02Z</time>
      </trkpt>
      <trkpt lat="45.83646" lon="6.44959">
        <ele>2157</ele>
        <time>2018-10-17T09:37:03Z</time>
      </trkpt>
      <trkpt lat="45.83646" lon="6.44959">
        <ele>2157</ele>
        <time>2018-10-17T09:37:04Z</time>
      </trkpt>
      <trkpt lat="45.83643" lon="6.44958">
        <ele>2156</ele>
        <time>2018-10-17T09:37:05Z</time>
      </trkpt>
      <trkpt lat="45.83643" lon="6.44958">
        <ele>2156</ele>
        <time>2018-10-17T09:37:06Z</time>
      </trkpt>
      <trkpt lat="45.83641" lon="6.44958">
        <ele>2156</ele>
        <time>2018-10-17T09:37:07Z</time>
      </trkpt>
      <trkpt lat="45.83641" lon="6.44958">
        <ele>2156</ele>
        <time>2018-10-17T09:37:08Z</time>
      </trkpt>
      <trkpt lat="45.8364" lon="6.44956">
        <ele>2156</ele>
        <time>2018-10-17T09:37:09Z</time>
      </trkpt>
      <trkpt lat="45.8364" lon="6.44956">
        <ele>2155</ele>
        <time>2018-10-17T09:37:10Z</time>
      </trkpt>
      <trkpt lat="45.83638" lon="6.44954">
        <ele>2155</ele>
        <time>2018-10-17T09:37:11Z</time>
      </trkpt>
      <trkpt lat="45.83638" lon="6.44954">
        <ele>2154</ele>
        <time>2018-10-17T09:37:12Z</time>
      </trkpt>
      <trkpt lat="45.83636" lon="6.44952">
        <ele>2154</ele>
        <time>2018-10-17T09:37:13Z</time>
      </trkpt>
      <trkpt lat="45.83636" lon="6.44952">
        <ele>2154</ele>
        <time>2018-10-17T09:37:14Z</time>
      </trkpt>
      <trkpt lat="45.83634" lon="6.4495">
        <ele>2154</ele>
        <time>2018-10-17T09:37:15Z</time>
      </trkpt>
      <trkpt lat="45.83634" lon="6.4495">
        <ele>2154</ele>
        <time>2018-10-17T09:37:16Z</time>
      </trkpt>
      <trkpt lat="45.83631" lon="6.44948">
        <ele>2153</ele>
        <time>2018-10-17T09:37:17Z</time>
      </trkpt>
      <trkpt lat="45.83631" lon="6.44948">
        <ele>2153</ele>
        <time>2018-10-17T09:37:18Z</time>
      </trkpt>
      <trkpt lat="45.83629" lon="6.44946">
        <ele>2153</ele>
        <time>2018-10-17T09:37:19Z</time>
      </trkpt>
      <trkpt lat="45.83629" lon="6.44946">
        <ele>2153</ele>
        <time>2018-10-17T09:37:20Z</time>
      </trkpt>
      <trkpt lat="45.83628" lon="6.44943">
        <ele>2153</ele>
        <time>2018-10-17T09:37:21Z</time>
      </trkpt>
      <trkpt lat="45.83628" lon="6.44943">
        <ele>2153</ele>
        <time>2018-10-17T09:37:22Z</time>
      </trkpt>
      <trkpt lat="45.83626" lon="6.44942">
        <ele>2153</ele>
        <time>2018-10-17T09:37:23Z</time>
      </trkpt>
      <trkpt lat="45.83626" lon="6.44942">
        <ele>2153</ele>
        <time>2018-10-17T09:37:24Z</time>
      </trkpt>
      <trkpt lat="45.83626" lon="6.44942">
        <ele>2154</ele>
        <time>2018-10-17T09:37:25Z</time>
      </trkpt>
      <trkpt lat="45.83623" lon="6.4494">
        <ele>2154</ele>
        <time>2018-10-17T09:37:26Z</time>
      </trkpt>
      <trkpt lat="45.83623" lon="6.4494">
        <ele>2154</ele>
        <time>2018-10-17T09:37:27Z</time>
      </trkpt>
      <trkpt lat="45.83623" lon="6.44938">
        <ele>2154</ele>
        <time>2018-10-17T09:37:28Z</time>
      </trkpt>
      <trkpt lat="45.83623" lon="6.44938">
        <ele>2154</ele>
        <time>2018-10-17T09:37:29Z</time>
      </trkpt>
      <trkpt lat="45.83621" lon="6.44936">
        <ele>2154</ele>
        <time>2018-10-17T09:37:30Z</time>
      </trkpt>
      <trkpt lat="45.83621" lon="6.44936">
        <ele>2154</ele>
        <time>2018-10-17T09:37:31Z</time>
      </trkpt>
      <trkpt lat="45.8362" lon="6.44933">
        <ele>2154</ele>
        <time>2018-10-17T09:37:32Z</time>
      </trkpt>
      <trkpt lat="45.8362" lon="6.44933">
        <ele>2154</ele>
        <time>2018-10-17T09:37:33Z</time>
      </trkpt>
      <trkpt lat="45.83618" lon="6.4493">
        <ele>2154</ele>
        <time>2018-10-17T09:37:34Z</time>
      </trkpt>
      <trkpt lat="45.83618" lon="6.4493">
        <ele>2154</ele>
        <time>2018-10-17T09:37:35Z</time>
      </trkpt>
      <trkpt lat="45.83616" lon="6.44927">
        <ele>2154</ele>
        <time>2018-10-17T09:37:36Z</time>
      </trkpt>
      <trkpt lat="45.83616" lon="6.44927">
        <ele>2154</ele>
        <time>2018-10-17T09:37:37Z</time>
      </trkpt>
      <trkpt lat="45.83614" lon="6.44925">
        <ele>2154</ele>
        <time>2018-10-17T09:37:38Z</time>
      </trkpt>
      <trkpt lat="45.83614" lon="6.44925">
        <ele>2154</ele>
        <time>2018-10-17T09:37:39Z</time>
      </trkpt>
      <trkpt lat="45.83612" lon="6.44923">
        <ele>2154</ele>
        <time>2018-10-17T09:37:40Z</time>
      </trkpt>
      <trkpt lat="45.83612" lon="6.44923">
        <ele>2154</ele>
        <time>2018-10-17T09:37:41Z</time>
      </trkpt>
      <trkpt lat="45.8361" lon="6.4492">
        <ele>2154</ele>
        <time>2018-10-17T09:37:42Z</time>
      </trkpt>
      <trkpt lat="45.8361" lon="6.4492">
        <ele>2154</ele>
        <time>2018-10-17T09:37:43Z</time>
      </trkpt>
      <trkpt lat="45.83609" lon="6.44917">
        <ele>2153</ele>
        <time>2018-10-17T09:37:44Z</time>
      </trkpt>
      <trkpt lat="45.83609" lon="6.44917">
        <ele>2152</ele>
        <time>2018-10-17T09:37:45Z</time>
      </trkpt>
      <trkpt lat="45.83607" lon="6.44914">
        <ele>2152</ele>
        <time>2018-10-17T09:37:46Z</time>
      </trkpt>
      <trkpt lat="45.83607" lon="6.44914">
        <ele>2152</ele>
        <time>2018-10-17T09:37:47Z</time>
      </trkpt>
      <trkpt lat="45.83605" lon="6.44911">
        <ele>2152</ele>
        <time>2018-10-17T09:37:48Z</time>
      </trkpt>
      <trkpt lat="45.83605" lon="6.44911">
        <ele>2152</ele>
        <time>2018-10-17T09:37:49Z</time>
      </trkpt>
      <trkpt lat="45.83603" lon="6.44909">
        <ele>2152</ele>
        <time>2018-10-17T09:37:50Z</time>
      </trkpt>
      <trkpt lat="45.83603" lon="6.44909">
        <ele>2152</ele>
        <time>2018-10-17T09:37:51Z</time>
      </trkpt>
      <trkpt lat="45.83601" lon="6.44906">
        <ele>2152</ele>
        <time>2018-10-17T09:37:52Z</time>
      </trkpt>
      <trkpt lat="45.83601" lon="6.44906">
        <ele>2152</ele>
        <time>2018-10-17T09:37:53Z</time>
      </trkpt>
      <trkpt lat="45.836" lon="6.44903">
        <ele>2151</ele>
        <time>2018-10-17T09:37:54Z</time>
      </trkpt>
      <trkpt lat="45.836" lon="6.44903">
        <ele>2151</ele>
        <time>2018-10-17T09:37:55Z</time>
      </trkpt>
      <trkpt lat="45.836" lon="6.44903">
        <ele>2151</ele>
        <time>2018-10-17T09:37:56Z</time>
      </trkpt>
      <trkpt lat="45.836" lon="6.44903">
        <ele>2151</ele>
        <time>2018-10-17T09:37:57Z</time>
      </trkpt>
      <trkpt lat="45.836" lon="6.44903">
        <ele>2151</ele>
        <time>2018-10-17T09:37:58Z</time>
      </trkpt>
      <trkpt lat="45.836" lon="6.44903">
        <ele>2151</ele>
        <time>2018-10-17T09:37:59Z</time>
      </trkpt>
      <trkpt lat="45.836" lon="6.44903">
        <ele>2151</ele>
        <time>2018-10-17T09:38:00Z</time>
      </trkpt>
      <trkpt lat="45.836" lon="6.44903">
        <ele>2151</ele>
        <time>2018-10-17T09:38:01Z</time>
      </trkpt>
      <trkpt lat="45.836" lon="6.44903">
        <ele>2151</ele>
        <time>2018-10-17T09:38:02Z</time>
      </trkpt>
      <trkpt lat="45.836" lon="6.44903">
        <ele>2151</ele>
        <time>2018-10-17T09:38:03Z</time>
      </trkpt>
      <trkpt lat="45.836" lon="6.44903">
        <ele>2151</ele>
        <time>2018-10-17T09:38:04Z</time>
      </trkpt>
      <trkpt lat="45.836" lon="6.44903">
        <ele>2151</ele>
        <time>2018-10-17T09:38:05Z</time>
      </trkpt>
      <trkpt lat="45.836" lon="6.44903">
        <ele>2151</ele>
        <time>2018-10-17T09:38:06Z</time>
      </trkpt>
      <trkpt lat="45.836" lon="6.44903">
        <ele>2151</ele>
        <time>2018-10-17T09:38:07Z</time>
      </trkpt>
      <trkpt lat="45.836" lon="6.44903">
        <ele>2151</ele>
        <time>2018-10-17T09:38:08Z</time>
      </trkpt>
      <trkpt lat="45.836" lon="6.44903">
        <ele>2151</ele>
        <time>2018-10-17T09:38:09Z</time>
      </trkpt>
      <trkpt lat="45.836" lon="6.44903">
        <ele>2151</ele>
        <time>2018-10-17T09:38:10Z</time>
      </trkpt>
      <trkpt lat="45.83599" lon="6.44901">
        <ele>2151</ele>
        <time>2018-10-17T09:38:11Z</time>
      </trkpt>
      <trkpt lat="45.83599" lon="6.44901">
        <ele>2151</ele>
        <time>2018-10-17T09:38:12Z</time>
      </trkpt>
      <trkpt lat="45.83599" lon="6.44901">
        <ele>2151</ele>
        <time>2018-10-17T09:38:13Z</time>
      </trkpt>
      <trkpt lat="45.83597" lon="6.44899">
        <ele>2151</ele>
        <time>2018-10-17T09:38:14Z</time>
      </trkpt>
      <trkpt lat="45.83597" lon="6.44899">
        <ele>2150</ele>
        <time>2018-10-17T09:38:15Z</time>
      </trkpt>
      <trkpt lat="45.83595" lon="6.44898">
        <ele>2150</ele>
        <time>2018-10-17T09:38:16Z</time>
      </trkpt>
      <trkpt lat="45.83595" lon="6.44898">
        <ele>2150</ele>
        <time>2018-10-17T09:38:17Z</time>
      </trkpt>
      <trkpt lat="45.83593" lon="6.44898">
        <ele>2150</ele>
        <time>2018-10-17T09:38:18Z</time>
      </trkpt>
      <trkpt lat="45.83593" lon="6.44898">
        <ele>2150</ele>
        <time>2018-10-17T09:38:19Z</time>
      </trkpt>
      <trkpt lat="45.83593" lon="6.44898">
        <ele>2150</ele>
        <time>2018-10-17T09:38:20Z</time>
      </trkpt>
      <trkpt lat="45.83591" lon="6.44899">
        <ele>2151</ele>
        <time>2018-10-17T09:38:21Z</time>
      </trkpt>
      <trkpt lat="45.83591" lon="6.44899">
        <ele>2152</ele>
        <time>2018-10-17T09:38:22Z</time>
      </trkpt>
      <trkpt lat="45.83591" lon="6.44899">
        <ele>2152</ele>
        <time>2018-10-17T09:38:23Z</time>
      </trkpt>
      <trkpt lat="45.83589" lon="6.449">
        <ele>2152</ele>
        <time>2018-10-17T09:38:24Z</time>
      </trkpt>
      <trkpt lat="45.83589" lon="6.449">
        <ele>2153</ele>
        <time>2018-10-17T09:38:25Z</time>
      </trkpt>
      <trkpt lat="45.83587" lon="6.44898">
        <ele>2153</ele>
        <time>2018-10-17T09:38:26Z</time>
      </trkpt>
      <trkpt lat="45.83587" lon="6.44898">
        <ele>2153</ele>
        <time>2018-10-17T09:38:27Z</time>
      </trkpt>
      <trkpt lat="45.83586" lon="6.44898">
        <ele>2154</ele>
        <time>2018-10-17T09:38:28Z</time>
      </trkpt>
      <trkpt lat="45.83586" lon="6.44898">
        <ele>2154</ele>
        <time>2018-10-17T09:38:29Z</time>
      </trkpt>
      <trkpt lat="45.83586" lon="6.44898">
        <ele>2154</ele>
        <time>2018-10-17T09:38:30Z</time>
      </trkpt>
      <trkpt lat="45.83586" lon="6.44898">
        <ele>2154</ele>
        <time>2018-10-17T09:38:31Z</time>
      </trkpt>
      <trkpt lat="45.83586" lon="6.44898">
        <ele>2154</ele>
        <time>2018-10-17T09:38:32Z</time>
      </trkpt>
      <trkpt lat="45.83586" lon="6.44898">
        <ele>2154</ele>
        <time>2018-10-17T09:38:33Z</time>
      </trkpt>
      <trkpt lat="45.83586" lon="6.44898">
        <ele>2154</ele>
        <time>2018-10-17T09:38:34Z</time>
      </trkpt>
      <trkpt lat="45.83586" lon="6.44898">
        <ele>2154</ele>
        <time>2018-10-17T09:38:35Z</time>
      </trkpt>
      <trkpt lat="45.83586" lon="6.44898">
        <ele>2154</ele>
        <time>2018-10-17T09:38:36Z</time>
      </trkpt>
      <trkpt lat="45.83586" lon="6.44898">
        <ele>2154</ele>
        <time>2018-10-17T09:38:37Z</time>
      </trkpt>
      <trkpt lat="45.83586" lon="6.44898">
        <ele>2154</ele>
        <time>2018-10-17T09:38:38Z</time>
      </trkpt>
      <trkpt lat="45.83584" lon="6.44897">
        <ele>2154</ele>
        <time>2018-10-17T09:38:39Z</time>
      </trkpt>
      <trkpt lat="45.83584" lon="6.44897">
        <ele>2154</ele>
        <time>2018-10-17T09:38:40Z</time>
      </trkpt>
      <trkpt lat="45.83584" lon="6.44897">
        <ele>2154</ele>
        <time>2018-10-17T09:38:41Z</time>
      </trkpt>
      <trkpt lat="45.83582" lon="6.44896">
        <ele>2154</ele>
        <time>2018-10-17T09:38:42Z</time>
      </trkpt>
      <trkpt lat="45.83582" lon="6.44896">
        <ele>2154</ele>
        <time>2018-10-17T09:38:43Z</time>
      </trkpt>
      <trkpt lat="45.83582" lon="6.44896">
        <ele>2154</ele>
        <time>2018-10-17T09:38:44Z</time>
      </trkpt>
      <trkpt lat="45.83581" lon="6.44893">
        <ele>2154</ele>
        <time>2018-10-17T09:38:45Z</time>
      </trkpt>
      <trkpt lat="45.83581" lon="6.44893">
        <ele>2154</ele>
        <time>2018-10-17T09:38:46Z</time>
      </trkpt>
      <trkpt lat="45.8358" lon="6.44891">
        <ele>2154</ele>
        <time>2018-10-17T09:38:47Z</time>
      </trkpt>
      <trkpt lat="45.8358" lon="6.44891">
        <ele>2154</ele>
        <time>2018-10-17T09:38:48Z</time>
      </trkpt>
      <trkpt lat="45.83578" lon="6.44888">
        <ele>2154</ele>
        <time>2018-10-17T09:38:49Z</time>
      </trkpt>
      <trkpt lat="45.83578" lon="6.44888">
        <ele>2154</ele>
        <time>2018-10-17T09:38:50Z</time>
      </trkpt>
      <trkpt lat="45.83578" lon="6.44888">
        <ele>2154</ele>
        <time>2018-10-17T09:38:51Z</time>
      </trkpt>
      <trkpt lat="45.83578" lon="6.44888">
        <ele>2154</ele>
        <time>2018-10-17T09:38:52Z</time>
      </trkpt>
      <trkpt lat="45.83578" lon="6.44888">
        <ele>2154</ele>
        <time>2018-10-17T09:38:53Z</time>
      </trkpt>
      <trkpt lat="45.83578" lon="6.44888">
        <ele>2153</ele>
        <time>2018-10-17T09:38:54Z</time>
      </trkpt>
      <trkpt lat="45.83578" lon="6.44888">
        <ele>2153</ele>
        <time>2018-10-17T09:38:55Z</time>
      </trkpt>
      <trkpt lat="45.83576" lon="6.44887">
        <ele>2153</ele>
        <time>2018-10-17T09:38:56Z</time>
      </trkpt>
      <trkpt lat="45.83576" lon="6.44887">
        <ele>2153</ele>
        <time>2018-10-17T09:38:57Z</time>
      </trkpt>
      <trkpt lat="45.83576" lon="6.44887">
        <ele>2153</ele>
        <time>2018-10-17T09:38:58Z</time>
      </trkpt>
      <trkpt lat="45.83575" lon="6.44886">
        <ele>2153</ele>
        <time>2018-10-17T09:38:59Z</time>
      </trkpt>
      <trkpt lat="45.83575" lon="6.44886">
        <ele>2153</ele>
        <time>2018-10-17T09:39:00Z</time>
      </trkpt>
      <trkpt lat="45.83572" lon="6.44884">
        <ele>2153</ele>
        <time>2018-10-17T09:39:01Z</time>
      </trkpt>
      <trkpt lat="45.83572" lon="6.44884">
        <ele>2153</ele>
        <time>2018-10-17T09:39:02Z</time>
      </trkpt>
      <trkpt lat="45.83572" lon="6.44884">
        <ele>2153</ele>
        <time>2018-10-17T09:39:03Z</time>
      </trkpt>
      <trkpt lat="45.83572" lon="6.44884">
        <ele>2153</ele>
        <time>2018-10-17T09:39:04Z</time>
      </trkpt>
      <trkpt lat="45.83571" lon="6.44883">
        <ele>2153</ele>
        <time>2018-10-17T09:39:05Z</time>
      </trkpt>
      <trkpt lat="45.83571" lon="6.44883">
        <ele>2153</ele>
        <time>2018-10-17T09:39:06Z</time>
      </trkpt>
      <trkpt lat="45.83571" lon="6.44883">
        <ele>2154</ele>
        <time>2018-10-17T09:39:07Z</time>
      </trkpt>
      <trkpt lat="45.83571" lon="6.44883">
        <ele>2154</ele>
        <time>2018-10-17T09:39:08Z</time>
      </trkpt>
      <trkpt lat="45.83571" lon="6.44883">
        <ele>2154</ele>
        <time>2018-10-17T09:39:09Z</time>
      </trkpt>
      <trkpt lat="45.83571" lon="6.44883">
        <ele>2154</ele>
        <time>2018-10-17T09:39:10Z</time>
      </trkpt>
      <trkpt lat="45.83571" lon="6.44883">
        <ele>2154</ele>
        <time>2018-10-17T09:39:11Z</time>
      </trkpt>
      <trkpt lat="45.83571" lon="6.44883">
        <ele>2154</ele>
        <time>2018-10-17T09:39:12Z</time>
      </trkpt>
      <trkpt lat="45.83571" lon="6.44883">
        <ele>2154</ele>
        <time>2018-10-17T09:39:13Z</time>
      </trkpt>
      <trkpt lat="45.83571" lon="6.44883">
        <ele>2154</ele>
        <time>2018-10-17T09:39:14Z</time>
      </trkpt>
      <trkpt lat="45.83571" lon="6.44883">
        <ele>2154</ele>
        <time>2018-10-17T09:39:15Z</time>
      </trkpt>
      <trkpt lat="45.83571" lon="6.44883">
        <ele>2154</ele>
        <time>2018-10-17T09:39:16Z</time>
      </trkpt>
      <trkpt lat="45.83571" lon="6.44883">
        <ele>2154</ele>
        <time>2018-10-17T09:39:17Z</time>
      </trkpt>
      <trkpt lat="45.83571" lon="6.44883">
        <ele>2154</ele>
        <time>2018-10-17T09:39:18Z</time>
      </trkpt>
      <trkpt lat="45.83571" lon="6.44883">
        <ele>2154</ele>
        <time>2018-10-17T09:39:19Z</time>
      </trkpt>
      <trkpt lat="45.83571" lon="6.44883">
        <ele>2154</ele>
        <time>2018-10-17T09:39:20Z</time>
      </trkpt>
      <trkpt lat="45.83571" lon="6.44883">
        <ele>2154</ele>
        <time>2018-10-17T09:39:21Z</time>
      </trkpt>
      <trkpt lat="45.83571" lon="6.44883">
        <ele>2154</ele>
        <time>2018-10-17T09:39:22Z</time>
      </trkpt>
      <trkpt lat="45.83571" lon="6.44883">
        <ele>2154</ele>
        <time>2018-10-17T09:39:23Z</time>
      </trkpt>
      <trkpt lat="45.83571" lon="6.44883">
        <ele>2154</ele>
        <time>2018-10-17T09:39:24Z</time>
      </trkpt>
      <trkpt lat="45.83571" lon="6.44883">
        <ele>2154</ele>
        <time>2018-10-17T09:39:25Z</time>
      </trkpt>
      <trkpt lat="45.83571" lon="6.44883">
        <ele>2154</ele>
        <time>2018-10-17T09:39:26Z</time>
      </trkpt>
      <trkpt lat="45.83571" lon="6.44883">
        <ele>2154</ele>
        <time>2018-10-17T09:39:27Z</time>
      </trkpt>
      <trkpt lat="45.83571" lon="6.44883">
        <ele>2154</ele>
        <time>2018-10-17T09:39:28Z</time>
      </trkpt>
      <trkpt lat="45.83571" lon="6.44883">
        <ele>2153</ele>
        <time>2018-10-17T09:39:29Z</time>
      </trkpt>
      <trkpt lat="45.83571" lon="6.44883">
        <ele>2153</ele>
        <time>2018-10-17T09:39:30Z</time>
      </trkpt>
      <trkpt lat="45.83571" lon="6.44883">
        <ele>2153</ele>
        <time>2018-10-17T09:39:31Z</time>
      </trkpt>
      <trkpt lat="45.83571" lon="6.44883">
        <ele>2153</ele>
        <time>2018-10-17T09:39:32Z</time>
      </trkpt>
      <trkpt lat="45.83569" lon="6.44883">
        <ele>2153</ele>
        <time>2018-10-17T09:39:33Z</time>
      </trkpt>
      <trkpt lat="45.83569" lon="6.44883">
        <ele>2153</ele>
        <time>2018-10-17T09:39:34Z</time>
      </trkpt>
      <trkpt lat="45.83569" lon="6.44883">
        <ele>2153</ele>
        <time>2018-10-17T09:39:35Z</time>
      </trkpt>
      <trkpt lat="45.83568" lon="6.44881">
        <ele>2152</ele>
        <time>2018-10-17T09:39:36Z</time>
      </trkpt>
      <trkpt lat="45.83568" lon="6.44881">
        <ele>2152</ele>
        <time>2018-10-17T09:39:37Z</time>
      </trkpt>
      <trkpt lat="45.83568" lon="6.44881">
        <ele>2152</ele>
        <time>2018-10-17T09:39:38Z</time>
      </trkpt>
      <trkpt lat="45.83568" lon="6.44881">
        <ele>2152</ele>
        <time>2018-10-17T09:39:39Z</time>
      </trkpt>
      <trkpt lat="45.83568" lon="6.44881">
        <ele>2152</ele>
        <time>2018-10-17T09:39:40Z</time>
      </trkpt>
      <trkpt lat="45.83566" lon="6.44878">
        <ele>2152</ele>
        <time>2018-10-17T09:39:41Z</time>
      </trkpt>
      <trkpt lat="45.83566" lon="6.44878">
        <ele>2152</ele>
        <time>2018-10-17T09:39:42Z</time>
      </trkpt>
      <trkpt lat="45.83566" lon="6.44878">
        <ele>2152</ele>
        <time>2018-10-17T09:39:43Z</time>
      </trkpt>
      <trkpt lat="45.83565" lon="6.44875">
        <ele>2152</ele>
        <time>2018-10-17T09:39:44Z</time>
      </trkpt>
      <trkpt lat="45.83565" lon="6.44875">
        <ele>2151</ele>
        <time>2018-10-17T09:39:45Z</time>
      </trkpt>
      <trkpt lat="45.83563" lon="6.44873">
        <ele>2151</ele>
        <time>2018-10-17T09:39:46Z</time>
      </trkpt>
      <trkpt lat="45.83563" lon="6.44873">
        <ele>2151</ele>
        <time>2018-10-17T09:39:47Z</time>
      </trkpt>
      <trkpt lat="45.83563" lon="6.44873">
        <ele>2151</ele>
        <time>2018-10-17T09:39:48Z</time>
      </trkpt>
      <trkpt lat="45.83563" lon="6.44873">
        <ele>2151</ele>
        <time>2018-10-17T09:39:49Z</time>
      </trkpt>
      <trkpt lat="45.83561" lon="6.44872">
        <ele>2151</ele>
        <time>2018-10-17T09:39:50Z</time>
      </trkpt>
      <trkpt lat="45.83561" lon="6.44872">
        <ele>2151</ele>
        <time>2018-10-17T09:39:51Z</time>
      </trkpt>
      <trkpt lat="45.83561" lon="6.44872">
        <ele>2151</ele>
        <time>2018-10-17T09:39:52Z</time>
      </trkpt>
      <trkpt lat="45.83559" lon="6.4487">
        <ele>2151</ele>
        <time>2018-10-17T09:39:53Z</time>
      </trkpt>
      <trkpt lat="45.83559" lon="6.4487">
        <ele>2151</ele>
        <time>2018-10-17T09:39:54Z</time>
      </trkpt>
      <trkpt lat="45.83559" lon="6.4487">
        <ele>2151</ele>
        <time>2018-10-17T09:39:55Z</time>
      </trkpt>
      <trkpt lat="45.83557" lon="6.44868">
        <ele>2151</ele>
        <time>2018-10-17T09:39:56Z</time>
      </trkpt>
      <trkpt lat="45.83557" lon="6.44868">
        <ele>2151</ele>
        <time>2018-10-17T09:39:57Z</time>
      </trkpt>
      <trkpt lat="45.83557" lon="6.44868">
        <ele>2151</ele>
        <time>2018-10-17T09:39:58Z</time>
      </trkpt>
      <trkpt lat="45.83557" lon="6.44868">
        <ele>2151</ele>
        <time>2018-10-17T09:39:59Z</time>
      </trkpt>
      <trkpt lat="45.83557" lon="6.44868">
        <ele>2151</ele>
        <time>2018-10-17T09:40:00Z</time>
      </trkpt>
      <trkpt lat="45.83557" lon="6.44868">
        <ele>2151</ele>
        <time>2018-10-17T09:40:01Z</time>
      </trkpt>
      <trkpt lat="45.83557" lon="6.44868">
        <ele>2151</ele>
        <time>2018-10-17T09:40:02Z</time>
      </trkpt>
      <trkpt lat="45.83557" lon="6.44868">
        <ele>2151</ele>
        <time>2018-10-17T09:40:03Z</time>
      </trkpt>
      <trkpt lat="45.83555" lon="6.44866">
        <ele>2150</ele>
        <time>2018-10-17T09:40:04Z</time>
      </trkpt>
      <trkpt lat="45.83555" lon="6.44866">
        <ele>2150</ele>
        <time>2018-10-17T09:40:05Z</time>
      </trkpt>
      <trkpt lat="45.83555" lon="6.44866">
        <ele>2150</ele>
        <time>2018-10-17T09:40:06Z</time>
      </trkpt>
      <trkpt lat="45.83553" lon="6.44865">
        <ele>2150</ele>
        <time>2018-10-17T09:40:07Z</time>
      </trkpt>
      <trkpt lat="45.83553" lon="6.44865">
        <ele>2150</ele>
        <time>2018-10-17T09:40:08Z</time>
      </trkpt>
      <trkpt lat="45.83553" lon="6.44865">
        <ele>2149</ele>
        <time>2018-10-17T09:40:09Z</time>
      </trkpt>
      <trkpt lat="45.83553" lon="6.44865">
        <ele>2149</ele>
        <time>2018-10-17T09:40:10Z</time>
      </trkpt>
      <trkpt lat="45.83553" lon="6.44865">
        <ele>2149</ele>
        <time>2018-10-17T09:40:11Z</time>
      </trkpt>
      <trkpt lat="45.83552" lon="6.44862">
        <ele>2149</ele>
        <time>2018-10-17T09:40:12Z</time>
      </trkpt>
      <trkpt lat="45.83552" lon="6.44862">
        <ele>2149</ele>
        <time>2018-10-17T09:40:13Z</time>
      </trkpt>
      <trkpt lat="45.83552" lon="6.44862">
        <ele>2149</ele>
        <time>2018-10-17T09:40:14Z</time>
      </trkpt>
      <trkpt lat="45.83552" lon="6.44862">
        <ele>2149</ele>
        <time>2018-10-17T09:40:15Z</time>
      </trkpt>
      <trkpt lat="45.83552" lon="6.44862">
        <ele>2148</ele>
        <time>2018-10-17T09:40:16Z</time>
      </trkpt>
      <trkpt lat="45.83552" lon="6.44862">
        <ele>2148</ele>
        <time>2018-10-17T09:40:17Z</time>
      </trkpt>
      <trkpt lat="45.83552" lon="6.44862">
        <ele>2149</ele>
        <time>2018-10-17T09:40:18Z</time>
      </trkpt>
      <trkpt lat="45.83552" lon="6.44862">
        <ele>2149</ele>
        <time>2018-10-17T09:40:19Z</time>
      </trkpt>
      <trkpt lat="45.83552" lon="6.44862">
        <ele>2149</ele>
        <time>2018-10-17T09:40:20Z</time>
      </trkpt>
      <trkpt lat="45.83552" lon="6.44862">
        <ele>2149</ele>
        <time>2018-10-17T09:40:21Z</time>
      </trkpt>
      <trkpt lat="45.83552" lon="6.44862">
        <ele>2149</ele>
        <time>2018-10-17T09:40:22Z</time>
      </trkpt>
      <trkpt lat="45.83552" lon="6.4486">
        <ele>2149</ele>
        <time>2018-10-17T09:40:23Z</time>
      </trkpt>
      <trkpt lat="45.83552" lon="6.4486">
        <ele>2149</ele>
        <time>2018-10-17T09:40:24Z</time>
      </trkpt>
      <trkpt lat="45.83552" lon="6.4486">
        <ele>2149</ele>
        <time>2018-10-17T09:40:25Z</time>
      </trkpt>
      <trkpt lat="45.83552" lon="6.4486">
        <ele>2149</ele>
        <time>2018-10-17T09:40:26Z</time>
      </trkpt>
      <trkpt lat="45.83552" lon="6.4486">
        <ele>2149</ele>
        <time>2018-10-17T09:40:27Z</time>
      </trkpt>
      <trkpt lat="45.83552" lon="6.4486">
        <ele>2149</ele>
        <time>2018-10-17T09:40:28Z</time>
      </trkpt>
      <trkpt lat="45.83552" lon="6.4486">
        <ele>2148</ele>
        <time>2018-10-17T09:40:29Z</time>
      </trkpt>
      <trkpt lat="45.83552" lon="6.4486">
        <ele>2147</ele>
        <time>2018-10-17T09:40:30Z</time>
      </trkpt>
      <trkpt lat="45.83552" lon="6.4486">
        <ele>2148</ele>
        <time>2018-10-17T09:40:31Z</time>
      </trkpt>
      <trkpt lat="45.83552" lon="6.4486">
        <ele>2149</ele>
        <time>2018-10-17T09:40:32Z</time>
      </trkpt>
      <trkpt lat="45.83552" lon="6.4486">
        <ele>2149</ele>
        <time>2018-10-17T09:40:33Z</time>
      </trkpt>
      <trkpt lat="45.83552" lon="6.4486">
        <ele>2149</ele>
        <time>2018-10-17T09:40:34Z</time>
      </trkpt>
      <trkpt lat="45.83552" lon="6.4486">
        <ele>2148</ele>
        <time>2018-10-17T09:40:35Z</time>
      </trkpt>
      <trkpt lat="45.83552" lon="6.4486">
        <ele>2148</ele>
        <time>2018-10-17T09:40:36Z</time>
      </trkpt>
      <trkpt lat="45.83552" lon="6.4486">
        <ele>2147</ele>
        <time>2018-10-17T09:40:37Z</time>
      </trkpt>
      <trkpt lat="45.83552" lon="6.4486">
        <ele>2147</ele>
        <time>2018-10-17T09:40:38Z</time>
      </trkpt>
      <trkpt lat="45.8355" lon="6.44858">
        <ele>2147</ele>
        <time>2018-10-17T09:40:39Z</time>
      </trkpt>
      <trkpt lat="45.8355" lon="6.44858">
        <ele>2147</ele>
        <time>2018-10-17T09:40:40Z</time>
      </trkpt>
      <trkpt lat="45.8355" lon="6.44858">
        <ele>2147</ele>
        <time>2018-10-17T09:40:41Z</time>
      </trkpt>
      <trkpt lat="45.8355" lon="6.44858">
        <ele>2147</ele>
        <time>2018-10-17T09:40:42Z</time>
      </trkpt>
      <trkpt lat="45.8355" lon="6.44858">
        <ele>2147</ele>
        <time>2018-10-17T09:40:43Z</time>
      </trkpt>
      <trkpt lat="45.83549" lon="6.44856">
        <ele>2147</ele>
        <time>2018-10-17T09:40:44Z</time>
      </trkpt>
      <trkpt lat="45.83549" lon="6.44856">
        <ele>2147</ele>
        <time>2018-10-17T09:40:45Z</time>
      </trkpt>
      <trkpt lat="45.83549" lon="6.44856">
        <ele>2147</ele>
        <time>2018-10-17T09:40:46Z</time>
      </trkpt>
      <trkpt lat="45.83549" lon="6.44856">
        <ele>2147</ele>
        <time>2018-10-17T09:40:47Z</time>
      </trkpt>
      <trkpt lat="45.83549" lon="6.44856">
        <ele>2148</ele>
        <time>2018-10-17T09:40:48Z</time>
      </trkpt>
      <trkpt lat="45.83549" lon="6.44856">
        <ele>2148</ele>
        <time>2018-10-17T09:40:49Z</time>
      </trkpt>
      <trkpt lat="45.83549" lon="6.44856">
        <ele>2148</ele>
        <time>2018-10-17T09:40:50Z</time>
      </trkpt>
      <trkpt lat="45.83548" lon="6.44854">
        <ele>2148</ele>
        <time>2018-10-17T09:40:51Z</time>
      </trkpt>
      <trkpt lat="45.83548" lon="6.44854">
        <ele>2148</ele>
        <time>2018-10-17T09:40:52Z</time>
      </trkpt>
      <trkpt lat="45.83548" lon="6.44854">
        <ele>2149</ele>
        <time>2018-10-17T09:40:53Z</time>
      </trkpt>
      <trkpt lat="45.83548" lon="6.44854">
        <ele>2149</ele>
        <time>2018-10-17T09:40:54Z</time>
      </trkpt>
      <trkpt lat="45.83548" lon="6.44851">
        <ele>2149</ele>
        <time>2018-10-17T09:40:55Z</time>
      </trkpt>
      <trkpt lat="45.83548" lon="6.44851">
        <ele>2149</ele>
        <time>2018-10-17T09:40:56Z</time>
      </trkpt>
      <trkpt lat="45.83548" lon="6.44851">
        <ele>2149</ele>
        <time>2018-10-17T09:40:57Z</time>
      </trkpt>
      <trkpt lat="45.83548" lon="6.44851">
        <ele>2149</ele>
        <time>2018-10-17T09:40:58Z</time>
      </trkpt>
      <trkpt lat="45.83548" lon="6.44851">
        <ele>2149</ele>
        <time>2018-10-17T09:40:59Z</time>
      </trkpt>
      <trkpt lat="45.83548" lon="6.44851">
        <ele>2149</ele>
        <time>2018-10-17T09:41:00Z</time>
      </trkpt>
      <trkpt lat="45.83546" lon="6.4485">
        <ele>2149</ele>
        <time>2018-10-17T09:41:01Z</time>
      </trkpt>
      <trkpt lat="45.83546" lon="6.4485">
        <ele>2149</ele>
        <time>2018-10-17T09:41:02Z</time>
      </trkpt>
      <trkpt lat="45.83546" lon="6.4485">
        <ele>2149</ele>
        <time>2018-10-17T09:41:03Z</time>
      </trkpt>
      <trkpt lat="45.83544" lon="6.44847">
        <ele>2150</ele>
        <time>2018-10-17T09:41:04Z</time>
      </trkpt>
      <trkpt lat="45.83544" lon="6.44847">
        <ele>2150</ele>
        <time>2018-10-17T09:41:05Z</time>
      </trkpt>
      <trkpt lat="45.83544" lon="6.44847">
        <ele>2150</ele>
        <time>2018-10-17T09:41:06Z</time>
      </trkpt>
      <trkpt lat="45.83544" lon="6.44847">
        <ele>2151</ele>
        <time>2018-10-17T09:41:07Z</time>
      </trkpt>
      <trkpt lat="45.83544" lon="6.44847">
        <ele>2151</ele>
        <time>2018-10-17T09:41:08Z</time>
      </trkpt>
      <trkpt lat="45.83544" lon="6.44847">
        <ele>2151</ele>
        <time>2018-10-17T09:41:09Z</time>
      </trkpt>
      <trkpt lat="45.83543" lon="6.44845">
        <ele>2151</ele>
        <time>2018-10-17T09:41:10Z</time>
      </trkpt>
      <trkpt lat="45.83543" lon="6.44845">
        <ele>2151</ele>
        <time>2018-10-17T09:41:11Z</time>
      </trkpt>
      <trkpt lat="45.83543" lon="6.44845">
        <ele>2152</ele>
        <time>2018-10-17T09:41:12Z</time>
      </trkpt>
      <trkpt lat="45.83543" lon="6.44845">
        <ele>2152</ele>
        <time>2018-10-17T09:41:13Z</time>
      </trkpt>
      <trkpt lat="45.83543" lon="6.44845">
        <ele>2152</ele>
        <time>2018-10-17T09:41:14Z</time>
      </trkpt>
      <trkpt lat="45.83543" lon="6.44845">
        <ele>2152</ele>
        <time>2018-10-17T09:41:15Z</time>
      </trkpt>
      <trkpt lat="45.83543" lon="6.44845">
        <ele>2152</ele>
        <time>2018-10-17T09:41:16Z</time>
      </trkpt>
      <trkpt lat="45.83543" lon="6.44845">
        <ele>2153</ele>
        <time>2018-10-17T09:41:17Z</time>
      </trkpt>
      <trkpt lat="45.83543" lon="6.44845">
        <ele>2153</ele>
        <time>2018-10-17T09:41:18Z</time>
      </trkpt>
      <trkpt lat="45.83543" lon="6.44845">
        <ele>2153</ele>
        <time>2018-10-17T09:41:19Z</time>
      </trkpt>
      <trkpt lat="45.83543" lon="6.44845">
        <ele>2153</ele>
        <time>2018-10-17T09:41:20Z</time>
      </trkpt>
      <trkpt lat="45.83543" lon="6.44845">
        <ele>2153</ele>
        <time>2018-10-17T09:41:21Z</time>
      </trkpt>
      <trkpt lat="45.83543" lon="6.44845">
        <ele>2153</ele>
        <time>2018-10-17T09:41:22Z</time>
      </trkpt>
      <trkpt lat="45.83543" lon="6.44845">
        <ele>2152</ele>
        <time>2018-10-17T09:41:23Z</time>
      </trkpt>
      <trkpt lat="45.83543" lon="6.44845">
        <ele>2152</ele>
        <time>2018-10-17T09:41:24Z</time>
      </trkpt>
      <trkpt lat="45.83543" lon="6.44845">
        <ele>2152</ele>
        <time>2018-10-17T09:41:25Z</time>
      </trkpt>
      <trkpt lat="45.83543" lon="6.44845">
        <ele>2152</ele>
        <time>2018-10-17T09:41:26Z</time>
      </trkpt>
      <trkpt lat="45.83543" lon="6.44845">
        <ele>2152</ele>
        <time>2018-10-17T09:41:27Z</time>
      </trkpt>
      <trkpt lat="45.83543" lon="6.44845">
        <ele>2152</ele>
        <time>2018-10-17T09:41:28Z</time>
      </trkpt>
      <trkpt lat="45.83543" lon="6.44845">
        <ele>2152</ele>
        <time>2018-10-17T09:41:29Z</time>
      </trkpt>
      <trkpt lat="45.83543" lon="6.44845">
        <ele>2152</ele>
        <time>2018-10-17T09:41:30Z</time>
      </trkpt>
      <trkpt lat="45.83543" lon="6.44845">
        <ele>2152</ele>
        <time>2018-10-17T09:41:31Z</time>
      </trkpt>
      <trkpt lat="45.83543" lon="6.44845">
        <ele>2152</ele>
        <time>2018-10-17T09:41:32Z</time>
      </trkpt>
      <trkpt lat="45.83543" lon="6.44845">
        <ele>2151</ele>
        <time>2018-10-17T09:41:33Z</time>
      </trkpt>
      <trkpt lat="45.83543" lon="6.44845">
        <ele>2152</ele>
        <time>2018-10-17T09:41:34Z</time>
      </trkpt>
      <trkpt lat="45.83543" lon="6.44845">
        <ele>2153</ele>
        <time>2018-10-17T09:41:35Z</time>
      </trkpt>
      <trkpt lat="45.83542" lon="6.44843">
        <ele>2153</ele>
        <time>2018-10-17T09:41:36Z</time>
      </trkpt>
      <trkpt lat="45.83542" lon="6.44843">
        <ele>2154</ele>
        <time>2018-10-17T09:41:37Z</time>
      </trkpt>
      <trkpt lat="45.83542" lon="6.44843">
        <ele>2154</ele>
        <time>2018-10-17T09:41:38Z</time>
      </trkpt>
      <trkpt lat="45.83542" lon="6.44843">
        <ele>2154</ele>
        <time>2018-10-17T09:41:39Z</time>
      </trkpt>
      <trkpt lat="45.83542" lon="6.44843">
        <ele>2154</ele>
        <time>2018-10-17T09:41:40Z</time>
      </trkpt>
      <trkpt lat="45.83542" lon="6.44843">
        <ele>2154</ele>
        <time>2018-10-17T09:41:41Z</time>
      </trkpt>
      <trkpt lat="45.83541" lon="6.4484">
        <ele>2154</ele>
        <time>2018-10-17T09:41:42Z</time>
      </trkpt>
      <trkpt lat="45.83541" lon="6.4484">
        <ele>2155</ele>
        <time>2018-10-17T09:41:43Z</time>
      </trkpt>
      <trkpt lat="45.83541" lon="6.4484">
        <ele>2155</ele>
        <time>2018-10-17T09:41:44Z</time>
      </trkpt>
      <trkpt lat="45.83541" lon="6.4484">
        <ele>2155</ele>
        <time>2018-10-17T09:41:45Z</time>
      </trkpt>
      <trkpt lat="45.83541" lon="6.4484">
        <ele>2155</ele>
        <time>2018-10-17T09:41:46Z</time>
      </trkpt>
      <trkpt lat="45.83541" lon="6.4484">
        <ele>2155</ele>
        <time>2018-10-17T09:41:47Z</time>
      </trkpt>
      <trkpt lat="45.83542" lon="6.44837">
        <ele>2156</ele>
        <time>2018-10-17T09:41:48Z</time>
      </trkpt>
      <trkpt lat="45.83542" lon="6.44837">
        <ele>2156</ele>
        <time>2018-10-17T09:41:49Z</time>
      </trkpt>
      <trkpt lat="45.83542" lon="6.44837">
        <ele>2156</ele>
        <time>2018-10-17T09:41:50Z</time>
      </trkpt>
      <trkpt lat="45.83542" lon="6.44835">
        <ele>2156</ele>
        <time>2018-10-17T09:41:51Z</time>
      </trkpt>
      <trkpt lat="45.83542" lon="6.44835">
        <ele>2157</ele>
        <time>2018-10-17T09:41:52Z</time>
      </trkpt>
      <trkpt lat="45.83542" lon="6.44835">
        <ele>2157</ele>
        <time>2018-10-17T09:41:53Z</time>
      </trkpt>
      <trkpt lat="45.83543" lon="6.44832">
        <ele>2158</ele>
        <time>2018-10-17T09:41:54Z</time>
      </trkpt>
      <trkpt lat="45.83543" lon="6.44832">
        <ele>2158</ele>
        <time>2018-10-17T09:41:55Z</time>
      </trkpt>
      <trkpt lat="45.83543" lon="6.44832">
        <ele>2158</ele>
        <time>2018-10-17T09:41:56Z</time>
      </trkpt>
      <trkpt lat="45.83543" lon="6.44832">
        <ele>2158</ele>
        <time>2018-10-17T09:41:57Z</time>
      </trkpt>
      <trkpt lat="45.83543" lon="6.44832">
        <ele>2159</ele>
        <time>2018-10-17T09:41:58Z</time>
      </trkpt>
      <trkpt lat="45.83543" lon="6.44832">
        <ele>2159</ele>
        <time>2018-10-17T09:41:59Z</time>
      </trkpt>
      <trkpt lat="45.83543" lon="6.44832">
        <ele>2159</ele>
        <time>2018-10-17T09:42:00Z</time>
      </trkpt>
      <trkpt lat="45.83543" lon="6.44832">
        <ele>2159</ele>
        <time>2018-10-17T09:42:01Z</time>
      </trkpt>
      <trkpt lat="45.83543" lon="6.44832">
        <ele>2159</ele>
        <time>2018-10-17T09:42:02Z</time>
      </trkpt>
      <trkpt lat="45.83543" lon="6.44832">
        <ele>2159</ele>
        <time>2018-10-17T09:42:03Z</time>
      </trkpt>
      <trkpt lat="45.83543" lon="6.44832">
        <ele>2159</ele>
        <time>2018-10-17T09:42:04Z</time>
      </trkpt>
      <trkpt lat="45.83543" lon="6.44832">
        <ele>2159</ele>
        <time>2018-10-17T09:42:05Z</time>
      </trkpt>
      <trkpt lat="45.83543" lon="6.44832">
        <ele>2159</ele>
        <time>2018-10-17T09:42:06Z</time>
      </trkpt>
      <trkpt lat="45.83543" lon="6.44832">
        <ele>2159</ele>
        <time>2018-10-17T09:42:07Z</time>
      </trkpt>
      <trkpt lat="45.83543" lon="6.44832">
        <ele>2159</ele>
        <time>2018-10-17T09:42:08Z</time>
      </trkpt>
      <trkpt lat="45.83543" lon="6.44832">
        <ele>2159</ele>
        <time>2018-10-17T09:42:09Z</time>
      </trkpt>
      <trkpt lat="45.83543" lon="6.44832">
        <ele>2159</ele>
        <time>2018-10-17T09:42:10Z</time>
      </trkpt>
      <trkpt lat="45.83543" lon="6.44832">
        <ele>2159</ele>
        <time>2018-10-17T09:42:11Z</time>
      </trkpt>
      <trkpt lat="45.83543" lon="6.44832">
        <ele>2159</ele>
        <time>2018-10-17T09:42:12Z</time>
      </trkpt>
      <trkpt lat="45.83543" lon="6.44829">
        <ele>2159</ele>
        <time>2018-10-17T09:42:13Z</time>
      </trkpt>
      <trkpt lat="45.83543" lon="6.44829">
        <ele>2159</ele>
        <time>2018-10-17T09:42:14Z</time>
      </trkpt>
      <trkpt lat="45.83542" lon="6.44827">
        <ele>2159</ele>
        <time>2018-10-17T09:42:15Z</time>
      </trkpt>
      <trkpt lat="45.83542" lon="6.44827">
        <ele>2159</ele>
        <time>2018-10-17T09:42:16Z</time>
      </trkpt>
      <trkpt lat="45.83542" lon="6.44827">
        <ele>2159</ele>
        <time>2018-10-17T09:42:17Z</time>
      </trkpt>
      <trkpt lat="45.83542" lon="6.44827">
        <ele>2159</ele>
        <time>2018-10-17T09:42:18Z</time>
      </trkpt>
      <trkpt lat="45.83542" lon="6.44827">
        <ele>2160</ele>
        <time>2018-10-17T09:42:19Z</time>
      </trkpt>
      <trkpt lat="45.83542" lon="6.44827">
        <ele>2160</ele>
        <time>2018-10-17T09:42:20Z</time>
      </trkpt>
      <trkpt lat="45.83542" lon="6.44827">
        <ele>2161</ele>
        <time>2018-10-17T09:42:21Z</time>
      </trkpt>
      <trkpt lat="45.83542" lon="6.44827">
        <ele>2161</ele>
        <time>2018-10-17T09:42:22Z</time>
      </trkpt>
      <trkpt lat="45.83542" lon="6.44827">
        <ele>2161</ele>
        <time>2018-10-17T09:42:23Z</time>
      </trkpt>
      <trkpt lat="45.83542" lon="6.44827">
        <ele>2161</ele>
        <time>2018-10-17T09:42:24Z</time>
      </trkpt>
      <trkpt lat="45.83542" lon="6.44827">
        <ele>2160</ele>
        <time>2018-10-17T09:42:25Z</time>
      </trkpt>
      <trkpt lat="45.83542" lon="6.44827">
        <ele>2160</ele>
        <time>2018-10-17T09:42:26Z</time>
      </trkpt>
      <trkpt lat="45.83542" lon="6.44827">
        <ele>2160</ele>
        <time>2018-10-17T09:42:27Z</time>
      </trkpt>
      <trkpt lat="45.83542" lon="6.44827">
        <ele>2160</ele>
        <time>2018-10-17T09:42:28Z</time>
      </trkpt>
      <trkpt lat="45.83542" lon="6.44827">
        <ele>2160</ele>
        <time>2018-10-17T09:42:29Z</time>
      </trkpt>
      <trkpt lat="45.83542" lon="6.44827">
        <ele>2160</ele>
        <time>2018-10-17T09:42:30Z</time>
      </trkpt>
      <trkpt lat="45.83542" lon="6.44827">
        <ele>2160</ele>
        <time>2018-10-17T09:42:31Z</time>
      </trkpt>
      <trkpt lat="45.83542" lon="6.44827">
        <ele>2160</ele>
        <time>2018-10-17T09:42:32Z</time>
      </trkpt>
      <trkpt lat="45.83542" lon="6.44827">
        <ele>2160</ele>
        <time>2018-10-17T09:42:33Z</time>
      </trkpt>
      <trkpt lat="45.83542" lon="6.44827">
        <ele>2160</ele>
        <time>2018-10-17T09:42:34Z</time>
      </trkpt>
      <trkpt lat="45.83542" lon="6.44827">
        <ele>2160</ele>
        <time>2018-10-17T09:42:35Z</time>
      </trkpt>
      <trkpt lat="45.83542" lon="6.44827">
        <ele>2159</ele>
        <time>2018-10-17T09:42:36Z</time>
      </trkpt>
      <trkpt lat="45.83542" lon="6.44827">
        <ele>2159</ele>
        <time>2018-10-17T09:42:37Z</time>
      </trkpt>
      <trkpt lat="45.83542" lon="6.44827">
        <ele>2158</ele>
        <time>2018-10-17T09:42:38Z</time>
      </trkpt>
      <trkpt lat="45.83542" lon="6.44827">
        <ele>2158</ele>
        <time>2018-10-17T09:42:39Z</time>
      </trkpt>
      <trkpt lat="45.83542" lon="6.44827">
        <ele>2158</ele>
        <time>2018-10-17T09:42:40Z</time>
      </trkpt>
      <trkpt lat="45.83541" lon="6.44824">
        <ele>2158</ele>
        <time>2018-10-17T09:42:41Z</time>
      </trkpt>
      <trkpt lat="45.83541" lon="6.44824">
        <ele>2159</ele>
        <time>2018-10-17T09:42:42Z</time>
      </trkpt>
      <trkpt lat="45.83541" lon="6.44824">
        <ele>2159</ele>
        <time>2018-10-17T09:42:43Z</time>
      </trkpt>
      <trkpt lat="45.8354" lon="6.44821">
        <ele>2159</ele>
        <time>2018-10-17T09:42:44Z</time>
      </trkpt>
      <trkpt lat="45.8354" lon="6.44821">
        <ele>2159</ele>
        <time>2018-10-17T09:42:45Z</time>
      </trkpt>
      <trkpt lat="45.8354" lon="6.44821">
        <ele>2159</ele>
        <time>2018-10-17T09:42:46Z</time>
      </trkpt>
      <trkpt lat="45.83538" lon="6.44819">
        <ele>2159</ele>
        <time>2018-10-17T09:42:47Z</time>
      </trkpt>
      <trkpt lat="45.83538" lon="6.44819">
        <ele>2159</ele>
        <time>2018-10-17T09:42:48Z</time>
      </trkpt>
      <trkpt lat="45.83536" lon="6.44816">
        <ele>2159</ele>
        <time>2018-10-17T09:42:49Z</time>
      </trkpt>
      <trkpt lat="45.83536" lon="6.44816">
        <ele>2159</ele>
        <time>2018-10-17T09:42:50Z</time>
      </trkpt>
      <trkpt lat="45.83535" lon="6.44814">
        <ele>2159</ele>
        <time>2018-10-17T09:42:51Z</time>
      </trkpt>
      <trkpt lat="45.83535" lon="6.44814">
        <ele>2159</ele>
        <time>2018-10-17T09:42:52Z</time>
      </trkpt>
      <trkpt lat="45.83533" lon="6.44812">
        <ele>2159</ele>
        <time>2018-10-17T09:42:53Z</time>
      </trkpt>
      <trkpt lat="45.83533" lon="6.44812">
        <ele>2159</ele>
        <time>2018-10-17T09:42:54Z</time>
      </trkpt>
      <trkpt lat="45.83533" lon="6.44812">
        <ele>2159</ele>
        <time>2018-10-17T09:42:55Z</time>
      </trkpt>
      <trkpt lat="45.83532" lon="6.4481">
        <ele>2159</ele>
        <time>2018-10-17T09:42:56Z</time>
      </trkpt>
      <trkpt lat="45.83532" lon="6.4481">
        <ele>2159</ele>
        <time>2018-10-17T09:42:57Z</time>
      </trkpt>
      <trkpt lat="45.83532" lon="6.4481">
        <ele>2159</ele>
        <time>2018-10-17T09:42:58Z</time>
      </trkpt>
      <trkpt lat="45.83532" lon="6.4481">
        <ele>2159</ele>
        <time>2018-10-17T09:42:59Z</time>
      </trkpt>
      <trkpt lat="45.8353" lon="6.44807">
        <ele>2159</ele>
        <time>2018-10-17T09:43:00Z</time>
      </trkpt>
      <trkpt lat="45.8353" lon="6.44807">
        <ele>2160</ele>
        <time>2018-10-17T09:43:01Z</time>
      </trkpt>
      <trkpt lat="45.8353" lon="6.44807">
        <ele>2161</ele>
        <time>2018-10-17T09:43:02Z</time>
      </trkpt>
      <trkpt lat="45.83529" lon="6.44805">
        <ele>2161</ele>
        <time>2018-10-17T09:43:03Z</time>
      </trkpt>
      <trkpt lat="45.83529" lon="6.44805">
        <ele>2161</ele>
        <time>2018-10-17T09:43:04Z</time>
      </trkpt>
      <trkpt lat="45.83529" lon="6.44805">
        <ele>2161</ele>
        <time>2018-10-17T09:43:05Z</time>
      </trkpt>
      <trkpt lat="45.83528" lon="6.44803">
        <ele>2161</ele>
        <time>2018-10-17T09:43:06Z</time>
      </trkpt>
      <trkpt lat="45.83528" lon="6.44803">
        <ele>2162</ele>
        <time>2018-10-17T09:43:07Z</time>
      </trkpt>
      <trkpt lat="45.83528" lon="6.44803">
        <ele>2162</ele>
        <time>2018-10-17T09:43:08Z</time>
      </trkpt>
      <trkpt lat="45.83527" lon="6.44799">
        <ele>2162</ele>
        <time>2018-10-17T09:43:09Z</time>
      </trkpt>
      <trkpt lat="45.83527" lon="6.44799">
        <ele>2162</ele>
        <time>2018-10-17T09:43:10Z</time>
      </trkpt>
      <trkpt lat="45.83525" lon="6.44796">
        <ele>2162</ele>
        <time>2018-10-17T09:43:11Z</time>
      </trkpt>
      <trkpt lat="45.83525" lon="6.44796">
        <ele>2162</ele>
        <time>2018-10-17T09:43:12Z</time>
      </trkpt>
      <trkpt lat="45.83524" lon="6.44794">
        <ele>2162</ele>
        <time>2018-10-17T09:43:13Z</time>
      </trkpt>
      <trkpt lat="45.83524" lon="6.44794">
        <ele>2162</ele>
        <time>2018-10-17T09:43:14Z</time>
      </trkpt>
      <trkpt lat="45.83523" lon="6.44792">
        <ele>2162</ele>
        <time>2018-10-17T09:43:15Z</time>
      </trkpt>
      <trkpt lat="45.83523" lon="6.44792">
        <ele>2162</ele>
        <time>2018-10-17T09:43:16Z</time>
      </trkpt>
      <trkpt lat="45.83523" lon="6.44792">
        <ele>2162</ele>
        <time>2018-10-17T09:43:17Z</time>
      </trkpt>
      <trkpt lat="45.83521" lon="6.4479">
        <ele>2163</ele>
        <time>2018-10-17T09:43:18Z</time>
      </trkpt>
      <trkpt lat="45.83521" lon="6.4479">
        <ele>2163</ele>
        <time>2018-10-17T09:43:19Z</time>
      </trkpt>
      <trkpt lat="45.8352" lon="6.44788">
        <ele>2163</ele>
        <time>2018-10-17T09:43:20Z</time>
      </trkpt>
      <trkpt lat="45.8352" lon="6.44788">
        <ele>2163</ele>
        <time>2018-10-17T09:43:21Z</time>
      </trkpt>
      <trkpt lat="45.8352" lon="6.44788">
        <ele>2163</ele>
        <time>2018-10-17T09:43:22Z</time>
      </trkpt>
      <trkpt lat="45.83518" lon="6.44785">
        <ele>2163</ele>
        <time>2018-10-17T09:43:23Z</time>
      </trkpt>
      <trkpt lat="45.83518" lon="6.44785">
        <ele>2163</ele>
        <time>2018-10-17T09:43:24Z</time>
      </trkpt>
      <trkpt lat="45.83518" lon="6.44785">
        <ele>2164</ele>
        <time>2018-10-17T09:43:25Z</time>
      </trkpt>
      <trkpt lat="45.83517" lon="6.44783">
        <ele>2164</ele>
        <time>2018-10-17T09:43:26Z</time>
      </trkpt>
      <trkpt lat="45.83517" lon="6.44783">
        <ele>2164</ele>
        <time>2018-10-17T09:43:27Z</time>
      </trkpt>
      <trkpt lat="45.83517" lon="6.44783">
        <ele>2165</ele>
        <time>2018-10-17T09:43:28Z</time>
      </trkpt>
      <trkpt lat="45.83515" lon="6.44781">
        <ele>2165</ele>
        <time>2018-10-17T09:43:29Z</time>
      </trkpt>
      <trkpt lat="45.83515" lon="6.44781">
        <ele>2165</ele>
        <time>2018-10-17T09:43:30Z</time>
      </trkpt>
      <trkpt lat="45.83515" lon="6.44781">
        <ele>2165</ele>
        <time>2018-10-17T09:43:31Z</time>
      </trkpt>
      <trkpt lat="45.83513" lon="6.44779">
        <ele>2165</ele>
        <time>2018-10-17T09:43:32Z</time>
      </trkpt>
      <trkpt lat="45.83513" lon="6.44779">
        <ele>2165</ele>
        <time>2018-10-17T09:43:33Z</time>
      </trkpt>
      <trkpt lat="45.83513" lon="6.44779">
        <ele>2165</ele>
        <time>2018-10-17T09:43:34Z</time>
      </trkpt>
      <trkpt lat="45.83512" lon="6.44777">
        <ele>2165</ele>
        <time>2018-10-17T09:43:35Z</time>
      </trkpt>
      <trkpt lat="45.83512" lon="6.44777">
        <ele>2166</ele>
        <time>2018-10-17T09:43:36Z</time>
      </trkpt>
      <trkpt lat="45.83512" lon="6.44777">
        <ele>2166</ele>
        <time>2018-10-17T09:43:37Z</time>
      </trkpt>
      <trkpt lat="45.83512" lon="6.44777">
        <ele>2166</ele>
        <time>2018-10-17T09:43:38Z</time>
      </trkpt>
      <trkpt lat="45.83511" lon="6.44774">
        <ele>2166</ele>
        <time>2018-10-17T09:43:39Z</time>
      </trkpt>
      <trkpt lat="45.83511" lon="6.44774">
        <ele>2166</ele>
        <time>2018-10-17T09:43:40Z</time>
      </trkpt>
      <trkpt lat="45.83511" lon="6.44774">
        <ele>2166</ele>
        <time>2018-10-17T09:43:41Z</time>
      </trkpt>
      <trkpt lat="45.83511" lon="6.44774">
        <ele>2167</ele>
        <time>2018-10-17T09:43:42Z</time>
      </trkpt>
      <trkpt lat="45.83508" lon="6.44774">
        <ele>2167</ele>
        <time>2018-10-17T09:43:43Z</time>
      </trkpt>
      <trkpt lat="45.83508" lon="6.44774">
        <ele>2167</ele>
        <time>2018-10-17T09:43:44Z</time>
      </trkpt>
      <trkpt lat="45.83508" lon="6.44774">
        <ele>2167</ele>
        <time>2018-10-17T09:43:45Z</time>
      </trkpt>
      <trkpt lat="45.83508" lon="6.44774">
        <ele>2168</ele>
        <time>2018-10-17T09:43:46Z</time>
      </trkpt>
      <trkpt lat="45.83507" lon="6.44772">
        <ele>2169</ele>
        <time>2018-10-17T09:43:47Z</time>
      </trkpt>
      <trkpt lat="45.83507" lon="6.44772">
        <ele>2169</ele>
        <time>2018-10-17T09:43:48Z</time>
      </trkpt>
      <trkpt lat="45.83507" lon="6.44772">
        <ele>2169</ele>
        <time>2018-10-17T09:43:49Z</time>
      </trkpt>
      <trkpt lat="45.83507" lon="6.44772">
        <ele>2170</ele>
        <time>2018-10-17T09:43:50Z</time>
      </trkpt>
      <trkpt lat="45.83505" lon="6.4477">
        <ele>2170</ele>
        <time>2018-10-17T09:43:51Z</time>
      </trkpt>
      <trkpt lat="45.83505" lon="6.4477">
        <ele>2170</ele>
        <time>2018-10-17T09:43:52Z</time>
      </trkpt>
      <trkpt lat="45.83505" lon="6.4477">
        <ele>2170</ele>
        <time>2018-10-17T09:43:53Z</time>
      </trkpt>
      <trkpt lat="45.83505" lon="6.4477">
        <ele>2170</ele>
        <time>2018-10-17T09:43:54Z</time>
      </trkpt>
      <trkpt lat="45.83505" lon="6.4477">
        <ele>2170</ele>
        <time>2018-10-17T09:43:55Z</time>
      </trkpt>
      <trkpt lat="45.83505" lon="6.4477">
        <ele>2170</ele>
        <time>2018-10-17T09:43:56Z</time>
      </trkpt>
      <trkpt lat="45.83503" lon="6.44767">
        <ele>2171</ele>
        <time>2018-10-17T09:43:57Z</time>
      </trkpt>
      <trkpt lat="45.83503" lon="6.44767">
        <ele>2171</ele>
        <time>2018-10-17T09:43:58Z</time>
      </trkpt>
      <trkpt lat="45.83503" lon="6.44767">
        <ele>2171</ele>
        <time>2018-10-17T09:43:59Z</time>
      </trkpt>
      <trkpt lat="45.83502" lon="6.44765">
        <ele>2171</ele>
        <time>2018-10-17T09:44:00Z</time>
      </trkpt>
      <trkpt lat="45.83502" lon="6.44765">
        <ele>2171</ele>
        <time>2018-10-17T09:44:01Z</time>
      </trkpt>
      <trkpt lat="45.83502" lon="6.44765">
        <ele>2171</ele>
        <time>2018-10-17T09:44:02Z</time>
      </trkpt>
      <trkpt lat="45.835" lon="6.44763">
        <ele>2172</ele>
        <time>2018-10-17T09:44:03Z</time>
      </trkpt>
      <trkpt lat="45.835" lon="6.44763">
        <ele>2172</ele>
        <time>2018-10-17T09:44:04Z</time>
      </trkpt>
      <trkpt lat="45.835" lon="6.44763">
        <ele>2172</ele>
        <time>2018-10-17T09:44:05Z</time>
      </trkpt>
      <trkpt lat="45.83498" lon="6.44761">
        <ele>2172</ele>
        <time>2018-10-17T09:44:06Z</time>
      </trkpt>
      <trkpt lat="45.83498" lon="6.44761">
        <ele>2172</ele>
        <time>2018-10-17T09:44:07Z</time>
      </trkpt>
      <trkpt lat="45.83498" lon="6.44761">
        <ele>2172</ele>
        <time>2018-10-17T09:44:08Z</time>
      </trkpt>
      <trkpt lat="45.83498" lon="6.44758">
        <ele>2172</ele>
        <time>2018-10-17T09:44:09Z</time>
      </trkpt>
      <trkpt lat="45.83498" lon="6.44758">
        <ele>2172</ele>
        <time>2018-10-17T09:44:10Z</time>
      </trkpt>
      <trkpt lat="45.83498" lon="6.44758">
        <ele>2171</ele>
        <time>2018-10-17T09:44:11Z</time>
      </trkpt>
      <trkpt lat="45.83497" lon="6.44754">
        <ele>2170</ele>
        <time>2018-10-17T09:44:12Z</time>
      </trkpt>
      <trkpt lat="45.83497" lon="6.44754">
        <ele>2170</ele>
        <time>2018-10-17T09:44:13Z</time>
      </trkpt>
      <trkpt lat="45.83497" lon="6.44754">
        <ele>2170</ele>
        <time>2018-10-17T09:44:14Z</time>
      </trkpt>
      <trkpt lat="45.83496" lon="6.44751">
        <ele>2170</ele>
        <time>2018-10-17T09:44:15Z</time>
      </trkpt>
      <trkpt lat="45.83496" lon="6.44751">
        <ele>2170</ele>
        <time>2018-10-17T09:44:16Z</time>
      </trkpt>
      <trkpt lat="45.83495" lon="6.44749">
        <ele>2170</ele>
        <time>2018-10-17T09:44:17Z</time>
      </trkpt>
      <trkpt lat="45.83495" lon="6.44749">
        <ele>2170</ele>
        <time>2018-10-17T09:44:18Z</time>
      </trkpt>
      <trkpt lat="45.83495" lon="6.44746">
        <ele>2169</ele>
        <time>2018-10-17T09:44:19Z</time>
      </trkpt>
      <trkpt lat="45.83495" lon="6.44746">
        <ele>2169</ele>
        <time>2018-10-17T09:44:20Z</time>
      </trkpt>
      <trkpt lat="45.83495" lon="6.44746">
        <ele>2169</ele>
        <time>2018-10-17T09:44:21Z</time>
      </trkpt>
      <trkpt lat="45.83494" lon="6.44743">
        <ele>2169</ele>
        <time>2018-10-17T09:44:22Z</time>
      </trkpt>
      <trkpt lat="45.83494" lon="6.44743">
        <ele>2169</ele>
        <time>2018-10-17T09:44:23Z</time>
      </trkpt>
      <trkpt lat="45.83493" lon="6.44741">
        <ele>2169</ele>
        <time>2018-10-17T09:44:24Z</time>
      </trkpt>
      <trkpt lat="45.83493" lon="6.44741">
        <ele>2169</ele>
        <time>2018-10-17T09:44:25Z</time>
      </trkpt>
      <trkpt lat="45.83493" lon="6.44741">
        <ele>2169</ele>
        <time>2018-10-17T09:44:26Z</time>
      </trkpt>
      <trkpt lat="45.83493" lon="6.44738">
        <ele>2169</ele>
        <time>2018-10-17T09:44:27Z</time>
      </trkpt>
      <trkpt lat="45.83493" lon="6.44738">
        <ele>2169</ele>
        <time>2018-10-17T09:44:28Z</time>
      </trkpt>
      <trkpt lat="45.83492" lon="6.44735">
        <ele>2169</ele>
        <time>2018-10-17T09:44:29Z</time>
      </trkpt>
      <trkpt lat="45.83492" lon="6.44735">
        <ele>2168</ele>
        <time>2018-10-17T09:44:30Z</time>
      </trkpt>
      <trkpt lat="45.83492" lon="6.44732">
        <ele>2168</ele>
        <time>2018-10-17T09:44:31Z</time>
      </trkpt>
      <trkpt lat="45.83492" lon="6.44732">
        <ele>2168</ele>
        <time>2018-10-17T09:44:32Z</time>
      </trkpt>
      <trkpt lat="45.83491" lon="6.44729">
        <ele>2168</ele>
        <time>2018-10-17T09:44:33Z</time>
      </trkpt>
      <trkpt lat="45.83491" lon="6.44729">
        <ele>2168</ele>
        <time>2018-10-17T09:44:34Z</time>
      </trkpt>
      <trkpt lat="45.83491" lon="6.44726">
        <ele>2168</ele>
        <time>2018-10-17T09:44:35Z</time>
      </trkpt>
      <trkpt lat="45.83491" lon="6.44726">
        <ele>2168</ele>
        <time>2018-10-17T09:44:36Z</time>
      </trkpt>
      <trkpt lat="45.83491" lon="6.44726">
        <ele>2168</ele>
        <time>2018-10-17T09:44:37Z</time>
      </trkpt>
      <trkpt lat="45.83491" lon="6.44723">
        <ele>2168</ele>
        <time>2018-10-17T09:44:38Z</time>
      </trkpt>
      <trkpt lat="45.83491" lon="6.44723">
        <ele>2168</ele>
        <time>2018-10-17T09:44:39Z</time>
      </trkpt>
      <trkpt lat="45.83491" lon="6.44723">
        <ele>2168</ele>
        <time>2018-10-17T09:44:40Z</time>
      </trkpt>
      <trkpt lat="45.83491" lon="6.44721">
        <ele>2169</ele>
        <time>2018-10-17T09:44:41Z</time>
      </trkpt>
      <trkpt lat="45.83491" lon="6.44721">
        <ele>2169</ele>
        <time>2018-10-17T09:44:42Z</time>
      </trkpt>
      <trkpt lat="45.83491" lon="6.44721">
        <ele>2169</ele>
        <time>2018-10-17T09:44:43Z</time>
      </trkpt>
      <trkpt lat="45.83491" lon="6.44721">
        <ele>2169</ele>
        <time>2018-10-17T09:44:44Z</time>
      </trkpt>
      <trkpt lat="45.8349" lon="6.44718">
        <ele>2169</ele>
        <time>2018-10-17T09:44:45Z</time>
      </trkpt>
      <trkpt lat="45.8349" lon="6.44718">
        <ele>2170</ele>
        <time>2018-10-17T09:44:46Z</time>
      </trkpt>
      <trkpt lat="45.8349" lon="6.44718">
        <ele>2170</ele>
        <time>2018-10-17T09:44:47Z</time>
      </trkpt>
      <trkpt lat="45.8349" lon="6.44718">
        <ele>2170</ele>
        <time>2018-10-17T09:44:48Z</time>
      </trkpt>
      <trkpt lat="45.8349" lon="6.44718">
        <ele>2171</ele>
        <time>2018-10-17T09:44:49Z</time>
      </trkpt>
      <trkpt lat="45.8349" lon="6.44715">
        <ele>2171</ele>
        <time>2018-10-17T09:44:50Z</time>
      </trkpt>
      <trkpt lat="45.8349" lon="6.44715">
        <ele>2172</ele>
        <time>2018-10-17T09:44:51Z</time>
      </trkpt>
      <trkpt lat="45.8349" lon="6.44715">
        <ele>2172</ele>
        <time>2018-10-17T09:44:52Z</time>
      </trkpt>
      <trkpt lat="45.8349" lon="6.44715">
        <ele>2172</ele>
        <time>2018-10-17T09:44:53Z</time>
      </trkpt>
      <trkpt lat="45.8349" lon="6.44715">
        <ele>2173</ele>
        <time>2018-10-17T09:44:54Z</time>
      </trkpt>
      <trkpt lat="45.8349" lon="6.44715">
        <ele>2173</ele>
        <time>2018-10-17T09:44:55Z</time>
      </trkpt>
      <trkpt lat="45.83489" lon="6.44713">
        <ele>2173</ele>
        <time>2018-10-17T09:44:56Z</time>
      </trkpt>
      <trkpt lat="45.83489" lon="6.44713">
        <ele>2173</ele>
        <time>2018-10-17T09:44:57Z</time>
      </trkpt>
      <trkpt lat="45.83489" lon="6.44713">
        <ele>2173</ele>
        <time>2018-10-17T09:44:58Z</time>
      </trkpt>
      <trkpt lat="45.83489" lon="6.44713">
        <ele>2173</ele>
        <time>2018-10-17T09:44:59Z</time>
      </trkpt>
      <trkpt lat="45.83487" lon="6.44711">
        <ele>2174</ele>
        <time>2018-10-17T09:45:00Z</time>
      </trkpt>
      <trkpt lat="45.83487" lon="6.44711">
        <ele>2174</ele>
        <time>2018-10-17T09:45:01Z</time>
      </trkpt>
      <trkpt lat="45.83487" lon="6.44711">
        <ele>2174</ele>
        <time>2018-10-17T09:45:02Z</time>
      </trkpt>
      <trkpt lat="45.83486" lon="6.44709">
        <ele>2174</ele>
        <time>2018-10-17T09:45:03Z</time>
      </trkpt>
      <trkpt lat="45.83486" lon="6.44709">
        <ele>2174</ele>
        <time>2018-10-17T09:45:04Z</time>
      </trkpt>
      <trkpt lat="45.83486" lon="6.44709">
        <ele>2175</ele>
        <time>2018-10-17T09:45:05Z</time>
      </trkpt>
      <trkpt lat="45.83486" lon="6.44709">
        <ele>2175</ele>
        <time>2018-10-17T09:45:06Z</time>
      </trkpt>
      <trkpt lat="45.83485" lon="6.44706">
        <ele>2175</ele>
        <time>2018-10-17T09:45:07Z</time>
      </trkpt>
      <trkpt lat="45.83485" lon="6.44706">
        <ele>2176</ele>
        <time>2018-10-17T09:45:08Z</time>
      </trkpt>
      <trkpt lat="45.83485" lon="6.44706">
        <ele>2176</ele>
        <time>2018-10-17T09:45:09Z</time>
      </trkpt>
      <trkpt lat="45.83485" lon="6.44706">
        <ele>2177</ele>
        <time>2018-10-17T09:45:10Z</time>
      </trkpt>
      <trkpt lat="45.83485" lon="6.44706">
        <ele>2177</ele>
        <time>2018-10-17T09:45:11Z</time>
      </trkpt>
      <trkpt lat="45.83485" lon="6.44706">
        <ele>2177</ele>
        <time>2018-10-17T09:45:12Z</time>
      </trkpt>
      <trkpt lat="45.83485" lon="6.44706">
        <ele>2177</ele>
        <time>2018-10-17T09:45:13Z</time>
      </trkpt>
      <trkpt lat="45.83486" lon="6.44703">
        <ele>2178</ele>
        <time>2018-10-17T09:45:14Z</time>
      </trkpt>
      <trkpt lat="45.83486" lon="6.44703">
        <ele>2178</ele>
        <time>2018-10-17T09:45:15Z</time>
      </trkpt>
      <trkpt lat="45.83486" lon="6.44703">
        <ele>2178</ele>
        <time>2018-10-17T09:45:16Z</time>
      </trkpt>
      <trkpt lat="45.83486" lon="6.44703">
        <ele>2178</ele>
        <time>2018-10-17T09:45:17Z</time>
      </trkpt>
      <trkpt lat="45.83485" lon="6.44701">
        <ele>2178</ele>
        <time>2018-10-17T09:45:18Z</time>
      </trkpt>
      <trkpt lat="45.83485" lon="6.44701">
        <ele>2178</ele>
        <time>2018-10-17T09:45:19Z</time>
      </trkpt>
      <trkpt lat="45.83485" lon="6.44701">
        <ele>2178</ele>
        <time>2018-10-17T09:45:20Z</time>
      </trkpt>
      <trkpt lat="45.83484" lon="6.44698">
        <ele>2179</ele>
        <time>2018-10-17T09:45:21Z</time>
      </trkpt>
      <trkpt lat="45.83484" lon="6.44698">
        <ele>2180</ele>
        <time>2018-10-17T09:45:22Z</time>
      </trkpt>
      <trkpt lat="45.83484" lon="6.44698">
        <ele>2180</ele>
        <time>2018-10-17T09:45:23Z</time>
      </trkpt>
      <trkpt lat="45.83484" lon="6.44698">
        <ele>2180</ele>
        <time>2018-10-17T09:45:24Z</time>
      </trkpt>
      <trkpt lat="45.83483" lon="6.44695">
        <ele>2180</ele>
        <time>2018-10-17T09:45:25Z</time>
      </trkpt>
      <trkpt lat="45.83483" lon="6.44695">
        <ele>2180</ele>
        <time>2018-10-17T09:45:26Z</time>
      </trkpt>
      <trkpt lat="45.83483" lon="6.44695">
        <ele>2180</ele>
        <time>2018-10-17T09:45:27Z</time>
      </trkpt>
      <trkpt lat="45.83483" lon="6.44695">
        <ele>2180</ele>
        <time>2018-10-17T09:45:28Z</time>
      </trkpt>
      <trkpt lat="45.83483" lon="6.44692">
        <ele>2180</ele>
        <time>2018-10-17T09:45:29Z</time>
      </trkpt>
      <trkpt lat="45.83483" lon="6.44692">
        <ele>2180</ele>
        <time>2018-10-17T09:45:30Z</time>
      </trkpt>
      <trkpt lat="45.83483" lon="6.44692">
        <ele>2181</ele>
        <time>2018-10-17T09:45:31Z</time>
      </trkpt>
      <trkpt lat="45.83483" lon="6.44692">
        <ele>2181</ele>
        <time>2018-10-17T09:45:32Z</time>
      </trkpt>
      <trkpt lat="45.83483" lon="6.44692">
        <ele>2181</ele>
        <time>2018-10-17T09:45:33Z</time>
      </trkpt>
      <trkpt lat="45.83481" lon="6.44693">
        <ele>2182</ele>
        <time>2018-10-17T09:45:34Z</time>
      </trkpt>
      <trkpt lat="45.83481" lon="6.44693">
        <ele>2183</ele>
        <time>2018-10-17T09:45:35Z</time>
      </trkpt>
      <trkpt lat="45.83481" lon="6.44693">
        <ele>2183</ele>
        <time>2018-10-17T09:45:36Z</time>
      </trkpt>
      <trkpt lat="45.83481" lon="6.44693">
        <ele>2183</ele>
        <time>2018-10-17T09:45:37Z</time>
      </trkpt>
      <trkpt lat="45.83481" lon="6.44693">
        <ele>2183</ele>
        <time>2018-10-17T09:45:38Z</time>
      </trkpt>
      <trkpt lat="45.83479" lon="6.44695">
        <ele>2183</ele>
        <time>2018-10-17T09:45:39Z</time>
      </trkpt>
      <trkpt lat="45.83479" lon="6.44695">
        <ele>2183</ele>
        <time>2018-10-17T09:45:40Z</time>
      </trkpt>
      <trkpt lat="45.83479" lon="6.44695">
        <ele>2184</ele>
        <time>2018-10-17T09:45:41Z</time>
      </trkpt>
      <trkpt lat="45.83479" lon="6.44695">
        <ele>2184</ele>
        <time>2018-10-17T09:45:42Z</time>
      </trkpt>
      <trkpt lat="45.83479" lon="6.44695">
        <ele>2184</ele>
        <time>2018-10-17T09:45:43Z</time>
      </trkpt>
      <trkpt lat="45.83479" lon="6.44695">
        <ele>2184</ele>
        <time>2018-10-17T09:45:44Z</time>
      </trkpt>
      <trkpt lat="45.83477" lon="6.44695">
        <ele>2185</ele>
        <time>2018-10-17T09:45:45Z</time>
      </trkpt>
      <trkpt lat="45.83477" lon="6.44695">
        <ele>2185</ele>
        <time>2018-10-17T09:45:46Z</time>
      </trkpt>
      <trkpt lat="45.83477" lon="6.44695">
        <ele>2185</ele>
        <time>2018-10-17T09:45:47Z</time>
      </trkpt>
      <trkpt lat="45.83477" lon="6.44695">
        <ele>2185</ele>
        <time>2018-10-17T09:45:48Z</time>
      </trkpt>
      <trkpt lat="45.83475" lon="6.44696">
        <ele>2186</ele>
        <time>2018-10-17T09:45:49Z</time>
      </trkpt>
      <trkpt lat="45.83475" lon="6.44696">
        <ele>2187</ele>
        <time>2018-10-17T09:45:50Z</time>
      </trkpt>
      <trkpt lat="45.83475" lon="6.44696">
        <ele>2187</ele>
        <time>2018-10-17T09:45:51Z</time>
      </trkpt>
      <trkpt lat="45.83475" lon="6.44696">
        <ele>2187</ele>
        <time>2018-10-17T09:45:52Z</time>
      </trkpt>
      <trkpt lat="45.83475" lon="6.44696">
        <ele>2188</ele>
        <time>2018-10-17T09:45:53Z</time>
      </trkpt>
      <trkpt lat="45.83475" lon="6.44696">
        <ele>2188</ele>
        <time>2018-10-17T09:45:54Z</time>
      </trkpt>
      <trkpt lat="45.83474" lon="6.44693">
        <ele>2188</ele>
        <time>2018-10-17T09:45:55Z</time>
      </trkpt>
      <trkpt lat="45.83474" lon="6.44693">
        <ele>2188</ele>
        <time>2018-10-17T09:45:56Z</time>
      </trkpt>
      <trkpt lat="45.83474" lon="6.44693">
        <ele>2188</ele>
        <time>2018-10-17T09:45:57Z</time>
      </trkpt>
      <trkpt lat="45.83474" lon="6.44693">
        <ele>2188</ele>
        <time>2018-10-17T09:45:58Z</time>
      </trkpt>
      <trkpt lat="45.83474" lon="6.44693">
        <ele>2188</ele>
        <time>2018-10-17T09:45:59Z</time>
      </trkpt>
      <trkpt lat="45.83474" lon="6.44693">
        <ele>2188</ele>
        <time>2018-10-17T09:46:00Z</time>
      </trkpt>
      <trkpt lat="45.83474" lon="6.44693">
        <ele>2189</ele>
        <time>2018-10-17T09:46:01Z</time>
      </trkpt>
      <trkpt lat="45.83474" lon="6.44693">
        <ele>2189</ele>
        <time>2018-10-17T09:46:02Z</time>
      </trkpt>
      <trkpt lat="45.83474" lon="6.44693">
        <ele>2189</ele>
        <time>2018-10-17T09:46:03Z</time>
      </trkpt>
      <trkpt lat="45.83474" lon="6.4469">
        <ele>2189</ele>
        <time>2018-10-17T09:46:04Z</time>
      </trkpt>
      <trkpt lat="45.83474" lon="6.4469">
        <ele>2190</ele>
        <time>2018-10-17T09:46:05Z</time>
      </trkpt>
      <trkpt lat="45.83474" lon="6.4469">
        <ele>2190</ele>
        <time>2018-10-17T09:46:06Z</time>
      </trkpt>
      <trkpt lat="45.83474" lon="6.4469">
        <ele>2190</ele>
        <time>2018-10-17T09:46:07Z</time>
      </trkpt>
      <trkpt lat="45.83475" lon="6.44687">
        <ele>2190</ele>
        <time>2018-10-17T09:46:08Z</time>
      </trkpt>
      <trkpt lat="45.83475" lon="6.44687">
        <ele>2191</ele>
        <time>2018-10-17T09:46:09Z</time>
      </trkpt>
      <trkpt lat="45.83475" lon="6.44687">
        <ele>2191</ele>
        <time>2018-10-17T09:46:10Z</time>
      </trkpt>
      <trkpt lat="45.83476" lon="6.44684">
        <ele>2191</ele>
        <time>2018-10-17T09:46:11Z</time>
      </trkpt>
      <trkpt lat="45.83476" lon="6.44684">
        <ele>2192</ele>
        <time>2018-10-17T09:46:12Z</time>
      </trkpt>
      <trkpt lat="45.83476" lon="6.44684">
        <ele>2192</ele>
        <time>2018-10-17T09:46:13Z</time>
      </trkpt>
      <trkpt lat="45.83476" lon="6.44682">
        <ele>2193</ele>
        <time>2018-10-17T09:46:14Z</time>
      </trkpt>
      <trkpt lat="45.83476" lon="6.44682">
        <ele>2193</ele>
        <time>2018-10-17T09:46:15Z</time>
      </trkpt>
      <trkpt lat="45.83476" lon="6.44682">
        <ele>2193</ele>
        <time>2018-10-17T09:46:16Z</time>
      </trkpt>
      <trkpt lat="45.83476" lon="6.44682">
        <ele>2193</ele>
        <time>2018-10-17T09:46:17Z</time>
      </trkpt>
      <trkpt lat="45.83476" lon="6.44682">
        <ele>2193</ele>
        <time>2018-10-17T09:46:18Z</time>
      </trkpt>
      <trkpt lat="45.83476" lon="6.44682">
        <ele>2193</ele>
        <time>2018-10-17T09:46:19Z</time>
      </trkpt>
      <trkpt lat="45.83476" lon="6.44682">
        <ele>2192</ele>
        <time>2018-10-17T09:46:20Z</time>
      </trkpt>
      <trkpt lat="45.83476" lon="6.44682">
        <ele>2192</ele>
        <time>2018-10-17T09:46:21Z</time>
      </trkpt>
      <trkpt lat="45.83476" lon="6.44682">
        <ele>2192</ele>
        <time>2018-10-17T09:46:22Z</time>
      </trkpt>
      <trkpt lat="45.83476" lon="6.44682">
        <ele>2192</ele>
        <time>2018-10-17T09:46:23Z</time>
      </trkpt>
      <trkpt lat="45.83476" lon="6.44682">
        <ele>2192</ele>
        <time>2018-10-17T09:46:24Z</time>
      </trkpt>
      <trkpt lat="45.83476" lon="6.44682">
        <ele>2192</ele>
        <time>2018-10-17T09:46:25Z</time>
      </trkpt>
      <trkpt lat="45.83476" lon="6.44682">
        <ele>2192</ele>
        <time>2018-10-17T09:46:26Z</time>
      </trkpt>
      <trkpt lat="45.83476" lon="6.44682">
        <ele>2192</ele>
        <time>2018-10-17T09:46:27Z</time>
      </trkpt>
      <trkpt lat="45.83476" lon="6.44682">
        <ele>2192</ele>
        <time>2018-10-17T09:46:28Z</time>
      </trkpt>
      <trkpt lat="45.83474" lon="6.44679">
        <ele>2192</ele>
        <time>2018-10-17T09:46:29Z</time>
      </trkpt>
      <trkpt lat="45.83474" lon="6.44679">
        <ele>2192</ele>
        <time>2018-10-17T09:46:30Z</time>
      </trkpt>
      <trkpt lat="45.83474" lon="6.44679">
        <ele>2192</ele>
        <time>2018-10-17T09:46:31Z</time>
      </trkpt>
      <trkpt lat="45.83473" lon="6.44677">
        <ele>2192</ele>
        <time>2018-10-17T09:46:32Z</time>
      </trkpt>
      <trkpt lat="45.83473" lon="6.44677">
        <ele>2192</ele>
        <time>2018-10-17T09:46:33Z</time>
      </trkpt>
      <trkpt lat="45.83473" lon="6.44677">
        <ele>2192</ele>
        <time>2018-10-17T09:46:34Z</time>
      </trkpt>
      <trkpt lat="45.83471" lon="6.44675">
        <ele>2193</ele>
        <time>2018-10-17T09:46:35Z</time>
      </trkpt>
      <trkpt lat="45.83471" lon="6.44675">
        <ele>2193</ele>
        <time>2018-10-17T09:46:36Z</time>
      </trkpt>
      <trkpt lat="45.83471" lon="6.44675">
        <ele>2193</ele>
        <time>2018-10-17T09:46:37Z</time>
      </trkpt>
      <trkpt lat="45.8347" lon="6.44674">
        <ele>2194</ele>
        <time>2018-10-17T09:46:38Z</time>
      </trkpt>
      <trkpt lat="45.8347" lon="6.44674">
        <ele>2194</ele>
        <time>2018-10-17T09:46:39Z</time>
      </trkpt>
      <trkpt lat="45.8347" lon="6.44674">
        <ele>2194</ele>
        <time>2018-10-17T09:46:40Z</time>
      </trkpt>
      <trkpt lat="45.83468" lon="6.44672">
        <ele>2194</ele>
        <time>2018-10-17T09:46:41Z</time>
      </trkpt>
      <trkpt lat="45.83468" lon="6.44672">
        <ele>2195</ele>
        <time>2018-10-17T09:46:42Z</time>
      </trkpt>
      <trkpt lat="45.83468" lon="6.44672">
        <ele>2195</ele>
        <time>2018-10-17T09:46:43Z</time>
      </trkpt>
      <trkpt lat="45.83468" lon="6.44672">
        <ele>2195</ele>
        <time>2018-10-17T09:46:44Z</time>
      </trkpt>
      <trkpt lat="45.83466" lon="6.4467">
        <ele>2196</ele>
        <time>2018-10-17T09:46:45Z</time>
      </trkpt>
      <trkpt lat="45.83466" lon="6.4467">
        <ele>2196</ele>
        <time>2018-10-17T09:46:46Z</time>
      </trkpt>
      <trkpt lat="45.83466" lon="6.4467">
        <ele>2196</ele>
        <time>2018-10-17T09:46:47Z</time>
      </trkpt>
      <trkpt lat="45.83466" lon="6.4467">
        <ele>2196</ele>
        <time>2018-10-17T09:46:48Z</time>
      </trkpt>
      <trkpt lat="45.83465" lon="6.44668">
        <ele>2196</ele>
        <time>2018-10-17T09:46:49Z</time>
      </trkpt>
      <trkpt lat="45.83465" lon="6.44668">
        <ele>2197</ele>
        <time>2018-10-17T09:46:50Z</time>
      </trkpt>
      <trkpt lat="45.83465" lon="6.44668">
        <ele>2197</ele>
        <time>2018-10-17T09:46:51Z</time>
      </trkpt>
      <trkpt lat="45.83464" lon="6.44666">
        <ele>2197</ele>
        <time>2018-10-17T09:46:52Z</time>
      </trkpt>
      <trkpt lat="45.83464" lon="6.44666">
        <ele>2197</ele>
        <time>2018-10-17T09:46:53Z</time>
      </trkpt>
      <trkpt lat="45.83464" lon="6.44666">
        <ele>2198</ele>
        <time>2018-10-17T09:46:54Z</time>
      </trkpt>
      <trkpt lat="45.83463" lon="6.44663">
        <ele>2198</ele>
        <time>2018-10-17T09:46:55Z</time>
      </trkpt>
      <trkpt lat="45.83463" lon="6.44663">
        <ele>2198</ele>
        <time>2018-10-17T09:46:56Z</time>
      </trkpt>
      <trkpt lat="45.83463" lon="6.44663">
        <ele>2198</ele>
        <time>2018-10-17T09:46:57Z</time>
      </trkpt>
      <trkpt lat="45.83461" lon="6.4466">
        <ele>2198</ele>
        <time>2018-10-17T09:46:58Z</time>
      </trkpt>
      <trkpt lat="45.83461" lon="6.4466">
        <ele>2198</ele>
        <time>2018-10-17T09:46:59Z</time>
      </trkpt>
      <trkpt lat="45.83461" lon="6.4466">
        <ele>2198</ele>
        <time>2018-10-17T09:47:00Z</time>
      </trkpt>
      <trkpt lat="45.83461" lon="6.4466">
        <ele>2198</ele>
        <time>2018-10-17T09:47:01Z</time>
      </trkpt>
      <trkpt lat="45.83461" lon="6.4466">
        <ele>2199</ele>
        <time>2018-10-17T09:47:02Z</time>
      </trkpt>
      <trkpt lat="45.8346" lon="6.44658">
        <ele>2199</ele>
        <time>2018-10-17T09:47:03Z</time>
      </trkpt>
      <trkpt lat="45.8346" lon="6.44658">
        <ele>2199</ele>
        <time>2018-10-17T09:47:04Z</time>
      </trkpt>
      <trkpt lat="45.8346" lon="6.44658">
        <ele>2199</ele>
        <time>2018-10-17T09:47:05Z</time>
      </trkpt>
      <trkpt lat="45.83459" lon="6.44656">
        <ele>2199</ele>
        <time>2018-10-17T09:47:06Z</time>
      </trkpt>
      <trkpt lat="45.83459" lon="6.44656">
        <ele>2199</ele>
        <time>2018-10-17T09:47:07Z</time>
      </trkpt>
      <trkpt lat="45.83459" lon="6.44656">
        <ele>2199</ele>
        <time>2018-10-17T09:47:08Z</time>
      </trkpt>
      <trkpt lat="45.83459" lon="6.44656">
        <ele>2199</ele>
        <time>2018-10-17T09:47:09Z</time>
      </trkpt>
      <trkpt lat="45.83459" lon="6.44656">
        <ele>2199</ele>
        <time>2018-10-17T09:47:10Z</time>
      </trkpt>
      <trkpt lat="45.83459" lon="6.44656">
        <ele>2199</ele>
        <time>2018-10-17T09:47:11Z</time>
      </trkpt>
      <trkpt lat="45.83459" lon="6.44656">
        <ele>2199</ele>
        <time>2018-10-17T09:47:12Z</time>
      </trkpt>
      <trkpt lat="45.83459" lon="6.44656">
        <ele>2199</ele>
        <time>2018-10-17T09:47:13Z</time>
      </trkpt>
      <trkpt lat="45.83459" lon="6.44656">
        <ele>2199</ele>
        <time>2018-10-17T09:47:14Z</time>
      </trkpt>
      <trkpt lat="45.83459" lon="6.44656">
        <ele>2199</ele>
        <time>2018-10-17T09:47:15Z</time>
      </trkpt>
      <trkpt lat="45.83458" lon="6.44653">
        <ele>2199</ele>
        <time>2018-10-17T09:47:16Z</time>
      </trkpt>
      <trkpt lat="45.83458" lon="6.44653">
        <ele>2199</ele>
        <time>2018-10-17T09:47:17Z</time>
      </trkpt>
      <trkpt lat="45.83457" lon="6.4465">
        <ele>2198</ele>
        <time>2018-10-17T09:47:18Z</time>
      </trkpt>
      <trkpt lat="45.83457" lon="6.4465">
        <ele>2198</ele>
        <time>2018-10-17T09:47:19Z</time>
      </trkpt>
      <trkpt lat="45.83457" lon="6.4465">
        <ele>2198</ele>
        <time>2018-10-17T09:47:20Z</time>
      </trkpt>
      <trkpt lat="45.83456" lon="6.44647">
        <ele>2198</ele>
        <time>2018-10-17T09:47:21Z</time>
      </trkpt>
      <trkpt lat="45.83456" lon="6.44647">
        <ele>2198</ele>
        <time>2018-10-17T09:47:22Z</time>
      </trkpt>
      <trkpt lat="45.83456" lon="6.44647">
        <ele>2198</ele>
        <time>2018-10-17T09:47:23Z</time>
      </trkpt>
      <trkpt lat="45.83456" lon="6.44647">
        <ele>2199</ele>
        <time>2018-10-17T09:47:24Z</time>
      </trkpt>
      <trkpt lat="45.83453" lon="6.44646">
        <ele>2199</ele>
        <time>2018-10-17T09:47:25Z</time>
      </trkpt>
      <trkpt lat="45.83453" lon="6.44646">
        <ele>2199</ele>
        <time>2018-10-17T09:47:26Z</time>
      </trkpt>
      <trkpt lat="45.83453" lon="6.44646">
        <ele>2200</ele>
        <time>2018-10-17T09:47:27Z</time>
      </trkpt>
      <trkpt lat="45.83453" lon="6.44646">
        <ele>2200</ele>
        <time>2018-10-17T09:47:28Z</time>
      </trkpt>
      <trkpt lat="45.83452" lon="6.44644">
        <ele>2200</ele>
        <time>2018-10-17T09:47:29Z</time>
      </trkpt>
      <trkpt lat="45.83452" lon="6.44644">
        <ele>2201</ele>
        <time>2018-10-17T09:47:30Z</time>
      </trkpt>
      <trkpt lat="45.83452" lon="6.44644">
        <ele>2201</ele>
        <time>2018-10-17T09:47:31Z</time>
      </trkpt>
      <trkpt lat="45.83452" lon="6.4464">
        <ele>2202</ele>
        <time>2018-10-17T09:47:32Z</time>
      </trkpt>
      <trkpt lat="45.83452" lon="6.4464">
        <ele>2202</ele>
        <time>2018-10-17T09:47:33Z</time>
      </trkpt>
      <trkpt lat="45.83452" lon="6.4464">
        <ele>2202</ele>
        <time>2018-10-17T09:47:34Z</time>
      </trkpt>
      <trkpt lat="45.8345" lon="6.44638">
        <ele>2202</ele>
        <time>2018-10-17T09:47:35Z</time>
      </trkpt>
      <trkpt lat="45.8345" lon="6.44638">
        <ele>2202</ele>
        <time>2018-10-17T09:47:36Z</time>
      </trkpt>
      <trkpt lat="45.8345" lon="6.44638">
        <ele>2202</ele>
        <time>2018-10-17T09:47:37Z</time>
      </trkpt>
      <trkpt lat="45.83448" lon="6.44638">
        <ele>2202</ele>
        <time>2018-10-17T09:47:38Z</time>
      </trkpt>
      <trkpt lat="45.83448" lon="6.44638">
        <ele>2202</ele>
        <time>2018-10-17T09:47:39Z</time>
      </trkpt>
      <trkpt lat="45.83448" lon="6.44638">
        <ele>2202</ele>
        <time>2018-10-17T09:47:40Z</time>
      </trkpt>
      <trkpt lat="45.83446" lon="6.44637">
        <ele>2202</ele>
        <time>2018-10-17T09:47:41Z</time>
      </trkpt>
      <trkpt lat="45.83446" lon="6.44637">
        <ele>2203</ele>
        <time>2018-10-17T09:47:42Z</time>
      </trkpt>
      <trkpt lat="45.83446" lon="6.44637">
        <ele>2203</ele>
        <time>2018-10-17T09:47:43Z</time>
      </trkpt>
      <trkpt lat="45.83444" lon="6.44636">
        <ele>2203</ele>
        <time>2018-10-17T09:47:44Z</time>
      </trkpt>
      <trkpt lat="45.83444" lon="6.44636">
        <ele>2203</ele>
        <time>2018-10-17T09:47:45Z</time>
      </trkpt>
      <trkpt lat="45.83444" lon="6.44636">
        <ele>2204</ele>
        <time>2018-10-17T09:47:46Z</time>
      </trkpt>
      <trkpt lat="45.83442" lon="6.44635">
        <ele>2204</ele>
        <time>2018-10-17T09:47:47Z</time>
      </trkpt>
      <trkpt lat="45.83442" lon="6.44635">
        <ele>2204</ele>
        <time>2018-10-17T09:47:48Z</time>
      </trkpt>
      <trkpt lat="45.8344" lon="6.44634">
        <ele>2204</ele>
        <time>2018-10-17T09:47:49Z</time>
      </trkpt>
      <trkpt lat="45.8344" lon="6.44634">
        <ele>2204</ele>
        <time>2018-10-17T09:47:50Z</time>
      </trkpt>
      <trkpt lat="45.83438" lon="6.44633">
        <ele>2205</ele>
        <time>2018-10-17T09:47:51Z</time>
      </trkpt>
      <trkpt lat="45.83438" lon="6.44633">
        <ele>2205</ele>
        <time>2018-10-17T09:47:52Z</time>
      </trkpt>
      <trkpt lat="45.83438" lon="6.44633">
        <ele>2205</ele>
        <time>2018-10-17T09:47:53Z</time>
      </trkpt>
      <trkpt lat="45.83436" lon="6.44632">
        <ele>2205</ele>
        <time>2018-10-17T09:47:54Z</time>
      </trkpt>
      <trkpt lat="45.83436" lon="6.44632">
        <ele>2206</ele>
        <time>2018-10-17T09:47:55Z</time>
      </trkpt>
      <trkpt lat="45.83434" lon="6.44631">
        <ele>2207</ele>
        <time>2018-10-17T09:47:56Z</time>
      </trkpt>
      <trkpt lat="45.83434" lon="6.44631">
        <ele>2207</ele>
        <time>2018-10-17T09:47:57Z</time>
      </trkpt>
      <trkpt lat="45.83433" lon="6.4463">
        <ele>2207</ele>
        <time>2018-10-17T09:47:58Z</time>
      </trkpt>
      <trkpt lat="45.83433" lon="6.4463">
        <ele>2207</ele>
        <time>2018-10-17T09:47:59Z</time>
      </trkpt>
      <trkpt lat="45.83431" lon="6.44628">
        <ele>2207</ele>
        <time>2018-10-17T09:48:00Z</time>
      </trkpt>
      <trkpt lat="45.83431" lon="6.44628">
        <ele>2207</ele>
        <time>2018-10-17T09:48:01Z</time>
      </trkpt>
      <trkpt lat="45.83429" lon="6.44627">
        <ele>2207</ele>
        <time>2018-10-17T09:48:02Z</time>
      </trkpt>
      <trkpt lat="45.83429" lon="6.44627">
        <ele>2207</ele>
        <time>2018-10-17T09:48:03Z</time>
      </trkpt>
      <trkpt lat="45.83427" lon="6.44625">
        <ele>2207</ele>
        <time>2018-10-17T09:48:04Z</time>
      </trkpt>
      <trkpt lat="45.83427" lon="6.44625">
        <ele>2208</ele>
        <time>2018-10-17T09:48:05Z</time>
      </trkpt>
      <trkpt lat="45.83427" lon="6.44625">
        <ele>2208</ele>
        <time>2018-10-17T09:48:06Z</time>
      </trkpt>
      <trkpt lat="45.83425" lon="6.44623">
        <ele>2208</ele>
        <time>2018-10-17T09:48:07Z</time>
      </trkpt>
      <trkpt lat="45.83425" lon="6.44623">
        <ele>2208</ele>
        <time>2018-10-17T09:48:08Z</time>
      </trkpt>
      <trkpt lat="45.83425" lon="6.44623">
        <ele>2208</ele>
        <time>2018-10-17T09:48:09Z</time>
      </trkpt>
      <trkpt lat="45.83423" lon="6.44622">
        <ele>2208</ele>
        <time>2018-10-17T09:48:10Z</time>
      </trkpt>
      <trkpt lat="45.83423" lon="6.44622">
        <ele>2209</ele>
        <time>2018-10-17T09:48:11Z</time>
      </trkpt>
      <trkpt lat="45.83423" lon="6.44622">
        <ele>2210</ele>
        <time>2018-10-17T09:48:12Z</time>
      </trkpt>
      <trkpt lat="45.83421" lon="6.4462">
        <ele>2210</ele>
        <time>2018-10-17T09:48:13Z</time>
      </trkpt>
      <trkpt lat="45.83421" lon="6.4462">
        <ele>2210</ele>
        <time>2018-10-17T09:48:14Z</time>
      </trkpt>
      <trkpt lat="45.83419" lon="6.44619">
        <ele>2210</ele>
        <time>2018-10-17T09:48:15Z</time>
      </trkpt>
      <trkpt lat="45.83419" lon="6.44619">
        <ele>2210</ele>
        <time>2018-10-17T09:48:16Z</time>
      </trkpt>
      <trkpt lat="45.83419" lon="6.44619">
        <ele>2210</ele>
        <time>2018-10-17T09:48:17Z</time>
      </trkpt>
      <trkpt lat="45.83417" lon="6.44618">
        <ele>2209</ele>
        <time>2018-10-17T09:48:18Z</time>
      </trkpt>
      <trkpt lat="45.83417" lon="6.44618">
        <ele>2209</ele>
        <time>2018-10-17T09:48:19Z</time>
      </trkpt>
      <trkpt lat="45.83415" lon="6.44616">
        <ele>2208</ele>
        <time>2018-10-17T09:48:20Z</time>
      </trkpt>
      <trkpt lat="45.83415" lon="6.44616">
        <ele>2208</ele>
        <time>2018-10-17T09:48:21Z</time>
      </trkpt>
      <trkpt lat="45.83415" lon="6.44616">
        <ele>2208</ele>
        <time>2018-10-17T09:48:22Z</time>
      </trkpt>
      <trkpt lat="45.83413" lon="6.44614">
        <ele>2208</ele>
        <time>2018-10-17T09:48:23Z</time>
      </trkpt>
      <trkpt lat="45.83413" lon="6.44614">
        <ele>2208</ele>
        <time>2018-10-17T09:48:24Z</time>
      </trkpt>
      <trkpt lat="45.83411" lon="6.44613">
        <ele>2208</ele>
        <time>2018-10-17T09:48:25Z</time>
      </trkpt>
      <trkpt lat="45.83411" lon="6.44613">
        <ele>2208</ele>
        <time>2018-10-17T09:48:26Z</time>
      </trkpt>
      <trkpt lat="45.8341" lon="6.44611">
        <ele>2208</ele>
        <time>2018-10-17T09:48:27Z</time>
      </trkpt>
      <trkpt lat="45.8341" lon="6.44611">
        <ele>2208</ele>
        <time>2018-10-17T09:48:28Z</time>
      </trkpt>
      <trkpt lat="45.83408" lon="6.44611">
        <ele>2208</ele>
        <time>2018-10-17T09:48:29Z</time>
      </trkpt>
      <trkpt lat="45.83408" lon="6.44611">
        <ele>2208</ele>
        <time>2018-10-17T09:48:30Z</time>
      </trkpt>
      <trkpt lat="45.83408" lon="6.44611">
        <ele>2208</ele>
        <time>2018-10-17T09:48:31Z</time>
      </trkpt>
      <trkpt lat="45.83408" lon="6.44611">
        <ele>2208</ele>
        <time>2018-10-17T09:48:32Z</time>
      </trkpt>
      <trkpt lat="45.83405" lon="6.4461">
        <ele>2208</ele>
        <time>2018-10-17T09:48:33Z</time>
      </trkpt>
      <trkpt lat="45.83405" lon="6.4461">
        <ele>2208</ele>
        <time>2018-10-17T09:48:34Z</time>
      </trkpt>
      <trkpt lat="45.83405" lon="6.4461">
        <ele>2208</ele>
        <time>2018-10-17T09:48:35Z</time>
      </trkpt>
      <trkpt lat="45.83403" lon="6.4461">
        <ele>2208</ele>
        <time>2018-10-17T09:48:36Z</time>
      </trkpt>
      <trkpt lat="45.83403" lon="6.4461">
        <ele>2208</ele>
        <time>2018-10-17T09:48:37Z</time>
      </trkpt>
      <trkpt lat="45.83403" lon="6.4461">
        <ele>2209</ele>
        <time>2018-10-17T09:48:38Z</time>
      </trkpt>
      <trkpt lat="45.83403" lon="6.4461">
        <ele>2209</ele>
        <time>2018-10-17T09:48:39Z</time>
      </trkpt>
      <trkpt lat="45.83401" lon="6.44609">
        <ele>2209</ele>
        <time>2018-10-17T09:48:40Z</time>
      </trkpt>
      <trkpt lat="45.83401" lon="6.44609">
        <ele>2209</ele>
        <time>2018-10-17T09:48:41Z</time>
      </trkpt>
      <trkpt lat="45.83401" lon="6.44609">
        <ele>2209</ele>
        <time>2018-10-17T09:48:42Z</time>
      </trkpt>
      <trkpt lat="45.83401" lon="6.44609">
        <ele>2210</ele>
        <time>2018-10-17T09:48:43Z</time>
      </trkpt>
      <trkpt lat="45.83399" lon="6.44608">
        <ele>2210</ele>
        <time>2018-10-17T09:48:44Z</time>
      </trkpt>
      <trkpt lat="45.83399" lon="6.44608">
        <ele>2211</ele>
        <time>2018-10-17T09:48:45Z</time>
      </trkpt>
      <trkpt lat="45.83399" lon="6.44608">
        <ele>2211</ele>
        <time>2018-10-17T09:48:46Z</time>
      </trkpt>
      <trkpt lat="45.83397" lon="6.44606">
        <ele>2211</ele>
        <time>2018-10-17T09:48:47Z</time>
      </trkpt>
      <trkpt lat="45.83397" lon="6.44606">
        <ele>2211</ele>
        <time>2018-10-17T09:48:48Z</time>
      </trkpt>
      <trkpt lat="45.83397" lon="6.44606">
        <ele>2212</ele>
        <time>2018-10-17T09:48:49Z</time>
      </trkpt>
      <trkpt lat="45.83395" lon="6.44604">
        <ele>2212</ele>
        <time>2018-10-17T09:48:50Z</time>
      </trkpt>
      <trkpt lat="45.83395" lon="6.44604">
        <ele>2212</ele>
        <time>2018-10-17T09:48:51Z</time>
      </trkpt>
      <trkpt lat="45.83393" lon="6.44602">
        <ele>2212</ele>
        <time>2018-10-17T09:48:52Z</time>
      </trkpt>
      <trkpt lat="45.83393" lon="6.44602">
        <ele>2212</ele>
        <time>2018-10-17T09:48:53Z</time>
      </trkpt>
      <trkpt lat="45.83393" lon="6.44602">
        <ele>2212</ele>
        <time>2018-10-17T09:48:54Z</time>
      </trkpt>
      <trkpt lat="45.83392" lon="6.446">
        <ele>2212</ele>
        <time>2018-10-17T09:48:55Z</time>
      </trkpt>
      <trkpt lat="45.83392" lon="6.446">
        <ele>2212</ele>
        <time>2018-10-17T09:48:56Z</time>
      </trkpt>
      <trkpt lat="45.83392" lon="6.446">
        <ele>2212</ele>
        <time>2018-10-17T09:48:57Z</time>
      </trkpt>
      <trkpt lat="45.8339" lon="6.44598">
        <ele>2212</ele>
        <time>2018-10-17T09:48:58Z</time>
      </trkpt>
      <trkpt lat="45.8339" lon="6.44598">
        <ele>2212</ele>
        <time>2018-10-17T09:48:59Z</time>
      </trkpt>
      <trkpt lat="45.83389" lon="6.44596">
        <ele>2212</ele>
        <time>2018-10-17T09:49:00Z</time>
      </trkpt>
      <trkpt lat="45.83389" lon="6.44596">
        <ele>2212</ele>
        <time>2018-10-17T09:49:01Z</time>
      </trkpt>
      <trkpt lat="45.83388" lon="6.44594">
        <ele>2213</ele>
        <time>2018-10-17T09:49:02Z</time>
      </trkpt>
      <trkpt lat="45.83388" lon="6.44594">
        <ele>2213</ele>
        <time>2018-10-17T09:49:03Z</time>
      </trkpt>
      <trkpt lat="45.83388" lon="6.44594">
        <ele>2213</ele>
        <time>2018-10-17T09:49:04Z</time>
      </trkpt>
      <trkpt lat="45.83386" lon="6.44592">
        <ele>2214</ele>
        <time>2018-10-17T09:49:05Z</time>
      </trkpt>
      <trkpt lat="45.83386" lon="6.44592">
        <ele>2214</ele>
        <time>2018-10-17T09:49:06Z</time>
      </trkpt>
      <trkpt lat="45.83386" lon="6.44592">
        <ele>2215</ele>
        <time>2018-10-17T09:49:07Z</time>
      </trkpt>
      <trkpt lat="45.83384" lon="6.44591">
        <ele>2215</ele>
        <time>2018-10-17T09:49:08Z</time>
      </trkpt>
      <trkpt lat="45.83384" lon="6.44591">
        <ele>2215</ele>
        <time>2018-10-17T09:49:09Z</time>
      </trkpt>
      <trkpt lat="45.83384" lon="6.44591">
        <ele>2215</ele>
        <time>2018-10-17T09:49:10Z</time>
      </trkpt>
      <trkpt lat="45.83382" lon="6.44589">
        <ele>2215</ele>
        <time>2018-10-17T09:49:11Z</time>
      </trkpt>
      <trkpt lat="45.83382" lon="6.44589">
        <ele>2215</ele>
        <time>2018-10-17T09:49:12Z</time>
      </trkpt>
      <trkpt lat="45.83382" lon="6.44589">
        <ele>2215</ele>
        <time>2018-10-17T09:49:13Z</time>
      </trkpt>
      <trkpt lat="45.8338" lon="6.44587">
        <ele>2216</ele>
        <time>2018-10-17T09:49:14Z</time>
      </trkpt>
      <trkpt lat="45.8338" lon="6.44587">
        <ele>2218</ele>
        <time>2018-10-17T09:49:15Z</time>
      </trkpt>
      <trkpt lat="45.83379" lon="6.44584">
        <ele>2218</ele>
        <time>2018-10-17T09:49:16Z</time>
      </trkpt>
      <trkpt lat="45.83379" lon="6.44584">
        <ele>2216</ele>
        <time>2018-10-17T09:49:17Z</time>
      </trkpt>
      <trkpt lat="45.83378" lon="6.44581">
        <ele>2216</ele>
        <time>2018-10-17T09:49:18Z</time>
      </trkpt>
      <trkpt lat="45.83378" lon="6.44581">
        <ele>2216</ele>
        <time>2018-10-17T09:49:19Z</time>
      </trkpt>
      <trkpt lat="45.83378" lon="6.44581">
        <ele>2216</ele>
        <time>2018-10-17T09:49:20Z</time>
      </trkpt>
      <trkpt lat="45.83378" lon="6.44581">
        <ele>2216</ele>
        <time>2018-10-17T09:49:21Z</time>
      </trkpt>
      <trkpt lat="45.83377" lon="6.44578">
        <ele>2216</ele>
        <time>2018-10-17T09:49:22Z</time>
      </trkpt>
      <trkpt lat="45.83377" lon="6.44578">
        <ele>2216</ele>
        <time>2018-10-17T09:49:23Z</time>
      </trkpt>
      <trkpt lat="45.83375" lon="6.44577">
        <ele>2218</ele>
        <time>2018-10-17T09:49:24Z</time>
      </trkpt>
      <trkpt lat="45.83375" lon="6.44577">
        <ele>2218</ele>
        <time>2018-10-17T09:49:25Z</time>
      </trkpt>
      <trkpt lat="45.83375" lon="6.44577">
        <ele>2218</ele>
        <time>2018-10-17T09:49:26Z</time>
      </trkpt>
      <trkpt lat="45.83373" lon="6.44575">
        <ele>2218</ele>
        <time>2018-10-17T09:49:27Z</time>
      </trkpt>
      <trkpt lat="45.83373" lon="6.44575">
        <ele>2219</ele>
        <time>2018-10-17T09:49:28Z</time>
      </trkpt>
      <trkpt lat="45.83373" lon="6.44575">
        <ele>2219</ele>
        <time>2018-10-17T09:49:29Z</time>
      </trkpt>
      <trkpt lat="45.83373" lon="6.44575">
        <ele>2219</ele>
        <time>2018-10-17T09:49:30Z</time>
      </trkpt>
      <trkpt lat="45.83373" lon="6.44575">
        <ele>2219</ele>
        <time>2018-10-17T09:49:31Z</time>
      </trkpt>
      <trkpt lat="45.83371" lon="6.44574">
        <ele>2219</ele>
        <time>2018-10-17T09:49:32Z</time>
      </trkpt>
      <trkpt lat="45.83371" lon="6.44574">
        <ele>2219</ele>
        <time>2018-10-17T09:49:33Z</time>
      </trkpt>
      <trkpt lat="45.8337" lon="6.44572">
        <ele>2219</ele>
        <time>2018-10-17T09:49:34Z</time>
      </trkpt>
      <trkpt lat="45.8337" lon="6.44572">
        <ele>2220</ele>
        <time>2018-10-17T09:49:35Z</time>
      </trkpt>
      <trkpt lat="45.83368" lon="6.44569">
        <ele>2220</ele>
        <time>2018-10-17T09:49:36Z</time>
      </trkpt>
      <trkpt lat="45.83368" lon="6.44569">
        <ele>2220</ele>
        <time>2018-10-17T09:49:37Z</time>
      </trkpt>
      <trkpt lat="45.83367" lon="6.44567">
        <ele>2220</ele>
        <time>2018-10-17T09:49:38Z</time>
      </trkpt>
      <trkpt lat="45.83367" lon="6.44567">
        <ele>2220</ele>
        <time>2018-10-17T09:49:39Z</time>
      </trkpt>
      <trkpt lat="45.83365" lon="6.44565">
        <ele>2220</ele>
        <time>2018-10-17T09:49:40Z</time>
      </trkpt>
      <trkpt lat="45.83365" lon="6.44565">
        <ele>2220</ele>
        <time>2018-10-17T09:49:41Z</time>
      </trkpt>
      <trkpt lat="45.83363" lon="6.44562">
        <ele>2220</ele>
        <time>2018-10-17T09:49:42Z</time>
      </trkpt>
      <trkpt lat="45.83363" lon="6.44562">
        <ele>2220</ele>
        <time>2018-10-17T09:49:43Z</time>
      </trkpt>
      <trkpt lat="45.83361" lon="6.4456">
        <ele>2220</ele>
        <time>2018-10-17T09:49:44Z</time>
      </trkpt>
      <trkpt lat="45.83361" lon="6.4456">
        <ele>2220</ele>
        <time>2018-10-17T09:49:45Z</time>
      </trkpt>
      <trkpt lat="45.83359" lon="6.44558">
        <ele>2220</ele>
        <time>2018-10-17T09:49:46Z</time>
      </trkpt>
      <trkpt lat="45.83359" lon="6.44558">
        <ele>2220</ele>
        <time>2018-10-17T09:49:47Z</time>
      </trkpt>
      <trkpt lat="45.83357" lon="6.44556">
        <ele>2220</ele>
        <time>2018-10-17T09:49:48Z</time>
      </trkpt>
      <trkpt lat="45.83357" lon="6.44556">
        <ele>2220</ele>
        <time>2018-10-17T09:49:49Z</time>
      </trkpt>
      <trkpt lat="45.83354" lon="6.44554">
        <ele>2220</ele>
        <time>2018-10-17T09:49:50Z</time>
      </trkpt>
      <trkpt lat="45.83354" lon="6.44554">
        <ele>2220</ele>
        <time>2018-10-17T09:49:51Z</time>
      </trkpt>
      <trkpt lat="45.83353" lon="6.44552">
        <ele>2220</ele>
        <time>2018-10-17T09:49:52Z</time>
      </trkpt>
      <trkpt lat="45.83353" lon="6.44552">
        <ele>2220</ele>
        <time>2018-10-17T09:49:53Z</time>
      </trkpt>
      <trkpt lat="45.83351" lon="6.44552">
        <ele>2220</ele>
        <time>2018-10-17T09:49:54Z</time>
      </trkpt>
      <trkpt lat="45.83351" lon="6.44552">
        <ele>2220</ele>
        <time>2018-10-17T09:49:55Z</time>
      </trkpt>
      <trkpt lat="45.83349" lon="6.4455">
        <ele>2220</ele>
        <time>2018-10-17T09:49:56Z</time>
      </trkpt>
      <trkpt lat="45.83349" lon="6.4455">
        <ele>2220</ele>
        <time>2018-10-17T09:49:57Z</time>
      </trkpt>
      <trkpt lat="45.83348" lon="6.44548">
        <ele>2220</ele>
        <time>2018-10-17T09:49:58Z</time>
      </trkpt>
      <trkpt lat="45.83348" lon="6.44548">
        <ele>2220</ele>
        <time>2018-10-17T09:49:59Z</time>
      </trkpt>
      <trkpt lat="45.83348" lon="6.44548">
        <ele>2220</ele>
        <time>2018-10-17T09:50:00Z</time>
      </trkpt>
      <trkpt lat="45.83348" lon="6.44548">
        <ele>2220</ele>
        <time>2018-10-17T09:50:01Z</time>
      </trkpt>
      <trkpt lat="45.83348" lon="6.44548">
        <ele>2220</ele>
        <time>2018-10-17T09:50:02Z</time>
      </trkpt>
      <trkpt lat="45.83348" lon="6.44548">
        <ele>2220</ele>
        <time>2018-10-17T09:50:03Z</time>
      </trkpt>
      <trkpt lat="45.83348" lon="6.44548">
        <ele>2220</ele>
        <time>2018-10-17T09:50:04Z</time>
      </trkpt>
      <trkpt lat="45.83348" lon="6.44548">
        <ele>2220</ele>
        <time>2018-10-17T09:50:05Z</time>
      </trkpt>
      <trkpt lat="45.83348" lon="6.44548">
        <ele>2220</ele>
        <time>2018-10-17T09:50:06Z</time>
      </trkpt>
      <trkpt lat="45.83348" lon="6.44548">
        <ele>2219</ele>
        <time>2018-10-17T09:50:07Z</time>
      </trkpt>
      <trkpt lat="45.83348" lon="6.44548">
        <ele>2219</ele>
        <time>2018-10-17T09:50:08Z</time>
      </trkpt>
      <trkpt lat="45.83348" lon="6.44548">
        <ele>2219</ele>
        <time>2018-10-17T09:50:09Z</time>
      </trkpt>
      <trkpt lat="45.83348" lon="6.44548">
        <ele>2219</ele>
        <time>2018-10-17T09:50:10Z</time>
      </trkpt>
      <trkpt lat="45.83346" lon="6.44546">
        <ele>2219</ele>
        <time>2018-10-17T09:50:11Z</time>
      </trkpt>
      <trkpt lat="45.83346" lon="6.44546">
        <ele>2219</ele>
        <time>2018-10-17T09:50:12Z</time>
      </trkpt>
      <trkpt lat="45.83346" lon="6.44546">
        <ele>2220</ele>
        <time>2018-10-17T09:50:13Z</time>
      </trkpt>
      <trkpt lat="45.83344" lon="6.44545">
        <ele>2220</ele>
        <time>2018-10-17T09:50:14Z</time>
      </trkpt>
      <trkpt lat="45.83344" lon="6.44545">
        <ele>2220</ele>
        <time>2018-10-17T09:50:15Z</time>
      </trkpt>
      <trkpt lat="45.83344" lon="6.44545">
        <ele>2220</ele>
        <time>2018-10-17T09:50:16Z</time>
      </trkpt>
      <trkpt lat="45.83342" lon="6.44543">
        <ele>2220</ele>
        <time>2018-10-17T09:50:17Z</time>
      </trkpt>
      <trkpt lat="45.83342" lon="6.44543">
        <ele>2220</ele>
        <time>2018-10-17T09:50:18Z</time>
      </trkpt>
      <trkpt lat="45.83342" lon="6.44543">
        <ele>2221</ele>
        <time>2018-10-17T09:50:19Z</time>
      </trkpt>
      <trkpt lat="45.83342" lon="6.44543">
        <ele>2221</ele>
        <time>2018-10-17T09:50:20Z</time>
      </trkpt>
      <trkpt lat="45.83341" lon="6.44541">
        <ele>2221</ele>
        <time>2018-10-17T09:50:21Z</time>
      </trkpt>
      <trkpt lat="45.83341" lon="6.44541">
        <ele>2221</ele>
        <time>2018-10-17T09:50:22Z</time>
      </trkpt>
      <trkpt lat="45.83341" lon="6.44541">
        <ele>2222</ele>
        <time>2018-10-17T09:50:23Z</time>
      </trkpt>
      <trkpt lat="45.83341" lon="6.44541">
        <ele>2222</ele>
        <time>2018-10-17T09:50:24Z</time>
      </trkpt>
      <trkpt lat="45.83339" lon="6.44541">
        <ele>2222</ele>
        <time>2018-10-17T09:50:25Z</time>
      </trkpt>
      <trkpt lat="45.83339" lon="6.44541">
        <ele>2223</ele>
        <time>2018-10-17T09:50:26Z</time>
      </trkpt>
      <trkpt lat="45.83339" lon="6.44541">
        <ele>2223</ele>
        <time>2018-10-17T09:50:27Z</time>
      </trkpt>
      <trkpt lat="45.83337" lon="6.4454">
        <ele>2223</ele>
        <time>2018-10-17T09:50:28Z</time>
      </trkpt>
      <trkpt lat="45.83337" lon="6.4454">
        <ele>2224</ele>
        <time>2018-10-17T09:50:29Z</time>
      </trkpt>
      <trkpt lat="45.83337" lon="6.4454">
        <ele>2224</ele>
        <time>2018-10-17T09:50:30Z</time>
      </trkpt>
      <trkpt lat="45.83337" lon="6.4454">
        <ele>2224</ele>
        <time>2018-10-17T09:50:31Z</time>
      </trkpt>
      <trkpt lat="45.83337" lon="6.4454">
        <ele>2224</ele>
        <time>2018-10-17T09:50:32Z</time>
      </trkpt>
      <trkpt lat="45.83337" lon="6.4454">
        <ele>2224</ele>
        <time>2018-10-17T09:50:33Z</time>
      </trkpt>
      <trkpt lat="45.83335" lon="6.4454">
        <ele>2224</ele>
        <time>2018-10-17T09:50:34Z</time>
      </trkpt>
      <trkpt lat="45.83335" lon="6.4454">
        <ele>2225</ele>
        <time>2018-10-17T09:50:35Z</time>
      </trkpt>
      <trkpt lat="45.83335" lon="6.4454">
        <ele>2225</ele>
        <time>2018-10-17T09:50:36Z</time>
      </trkpt>
      <trkpt lat="45.83335" lon="6.4454">
        <ele>2225</ele>
        <time>2018-10-17T09:50:37Z</time>
      </trkpt>
      <trkpt lat="45.83335" lon="6.4454">
        <ele>2225</ele>
        <time>2018-10-17T09:50:38Z</time>
      </trkpt>
      <trkpt lat="45.83335" lon="6.4454">
        <ele>2226</ele>
        <time>2018-10-17T09:50:39Z</time>
      </trkpt>
      <trkpt lat="45.83333" lon="6.4454">
        <ele>2226</ele>
        <time>2018-10-17T09:50:40Z</time>
      </trkpt>
      <trkpt lat="45.83333" lon="6.4454">
        <ele>2226</ele>
        <time>2018-10-17T09:50:41Z</time>
      </trkpt>
      <trkpt lat="45.83333" lon="6.4454">
        <ele>2226</ele>
        <time>2018-10-17T09:50:42Z</time>
      </trkpt>
      <trkpt lat="45.83333" lon="6.4454">
        <ele>2227</ele>
        <time>2018-10-17T09:50:43Z</time>
      </trkpt>
      <trkpt lat="45.83333" lon="6.4454">
        <ele>2228</ele>
        <time>2018-10-17T09:50:44Z</time>
      </trkpt>
      <trkpt lat="45.83333" lon="6.4454">
        <ele>2228</ele>
        <time>2018-10-17T09:50:45Z</time>
      </trkpt>
      <trkpt lat="45.83333" lon="6.4454">
        <ele>2228</ele>
        <time>2018-10-17T09:50:46Z</time>
      </trkpt>
      <trkpt lat="45.83331" lon="6.4454">
        <ele>2228</ele>
        <time>2018-10-17T09:50:47Z</time>
      </trkpt>
      <trkpt lat="45.83331" lon="6.4454">
        <ele>2228</ele>
        <time>2018-10-17T09:50:48Z</time>
      </trkpt>
      <trkpt lat="45.83331" lon="6.4454">
        <ele>2228</ele>
        <time>2018-10-17T09:50:49Z</time>
      </trkpt>
      <trkpt lat="45.83331" lon="6.4454">
        <ele>2228</ele>
        <time>2018-10-17T09:50:50Z</time>
      </trkpt>
      <trkpt lat="45.83331" lon="6.4454">
        <ele>2228</ele>
        <time>2018-10-17T09:50:51Z</time>
      </trkpt>
      <trkpt lat="45.83329" lon="6.44539">
        <ele>2229</ele>
        <time>2018-10-17T09:50:52Z</time>
      </trkpt>
      <trkpt lat="45.83329" lon="6.44539">
        <ele>2229</ele>
        <time>2018-10-17T09:50:53Z</time>
      </trkpt>
      <trkpt lat="45.83329" lon="6.44539">
        <ele>2230</ele>
        <time>2018-10-17T09:50:54Z</time>
      </trkpt>
      <trkpt lat="45.83329" lon="6.44539">
        <ele>2230</ele>
        <time>2018-10-17T09:50:55Z</time>
      </trkpt>
      <trkpt lat="45.83329" lon="6.44539">
        <ele>2231</ele>
        <time>2018-10-17T09:50:56Z</time>
      </trkpt>
      <trkpt lat="45.83329" lon="6.44539">
        <ele>2231</ele>
        <time>2018-10-17T09:50:57Z</time>
      </trkpt>
      <trkpt lat="45.83329" lon="6.44539">
        <ele>2231</ele>
        <time>2018-10-17T09:50:58Z</time>
      </trkpt>
      <trkpt lat="45.83329" lon="6.44539">
        <ele>2231</ele>
        <time>2018-10-17T09:50:59Z</time>
      </trkpt>
      <trkpt lat="45.83326" lon="6.4454">
        <ele>2231</ele>
        <time>2018-10-17T09:51:00Z</time>
      </trkpt>
      <trkpt lat="45.83326" lon="6.4454">
        <ele>2232</ele>
        <time>2018-10-17T09:51:01Z</time>
      </trkpt>
      <trkpt lat="45.83326" lon="6.4454">
        <ele>2232</ele>
        <time>2018-10-17T09:51:02Z</time>
      </trkpt>
      <trkpt lat="45.83326" lon="6.4454">
        <ele>2232</ele>
        <time>2018-10-17T09:51:03Z</time>
      </trkpt>
      <trkpt lat="45.83326" lon="6.4454">
        <ele>2232</ele>
        <time>2018-10-17T09:51:04Z</time>
      </trkpt>
      <trkpt lat="45.83326" lon="6.4454">
        <ele>2232</ele>
        <time>2018-10-17T09:51:05Z</time>
      </trkpt>
      <trkpt lat="45.83326" lon="6.4454">
        <ele>2232</ele>
        <time>2018-10-17T09:51:06Z</time>
      </trkpt>
      <trkpt lat="45.83325" lon="6.44541">
        <ele>2233</ele>
        <time>2018-10-17T09:51:07Z</time>
      </trkpt>
      <trkpt lat="45.83325" lon="6.44541">
        <ele>2233</ele>
        <time>2018-10-17T09:51:08Z</time>
      </trkpt>
      <trkpt lat="45.83325" lon="6.44541">
        <ele>2233</ele>
        <time>2018-10-17T09:51:09Z</time>
      </trkpt>
      <trkpt lat="45.83325" lon="6.44541">
        <ele>2233</ele>
        <time>2018-10-17T09:51:10Z</time>
      </trkpt>
      <trkpt lat="45.83323" lon="6.44543">
        <ele>2233</ele>
        <time>2018-10-17T09:51:11Z</time>
      </trkpt>
      <trkpt lat="45.83323" lon="6.44543">
        <ele>2233</ele>
        <time>2018-10-17T09:51:12Z</time>
      </trkpt>
      <trkpt lat="45.83323" lon="6.44543">
        <ele>2234</ele>
        <time>2018-10-17T09:51:13Z</time>
      </trkpt>
      <trkpt lat="45.83323" lon="6.44543">
        <ele>2234</ele>
        <time>2018-10-17T09:51:14Z</time>
      </trkpt>
      <trkpt lat="45.83323" lon="6.44543">
        <ele>2234</ele>
        <time>2018-10-17T09:51:15Z</time>
      </trkpt>
      <trkpt lat="45.83321" lon="6.44545">
        <ele>2234</ele>
        <time>2018-10-17T09:51:16Z</time>
      </trkpt>
      <trkpt lat="45.83321" lon="6.44545">
        <ele>2234</ele>
        <time>2018-10-17T09:51:17Z</time>
      </trkpt>
      <trkpt lat="45.83321" lon="6.44545">
        <ele>2234</ele>
        <time>2018-10-17T09:51:18Z</time>
      </trkpt>
      <trkpt lat="45.83321" lon="6.44545">
        <ele>2234</ele>
        <time>2018-10-17T09:51:19Z</time>
      </trkpt>
      <trkpt lat="45.83321" lon="6.44545">
        <ele>2235</ele>
        <time>2018-10-17T09:51:20Z</time>
      </trkpt>
      <trkpt lat="45.83321" lon="6.44545">
        <ele>2236</ele>
        <time>2018-10-17T09:51:21Z</time>
      </trkpt>
      <trkpt lat="45.83319" lon="6.44544">
        <ele>2236</ele>
        <time>2018-10-17T09:51:22Z</time>
      </trkpt>
      <trkpt lat="45.83319" lon="6.44544">
        <ele>2236</ele>
        <time>2018-10-17T09:51:23Z</time>
      </trkpt>
      <trkpt lat="45.83319" lon="6.44544">
        <ele>2236</ele>
        <time>2018-10-17T09:51:24Z</time>
      </trkpt>
      <trkpt lat="45.83319" lon="6.44544">
        <ele>2236</ele>
        <time>2018-10-17T09:51:25Z</time>
      </trkpt>
      <trkpt lat="45.83319" lon="6.44544">
        <ele>2236</ele>
        <time>2018-10-17T09:51:26Z</time>
      </trkpt>
      <trkpt lat="45.83319" lon="6.44544">
        <ele>2236</ele>
        <time>2018-10-17T09:51:27Z</time>
      </trkpt>
      <trkpt lat="45.83319" lon="6.44544">
        <ele>2236</ele>
        <time>2018-10-17T09:51:28Z</time>
      </trkpt>
      <trkpt lat="45.83319" lon="6.44544">
        <ele>2236</ele>
        <time>2018-10-17T09:51:29Z</time>
      </trkpt>
      <trkpt lat="45.83319" lon="6.44544">
        <ele>2236</ele>
        <time>2018-10-17T09:51:30Z</time>
      </trkpt>
      <trkpt lat="45.83319" lon="6.44544">
        <ele>2236</ele>
        <time>2018-10-17T09:51:31Z</time>
      </trkpt>
      <trkpt lat="45.83319" lon="6.44541">
        <ele>2236</ele>
        <time>2018-10-17T09:51:32Z</time>
      </trkpt>
      <trkpt lat="45.83319" lon="6.44541">
        <ele>2237</ele>
        <time>2018-10-17T09:51:33Z</time>
      </trkpt>
      <trkpt lat="45.83319" lon="6.44541">
        <ele>2237</ele>
        <time>2018-10-17T09:51:34Z</time>
      </trkpt>
      <trkpt lat="45.83319" lon="6.44538">
        <ele>2238</ele>
        <time>2018-10-17T09:51:35Z</time>
      </trkpt>
      <trkpt lat="45.83319" lon="6.44538">
        <ele>2238</ele>
        <time>2018-10-17T09:51:36Z</time>
      </trkpt>
      <trkpt lat="45.83319" lon="6.44538">
        <ele>2238</ele>
        <time>2018-10-17T09:51:37Z</time>
      </trkpt>
      <trkpt lat="45.83317" lon="6.44535">
        <ele>2238</ele>
        <time>2018-10-17T09:51:38Z</time>
      </trkpt>
      <trkpt lat="45.83317" lon="6.44535">
        <ele>2238</ele>
        <time>2018-10-17T09:51:39Z</time>
      </trkpt>
      <trkpt lat="45.83317" lon="6.44535">
        <ele>2238</ele>
        <time>2018-10-17T09:51:40Z</time>
      </trkpt>
      <trkpt lat="45.83316" lon="6.44533">
        <ele>2238</ele>
        <time>2018-10-17T09:51:41Z</time>
      </trkpt>
      <trkpt lat="45.83316" lon="6.44533">
        <ele>2238</ele>
        <time>2018-10-17T09:51:42Z</time>
      </trkpt>
      <trkpt lat="45.83316" lon="6.44533">
        <ele>2239</ele>
        <time>2018-10-17T09:51:43Z</time>
      </trkpt>
      <trkpt lat="45.83314" lon="6.44531">
        <ele>2239</ele>
        <time>2018-10-17T09:51:44Z</time>
      </trkpt>
      <trkpt lat="45.83314" lon="6.44531">
        <ele>2239</ele>
        <time>2018-10-17T09:51:45Z</time>
      </trkpt>
      <trkpt lat="45.83314" lon="6.44531">
        <ele>2239</ele>
        <time>2018-10-17T09:51:46Z</time>
      </trkpt>
      <trkpt lat="45.83313" lon="6.44529">
        <ele>2240</ele>
        <time>2018-10-17T09:51:47Z</time>
      </trkpt>
      <trkpt lat="45.83313" lon="6.44529">
        <ele>2240</ele>
        <time>2018-10-17T09:51:48Z</time>
      </trkpt>
      <trkpt lat="45.83313" lon="6.44529">
        <ele>2240</ele>
        <time>2018-10-17T09:51:49Z</time>
      </trkpt>
      <trkpt lat="45.8331" lon="6.44527">
        <ele>2240</ele>
        <time>2018-10-17T09:51:50Z</time>
      </trkpt>
      <trkpt lat="45.8331" lon="6.44527">
        <ele>2240</ele>
        <time>2018-10-17T09:51:51Z</time>
      </trkpt>
      <trkpt lat="45.8331" lon="6.44527">
        <ele>2241</ele>
        <time>2018-10-17T09:51:52Z</time>
      </trkpt>
      <trkpt lat="45.83308" lon="6.44525">
        <ele>2242</ele>
        <time>2018-10-17T09:51:53Z</time>
      </trkpt>
      <trkpt lat="45.83308" lon="6.44525">
        <ele>2242</ele>
        <time>2018-10-17T09:51:54Z</time>
      </trkpt>
      <trkpt lat="45.83306" lon="6.44525">
        <ele>2241</ele>
        <time>2018-10-17T09:51:55Z</time>
      </trkpt>
      <trkpt lat="45.83306" lon="6.44525">
        <ele>2241</ele>
        <time>2018-10-17T09:51:56Z</time>
      </trkpt>
      <trkpt lat="45.83304" lon="6.44524">
        <ele>2241</ele>
        <time>2018-10-17T09:51:57Z</time>
      </trkpt>
      <trkpt lat="45.83304" lon="6.44524">
        <ele>2241</ele>
        <time>2018-10-17T09:51:58Z</time>
      </trkpt>
      <trkpt lat="45.83304" lon="6.44524">
        <ele>2241</ele>
        <time>2018-10-17T09:51:59Z</time>
      </trkpt>
      <trkpt lat="45.83302" lon="6.44525">
        <ele>2241</ele>
        <time>2018-10-17T09:52:00Z</time>
      </trkpt>
      <trkpt lat="45.83302" lon="6.44525">
        <ele>2240</ele>
        <time>2018-10-17T09:52:01Z</time>
      </trkpt>
      <trkpt lat="45.833" lon="6.44527">
        <ele>2240</ele>
        <time>2018-10-17T09:52:02Z</time>
      </trkpt>
      <trkpt lat="45.833" lon="6.44527">
        <ele>2240</ele>
        <time>2018-10-17T09:52:03Z</time>
      </trkpt>
      <trkpt lat="45.83298" lon="6.44528">
        <ele>2239</ele>
        <time>2018-10-17T09:52:04Z</time>
      </trkpt>
      <trkpt lat="45.83298" lon="6.44528">
        <ele>2239</ele>
        <time>2018-10-17T09:52:05Z</time>
      </trkpt>
      <trkpt lat="45.83296" lon="6.4453">
        <ele>2239</ele>
        <time>2018-10-17T09:52:06Z</time>
      </trkpt>
      <trkpt lat="45.83296" lon="6.4453">
        <ele>2239</ele>
        <time>2018-10-17T09:52:07Z</time>
      </trkpt>
      <trkpt lat="45.83295" lon="6.44532">
        <ele>2239</ele>
        <time>2018-10-17T09:52:08Z</time>
      </trkpt>
      <trkpt lat="45.83295" lon="6.44532">
        <ele>2239</ele>
        <time>2018-10-17T09:52:09Z</time>
      </trkpt>
      <trkpt lat="45.83295" lon="6.44532">
        <ele>2239</ele>
        <time>2018-10-17T09:52:10Z</time>
      </trkpt>
      <trkpt lat="45.83292" lon="6.44533">
        <ele>2239</ele>
        <time>2018-10-17T09:52:11Z</time>
      </trkpt>
      <trkpt lat="45.83292" lon="6.44533">
        <ele>2239</ele>
        <time>2018-10-17T09:52:12Z</time>
      </trkpt>
      <trkpt lat="45.8329" lon="6.44534">
        <ele>2239</ele>
        <time>2018-10-17T09:52:13Z</time>
      </trkpt>
      <trkpt lat="45.8329" lon="6.44534">
        <ele>2239</ele>
        <time>2018-10-17T09:52:14Z</time>
      </trkpt>
      <trkpt lat="45.8329" lon="6.44534">
        <ele>2239</ele>
        <time>2018-10-17T09:52:15Z</time>
      </trkpt>
      <trkpt lat="45.83288" lon="6.44535">
        <ele>2239</ele>
        <time>2018-10-17T09:52:16Z</time>
      </trkpt>
      <trkpt lat="45.83288" lon="6.44535">
        <ele>2239</ele>
        <time>2018-10-17T09:52:17Z</time>
      </trkpt>
      <trkpt lat="45.83288" lon="6.44535">
        <ele>2239</ele>
        <time>2018-10-17T09:52:18Z</time>
      </trkpt>
      <trkpt lat="45.83286" lon="6.44535">
        <ele>2239</ele>
        <time>2018-10-17T09:52:19Z</time>
      </trkpt>
      <trkpt lat="45.83286" lon="6.44535">
        <ele>2239</ele>
        <time>2018-10-17T09:52:20Z</time>
      </trkpt>
      <trkpt lat="45.83286" lon="6.44535">
        <ele>2239</ele>
        <time>2018-10-17T09:52:21Z</time>
      </trkpt>
      <trkpt lat="45.83284" lon="6.44536">
        <ele>2240</ele>
        <time>2018-10-17T09:52:22Z</time>
      </trkpt>
      <trkpt lat="45.83284" lon="6.44536">
        <ele>2240</ele>
        <time>2018-10-17T09:52:23Z</time>
      </trkpt>
      <trkpt lat="45.83284" lon="6.44536">
        <ele>2240</ele>
        <time>2018-10-17T09:52:24Z</time>
      </trkpt>
      <trkpt lat="45.83284" lon="6.44536">
        <ele>2240</ele>
        <time>2018-10-17T09:52:25Z</time>
      </trkpt>
      <trkpt lat="45.83282" lon="6.44535">
        <ele>2241</ele>
        <time>2018-10-17T09:52:26Z</time>
      </trkpt>
      <trkpt lat="45.83282" lon="6.44535">
        <ele>2241</ele>
        <time>2018-10-17T09:52:27Z</time>
      </trkpt>
      <trkpt lat="45.83282" lon="6.44535">
        <ele>2241</ele>
        <time>2018-10-17T09:52:28Z</time>
      </trkpt>
      <trkpt lat="45.8328" lon="6.44535">
        <ele>2241</ele>
        <time>2018-10-17T09:52:29Z</time>
      </trkpt>
      <trkpt lat="45.8328" lon="6.44535">
        <ele>2241</ele>
        <time>2018-10-17T09:52:30Z</time>
      </trkpt>
      <trkpt lat="45.8328" lon="6.44535">
        <ele>2241</ele>
        <time>2018-10-17T09:52:31Z</time>
      </trkpt>
      <trkpt lat="45.83278" lon="6.44534">
        <ele>2241</ele>
        <time>2018-10-17T09:52:32Z</time>
      </trkpt>
      <trkpt lat="45.83278" lon="6.44534">
        <ele>2241</ele>
        <time>2018-10-17T09:52:33Z</time>
      </trkpt>
      <trkpt lat="45.83278" lon="6.44534">
        <ele>2241</ele>
        <time>2018-10-17T09:52:34Z</time>
      </trkpt>
      <trkpt lat="45.83275" lon="6.44533">
        <ele>2241</ele>
        <time>2018-10-17T09:52:35Z</time>
      </trkpt>
      <trkpt lat="45.83275" lon="6.44533">
        <ele>2241</ele>
        <time>2018-10-17T09:52:36Z</time>
      </trkpt>
      <trkpt lat="45.83275" lon="6.44533">
        <ele>2242</ele>
        <time>2018-10-17T09:52:37Z</time>
      </trkpt>
      <trkpt lat="45.83274" lon="6.44532">
        <ele>2243</ele>
        <time>2018-10-17T09:52:38Z</time>
      </trkpt>
      <trkpt lat="45.83274" lon="6.44532">
        <ele>2243</ele>
        <time>2018-10-17T09:52:39Z</time>
      </trkpt>
      <trkpt lat="45.83274" lon="6.44532">
        <ele>2243</ele>
        <time>2018-10-17T09:52:40Z</time>
      </trkpt>
      <trkpt lat="45.83272" lon="6.44532">
        <ele>2243</ele>
        <time>2018-10-17T09:52:41Z</time>
      </trkpt>
      <trkpt lat="45.83272" lon="6.44532">
        <ele>2243</ele>
        <time>2018-10-17T09:52:42Z</time>
      </trkpt>
      <trkpt lat="45.83272" lon="6.44532">
        <ele>2243</ele>
        <time>2018-10-17T09:52:43Z</time>
      </trkpt>
      <trkpt lat="45.83269" lon="6.44532">
        <ele>2243</ele>
        <time>2018-10-17T09:52:44Z</time>
      </trkpt>
      <trkpt lat="45.83269" lon="6.44532">
        <ele>2243</ele>
        <time>2018-10-17T09:52:45Z</time>
      </trkpt>
      <trkpt lat="45.83269" lon="6.44532">
        <ele>2243</ele>
        <time>2018-10-17T09:52:46Z</time>
      </trkpt>
      <trkpt lat="45.83267" lon="6.44533">
        <ele>2243</ele>
        <time>2018-10-17T09:52:47Z</time>
      </trkpt>
      <trkpt lat="45.83267" lon="6.44533">
        <ele>2243</ele>
        <time>2018-10-17T09:52:48Z</time>
      </trkpt>
      <trkpt lat="45.83267" lon="6.44533">
        <ele>2243</ele>
        <time>2018-10-17T09:52:49Z</time>
      </trkpt>
      <trkpt lat="45.83265" lon="6.44532">
        <ele>2243</ele>
        <time>2018-10-17T09:52:50Z</time>
      </trkpt>
      <trkpt lat="45.83265" lon="6.44532">
        <ele>2243</ele>
        <time>2018-10-17T09:52:51Z</time>
      </trkpt>
      <trkpt lat="45.83263" lon="6.44532">
        <ele>2243</ele>
        <time>2018-10-17T09:52:52Z</time>
      </trkpt>
      <trkpt lat="45.83263" lon="6.44532">
        <ele>2243</ele>
        <time>2018-10-17T09:52:53Z</time>
      </trkpt>
      <trkpt lat="45.83261" lon="6.4453">
        <ele>2243</ele>
        <time>2018-10-17T09:52:54Z</time>
      </trkpt>
      <trkpt lat="45.83261" lon="6.4453">
        <ele>2243</ele>
        <time>2018-10-17T09:52:55Z</time>
      </trkpt>
      <trkpt lat="45.83261" lon="6.4453">
        <ele>2243</ele>
        <time>2018-10-17T09:52:56Z</time>
      </trkpt>
      <trkpt lat="45.83259" lon="6.44529">
        <ele>2244</ele>
        <time>2018-10-17T09:52:57Z</time>
      </trkpt>
      <trkpt lat="45.83259" lon="6.44529">
        <ele>2244</ele>
        <time>2018-10-17T09:52:58Z</time>
      </trkpt>
      <trkpt lat="45.83259" lon="6.44529">
        <ele>2244</ele>
        <time>2018-10-17T09:52:59Z</time>
      </trkpt>
      <trkpt lat="45.83257" lon="6.44529">
        <ele>2244</ele>
        <time>2018-10-17T09:53:00Z</time>
      </trkpt>
      <trkpt lat="45.83257" lon="6.44529">
        <ele>2245</ele>
        <time>2018-10-17T09:53:01Z</time>
      </trkpt>
      <trkpt lat="45.83257" lon="6.44529">
        <ele>2245</ele>
        <time>2018-10-17T09:53:02Z</time>
      </trkpt>
      <trkpt lat="45.83257" lon="6.44529">
        <ele>2245</ele>
        <time>2018-10-17T09:53:03Z</time>
      </trkpt>
      <trkpt lat="45.83255" lon="6.44529">
        <ele>2245</ele>
        <time>2018-10-17T09:53:04Z</time>
      </trkpt>
      <trkpt lat="45.83255" lon="6.44529">
        <ele>2246</ele>
        <time>2018-10-17T09:53:05Z</time>
      </trkpt>
      <trkpt lat="45.83255" lon="6.44529">
        <ele>2246</ele>
        <time>2018-10-17T09:53:06Z</time>
      </trkpt>
      <trkpt lat="45.83255" lon="6.44529">
        <ele>2246</ele>
        <time>2018-10-17T09:53:07Z</time>
      </trkpt>
      <trkpt lat="45.83253" lon="6.44528">
        <ele>2246</ele>
        <time>2018-10-17T09:53:08Z</time>
      </trkpt>
      <trkpt lat="45.83253" lon="6.44528">
        <ele>2247</ele>
        <time>2018-10-17T09:53:09Z</time>
      </trkpt>
      <trkpt lat="45.83253" lon="6.44528">
        <ele>2247</ele>
        <time>2018-10-17T09:53:10Z</time>
      </trkpt>
      <trkpt lat="45.83253" lon="6.44528">
        <ele>2247</ele>
        <time>2018-10-17T09:53:11Z</time>
      </trkpt>
      <trkpt lat="45.83251" lon="6.44526">
        <ele>2248</ele>
        <time>2018-10-17T09:53:12Z</time>
      </trkpt>
      <trkpt lat="45.83251" lon="6.44526">
        <ele>2248</ele>
        <time>2018-10-17T09:53:13Z</time>
      </trkpt>
      <trkpt lat="45.83251" lon="6.44526">
        <ele>2248</ele>
        <time>2018-10-17T09:53:14Z</time>
      </trkpt>
      <trkpt lat="45.83251" lon="6.44526">
        <ele>2248</ele>
        <time>2018-10-17T09:53:15Z</time>
      </trkpt>
      <trkpt lat="45.83249" lon="6.44525">
        <ele>2248</ele>
        <time>2018-10-17T09:53:16Z</time>
      </trkpt>
      <trkpt lat="45.83249" lon="6.44525">
        <ele>2248</ele>
        <time>2018-10-17T09:53:17Z</time>
      </trkpt>
      <trkpt lat="45.83249" lon="6.44525">
        <ele>2248</ele>
        <time>2018-10-17T09:53:18Z</time>
      </trkpt>
      <trkpt lat="45.83249" lon="6.44525">
        <ele>2248</ele>
        <time>2018-10-17T09:53:19Z</time>
      </trkpt>
      <trkpt lat="45.83247" lon="6.44524">
        <ele>2248</ele>
        <time>2018-10-17T09:53:20Z</time>
      </trkpt>
      <trkpt lat="45.83247" lon="6.44524">
        <ele>2248</ele>
        <time>2018-10-17T09:53:21Z</time>
      </trkpt>
      <trkpt lat="45.83246" lon="6.44522">
        <ele>2248</ele>
        <time>2018-10-17T09:53:22Z</time>
      </trkpt>
      <trkpt lat="45.83246" lon="6.44522">
        <ele>2248</ele>
        <time>2018-10-17T09:53:23Z</time>
      </trkpt>
      <trkpt lat="45.83246" lon="6.44522">
        <ele>2248</ele>
        <time>2018-10-17T09:53:24Z</time>
      </trkpt>
      <trkpt lat="45.83246" lon="6.44522">
        <ele>2248</ele>
        <time>2018-10-17T09:53:25Z</time>
      </trkpt>
      <trkpt lat="45.83246" lon="6.44522">
        <ele>2248</ele>
        <time>2018-10-17T09:53:26Z</time>
      </trkpt>
      <trkpt lat="45.83246" lon="6.44519">
        <ele>2248</ele>
        <time>2018-10-17T09:53:27Z</time>
      </trkpt>
      <trkpt lat="45.83246" lon="6.44519">
        <ele>2248</ele>
        <time>2018-10-17T09:53:28Z</time>
      </trkpt>
      <trkpt lat="45.83246" lon="6.44519">
        <ele>2248</ele>
        <time>2018-10-17T09:53:29Z</time>
      </trkpt>
      <trkpt lat="45.83244" lon="6.44516">
        <ele>2248</ele>
        <time>2018-10-17T09:53:30Z</time>
      </trkpt>
      <trkpt lat="45.83244" lon="6.44516">
        <ele>2248</ele>
        <time>2018-10-17T09:53:31Z</time>
      </trkpt>
      <trkpt lat="45.83244" lon="6.44516">
        <ele>2248</ele>
        <time>2018-10-17T09:53:32Z</time>
      </trkpt>
      <trkpt lat="45.83243" lon="6.44514">
        <ele>2248</ele>
        <time>2018-10-17T09:53:33Z</time>
      </trkpt>
      <trkpt lat="45.83243" lon="6.44514">
        <ele>2247</ele>
        <time>2018-10-17T09:53:34Z</time>
      </trkpt>
      <trkpt lat="45.83242" lon="6.44512">
        <ele>2247</ele>
        <time>2018-10-17T09:53:35Z</time>
      </trkpt>
      <trkpt lat="45.83242" lon="6.44512">
        <ele>2247</ele>
        <time>2018-10-17T09:53:36Z</time>
      </trkpt>
      <trkpt lat="45.83242" lon="6.44512">
        <ele>2247</ele>
        <time>2018-10-17T09:53:37Z</time>
      </trkpt>
      <trkpt lat="45.83242" lon="6.44512">
        <ele>2247</ele>
        <time>2018-10-17T09:53:38Z</time>
      </trkpt>
      <trkpt lat="45.83242" lon="6.44512">
        <ele>2247</ele>
        <time>2018-10-17T09:53:39Z</time>
      </trkpt>
      <trkpt lat="45.83241" lon="6.44509">
        <ele>2247</ele>
        <time>2018-10-17T09:53:40Z</time>
      </trkpt>
      <trkpt lat="45.83241" lon="6.44509">
        <ele>2247</ele>
        <time>2018-10-17T09:53:41Z</time>
      </trkpt>
      <trkpt lat="45.8324" lon="6.44507">
        <ele>2247</ele>
        <time>2018-10-17T09:53:42Z</time>
      </trkpt>
      <trkpt lat="45.8324" lon="6.44507">
        <ele>2247</ele>
        <time>2018-10-17T09:53:43Z</time>
      </trkpt>
      <trkpt lat="45.8324" lon="6.44507">
        <ele>2247</ele>
        <time>2018-10-17T09:53:44Z</time>
      </trkpt>
      <trkpt lat="45.83237" lon="6.44506">
        <ele>2247</ele>
        <time>2018-10-17T09:53:45Z</time>
      </trkpt>
      <trkpt lat="45.83237" lon="6.44506">
        <ele>2247</ele>
        <time>2018-10-17T09:53:46Z</time>
      </trkpt>
      <trkpt lat="45.83237" lon="6.44506">
        <ele>2247</ele>
        <time>2018-10-17T09:53:47Z</time>
      </trkpt>
      <trkpt lat="45.83236" lon="6.44505">
        <ele>2247</ele>
        <time>2018-10-17T09:53:48Z</time>
      </trkpt>
      <trkpt lat="45.83236" lon="6.44505">
        <ele>2247</ele>
        <time>2018-10-17T09:53:49Z</time>
      </trkpt>
      <trkpt lat="45.83236" lon="6.44505">
        <ele>2247</ele>
        <time>2018-10-17T09:53:50Z</time>
      </trkpt>
      <trkpt lat="45.83234" lon="6.44505">
        <ele>2247</ele>
        <time>2018-10-17T09:53:51Z</time>
      </trkpt>
      <trkpt lat="45.83234" lon="6.44505">
        <ele>2248</ele>
        <time>2018-10-17T09:53:52Z</time>
      </trkpt>
      <trkpt lat="45.83234" lon="6.44505">
        <ele>2248</ele>
        <time>2018-10-17T09:53:53Z</time>
      </trkpt>
      <trkpt lat="45.83232" lon="6.44506">
        <ele>2248</ele>
        <time>2018-10-17T09:53:54Z</time>
      </trkpt>
      <trkpt lat="45.83232" lon="6.44506">
        <ele>2249</ele>
        <time>2018-10-17T09:53:55Z</time>
      </trkpt>
      <trkpt lat="45.83232" lon="6.44506">
        <ele>2250</ele>
        <time>2018-10-17T09:53:56Z</time>
      </trkpt>
      <trkpt lat="45.83232" lon="6.44506">
        <ele>2250</ele>
        <time>2018-10-17T09:53:57Z</time>
      </trkpt>
      <trkpt lat="45.8323" lon="6.44508">
        <ele>2250</ele>
        <time>2018-10-17T09:53:58Z</time>
      </trkpt>
      <trkpt lat="45.8323" lon="6.44508">
        <ele>2250</ele>
        <time>2018-10-17T09:53:59Z</time>
      </trkpt>
      <trkpt lat="45.8323" lon="6.44508">
        <ele>2250</ele>
        <time>2018-10-17T09:54:00Z</time>
      </trkpt>
      <trkpt lat="45.8323" lon="6.44508">
        <ele>2251</ele>
        <time>2018-10-17T09:54:01Z</time>
      </trkpt>
      <trkpt lat="45.8323" lon="6.44508">
        <ele>2251</ele>
        <time>2018-10-17T09:54:02Z</time>
      </trkpt>
      <trkpt lat="45.83228" lon="6.44508">
        <ele>2251</ele>
        <time>2018-10-17T09:54:03Z</time>
      </trkpt>
      <trkpt lat="45.83228" lon="6.44508">
        <ele>2251</ele>
        <time>2018-10-17T09:54:04Z</time>
      </trkpt>
      <trkpt lat="45.83228" lon="6.44508">
        <ele>2252</ele>
        <time>2018-10-17T09:54:05Z</time>
      </trkpt>
      <trkpt lat="45.83228" lon="6.44508">
        <ele>2252</ele>
        <time>2018-10-17T09:54:06Z</time>
      </trkpt>
      <trkpt lat="45.83226" lon="6.44509">
        <ele>2253</ele>
        <time>2018-10-17T09:54:07Z</time>
      </trkpt>
      <trkpt lat="45.83226" lon="6.44509">
        <ele>2253</ele>
        <time>2018-10-17T09:54:08Z</time>
      </trkpt>
      <trkpt lat="45.83226" lon="6.44509">
        <ele>2253</ele>
        <time>2018-10-17T09:54:09Z</time>
      </trkpt>
      <trkpt lat="45.83224" lon="6.44511">
        <ele>2253</ele>
        <time>2018-10-17T09:54:10Z</time>
      </trkpt>
      <trkpt lat="45.83224" lon="6.44511">
        <ele>2253</ele>
        <time>2018-10-17T09:54:11Z</time>
      </trkpt>
      <trkpt lat="45.83224" lon="6.44511">
        <ele>2254</ele>
        <time>2018-10-17T09:54:12Z</time>
      </trkpt>
      <trkpt lat="45.83222" lon="6.44512">
        <ele>2254</ele>
        <time>2018-10-17T09:54:13Z</time>
      </trkpt>
      <trkpt lat="45.83222" lon="6.44512">
        <ele>2254</ele>
        <time>2018-10-17T09:54:14Z</time>
      </trkpt>
      <trkpt lat="45.83222" lon="6.44512">
        <ele>2254</ele>
        <time>2018-10-17T09:54:15Z</time>
      </trkpt>
      <trkpt lat="45.83219" lon="6.44512">
        <ele>2255</ele>
        <time>2018-10-17T09:54:16Z</time>
      </trkpt>
      <trkpt lat="45.83219" lon="6.44512">
        <ele>2255</ele>
        <time>2018-10-17T09:54:17Z</time>
      </trkpt>
      <trkpt lat="45.83217" lon="6.44512">
        <ele>2254</ele>
        <time>2018-10-17T09:54:18Z</time>
      </trkpt>
      <trkpt lat="45.83217" lon="6.44512">
        <ele>2254</ele>
        <time>2018-10-17T09:54:19Z</time>
      </trkpt>
      <trkpt lat="45.83215" lon="6.4451">
        <ele>2253</ele>
        <time>2018-10-17T09:54:20Z</time>
      </trkpt>
      <trkpt lat="45.83215" lon="6.4451">
        <ele>2253</ele>
        <time>2018-10-17T09:54:21Z</time>
      </trkpt>
      <trkpt lat="45.83214" lon="6.44508">
        <ele>2253</ele>
        <time>2018-10-17T09:54:22Z</time>
      </trkpt>
      <trkpt lat="45.83214" lon="6.44508">
        <ele>2253</ele>
        <time>2018-10-17T09:54:23Z</time>
      </trkpt>
      <trkpt lat="45.83212" lon="6.44507">
        <ele>2253</ele>
        <time>2018-10-17T09:54:24Z</time>
      </trkpt>
      <trkpt lat="45.83212" lon="6.44507">
        <ele>2252</ele>
        <time>2018-10-17T09:54:25Z</time>
      </trkpt>
      <trkpt lat="45.8321" lon="6.44505">
        <ele>2252</ele>
        <time>2018-10-17T09:54:26Z</time>
      </trkpt>
      <trkpt lat="45.8321" lon="6.44505">
        <ele>2252</ele>
        <time>2018-10-17T09:54:27Z</time>
      </trkpt>
      <trkpt lat="45.83208" lon="6.44504">
        <ele>2252</ele>
        <time>2018-10-17T09:54:28Z</time>
      </trkpt>
      <trkpt lat="45.83208" lon="6.44504">
        <ele>2252</ele>
        <time>2018-10-17T09:54:29Z</time>
      </trkpt>
      <trkpt lat="45.83206" lon="6.44502">
        <ele>2252</ele>
        <time>2018-10-17T09:54:30Z</time>
      </trkpt>
      <trkpt lat="45.83206" lon="6.44502">
        <ele>2251</ele>
        <time>2018-10-17T09:54:31Z</time>
      </trkpt>
      <trkpt lat="45.83205" lon="6.445">
        <ele>2251</ele>
        <time>2018-10-17T09:54:32Z</time>
      </trkpt>
      <trkpt lat="45.83205" lon="6.445">
        <ele>2251</ele>
        <time>2018-10-17T09:54:33Z</time>
      </trkpt>
      <trkpt lat="45.83203" lon="6.44498">
        <ele>2250</ele>
        <time>2018-10-17T09:54:34Z</time>
      </trkpt>
      <trkpt lat="45.83203" lon="6.44498">
        <ele>2250</ele>
        <time>2018-10-17T09:54:35Z</time>
      </trkpt>
      <trkpt lat="45.832" lon="6.44496">
        <ele>2250</ele>
        <time>2018-10-17T09:54:36Z</time>
      </trkpt>
      <trkpt lat="45.832" lon="6.44496">
        <ele>2250</ele>
        <time>2018-10-17T09:54:37Z</time>
      </trkpt>
      <trkpt lat="45.83199" lon="6.44495">
        <ele>2250</ele>
        <time>2018-10-17T09:54:38Z</time>
      </trkpt>
      <trkpt lat="45.83199" lon="6.44495">
        <ele>2250</ele>
        <time>2018-10-17T09:54:39Z</time>
      </trkpt>
      <trkpt lat="45.83199" lon="6.44495">
        <ele>2250</ele>
        <time>2018-10-17T09:54:40Z</time>
      </trkpt>
      <trkpt lat="45.83197" lon="6.44494">
        <ele>2250</ele>
        <time>2018-10-17T09:54:41Z</time>
      </trkpt>
      <trkpt lat="45.83197" lon="6.44494">
        <ele>2250</ele>
        <time>2018-10-17T09:54:42Z</time>
      </trkpt>
      <trkpt lat="45.83197" lon="6.44494">
        <ele>2251</ele>
        <time>2018-10-17T09:54:43Z</time>
      </trkpt>
      <trkpt lat="45.83197" lon="6.44494">
        <ele>2251</ele>
        <time>2018-10-17T09:54:44Z</time>
      </trkpt>
      <trkpt lat="45.83197" lon="6.44494">
        <ele>2252</ele>
        <time>2018-10-17T09:54:45Z</time>
      </trkpt>
      <trkpt lat="45.83197" lon="6.44494">
        <ele>2252</ele>
        <time>2018-10-17T09:54:46Z</time>
      </trkpt>
      <trkpt lat="45.83197" lon="6.44494">
        <ele>2253</ele>
        <time>2018-10-17T09:54:47Z</time>
      </trkpt>
      <trkpt lat="45.83194" lon="6.44493">
        <ele>2253</ele>
        <time>2018-10-17T09:54:48Z</time>
      </trkpt>
      <trkpt lat="45.83194" lon="6.44493">
        <ele>2253</ele>
        <time>2018-10-17T09:54:49Z</time>
      </trkpt>
      <trkpt lat="45.83194" lon="6.44493">
        <ele>2253</ele>
        <time>2018-10-17T09:54:50Z</time>
      </trkpt>
      <trkpt lat="45.83193" lon="6.44493">
        <ele>2254</ele>
        <time>2018-10-17T09:54:51Z</time>
      </trkpt>
      <trkpt lat="45.83193" lon="6.44493">
        <ele>2255</ele>
        <time>2018-10-17T09:54:52Z</time>
      </trkpt>
      <trkpt lat="45.83193" lon="6.44493">
        <ele>2255</ele>
        <time>2018-10-17T09:54:53Z</time>
      </trkpt>
      <trkpt lat="45.83193" lon="6.44493">
        <ele>2255</ele>
        <time>2018-10-17T09:54:54Z</time>
      </trkpt>
      <trkpt lat="45.83193" lon="6.44493">
        <ele>2255</ele>
        <time>2018-10-17T09:54:55Z</time>
      </trkpt>
      <trkpt lat="45.83193" lon="6.44493">
        <ele>2255</ele>
        <time>2018-10-17T09:54:56Z</time>
      </trkpt>
      <trkpt lat="45.83193" lon="6.44493">
        <ele>2254</ele>
        <time>2018-10-17T09:54:57Z</time>
      </trkpt>
      <trkpt lat="45.83193" lon="6.44493">
        <ele>2254</ele>
        <time>2018-10-17T09:54:58Z</time>
      </trkpt>
      <trkpt lat="45.83191" lon="6.44491">
        <ele>2254</ele>
        <time>2018-10-17T09:54:59Z</time>
      </trkpt>
      <trkpt lat="45.83191" lon="6.44491">
        <ele>2254</ele>
        <time>2018-10-17T09:55:00Z</time>
      </trkpt>
      <trkpt lat="45.83191" lon="6.44491">
        <ele>2254</ele>
        <time>2018-10-17T09:55:01Z</time>
      </trkpt>
      <trkpt lat="45.83191" lon="6.44491">
        <ele>2254</ele>
        <time>2018-10-17T09:55:02Z</time>
      </trkpt>
      <trkpt lat="45.83191" lon="6.44491">
        <ele>2253</ele>
        <time>2018-10-17T09:55:03Z</time>
      </trkpt>
      <trkpt lat="45.8319" lon="6.44489">
        <ele>2253</ele>
        <time>2018-10-17T09:55:04Z</time>
      </trkpt>
      <trkpt lat="45.8319" lon="6.44489">
        <ele>2253</ele>
        <time>2018-10-17T09:55:05Z</time>
      </trkpt>
      <trkpt lat="45.8319" lon="6.44489">
        <ele>2253</ele>
        <time>2018-10-17T09:55:06Z</time>
      </trkpt>
      <trkpt lat="45.83189" lon="6.44486">
        <ele>2253</ele>
        <time>2018-10-17T09:55:07Z</time>
      </trkpt>
      <trkpt lat="45.83189" lon="6.44486">
        <ele>2253</ele>
        <time>2018-10-17T09:55:08Z</time>
      </trkpt>
      <trkpt lat="45.83188" lon="6.44484">
        <ele>2253</ele>
        <time>2018-10-17T09:55:09Z</time>
      </trkpt>
      <trkpt lat="45.83188" lon="6.44484">
        <ele>2253</ele>
        <time>2018-10-17T09:55:10Z</time>
      </trkpt>
      <trkpt lat="45.83188" lon="6.44484">
        <ele>2253</ele>
        <time>2018-10-17T09:55:11Z</time>
      </trkpt>
      <trkpt lat="45.83186" lon="6.44481">
        <ele>2253</ele>
        <time>2018-10-17T09:55:12Z</time>
      </trkpt>
      <trkpt lat="45.83186" lon="6.44481">
        <ele>2253</ele>
        <time>2018-10-17T09:55:13Z</time>
      </trkpt>
      <trkpt lat="45.83186" lon="6.44481">
        <ele>2253</ele>
        <time>2018-10-17T09:55:14Z</time>
      </trkpt>
      <trkpt lat="45.83186" lon="6.44481">
        <ele>2253</ele>
        <time>2018-10-17T09:55:15Z</time>
      </trkpt>
      <trkpt lat="45.83185" lon="6.44479">
        <ele>2253</ele>
        <time>2018-10-17T09:55:16Z</time>
      </trkpt>
      <trkpt lat="45.83185" lon="6.44479">
        <ele>2253</ele>
        <time>2018-10-17T09:55:17Z</time>
      </trkpt>
      <trkpt lat="45.83185" lon="6.44479">
        <ele>2253</ele>
        <time>2018-10-17T09:55:18Z</time>
      </trkpt>
      <trkpt lat="45.83185" lon="6.44479">
        <ele>2253</ele>
        <time>2018-10-17T09:55:19Z</time>
      </trkpt>
      <trkpt lat="45.83183" lon="6.44477">
        <ele>2253</ele>
        <time>2018-10-17T09:55:20Z</time>
      </trkpt>
      <trkpt lat="45.83183" lon="6.44477">
        <ele>2253</ele>
        <time>2018-10-17T09:55:21Z</time>
      </trkpt>
      <trkpt lat="45.83183" lon="6.44477">
        <ele>2253</ele>
        <time>2018-10-17T09:55:22Z</time>
      </trkpt>
      <trkpt lat="45.83183" lon="6.44477">
        <ele>2253</ele>
        <time>2018-10-17T09:55:23Z</time>
      </trkpt>
      <trkpt lat="45.83183" lon="6.44477">
        <ele>2253</ele>
        <time>2018-10-17T09:55:24Z</time>
      </trkpt>
      <trkpt lat="45.83181" lon="6.44476">
        <ele>2253</ele>
        <time>2018-10-17T09:55:25Z</time>
      </trkpt>
      <trkpt lat="45.83181" lon="6.44476">
        <ele>2253</ele>
        <time>2018-10-17T09:55:26Z</time>
      </trkpt>
      <trkpt lat="45.83181" lon="6.44476">
        <ele>2253</ele>
        <time>2018-10-17T09:55:27Z</time>
      </trkpt>
      <trkpt lat="45.83181" lon="6.44476">
        <ele>2253</ele>
        <time>2018-10-17T09:55:28Z</time>
      </trkpt>
      <trkpt lat="45.8318" lon="6.44473">
        <ele>2253</ele>
        <time>2018-10-17T09:55:29Z</time>
      </trkpt>
      <trkpt lat="45.8318" lon="6.44473">
        <ele>2254</ele>
        <time>2018-10-17T09:55:30Z</time>
      </trkpt>
      <trkpt lat="45.8318" lon="6.44473">
        <ele>2254</ele>
        <time>2018-10-17T09:55:31Z</time>
      </trkpt>
      <trkpt lat="45.8318" lon="6.44473">
        <ele>2254</ele>
        <time>2018-10-17T09:55:32Z</time>
      </trkpt>
      <trkpt lat="45.8318" lon="6.44469">
        <ele>2254</ele>
        <time>2018-10-17T09:55:33Z</time>
      </trkpt>
      <trkpt lat="45.8318" lon="6.44469">
        <ele>2254</ele>
        <time>2018-10-17T09:55:34Z</time>
      </trkpt>
      <trkpt lat="45.8318" lon="6.44469">
        <ele>2254</ele>
        <time>2018-10-17T09:55:35Z</time>
      </trkpt>
      <trkpt lat="45.8318" lon="6.44466">
        <ele>2254</ele>
        <time>2018-10-17T09:55:36Z</time>
      </trkpt>
      <trkpt lat="45.8318" lon="6.44466">
        <ele>2254</ele>
        <time>2018-10-17T09:55:37Z</time>
      </trkpt>
      <trkpt lat="45.8318" lon="6.44466">
        <ele>2254</ele>
        <time>2018-10-17T09:55:38Z</time>
      </trkpt>
      <trkpt lat="45.8318" lon="6.44464">
        <ele>2254</ele>
        <time>2018-10-17T09:55:39Z</time>
      </trkpt>
      <trkpt lat="45.8318" lon="6.44464">
        <ele>2253</ele>
        <time>2018-10-17T09:55:40Z</time>
      </trkpt>
      <trkpt lat="45.8318" lon="6.44464">
        <ele>2253</ele>
        <time>2018-10-17T09:55:41Z</time>
      </trkpt>
      <trkpt lat="45.83179" lon="6.44461">
        <ele>2253</ele>
        <time>2018-10-17T09:55:42Z</time>
      </trkpt>
      <trkpt lat="45.83179" lon="6.44461">
        <ele>2253</ele>
        <time>2018-10-17T09:55:43Z</time>
      </trkpt>
      <trkpt lat="45.83179" lon="6.44461">
        <ele>2253</ele>
        <time>2018-10-17T09:55:44Z</time>
      </trkpt>
      <trkpt lat="45.83179" lon="6.44461">
        <ele>2253</ele>
        <time>2018-10-17T09:55:45Z</time>
      </trkpt>
      <trkpt lat="45.83178" lon="6.44459">
        <ele>2253</ele>
        <time>2018-10-17T09:55:46Z</time>
      </trkpt>
      <trkpt lat="45.83178" lon="6.44459">
        <ele>2253</ele>
        <time>2018-10-17T09:55:47Z</time>
      </trkpt>
      <trkpt lat="45.83178" lon="6.44459">
        <ele>2253</ele>
        <time>2018-10-17T09:55:48Z</time>
      </trkpt>
      <trkpt lat="45.83178" lon="6.44456">
        <ele>2253</ele>
        <time>2018-10-17T09:55:49Z</time>
      </trkpt>
      <trkpt lat="45.83178" lon="6.44456">
        <ele>2253</ele>
        <time>2018-10-17T09:55:50Z</time>
      </trkpt>
      <trkpt lat="45.83178" lon="6.44456">
        <ele>2253</ele>
        <time>2018-10-17T09:55:51Z</time>
      </trkpt>
      <trkpt lat="45.83178" lon="6.44456">
        <ele>2253</ele>
        <time>2018-10-17T09:55:52Z</time>
      </trkpt>
      <trkpt lat="45.83178" lon="6.44456">
        <ele>2253</ele>
        <time>2018-10-17T09:55:53Z</time>
      </trkpt>
      <trkpt lat="45.83178" lon="6.44456">
        <ele>2253</ele>
        <time>2018-10-17T09:55:54Z</time>
      </trkpt>
      <trkpt lat="45.83178" lon="6.44456">
        <ele>2253</ele>
        <time>2018-10-17T09:55:55Z</time>
      </trkpt>
      <trkpt lat="45.83177" lon="6.44453">
        <ele>2253</ele>
        <time>2018-10-17T09:55:56Z</time>
      </trkpt>
      <trkpt lat="45.83177" lon="6.44453">
        <ele>2254</ele>
        <time>2018-10-17T09:55:57Z</time>
      </trkpt>
      <trkpt lat="45.83177" lon="6.44453">
        <ele>2254</ele>
        <time>2018-10-17T09:55:58Z</time>
      </trkpt>
      <trkpt lat="45.83177" lon="6.44453">
        <ele>2254</ele>
        <time>2018-10-17T09:55:59Z</time>
      </trkpt>
      <trkpt lat="45.83177" lon="6.4445">
        <ele>2254</ele>
        <time>2018-10-17T09:56:00Z</time>
      </trkpt>
      <trkpt lat="45.83177" lon="6.4445">
        <ele>2254</ele>
        <time>2018-10-17T09:56:01Z</time>
      </trkpt>
      <trkpt lat="45.83177" lon="6.4445">
        <ele>2255</ele>
        <time>2018-10-17T09:56:02Z</time>
      </trkpt>
      <trkpt lat="45.83177" lon="6.4445">
        <ele>2255</ele>
        <time>2018-10-17T09:56:03Z</time>
      </trkpt>
      <trkpt lat="45.83177" lon="6.44447">
        <ele>2255</ele>
        <time>2018-10-17T09:56:04Z</time>
      </trkpt>
      <trkpt lat="45.83177" lon="6.44447">
        <ele>2256</ele>
        <time>2018-10-17T09:56:05Z</time>
      </trkpt>
      <trkpt lat="45.83177" lon="6.44447">
        <ele>2256</ele>
        <time>2018-10-17T09:56:06Z</time>
      </trkpt>
      <trkpt lat="45.83177" lon="6.44447">
        <ele>2256</ele>
        <time>2018-10-17T09:56:07Z</time>
      </trkpt>
      <trkpt lat="45.83177" lon="6.44447">
        <ele>2256</ele>
        <time>2018-10-17T09:56:08Z</time>
      </trkpt>
      <trkpt lat="45.83177" lon="6.44447">
        <ele>2256</ele>
        <time>2018-10-17T09:56:09Z</time>
      </trkpt>
      <trkpt lat="45.83176" lon="6.44444">
        <ele>2256</ele>
        <time>2018-10-17T09:56:10Z</time>
      </trkpt>
      <trkpt lat="45.83176" lon="6.44444">
        <ele>2258</ele>
        <time>2018-10-17T09:56:11Z</time>
      </trkpt>
      <trkpt lat="45.83176" lon="6.44444">
        <ele>2258</ele>
        <time>2018-10-17T09:56:12Z</time>
      </trkpt>
      <trkpt lat="45.83175" lon="6.44441">
        <ele>2258</ele>
        <time>2018-10-17T09:56:13Z</time>
      </trkpt>
      <trkpt lat="45.83175" lon="6.44441">
        <ele>2258</ele>
        <time>2018-10-17T09:56:14Z</time>
      </trkpt>
      <trkpt lat="45.83175" lon="6.44441">
        <ele>2259</ele>
        <time>2018-10-17T09:56:15Z</time>
      </trkpt>
      <trkpt lat="45.83173" lon="6.44439">
        <ele>2259</ele>
        <time>2018-10-17T09:56:16Z</time>
      </trkpt>
      <trkpt lat="45.83173" lon="6.44439">
        <ele>2259</ele>
        <time>2018-10-17T09:56:17Z</time>
      </trkpt>
      <trkpt lat="45.83172" lon="6.44438">
        <ele>2259</ele>
        <time>2018-10-17T09:56:18Z</time>
      </trkpt>
      <trkpt lat="45.83172" lon="6.44438">
        <ele>2259</ele>
        <time>2018-10-17T09:56:19Z</time>
      </trkpt>
      <trkpt lat="45.83172" lon="6.44438">
        <ele>2259</ele>
        <time>2018-10-17T09:56:20Z</time>
      </trkpt>
      <trkpt lat="45.8317" lon="6.44435">
        <ele>2259</ele>
        <time>2018-10-17T09:56:21Z</time>
      </trkpt>
      <trkpt lat="45.8317" lon="6.44435">
        <ele>2259</ele>
        <time>2018-10-17T09:56:22Z</time>
      </trkpt>
      <trkpt lat="45.83168" lon="6.44433">
        <ele>2259</ele>
        <time>2018-10-17T09:56:23Z</time>
      </trkpt>
      <trkpt lat="45.83168" lon="6.44433">
        <ele>2258</ele>
        <time>2018-10-17T09:56:24Z</time>
      </trkpt>
      <trkpt lat="45.83167" lon="6.4443">
        <ele>2258</ele>
        <time>2018-10-17T09:56:25Z</time>
      </trkpt>
      <trkpt lat="45.83167" lon="6.4443">
        <ele>2256</ele>
        <time>2018-10-17T09:56:26Z</time>
      </trkpt>
      <trkpt lat="45.83165" lon="6.44429">
        <ele>2256</ele>
        <time>2018-10-17T09:56:27Z</time>
      </trkpt>
      <trkpt lat="45.83165" lon="6.44429">
        <ele>2256</ele>
        <time>2018-10-17T09:56:28Z</time>
      </trkpt>
      <trkpt lat="45.83163" lon="6.44428">
        <ele>2256</ele>
        <time>2018-10-17T09:56:29Z</time>
      </trkpt>
      <trkpt lat="45.83163" lon="6.44428">
        <ele>2255</ele>
        <time>2018-10-17T09:56:30Z</time>
      </trkpt>
      <trkpt lat="45.83162" lon="6.44427">
        <ele>2255</ele>
        <time>2018-10-17T09:56:31Z</time>
      </trkpt>
      <trkpt lat="45.83162" lon="6.44427">
        <ele>2255</ele>
        <time>2018-10-17T09:56:32Z</time>
      </trkpt>
      <trkpt lat="45.83162" lon="6.44427">
        <ele>2255</ele>
        <time>2018-10-17T09:56:33Z</time>
      </trkpt>
      <trkpt lat="45.83162" lon="6.44427">
        <ele>2257</ele>
        <time>2018-10-17T09:56:34Z</time>
      </trkpt>
      <trkpt lat="45.8316" lon="6.44426">
        <ele>2257</ele>
        <time>2018-10-17T09:56:35Z</time>
      </trkpt>
      <trkpt lat="45.8316" lon="6.44426">
        <ele>2258</ele>
        <time>2018-10-17T09:56:36Z</time>
      </trkpt>
      <trkpt lat="45.8316" lon="6.44426">
        <ele>2258</ele>
        <time>2018-10-17T09:56:37Z</time>
      </trkpt>
      <trkpt lat="45.8316" lon="6.44426">
        <ele>2258</ele>
        <time>2018-10-17T09:56:38Z</time>
      </trkpt>
      <trkpt lat="45.8316" lon="6.44426">
        <ele>2258</ele>
        <time>2018-10-17T09:56:39Z</time>
      </trkpt>
      <trkpt lat="45.83158" lon="6.44425">
        <ele>2258</ele>
        <time>2018-10-17T09:56:40Z</time>
      </trkpt>
      <trkpt lat="45.83158" lon="6.44425">
        <ele>2259</ele>
        <time>2018-10-17T09:56:41Z</time>
      </trkpt>
      <trkpt lat="45.83158" lon="6.44425">
        <ele>2259</ele>
        <time>2018-10-17T09:56:42Z</time>
      </trkpt>
      <trkpt lat="45.83158" lon="6.44425">
        <ele>2260</ele>
        <time>2018-10-17T09:56:43Z</time>
      </trkpt>
      <trkpt lat="45.83156" lon="6.44424">
        <ele>2260</ele>
        <time>2018-10-17T09:56:44Z</time>
      </trkpt>
      <trkpt lat="45.83156" lon="6.44424">
        <ele>2261</ele>
        <time>2018-10-17T09:56:45Z</time>
      </trkpt>
      <trkpt lat="45.83156" lon="6.44424">
        <ele>2261</ele>
        <time>2018-10-17T09:56:46Z</time>
      </trkpt>
      <trkpt lat="45.83156" lon="6.44424">
        <ele>2261</ele>
        <time>2018-10-17T09:56:47Z</time>
      </trkpt>
      <trkpt lat="45.83156" lon="6.44424">
        <ele>2261</ele>
        <time>2018-10-17T09:56:48Z</time>
      </trkpt>
      <trkpt lat="45.83156" lon="6.44424">
        <ele>2261</ele>
        <time>2018-10-17T09:56:49Z</time>
      </trkpt>
      <trkpt lat="45.83154" lon="6.44424">
        <ele>2261</ele>
        <time>2018-10-17T09:56:50Z</time>
      </trkpt>
      <trkpt lat="45.83154" lon="6.44424">
        <ele>2261</ele>
        <time>2018-10-17T09:56:51Z</time>
      </trkpt>
      <trkpt lat="45.83154" lon="6.44424">
        <ele>2261</ele>
        <time>2018-10-17T09:56:52Z</time>
      </trkpt>
      <trkpt lat="45.83154" lon="6.44424">
        <ele>2262</ele>
        <time>2018-10-17T09:56:53Z</time>
      </trkpt>
      <trkpt lat="45.83154" lon="6.44424">
        <ele>2262</ele>
        <time>2018-10-17T09:56:54Z</time>
      </trkpt>
      <trkpt lat="45.83154" lon="6.44424">
        <ele>2262</ele>
        <time>2018-10-17T09:56:55Z</time>
      </trkpt>
      <trkpt lat="45.83154" lon="6.44424">
        <ele>2262</ele>
        <time>2018-10-17T09:56:56Z</time>
      </trkpt>
      <trkpt lat="45.83152" lon="6.44425">
        <ele>2263</ele>
        <time>2018-10-17T09:56:57Z</time>
      </trkpt>
      <trkpt lat="45.83152" lon="6.44425">
        <ele>2263</ele>
        <time>2018-10-17T09:56:58Z</time>
      </trkpt>
      <trkpt lat="45.83152" lon="6.44425">
        <ele>2263</ele>
        <time>2018-10-17T09:56:59Z</time>
      </trkpt>
      <trkpt lat="45.83152" lon="6.44425">
        <ele>2263</ele>
        <time>2018-10-17T09:57:00Z</time>
      </trkpt>
      <trkpt lat="45.83152" lon="6.44425">
        <ele>2263</ele>
        <time>2018-10-17T09:57:01Z</time>
      </trkpt>
      <trkpt lat="45.83152" lon="6.44425">
        <ele>2263</ele>
        <time>2018-10-17T09:57:02Z</time>
      </trkpt>
      <trkpt lat="45.8315" lon="6.44425">
        <ele>2263</ele>
        <time>2018-10-17T09:57:03Z</time>
      </trkpt>
      <trkpt lat="45.8315" lon="6.44425">
        <ele>2263</ele>
        <time>2018-10-17T09:57:04Z</time>
      </trkpt>
      <trkpt lat="45.8315" lon="6.44425">
        <ele>2264</ele>
        <time>2018-10-17T09:57:05Z</time>
      </trkpt>
      <trkpt lat="45.8315" lon="6.44425">
        <ele>2264</ele>
        <time>2018-10-17T09:57:06Z</time>
      </trkpt>
      <trkpt lat="45.83148" lon="6.44425">
        <ele>2264</ele>
        <time>2018-10-17T09:57:07Z</time>
      </trkpt>
      <trkpt lat="45.83148" lon="6.44425">
        <ele>2264</ele>
        <time>2018-10-17T09:57:08Z</time>
      </trkpt>
      <trkpt lat="45.83148" lon="6.44425">
        <ele>2264</ele>
        <time>2018-10-17T09:57:09Z</time>
      </trkpt>
      <trkpt lat="45.83148" lon="6.44425">
        <ele>2265</ele>
        <time>2018-10-17T09:57:10Z</time>
      </trkpt>
      <trkpt lat="45.83148" lon="6.44425">
        <ele>2265</ele>
        <time>2018-10-17T09:57:11Z</time>
      </trkpt>
      <trkpt lat="45.83146" lon="6.44423">
        <ele>2266</ele>
        <time>2018-10-17T09:57:12Z</time>
      </trkpt>
      <trkpt lat="45.83146" lon="6.44423">
        <ele>2267</ele>
        <time>2018-10-17T09:57:13Z</time>
      </trkpt>
      <trkpt lat="45.83146" lon="6.44423">
        <ele>2267</ele>
        <time>2018-10-17T09:57:14Z</time>
      </trkpt>
      <trkpt lat="45.83146" lon="6.44423">
        <ele>2267</ele>
        <time>2018-10-17T09:57:15Z</time>
      </trkpt>
      <trkpt lat="45.83146" lon="6.44423">
        <ele>2267</ele>
        <time>2018-10-17T09:57:16Z</time>
      </trkpt>
      <trkpt lat="45.83146" lon="6.44423">
        <ele>2267</ele>
        <time>2018-10-17T09:57:17Z</time>
      </trkpt>
      <trkpt lat="45.83146" lon="6.44423">
        <ele>2267</ele>
        <time>2018-10-17T09:57:18Z</time>
      </trkpt>
      <trkpt lat="45.83146" lon="6.44423">
        <ele>2268</ele>
        <time>2018-10-17T09:57:19Z</time>
      </trkpt>
      <trkpt lat="45.83146" lon="6.44423">
        <ele>2268</ele>
        <time>2018-10-17T09:57:20Z</time>
      </trkpt>
      <trkpt lat="45.83146" lon="6.44423">
        <ele>2268</ele>
        <time>2018-10-17T09:57:21Z</time>
      </trkpt>
      <trkpt lat="45.83146" lon="6.44423">
        <ele>2268</ele>
        <time>2018-10-17T09:57:22Z</time>
      </trkpt>
      <trkpt lat="45.83146" lon="6.44423">
        <ele>2269</ele>
        <time>2018-10-17T09:57:23Z</time>
      </trkpt>
      <trkpt lat="45.83146" lon="6.44423">
        <ele>2269</ele>
        <time>2018-10-17T09:57:24Z</time>
      </trkpt>
      <trkpt lat="45.83147" lon="6.4442">
        <ele>2270</ele>
        <time>2018-10-17T09:57:25Z</time>
      </trkpt>
      <trkpt lat="45.83147" lon="6.4442">
        <ele>2270</ele>
        <time>2018-10-17T09:57:26Z</time>
      </trkpt>
      <trkpt lat="45.83147" lon="6.4442">
        <ele>2271</ele>
        <time>2018-10-17T09:57:27Z</time>
      </trkpt>
      <trkpt lat="45.83147" lon="6.4442">
        <ele>2271</ele>
        <time>2018-10-17T09:57:28Z</time>
      </trkpt>
      <trkpt lat="45.83147" lon="6.4442">
        <ele>2271</ele>
        <time>2018-10-17T09:57:29Z</time>
      </trkpt>
      <trkpt lat="45.83147" lon="6.4442">
        <ele>2271</ele>
        <time>2018-10-17T09:57:30Z</time>
      </trkpt>
      <trkpt lat="45.83147" lon="6.4442">
        <ele>2271</ele>
        <time>2018-10-17T09:57:31Z</time>
      </trkpt>
      <trkpt lat="45.83147" lon="6.4442">
        <ele>2271</ele>
        <time>2018-10-17T09:57:32Z</time>
      </trkpt>
      <trkpt lat="45.83147" lon="6.4442">
        <ele>2272</ele>
        <time>2018-10-17T09:57:33Z</time>
      </trkpt>
      <trkpt lat="45.83147" lon="6.44417">
        <ele>2272</ele>
        <time>2018-10-17T09:57:34Z</time>
      </trkpt>
      <trkpt lat="45.83147" lon="6.44417">
        <ele>2273</ele>
        <time>2018-10-17T09:57:35Z</time>
      </trkpt>
      <trkpt lat="45.83147" lon="6.44417">
        <ele>2273</ele>
        <time>2018-10-17T09:57:36Z</time>
      </trkpt>
      <trkpt lat="45.83147" lon="6.44417">
        <ele>2273</ele>
        <time>2018-10-17T09:57:37Z</time>
      </trkpt>
      <trkpt lat="45.83147" lon="6.44417">
        <ele>2273</ele>
        <time>2018-10-17T09:57:38Z</time>
      </trkpt>
      <trkpt lat="45.83147" lon="6.44417">
        <ele>2273</ele>
        <time>2018-10-17T09:57:39Z</time>
      </trkpt>
      <trkpt lat="45.83147" lon="6.44414">
        <ele>2274</ele>
        <time>2018-10-17T09:57:40Z</time>
      </trkpt>
      <trkpt lat="45.83147" lon="6.44414">
        <ele>2274</ele>
        <time>2018-10-17T09:57:41Z</time>
      </trkpt>
      <trkpt lat="45.83147" lon="6.44414">
        <ele>2274</ele>
        <time>2018-10-17T09:57:42Z</time>
      </trkpt>
      <trkpt lat="45.83147" lon="6.44414">
        <ele>2274</ele>
        <time>2018-10-17T09:57:43Z</time>
      </trkpt>
      <trkpt lat="45.83147" lon="6.44414">
        <ele>2275</ele>
        <time>2018-10-17T09:57:44Z</time>
      </trkpt>
      <trkpt lat="45.83147" lon="6.44411">
        <ele>2275</ele>
        <time>2018-10-17T09:57:45Z</time>
      </trkpt>
      <trkpt lat="45.83147" lon="6.44411">
        <ele>2275</ele>
        <time>2018-10-17T09:57:46Z</time>
      </trkpt>
      <trkpt lat="45.83147" lon="6.44411">
        <ele>2275</ele>
        <time>2018-10-17T09:57:47Z</time>
      </trkpt>
      <trkpt lat="45.83147" lon="6.44408">
        <ele>2276</ele>
        <time>2018-10-17T09:57:48Z</time>
      </trkpt>
      <trkpt lat="45.83147" lon="6.44408">
        <ele>2276</ele>
        <time>2018-10-17T09:57:49Z</time>
      </trkpt>
      <trkpt lat="45.83147" lon="6.44408">
        <ele>2276</ele>
        <time>2018-10-17T09:57:50Z</time>
      </trkpt>
      <trkpt lat="45.83147" lon="6.44405">
        <ele>2276</ele>
        <time>2018-10-17T09:57:51Z</time>
      </trkpt>
      <trkpt lat="45.83147" lon="6.44405">
        <ele>2276</ele>
        <time>2018-10-17T09:57:52Z</time>
      </trkpt>
      <trkpt lat="45.83147" lon="6.44405">
        <ele>2276</ele>
        <time>2018-10-17T09:57:53Z</time>
      </trkpt>
      <trkpt lat="45.83147" lon="6.44405">
        <ele>2276</ele>
        <time>2018-10-17T09:57:54Z</time>
      </trkpt>
      <trkpt lat="45.83147" lon="6.44405">
        <ele>2276</ele>
        <time>2018-10-17T09:57:55Z</time>
      </trkpt>
      <trkpt lat="45.83147" lon="6.44405">
        <ele>2276</ele>
        <time>2018-10-17T09:57:56Z</time>
      </trkpt>
      <trkpt lat="45.83147" lon="6.44402">
        <ele>2276</ele>
        <time>2018-10-17T09:57:57Z</time>
      </trkpt>
      <trkpt lat="45.83147" lon="6.44402">
        <ele>2276</ele>
        <time>2018-10-17T09:57:58Z</time>
      </trkpt>
      <trkpt lat="45.83147" lon="6.44402">
        <ele>2276</ele>
        <time>2018-10-17T09:57:59Z</time>
      </trkpt>
      <trkpt lat="45.83147" lon="6.44398">
        <ele>2276</ele>
        <time>2018-10-17T09:58:00Z</time>
      </trkpt>
      <trkpt lat="45.83147" lon="6.44398">
        <ele>2276</ele>
        <time>2018-10-17T09:58:01Z</time>
      </trkpt>
      <trkpt lat="45.83147" lon="6.44398">
        <ele>2276</ele>
        <time>2018-10-17T09:58:02Z</time>
      </trkpt>
      <trkpt lat="45.83147" lon="6.44398">
        <ele>2276</ele>
        <time>2018-10-17T09:58:03Z</time>
      </trkpt>
      <trkpt lat="45.83147" lon="6.44398">
        <ele>2276</ele>
        <time>2018-10-17T09:58:04Z</time>
      </trkpt>
      <trkpt lat="45.83147" lon="6.44398">
        <ele>2276</ele>
        <time>2018-10-17T09:58:05Z</time>
      </trkpt>
      <trkpt lat="45.83147" lon="6.44398">
        <ele>2275</ele>
        <time>2018-10-17T09:58:06Z</time>
      </trkpt>
      <trkpt lat="45.83146" lon="6.44396">
        <ele>2275</ele>
        <time>2018-10-17T09:58:07Z</time>
      </trkpt>
      <trkpt lat="45.83146" lon="6.44396">
        <ele>2275</ele>
        <time>2018-10-17T09:58:08Z</time>
      </trkpt>
      <trkpt lat="45.83146" lon="6.44396">
        <ele>2275</ele>
        <time>2018-10-17T09:58:09Z</time>
      </trkpt>
      <trkpt lat="45.83146" lon="6.44396">
        <ele>2275</ele>
        <time>2018-10-17T09:58:10Z</time>
      </trkpt>
      <trkpt lat="45.83146" lon="6.44396">
        <ele>2274</ele>
        <time>2018-10-17T09:58:11Z</time>
      </trkpt>
      <trkpt lat="45.83146" lon="6.44396">
        <ele>2274</ele>
        <time>2018-10-17T09:58:12Z</time>
      </trkpt>
      <trkpt lat="45.83146" lon="6.44396">
        <ele>2274</ele>
        <time>2018-10-17T09:58:13Z</time>
      </trkpt>
      <trkpt lat="45.83146" lon="6.44396">
        <ele>2274</ele>
        <time>2018-10-17T09:58:14Z</time>
      </trkpt>
      <trkpt lat="45.83146" lon="6.44396">
        <ele>2274</ele>
        <time>2018-10-17T09:58:15Z</time>
      </trkpt>
      <trkpt lat="45.83146" lon="6.44396">
        <ele>2274</ele>
        <time>2018-10-17T09:58:16Z</time>
      </trkpt>
      <trkpt lat="45.83146" lon="6.44396">
        <ele>2274</ele>
        <time>2018-10-17T09:58:17Z</time>
      </trkpt>
      <trkpt lat="45.83146" lon="6.44396">
        <ele>2275</ele>
        <time>2018-10-17T09:58:18Z</time>
      </trkpt>
      <trkpt lat="45.83146" lon="6.44396">
        <ele>2275</ele>
        <time>2018-10-17T09:58:19Z</time>
      </trkpt>
      <trkpt lat="45.83146" lon="6.44396">
        <ele>2275</ele>
        <time>2018-10-17T09:58:20Z</time>
      </trkpt>
      <trkpt lat="45.83146" lon="6.44396">
        <ele>2275</ele>
        <time>2018-10-17T09:58:21Z</time>
      </trkpt>
      <trkpt lat="45.83146" lon="6.44396">
        <ele>2275</ele>
        <time>2018-10-17T09:58:22Z</time>
      </trkpt>
      <trkpt lat="45.83146" lon="6.44396">
        <ele>2275</ele>
        <time>2018-10-17T09:58:23Z</time>
      </trkpt>
      <trkpt lat="45.83146" lon="6.44396">
        <ele>2275</ele>
        <time>2018-10-17T09:58:24Z</time>
      </trkpt>
      <trkpt lat="45.83146" lon="6.44396">
        <ele>2275</ele>
        <time>2018-10-17T09:58:25Z</time>
      </trkpt>
      <trkpt lat="45.83146" lon="6.44396">
        <ele>2275</ele>
        <time>2018-10-17T09:58:26Z</time>
      </trkpt>
      <trkpt lat="45.83146" lon="6.44396">
        <ele>2276</ele>
        <time>2018-10-17T09:58:27Z</time>
      </trkpt>
      <trkpt lat="45.83146" lon="6.44396">
        <ele>2276</ele>
        <time>2018-10-17T09:58:28Z</time>
      </trkpt>
      <trkpt lat="45.83146" lon="6.44396">
        <ele>2277</ele>
        <time>2018-10-17T09:58:29Z</time>
      </trkpt>
      <trkpt lat="45.83146" lon="6.44396">
        <ele>2277</ele>
        <time>2018-10-17T09:58:30Z</time>
      </trkpt>
      <trkpt lat="45.83146" lon="6.44396">
        <ele>2277</ele>
        <time>2018-10-17T09:58:31Z</time>
      </trkpt>
      <trkpt lat="45.83146" lon="6.44396">
        <ele>2277</ele>
        <time>2018-10-17T09:58:32Z</time>
      </trkpt>
      <trkpt lat="45.83146" lon="6.44396">
        <ele>2277</ele>
        <time>2018-10-17T09:58:33Z</time>
      </trkpt>
      <trkpt lat="45.83146" lon="6.44396">
        <ele>2277</ele>
        <time>2018-10-17T09:58:34Z</time>
      </trkpt>
      <trkpt lat="45.83146" lon="6.44396">
        <ele>2276</ele>
        <time>2018-10-17T09:58:35Z</time>
      </trkpt>
      <trkpt lat="45.83146" lon="6.44396">
        <ele>2276</ele>
        <time>2018-10-17T09:58:36Z</time>
      </trkpt>
      <trkpt lat="45.83146" lon="6.44396">
        <ele>2275</ele>
        <time>2018-10-17T09:58:37Z</time>
      </trkpt>
      <trkpt lat="45.83146" lon="6.44396">
        <ele>2274</ele>
        <time>2018-10-17T09:58:38Z</time>
      </trkpt>
      <trkpt lat="45.83146" lon="6.44396">
        <ele>2274</ele>
        <time>2018-10-17T09:58:39Z</time>
      </trkpt>
      <trkpt lat="45.83146" lon="6.44396">
        <ele>2275</ele>
        <time>2018-10-17T09:58:40Z</time>
      </trkpt>
      <trkpt lat="45.83146" lon="6.44396">
        <ele>2275</ele>
        <time>2018-10-17T09:58:41Z</time>
      </trkpt>
      <trkpt lat="45.83146" lon="6.44396">
        <ele>2275</ele>
        <time>2018-10-17T09:58:42Z</time>
      </trkpt>
      <trkpt lat="45.83146" lon="6.44396">
        <ele>2275</ele>
        <time>2018-10-17T09:58:43Z</time>
      </trkpt>
      <trkpt lat="45.83146" lon="6.44396">
        <ele>2276</ele>
        <time>2018-10-17T09:58:44Z</time>
      </trkpt>
      <trkpt lat="45.83146" lon="6.44396">
        <ele>2276</ele>
        <time>2018-10-17T09:58:45Z</time>
      </trkpt>
      <trkpt lat="45.83146" lon="6.44396">
        <ele>2276</ele>
        <time>2018-10-17T09:58:46Z</time>
      </trkpt>
      <trkpt lat="45.83146" lon="6.44396">
        <ele>2276</ele>
        <time>2018-10-17T09:58:47Z</time>
      </trkpt>
      <trkpt lat="45.83146" lon="6.44396">
        <ele>2276</ele>
        <time>2018-10-17T09:58:48Z</time>
      </trkpt>
      <trkpt lat="45.83146" lon="6.44396">
        <ele>2276</ele>
        <time>2018-10-17T09:58:49Z</time>
      </trkpt>
      <trkpt lat="45.83146" lon="6.44396">
        <ele>2276</ele>
        <time>2018-10-17T09:58:50Z</time>
      </trkpt>
      <trkpt lat="45.83146" lon="6.44396">
        <ele>2276</ele>
        <time>2018-10-17T09:58:51Z</time>
      </trkpt>
      <trkpt lat="45.83146" lon="6.44396">
        <ele>2275</ele>
        <time>2018-10-17T09:58:52Z</time>
      </trkpt>
      <trkpt lat="45.83146" lon="6.44396">
        <ele>2275</ele>
        <time>2018-10-17T09:58:53Z</time>
      </trkpt>
      <trkpt lat="45.83146" lon="6.44396">
        <ele>2275</ele>
        <time>2018-10-17T09:58:54Z</time>
      </trkpt>
      <trkpt lat="45.83146" lon="6.44396">
        <ele>2275</ele>
        <time>2018-10-17T09:58:55Z</time>
      </trkpt>
      <trkpt lat="45.83146" lon="6.44396">
        <ele>2275</ele>
        <time>2018-10-17T09:58:56Z</time>
      </trkpt>
      <trkpt lat="45.83146" lon="6.44396">
        <ele>2275</ele>
        <time>2018-10-17T09:58:57Z</time>
      </trkpt>
      <trkpt lat="45.83146" lon="6.44396">
        <ele>2275</ele>
        <time>2018-10-17T09:58:58Z</time>
      </trkpt>
      <trkpt lat="45.83146" lon="6.44396">
        <ele>2275</ele>
        <time>2018-10-17T09:58:59Z</time>
      </trkpt>
      <trkpt lat="45.83146" lon="6.44396">
        <ele>2275</ele>
        <time>2018-10-17T09:59:00Z</time>
      </trkpt>
      <trkpt lat="45.83146" lon="6.44396">
        <ele>2275</ele>
        <time>2018-10-17T09:59:01Z</time>
      </trkpt>
      <trkpt lat="45.83146" lon="6.44396">
        <ele>2275</ele>
        <time>2018-10-17T09:59:02Z</time>
      </trkpt>
      <trkpt lat="45.83146" lon="6.44396">
        <ele>2275</ele>
        <time>2018-10-17T09:59:03Z</time>
      </trkpt>
      <trkpt lat="45.83146" lon="6.44396">
        <ele>2275</ele>
        <time>2018-10-17T09:59:04Z</time>
      </trkpt>
      <trkpt lat="45.83146" lon="6.44396">
        <ele>2275</ele>
        <time>2018-10-17T09:59:05Z</time>
      </trkpt>
      <trkpt lat="45.83146" lon="6.44396">
        <ele>2275</ele>
        <time>2018-10-17T09:59:06Z</time>
      </trkpt>
      <trkpt lat="45.83146" lon="6.44396">
        <ele>2275</ele>
        <time>2018-10-17T09:59:07Z</time>
      </trkpt>
      <trkpt lat="45.83146" lon="6.44396">
        <ele>2275</ele>
        <time>2018-10-17T09:59:08Z</time>
      </trkpt>
      <trkpt lat="45.83146" lon="6.44396">
        <ele>2276</ele>
        <time>2018-10-17T09:59:09Z</time>
      </trkpt>
      <trkpt lat="45.83146" lon="6.44396">
        <ele>2276</ele>
        <time>2018-10-17T09:59:10Z</time>
      </trkpt>
      <trkpt lat="45.83146" lon="6.44396">
        <ele>2276</ele>
        <time>2018-10-17T09:59:11Z</time>
      </trkpt>
      <trkpt lat="45.83146" lon="6.44396">
        <ele>2276</ele>
        <time>2018-10-17T09:59:12Z</time>
      </trkpt>
      <trkpt lat="45.83146" lon="6.44396">
        <ele>2276</ele>
        <time>2018-10-17T09:59:13Z</time>
      </trkpt>
      <trkpt lat="45.83146" lon="6.44396">
        <ele>2276</ele>
        <time>2018-10-17T09:59:14Z</time>
      </trkpt>
      <trkpt lat="45.83146" lon="6.44396">
        <ele>2276</ele>
        <time>2018-10-17T09:59:15Z</time>
      </trkpt>
      <trkpt lat="45.83146" lon="6.44396">
        <ele>2276</ele>
        <time>2018-10-17T09:59:16Z</time>
      </trkpt>
      <trkpt lat="45.83146" lon="6.44396">
        <ele>2276</ele>
        <time>2018-10-17T09:59:17Z</time>
      </trkpt>
      <trkpt lat="45.83146" lon="6.44396">
        <ele>2276</ele>
        <time>2018-10-17T09:59:18Z</time>
      </trkpt>
      <trkpt lat="45.83146" lon="6.44396">
        <ele>2276</ele>
        <time>2018-10-17T09:59:19Z</time>
      </trkpt>
      <trkpt lat="45.83146" lon="6.44396">
        <ele>2276</ele>
        <time>2018-10-17T09:59:20Z</time>
      </trkpt>
      <trkpt lat="45.83146" lon="6.44396">
        <ele>2275</ele>
        <time>2018-10-17T09:59:21Z</time>
      </trkpt>
      <trkpt lat="45.83146" lon="6.44396">
        <ele>2276</ele>
        <time>2018-10-17T09:59:22Z</time>
      </trkpt>
      <trkpt lat="45.83146" lon="6.44396">
        <ele>2276</ele>
        <time>2018-10-17T09:59:23Z</time>
      </trkpt>
      <trkpt lat="45.83146" lon="6.44396">
        <ele>2276</ele>
        <time>2018-10-17T09:59:24Z</time>
      </trkpt>
      <trkpt lat="45.83146" lon="6.44396">
        <ele>2276</ele>
        <time>2018-10-17T09:59:25Z</time>
      </trkpt>
      <trkpt lat="45.83146" lon="6.44396">
        <ele>2276</ele>
        <time>2018-10-17T09:59:26Z</time>
      </trkpt>
      <trkpt lat="45.83146" lon="6.44396">
        <ele>2276</ele>
        <time>2018-10-17T09:59:27Z</time>
      </trkpt>
      <trkpt lat="45.83146" lon="6.44396">
        <ele>2276</ele>
        <time>2018-10-17T09:59:28Z</time>
      </trkpt>
      <trkpt lat="45.83146" lon="6.44396">
        <ele>2276</ele>
        <time>2018-10-17T09:59:29Z</time>
      </trkpt>
      <trkpt lat="45.83146" lon="6.44396">
        <ele>2276</ele>
        <time>2018-10-17T09:59:30Z</time>
      </trkpt>
      <trkpt lat="45.83146" lon="6.44396">
        <ele>2276</ele>
        <time>2018-10-17T09:59:31Z</time>
      </trkpt>
      <trkpt lat="45.83146" lon="6.44396">
        <ele>2276</ele>
        <time>2018-10-17T09:59:32Z</time>
      </trkpt>
      <trkpt lat="45.83147" lon="6.44393">
        <ele>2276</ele>
        <time>2018-10-17T09:59:33Z</time>
      </trkpt>
      <trkpt lat="45.83147" lon="6.44393">
        <ele>2276</ele>
        <time>2018-10-17T09:59:34Z</time>
      </trkpt>
      <trkpt lat="45.83147" lon="6.44393">
        <ele>2275</ele>
        <time>2018-10-17T09:59:35Z</time>
      </trkpt>
      <trkpt lat="45.83147" lon="6.44393">
        <ele>2276</ele>
        <time>2018-10-17T09:59:36Z</time>
      </trkpt>
      <trkpt lat="45.83147" lon="6.44393">
        <ele>2276</ele>
        <time>2018-10-17T09:59:37Z</time>
      </trkpt>
      <trkpt lat="45.83147" lon="6.44393">
        <ele>2276</ele>
        <time>2018-10-17T09:59:38Z</time>
      </trkpt>
      <trkpt lat="45.83147" lon="6.44393">
        <ele>2276</ele>
        <time>2018-10-17T09:59:39Z</time>
      </trkpt>
      <trkpt lat="45.83147" lon="6.44393">
        <ele>2276</ele>
        <time>2018-10-17T09:59:40Z</time>
      </trkpt>
      <trkpt lat="45.83147" lon="6.44393">
        <ele>2276</ele>
        <time>2018-10-17T09:59:41Z</time>
      </trkpt>
      <trkpt lat="45.83147" lon="6.44393">
        <ele>2276</ele>
        <time>2018-10-17T09:59:42Z</time>
      </trkpt>
      <trkpt lat="45.83147" lon="6.44393">
        <ele>2276</ele>
        <time>2018-10-17T09:59:43Z</time>
      </trkpt>
      <trkpt lat="45.83147" lon="6.44393">
        <ele>2276</ele>
        <time>2018-10-17T09:59:44Z</time>
      </trkpt>
      <trkpt lat="45.83147" lon="6.44393">
        <ele>2275</ele>
        <time>2018-10-17T09:59:45Z</time>
      </trkpt>
      <trkpt lat="45.83147" lon="6.44393">
        <ele>2275</ele>
        <time>2018-10-17T09:59:46Z</time>
      </trkpt>
      <trkpt lat="45.83147" lon="6.44393">
        <ele>2275</ele>
        <time>2018-10-17T09:59:47Z</time>
      </trkpt>
      <trkpt lat="45.83147" lon="6.44393">
        <ele>2276</ele>
        <time>2018-10-17T09:59:48Z</time>
      </trkpt>
      <trkpt lat="45.83147" lon="6.44393">
        <ele>2276</ele>
        <time>2018-10-17T09:59:49Z</time>
      </trkpt>
      <trkpt lat="45.83147" lon="6.44393">
        <ele>2276</ele>
        <time>2018-10-17T09:59:50Z</time>
      </trkpt>
      <trkpt lat="45.83147" lon="6.44393">
        <ele>2276</ele>
        <time>2018-10-17T09:59:51Z</time>
      </trkpt>
      <trkpt lat="45.83147" lon="6.44393">
        <ele>2276</ele>
        <time>2018-10-17T09:59:52Z</time>
      </trkpt>
      <trkpt lat="45.83147" lon="6.44393">
        <ele>2276</ele>
        <time>2018-10-17T09:59:53Z</time>
      </trkpt>
      <trkpt lat="45.83147" lon="6.44393">
        <ele>2276</ele>
        <time>2018-10-17T09:59:54Z</time>
      </trkpt>
      <trkpt lat="45.83147" lon="6.44393">
        <ele>2276</ele>
        <time>2018-10-17T09:59:55Z</time>
      </trkpt>
      <trkpt lat="45.83147" lon="6.44393">
        <ele>2276</ele>
        <time>2018-10-17T09:59:56Z</time>
      </trkpt>
      <trkpt lat="45.83147" lon="6.44393">
        <ele>2276</ele>
        <time>2018-10-17T09:59:57Z</time>
      </trkpt>
      <trkpt lat="45.83147" lon="6.44393">
        <ele>2276</ele>
        <time>2018-10-17T09:59:58Z</time>
      </trkpt>
      <trkpt lat="45.83147" lon="6.44393">
        <ele>2276</ele>
        <time>2018-10-17T09:59:59Z</time>
      </trkpt>
      <trkpt lat="45.83147" lon="6.44393">
        <ele>2276</ele>
        <time>2018-10-17T10:00:00Z</time>
      </trkpt>
      <trkpt lat="45.83147" lon="6.44393">
        <ele>2276</ele>
        <time>2018-10-17T10:00:01Z</time>
      </trkpt>
      <trkpt lat="45.83147" lon="6.44393">
        <ele>2276</ele>
        <time>2018-10-17T10:00:02Z</time>
      </trkpt>
      <trkpt lat="45.83147" lon="6.44393">
        <ele>2276</ele>
        <time>2018-10-17T10:00:03Z</time>
      </trkpt>
      <trkpt lat="45.83147" lon="6.44393">
        <ele>2276</ele>
        <time>2018-10-17T10:00:04Z</time>
      </trkpt>
      <trkpt lat="45.83147" lon="6.44393">
        <ele>2276</ele>
        <time>2018-10-17T10:00:05Z</time>
      </trkpt>
      <trkpt lat="45.83147" lon="6.44393">
        <ele>2276</ele>
        <time>2018-10-17T10:00:06Z</time>
      </trkpt>
      <trkpt lat="45.83147" lon="6.44393">
        <ele>2276</ele>
        <time>2018-10-17T10:00:07Z</time>
      </trkpt>
      <trkpt lat="45.83147" lon="6.44393">
        <ele>2276</ele>
        <time>2018-10-17T10:00:08Z</time>
      </trkpt>
      <trkpt lat="45.83147" lon="6.44393">
        <ele>2276</ele>
        <time>2018-10-17T10:00:09Z</time>
      </trkpt>
      <trkpt lat="45.83147" lon="6.44393">
        <ele>2276</ele>
        <time>2018-10-17T10:00:10Z</time>
      </trkpt>
      <trkpt lat="45.83147" lon="6.44393">
        <ele>2276</ele>
        <time>2018-10-17T10:00:11Z</time>
      </trkpt>
      <trkpt lat="45.83147" lon="6.44393">
        <ele>2276</ele>
        <time>2018-10-17T10:00:12Z</time>
      </trkpt>
      <trkpt lat="45.83147" lon="6.44393">
        <ele>2276</ele>
        <time>2018-10-17T10:00:13Z</time>
      </trkpt>
      <trkpt lat="45.83147" lon="6.44393">
        <ele>2275</ele>
        <time>2018-10-17T10:00:14Z</time>
      </trkpt>
      <trkpt lat="45.83147" lon="6.44393">
        <ele>2275</ele>
        <time>2018-10-17T10:00:15Z</time>
      </trkpt>
      <trkpt lat="45.83147" lon="6.44393">
        <ele>2275</ele>
        <time>2018-10-17T10:00:16Z</time>
      </trkpt>
      <trkpt lat="45.83147" lon="6.44393">
        <ele>2275</ele>
        <time>2018-10-17T10:00:17Z</time>
      </trkpt>
      <trkpt lat="45.83147" lon="6.44393">
        <ele>2275</ele>
        <time>2018-10-17T10:00:18Z</time>
      </trkpt>
      <trkpt lat="45.83147" lon="6.44393">
        <ele>2275</ele>
        <time>2018-10-17T10:00:19Z</time>
      </trkpt>
      <trkpt lat="45.83147" lon="6.44393">
        <ele>2275</ele>
        <time>2018-10-17T10:00:20Z</time>
      </trkpt>
      <trkpt lat="45.83147" lon="6.44393">
        <ele>2275</ele>
        <time>2018-10-17T10:00:21Z</time>
      </trkpt>
      <trkpt lat="45.83147" lon="6.44393">
        <ele>2275</ele>
        <time>2018-10-17T10:00:22Z</time>
      </trkpt>
      <trkpt lat="45.83147" lon="6.44393">
        <ele>2275</ele>
        <time>2018-10-17T10:00:23Z</time>
      </trkpt>
      <trkpt lat="45.83147" lon="6.44393">
        <ele>2275</ele>
        <time>2018-10-17T10:00:24Z</time>
      </trkpt>
      <trkpt lat="45.83147" lon="6.44393">
        <ele>2275</ele>
        <time>2018-10-17T10:00:25Z</time>
      </trkpt>
      <trkpt lat="45.83147" lon="6.44393">
        <ele>2275</ele>
        <time>2018-10-17T10:00:26Z</time>
      </trkpt>
      <trkpt lat="45.83147" lon="6.44393">
        <ele>2275</ele>
        <time>2018-10-17T10:00:27Z</time>
      </trkpt>
      <trkpt lat="45.83147" lon="6.44393">
        <ele>2275</ele>
        <time>2018-10-17T10:00:28Z</time>
      </trkpt>
      <trkpt lat="45.83147" lon="6.44393">
        <ele>2275</ele>
        <time>2018-10-17T10:00:29Z</time>
      </trkpt>
      <trkpt lat="45.83147" lon="6.44393">
        <ele>2275</ele>
        <time>2018-10-17T10:00:30Z</time>
      </trkpt>
      <trkpt lat="45.83147" lon="6.44393">
        <ele>2275</ele>
        <time>2018-10-17T10:00:31Z</time>
      </trkpt>
      <trkpt lat="45.83147" lon="6.44393">
        <ele>2275</ele>
        <time>2018-10-17T10:00:32Z</time>
      </trkpt>
      <trkpt lat="45.83147" lon="6.44393">
        <ele>2275</ele>
        <time>2018-10-17T10:00:33Z</time>
      </trkpt>
      <trkpt lat="45.83147" lon="6.44393">
        <ele>2275</ele>
        <time>2018-10-17T10:00:34Z</time>
      </trkpt>
      <trkpt lat="45.83147" lon="6.44393">
        <ele>2275</ele>
        <time>2018-10-17T10:00:35Z</time>
      </trkpt>
      <trkpt lat="45.83147" lon="6.44393">
        <ele>2275</ele>
        <time>2018-10-17T10:00:36Z</time>
      </trkpt>
      <trkpt lat="45.83147" lon="6.44393">
        <ele>2275</ele>
        <time>2018-10-17T10:00:37Z</time>
      </trkpt>
      <trkpt lat="45.83147" lon="6.44393">
        <ele>2275</ele>
        <time>2018-10-17T10:00:38Z</time>
      </trkpt>
      <trkpt lat="45.83147" lon="6.44393">
        <ele>2275</ele>
        <time>2018-10-17T10:00:39Z</time>
      </trkpt>
      <trkpt lat="45.83147" lon="6.44393">
        <ele>2275</ele>
        <time>2018-10-17T10:00:40Z</time>
      </trkpt>
      <trkpt lat="45.83147" lon="6.44393">
        <ele>2275</ele>
        <time>2018-10-17T10:00:41Z</time>
      </trkpt>
      <trkpt lat="45.83147" lon="6.44393">
        <ele>2275</ele>
        <time>2018-10-17T10:00:42Z</time>
      </trkpt>
      <trkpt lat="45.83147" lon="6.44393">
        <ele>2275</ele>
        <time>2018-10-17T10:00:43Z</time>
      </trkpt>
      <trkpt lat="45.83147" lon="6.44393">
        <ele>2275</ele>
        <time>2018-10-17T10:00:44Z</time>
      </trkpt>
      <trkpt lat="45.83147" lon="6.44393">
        <ele>2275</ele>
        <time>2018-10-17T10:00:45Z</time>
      </trkpt>
      <trkpt lat="45.83147" lon="6.44393">
        <ele>2275</ele>
        <time>2018-10-17T10:00:46Z</time>
      </trkpt>
      <trkpt lat="45.83147" lon="6.44393">
        <ele>2275</ele>
        <time>2018-10-17T10:00:47Z</time>
      </trkpt>
      <trkpt lat="45.83147" lon="6.44393">
        <ele>2275</ele>
        <time>2018-10-17T10:00:48Z</time>
      </trkpt>
      <trkpt lat="45.83147" lon="6.44393">
        <ele>2275</ele>
        <time>2018-10-17T10:00:49Z</time>
      </trkpt>
      <trkpt lat="45.83147" lon="6.44393">
        <ele>2275</ele>
        <time>2018-10-17T10:00:50Z</time>
      </trkpt>
      <trkpt lat="45.83147" lon="6.44393">
        <ele>2276</ele>
        <time>2018-10-17T10:00:51Z</time>
      </trkpt>
      <trkpt lat="45.83147" lon="6.44393">
        <ele>2276</ele>
        <time>2018-10-17T10:00:52Z</time>
      </trkpt>
      <trkpt lat="45.83147" lon="6.44393">
        <ele>2276</ele>
        <time>2018-10-17T10:00:53Z</time>
      </trkpt>
      <trkpt lat="45.83147" lon="6.44393">
        <ele>2276</ele>
        <time>2018-10-17T10:00:54Z</time>
      </trkpt>
      <trkpt lat="45.83147" lon="6.44393">
        <ele>2276</ele>
        <time>2018-10-17T10:00:55Z</time>
      </trkpt>
      <trkpt lat="45.83147" lon="6.44393">
        <ele>2276</ele>
        <time>2018-10-17T10:00:56Z</time>
      </trkpt>
      <trkpt lat="45.83147" lon="6.44393">
        <ele>2275</ele>
        <time>2018-10-17T10:00:57Z</time>
      </trkpt>
      <trkpt lat="45.83147" lon="6.44393">
        <ele>2275</ele>
        <time>2018-10-17T10:00:58Z</time>
      </trkpt>
      <trkpt lat="45.83147" lon="6.44393">
        <ele>2275</ele>
        <time>2018-10-17T10:00:59Z</time>
      </trkpt>
      <trkpt lat="45.83147" lon="6.44393">
        <ele>2275</ele>
        <time>2018-10-17T10:01:00Z</time>
      </trkpt>
      <trkpt lat="45.83147" lon="6.44393">
        <ele>2275</ele>
        <time>2018-10-17T10:01:01Z</time>
      </trkpt>
      <trkpt lat="45.83147" lon="6.44393">
        <ele>2275</ele>
        <time>2018-10-17T10:01:02Z</time>
      </trkpt>
      <trkpt lat="45.83147" lon="6.44393">
        <ele>2275</ele>
        <time>2018-10-17T10:01:03Z</time>
      </trkpt>
      <trkpt lat="45.83147" lon="6.44393">
        <ele>2275</ele>
        <time>2018-10-17T10:01:04Z</time>
      </trkpt>
      <trkpt lat="45.83147" lon="6.44393">
        <ele>2275</ele>
        <time>2018-10-17T10:01:05Z</time>
      </trkpt>
      <trkpt lat="45.83147" lon="6.44393">
        <ele>2275</ele>
        <time>2018-10-17T10:01:06Z</time>
      </trkpt>
      <trkpt lat="45.83147" lon="6.44393">
        <ele>2275</ele>
        <time>2018-10-17T10:01:07Z</time>
      </trkpt>
      <trkpt lat="45.83147" lon="6.44393">
        <ele>2275</ele>
        <time>2018-10-17T10:01:08Z</time>
      </trkpt>
      <trkpt lat="45.83147" lon="6.44393">
        <ele>2275</ele>
        <time>2018-10-17T10:01:09Z</time>
      </trkpt>
      <trkpt lat="45.83147" lon="6.44393">
        <ele>2275</ele>
        <time>2018-10-17T10:01:10Z</time>
      </trkpt>
      <trkpt lat="45.83147" lon="6.44393">
        <ele>2275</ele>
        <time>2018-10-17T10:01:11Z</time>
      </trkpt>
      <trkpt lat="45.83147" lon="6.44393">
        <ele>2275</ele>
        <time>2018-10-17T10:01:12Z</time>
      </trkpt>
      <trkpt lat="45.83147" lon="6.44393">
        <ele>2276</ele>
        <time>2018-10-17T10:01:13Z</time>
      </trkpt>
      <trkpt lat="45.83147" lon="6.44393">
        <ele>2276</ele>
        <time>2018-10-17T10:01:14Z</time>
      </trkpt>
      <trkpt lat="45.83147" lon="6.44393">
        <ele>2276</ele>
        <time>2018-10-17T10:01:15Z</time>
      </trkpt>
      <trkpt lat="45.83147" lon="6.44393">
        <ele>2276</ele>
        <time>2018-10-17T10:01:16Z</time>
      </trkpt>
      <trkpt lat="45.83147" lon="6.44393">
        <ele>2276</ele>
        <time>2018-10-17T10:01:17Z</time>
      </trkpt>
      <trkpt lat="45.83147" lon="6.44393">
        <ele>2276</ele>
        <time>2018-10-17T10:01:18Z</time>
      </trkpt>
      <trkpt lat="45.83147" lon="6.44393">
        <ele>2275</ele>
        <time>2018-10-17T10:01:19Z</time>
      </trkpt>
      <trkpt lat="45.83147" lon="6.44393">
        <ele>2275</ele>
        <time>2018-10-17T10:01:20Z</time>
      </trkpt>
      <trkpt lat="45.83147" lon="6.44393">
        <ele>2275</ele>
        <time>2018-10-17T10:01:21Z</time>
      </trkpt>
      <trkpt lat="45.83147" lon="6.44393">
        <ele>2275</ele>
        <time>2018-10-17T10:01:22Z</time>
      </trkpt>
      <trkpt lat="45.83147" lon="6.44393">
        <ele>2275</ele>
        <time>2018-10-17T10:01:23Z</time>
      </trkpt>
      <trkpt lat="45.83147" lon="6.44393">
        <ele>2275</ele>
        <time>2018-10-17T10:01:24Z</time>
      </trkpt>
      <trkpt lat="45.83147" lon="6.44393">
        <ele>2275</ele>
        <time>2018-10-17T10:01:25Z</time>
      </trkpt>
      <trkpt lat="45.83147" lon="6.44393">
        <ele>2275</ele>
        <time>2018-10-17T10:01:26Z</time>
      </trkpt>
      <trkpt lat="45.83147" lon="6.44393">
        <ele>2275</ele>
        <time>2018-10-17T10:01:27Z</time>
      </trkpt>
      <trkpt lat="45.83147" lon="6.44393">
        <ele>2275</ele>
        <time>2018-10-17T10:01:28Z</time>
      </trkpt>
      <trkpt lat="45.83147" lon="6.44393">
        <ele>2275</ele>
        <time>2018-10-17T10:01:29Z</time>
      </trkpt>
      <trkpt lat="45.83147" lon="6.44393">
        <ele>2275</ele>
        <time>2018-10-17T10:01:30Z</time>
      </trkpt>
      <trkpt lat="45.83147" lon="6.44393">
        <ele>2275</ele>
        <time>2018-10-17T10:01:31Z</time>
      </trkpt>
      <trkpt lat="45.83147" lon="6.44393">
        <ele>2275</ele>
        <time>2018-10-17T10:01:32Z</time>
      </trkpt>
      <trkpt lat="45.83147" lon="6.44393">
        <ele>2275</ele>
        <time>2018-10-17T10:01:33Z</time>
      </trkpt>
      <trkpt lat="45.83147" lon="6.44393">
        <ele>2275</ele>
        <time>2018-10-17T10:01:34Z</time>
      </trkpt>
      <trkpt lat="45.83147" lon="6.44393">
        <ele>2275</ele>
        <time>2018-10-17T10:01:35Z</time>
      </trkpt>
      <trkpt lat="45.83147" lon="6.44393">
        <ele>2275</ele>
        <time>2018-10-17T10:01:36Z</time>
      </trkpt>
      <trkpt lat="45.83147" lon="6.44393">
        <ele>2275</ele>
        <time>2018-10-17T10:01:37Z</time>
      </trkpt>
      <trkpt lat="45.83147" lon="6.44393">
        <ele>2275</ele>
        <time>2018-10-17T10:01:38Z</time>
      </trkpt>
      <trkpt lat="45.83147" lon="6.44393">
        <ele>2275</ele>
        <time>2018-10-17T10:01:39Z</time>
      </trkpt>
      <trkpt lat="45.83147" lon="6.44393">
        <ele>2276</ele>
        <time>2018-10-17T10:01:40Z</time>
      </trkpt>
      <trkpt lat="45.83147" lon="6.44393">
        <ele>2276</ele>
        <time>2018-10-17T10:01:41Z</time>
      </trkpt>
      <trkpt lat="45.83147" lon="6.44393">
        <ele>2276</ele>
        <time>2018-10-17T10:01:42Z</time>
      </trkpt>
      <trkpt lat="45.83147" lon="6.44393">
        <ele>2276</ele>
        <time>2018-10-17T10:01:43Z</time>
      </trkpt>
      <trkpt lat="45.83147" lon="6.44393">
        <ele>2276</ele>
        <time>2018-10-17T10:01:44Z</time>
      </trkpt>
      <trkpt lat="45.83147" lon="6.44393">
        <ele>2276</ele>
        <time>2018-10-17T10:01:45Z</time>
      </trkpt>
      <trkpt lat="45.83147" lon="6.44393">
        <ele>2275</ele>
        <time>2018-10-17T10:01:46Z</time>
      </trkpt>
      <trkpt lat="45.83147" lon="6.44393">
        <ele>2275</ele>
        <time>2018-10-17T10:01:47Z</time>
      </trkpt>
      <trkpt lat="45.83147" lon="6.44393">
        <ele>2275</ele>
        <time>2018-10-17T10:01:48Z</time>
      </trkpt>
      <trkpt lat="45.83147" lon="6.44393">
        <ele>2275</ele>
        <time>2018-10-17T10:01:49Z</time>
      </trkpt>
      <trkpt lat="45.83147" lon="6.44393">
        <ele>2275</ele>
        <time>2018-10-17T10:01:50Z</time>
      </trkpt>
      <trkpt lat="45.83147" lon="6.44393">
        <ele>2275</ele>
        <time>2018-10-17T10:01:51Z</time>
      </trkpt>
      <trkpt lat="45.83147" lon="6.44393">
        <ele>2275</ele>
        <time>2018-10-17T10:01:52Z</time>
      </trkpt>
      <trkpt lat="45.83147" lon="6.44393">
        <ele>2275</ele>
        <time>2018-10-17T10:01:53Z</time>
      </trkpt>
      <trkpt lat="45.83147" lon="6.44393">
        <ele>2275</ele>
        <time>2018-10-17T10:01:54Z</time>
      </trkpt>
      <trkpt lat="45.83147" lon="6.44393">
        <ele>2275</ele>
        <time>2018-10-17T10:01:55Z</time>
      </trkpt>
      <trkpt lat="45.83147" lon="6.44393">
        <ele>2275</ele>
        <time>2018-10-17T10:01:56Z</time>
      </trkpt>
      <trkpt lat="45.83147" lon="6.44393">
        <ele>2275</ele>
        <time>2018-10-17T10:01:57Z</time>
      </trkpt>
      <trkpt lat="45.83147" lon="6.44393">
        <ele>2275</ele>
        <time>2018-10-17T10:01:58Z</time>
      </trkpt>
      <trkpt lat="45.83147" lon="6.44393">
        <ele>2275</ele>
        <time>2018-10-17T10:01:59Z</time>
      </trkpt>
      <trkpt lat="45.83147" lon="6.44393">
        <ele>2276</ele>
        <time>2018-10-17T10:02:00Z</time>
      </trkpt>
      <trkpt lat="45.83147" lon="6.44393">
        <ele>2276</ele>
        <time>2018-10-17T10:02:01Z</time>
      </trkpt>
      <trkpt lat="45.83147" lon="6.44393">
        <ele>2276</ele>
        <time>2018-10-17T10:02:02Z</time>
      </trkpt>
      <trkpt lat="45.83147" lon="6.44393">
        <ele>2276</ele>
        <time>2018-10-17T10:02:03Z</time>
      </trkpt>
      <trkpt lat="45.83147" lon="6.44393">
        <ele>2276</ele>
        <time>2018-10-17T10:02:04Z</time>
      </trkpt>
      <trkpt lat="45.83147" lon="6.44393">
        <ele>2276</ele>
        <time>2018-10-17T10:02:05Z</time>
      </trkpt>
      <trkpt lat="45.83147" lon="6.44393">
        <ele>2276</ele>
        <time>2018-10-17T10:02:06Z</time>
      </trkpt>
      <trkpt lat="45.83147" lon="6.44393">
        <ele>2276</ele>
        <time>2018-10-17T10:02:07Z</time>
      </trkpt>
      <trkpt lat="45.83147" lon="6.44393">
        <ele>2276</ele>
        <time>2018-10-17T10:02:08Z</time>
      </trkpt>
      <trkpt lat="45.83147" lon="6.44393">
        <ele>2276</ele>
        <time>2018-10-17T10:02:09Z</time>
      </trkpt>
      <trkpt lat="45.83147" lon="6.44393">
        <ele>2276</ele>
        <time>2018-10-17T10:02:10Z</time>
      </trkpt>
      <trkpt lat="45.83147" lon="6.44393">
        <ele>2276</ele>
        <time>2018-10-17T10:02:11Z</time>
      </trkpt>
      <trkpt lat="45.83147" lon="6.44393">
        <ele>2276</ele>
        <time>2018-10-17T10:02:12Z</time>
      </trkpt>
      <trkpt lat="45.83147" lon="6.44393">
        <ele>2276</ele>
        <time>2018-10-17T10:02:13Z</time>
      </trkpt>
      <trkpt lat="45.83147" lon="6.44393">
        <ele>2276</ele>
        <time>2018-10-17T10:02:14Z</time>
      </trkpt>
      <trkpt lat="45.83147" lon="6.44393">
        <ele>2276</ele>
        <time>2018-10-17T10:02:15Z</time>
      </trkpt>
      <trkpt lat="45.83147" lon="6.44393">
        <ele>2276</ele>
        <time>2018-10-17T10:02:16Z</time>
      </trkpt>
      <trkpt lat="45.83147" lon="6.44393">
        <ele>2276</ele>
        <time>2018-10-17T10:02:17Z</time>
      </trkpt>
      <trkpt lat="45.83147" lon="6.44393">
        <ele>2276</ele>
        <time>2018-10-17T10:02:18Z</time>
      </trkpt>
      <trkpt lat="45.83147" lon="6.44393">
        <ele>2275</ele>
        <time>2018-10-17T10:02:19Z</time>
      </trkpt>
      <trkpt lat="45.83147" lon="6.44393">
        <ele>2276</ele>
        <time>2018-10-17T10:02:20Z</time>
      </trkpt>
      <trkpt lat="45.83147" lon="6.44393">
        <ele>2276</ele>
        <time>2018-10-17T10:02:21Z</time>
      </trkpt>
      <trkpt lat="45.83147" lon="6.44393">
        <ele>2276</ele>
        <time>2018-10-17T10:02:22Z</time>
      </trkpt>
      <trkpt lat="45.83147" lon="6.44393">
        <ele>2276</ele>
        <time>2018-10-17T10:02:23Z</time>
      </trkpt>
      <trkpt lat="45.83147" lon="6.44393">
        <ele>2276</ele>
        <time>2018-10-17T10:02:24Z</time>
      </trkpt>
      <trkpt lat="45.83147" lon="6.44393">
        <ele>2276</ele>
        <time>2018-10-17T10:02:25Z</time>
      </trkpt>
      <trkpt lat="45.83147" lon="6.44393">
        <ele>2276</ele>
        <time>2018-10-17T10:02:26Z</time>
      </trkpt>
      <trkpt lat="45.83147" lon="6.44393">
        <ele>2276</ele>
        <time>2018-10-17T10:02:27Z</time>
      </trkpt>
      <trkpt lat="45.83147" lon="6.44393">
        <ele>2276</ele>
        <time>2018-10-17T10:02:28Z</time>
      </trkpt>
      <trkpt lat="45.83147" lon="6.44393">
        <ele>2276</ele>
        <time>2018-10-17T10:02:29Z</time>
      </trkpt>
      <trkpt lat="45.83147" lon="6.44393">
        <ele>2276</ele>
        <time>2018-10-17T10:02:30Z</time>
      </trkpt>
      <trkpt lat="45.83147" lon="6.44393">
        <ele>2276</ele>
        <time>2018-10-17T10:02:31Z</time>
      </trkpt>
      <trkpt lat="45.83147" lon="6.44393">
        <ele>2276</ele>
        <time>2018-10-17T10:02:32Z</time>
      </trkpt>
      <trkpt lat="45.83147" lon="6.44393">
        <ele>2275</ele>
        <time>2018-10-17T10:02:33Z</time>
      </trkpt>
      <trkpt lat="45.83147" lon="6.44393">
        <ele>2275</ele>
        <time>2018-10-17T10:02:34Z</time>
      </trkpt>
      <trkpt lat="45.83147" lon="6.44393">
        <ele>2275</ele>
        <time>2018-10-17T10:02:35Z</time>
      </trkpt>
      <trkpt lat="45.83147" lon="6.44393">
        <ele>2276</ele>
        <time>2018-10-17T10:02:36Z</time>
      </trkpt>
      <trkpt lat="45.83147" lon="6.44393">
        <ele>2276</ele>
        <time>2018-10-17T10:02:37Z</time>
      </trkpt>
      <trkpt lat="45.83147" lon="6.44393">
        <ele>2276</ele>
        <time>2018-10-17T10:02:38Z</time>
      </trkpt>
      <trkpt lat="45.83147" lon="6.44393">
        <ele>2276</ele>
        <time>2018-10-17T10:02:39Z</time>
      </trkpt>
      <trkpt lat="45.83147" lon="6.44393">
        <ele>2276</ele>
        <time>2018-10-17T10:02:40Z</time>
      </trkpt>
      <trkpt lat="45.83147" lon="6.44393">
        <ele>2276</ele>
        <time>2018-10-17T10:02:41Z</time>
      </trkpt>
      <trkpt lat="45.83147" lon="6.44393">
        <ele>2276</ele>
        <time>2018-10-17T10:02:42Z</time>
      </trkpt>
      <trkpt lat="45.83147" lon="6.44393">
        <ele>2276</ele>
        <time>2018-10-17T10:02:43Z</time>
      </trkpt>
      <trkpt lat="45.83147" lon="6.44393">
        <ele>2275</ele>
        <time>2018-10-17T10:02:44Z</time>
      </trkpt>
      <trkpt lat="45.83147" lon="6.44393">
        <ele>2275</ele>
        <time>2018-10-17T10:02:45Z</time>
      </trkpt>
      <trkpt lat="45.83147" lon="6.44393">
        <ele>2275</ele>
        <time>2018-10-17T10:02:46Z</time>
      </trkpt>
      <trkpt lat="45.83147" lon="6.44393">
        <ele>2275</ele>
        <time>2018-10-17T10:02:47Z</time>
      </trkpt>
      <trkpt lat="45.83147" lon="6.44393">
        <ele>2275</ele>
        <time>2018-10-17T10:02:48Z</time>
      </trkpt>
      <trkpt lat="45.83147" lon="6.44393">
        <ele>2275</ele>
        <time>2018-10-17T10:02:49Z</time>
      </trkpt>
      <trkpt lat="45.83147" lon="6.44393">
        <ele>2275</ele>
        <time>2018-10-17T10:02:50Z</time>
      </trkpt>
      <trkpt lat="45.83147" lon="6.44393">
        <ele>2275</ele>
        <time>2018-10-17T10:02:51Z</time>
      </trkpt>
      <trkpt lat="45.83147" lon="6.44393">
        <ele>2275</ele>
        <time>2018-10-17T10:02:52Z</time>
      </trkpt>
      <trkpt lat="45.83147" lon="6.44393">
        <ele>2275</ele>
        <time>2018-10-17T10:02:53Z</time>
      </trkpt>
      <trkpt lat="45.83147" lon="6.44393">
        <ele>2275</ele>
        <time>2018-10-17T10:02:54Z</time>
      </trkpt>
      <trkpt lat="45.83147" lon="6.44393">
        <ele>2275</ele>
        <time>2018-10-17T10:02:55Z</time>
      </trkpt>
      <trkpt lat="45.83147" lon="6.44393">
        <ele>2275</ele>
        <time>2018-10-17T10:02:56Z</time>
      </trkpt>
      <trkpt lat="45.83147" lon="6.44393">
        <ele>2275</ele>
        <time>2018-10-17T10:02:57Z</time>
      </trkpt>
      <trkpt lat="45.83147" lon="6.44393">
        <ele>2275</ele>
        <time>2018-10-17T10:02:58Z</time>
      </trkpt>
      <trkpt lat="45.83147" lon="6.44393">
        <ele>2275</ele>
        <time>2018-10-17T10:02:59Z</time>
      </trkpt>
      <trkpt lat="45.83147" lon="6.44393">
        <ele>2275</ele>
        <time>2018-10-17T10:03:00Z</time>
      </trkpt>
      <trkpt lat="45.83147" lon="6.44393">
        <ele>2275</ele>
        <time>2018-10-17T10:03:01Z</time>
      </trkpt>
      <trkpt lat="45.83147" lon="6.44393">
        <ele>2275</ele>
        <time>2018-10-17T10:03:02Z</time>
      </trkpt>
      <trkpt lat="45.83147" lon="6.44393">
        <ele>2275</ele>
        <time>2018-10-17T10:03:03Z</time>
      </trkpt>
      <trkpt lat="45.83147" lon="6.44393">
        <ele>2275</ele>
        <time>2018-10-17T10:03:04Z</time>
      </trkpt>
      <trkpt lat="45.83147" lon="6.44393">
        <ele>2275</ele>
        <time>2018-10-17T10:03:05Z</time>
      </trkpt>
      <trkpt lat="45.83147" lon="6.44393">
        <ele>2275</ele>
        <time>2018-10-17T10:03:06Z</time>
      </trkpt>
      <trkpt lat="45.83147" lon="6.44393">
        <ele>2275</ele>
        <time>2018-10-17T10:03:07Z</time>
      </trkpt>
      <trkpt lat="45.83147" lon="6.44393">
        <ele>2275</ele>
        <time>2018-10-17T10:03:08Z</time>
      </trkpt>
      <trkpt lat="45.83147" lon="6.44393">
        <ele>2275</ele>
        <time>2018-10-17T10:03:09Z</time>
      </trkpt>
      <trkpt lat="45.83147" lon="6.44393">
        <ele>2275</ele>
        <time>2018-10-17T10:03:10Z</time>
      </trkpt>
      <trkpt lat="45.83147" lon="6.44393">
        <ele>2275</ele>
        <time>2018-10-17T10:03:11Z</time>
      </trkpt>
      <trkpt lat="45.83147" lon="6.44393">
        <ele>2275</ele>
        <time>2018-10-17T10:03:12Z</time>
      </trkpt>
      <trkpt lat="45.83147" lon="6.44393">
        <ele>2275</ele>
        <time>2018-10-17T10:03:13Z</time>
      </trkpt>
      <trkpt lat="45.83147" lon="6.44393">
        <ele>2275</ele>
        <time>2018-10-17T10:03:14Z</time>
      </trkpt>
      <trkpt lat="45.83147" lon="6.44393">
        <ele>2275</ele>
        <time>2018-10-17T10:03:15Z</time>
      </trkpt>
      <trkpt lat="45.83147" lon="6.44393">
        <ele>2275</ele>
        <time>2018-10-17T10:03:16Z</time>
      </trkpt>
      <trkpt lat="45.83147" lon="6.44393">
        <ele>2274</ele>
        <time>2018-10-17T10:03:17Z</time>
      </trkpt>
      <trkpt lat="45.83147" lon="6.44393">
        <ele>2274</ele>
        <time>2018-10-17T10:03:18Z</time>
      </trkpt>
      <trkpt lat="45.83147" lon="6.44393">
        <ele>2274</ele>
        <time>2018-10-17T10:03:19Z</time>
      </trkpt>
      <trkpt lat="45.83147" lon="6.44393">
        <ele>2274</ele>
        <time>2018-10-17T10:03:20Z</time>
      </trkpt>
      <trkpt lat="45.83147" lon="6.44393">
        <ele>2274</ele>
        <time>2018-10-17T10:03:21Z</time>
      </trkpt>
      <trkpt lat="45.83147" lon="6.44393">
        <ele>2274</ele>
        <time>2018-10-17T10:03:22Z</time>
      </trkpt>
      <trkpt lat="45.83147" lon="6.44393">
        <ele>2274</ele>
        <time>2018-10-17T10:03:23Z</time>
      </trkpt>
      <trkpt lat="45.83147" lon="6.44393">
        <ele>2274</ele>
        <time>2018-10-17T10:03:24Z</time>
      </trkpt>
      <trkpt lat="45.83147" lon="6.44393">
        <ele>2274</ele>
        <time>2018-10-17T10:03:25Z</time>
      </trkpt>
      <trkpt lat="45.83147" lon="6.44393">
        <ele>2274</ele>
        <time>2018-10-17T10:03:26Z</time>
      </trkpt>
      <trkpt lat="45.83147" lon="6.44393">
        <ele>2274</ele>
        <time>2018-10-17T10:03:27Z</time>
      </trkpt>
      <trkpt lat="45.83147" lon="6.44393">
        <ele>2274</ele>
        <time>2018-10-17T10:03:28Z</time>
      </trkpt>
      <trkpt lat="45.83147" lon="6.44393">
        <ele>2274</ele>
        <time>2018-10-17T10:03:29Z</time>
      </trkpt>
      <trkpt lat="45.83147" lon="6.44393">
        <ele>2274</ele>
        <time>2018-10-17T10:03:30Z</time>
      </trkpt>
      <trkpt lat="45.83147" lon="6.44393">
        <ele>2274</ele>
        <time>2018-10-17T10:03:31Z</time>
      </trkpt>
      <trkpt lat="45.83147" lon="6.44393">
        <ele>2274</ele>
        <time>2018-10-17T10:03:32Z</time>
      </trkpt>
      <trkpt lat="45.83147" lon="6.44393">
        <ele>2274</ele>
        <time>2018-10-17T10:03:33Z</time>
      </trkpt>
      <trkpt lat="45.83147" lon="6.44393">
        <ele>2274</ele>
        <time>2018-10-17T10:03:34Z</time>
      </trkpt>
      <trkpt lat="45.83147" lon="6.44393">
        <ele>2274</ele>
        <time>2018-10-17T10:03:35Z</time>
      </trkpt>
      <trkpt lat="45.83147" lon="6.44393">
        <ele>2274</ele>
        <time>2018-10-17T10:03:36Z</time>
      </trkpt>
      <trkpt lat="45.83147" lon="6.4439">
        <ele>2274</ele>
        <time>2018-10-17T10:03:37Z</time>
      </trkpt>
      <trkpt lat="45.83147" lon="6.4439">
        <ele>2274</ele>
        <time>2018-10-17T10:03:38Z</time>
      </trkpt>
      <trkpt lat="45.83147" lon="6.4439">
        <ele>2273</ele>
        <time>2018-10-17T10:03:39Z</time>
      </trkpt>
      <trkpt lat="45.83147" lon="6.4439">
        <ele>2273</ele>
        <time>2018-10-17T10:03:40Z</time>
      </trkpt>
      <trkpt lat="45.83146" lon="6.44387">
        <ele>2273</ele>
        <time>2018-10-17T10:03:41Z</time>
      </trkpt>
      <trkpt lat="45.83146" lon="6.44387">
        <ele>2273</ele>
        <time>2018-10-17T10:03:42Z</time>
      </trkpt>
      <trkpt lat="45.83146" lon="6.44387">
        <ele>2273</ele>
        <time>2018-10-17T10:03:43Z</time>
      </trkpt>
      <trkpt lat="45.83146" lon="6.44387">
        <ele>2273</ele>
        <time>2018-10-17T10:03:44Z</time>
      </trkpt>
      <trkpt lat="45.83145" lon="6.44385">
        <ele>2273</ele>
        <time>2018-10-17T10:03:45Z</time>
      </trkpt>
      <trkpt lat="45.83145" lon="6.44385">
        <ele>2273</ele>
        <time>2018-10-17T10:03:46Z</time>
      </trkpt>
      <trkpt lat="45.83145" lon="6.44385">
        <ele>2272</ele>
        <time>2018-10-17T10:03:47Z</time>
      </trkpt>
      <trkpt lat="45.83144" lon="6.44382">
        <ele>2272</ele>
        <time>2018-10-17T10:03:48Z</time>
      </trkpt>
      <trkpt lat="45.83144" lon="6.44382">
        <ele>2272</ele>
        <time>2018-10-17T10:03:49Z</time>
      </trkpt>
      <trkpt lat="45.83144" lon="6.44382">
        <ele>2272</ele>
        <time>2018-10-17T10:03:50Z</time>
      </trkpt>
      <trkpt lat="45.83144" lon="6.44382">
        <ele>2271</ele>
        <time>2018-10-17T10:03:51Z</time>
      </trkpt>
      <trkpt lat="45.83142" lon="6.4438">
        <ele>2271</ele>
        <time>2018-10-17T10:03:52Z</time>
      </trkpt>
      <trkpt lat="45.83142" lon="6.4438">
        <ele>2271</ele>
        <time>2018-10-17T10:03:53Z</time>
      </trkpt>
      <trkpt lat="45.83141" lon="6.44378">
        <ele>2271</ele>
        <time>2018-10-17T10:03:54Z</time>
      </trkpt>
      <trkpt lat="45.83141" lon="6.44378">
        <ele>2270</ele>
        <time>2018-10-17T10:03:55Z</time>
      </trkpt>
      <trkpt lat="45.83141" lon="6.44378">
        <ele>2270</ele>
        <time>2018-10-17T10:03:56Z</time>
      </trkpt>
      <trkpt lat="45.83139" lon="6.44376">
        <ele>2270</ele>
        <time>2018-10-17T10:03:57Z</time>
      </trkpt>
      <trkpt lat="45.83139" lon="6.44376">
        <ele>2270</ele>
        <time>2018-10-17T10:03:58Z</time>
      </trkpt>
      <trkpt lat="45.83139" lon="6.44376">
        <ele>2270</ele>
        <time>2018-10-17T10:03:59Z</time>
      </trkpt>
      <trkpt lat="45.83137" lon="6.44374">
        <ele>2270</ele>
        <time>2018-10-17T10:04:00Z</time>
      </trkpt>
      <trkpt lat="45.83137" lon="6.44374">
        <ele>2269</ele>
        <time>2018-10-17T10:04:01Z</time>
      </trkpt>
      <trkpt lat="45.83137" lon="6.44374">
        <ele>2269</ele>
        <time>2018-10-17T10:04:02Z</time>
      </trkpt>
      <trkpt lat="45.83137" lon="6.44374">
        <ele>2269</ele>
        <time>2018-10-17T10:04:03Z</time>
      </trkpt>
      <trkpt lat="45.83135" lon="6.44374">
        <ele>2269</ele>
        <time>2018-10-17T10:04:04Z</time>
      </trkpt>
      <trkpt lat="45.83135" lon="6.44374">
        <ele>2269</ele>
        <time>2018-10-17T10:04:05Z</time>
      </trkpt>
      <trkpt lat="45.83135" lon="6.44374">
        <ele>2268</ele>
        <time>2018-10-17T10:04:06Z</time>
      </trkpt>
      <trkpt lat="45.83133" lon="6.44373">
        <ele>2268</ele>
        <time>2018-10-17T10:04:07Z</time>
      </trkpt>
      <trkpt lat="45.83133" lon="6.44373">
        <ele>2268</ele>
        <time>2018-10-17T10:04:08Z</time>
      </trkpt>
      <trkpt lat="45.83133" lon="6.44373">
        <ele>2268</ele>
        <time>2018-10-17T10:04:09Z</time>
      </trkpt>
      <trkpt lat="45.83133" lon="6.44373">
        <ele>2268</ele>
        <time>2018-10-17T10:04:10Z</time>
      </trkpt>
      <trkpt lat="45.83131" lon="6.44371">
        <ele>2267</ele>
        <time>2018-10-17T10:04:11Z</time>
      </trkpt>
      <trkpt lat="45.83131" lon="6.44371">
        <ele>2267</ele>
        <time>2018-10-17T10:04:12Z</time>
      </trkpt>
      <trkpt lat="45.8313" lon="6.44368">
        <ele>2267</ele>
        <time>2018-10-17T10:04:13Z</time>
      </trkpt>
      <trkpt lat="45.8313" lon="6.44368">
        <ele>2267</ele>
        <time>2018-10-17T10:04:14Z</time>
      </trkpt>
      <trkpt lat="45.83129" lon="6.44364">
        <ele>2266</ele>
        <time>2018-10-17T10:04:15Z</time>
      </trkpt>
      <trkpt lat="45.83129" lon="6.44364">
        <ele>2265</ele>
        <time>2018-10-17T10:04:16Z</time>
      </trkpt>
      <trkpt lat="45.83127" lon="6.44361">
        <ele>2265</ele>
        <time>2018-10-17T10:04:17Z</time>
      </trkpt>
      <trkpt lat="45.83127" lon="6.44361">
        <ele>2265</ele>
        <time>2018-10-17T10:04:18Z</time>
      </trkpt>
      <trkpt lat="45.83125" lon="6.44358">
        <ele>2265</ele>
        <time>2018-10-17T10:04:19Z</time>
      </trkpt>
      <trkpt lat="45.83125" lon="6.44358">
        <ele>2265</ele>
        <time>2018-10-17T10:04:20Z</time>
      </trkpt>
      <trkpt lat="45.83124" lon="6.44356">
        <ele>2265</ele>
        <time>2018-10-17T10:04:21Z</time>
      </trkpt>
      <trkpt lat="45.83124" lon="6.44356">
        <ele>2264</ele>
        <time>2018-10-17T10:04:22Z</time>
      </trkpt>
      <trkpt lat="45.83124" lon="6.44356">
        <ele>2264</ele>
        <time>2018-10-17T10:04:23Z</time>
      </trkpt>
      <trkpt lat="45.83123" lon="6.44352">
        <ele>2263</ele>
        <time>2018-10-17T10:04:24Z</time>
      </trkpt>
      <trkpt lat="45.83123" lon="6.44352">
        <ele>2263</ele>
        <time>2018-10-17T10:04:25Z</time>
      </trkpt>
      <trkpt lat="45.83122" lon="6.44349">
        <ele>2263</ele>
        <time>2018-10-17T10:04:26Z</time>
      </trkpt>
      <trkpt lat="45.83122" lon="6.44349">
        <ele>2263</ele>
        <time>2018-10-17T10:04:27Z</time>
      </trkpt>
      <trkpt lat="45.8312" lon="6.44348">
        <ele>2263</ele>
        <time>2018-10-17T10:04:28Z</time>
      </trkpt>
      <trkpt lat="45.8312" lon="6.44348">
        <ele>2263</ele>
        <time>2018-10-17T10:04:29Z</time>
      </trkpt>
      <trkpt lat="45.83119" lon="6.44346">
        <ele>2263</ele>
        <time>2018-10-17T10:04:30Z</time>
      </trkpt>
      <trkpt lat="45.83119" lon="6.44346">
        <ele>2262</ele>
        <time>2018-10-17T10:04:31Z</time>
      </trkpt>
      <trkpt lat="45.83118" lon="6.44343">
        <ele>2262</ele>
        <time>2018-10-17T10:04:32Z</time>
      </trkpt>
      <trkpt lat="45.83118" lon="6.44343">
        <ele>2262</ele>
        <time>2018-10-17T10:04:33Z</time>
      </trkpt>
      <trkpt lat="45.83116" lon="6.44341">
        <ele>2262</ele>
        <time>2018-10-17T10:04:34Z</time>
      </trkpt>
      <trkpt lat="45.83116" lon="6.44341">
        <ele>2262</ele>
        <time>2018-10-17T10:04:35Z</time>
      </trkpt>
      <trkpt lat="45.83115" lon="6.44339">
        <ele>2262</ele>
        <time>2018-10-17T10:04:36Z</time>
      </trkpt>
      <trkpt lat="45.83115" lon="6.44339">
        <ele>2262</ele>
        <time>2018-10-17T10:04:37Z</time>
      </trkpt>
      <trkpt lat="45.83113" lon="6.44336">
        <ele>2262</ele>
        <time>2018-10-17T10:04:38Z</time>
      </trkpt>
      <trkpt lat="45.83113" lon="6.44336">
        <ele>2263</ele>
        <time>2018-10-17T10:04:39Z</time>
      </trkpt>
      <trkpt lat="45.83113" lon="6.44336">
        <ele>2264</ele>
        <time>2018-10-17T10:04:40Z</time>
      </trkpt>
      <trkpt lat="45.83111" lon="6.44335">
        <ele>2264</ele>
        <time>2018-10-17T10:04:41Z</time>
      </trkpt>
      <trkpt lat="45.83111" lon="6.44335">
        <ele>2263</ele>
        <time>2018-10-17T10:04:42Z</time>
      </trkpt>
      <trkpt lat="45.83111" lon="6.44335">
        <ele>2263</ele>
        <time>2018-10-17T10:04:43Z</time>
      </trkpt>
      <trkpt lat="45.8311" lon="6.44332">
        <ele>2263</ele>
        <time>2018-10-17T10:04:44Z</time>
      </trkpt>
      <trkpt lat="45.8311" lon="6.44332">
        <ele>2264</ele>
        <time>2018-10-17T10:04:45Z</time>
      </trkpt>
      <trkpt lat="45.8311" lon="6.44332">
        <ele>2264</ele>
        <time>2018-10-17T10:04:46Z</time>
      </trkpt>
      <trkpt lat="45.8311" lon="6.44332">
        <ele>2264</ele>
        <time>2018-10-17T10:04:47Z</time>
      </trkpt>
      <trkpt lat="45.83112" lon="6.4433">
        <ele>2264</ele>
        <time>2018-10-17T10:04:48Z</time>
      </trkpt>
      <trkpt lat="45.83112" lon="6.4433">
        <ele>2264</ele>
        <time>2018-10-17T10:04:49Z</time>
      </trkpt>
      <trkpt lat="45.83114" lon="6.44328">
        <ele>2264</ele>
        <time>2018-10-17T10:04:50Z</time>
      </trkpt>
      <trkpt lat="45.83114" lon="6.44328">
        <ele>2265</ele>
        <time>2018-10-17T10:04:51Z</time>
      </trkpt>
      <trkpt lat="45.83115" lon="6.44326">
        <ele>2265</ele>
        <time>2018-10-17T10:04:52Z</time>
      </trkpt>
      <trkpt lat="45.83115" lon="6.44326">
        <ele>2265</ele>
        <time>2018-10-17T10:04:53Z</time>
      </trkpt>
      <trkpt lat="45.83117" lon="6.44323">
        <ele>2265</ele>
        <time>2018-10-17T10:04:54Z</time>
      </trkpt>
      <trkpt lat="45.83117" lon="6.44323">
        <ele>2265</ele>
        <time>2018-10-17T10:04:55Z</time>
      </trkpt>
      <trkpt lat="45.83118" lon="6.44321">
        <ele>2265</ele>
        <time>2018-10-17T10:04:56Z</time>
      </trkpt>
      <trkpt lat="45.83118" lon="6.44321">
        <ele>2265</ele>
        <time>2018-10-17T10:04:57Z</time>
      </trkpt>
      <trkpt lat="45.83118" lon="6.44318">
        <ele>2265</ele>
        <time>2018-10-17T10:04:58Z</time>
      </trkpt>
      <trkpt lat="45.83118" lon="6.44318">
        <ele>2266</ele>
        <time>2018-10-17T10:04:59Z</time>
      </trkpt>
      <trkpt lat="45.83119" lon="6.44315">
        <ele>2266</ele>
        <time>2018-10-17T10:05:00Z</time>
      </trkpt>
      <trkpt lat="45.83119" lon="6.44315">
        <ele>2266</ele>
        <time>2018-10-17T10:05:01Z</time>
      </trkpt>
      <trkpt lat="45.8312" lon="6.44312">
        <ele>2266</ele>
        <time>2018-10-17T10:05:02Z</time>
      </trkpt>
      <trkpt lat="45.8312" lon="6.44312">
        <ele>2266</ele>
        <time>2018-10-17T10:05:03Z</time>
      </trkpt>
      <trkpt lat="45.83121" lon="6.44309">
        <ele>2266</ele>
        <time>2018-10-17T10:05:04Z</time>
      </trkpt>
      <trkpt lat="45.83121" lon="6.44309">
        <ele>2266</ele>
        <time>2018-10-17T10:05:05Z</time>
      </trkpt>
      <trkpt lat="45.83121" lon="6.44309">
        <ele>2266</ele>
        <time>2018-10-17T10:05:06Z</time>
      </trkpt>
      <trkpt lat="45.8312" lon="6.44305">
        <ele>2266</ele>
        <time>2018-10-17T10:05:07Z</time>
      </trkpt>
      <trkpt lat="45.8312" lon="6.44305">
        <ele>2266</ele>
        <time>2018-10-17T10:05:08Z</time>
      </trkpt>
      <trkpt lat="45.83119" lon="6.44303">
        <ele>2266</ele>
        <time>2018-10-17T10:05:09Z</time>
      </trkpt>
      <trkpt lat="45.83119" lon="6.44303">
        <ele>2266</ele>
        <time>2018-10-17T10:05:10Z</time>
      </trkpt>
      <trkpt lat="45.83118" lon="6.443">
        <ele>2266</ele>
        <time>2018-10-17T10:05:11Z</time>
      </trkpt>
      <trkpt lat="45.83118" lon="6.443">
        <ele>2265</ele>
        <time>2018-10-17T10:05:12Z</time>
      </trkpt>
      <trkpt lat="45.83118" lon="6.443">
        <ele>2265</ele>
        <time>2018-10-17T10:05:13Z</time>
      </trkpt>
      <trkpt lat="45.83117" lon="6.44297">
        <ele>2265</ele>
        <time>2018-10-17T10:05:14Z</time>
      </trkpt>
      <trkpt lat="45.83117" lon="6.44297">
        <ele>2265</ele>
        <time>2018-10-17T10:05:15Z</time>
      </trkpt>
      <trkpt lat="45.83116" lon="6.44295">
        <ele>2264</ele>
        <time>2018-10-17T10:05:16Z</time>
      </trkpt>
      <trkpt lat="45.83116" lon="6.44295">
        <ele>2264</ele>
        <time>2018-10-17T10:05:17Z</time>
      </trkpt>
      <trkpt lat="45.83116" lon="6.44295">
        <ele>2264</ele>
        <time>2018-10-17T10:05:18Z</time>
      </trkpt>
      <trkpt lat="45.83114" lon="6.44292">
        <ele>2264</ele>
        <time>2018-10-17T10:05:19Z</time>
      </trkpt>
      <trkpt lat="45.83114" lon="6.44292">
        <ele>2263</ele>
        <time>2018-10-17T10:05:20Z</time>
      </trkpt>
      <trkpt lat="45.83113" lon="6.4429">
        <ele>2262</ele>
        <time>2018-10-17T10:05:21Z</time>
      </trkpt>
      <trkpt lat="45.83113" lon="6.4429">
        <ele>2262</ele>
        <time>2018-10-17T10:05:22Z</time>
      </trkpt>
      <trkpt lat="45.83113" lon="6.4429">
        <ele>2262</ele>
        <time>2018-10-17T10:05:23Z</time>
      </trkpt>
      <trkpt lat="45.83111" lon="6.44287">
        <ele>2262</ele>
        <time>2018-10-17T10:05:24Z</time>
      </trkpt>
      <trkpt lat="45.83111" lon="6.44287">
        <ele>2262</ele>
        <time>2018-10-17T10:05:25Z</time>
      </trkpt>
      <trkpt lat="45.8311" lon="6.44284">
        <ele>2261</ele>
        <time>2018-10-17T10:05:26Z</time>
      </trkpt>
      <trkpt lat="45.8311" lon="6.44284">
        <ele>2262</ele>
        <time>2018-10-17T10:05:27Z</time>
      </trkpt>
      <trkpt lat="45.8311" lon="6.44282">
        <ele>2262</ele>
        <time>2018-10-17T10:05:28Z</time>
      </trkpt>
      <trkpt lat="45.8311" lon="6.44282">
        <ele>2262</ele>
        <time>2018-10-17T10:05:29Z</time>
      </trkpt>
      <trkpt lat="45.8311" lon="6.44282">
        <ele>2263</ele>
        <time>2018-10-17T10:05:30Z</time>
      </trkpt>
      <trkpt lat="45.83109" lon="6.44279">
        <ele>2263</ele>
        <time>2018-10-17T10:05:31Z</time>
      </trkpt>
      <trkpt lat="45.83109" lon="6.44279">
        <ele>2263</ele>
        <time>2018-10-17T10:05:32Z</time>
      </trkpt>
      <trkpt lat="45.83109" lon="6.44276">
        <ele>2263</ele>
        <time>2018-10-17T10:05:33Z</time>
      </trkpt>
      <trkpt lat="45.83109" lon="6.44276">
        <ele>2263</ele>
        <time>2018-10-17T10:05:34Z</time>
      </trkpt>
      <trkpt lat="45.83108" lon="6.44273">
        <ele>2263</ele>
        <time>2018-10-17T10:05:35Z</time>
      </trkpt>
      <trkpt lat="45.83108" lon="6.44273">
        <ele>2263</ele>
        <time>2018-10-17T10:05:36Z</time>
      </trkpt>
      <trkpt lat="45.83109" lon="6.4427">
        <ele>2263</ele>
        <time>2018-10-17T10:05:37Z</time>
      </trkpt>
      <trkpt lat="45.83109" lon="6.4427">
        <ele>2263</ele>
        <time>2018-10-17T10:05:38Z</time>
      </trkpt>
      <trkpt lat="45.83109" lon="6.4427">
        <ele>2263</ele>
        <time>2018-10-17T10:05:39Z</time>
      </trkpt>
      <trkpt lat="45.83109" lon="6.4427">
        <ele>2264</ele>
        <time>2018-10-17T10:05:40Z</time>
      </trkpt>
      <trkpt lat="45.83109" lon="6.4427">
        <ele>2265</ele>
        <time>2018-10-17T10:05:41Z</time>
      </trkpt>
      <trkpt lat="45.8311" lon="6.44268">
        <ele>2265</ele>
        <time>2018-10-17T10:05:42Z</time>
      </trkpt>
      <trkpt lat="45.8311" lon="6.44268">
        <ele>2265</ele>
        <time>2018-10-17T10:05:43Z</time>
      </trkpt>
      <trkpt lat="45.8311" lon="6.44268">
        <ele>2265</ele>
        <time>2018-10-17T10:05:44Z</time>
      </trkpt>
      <trkpt lat="45.8311" lon="6.44268">
        <ele>2264</ele>
        <time>2018-10-17T10:05:45Z</time>
      </trkpt>
      <trkpt lat="45.8311" lon="6.44268">
        <ele>2264</ele>
        <time>2018-10-17T10:05:46Z</time>
      </trkpt>
      <trkpt lat="45.8311" lon="6.44268">
        <ele>2264</ele>
        <time>2018-10-17T10:05:47Z</time>
      </trkpt>
      <trkpt lat="45.8311" lon="6.44268">
        <ele>2264</ele>
        <time>2018-10-17T10:05:48Z</time>
      </trkpt>
      <trkpt lat="45.8311" lon="6.44268">
        <ele>2264</ele>
        <time>2018-10-17T10:05:49Z</time>
      </trkpt>
      <trkpt lat="45.8311" lon="6.44268">
        <ele>2264</ele>
        <time>2018-10-17T10:05:50Z</time>
      </trkpt>
      <trkpt lat="45.83108" lon="6.44267">
        <ele>2263</ele>
        <time>2018-10-17T10:05:51Z</time>
      </trkpt>
      <trkpt lat="45.83108" lon="6.44267">
        <ele>2263</ele>
        <time>2018-10-17T10:05:52Z</time>
      </trkpt>
      <trkpt lat="45.83108" lon="6.44267">
        <ele>2263</ele>
        <time>2018-10-17T10:05:53Z</time>
      </trkpt>
      <trkpt lat="45.83108" lon="6.44267">
        <ele>2263</ele>
        <time>2018-10-17T10:05:54Z</time>
      </trkpt>
      <trkpt lat="45.83108" lon="6.44267">
        <ele>2263</ele>
        <time>2018-10-17T10:05:55Z</time>
      </trkpt>
      <trkpt lat="45.83108" lon="6.44267">
        <ele>2263</ele>
        <time>2018-10-17T10:05:56Z</time>
      </trkpt>
      <trkpt lat="45.83108" lon="6.44267">
        <ele>2263</ele>
        <time>2018-10-17T10:05:57Z</time>
      </trkpt>
      <trkpt lat="45.83108" lon="6.44267">
        <ele>2263</ele>
        <time>2018-10-17T10:05:58Z</time>
      </trkpt>
      <trkpt lat="45.83108" lon="6.44267">
        <ele>2263</ele>
        <time>2018-10-17T10:05:59Z</time>
      </trkpt>
      <trkpt lat="45.83108" lon="6.44267">
        <ele>2263</ele>
        <time>2018-10-17T10:06:00Z</time>
      </trkpt>
      <trkpt lat="45.83108" lon="6.44267">
        <ele>2264</ele>
        <time>2018-10-17T10:06:01Z</time>
      </trkpt>
      <trkpt lat="45.83108" lon="6.44267">
        <ele>2264</ele>
        <time>2018-10-17T10:06:02Z</time>
      </trkpt>
      <trkpt lat="45.83108" lon="6.44267">
        <ele>2264</ele>
        <time>2018-10-17T10:06:03Z</time>
      </trkpt>
      <trkpt lat="45.83108" lon="6.44267">
        <ele>2264</ele>
        <time>2018-10-17T10:06:04Z</time>
      </trkpt>
      <trkpt lat="45.83108" lon="6.44267">
        <ele>2264</ele>
        <time>2018-10-17T10:06:05Z</time>
      </trkpt>
      <trkpt lat="45.83108" lon="6.44267">
        <ele>2264</ele>
        <time>2018-10-17T10:06:06Z</time>
      </trkpt>
      <trkpt lat="45.83108" lon="6.44267">
        <ele>2264</ele>
        <time>2018-10-17T10:06:07Z</time>
      </trkpt>
      <trkpt lat="45.83108" lon="6.44267">
        <ele>2264</ele>
        <time>2018-10-17T10:06:08Z</time>
      </trkpt>
      <trkpt lat="45.83108" lon="6.44267">
        <ele>2265</ele>
        <time>2018-10-17T10:06:09Z</time>
      </trkpt>
      <trkpt lat="45.83108" lon="6.44267">
        <ele>2265</ele>
        <time>2018-10-17T10:06:10Z</time>
      </trkpt>
      <trkpt lat="45.83108" lon="6.44267">
        <ele>2265</ele>
        <time>2018-10-17T10:06:11Z</time>
      </trkpt>
      <trkpt lat="45.83108" lon="6.44267">
        <ele>2265</ele>
        <time>2018-10-17T10:06:12Z</time>
      </trkpt>
      <trkpt lat="45.83108" lon="6.44267">
        <ele>2265</ele>
        <time>2018-10-17T10:06:13Z</time>
      </trkpt>
      <trkpt lat="45.83108" lon="6.44267">
        <ele>2265</ele>
        <time>2018-10-17T10:06:14Z</time>
      </trkpt>
      <trkpt lat="45.83108" lon="6.44267">
        <ele>2265</ele>
        <time>2018-10-17T10:06:15Z</time>
      </trkpt>
      <trkpt lat="45.83108" lon="6.44267">
        <ele>2265</ele>
        <time>2018-10-17T10:06:16Z</time>
      </trkpt>
      <trkpt lat="45.83108" lon="6.44267">
        <ele>2265</ele>
        <time>2018-10-17T10:06:17Z</time>
      </trkpt>
      <trkpt lat="45.83108" lon="6.44267">
        <ele>2265</ele>
        <time>2018-10-17T10:06:18Z</time>
      </trkpt>
      <trkpt lat="45.83108" lon="6.44267">
        <ele>2265</ele>
        <time>2018-10-17T10:06:19Z</time>
      </trkpt>
      <trkpt lat="45.83108" lon="6.44267">
        <ele>2265</ele>
        <time>2018-10-17T10:06:20Z</time>
      </trkpt>
      <trkpt lat="45.83108" lon="6.44267">
        <ele>2265</ele>
        <time>2018-10-17T10:06:21Z</time>
      </trkpt>
      <trkpt lat="45.83108" lon="6.44267">
        <ele>2264</ele>
        <time>2018-10-17T10:06:22Z</time>
      </trkpt>
      <trkpt lat="45.83108" lon="6.44267">
        <ele>2264</ele>
        <time>2018-10-17T10:06:23Z</time>
      </trkpt>
      <trkpt lat="45.83108" lon="6.44267">
        <ele>2264</ele>
        <time>2018-10-17T10:06:24Z</time>
      </trkpt>
      <trkpt lat="45.83108" lon="6.44267">
        <ele>2264</ele>
        <time>2018-10-17T10:06:25Z</time>
      </trkpt>
      <trkpt lat="45.83108" lon="6.44267">
        <ele>2264</ele>
        <time>2018-10-17T10:06:26Z</time>
      </trkpt>
      <trkpt lat="45.83108" lon="6.44267">
        <ele>2264</ele>
        <time>2018-10-17T10:06:27Z</time>
      </trkpt>
      <trkpt lat="45.83108" lon="6.44267">
        <ele>2264</ele>
        <time>2018-10-17T10:06:28Z</time>
      </trkpt>
      <trkpt lat="45.83108" lon="6.44267">
        <ele>2264</ele>
        <time>2018-10-17T10:06:29Z</time>
      </trkpt>
      <trkpt lat="45.83108" lon="6.44267">
        <ele>2264</ele>
        <time>2018-10-17T10:06:30Z</time>
      </trkpt>
      <trkpt lat="45.83108" lon="6.44267">
        <ele>2264</ele>
        <time>2018-10-17T10:06:31Z</time>
      </trkpt>
      <trkpt lat="45.83108" lon="6.44267">
        <ele>2264</ele>
        <time>2018-10-17T10:06:32Z</time>
      </trkpt>
      <trkpt lat="45.83108" lon="6.44267">
        <ele>2264</ele>
        <time>2018-10-17T10:06:33Z</time>
      </trkpt>
      <trkpt lat="45.83108" lon="6.44267">
        <ele>2264</ele>
        <time>2018-10-17T10:06:34Z</time>
      </trkpt>
      <trkpt lat="45.83108" lon="6.44267">
        <ele>2263</ele>
        <time>2018-10-17T10:06:35Z</time>
      </trkpt>
      <trkpt lat="45.83108" lon="6.44267">
        <ele>2263</ele>
        <time>2018-10-17T10:06:36Z</time>
      </trkpt>
      <trkpt lat="45.83108" lon="6.44267">
        <ele>2263</ele>
        <time>2018-10-17T10:06:37Z</time>
      </trkpt>
      <trkpt lat="45.83108" lon="6.44267">
        <ele>2263</ele>
        <time>2018-10-17T10:06:38Z</time>
      </trkpt>
      <trkpt lat="45.83108" lon="6.44267">
        <ele>2263</ele>
        <time>2018-10-17T10:06:39Z</time>
      </trkpt>
      <trkpt lat="45.83108" lon="6.44267">
        <ele>2263</ele>
        <time>2018-10-17T10:06:40Z</time>
      </trkpt>
      <trkpt lat="45.83108" lon="6.44267">
        <ele>2263</ele>
        <time>2018-10-17T10:06:41Z</time>
      </trkpt>
      <trkpt lat="45.83108" lon="6.44267">
        <ele>2263</ele>
        <time>2018-10-17T10:06:42Z</time>
      </trkpt>
      <trkpt lat="45.83108" lon="6.44267">
        <ele>2263</ele>
        <time>2018-10-17T10:06:43Z</time>
      </trkpt>
      <trkpt lat="45.83108" lon="6.44267">
        <ele>2263</ele>
        <time>2018-10-17T10:06:44Z</time>
      </trkpt>
      <trkpt lat="45.83108" lon="6.44267">
        <ele>2263</ele>
        <time>2018-10-17T10:06:45Z</time>
      </trkpt>
      <trkpt lat="45.83108" lon="6.44267">
        <ele>2263</ele>
        <time>2018-10-17T10:06:46Z</time>
      </trkpt>
      <trkpt lat="45.83108" lon="6.44267">
        <ele>2263</ele>
        <time>2018-10-17T10:06:47Z</time>
      </trkpt>
      <trkpt lat="45.83108" lon="6.44267">
        <ele>2263</ele>
        <time>2018-10-17T10:06:48Z</time>
      </trkpt>
      <trkpt lat="45.83108" lon="6.44267">
        <ele>2263</ele>
        <time>2018-10-17T10:06:49Z</time>
      </trkpt>
      <trkpt lat="45.83108" lon="6.44267">
        <ele>2263</ele>
        <time>2018-10-17T10:06:50Z</time>
      </trkpt>
      <trkpt lat="45.83108" lon="6.44267">
        <ele>2263</ele>
        <time>2018-10-17T10:06:51Z</time>
      </trkpt>
      <trkpt lat="45.83108" lon="6.44267">
        <ele>2263</ele>
        <time>2018-10-17T10:06:52Z</time>
      </trkpt>
      <trkpt lat="45.83108" lon="6.44267">
        <ele>2263</ele>
        <time>2018-10-17T10:06:53Z</time>
      </trkpt>
      <trkpt lat="45.83108" lon="6.44267">
        <ele>2263</ele>
        <time>2018-10-17T10:06:54Z</time>
      </trkpt>
      <trkpt lat="45.83108" lon="6.44267">
        <ele>2263</ele>
        <time>2018-10-17T10:06:55Z</time>
      </trkpt>
      <trkpt lat="45.83108" lon="6.44267">
        <ele>2263</ele>
        <time>2018-10-17T10:06:56Z</time>
      </trkpt>
      <trkpt lat="45.83108" lon="6.44267">
        <ele>2263</ele>
        <time>2018-10-17T10:06:57Z</time>
      </trkpt>
      <trkpt lat="45.83108" lon="6.44267">
        <ele>2263</ele>
        <time>2018-10-17T10:06:58Z</time>
      </trkpt>
      <trkpt lat="45.83108" lon="6.44267">
        <ele>2263</ele>
        <time>2018-10-17T10:06:59Z</time>
      </trkpt>
      <trkpt lat="45.83108" lon="6.44267">
        <ele>2263</ele>
        <time>2018-10-17T10:07:00Z</time>
      </trkpt>
      <trkpt lat="45.83108" lon="6.44267">
        <ele>2263</ele>
        <time>2018-10-17T10:07:01Z</time>
      </trkpt>
      <trkpt lat="45.83108" lon="6.44267">
        <ele>2263</ele>
        <time>2018-10-17T10:07:02Z</time>
      </trkpt>
      <trkpt lat="45.83108" lon="6.44267">
        <ele>2263</ele>
        <time>2018-10-17T10:07:03Z</time>
      </trkpt>
      <trkpt lat="45.83108" lon="6.44267">
        <ele>2263</ele>
        <time>2018-10-17T10:07:04Z</time>
      </trkpt>
      <trkpt lat="45.83108" lon="6.44267">
        <ele>2263</ele>
        <time>2018-10-17T10:07:05Z</time>
      </trkpt>
      <trkpt lat="45.83108" lon="6.44267">
        <ele>2263</ele>
        <time>2018-10-17T10:07:06Z</time>
      </trkpt>
      <trkpt lat="45.83108" lon="6.44267">
        <ele>2263</ele>
        <time>2018-10-17T10:07:07Z</time>
      </trkpt>
      <trkpt lat="45.83108" lon="6.44267">
        <ele>2263</ele>
        <time>2018-10-17T10:07:08Z</time>
      </trkpt>
      <trkpt lat="45.83108" lon="6.44267">
        <ele>2263</ele>
        <time>2018-10-17T10:07:09Z</time>
      </trkpt>
      <trkpt lat="45.83108" lon="6.44267">
        <ele>2263</ele>
        <time>2018-10-17T10:07:10Z</time>
      </trkpt>
      <trkpt lat="45.83108" lon="6.44267">
        <ele>2263</ele>
        <time>2018-10-17T10:07:11Z</time>
      </trkpt>
      <trkpt lat="45.83108" lon="6.44267">
        <ele>2263</ele>
        <time>2018-10-17T10:07:12Z</time>
      </trkpt>
      <trkpt lat="45.83108" lon="6.44267">
        <ele>2263</ele>
        <time>2018-10-17T10:07:13Z</time>
      </trkpt>
      <trkpt lat="45.83108" lon="6.44267">
        <ele>2263</ele>
        <time>2018-10-17T10:07:14Z</time>
      </trkpt>
      <trkpt lat="45.83108" lon="6.44267">
        <ele>2263</ele>
        <time>2018-10-17T10:07:15Z</time>
      </trkpt>
      <trkpt lat="45.83108" lon="6.44267">
        <ele>2263</ele>
        <time>2018-10-17T10:07:16Z</time>
      </trkpt>
      <trkpt lat="45.83108" lon="6.44267">
        <ele>2263</ele>
        <time>2018-10-17T10:07:17Z</time>
      </trkpt>
      <trkpt lat="45.83108" lon="6.44267">
        <ele>2263</ele>
        <time>2018-10-17T10:07:18Z</time>
      </trkpt>
      <trkpt lat="45.83108" lon="6.44267">
        <ele>2263</ele>
        <time>2018-10-17T10:07:19Z</time>
      </trkpt>
      <trkpt lat="45.83107" lon="6.44266">
        <ele>2263</ele>
        <time>2018-10-17T10:07:20Z</time>
      </trkpt>
      <trkpt lat="45.83107" lon="6.44266">
        <ele>2263</ele>
        <time>2018-10-17T10:07:21Z</time>
      </trkpt>
      <trkpt lat="45.83107" lon="6.44266">
        <ele>2263</ele>
        <time>2018-10-17T10:07:22Z</time>
      </trkpt>
      <trkpt lat="45.83107" lon="6.44266">
        <ele>2263</ele>
        <time>2018-10-17T10:07:23Z</time>
      </trkpt>
      <trkpt lat="45.83106" lon="6.44263">
        <ele>2263</ele>
        <time>2018-10-17T10:07:24Z</time>
      </trkpt>
      <trkpt lat="45.83106" lon="6.44263">
        <ele>2263</ele>
        <time>2018-10-17T10:07:25Z</time>
      </trkpt>
      <trkpt lat="45.83106" lon="6.44263">
        <ele>2264</ele>
        <time>2018-10-17T10:07:26Z</time>
      </trkpt>
      <trkpt lat="45.83104" lon="6.4426">
        <ele>2264</ele>
        <time>2018-10-17T10:07:27Z</time>
      </trkpt>
      <trkpt lat="45.83104" lon="6.4426">
        <ele>2264</ele>
        <time>2018-10-17T10:07:28Z</time>
      </trkpt>
      <trkpt lat="45.83103" lon="6.44258">
        <ele>2262</ele>
        <time>2018-10-17T10:07:29Z</time>
      </trkpt>
      <trkpt lat="45.83103" lon="6.44258">
        <ele>2263</ele>
        <time>2018-10-17T10:07:30Z</time>
      </trkpt>
      <trkpt lat="45.83103" lon="6.44258">
        <ele>2263</ele>
        <time>2018-10-17T10:07:31Z</time>
      </trkpt>
      <trkpt lat="45.83101" lon="6.44254">
        <ele>2263</ele>
        <time>2018-10-17T10:07:32Z</time>
      </trkpt>
      <trkpt lat="45.83101" lon="6.44254">
        <ele>2261</ele>
        <time>2018-10-17T10:07:33Z</time>
      </trkpt>
      <trkpt lat="45.831" lon="6.44252">
        <ele>2262</ele>
        <time>2018-10-17T10:07:34Z</time>
      </trkpt>
      <trkpt lat="45.831" lon="6.44252">
        <ele>2262</ele>
        <time>2018-10-17T10:07:35Z</time>
      </trkpt>
      <trkpt lat="45.83098" lon="6.44248">
        <ele>2262</ele>
        <time>2018-10-17T10:07:36Z</time>
      </trkpt>
      <trkpt lat="45.83097" lon="6.44246">
        <ele>2262</ele>
        <time>2018-10-17T10:07:37Z</time>
      </trkpt>
      <trkpt lat="45.83097" lon="6.44246">
        <ele>2261</ele>
        <time>2018-10-17T10:07:38Z</time>
      </trkpt>
      <trkpt lat="45.83096" lon="6.44242">
        <ele>2259</ele>
        <time>2018-10-17T10:07:39Z</time>
      </trkpt>
      <trkpt lat="45.83096" lon="6.44239">
        <ele>2258</ele>
        <time>2018-10-17T10:07:40Z</time>
      </trkpt>
      <trkpt lat="45.83095" lon="6.44236">
        <ele>2257</ele>
        <time>2018-10-17T10:07:41Z</time>
      </trkpt>
      <trkpt lat="45.83094" lon="6.44233">
        <ele>2256</ele>
        <time>2018-10-17T10:07:42Z</time>
      </trkpt>
      <trkpt lat="45.83093" lon="6.4423">
        <ele>2256</ele>
        <time>2018-10-17T10:07:43Z</time>
      </trkpt>
      <trkpt lat="45.83093" lon="6.44227">
        <ele>2255</ele>
        <time>2018-10-17T10:07:44Z</time>
      </trkpt>
      <trkpt lat="45.83092" lon="6.44225">
        <ele>2255</ele>
        <time>2018-10-17T10:07:45Z</time>
      </trkpt>
      <trkpt lat="45.8309" lon="6.44222">
        <ele>2254</ele>
        <time>2018-10-17T10:07:46Z</time>
      </trkpt>
      <trkpt lat="45.83089" lon="6.4422">
        <ele>2254</ele>
        <time>2018-10-17T10:07:47Z</time>
      </trkpt>
      <trkpt lat="45.83087" lon="6.44217">
        <ele>2254</ele>
        <time>2018-10-17T10:07:48Z</time>
      </trkpt>
      <trkpt lat="45.83086" lon="6.44215">
        <ele>2252</ele>
        <time>2018-10-17T10:07:49Z</time>
      </trkpt>
      <trkpt lat="45.83085" lon="6.44212">
        <ele>2251</ele>
        <time>2018-10-17T10:07:50Z</time>
      </trkpt>
      <trkpt lat="45.83084" lon="6.44209">
        <ele>2250</ele>
        <time>2018-10-17T10:07:51Z</time>
      </trkpt>
      <trkpt lat="45.83083" lon="6.44206">
        <ele>2249</ele>
        <time>2018-10-17T10:07:52Z</time>
      </trkpt>
      <trkpt lat="45.83081" lon="6.44204">
        <ele>2249</ele>
        <time>2018-10-17T10:07:53Z</time>
      </trkpt>
      <trkpt lat="45.8308" lon="6.44201">
        <ele>2248</ele>
        <time>2018-10-17T10:07:54Z</time>
      </trkpt>
      <trkpt lat="45.83078" lon="6.44198">
        <ele>2248</ele>
        <time>2018-10-17T10:07:55Z</time>
      </trkpt>
      <trkpt lat="45.83077" lon="6.44195">
        <ele>2247</ele>
        <time>2018-10-17T10:07:56Z</time>
      </trkpt>
      <trkpt lat="45.83076" lon="6.44193">
        <ele>2247</ele>
        <time>2018-10-17T10:07:57Z</time>
      </trkpt>
      <trkpt lat="45.83074" lon="6.4419">
        <ele>2246</ele>
        <time>2018-10-17T10:07:58Z</time>
      </trkpt>
      <trkpt lat="45.83072" lon="6.44188">
        <ele>2245</ele>
        <time>2018-10-17T10:07:59Z</time>
      </trkpt>
      <trkpt lat="45.83071" lon="6.44187">
        <ele>2244</ele>
        <time>2018-10-17T10:08:00Z</time>
      </trkpt>
      <trkpt lat="45.83071" lon="6.44187">
        <ele>2243</ele>
        <time>2018-10-17T10:08:01Z</time>
      </trkpt>
      <trkpt lat="45.83068" lon="6.44184">
        <ele>2243</ele>
        <time>2018-10-17T10:08:02Z</time>
      </trkpt>
      <trkpt lat="45.83068" lon="6.44184">
        <ele>2243</ele>
        <time>2018-10-17T10:08:03Z</time>
      </trkpt>
      <trkpt lat="45.83066" lon="6.44181">
        <ele>2243</ele>
        <time>2018-10-17T10:08:04Z</time>
      </trkpt>
      <trkpt lat="45.83066" lon="6.44181">
        <ele>2242</ele>
        <time>2018-10-17T10:08:05Z</time>
      </trkpt>
      <trkpt lat="45.83064" lon="6.44177">
        <ele>2242</ele>
        <time>2018-10-17T10:08:06Z</time>
      </trkpt>
      <trkpt lat="45.83064" lon="6.44177">
        <ele>2241</ele>
        <time>2018-10-17T10:08:07Z</time>
      </trkpt>
      <trkpt lat="45.83062" lon="6.44174">
        <ele>2240</ele>
        <time>2018-10-17T10:08:08Z</time>
      </trkpt>
      <trkpt lat="45.83062" lon="6.44174">
        <ele>2240</ele>
        <time>2018-10-17T10:08:09Z</time>
      </trkpt>
      <trkpt lat="45.83059" lon="6.44171">
        <ele>2239</ele>
        <time>2018-10-17T10:08:10Z</time>
      </trkpt>
      <trkpt lat="45.83059" lon="6.44171">
        <ele>2238</ele>
        <time>2018-10-17T10:08:11Z</time>
      </trkpt>
      <trkpt lat="45.83058" lon="6.44167">
        <ele>2237</ele>
        <time>2018-10-17T10:08:12Z</time>
      </trkpt>
      <trkpt lat="45.83058" lon="6.44167">
        <ele>2237</ele>
        <time>2018-10-17T10:08:13Z</time>
      </trkpt>
      <trkpt lat="45.83057" lon="6.44164">
        <ele>2236</ele>
        <time>2018-10-17T10:08:14Z</time>
      </trkpt>
      <trkpt lat="45.83057" lon="6.44164">
        <ele>2236</ele>
        <time>2018-10-17T10:08:15Z</time>
      </trkpt>
      <trkpt lat="45.83055" lon="6.44162">
        <ele>2235</ele>
        <time>2018-10-17T10:08:16Z</time>
      </trkpt>
      <trkpt lat="45.83055" lon="6.44162">
        <ele>2235</ele>
        <time>2018-10-17T10:08:17Z</time>
      </trkpt>
      <trkpt lat="45.83052" lon="6.44158">
        <ele>2235</ele>
        <time>2018-10-17T10:08:18Z</time>
      </trkpt>
      <trkpt lat="45.83052" lon="6.44158">
        <ele>2235</ele>
        <time>2018-10-17T10:08:19Z</time>
      </trkpt>
      <trkpt lat="45.8305" lon="6.44156">
        <ele>2234</ele>
        <time>2018-10-17T10:08:20Z</time>
      </trkpt>
      <trkpt lat="45.8305" lon="6.44156">
        <ele>2233</ele>
        <time>2018-10-17T10:08:21Z</time>
      </trkpt>
      <trkpt lat="45.83047" lon="6.44154">
        <ele>2233</ele>
        <time>2018-10-17T10:08:22Z</time>
      </trkpt>
      <trkpt lat="45.83047" lon="6.44154">
        <ele>2233</ele>
        <time>2018-10-17T10:08:23Z</time>
      </trkpt>
      <trkpt lat="45.83045" lon="6.44152">
        <ele>2232</ele>
        <time>2018-10-17T10:08:24Z</time>
      </trkpt>
      <trkpt lat="45.83045" lon="6.44152">
        <ele>2232</ele>
        <time>2018-10-17T10:08:25Z</time>
      </trkpt>
      <trkpt lat="45.83043" lon="6.44149">
        <ele>2231</ele>
        <time>2018-10-17T10:08:26Z</time>
      </trkpt>
      <trkpt lat="45.83043" lon="6.44149">
        <ele>2231</ele>
        <time>2018-10-17T10:08:27Z</time>
      </trkpt>
      <trkpt lat="45.83041" lon="6.44147">
        <ele>2230</ele>
        <time>2018-10-17T10:08:28Z</time>
      </trkpt>
      <trkpt lat="45.83041" lon="6.44147">
        <ele>2229</ele>
        <time>2018-10-17T10:08:29Z</time>
      </trkpt>
      <trkpt lat="45.83038" lon="6.44144">
        <ele>2228</ele>
        <time>2018-10-17T10:08:30Z</time>
      </trkpt>
      <trkpt lat="45.83038" lon="6.44144">
        <ele>2227</ele>
        <time>2018-10-17T10:08:31Z</time>
      </trkpt>
      <trkpt lat="45.83036" lon="6.44141">
        <ele>2227</ele>
        <time>2018-10-17T10:08:32Z</time>
      </trkpt>
      <trkpt lat="45.83036" lon="6.44141">
        <ele>2226</ele>
        <time>2018-10-17T10:08:33Z</time>
      </trkpt>
      <trkpt lat="45.83034" lon="6.44137">
        <ele>2226</ele>
        <time>2018-10-17T10:08:34Z</time>
      </trkpt>
      <trkpt lat="45.83034" lon="6.44137">
        <ele>2225</ele>
        <time>2018-10-17T10:08:35Z</time>
      </trkpt>
      <trkpt lat="45.83032" lon="6.44134">
        <ele>2225</ele>
        <time>2018-10-17T10:08:36Z</time>
      </trkpt>
      <trkpt lat="45.83032" lon="6.44134">
        <ele>2225</ele>
        <time>2018-10-17T10:08:37Z</time>
      </trkpt>
      <trkpt lat="45.8303" lon="6.44132">
        <ele>2225</ele>
        <time>2018-10-17T10:08:38Z</time>
      </trkpt>
      <trkpt lat="45.8303" lon="6.44132">
        <ele>2224</ele>
        <time>2018-10-17T10:08:39Z</time>
      </trkpt>
      <trkpt lat="45.83029" lon="6.44129">
        <ele>2224</ele>
        <time>2018-10-17T10:08:40Z</time>
      </trkpt>
      <trkpt lat="45.83029" lon="6.44129">
        <ele>2223</ele>
        <time>2018-10-17T10:08:41Z</time>
      </trkpt>
      <trkpt lat="45.83029" lon="6.44125">
        <ele>2221</ele>
        <time>2018-10-17T10:08:42Z</time>
      </trkpt>
      <trkpt lat="45.83029" lon="6.44125">
        <ele>2221</ele>
        <time>2018-10-17T10:08:43Z</time>
      </trkpt>
      <trkpt lat="45.83029" lon="6.44122">
        <ele>2221</ele>
        <time>2018-10-17T10:08:44Z</time>
      </trkpt>
      <trkpt lat="45.83029" lon="6.44122">
        <ele>2221</ele>
        <time>2018-10-17T10:08:45Z</time>
      </trkpt>
      <trkpt lat="45.83028" lon="6.44118">
        <ele>2220</ele>
        <time>2018-10-17T10:08:46Z</time>
      </trkpt>
      <trkpt lat="45.83028" lon="6.44118">
        <ele>2219</ele>
        <time>2018-10-17T10:08:47Z</time>
      </trkpt>
      <trkpt lat="45.83028" lon="6.44118">
        <ele>2219</ele>
        <time>2018-10-17T10:08:48Z</time>
      </trkpt>
      <trkpt lat="45.83028" lon="6.44114">
        <ele>2219</ele>
        <time>2018-10-17T10:08:49Z</time>
      </trkpt>
      <trkpt lat="45.83028" lon="6.44114">
        <ele>2218</ele>
        <time>2018-10-17T10:08:50Z</time>
      </trkpt>
      <trkpt lat="45.83028" lon="6.44111">
        <ele>2217</ele>
        <time>2018-10-17T10:08:51Z</time>
      </trkpt>
      <trkpt lat="45.83028" lon="6.44111">
        <ele>2217</ele>
        <time>2018-10-17T10:08:52Z</time>
      </trkpt>
      <trkpt lat="45.83028" lon="6.44108">
        <ele>2217</ele>
        <time>2018-10-17T10:08:53Z</time>
      </trkpt>
      <trkpt lat="45.83028" lon="6.44108">
        <ele>2217</ele>
        <time>2018-10-17T10:08:54Z</time>
      </trkpt>
      <trkpt lat="45.83028" lon="6.44108">
        <ele>2217</ele>
        <time>2018-10-17T10:08:55Z</time>
      </trkpt>
      <trkpt lat="45.83028" lon="6.44104">
        <ele>2216</ele>
        <time>2018-10-17T10:08:56Z</time>
      </trkpt>
      <trkpt lat="45.83028" lon="6.44104">
        <ele>2215</ele>
        <time>2018-10-17T10:08:57Z</time>
      </trkpt>
      <trkpt lat="45.83027" lon="6.44101">
        <ele>2214</ele>
        <time>2018-10-17T10:08:58Z</time>
      </trkpt>
      <trkpt lat="45.83027" lon="6.44101">
        <ele>2214</ele>
        <time>2018-10-17T10:08:59Z</time>
      </trkpt>
      <trkpt lat="45.83026" lon="6.44098">
        <ele>2214</ele>
        <time>2018-10-17T10:09:00Z</time>
      </trkpt>
      <trkpt lat="45.83026" lon="6.44098">
        <ele>2214</ele>
        <time>2018-10-17T10:09:01Z</time>
      </trkpt>
      <trkpt lat="45.83025" lon="6.44095">
        <ele>2214</ele>
        <time>2018-10-17T10:09:02Z</time>
      </trkpt>
      <trkpt lat="45.83025" lon="6.44095">
        <ele>2214</ele>
        <time>2018-10-17T10:09:03Z</time>
      </trkpt>
      <trkpt lat="45.83023" lon="6.44093">
        <ele>2213</ele>
        <time>2018-10-17T10:09:04Z</time>
      </trkpt>
      <trkpt lat="45.83023" lon="6.44093">
        <ele>2212</ele>
        <time>2018-10-17T10:09:05Z</time>
      </trkpt>
      <trkpt lat="45.83021" lon="6.44091">
        <ele>2211</ele>
        <time>2018-10-17T10:09:06Z</time>
      </trkpt>
      <trkpt lat="45.83021" lon="6.44091">
        <ele>2210</ele>
        <time>2018-10-17T10:09:07Z</time>
      </trkpt>
      <trkpt lat="45.8302" lon="6.44089">
        <ele>2210</ele>
        <time>2018-10-17T10:09:08Z</time>
      </trkpt>
      <trkpt lat="45.8302" lon="6.44089">
        <ele>2210</ele>
        <time>2018-10-17T10:09:09Z</time>
      </trkpt>
      <trkpt lat="45.83018" lon="6.44087">
        <ele>2209</ele>
        <time>2018-10-17T10:09:10Z</time>
      </trkpt>
      <trkpt lat="45.83018" lon="6.44087">
        <ele>2209</ele>
        <time>2018-10-17T10:09:11Z</time>
      </trkpt>
      <trkpt lat="45.83016" lon="6.44085">
        <ele>2209</ele>
        <time>2018-10-17T10:09:12Z</time>
      </trkpt>
      <trkpt lat="45.83016" lon="6.44085">
        <ele>2208</ele>
        <time>2018-10-17T10:09:13Z</time>
      </trkpt>
      <trkpt lat="45.83014" lon="6.44082">
        <ele>2208</ele>
        <time>2018-10-17T10:09:14Z</time>
      </trkpt>
      <trkpt lat="45.83014" lon="6.44082">
        <ele>2207</ele>
        <time>2018-10-17T10:09:15Z</time>
      </trkpt>
      <trkpt lat="45.83013" lon="6.4408">
        <ele>2206</ele>
        <time>2018-10-17T10:09:16Z</time>
      </trkpt>
      <trkpt lat="45.83013" lon="6.4408">
        <ele>2206</ele>
        <time>2018-10-17T10:09:17Z</time>
      </trkpt>
      <trkpt lat="45.8301" lon="6.44078">
        <ele>2206</ele>
        <time>2018-10-17T10:09:18Z</time>
      </trkpt>
      <trkpt lat="45.8301" lon="6.44078">
        <ele>2206</ele>
        <time>2018-10-17T10:09:19Z</time>
      </trkpt>
      <trkpt lat="45.83008" lon="6.44078">
        <ele>2206</ele>
        <time>2018-10-17T10:09:20Z</time>
      </trkpt>
      <trkpt lat="45.83008" lon="6.44078">
        <ele>2206</ele>
        <time>2018-10-17T10:09:21Z</time>
      </trkpt>
      <trkpt lat="45.83006" lon="6.44076">
        <ele>2206</ele>
        <time>2018-10-17T10:09:22Z</time>
      </trkpt>
      <trkpt lat="45.83006" lon="6.44076">
        <ele>2206</ele>
        <time>2018-10-17T10:09:23Z</time>
      </trkpt>
      <trkpt lat="45.83004" lon="6.44074">
        <ele>2205</ele>
        <time>2018-10-17T10:09:24Z</time>
      </trkpt>
      <trkpt lat="45.83004" lon="6.44074">
        <ele>2204</ele>
        <time>2018-10-17T10:09:25Z</time>
      </trkpt>
      <trkpt lat="45.83002" lon="6.44073">
        <ele>2204</ele>
        <time>2018-10-17T10:09:26Z</time>
      </trkpt>
      <trkpt lat="45.83002" lon="6.44073">
        <ele>2203</ele>
        <time>2018-10-17T10:09:27Z</time>
      </trkpt>
      <trkpt lat="45.83002" lon="6.44073">
        <ele>2203</ele>
        <time>2018-10-17T10:09:28Z</time>
      </trkpt>
      <trkpt lat="45.83" lon="6.44071">
        <ele>2203</ele>
        <time>2018-10-17T10:09:29Z</time>
      </trkpt>
      <trkpt lat="45.83" lon="6.44071">
        <ele>2203</ele>
        <time>2018-10-17T10:09:30Z</time>
      </trkpt>
      <trkpt lat="45.82998" lon="6.44069">
        <ele>2202</ele>
        <time>2018-10-17T10:09:31Z</time>
      </trkpt>
      <trkpt lat="45.82998" lon="6.44069">
        <ele>2202</ele>
        <time>2018-10-17T10:09:32Z</time>
      </trkpt>
      <trkpt lat="45.82998" lon="6.44069">
        <ele>2202</ele>
        <time>2018-10-17T10:09:33Z</time>
      </trkpt>
      <trkpt lat="45.82996" lon="6.44067">
        <ele>2201</ele>
        <time>2018-10-17T10:09:34Z</time>
      </trkpt>
      <trkpt lat="45.82996" lon="6.44067">
        <ele>2200</ele>
        <time>2018-10-17T10:09:35Z</time>
      </trkpt>
      <trkpt lat="45.82994" lon="6.44066">
        <ele>2200</ele>
        <time>2018-10-17T10:09:36Z</time>
      </trkpt>
      <trkpt lat="45.82994" lon="6.44066">
        <ele>2200</ele>
        <time>2018-10-17T10:09:37Z</time>
      </trkpt>
      <trkpt lat="45.82992" lon="6.44065">
        <ele>2199</ele>
        <time>2018-10-17T10:09:38Z</time>
      </trkpt>
      <trkpt lat="45.82992" lon="6.44065">
        <ele>2198</ele>
        <time>2018-10-17T10:09:39Z</time>
      </trkpt>
      <trkpt lat="45.8299" lon="6.44063">
        <ele>2198</ele>
        <time>2018-10-17T10:09:40Z</time>
      </trkpt>
      <trkpt lat="45.8299" lon="6.44063">
        <ele>2198</ele>
        <time>2018-10-17T10:09:41Z</time>
      </trkpt>
      <trkpt lat="45.82988" lon="6.44062">
        <ele>2198</ele>
        <time>2018-10-17T10:09:42Z</time>
      </trkpt>
      <trkpt lat="45.82988" lon="6.44062">
        <ele>2197</ele>
        <time>2018-10-17T10:09:43Z</time>
      </trkpt>
      <trkpt lat="45.82986" lon="6.44061">
        <ele>2197</ele>
        <time>2018-10-17T10:09:44Z</time>
      </trkpt>
      <trkpt lat="45.82986" lon="6.44061">
        <ele>2196</ele>
        <time>2018-10-17T10:09:45Z</time>
      </trkpt>
      <trkpt lat="45.82983" lon="6.44061">
        <ele>2196</ele>
        <time>2018-10-17T10:09:46Z</time>
      </trkpt>
      <trkpt lat="45.82983" lon="6.44061">
        <ele>2195</ele>
        <time>2018-10-17T10:09:47Z</time>
      </trkpt>
      <trkpt lat="45.82982" lon="6.4406">
        <ele>2195</ele>
        <time>2018-10-17T10:09:48Z</time>
      </trkpt>
      <trkpt lat="45.82982" lon="6.4406">
        <ele>2195</ele>
        <time>2018-10-17T10:09:49Z</time>
      </trkpt>
      <trkpt lat="45.82979" lon="6.44059">
        <ele>2195</ele>
        <time>2018-10-17T10:09:50Z</time>
      </trkpt>
      <trkpt lat="45.82979" lon="6.44059">
        <ele>2194</ele>
        <time>2018-10-17T10:09:51Z</time>
      </trkpt>
      <trkpt lat="45.82977" lon="6.44058">
        <ele>2193</ele>
        <time>2018-10-17T10:09:52Z</time>
      </trkpt>
      <trkpt lat="45.82977" lon="6.44058">
        <ele>2193</ele>
        <time>2018-10-17T10:09:53Z</time>
      </trkpt>
      <trkpt lat="45.82976" lon="6.44057">
        <ele>2192</ele>
        <time>2018-10-17T10:09:54Z</time>
      </trkpt>
      <trkpt lat="45.82976" lon="6.44057">
        <ele>2192</ele>
        <time>2018-10-17T10:09:55Z</time>
      </trkpt>
      <trkpt lat="45.82974" lon="6.44056">
        <ele>2191</ele>
        <time>2018-10-17T10:09:56Z</time>
      </trkpt>
      <trkpt lat="45.82974" lon="6.44056">
        <ele>2191</ele>
        <time>2018-10-17T10:09:57Z</time>
      </trkpt>
      <trkpt lat="45.82972" lon="6.44055">
        <ele>2191</ele>
        <time>2018-10-17T10:09:58Z</time>
      </trkpt>
      <trkpt lat="45.82972" lon="6.44055">
        <ele>2190</ele>
        <time>2018-10-17T10:09:59Z</time>
      </trkpt>
      <trkpt lat="45.8297" lon="6.44054">
        <ele>2190</ele>
        <time>2018-10-17T10:10:00Z</time>
      </trkpt>
      <trkpt lat="45.8297" lon="6.44054">
        <ele>2190</ele>
        <time>2018-10-17T10:10:01Z</time>
      </trkpt>
      <trkpt lat="45.82968" lon="6.44054">
        <ele>2190</ele>
        <time>2018-10-17T10:10:02Z</time>
      </trkpt>
      <trkpt lat="45.82968" lon="6.44054">
        <ele>2189</ele>
        <time>2018-10-17T10:10:03Z</time>
      </trkpt>
      <trkpt lat="45.82966" lon="6.44053">
        <ele>2189</ele>
        <time>2018-10-17T10:10:04Z</time>
      </trkpt>
      <trkpt lat="45.82966" lon="6.44053">
        <ele>2188</ele>
        <time>2018-10-17T10:10:05Z</time>
      </trkpt>
      <trkpt lat="45.82964" lon="6.44053">
        <ele>2187</ele>
        <time>2018-10-17T10:10:06Z</time>
      </trkpt>
      <trkpt lat="45.82964" lon="6.44053">
        <ele>2186</ele>
        <time>2018-10-17T10:10:07Z</time>
      </trkpt>
      <trkpt lat="45.82962" lon="6.44052">
        <ele>2186</ele>
        <time>2018-10-17T10:10:08Z</time>
      </trkpt>
      <trkpt lat="45.82962" lon="6.44052">
        <ele>2186</ele>
        <time>2018-10-17T10:10:09Z</time>
      </trkpt>
      <trkpt lat="45.82959" lon="6.44052">
        <ele>2186</ele>
        <time>2018-10-17T10:10:10Z</time>
      </trkpt>
      <trkpt lat="45.82959" lon="6.44052">
        <ele>2186</ele>
        <time>2018-10-17T10:10:11Z</time>
      </trkpt>
      <trkpt lat="45.82958" lon="6.44052">
        <ele>2185</ele>
        <time>2018-10-17T10:10:12Z</time>
      </trkpt>
      <trkpt lat="45.82958" lon="6.44052">
        <ele>2184</ele>
        <time>2018-10-17T10:10:13Z</time>
      </trkpt>
      <trkpt lat="45.82955" lon="6.44052">
        <ele>2183</ele>
        <time>2018-10-17T10:10:14Z</time>
      </trkpt>
      <trkpt lat="45.82955" lon="6.44052">
        <ele>2183</ele>
        <time>2018-10-17T10:10:15Z</time>
      </trkpt>
      <trkpt lat="45.82955" lon="6.44052">
        <ele>2183</ele>
        <time>2018-10-17T10:10:16Z</time>
      </trkpt>
      <trkpt lat="45.82953" lon="6.44053">
        <ele>2183</ele>
        <time>2018-10-17T10:10:17Z</time>
      </trkpt>
      <trkpt lat="45.82953" lon="6.44053">
        <ele>2183</ele>
        <time>2018-10-17T10:10:18Z</time>
      </trkpt>
      <trkpt lat="45.82951" lon="6.44052">
        <ele>2181</ele>
        <time>2018-10-17T10:10:19Z</time>
      </trkpt>
      <trkpt lat="45.82951" lon="6.44052">
        <ele>2180</ele>
        <time>2018-10-17T10:10:20Z</time>
      </trkpt>
      <trkpt lat="45.82951" lon="6.44052">
        <ele>2180</ele>
        <time>2018-10-17T10:10:21Z</time>
      </trkpt>
      <trkpt lat="45.82949" lon="6.44051">
        <ele>2180</ele>
        <time>2018-10-17T10:10:22Z</time>
      </trkpt>
      <trkpt lat="45.82949" lon="6.44051">
        <ele>2180</ele>
        <time>2018-10-17T10:10:23Z</time>
      </trkpt>
      <trkpt lat="45.82949" lon="6.44051">
        <ele>2179</ele>
        <time>2018-10-17T10:10:24Z</time>
      </trkpt>
      <trkpt lat="45.82946" lon="6.44051">
        <ele>2179</ele>
        <time>2018-10-17T10:10:25Z</time>
      </trkpt>
      <trkpt lat="45.82946" lon="6.44051">
        <ele>2179</ele>
        <time>2018-10-17T10:10:26Z</time>
      </trkpt>
      <trkpt lat="45.82946" lon="6.44051">
        <ele>2178</ele>
        <time>2018-10-17T10:10:27Z</time>
      </trkpt>
      <trkpt lat="45.82944" lon="6.4405">
        <ele>2178</ele>
        <time>2018-10-17T10:10:28Z</time>
      </trkpt>
      <trkpt lat="45.82944" lon="6.4405">
        <ele>2177</ele>
        <time>2018-10-17T10:10:29Z</time>
      </trkpt>
      <trkpt lat="45.82942" lon="6.44051">
        <ele>2177</ele>
        <time>2018-10-17T10:10:30Z</time>
      </trkpt>
      <trkpt lat="45.82942" lon="6.44051">
        <ele>2176</ele>
        <time>2018-10-17T10:10:31Z</time>
      </trkpt>
      <trkpt lat="45.8294" lon="6.44052">
        <ele>2175</ele>
        <time>2018-10-17T10:10:32Z</time>
      </trkpt>
      <trkpt lat="45.8294" lon="6.44052">
        <ele>2175</ele>
        <time>2018-10-17T10:10:33Z</time>
      </trkpt>
      <trkpt lat="45.82937" lon="6.44052">
        <ele>2175</ele>
        <time>2018-10-17T10:10:34Z</time>
      </trkpt>
      <trkpt lat="45.82937" lon="6.44052">
        <ele>2175</ele>
        <time>2018-10-17T10:10:35Z</time>
      </trkpt>
      <trkpt lat="45.82935" lon="6.44053">
        <ele>2173</ele>
        <time>2018-10-17T10:10:36Z</time>
      </trkpt>
      <trkpt lat="45.82935" lon="6.44053">
        <ele>2173</ele>
        <time>2018-10-17T10:10:37Z</time>
      </trkpt>
      <trkpt lat="45.82933" lon="6.44054">
        <ele>2173</ele>
        <time>2018-10-17T10:10:38Z</time>
      </trkpt>
      <trkpt lat="45.82933" lon="6.44054">
        <ele>2172</ele>
        <time>2018-10-17T10:10:39Z</time>
      </trkpt>
      <trkpt lat="45.82931" lon="6.44055">
        <ele>2172</ele>
        <time>2018-10-17T10:10:40Z</time>
      </trkpt>
      <trkpt lat="45.82931" lon="6.44055">
        <ele>2171</ele>
        <time>2018-10-17T10:10:41Z</time>
      </trkpt>
      <trkpt lat="45.82928" lon="6.44055">
        <ele>2171</ele>
        <time>2018-10-17T10:10:42Z</time>
      </trkpt>
      <trkpt lat="45.82928" lon="6.44055">
        <ele>2171</ele>
        <time>2018-10-17T10:10:43Z</time>
      </trkpt>
      <trkpt lat="45.82928" lon="6.44055">
        <ele>2170</ele>
        <time>2018-10-17T10:10:44Z</time>
      </trkpt>
      <trkpt lat="45.82926" lon="6.44055">
        <ele>2170</ele>
        <time>2018-10-17T10:10:45Z</time>
      </trkpt>
      <trkpt lat="45.82926" lon="6.44055">
        <ele>2169</ele>
        <time>2018-10-17T10:10:46Z</time>
      </trkpt>
      <trkpt lat="45.82923" lon="6.44055">
        <ele>2169</ele>
        <time>2018-10-17T10:10:47Z</time>
      </trkpt>
      <trkpt lat="45.82923" lon="6.44055">
        <ele>2169</ele>
        <time>2018-10-17T10:10:48Z</time>
      </trkpt>
      <trkpt lat="45.82921" lon="6.44055">
        <ele>2168</ele>
        <time>2018-10-17T10:10:49Z</time>
      </trkpt>
      <trkpt lat="45.82921" lon="6.44055">
        <ele>2168</ele>
        <time>2018-10-17T10:10:50Z</time>
      </trkpt>
      <trkpt lat="45.82919" lon="6.44054">
        <ele>2168</ele>
        <time>2018-10-17T10:10:51Z</time>
      </trkpt>
      <trkpt lat="45.82919" lon="6.44054">
        <ele>2167</ele>
        <time>2018-10-17T10:10:52Z</time>
      </trkpt>
      <trkpt lat="45.82919" lon="6.44054">
        <ele>2166</ele>
        <time>2018-10-17T10:10:53Z</time>
      </trkpt>
      <trkpt lat="45.82917" lon="6.44056">
        <ele>2166</ele>
        <time>2018-10-17T10:10:54Z</time>
      </trkpt>
      <trkpt lat="45.82917" lon="6.44056">
        <ele>2166</ele>
        <time>2018-10-17T10:10:55Z</time>
      </trkpt>
      <trkpt lat="45.82914" lon="6.44056">
        <ele>2165</ele>
        <time>2018-10-17T10:10:56Z</time>
      </trkpt>
      <trkpt lat="45.82914" lon="6.44056">
        <ele>2165</ele>
        <time>2018-10-17T10:10:57Z</time>
      </trkpt>
      <trkpt lat="45.82913" lon="6.44055">
        <ele>2165</ele>
        <time>2018-10-17T10:10:58Z</time>
      </trkpt>
      <trkpt lat="45.82913" lon="6.44055">
        <ele>2164</ele>
        <time>2018-10-17T10:10:59Z</time>
      </trkpt>
      <trkpt lat="45.82911" lon="6.44054">
        <ele>2164</ele>
        <time>2018-10-17T10:11:00Z</time>
      </trkpt>
      <trkpt lat="45.82911" lon="6.44054">
        <ele>2163</ele>
        <time>2018-10-17T10:11:01Z</time>
      </trkpt>
      <trkpt lat="45.82909" lon="6.44054">
        <ele>2163</ele>
        <time>2018-10-17T10:11:02Z</time>
      </trkpt>
      <trkpt lat="45.82909" lon="6.44054">
        <ele>2163</ele>
        <time>2018-10-17T10:11:03Z</time>
      </trkpt>
      <trkpt lat="45.82907" lon="6.44054">
        <ele>2162</ele>
        <time>2018-10-17T10:11:04Z</time>
      </trkpt>
      <trkpt lat="45.82907" lon="6.44054">
        <ele>2161</ele>
        <time>2018-10-17T10:11:05Z</time>
      </trkpt>
      <trkpt lat="45.82907" lon="6.44054">
        <ele>2160</ele>
        <time>2018-10-17T10:11:06Z</time>
      </trkpt>
      <trkpt lat="45.82905" lon="6.44051">
        <ele>2159</ele>
        <time>2018-10-17T10:11:07Z</time>
      </trkpt>
      <trkpt lat="45.82905" lon="6.44051">
        <ele>2159</ele>
        <time>2018-10-17T10:11:08Z</time>
      </trkpt>
      <trkpt lat="45.82904" lon="6.44049">
        <ele>2159</ele>
        <time>2018-10-17T10:11:09Z</time>
      </trkpt>
      <trkpt lat="45.82904" lon="6.44049">
        <ele>2158</ele>
        <time>2018-10-17T10:11:10Z</time>
      </trkpt>
      <trkpt lat="45.82903" lon="6.44047">
        <ele>2158</ele>
        <time>2018-10-17T10:11:11Z</time>
      </trkpt>
      <trkpt lat="45.82903" lon="6.44047">
        <ele>2158</ele>
        <time>2018-10-17T10:11:12Z</time>
      </trkpt>
      <trkpt lat="45.82902" lon="6.44044">
        <ele>2157</ele>
        <time>2018-10-17T10:11:13Z</time>
      </trkpt>
      <trkpt lat="45.82902" lon="6.44044">
        <ele>2156</ele>
        <time>2018-10-17T10:11:14Z</time>
      </trkpt>
      <trkpt lat="45.82902" lon="6.44044">
        <ele>2156</ele>
        <time>2018-10-17T10:11:15Z</time>
      </trkpt>
      <trkpt lat="45.82902" lon="6.44041">
        <ele>2156</ele>
        <time>2018-10-17T10:11:16Z</time>
      </trkpt>
      <trkpt lat="45.82902" lon="6.44041">
        <ele>2155</ele>
        <time>2018-10-17T10:11:17Z</time>
      </trkpt>
      <trkpt lat="45.82902" lon="6.44041">
        <ele>2154</ele>
        <time>2018-10-17T10:11:18Z</time>
      </trkpt>
      <trkpt lat="45.82901" lon="6.44038">
        <ele>2154</ele>
        <time>2018-10-17T10:11:19Z</time>
      </trkpt>
      <trkpt lat="45.82901" lon="6.44038">
        <ele>2153</ele>
        <time>2018-10-17T10:11:20Z</time>
      </trkpt>
      <trkpt lat="45.82901" lon="6.44038">
        <ele>2153</ele>
        <time>2018-10-17T10:11:21Z</time>
      </trkpt>
      <trkpt lat="45.82901" lon="6.44038">
        <ele>2152</ele>
        <time>2018-10-17T10:11:22Z</time>
      </trkpt>
      <trkpt lat="45.82901" lon="6.44038">
        <ele>2152</ele>
        <time>2018-10-17T10:11:23Z</time>
      </trkpt>
      <trkpt lat="45.82898" lon="6.44039">
        <ele>2152</ele>
        <time>2018-10-17T10:11:24Z</time>
      </trkpt>
      <trkpt lat="45.82898" lon="6.44039">
        <ele>2152</ele>
        <time>2018-10-17T10:11:25Z</time>
      </trkpt>
      <trkpt lat="45.82896" lon="6.44039">
        <ele>2151</ele>
        <time>2018-10-17T10:11:26Z</time>
      </trkpt>
      <trkpt lat="45.82896" lon="6.44039">
        <ele>2151</ele>
        <time>2018-10-17T10:11:27Z</time>
      </trkpt>
      <trkpt lat="45.82894" lon="6.4404">
        <ele>2150</ele>
        <time>2018-10-17T10:11:28Z</time>
      </trkpt>
      <trkpt lat="45.82894" lon="6.4404">
        <ele>2149</ele>
        <time>2018-10-17T10:11:29Z</time>
      </trkpt>
      <trkpt lat="45.82892" lon="6.44041">
        <ele>2149</ele>
        <time>2018-10-17T10:11:30Z</time>
      </trkpt>
      <trkpt lat="45.82892" lon="6.44041">
        <ele>2149</ele>
        <time>2018-10-17T10:11:31Z</time>
      </trkpt>
      <trkpt lat="45.82889" lon="6.44042">
        <ele>2149</ele>
        <time>2018-10-17T10:11:32Z</time>
      </trkpt>
      <trkpt lat="45.82889" lon="6.44042">
        <ele>2147</ele>
        <time>2018-10-17T10:11:33Z</time>
      </trkpt>
      <trkpt lat="45.82888" lon="6.44043">
        <ele>2147</ele>
        <time>2018-10-17T10:11:34Z</time>
      </trkpt>
      <trkpt lat="45.82888" lon="6.44043">
        <ele>2147</ele>
        <time>2018-10-17T10:11:35Z</time>
      </trkpt>
      <trkpt lat="45.82888" lon="6.44043">
        <ele>2147</ele>
        <time>2018-10-17T10:11:36Z</time>
      </trkpt>
      <trkpt lat="45.82886" lon="6.44043">
        <ele>2146</ele>
        <time>2018-10-17T10:11:37Z</time>
      </trkpt>
      <trkpt lat="45.82886" lon="6.44043">
        <ele>2145</ele>
        <time>2018-10-17T10:11:38Z</time>
      </trkpt>
      <trkpt lat="45.82886" lon="6.44043">
        <ele>2144</ele>
        <time>2018-10-17T10:11:39Z</time>
      </trkpt>
      <trkpt lat="45.82885" lon="6.44039">
        <ele>2144</ele>
        <time>2018-10-17T10:11:40Z</time>
      </trkpt>
      <trkpt lat="45.82885" lon="6.44039">
        <ele>2143</ele>
        <time>2018-10-17T10:11:41Z</time>
      </trkpt>
      <trkpt lat="45.82885" lon="6.44039">
        <ele>2143</ele>
        <time>2018-10-17T10:11:42Z</time>
      </trkpt>
      <trkpt lat="45.82884" lon="6.44035">
        <ele>2143</ele>
        <time>2018-10-17T10:11:43Z</time>
      </trkpt>
      <trkpt lat="45.82884" lon="6.44035">
        <ele>2142</ele>
        <time>2018-10-17T10:11:44Z</time>
      </trkpt>
      <trkpt lat="45.82883" lon="6.44032">
        <ele>2141</ele>
        <time>2018-10-17T10:11:45Z</time>
      </trkpt>
      <trkpt lat="45.82883" lon="6.44032">
        <ele>2141</ele>
        <time>2018-10-17T10:11:46Z</time>
      </trkpt>
      <trkpt lat="45.82883" lon="6.44032">
        <ele>2140</ele>
        <time>2018-10-17T10:11:47Z</time>
      </trkpt>
      <trkpt lat="45.82883" lon="6.44032">
        <ele>2140</ele>
        <time>2018-10-17T10:11:48Z</time>
      </trkpt>
      <trkpt lat="45.82881" lon="6.44031">
        <ele>2139</ele>
        <time>2018-10-17T10:11:49Z</time>
      </trkpt>
      <trkpt lat="45.82881" lon="6.44031">
        <ele>2139</ele>
        <time>2018-10-17T10:11:50Z</time>
      </trkpt>
      <trkpt lat="45.82879" lon="6.4403">
        <ele>2138</ele>
        <time>2018-10-17T10:11:51Z</time>
      </trkpt>
      <trkpt lat="45.82879" lon="6.4403">
        <ele>2138</ele>
        <time>2018-10-17T10:11:52Z</time>
      </trkpt>
      <trkpt lat="45.82877" lon="6.4403">
        <ele>2138</ele>
        <time>2018-10-17T10:11:53Z</time>
      </trkpt>
      <trkpt lat="45.82877" lon="6.4403">
        <ele>2137</ele>
        <time>2018-10-17T10:11:54Z</time>
      </trkpt>
      <trkpt lat="45.82875" lon="6.4403">
        <ele>2136</ele>
        <time>2018-10-17T10:11:55Z</time>
      </trkpt>
      <trkpt lat="45.82875" lon="6.4403">
        <ele>2136</ele>
        <time>2018-10-17T10:11:56Z</time>
      </trkpt>
      <trkpt lat="45.82873" lon="6.4403">
        <ele>2136</ele>
        <time>2018-10-17T10:11:57Z</time>
      </trkpt>
      <trkpt lat="45.82873" lon="6.4403">
        <ele>2136</ele>
        <time>2018-10-17T10:11:58Z</time>
      </trkpt>
      <trkpt lat="45.8287" lon="6.4403">
        <ele>2135</ele>
        <time>2018-10-17T10:11:59Z</time>
      </trkpt>
      <trkpt lat="45.8287" lon="6.4403">
        <ele>2134</ele>
        <time>2018-10-17T10:12:00Z</time>
      </trkpt>
      <trkpt lat="45.82868" lon="6.44029">
        <ele>2132</ele>
        <time>2018-10-17T10:12:01Z</time>
      </trkpt>
      <trkpt lat="45.82868" lon="6.44029">
        <ele>2132</ele>
        <time>2018-10-17T10:12:02Z</time>
      </trkpt>
      <trkpt lat="45.82865" lon="6.44028">
        <ele>2132</ele>
        <time>2018-10-17T10:12:03Z</time>
      </trkpt>
      <trkpt lat="45.82865" lon="6.44028">
        <ele>2132</ele>
        <time>2018-10-17T10:12:04Z</time>
      </trkpt>
      <trkpt lat="45.82863" lon="6.44028">
        <ele>2132</ele>
        <time>2018-10-17T10:12:05Z</time>
      </trkpt>
      <trkpt lat="45.82863" lon="6.44028">
        <ele>2131</ele>
        <time>2018-10-17T10:12:06Z</time>
      </trkpt>
      <trkpt lat="45.82861" lon="6.44027">
        <ele>2130</ele>
        <time>2018-10-17T10:12:07Z</time>
      </trkpt>
      <trkpt lat="45.82861" lon="6.44027">
        <ele>2130</ele>
        <time>2018-10-17T10:12:08Z</time>
      </trkpt>
      <trkpt lat="45.82858" lon="6.44025">
        <ele>2129</ele>
        <time>2018-10-17T10:12:09Z</time>
      </trkpt>
      <trkpt lat="45.82858" lon="6.44025">
        <ele>2128</ele>
        <time>2018-10-17T10:12:10Z</time>
      </trkpt>
      <trkpt lat="45.82856" lon="6.44024">
        <ele>2128</ele>
        <time>2018-10-17T10:12:11Z</time>
      </trkpt>
      <trkpt lat="45.82856" lon="6.44024">
        <ele>2128</ele>
        <time>2018-10-17T10:12:12Z</time>
      </trkpt>
      <trkpt lat="45.82854" lon="6.44023">
        <ele>2128</ele>
        <time>2018-10-17T10:12:13Z</time>
      </trkpt>
      <trkpt lat="45.82854" lon="6.44023">
        <ele>2126</ele>
        <time>2018-10-17T10:12:14Z</time>
      </trkpt>
      <trkpt lat="45.82853" lon="6.4402">
        <ele>2126</ele>
        <time>2018-10-17T10:12:15Z</time>
      </trkpt>
      <trkpt lat="45.82853" lon="6.4402">
        <ele>2126</ele>
        <time>2018-10-17T10:12:16Z</time>
      </trkpt>
      <trkpt lat="45.82852" lon="6.44018">
        <ele>2126</ele>
        <time>2018-10-17T10:12:17Z</time>
      </trkpt>
      <trkpt lat="45.82852" lon="6.44018">
        <ele>2125</ele>
        <time>2018-10-17T10:12:18Z</time>
      </trkpt>
      <trkpt lat="45.82849" lon="6.44016">
        <ele>2125</ele>
        <time>2018-10-17T10:12:19Z</time>
      </trkpt>
      <trkpt lat="45.82849" lon="6.44016">
        <ele>2124</ele>
        <time>2018-10-17T10:12:20Z</time>
      </trkpt>
      <trkpt lat="45.82846" lon="6.44015">
        <ele>2123</ele>
        <time>2018-10-17T10:12:21Z</time>
      </trkpt>
      <trkpt lat="45.82846" lon="6.44015">
        <ele>2123</ele>
        <time>2018-10-17T10:12:22Z</time>
      </trkpt>
      <trkpt lat="45.82843" lon="6.44013">
        <ele>2121</ele>
        <time>2018-10-17T10:12:23Z</time>
      </trkpt>
      <trkpt lat="45.82843" lon="6.44013">
        <ele>2120</ele>
        <time>2018-10-17T10:12:24Z</time>
      </trkpt>
      <trkpt lat="45.82839" lon="6.44011">
        <ele>2119</ele>
        <time>2018-10-17T10:12:25Z</time>
      </trkpt>
      <trkpt lat="45.82839" lon="6.44011">
        <ele>2119</ele>
        <time>2018-10-17T10:12:26Z</time>
      </trkpt>
      <trkpt lat="45.82836" lon="6.44011">
        <ele>2119</ele>
        <time>2018-10-17T10:12:27Z</time>
      </trkpt>
      <trkpt lat="45.82836" lon="6.44011">
        <ele>2119</ele>
        <time>2018-10-17T10:12:28Z</time>
      </trkpt>
      <trkpt lat="45.82834" lon="6.4401">
        <ele>2118</ele>
        <time>2018-10-17T10:12:29Z</time>
      </trkpt>
      <trkpt lat="45.82834" lon="6.4401">
        <ele>2118</ele>
        <time>2018-10-17T10:12:30Z</time>
      </trkpt>
      <trkpt lat="45.82832" lon="6.44007">
        <ele>2117</ele>
        <time>2018-10-17T10:12:31Z</time>
      </trkpt>
      <trkpt lat="45.82832" lon="6.44007">
        <ele>2117</ele>
        <time>2018-10-17T10:12:32Z</time>
      </trkpt>
      <trkpt lat="45.82831" lon="6.44005">
        <ele>2116</ele>
        <time>2018-10-17T10:12:33Z</time>
      </trkpt>
      <trkpt lat="45.82831" lon="6.44005">
        <ele>2115</ele>
        <time>2018-10-17T10:12:34Z</time>
      </trkpt>
      <trkpt lat="45.82828" lon="6.44005">
        <ele>2115</ele>
        <time>2018-10-17T10:12:35Z</time>
      </trkpt>
      <trkpt lat="45.82828" lon="6.44005">
        <ele>2114</ele>
        <time>2018-10-17T10:12:36Z</time>
      </trkpt>
      <trkpt lat="45.82826" lon="6.44003">
        <ele>2114</ele>
        <time>2018-10-17T10:12:37Z</time>
      </trkpt>
      <trkpt lat="45.82826" lon="6.44003">
        <ele>2113</ele>
        <time>2018-10-17T10:12:38Z</time>
      </trkpt>
      <trkpt lat="45.82824" lon="6.44002">
        <ele>2113</ele>
        <time>2018-10-17T10:12:39Z</time>
      </trkpt>
      <trkpt lat="45.82824" lon="6.44002">
        <ele>2112</ele>
        <time>2018-10-17T10:12:40Z</time>
      </trkpt>
      <trkpt lat="45.82822" lon="6.44001">
        <ele>2112</ele>
        <time>2018-10-17T10:12:41Z</time>
      </trkpt>
      <trkpt lat="45.82822" lon="6.44001">
        <ele>2111</ele>
        <time>2018-10-17T10:12:42Z</time>
      </trkpt>
      <trkpt lat="45.8282" lon="6.44">
        <ele>2110</ele>
        <time>2018-10-17T10:12:43Z</time>
      </trkpt>
      <trkpt lat="45.8282" lon="6.44">
        <ele>2110</ele>
        <time>2018-10-17T10:12:44Z</time>
      </trkpt>
      <trkpt lat="45.82818" lon="6.43999">
        <ele>2110</ele>
        <time>2018-10-17T10:12:45Z</time>
      </trkpt>
      <trkpt lat="45.82818" lon="6.43999">
        <ele>2109</ele>
        <time>2018-10-17T10:12:46Z</time>
      </trkpt>
      <trkpt lat="45.82815" lon="6.43997">
        <ele>2108</ele>
        <time>2018-10-17T10:12:47Z</time>
      </trkpt>
      <trkpt lat="45.82815" lon="6.43997">
        <ele>2107</ele>
        <time>2018-10-17T10:12:48Z</time>
      </trkpt>
      <trkpt lat="45.82813" lon="6.43995">
        <ele>2107</ele>
        <time>2018-10-17T10:12:49Z</time>
      </trkpt>
      <trkpt lat="45.82813" lon="6.43995">
        <ele>2107</ele>
        <time>2018-10-17T10:12:50Z</time>
      </trkpt>
      <trkpt lat="45.82811" lon="6.43993">
        <ele>2107</ele>
        <time>2018-10-17T10:12:51Z</time>
      </trkpt>
      <trkpt lat="45.82811" lon="6.43993">
        <ele>2106</ele>
        <time>2018-10-17T10:12:52Z</time>
      </trkpt>
      <trkpt lat="45.8281" lon="6.43989">
        <ele>2105</ele>
        <time>2018-10-17T10:12:53Z</time>
      </trkpt>
      <trkpt lat="45.8281" lon="6.43989">
        <ele>2105</ele>
        <time>2018-10-17T10:12:54Z</time>
      </trkpt>
      <trkpt lat="45.82809" lon="6.43987">
        <ele>2104</ele>
        <time>2018-10-17T10:12:55Z</time>
      </trkpt>
      <trkpt lat="45.82809" lon="6.43987">
        <ele>2103</ele>
        <time>2018-10-17T10:12:56Z</time>
      </trkpt>
      <trkpt lat="45.82807" lon="6.43986">
        <ele>2103</ele>
        <time>2018-10-17T10:12:57Z</time>
      </trkpt>
      <trkpt lat="45.82807" lon="6.43986">
        <ele>2102</ele>
        <time>2018-10-17T10:12:58Z</time>
      </trkpt>
      <trkpt lat="45.82805" lon="6.43985">
        <ele>2102</ele>
        <time>2018-10-17T10:12:59Z</time>
      </trkpt>
      <trkpt lat="45.82805" lon="6.43985">
        <ele>2102</ele>
        <time>2018-10-17T10:13:00Z</time>
      </trkpt>
      <trkpt lat="45.82804" lon="6.43983">
        <ele>2100</ele>
        <time>2018-10-17T10:13:01Z</time>
      </trkpt>
      <trkpt lat="45.82804" lon="6.43983">
        <ele>2100</ele>
        <time>2018-10-17T10:13:02Z</time>
      </trkpt>
      <trkpt lat="45.82802" lon="6.43981">
        <ele>2099</ele>
        <time>2018-10-17T10:13:03Z</time>
      </trkpt>
      <trkpt lat="45.82802" lon="6.43981">
        <ele>2098</ele>
        <time>2018-10-17T10:13:04Z</time>
      </trkpt>
      <trkpt lat="45.82802" lon="6.43981">
        <ele>2098</ele>
        <time>2018-10-17T10:13:05Z</time>
      </trkpt>
      <trkpt lat="45.828" lon="6.43978">
        <ele>2098</ele>
        <time>2018-10-17T10:13:06Z</time>
      </trkpt>
      <trkpt lat="45.828" lon="6.43978">
        <ele>2098</ele>
        <time>2018-10-17T10:13:07Z</time>
      </trkpt>
      <trkpt lat="45.82798" lon="6.43977">
        <ele>2097</ele>
        <time>2018-10-17T10:13:08Z</time>
      </trkpt>
      <trkpt lat="45.82798" lon="6.43977">
        <ele>2097</ele>
        <time>2018-10-17T10:13:09Z</time>
      </trkpt>
      <trkpt lat="45.82798" lon="6.43977">
        <ele>2097</ele>
        <time>2018-10-17T10:13:10Z</time>
      </trkpt>
      <trkpt lat="45.82796" lon="6.43975">
        <ele>2095</ele>
        <time>2018-10-17T10:13:11Z</time>
      </trkpt>
      <trkpt lat="45.82796" lon="6.43975">
        <ele>2094</ele>
        <time>2018-10-17T10:13:12Z</time>
      </trkpt>
      <trkpt lat="45.82794" lon="6.43972">
        <ele>2094</ele>
        <time>2018-10-17T10:13:13Z</time>
      </trkpt>
      <trkpt lat="45.82794" lon="6.43972">
        <ele>2094</ele>
        <time>2018-10-17T10:13:14Z</time>
      </trkpt>
      <trkpt lat="45.82792" lon="6.4397">
        <ele>2093</ele>
        <time>2018-10-17T10:13:15Z</time>
      </trkpt>
      <trkpt lat="45.82792" lon="6.4397">
        <ele>2092</ele>
        <time>2018-10-17T10:13:16Z</time>
      </trkpt>
      <trkpt lat="45.8279" lon="6.43967">
        <ele>2092</ele>
        <time>2018-10-17T10:13:17Z</time>
      </trkpt>
      <trkpt lat="45.8279" lon="6.43967">
        <ele>2091</ele>
        <time>2018-10-17T10:13:18Z</time>
      </trkpt>
      <trkpt lat="45.82787" lon="6.43965">
        <ele>2091</ele>
        <time>2018-10-17T10:13:19Z</time>
      </trkpt>
      <trkpt lat="45.82787" lon="6.43965">
        <ele>2091</ele>
        <time>2018-10-17T10:13:20Z</time>
      </trkpt>
      <trkpt lat="45.82784" lon="6.43962">
        <ele>2091</ele>
        <time>2018-10-17T10:13:21Z</time>
      </trkpt>
      <trkpt lat="45.82784" lon="6.43962">
        <ele>2090</ele>
        <time>2018-10-17T10:13:22Z</time>
      </trkpt>
      <trkpt lat="45.82782" lon="6.43959">
        <ele>2089</ele>
        <time>2018-10-17T10:13:23Z</time>
      </trkpt>
      <trkpt lat="45.82782" lon="6.43959">
        <ele>2089</ele>
        <time>2018-10-17T10:13:24Z</time>
      </trkpt>
      <trkpt lat="45.8278" lon="6.43956">
        <ele>2088</ele>
        <time>2018-10-17T10:13:25Z</time>
      </trkpt>
      <trkpt lat="45.8278" lon="6.43956">
        <ele>2087</ele>
        <time>2018-10-17T10:13:26Z</time>
      </trkpt>
      <trkpt lat="45.82779" lon="6.43952">
        <ele>2086</ele>
        <time>2018-10-17T10:13:27Z</time>
      </trkpt>
      <trkpt lat="45.82779" lon="6.43952">
        <ele>2086</ele>
        <time>2018-10-17T10:13:28Z</time>
      </trkpt>
      <trkpt lat="45.82777" lon="6.43949">
        <ele>2086</ele>
        <time>2018-10-17T10:13:29Z</time>
      </trkpt>
      <trkpt lat="45.82777" lon="6.43949">
        <ele>2087</ele>
        <time>2018-10-17T10:13:30Z</time>
      </trkpt>
      <trkpt lat="45.82775" lon="6.43946">
        <ele>2087</ele>
        <time>2018-10-17T10:13:31Z</time>
      </trkpt>
      <trkpt lat="45.82775" lon="6.43946">
        <ele>2087</ele>
        <time>2018-10-17T10:13:32Z</time>
      </trkpt>
      <trkpt lat="45.82773" lon="6.43944">
        <ele>2087</ele>
        <time>2018-10-17T10:13:33Z</time>
      </trkpt>
      <trkpt lat="45.82773" lon="6.43944">
        <ele>2086</ele>
        <time>2018-10-17T10:13:34Z</time>
      </trkpt>
      <trkpt lat="45.8277" lon="6.43942">
        <ele>2085</ele>
        <time>2018-10-17T10:13:35Z</time>
      </trkpt>
      <trkpt lat="45.8277" lon="6.43942">
        <ele>2085</ele>
        <time>2018-10-17T10:13:36Z</time>
      </trkpt>
      <trkpt lat="45.82767" lon="6.43939">
        <ele>2084</ele>
        <time>2018-10-17T10:13:37Z</time>
      </trkpt>
      <trkpt lat="45.82767" lon="6.43939">
        <ele>2083</ele>
        <time>2018-10-17T10:13:38Z</time>
      </trkpt>
      <trkpt lat="45.82764" lon="6.43937">
        <ele>2082</ele>
        <time>2018-10-17T10:13:39Z</time>
      </trkpt>
      <trkpt lat="45.82764" lon="6.43937">
        <ele>2081</ele>
        <time>2018-10-17T10:13:40Z</time>
      </trkpt>
      <trkpt lat="45.82762" lon="6.43934">
        <ele>2081</ele>
        <time>2018-10-17T10:13:41Z</time>
      </trkpt>
      <trkpt lat="45.82762" lon="6.43934">
        <ele>2081</ele>
        <time>2018-10-17T10:13:42Z</time>
      </trkpt>
      <trkpt lat="45.82759" lon="6.43931">
        <ele>2081</ele>
        <time>2018-10-17T10:13:43Z</time>
      </trkpt>
      <trkpt lat="45.82759" lon="6.43931">
        <ele>2080</ele>
        <time>2018-10-17T10:13:44Z</time>
      </trkpt>
      <trkpt lat="45.82757" lon="6.43929">
        <ele>2079</ele>
        <time>2018-10-17T10:13:45Z</time>
      </trkpt>
      <trkpt lat="45.82757" lon="6.43929">
        <ele>2079</ele>
        <time>2018-10-17T10:13:46Z</time>
      </trkpt>
      <trkpt lat="45.82755" lon="6.43926">
        <ele>2079</ele>
        <time>2018-10-17T10:13:47Z</time>
      </trkpt>
      <trkpt lat="45.82755" lon="6.43926">
        <ele>2079</ele>
        <time>2018-10-17T10:13:48Z</time>
      </trkpt>
      <trkpt lat="45.82753" lon="6.43923">
        <ele>2079</ele>
        <time>2018-10-17T10:13:49Z</time>
      </trkpt>
      <trkpt lat="45.82753" lon="6.43923">
        <ele>2078</ele>
        <time>2018-10-17T10:13:50Z</time>
      </trkpt>
      <trkpt lat="45.82751" lon="6.4392">
        <ele>2077</ele>
        <time>2018-10-17T10:13:51Z</time>
      </trkpt>
      <trkpt lat="45.82751" lon="6.4392">
        <ele>2076</ele>
        <time>2018-10-17T10:13:52Z</time>
      </trkpt>
      <trkpt lat="45.82749" lon="6.43917">
        <ele>2076</ele>
        <time>2018-10-17T10:13:53Z</time>
      </trkpt>
      <trkpt lat="45.82749" lon="6.43917">
        <ele>2076</ele>
        <time>2018-10-17T10:13:54Z</time>
      </trkpt>
      <trkpt lat="45.82747" lon="6.43914">
        <ele>2076</ele>
        <time>2018-10-17T10:13:55Z</time>
      </trkpt>
      <trkpt lat="45.82747" lon="6.43914">
        <ele>2075</ele>
        <time>2018-10-17T10:13:56Z</time>
      </trkpt>
      <trkpt lat="45.82745" lon="6.43911">
        <ele>2075</ele>
        <time>2018-10-17T10:13:57Z</time>
      </trkpt>
      <trkpt lat="45.82745" lon="6.43911">
        <ele>2074</ele>
        <time>2018-10-17T10:13:58Z</time>
      </trkpt>
      <trkpt lat="45.82743" lon="6.43909">
        <ele>2073</ele>
        <time>2018-10-17T10:13:59Z</time>
      </trkpt>
      <trkpt lat="45.82743" lon="6.43909">
        <ele>2072</ele>
        <time>2018-10-17T10:14:00Z</time>
      </trkpt>
      <trkpt lat="45.82741" lon="6.43906">
        <ele>2072</ele>
        <time>2018-10-17T10:14:01Z</time>
      </trkpt>
      <trkpt lat="45.82741" lon="6.43906">
        <ele>2072</ele>
        <time>2018-10-17T10:14:02Z</time>
      </trkpt>
      <trkpt lat="45.82739" lon="6.43904">
        <ele>2071</ele>
        <time>2018-10-17T10:14:03Z</time>
      </trkpt>
      <trkpt lat="45.82739" lon="6.43904">
        <ele>2071</ele>
        <time>2018-10-17T10:14:04Z</time>
      </trkpt>
      <trkpt lat="45.82737" lon="6.43902">
        <ele>2071</ele>
        <time>2018-10-17T10:14:05Z</time>
      </trkpt>
      <trkpt lat="45.82737" lon="6.43902">
        <ele>2069</ele>
        <time>2018-10-17T10:14:06Z</time>
      </trkpt>
      <trkpt lat="45.82735" lon="6.439">
        <ele>2069</ele>
        <time>2018-10-17T10:14:07Z</time>
      </trkpt>
      <trkpt lat="45.82735" lon="6.439">
        <ele>2069</ele>
        <time>2018-10-17T10:14:08Z</time>
      </trkpt>
      <trkpt lat="45.82733" lon="6.43899">
        <ele>2068</ele>
        <time>2018-10-17T10:14:09Z</time>
      </trkpt>
      <trkpt lat="45.82733" lon="6.43899">
        <ele>2067</ele>
        <time>2018-10-17T10:14:10Z</time>
      </trkpt>
      <trkpt lat="45.82731" lon="6.43897">
        <ele>2067</ele>
        <time>2018-10-17T10:14:11Z</time>
      </trkpt>
      <trkpt lat="45.82731" lon="6.43897">
        <ele>2066</ele>
        <time>2018-10-17T10:14:12Z</time>
      </trkpt>
      <trkpt lat="45.82729" lon="6.43896">
        <ele>2066</ele>
        <time>2018-10-17T10:14:13Z</time>
      </trkpt>
      <trkpt lat="45.82729" lon="6.43896">
        <ele>2065</ele>
        <time>2018-10-17T10:14:14Z</time>
      </trkpt>
      <trkpt lat="45.82726" lon="6.43894">
        <ele>2065</ele>
        <time>2018-10-17T10:14:15Z</time>
      </trkpt>
      <trkpt lat="45.82726" lon="6.43894">
        <ele>2064</ele>
        <time>2018-10-17T10:14:16Z</time>
      </trkpt>
      <trkpt lat="45.82724" lon="6.43892">
        <ele>2064</ele>
        <time>2018-10-17T10:14:17Z</time>
      </trkpt>
      <trkpt lat="45.82724" lon="6.43892">
        <ele>2064</ele>
        <time>2018-10-17T10:14:18Z</time>
      </trkpt>
      <trkpt lat="45.82721" lon="6.43889">
        <ele>2063</ele>
        <time>2018-10-17T10:14:19Z</time>
      </trkpt>
      <trkpt lat="45.82721" lon="6.43889">
        <ele>2062</ele>
        <time>2018-10-17T10:14:20Z</time>
      </trkpt>
      <trkpt lat="45.82721" lon="6.43889">
        <ele>2062</ele>
        <time>2018-10-17T10:14:21Z</time>
      </trkpt>
      <trkpt lat="45.82718" lon="6.43889">
        <ele>2062</ele>
        <time>2018-10-17T10:14:22Z</time>
      </trkpt>
      <trkpt lat="45.82718" lon="6.43889">
        <ele>2062</ele>
        <time>2018-10-17T10:14:23Z</time>
      </trkpt>
      <trkpt lat="45.82716" lon="6.43888">
        <ele>2062</ele>
        <time>2018-10-17T10:14:24Z</time>
      </trkpt>
      <trkpt lat="45.82716" lon="6.43888">
        <ele>2061</ele>
        <time>2018-10-17T10:14:25Z</time>
      </trkpt>
      <trkpt lat="45.82714" lon="6.43885">
        <ele>2061</ele>
        <time>2018-10-17T10:14:26Z</time>
      </trkpt>
      <trkpt lat="45.82714" lon="6.43885">
        <ele>2061</ele>
        <time>2018-10-17T10:14:27Z</time>
      </trkpt>
      <trkpt lat="45.82713" lon="6.43882">
        <ele>2059</ele>
        <time>2018-10-17T10:14:28Z</time>
      </trkpt>
      <trkpt lat="45.82713" lon="6.43882">
        <ele>2058</ele>
        <time>2018-10-17T10:14:29Z</time>
      </trkpt>
      <trkpt lat="45.82713" lon="6.43882">
        <ele>2058</ele>
        <time>2018-10-17T10:14:30Z</time>
      </trkpt>
      <trkpt lat="45.82712" lon="6.43879">
        <ele>2058</ele>
        <time>2018-10-17T10:14:31Z</time>
      </trkpt>
      <trkpt lat="45.82712" lon="6.43879">
        <ele>2058</ele>
        <time>2018-10-17T10:14:32Z</time>
      </trkpt>
      <trkpt lat="45.82712" lon="6.43879">
        <ele>2058</ele>
        <time>2018-10-17T10:14:33Z</time>
      </trkpt>
      <trkpt lat="45.8271" lon="6.43878">
        <ele>2058</ele>
        <time>2018-10-17T10:14:34Z</time>
      </trkpt>
      <trkpt lat="45.8271" lon="6.43878">
        <ele>2057</ele>
        <time>2018-10-17T10:14:35Z</time>
      </trkpt>
      <trkpt lat="45.82707" lon="6.43876">
        <ele>2056</ele>
        <time>2018-10-17T10:14:36Z</time>
      </trkpt>
      <trkpt lat="45.82707" lon="6.43876">
        <ele>2056</ele>
        <time>2018-10-17T10:14:37Z</time>
      </trkpt>
      <trkpt lat="45.82705" lon="6.43874">
        <ele>2056</ele>
        <time>2018-10-17T10:14:38Z</time>
      </trkpt>
      <trkpt lat="45.82703" lon="6.43872">
        <ele>2055</ele>
        <time>2018-10-17T10:14:39Z</time>
      </trkpt>
      <trkpt lat="45.82702" lon="6.43871">
        <ele>2055</ele>
        <time>2018-10-17T10:14:40Z</time>
      </trkpt>
      <trkpt lat="45.827" lon="6.43869">
        <ele>2054</ele>
        <time>2018-10-17T10:14:41Z</time>
      </trkpt>
      <trkpt lat="45.82698" lon="6.43868">
        <ele>2054</ele>
        <time>2018-10-17T10:14:42Z</time>
      </trkpt>
      <trkpt lat="45.82698" lon="6.43868">
        <ele>2052</ele>
        <time>2018-10-17T10:14:43Z</time>
      </trkpt>
      <trkpt lat="45.82696" lon="6.43866">
        <ele>2051</ele>
        <time>2018-10-17T10:14:44Z</time>
      </trkpt>
      <trkpt lat="45.82696" lon="6.43866">
        <ele>2051</ele>
        <time>2018-10-17T10:14:45Z</time>
      </trkpt>
      <trkpt lat="45.82692" lon="6.43863">
        <ele>2051</ele>
        <time>2018-10-17T10:14:46Z</time>
      </trkpt>
      <trkpt lat="45.82692" lon="6.43863">
        <ele>2051</ele>
        <time>2018-10-17T10:14:47Z</time>
      </trkpt>
      <trkpt lat="45.82689" lon="6.43862">
        <ele>2051</ele>
        <time>2018-10-17T10:14:48Z</time>
      </trkpt>
      <trkpt lat="45.82687" lon="6.43861">
        <ele>2051</ele>
        <time>2018-10-17T10:14:49Z</time>
      </trkpt>
      <trkpt lat="45.82687" lon="6.43861">
        <ele>2050</ele>
        <time>2018-10-17T10:14:50Z</time>
      </trkpt>
      <trkpt lat="45.82685" lon="6.43859">
        <ele>2050</ele>
        <time>2018-10-17T10:14:51Z</time>
      </trkpt>
      <trkpt lat="45.82685" lon="6.43859">
        <ele>2050</ele>
        <time>2018-10-17T10:14:52Z</time>
      </trkpt>
      <trkpt lat="45.82682" lon="6.43856">
        <ele>2050</ele>
        <time>2018-10-17T10:14:53Z</time>
      </trkpt>
      <trkpt lat="45.82682" lon="6.43856">
        <ele>2049</ele>
        <time>2018-10-17T10:14:54Z</time>
      </trkpt>
      <trkpt lat="45.8268" lon="6.43853">
        <ele>2049</ele>
        <time>2018-10-17T10:14:55Z</time>
      </trkpt>
      <trkpt lat="45.8268" lon="6.43853">
        <ele>2049</ele>
        <time>2018-10-17T10:14:56Z</time>
      </trkpt>
      <trkpt lat="45.82678" lon="6.43851">
        <ele>2049</ele>
        <time>2018-10-17T10:14:57Z</time>
      </trkpt>
      <trkpt lat="45.82678" lon="6.43851">
        <ele>2049</ele>
        <time>2018-10-17T10:14:58Z</time>
      </trkpt>
      <trkpt lat="45.82675" lon="6.43848">
        <ele>2048</ele>
        <time>2018-10-17T10:14:59Z</time>
      </trkpt>
      <trkpt lat="45.82675" lon="6.43848">
        <ele>2047</ele>
        <time>2018-10-17T10:15:00Z</time>
      </trkpt>
      <trkpt lat="45.82672" lon="6.43846">
        <ele>2047</ele>
        <time>2018-10-17T10:15:01Z</time>
      </trkpt>
      <trkpt lat="45.82672" lon="6.43846">
        <ele>2047</ele>
        <time>2018-10-17T10:15:02Z</time>
      </trkpt>
      <trkpt lat="45.8267" lon="6.43843">
        <ele>2046</ele>
        <time>2018-10-17T10:15:03Z</time>
      </trkpt>
      <trkpt lat="45.82668" lon="6.43841">
        <ele>2046</ele>
        <time>2018-10-17T10:15:04Z</time>
      </trkpt>
      <trkpt lat="45.82668" lon="6.43841">
        <ele>2046</ele>
        <time>2018-10-17T10:15:05Z</time>
      </trkpt>
      <trkpt lat="45.82666" lon="6.43838">
        <ele>2046</ele>
        <time>2018-10-17T10:15:06Z</time>
      </trkpt>
      <trkpt lat="45.82666" lon="6.43838">
        <ele>2045</ele>
        <time>2018-10-17T10:15:07Z</time>
      </trkpt>
      <trkpt lat="45.82663" lon="6.43834">
        <ele>2043</ele>
        <time>2018-10-17T10:15:08Z</time>
      </trkpt>
      <trkpt lat="45.82663" lon="6.43834">
        <ele>2043</ele>
        <time>2018-10-17T10:15:09Z</time>
      </trkpt>
      <trkpt lat="45.82661" lon="6.43832">
        <ele>2043</ele>
        <time>2018-10-17T10:15:10Z</time>
      </trkpt>
      <trkpt lat="45.82661" lon="6.43832">
        <ele>2043</ele>
        <time>2018-10-17T10:15:11Z</time>
      </trkpt>
      <trkpt lat="45.82659" lon="6.43831">
        <ele>2043</ele>
        <time>2018-10-17T10:15:12Z</time>
      </trkpt>
      <trkpt lat="45.82659" lon="6.43831">
        <ele>2043</ele>
        <time>2018-10-17T10:15:13Z</time>
      </trkpt>
      <trkpt lat="45.82657" lon="6.4383">
        <ele>2042</ele>
        <time>2018-10-17T10:15:14Z</time>
      </trkpt>
      <trkpt lat="45.82657" lon="6.4383">
        <ele>2042</ele>
        <time>2018-10-17T10:15:15Z</time>
      </trkpt>
      <trkpt lat="45.82655" lon="6.43828">
        <ele>2042</ele>
        <time>2018-10-17T10:15:16Z</time>
      </trkpt>
      <trkpt lat="45.82655" lon="6.43828">
        <ele>2042</ele>
        <time>2018-10-17T10:15:17Z</time>
      </trkpt>
      <trkpt lat="45.82652" lon="6.43826">
        <ele>2042</ele>
        <time>2018-10-17T10:15:18Z</time>
      </trkpt>
      <trkpt lat="45.82652" lon="6.43826">
        <ele>2042</ele>
        <time>2018-10-17T10:15:19Z</time>
      </trkpt>
      <trkpt lat="45.8265" lon="6.43824">
        <ele>2041</ele>
        <time>2018-10-17T10:15:20Z</time>
      </trkpt>
      <trkpt lat="45.8265" lon="6.43824">
        <ele>2041</ele>
        <time>2018-10-17T10:15:21Z</time>
      </trkpt>
      <trkpt lat="45.82647" lon="6.43823">
        <ele>2041</ele>
        <time>2018-10-17T10:15:22Z</time>
      </trkpt>
      <trkpt lat="45.82647" lon="6.43823">
        <ele>2041</ele>
        <time>2018-10-17T10:15:23Z</time>
      </trkpt>
      <trkpt lat="45.82644" lon="6.43821">
        <ele>2041</ele>
        <time>2018-10-17T10:15:24Z</time>
      </trkpt>
      <trkpt lat="45.82644" lon="6.43821">
        <ele>2040</ele>
        <time>2018-10-17T10:15:25Z</time>
      </trkpt>
      <trkpt lat="45.82642" lon="6.43819">
        <ele>2040</ele>
        <time>2018-10-17T10:15:26Z</time>
      </trkpt>
      <trkpt lat="45.82642" lon="6.43819">
        <ele>2040</ele>
        <time>2018-10-17T10:15:27Z</time>
      </trkpt>
      <trkpt lat="45.82639" lon="6.43816">
        <ele>2040</ele>
        <time>2018-10-17T10:15:28Z</time>
      </trkpt>
      <trkpt lat="45.82639" lon="6.43816">
        <ele>2040</ele>
        <time>2018-10-17T10:15:29Z</time>
      </trkpt>
      <trkpt lat="45.82637" lon="6.43814">
        <ele>2040</ele>
        <time>2018-10-17T10:15:30Z</time>
      </trkpt>
      <trkpt lat="45.82637" lon="6.43814">
        <ele>2040</ele>
        <time>2018-10-17T10:15:31Z</time>
      </trkpt>
      <trkpt lat="45.82635" lon="6.43812">
        <ele>2039</ele>
        <time>2018-10-17T10:15:32Z</time>
      </trkpt>
      <trkpt lat="45.82635" lon="6.43812">
        <ele>2039</ele>
        <time>2018-10-17T10:15:33Z</time>
      </trkpt>
      <trkpt lat="45.82633" lon="6.4381">
        <ele>2039</ele>
        <time>2018-10-17T10:15:34Z</time>
      </trkpt>
      <trkpt lat="45.82633" lon="6.4381">
        <ele>2038</ele>
        <time>2018-10-17T10:15:35Z</time>
      </trkpt>
      <trkpt lat="45.82631" lon="6.43807">
        <ele>2037</ele>
        <time>2018-10-17T10:15:36Z</time>
      </trkpt>
      <trkpt lat="45.82631" lon="6.43807">
        <ele>2037</ele>
        <time>2018-10-17T10:15:37Z</time>
      </trkpt>
      <trkpt lat="45.8263" lon="6.43805">
        <ele>2037</ele>
        <time>2018-10-17T10:15:38Z</time>
      </trkpt>
      <trkpt lat="45.8263" lon="6.43805">
        <ele>2037</ele>
        <time>2018-10-17T10:15:39Z</time>
      </trkpt>
      <trkpt lat="45.82628" lon="6.43804">
        <ele>2037</ele>
        <time>2018-10-17T10:15:40Z</time>
      </trkpt>
      <trkpt lat="45.82628" lon="6.43804">
        <ele>2036</ele>
        <time>2018-10-17T10:15:41Z</time>
      </trkpt>
      <trkpt lat="45.82625" lon="6.43803">
        <ele>2036</ele>
        <time>2018-10-17T10:15:42Z</time>
      </trkpt>
      <trkpt lat="45.82625" lon="6.43803">
        <ele>2036</ele>
        <time>2018-10-17T10:15:43Z</time>
      </trkpt>
      <trkpt lat="45.82623" lon="6.438">
        <ele>2035</ele>
        <time>2018-10-17T10:15:44Z</time>
      </trkpt>
      <trkpt lat="45.82623" lon="6.438">
        <ele>2034</ele>
        <time>2018-10-17T10:15:45Z</time>
      </trkpt>
      <trkpt lat="45.8262" lon="6.43798">
        <ele>2034</ele>
        <time>2018-10-17T10:15:46Z</time>
      </trkpt>
      <trkpt lat="45.8262" lon="6.43798">
        <ele>2034</ele>
        <time>2018-10-17T10:15:47Z</time>
      </trkpt>
      <trkpt lat="45.82617" lon="6.43797">
        <ele>2034</ele>
        <time>2018-10-17T10:15:48Z</time>
      </trkpt>
      <trkpt lat="45.82617" lon="6.43797">
        <ele>2035</ele>
        <time>2018-10-17T10:15:49Z</time>
      </trkpt>
      <trkpt lat="45.82614" lon="6.43796">
        <ele>2035</ele>
        <time>2018-10-17T10:15:50Z</time>
      </trkpt>
      <trkpt lat="45.82614" lon="6.43796">
        <ele>2034</ele>
        <time>2018-10-17T10:15:51Z</time>
      </trkpt>
      <trkpt lat="45.82612" lon="6.43794">
        <ele>2033</ele>
        <time>2018-10-17T10:15:52Z</time>
      </trkpt>
      <trkpt lat="45.82612" lon="6.43794">
        <ele>2033</ele>
        <time>2018-10-17T10:15:53Z</time>
      </trkpt>
      <trkpt lat="45.82609" lon="6.43791">
        <ele>2033</ele>
        <time>2018-10-17T10:15:54Z</time>
      </trkpt>
      <trkpt lat="45.82609" lon="6.43791">
        <ele>2033</ele>
        <time>2018-10-17T10:15:55Z</time>
      </trkpt>
      <trkpt lat="45.82607" lon="6.43789">
        <ele>2033</ele>
        <time>2018-10-17T10:15:56Z</time>
      </trkpt>
      <trkpt lat="45.82607" lon="6.43789">
        <ele>2033</ele>
        <time>2018-10-17T10:15:57Z</time>
      </trkpt>
      <trkpt lat="45.82605" lon="6.43785">
        <ele>2033</ele>
        <time>2018-10-17T10:15:58Z</time>
      </trkpt>
      <trkpt lat="45.82605" lon="6.43785">
        <ele>2033</ele>
        <time>2018-10-17T10:15:59Z</time>
      </trkpt>
      <trkpt lat="45.82602" lon="6.43783">
        <ele>2033</ele>
        <time>2018-10-17T10:16:00Z</time>
      </trkpt>
      <trkpt lat="45.82602" lon="6.43783">
        <ele>2033</ele>
        <time>2018-10-17T10:16:01Z</time>
      </trkpt>
      <trkpt lat="45.826" lon="6.43781">
        <ele>2033</ele>
        <time>2018-10-17T10:16:02Z</time>
      </trkpt>
      <trkpt lat="45.826" lon="6.43781">
        <ele>2033</ele>
        <time>2018-10-17T10:16:03Z</time>
      </trkpt>
      <trkpt lat="45.82597" lon="6.43778">
        <ele>2032</ele>
        <time>2018-10-17T10:16:04Z</time>
      </trkpt>
      <trkpt lat="45.82596" lon="6.43777">
        <ele>2032</ele>
        <time>2018-10-17T10:16:05Z</time>
      </trkpt>
      <trkpt lat="45.82594" lon="6.43776">
        <ele>2032</ele>
        <time>2018-10-17T10:16:06Z</time>
      </trkpt>
      <trkpt lat="45.82594" lon="6.43776">
        <ele>2031</ele>
        <time>2018-10-17T10:16:07Z</time>
      </trkpt>
      <trkpt lat="45.82591" lon="6.43774">
        <ele>2030</ele>
        <time>2018-10-17T10:16:08Z</time>
      </trkpt>
      <trkpt lat="45.82591" lon="6.43774">
        <ele>2030</ele>
        <time>2018-10-17T10:16:09Z</time>
      </trkpt>
      <trkpt lat="45.82588" lon="6.43773">
        <ele>2030</ele>
        <time>2018-10-17T10:16:10Z</time>
      </trkpt>
      <trkpt lat="45.82588" lon="6.43773">
        <ele>2030</ele>
        <time>2018-10-17T10:16:11Z</time>
      </trkpt>
      <trkpt lat="45.82586" lon="6.43771">
        <ele>2030</ele>
        <time>2018-10-17T10:16:12Z</time>
      </trkpt>
      <trkpt lat="45.82586" lon="6.43771">
        <ele>2030</ele>
        <time>2018-10-17T10:16:13Z</time>
      </trkpt>
      <trkpt lat="45.82583" lon="6.4377">
        <ele>2030</ele>
        <time>2018-10-17T10:16:14Z</time>
      </trkpt>
      <trkpt lat="45.82583" lon="6.4377">
        <ele>2030</ele>
        <time>2018-10-17T10:16:15Z</time>
      </trkpt>
      <trkpt lat="45.8258" lon="6.43769">
        <ele>2030</ele>
        <time>2018-10-17T10:16:16Z</time>
      </trkpt>
      <trkpt lat="45.8258" lon="6.43769">
        <ele>2030</ele>
        <time>2018-10-17T10:16:17Z</time>
      </trkpt>
      <trkpt lat="45.82577" lon="6.43767">
        <ele>2029</ele>
        <time>2018-10-17T10:16:18Z</time>
      </trkpt>
      <trkpt lat="45.82577" lon="6.43767">
        <ele>2029</ele>
        <time>2018-10-17T10:16:19Z</time>
      </trkpt>
      <trkpt lat="45.82575" lon="6.43765">
        <ele>2029</ele>
        <time>2018-10-17T10:16:20Z</time>
      </trkpt>
      <trkpt lat="45.82575" lon="6.43765">
        <ele>2028</ele>
        <time>2018-10-17T10:16:21Z</time>
      </trkpt>
      <trkpt lat="45.82573" lon="6.43762">
        <ele>2028</ele>
        <time>2018-10-17T10:16:22Z</time>
      </trkpt>
      <trkpt lat="45.82573" lon="6.43762">
        <ele>2028</ele>
        <time>2018-10-17T10:16:23Z</time>
      </trkpt>
      <trkpt lat="45.82571" lon="6.43761">
        <ele>2028</ele>
        <time>2018-10-17T10:16:24Z</time>
      </trkpt>
      <trkpt lat="45.82571" lon="6.43761">
        <ele>2027</ele>
        <time>2018-10-17T10:16:25Z</time>
      </trkpt>
      <trkpt lat="45.82569" lon="6.43759">
        <ele>2027</ele>
        <time>2018-10-17T10:16:26Z</time>
      </trkpt>
      <trkpt lat="45.82569" lon="6.43759">
        <ele>2026</ele>
        <time>2018-10-17T10:16:27Z</time>
      </trkpt>
      <trkpt lat="45.82566" lon="6.43757">
        <ele>2026</ele>
        <time>2018-10-17T10:16:28Z</time>
      </trkpt>
      <trkpt lat="45.82566" lon="6.43757">
        <ele>2025</ele>
        <time>2018-10-17T10:16:29Z</time>
      </trkpt>
      <trkpt lat="45.82563" lon="6.43756">
        <ele>2024</ele>
        <time>2018-10-17T10:16:30Z</time>
      </trkpt>
      <trkpt lat="45.82563" lon="6.43756">
        <ele>2024</ele>
        <time>2018-10-17T10:16:31Z</time>
      </trkpt>
      <trkpt lat="45.8256" lon="6.43755">
        <ele>2024</ele>
        <time>2018-10-17T10:16:32Z</time>
      </trkpt>
      <trkpt lat="45.8256" lon="6.43755">
        <ele>2023</ele>
        <time>2018-10-17T10:16:33Z</time>
      </trkpt>
      <trkpt lat="45.82557" lon="6.43754">
        <ele>2022</ele>
        <time>2018-10-17T10:16:34Z</time>
      </trkpt>
      <trkpt lat="45.82557" lon="6.43754">
        <ele>2022</ele>
        <time>2018-10-17T10:16:35Z</time>
      </trkpt>
      <trkpt lat="45.82556" lon="6.43751">
        <ele>2021</ele>
        <time>2018-10-17T10:16:36Z</time>
      </trkpt>
      <trkpt lat="45.82556" lon="6.43751">
        <ele>2021</ele>
        <time>2018-10-17T10:16:37Z</time>
      </trkpt>
      <trkpt lat="45.82553" lon="6.43748">
        <ele>2022</ele>
        <time>2018-10-17T10:16:38Z</time>
      </trkpt>
      <trkpt lat="45.82552" lon="6.43747">
        <ele>2022</ele>
        <time>2018-10-17T10:16:39Z</time>
      </trkpt>
      <trkpt lat="45.82552" lon="6.43747">
        <ele>2022</ele>
        <time>2018-10-17T10:16:40Z</time>
      </trkpt>
      <trkpt lat="45.82549" lon="6.43744">
        <ele>2020</ele>
        <time>2018-10-17T10:16:41Z</time>
      </trkpt>
      <trkpt lat="45.82549" lon="6.43744">
        <ele>2019</ele>
        <time>2018-10-17T10:16:42Z</time>
      </trkpt>
      <trkpt lat="45.82546" lon="6.43742">
        <ele>2017</ele>
        <time>2018-10-17T10:16:43Z</time>
      </trkpt>
      <trkpt lat="45.82545" lon="6.4374">
        <ele>2016</ele>
        <time>2018-10-17T10:16:44Z</time>
      </trkpt>
      <trkpt lat="45.82545" lon="6.4374">
        <ele>2015</ele>
        <time>2018-10-17T10:16:45Z</time>
      </trkpt>
      <trkpt lat="45.82541" lon="6.43738">
        <ele>2015</ele>
        <time>2018-10-17T10:16:46Z</time>
      </trkpt>
      <trkpt lat="45.82539" lon="6.43736">
        <ele>2015</ele>
        <time>2018-10-17T10:16:47Z</time>
      </trkpt>
      <trkpt lat="45.82538" lon="6.43734">
        <ele>2014</ele>
        <time>2018-10-17T10:16:48Z</time>
      </trkpt>
      <trkpt lat="45.82538" lon="6.43734">
        <ele>2013</ele>
        <time>2018-10-17T10:16:49Z</time>
      </trkpt>
      <trkpt lat="45.82536" lon="6.43732">
        <ele>2012</ele>
        <time>2018-10-17T10:16:50Z</time>
      </trkpt>
      <trkpt lat="45.82536" lon="6.43732">
        <ele>2012</ele>
        <time>2018-10-17T10:16:51Z</time>
      </trkpt>
      <trkpt lat="45.82533" lon="6.4373">
        <ele>2011</ele>
        <time>2018-10-17T10:16:52Z</time>
      </trkpt>
      <trkpt lat="45.82533" lon="6.4373">
        <ele>2011</ele>
        <time>2018-10-17T10:16:53Z</time>
      </trkpt>
      <trkpt lat="45.8253" lon="6.43729">
        <ele>2011</ele>
        <time>2018-10-17T10:16:54Z</time>
      </trkpt>
      <trkpt lat="45.8253" lon="6.43729">
        <ele>2010</ele>
        <time>2018-10-17T10:16:55Z</time>
      </trkpt>
      <trkpt lat="45.82527" lon="6.43728">
        <ele>2010</ele>
        <time>2018-10-17T10:16:56Z</time>
      </trkpt>
      <trkpt lat="45.82527" lon="6.43728">
        <ele>2010</ele>
        <time>2018-10-17T10:16:57Z</time>
      </trkpt>
      <trkpt lat="45.82525" lon="6.43725">
        <ele>2008</ele>
        <time>2018-10-17T10:16:58Z</time>
      </trkpt>
      <trkpt lat="45.82525" lon="6.43725">
        <ele>2007</ele>
        <time>2018-10-17T10:16:59Z</time>
      </trkpt>
      <trkpt lat="45.82523" lon="6.43724">
        <ele>2007</ele>
        <time>2018-10-17T10:17:00Z</time>
      </trkpt>
      <trkpt lat="45.82523" lon="6.43724">
        <ele>2007</ele>
        <time>2018-10-17T10:17:01Z</time>
      </trkpt>
      <trkpt lat="45.8252" lon="6.43722">
        <ele>2007</ele>
        <time>2018-10-17T10:17:02Z</time>
      </trkpt>
      <trkpt lat="45.8252" lon="6.43722">
        <ele>2007</ele>
        <time>2018-10-17T10:17:03Z</time>
      </trkpt>
      <trkpt lat="45.82517" lon="6.4372">
        <ele>2006</ele>
        <time>2018-10-17T10:17:04Z</time>
      </trkpt>
      <trkpt lat="45.82517" lon="6.4372">
        <ele>2005</ele>
        <time>2018-10-17T10:17:05Z</time>
      </trkpt>
      <trkpt lat="45.82515" lon="6.43718">
        <ele>2004</ele>
        <time>2018-10-17T10:17:06Z</time>
      </trkpt>
      <trkpt lat="45.82515" lon="6.43718">
        <ele>2004</ele>
        <time>2018-10-17T10:17:07Z</time>
      </trkpt>
      <trkpt lat="45.82513" lon="6.43716">
        <ele>2004</ele>
        <time>2018-10-17T10:17:08Z</time>
      </trkpt>
      <trkpt lat="45.82513" lon="6.43716">
        <ele>2004</ele>
        <time>2018-10-17T10:17:09Z</time>
      </trkpt>
      <trkpt lat="45.8251" lon="6.43715">
        <ele>2004</ele>
        <time>2018-10-17T10:17:10Z</time>
      </trkpt>
      <trkpt lat="45.8251" lon="6.43715">
        <ele>2003</ele>
        <time>2018-10-17T10:17:11Z</time>
      </trkpt>
      <trkpt lat="45.82508" lon="6.43714">
        <ele>2003</ele>
        <time>2018-10-17T10:17:12Z</time>
      </trkpt>
      <trkpt lat="45.82508" lon="6.43714">
        <ele>2003</ele>
        <time>2018-10-17T10:17:13Z</time>
      </trkpt>
      <trkpt lat="45.82505" lon="6.43714">
        <ele>2003</ele>
        <time>2018-10-17T10:17:14Z</time>
      </trkpt>
      <trkpt lat="45.82505" lon="6.43714">
        <ele>2002</ele>
        <time>2018-10-17T10:17:15Z</time>
      </trkpt>
      <trkpt lat="45.82503" lon="6.43713">
        <ele>2002</ele>
        <time>2018-10-17T10:17:16Z</time>
      </trkpt>
      <trkpt lat="45.82503" lon="6.43713">
        <ele>2002</ele>
        <time>2018-10-17T10:17:17Z</time>
      </trkpt>
      <trkpt lat="45.825" lon="6.43712">
        <ele>2002</ele>
        <time>2018-10-17T10:17:18Z</time>
      </trkpt>
      <trkpt lat="45.825" lon="6.43712">
        <ele>2002</ele>
        <time>2018-10-17T10:17:19Z</time>
      </trkpt>
      <trkpt lat="45.82497" lon="6.43713">
        <ele>2001</ele>
        <time>2018-10-17T10:17:20Z</time>
      </trkpt>
      <trkpt lat="45.82497" lon="6.43713">
        <ele>2001</ele>
        <time>2018-10-17T10:17:21Z</time>
      </trkpt>
      <trkpt lat="45.82494" lon="6.43714">
        <ele>2001</ele>
        <time>2018-10-17T10:17:22Z</time>
      </trkpt>
      <trkpt lat="45.82494" lon="6.43714">
        <ele>2001</ele>
        <time>2018-10-17T10:17:23Z</time>
      </trkpt>
      <trkpt lat="45.8249" lon="6.43713">
        <ele>2000</ele>
        <time>2018-10-17T10:17:24Z</time>
      </trkpt>
      <trkpt lat="45.8249" lon="6.43713">
        <ele>2000</ele>
        <time>2018-10-17T10:17:25Z</time>
      </trkpt>
      <trkpt lat="45.82487" lon="6.43713">
        <ele>2000</ele>
        <time>2018-10-17T10:17:26Z</time>
      </trkpt>
      <trkpt lat="45.82487" lon="6.43713">
        <ele>2000</ele>
        <time>2018-10-17T10:17:27Z</time>
      </trkpt>
      <trkpt lat="45.82485" lon="6.43712">
        <ele>2000</ele>
        <time>2018-10-17T10:17:28Z</time>
      </trkpt>
      <trkpt lat="45.82485" lon="6.43712">
        <ele>2000</ele>
        <time>2018-10-17T10:17:29Z</time>
      </trkpt>
      <trkpt lat="45.82482" lon="6.43711">
        <ele>2000</ele>
        <time>2018-10-17T10:17:30Z</time>
      </trkpt>
      <trkpt lat="45.82482" lon="6.43711">
        <ele>1999</ele>
        <time>2018-10-17T10:17:31Z</time>
      </trkpt>
      <trkpt lat="45.82479" lon="6.43711">
        <ele>1999</ele>
        <time>2018-10-17T10:17:32Z</time>
      </trkpt>
      <trkpt lat="45.82479" lon="6.43711">
        <ele>1999</ele>
        <time>2018-10-17T10:17:33Z</time>
      </trkpt>
      <trkpt lat="45.82476" lon="6.4371">
        <ele>1998</ele>
        <time>2018-10-17T10:17:34Z</time>
      </trkpt>
      <trkpt lat="45.82476" lon="6.4371">
        <ele>1998</ele>
        <time>2018-10-17T10:17:35Z</time>
      </trkpt>
      <trkpt lat="45.82474" lon="6.43707">
        <ele>1998</ele>
        <time>2018-10-17T10:17:36Z</time>
      </trkpt>
      <trkpt lat="45.82474" lon="6.43707">
        <ele>1997</ele>
        <time>2018-10-17T10:17:37Z</time>
      </trkpt>
      <trkpt lat="45.82471" lon="6.43706">
        <ele>1997</ele>
        <time>2018-10-17T10:17:38Z</time>
      </trkpt>
      <trkpt lat="45.82471" lon="6.43706">
        <ele>1996</ele>
        <time>2018-10-17T10:17:39Z</time>
      </trkpt>
      <trkpt lat="45.82468" lon="6.43705">
        <ele>1996</ele>
        <time>2018-10-17T10:17:40Z</time>
      </trkpt>
      <trkpt lat="45.82468" lon="6.43705">
        <ele>1995</ele>
        <time>2018-10-17T10:17:41Z</time>
      </trkpt>
      <trkpt lat="45.82466" lon="6.43704">
        <ele>1995</ele>
        <time>2018-10-17T10:17:42Z</time>
      </trkpt>
      <trkpt lat="45.82466" lon="6.43704">
        <ele>1994</ele>
        <time>2018-10-17T10:17:43Z</time>
      </trkpt>
      <trkpt lat="45.82463" lon="6.43702">
        <ele>1994</ele>
        <time>2018-10-17T10:17:44Z</time>
      </trkpt>
      <trkpt lat="45.82463" lon="6.43702">
        <ele>1993</ele>
        <time>2018-10-17T10:17:45Z</time>
      </trkpt>
      <trkpt lat="45.82461" lon="6.43701">
        <ele>1993</ele>
        <time>2018-10-17T10:17:46Z</time>
      </trkpt>
      <trkpt lat="45.82461" lon="6.43701">
        <ele>1993</ele>
        <time>2018-10-17T10:17:47Z</time>
      </trkpt>
      <trkpt lat="45.82458" lon="6.43699">
        <ele>1991</ele>
        <time>2018-10-17T10:17:48Z</time>
      </trkpt>
      <trkpt lat="45.82458" lon="6.43699">
        <ele>1990</ele>
        <time>2018-10-17T10:17:49Z</time>
      </trkpt>
      <trkpt lat="45.82454" lon="6.43698">
        <ele>1989</ele>
        <time>2018-10-17T10:17:50Z</time>
      </trkpt>
      <trkpt lat="45.82454" lon="6.43698">
        <ele>1988</ele>
        <time>2018-10-17T10:17:51Z</time>
      </trkpt>
      <trkpt lat="45.82451" lon="6.43697">
        <ele>1988</ele>
        <time>2018-10-17T10:17:52Z</time>
      </trkpt>
      <trkpt lat="45.82451" lon="6.43697">
        <ele>1987</ele>
        <time>2018-10-17T10:17:53Z</time>
      </trkpt>
      <trkpt lat="45.82448" lon="6.43696">
        <ele>1987</ele>
        <time>2018-10-17T10:17:54Z</time>
      </trkpt>
      <trkpt lat="45.82446" lon="6.43695">
        <ele>1987</ele>
        <time>2018-10-17T10:17:55Z</time>
      </trkpt>
      <trkpt lat="45.82446" lon="6.43695">
        <ele>1987</ele>
        <time>2018-10-17T10:17:56Z</time>
      </trkpt>
      <trkpt lat="45.82443" lon="6.43694">
        <ele>1986</ele>
        <time>2018-10-17T10:17:57Z</time>
      </trkpt>
      <trkpt lat="45.82441" lon="6.43694">
        <ele>1985</ele>
        <time>2018-10-17T10:17:58Z</time>
      </trkpt>
      <trkpt lat="45.82439" lon="6.43693">
        <ele>1985</ele>
        <time>2018-10-17T10:17:59Z</time>
      </trkpt>
      <trkpt lat="45.82437" lon="6.43692">
        <ele>1984</ele>
        <time>2018-10-17T10:18:00Z</time>
      </trkpt>
      <trkpt lat="45.82435" lon="6.43691">
        <ele>1982</ele>
        <time>2018-10-17T10:18:01Z</time>
      </trkpt>
      <trkpt lat="45.82432" lon="6.43689">
        <ele>1982</ele>
        <time>2018-10-17T10:18:02Z</time>
      </trkpt>
      <trkpt lat="45.82431" lon="6.43688">
        <ele>1982</ele>
        <time>2018-10-17T10:18:03Z</time>
      </trkpt>
      <trkpt lat="45.82429" lon="6.43686">
        <ele>1981</ele>
        <time>2018-10-17T10:18:04Z</time>
      </trkpt>
      <trkpt lat="45.82427" lon="6.43684">
        <ele>1981</ele>
        <time>2018-10-17T10:18:05Z</time>
      </trkpt>
      <trkpt lat="45.82425" lon="6.43683">
        <ele>1981</ele>
        <time>2018-10-17T10:18:06Z</time>
      </trkpt>
      <trkpt lat="45.82423" lon="6.43681">
        <ele>1981</ele>
        <time>2018-10-17T10:18:07Z</time>
      </trkpt>
      <trkpt lat="45.82421" lon="6.4368">
        <ele>1981</ele>
        <time>2018-10-17T10:18:08Z</time>
      </trkpt>
      <trkpt lat="45.82421" lon="6.4368">
        <ele>1980</ele>
        <time>2018-10-17T10:18:09Z</time>
      </trkpt>
      <trkpt lat="45.82418" lon="6.43677">
        <ele>1980</ele>
        <time>2018-10-17T10:18:10Z</time>
      </trkpt>
      <trkpt lat="45.82418" lon="6.43677">
        <ele>1980</ele>
        <time>2018-10-17T10:18:11Z</time>
      </trkpt>
      <trkpt lat="45.82415" lon="6.43676">
        <ele>1980</ele>
        <time>2018-10-17T10:18:12Z</time>
      </trkpt>
      <trkpt lat="45.82415" lon="6.43676">
        <ele>1980</ele>
        <time>2018-10-17T10:18:13Z</time>
      </trkpt>
      <trkpt lat="45.82413" lon="6.43675">
        <ele>1980</ele>
        <time>2018-10-17T10:18:14Z</time>
      </trkpt>
      <trkpt lat="45.82413" lon="6.43675">
        <ele>1980</ele>
        <time>2018-10-17T10:18:15Z</time>
      </trkpt>
      <trkpt lat="45.8241" lon="6.43673">
        <ele>1980</ele>
        <time>2018-10-17T10:18:16Z</time>
      </trkpt>
      <trkpt lat="45.8241" lon="6.43673">
        <ele>1980</ele>
        <time>2018-10-17T10:18:17Z</time>
      </trkpt>
      <trkpt lat="45.82408" lon="6.4367">
        <ele>1981</ele>
        <time>2018-10-17T10:18:18Z</time>
      </trkpt>
      <trkpt lat="45.82408" lon="6.4367">
        <ele>1981</ele>
        <time>2018-10-17T10:18:19Z</time>
      </trkpt>
      <trkpt lat="45.82406" lon="6.43667">
        <ele>1981</ele>
        <time>2018-10-17T10:18:20Z</time>
      </trkpt>
      <trkpt lat="45.82406" lon="6.43667">
        <ele>1981</ele>
        <time>2018-10-17T10:18:21Z</time>
      </trkpt>
      <trkpt lat="45.82404" lon="6.43663">
        <ele>1981</ele>
        <time>2018-10-17T10:18:22Z</time>
      </trkpt>
      <trkpt lat="45.82404" lon="6.43663">
        <ele>1981</ele>
        <time>2018-10-17T10:18:23Z</time>
      </trkpt>
      <trkpt lat="45.82402" lon="6.43661">
        <ele>1981</ele>
        <time>2018-10-17T10:18:24Z</time>
      </trkpt>
      <trkpt lat="45.82402" lon="6.43661">
        <ele>1981</ele>
        <time>2018-10-17T10:18:25Z</time>
      </trkpt>
      <trkpt lat="45.82399" lon="6.4366">
        <ele>1981</ele>
        <time>2018-10-17T10:18:26Z</time>
      </trkpt>
      <trkpt lat="45.82399" lon="6.4366">
        <ele>1981</ele>
        <time>2018-10-17T10:18:27Z</time>
      </trkpt>
      <trkpt lat="45.82397" lon="6.43658">
        <ele>1981</ele>
        <time>2018-10-17T10:18:28Z</time>
      </trkpt>
      <trkpt lat="45.82397" lon="6.43658">
        <ele>1981</ele>
        <time>2018-10-17T10:18:29Z</time>
      </trkpt>
      <trkpt lat="45.82394" lon="6.43656">
        <ele>1982</ele>
        <time>2018-10-17T10:18:30Z</time>
      </trkpt>
      <trkpt lat="45.82394" lon="6.43656">
        <ele>1982</ele>
        <time>2018-10-17T10:18:31Z</time>
      </trkpt>
      <trkpt lat="45.82391" lon="6.43655">
        <ele>1982</ele>
        <time>2018-10-17T10:18:32Z</time>
      </trkpt>
      <trkpt lat="45.82391" lon="6.43655">
        <ele>1982</ele>
        <time>2018-10-17T10:18:33Z</time>
      </trkpt>
      <trkpt lat="45.82388" lon="6.43653">
        <ele>1982</ele>
        <time>2018-10-17T10:18:34Z</time>
      </trkpt>
      <trkpt lat="45.82388" lon="6.43653">
        <ele>1982</ele>
        <time>2018-10-17T10:18:35Z</time>
      </trkpt>
      <trkpt lat="45.82386" lon="6.4365">
        <ele>1982</ele>
        <time>2018-10-17T10:18:36Z</time>
      </trkpt>
      <trkpt lat="45.82386" lon="6.4365">
        <ele>1982</ele>
        <time>2018-10-17T10:18:37Z</time>
      </trkpt>
      <trkpt lat="45.82383" lon="6.43647">
        <ele>1982</ele>
        <time>2018-10-17T10:18:38Z</time>
      </trkpt>
      <trkpt lat="45.82383" lon="6.43647">
        <ele>1982</ele>
        <time>2018-10-17T10:18:39Z</time>
      </trkpt>
      <trkpt lat="45.82381" lon="6.43644">
        <ele>1982</ele>
        <time>2018-10-17T10:18:40Z</time>
      </trkpt>
      <trkpt lat="45.82381" lon="6.43644">
        <ele>1982</ele>
        <time>2018-10-17T10:18:41Z</time>
      </trkpt>
      <trkpt lat="45.82379" lon="6.43642">
        <ele>1981</ele>
        <time>2018-10-17T10:18:42Z</time>
      </trkpt>
      <trkpt lat="45.82379" lon="6.43642">
        <ele>1980</ele>
        <time>2018-10-17T10:18:43Z</time>
      </trkpt>
      <trkpt lat="45.82377" lon="6.43639">
        <ele>1979</ele>
        <time>2018-10-17T10:18:44Z</time>
      </trkpt>
      <trkpt lat="45.82377" lon="6.43639">
        <ele>1979</ele>
        <time>2018-10-17T10:18:45Z</time>
      </trkpt>
      <trkpt lat="45.82375" lon="6.43636">
        <ele>1979</ele>
        <time>2018-10-17T10:18:46Z</time>
      </trkpt>
      <trkpt lat="45.82375" lon="6.43636">
        <ele>1979</ele>
        <time>2018-10-17T10:18:47Z</time>
      </trkpt>
      <trkpt lat="45.82373" lon="6.43633">
        <ele>1978</ele>
        <time>2018-10-17T10:18:48Z</time>
      </trkpt>
      <trkpt lat="45.82373" lon="6.43633">
        <ele>1978</ele>
        <time>2018-10-17T10:18:49Z</time>
      </trkpt>
      <trkpt lat="45.82371" lon="6.4363">
        <ele>1978</ele>
        <time>2018-10-17T10:18:50Z</time>
      </trkpt>
      <trkpt lat="45.82371" lon="6.4363">
        <ele>1978</ele>
        <time>2018-10-17T10:18:51Z</time>
      </trkpt>
      <trkpt lat="45.82368" lon="6.43629">
        <ele>1978</ele>
        <time>2018-10-17T10:18:52Z</time>
      </trkpt>
      <trkpt lat="45.82368" lon="6.43629">
        <ele>1977</ele>
        <time>2018-10-17T10:18:53Z</time>
      </trkpt>
      <trkpt lat="45.82366" lon="6.43627">
        <ele>1977</ele>
        <time>2018-10-17T10:18:54Z</time>
      </trkpt>
      <trkpt lat="45.82366" lon="6.43627">
        <ele>1977</ele>
        <time>2018-10-17T10:18:55Z</time>
      </trkpt>
      <trkpt lat="45.82363" lon="6.43624">
        <ele>1977</ele>
        <time>2018-10-17T10:18:56Z</time>
      </trkpt>
      <trkpt lat="45.82362" lon="6.43622">
        <ele>1976</ele>
        <time>2018-10-17T10:18:57Z</time>
      </trkpt>
      <trkpt lat="45.82362" lon="6.43622">
        <ele>1976</ele>
        <time>2018-10-17T10:18:58Z</time>
      </trkpt>
      <trkpt lat="45.8236" lon="6.43619">
        <ele>1976</ele>
        <time>2018-10-17T10:18:59Z</time>
      </trkpt>
      <trkpt lat="45.8236" lon="6.43619">
        <ele>1976</ele>
        <time>2018-10-17T10:19:00Z</time>
      </trkpt>
      <trkpt lat="45.82357" lon="6.43617">
        <ele>1975</ele>
        <time>2018-10-17T10:19:01Z</time>
      </trkpt>
      <trkpt lat="45.82357" lon="6.43617">
        <ele>1975</ele>
        <time>2018-10-17T10:19:02Z</time>
      </trkpt>
      <trkpt lat="45.82355" lon="6.43614">
        <ele>1975</ele>
        <time>2018-10-17T10:19:03Z</time>
      </trkpt>
      <trkpt lat="45.82355" lon="6.43614">
        <ele>1975</ele>
        <time>2018-10-17T10:19:04Z</time>
      </trkpt>
      <trkpt lat="45.82353" lon="6.43612">
        <ele>1975</ele>
        <time>2018-10-17T10:19:05Z</time>
      </trkpt>
      <trkpt lat="45.82353" lon="6.43612">
        <ele>1974</ele>
        <time>2018-10-17T10:19:06Z</time>
      </trkpt>
      <trkpt lat="45.8235" lon="6.43609">
        <ele>1974</ele>
        <time>2018-10-17T10:19:07Z</time>
      </trkpt>
      <trkpt lat="45.8235" lon="6.43609">
        <ele>1974</ele>
        <time>2018-10-17T10:19:08Z</time>
      </trkpt>
      <trkpt lat="45.82347" lon="6.43606">
        <ele>1974</ele>
        <time>2018-10-17T10:19:09Z</time>
      </trkpt>
      <trkpt lat="45.82346" lon="6.43605">
        <ele>1974</ele>
        <time>2018-10-17T10:19:10Z</time>
      </trkpt>
      <trkpt lat="45.82346" lon="6.43605">
        <ele>1973</ele>
        <time>2018-10-17T10:19:11Z</time>
      </trkpt>
      <trkpt lat="45.82344" lon="6.43601">
        <ele>1973</ele>
        <time>2018-10-17T10:19:12Z</time>
      </trkpt>
      <trkpt lat="45.82344" lon="6.43601">
        <ele>1973</ele>
        <time>2018-10-17T10:19:13Z</time>
      </trkpt>
      <trkpt lat="45.82341" lon="6.43598">
        <ele>1972</ele>
        <time>2018-10-17T10:19:14Z</time>
      </trkpt>
      <trkpt lat="45.82341" lon="6.43598">
        <ele>1972</ele>
        <time>2018-10-17T10:19:15Z</time>
      </trkpt>
      <trkpt lat="45.82339" lon="6.43596">
        <ele>1972</ele>
        <time>2018-10-17T10:19:16Z</time>
      </trkpt>
      <trkpt lat="45.82339" lon="6.43596">
        <ele>1972</ele>
        <time>2018-10-17T10:19:17Z</time>
      </trkpt>
      <trkpt lat="45.82336" lon="6.43593">
        <ele>1972</ele>
        <time>2018-10-17T10:19:18Z</time>
      </trkpt>
      <trkpt lat="45.82336" lon="6.43593">
        <ele>1972</ele>
        <time>2018-10-17T10:19:19Z</time>
      </trkpt>
      <trkpt lat="45.82334" lon="6.43591">
        <ele>1973</ele>
        <time>2018-10-17T10:19:20Z</time>
      </trkpt>
      <trkpt lat="45.82334" lon="6.43591">
        <ele>1973</ele>
        <time>2018-10-17T10:19:21Z</time>
      </trkpt>
      <trkpt lat="45.82331" lon="6.43589">
        <ele>1973</ele>
        <time>2018-10-17T10:19:22Z</time>
      </trkpt>
      <trkpt lat="45.82331" lon="6.43589">
        <ele>1972</ele>
        <time>2018-10-17T10:19:23Z</time>
      </trkpt>
      <trkpt lat="45.82328" lon="6.43586">
        <ele>1972</ele>
        <time>2018-10-17T10:19:24Z</time>
      </trkpt>
      <trkpt lat="45.82328" lon="6.43586">
        <ele>1972</ele>
        <time>2018-10-17T10:19:25Z</time>
      </trkpt>
      <trkpt lat="45.82325" lon="6.43584">
        <ele>1972</ele>
        <time>2018-10-17T10:19:26Z</time>
      </trkpt>
      <trkpt lat="45.82325" lon="6.43584">
        <ele>1972</ele>
        <time>2018-10-17T10:19:27Z</time>
      </trkpt>
      <trkpt lat="45.82323" lon="6.43582">
        <ele>1972</ele>
        <time>2018-10-17T10:19:28Z</time>
      </trkpt>
      <trkpt lat="45.82323" lon="6.43582">
        <ele>1972</ele>
        <time>2018-10-17T10:19:29Z</time>
      </trkpt>
      <trkpt lat="45.8232" lon="6.4358">
        <ele>1972</ele>
        <time>2018-10-17T10:19:30Z</time>
      </trkpt>
      <trkpt lat="45.8232" lon="6.4358">
        <ele>1972</ele>
        <time>2018-10-17T10:19:31Z</time>
      </trkpt>
      <trkpt lat="45.82317" lon="6.43578">
        <ele>1971</ele>
        <time>2018-10-17T10:19:32Z</time>
      </trkpt>
      <trkpt lat="45.82317" lon="6.43578">
        <ele>1971</ele>
        <time>2018-10-17T10:19:33Z</time>
      </trkpt>
      <trkpt lat="45.82314" lon="6.43576">
        <ele>1971</ele>
        <time>2018-10-17T10:19:34Z</time>
      </trkpt>
      <trkpt lat="45.82314" lon="6.43576">
        <ele>1971</ele>
        <time>2018-10-17T10:19:35Z</time>
      </trkpt>
      <trkpt lat="45.82311" lon="6.43573">
        <ele>1971</ele>
        <time>2018-10-17T10:19:36Z</time>
      </trkpt>
      <trkpt lat="45.82311" lon="6.43573">
        <ele>1971</ele>
        <time>2018-10-17T10:19:37Z</time>
      </trkpt>
      <trkpt lat="45.82309" lon="6.43571">
        <ele>1971</ele>
        <time>2018-10-17T10:19:38Z</time>
      </trkpt>
      <trkpt lat="45.82309" lon="6.43571">
        <ele>1971</ele>
        <time>2018-10-17T10:19:39Z</time>
      </trkpt>
      <trkpt lat="45.82306" lon="6.43569">
        <ele>1971</ele>
        <time>2018-10-17T10:19:40Z</time>
      </trkpt>
      <trkpt lat="45.82306" lon="6.43569">
        <ele>1971</ele>
        <time>2018-10-17T10:19:41Z</time>
      </trkpt>
      <trkpt lat="45.82304" lon="6.43567">
        <ele>1971</ele>
        <time>2018-10-17T10:19:42Z</time>
      </trkpt>
      <trkpt lat="45.82304" lon="6.43567">
        <ele>1971</ele>
        <time>2018-10-17T10:19:43Z</time>
      </trkpt>
      <trkpt lat="45.82301" lon="6.43564">
        <ele>1971</ele>
        <time>2018-10-17T10:19:44Z</time>
      </trkpt>
      <trkpt lat="45.82301" lon="6.43564">
        <ele>1970</ele>
        <time>2018-10-17T10:19:45Z</time>
      </trkpt>
      <trkpt lat="45.82298" lon="6.43561">
        <ele>1970</ele>
        <time>2018-10-17T10:19:46Z</time>
      </trkpt>
      <trkpt lat="45.82298" lon="6.43561">
        <ele>1969</ele>
        <time>2018-10-17T10:19:47Z</time>
      </trkpt>
      <trkpt lat="45.82296" lon="6.43558">
        <ele>1969</ele>
        <time>2018-10-17T10:19:48Z</time>
      </trkpt>
      <trkpt lat="45.82296" lon="6.43558">
        <ele>1969</ele>
        <time>2018-10-17T10:19:49Z</time>
      </trkpt>
      <trkpt lat="45.82293" lon="6.43555">
        <ele>1969</ele>
        <time>2018-10-17T10:19:50Z</time>
      </trkpt>
      <trkpt lat="45.82291" lon="6.43554">
        <ele>1968</ele>
        <time>2018-10-17T10:19:51Z</time>
      </trkpt>
      <trkpt lat="45.8229" lon="6.43552">
        <ele>1968</ele>
        <time>2018-10-17T10:19:52Z</time>
      </trkpt>
      <trkpt lat="45.8229" lon="6.43552">
        <ele>1967</ele>
        <time>2018-10-17T10:19:53Z</time>
      </trkpt>
      <trkpt lat="45.82287" lon="6.4355">
        <ele>1967</ele>
        <time>2018-10-17T10:19:54Z</time>
      </trkpt>
      <trkpt lat="45.82287" lon="6.4355">
        <ele>1967</ele>
        <time>2018-10-17T10:19:55Z</time>
      </trkpt>
      <trkpt lat="45.82284" lon="6.43548">
        <ele>1967</ele>
        <time>2018-10-17T10:19:56Z</time>
      </trkpt>
      <trkpt lat="45.82284" lon="6.43548">
        <ele>1967</ele>
        <time>2018-10-17T10:19:57Z</time>
      </trkpt>
      <trkpt lat="45.82281" lon="6.43546">
        <ele>1967</ele>
        <time>2018-10-17T10:19:58Z</time>
      </trkpt>
      <trkpt lat="45.82281" lon="6.43546">
        <ele>1967</ele>
        <time>2018-10-17T10:19:59Z</time>
      </trkpt>
      <trkpt lat="45.82279" lon="6.43544">
        <ele>1967</ele>
        <time>2018-10-17T10:20:00Z</time>
      </trkpt>
      <trkpt lat="45.82279" lon="6.43544">
        <ele>1967</ele>
        <time>2018-10-17T10:20:01Z</time>
      </trkpt>
      <trkpt lat="45.82276" lon="6.43542">
        <ele>1967</ele>
        <time>2018-10-17T10:20:02Z</time>
      </trkpt>
      <trkpt lat="45.82276" lon="6.43542">
        <ele>1967</ele>
        <time>2018-10-17T10:20:03Z</time>
      </trkpt>
      <trkpt lat="45.82274" lon="6.4354">
        <ele>1967</ele>
        <time>2018-10-17T10:20:04Z</time>
      </trkpt>
      <trkpt lat="45.82274" lon="6.4354">
        <ele>1967</ele>
        <time>2018-10-17T10:20:05Z</time>
      </trkpt>
      <trkpt lat="45.82271" lon="6.43537">
        <ele>1967</ele>
        <time>2018-10-17T10:20:06Z</time>
      </trkpt>
      <trkpt lat="45.82271" lon="6.43537">
        <ele>1967</ele>
        <time>2018-10-17T10:20:07Z</time>
      </trkpt>
      <trkpt lat="45.82268" lon="6.43536">
        <ele>1967</ele>
        <time>2018-10-17T10:20:08Z</time>
      </trkpt>
      <trkpt lat="45.82268" lon="6.43536">
        <ele>1967</ele>
        <time>2018-10-17T10:20:09Z</time>
      </trkpt>
      <trkpt lat="45.82266" lon="6.43533">
        <ele>1965</ele>
        <time>2018-10-17T10:20:10Z</time>
      </trkpt>
      <trkpt lat="45.82266" lon="6.43533">
        <ele>1965</ele>
        <time>2018-10-17T10:20:11Z</time>
      </trkpt>
      <trkpt lat="45.82263" lon="6.43532">
        <ele>1965</ele>
        <time>2018-10-17T10:20:12Z</time>
      </trkpt>
      <trkpt lat="45.82263" lon="6.43532">
        <ele>1965</ele>
        <time>2018-10-17T10:20:13Z</time>
      </trkpt>
      <trkpt lat="45.8226" lon="6.43531">
        <ele>1965</ele>
        <time>2018-10-17T10:20:14Z</time>
      </trkpt>
      <trkpt lat="45.8226" lon="6.43531">
        <ele>1965</ele>
        <time>2018-10-17T10:20:15Z</time>
      </trkpt>
      <trkpt lat="45.82257" lon="6.43529">
        <ele>1965</ele>
        <time>2018-10-17T10:20:16Z</time>
      </trkpt>
      <trkpt lat="45.82257" lon="6.43529">
        <ele>1965</ele>
        <time>2018-10-17T10:20:17Z</time>
      </trkpt>
      <trkpt lat="45.82254" lon="6.43528">
        <ele>1965</ele>
        <time>2018-10-17T10:20:18Z</time>
      </trkpt>
      <trkpt lat="45.82254" lon="6.43528">
        <ele>1965</ele>
        <time>2018-10-17T10:20:19Z</time>
      </trkpt>
      <trkpt lat="45.82252" lon="6.43526">
        <ele>1965</ele>
        <time>2018-10-17T10:20:20Z</time>
      </trkpt>
      <trkpt lat="45.82252" lon="6.43526">
        <ele>1965</ele>
        <time>2018-10-17T10:20:21Z</time>
      </trkpt>
      <trkpt lat="45.82249" lon="6.43524">
        <ele>1965</ele>
        <time>2018-10-17T10:20:22Z</time>
      </trkpt>
      <trkpt lat="45.82249" lon="6.43524">
        <ele>1965</ele>
        <time>2018-10-17T10:20:23Z</time>
      </trkpt>
      <trkpt lat="45.82247" lon="6.43521">
        <ele>1965</ele>
        <time>2018-10-17T10:20:24Z</time>
      </trkpt>
      <trkpt lat="45.82247" lon="6.43521">
        <ele>1965</ele>
        <time>2018-10-17T10:20:25Z</time>
      </trkpt>
      <trkpt lat="45.82245" lon="6.4352">
        <ele>1965</ele>
        <time>2018-10-17T10:20:26Z</time>
      </trkpt>
      <trkpt lat="45.82245" lon="6.4352">
        <ele>1965</ele>
        <time>2018-10-17T10:20:27Z</time>
      </trkpt>
      <trkpt lat="45.82242" lon="6.43519">
        <ele>1965</ele>
        <time>2018-10-17T10:20:28Z</time>
      </trkpt>
      <trkpt lat="45.82242" lon="6.43519">
        <ele>1965</ele>
        <time>2018-10-17T10:20:29Z</time>
      </trkpt>
      <trkpt lat="45.82239" lon="6.43516">
        <ele>1965</ele>
        <time>2018-10-17T10:20:30Z</time>
      </trkpt>
      <trkpt lat="45.82239" lon="6.43516">
        <ele>1965</ele>
        <time>2018-10-17T10:20:31Z</time>
      </trkpt>
      <trkpt lat="45.82237" lon="6.43515">
        <ele>1965</ele>
        <time>2018-10-17T10:20:32Z</time>
      </trkpt>
      <trkpt lat="45.82237" lon="6.43515">
        <ele>1965</ele>
        <time>2018-10-17T10:20:33Z</time>
      </trkpt>
      <trkpt lat="45.82234" lon="6.43513">
        <ele>1967</ele>
        <time>2018-10-17T10:20:34Z</time>
      </trkpt>
      <trkpt lat="45.82234" lon="6.43513">
        <ele>1967</ele>
        <time>2018-10-17T10:20:35Z</time>
      </trkpt>
      <trkpt lat="45.82231" lon="6.43512">
        <ele>1967</ele>
        <time>2018-10-17T10:20:36Z</time>
      </trkpt>
      <trkpt lat="45.82231" lon="6.43512">
        <ele>1967</ele>
        <time>2018-10-17T10:20:37Z</time>
      </trkpt>
      <trkpt lat="45.82229" lon="6.4351">
        <ele>1967</ele>
        <time>2018-10-17T10:20:38Z</time>
      </trkpt>
      <trkpt lat="45.82229" lon="6.4351">
        <ele>1967</ele>
        <time>2018-10-17T10:20:39Z</time>
      </trkpt>
      <trkpt lat="45.82226" lon="6.43508">
        <ele>1967</ele>
        <time>2018-10-17T10:20:40Z</time>
      </trkpt>
      <trkpt lat="45.82226" lon="6.43508">
        <ele>1967</ele>
        <time>2018-10-17T10:20:41Z</time>
      </trkpt>
      <trkpt lat="45.82224" lon="6.43506">
        <ele>1967</ele>
        <time>2018-10-17T10:20:42Z</time>
      </trkpt>
      <trkpt lat="45.82224" lon="6.43506">
        <ele>1967</ele>
        <time>2018-10-17T10:20:43Z</time>
      </trkpt>
      <trkpt lat="45.82221" lon="6.43504">
        <ele>1967</ele>
        <time>2018-10-17T10:20:44Z</time>
      </trkpt>
      <trkpt lat="45.82221" lon="6.43504">
        <ele>1967</ele>
        <time>2018-10-17T10:20:45Z</time>
      </trkpt>
      <trkpt lat="45.82219" lon="6.43502">
        <ele>1967</ele>
        <time>2018-10-17T10:20:46Z</time>
      </trkpt>
      <trkpt lat="45.82219" lon="6.43502">
        <ele>1967</ele>
        <time>2018-10-17T10:20:47Z</time>
      </trkpt>
      <trkpt lat="45.82217" lon="6.43501">
        <ele>1968</ele>
        <time>2018-10-17T10:20:48Z</time>
      </trkpt>
      <trkpt lat="45.82217" lon="6.43501">
        <ele>1969</ele>
        <time>2018-10-17T10:20:49Z</time>
      </trkpt>
      <trkpt lat="45.82215" lon="6.435">
        <ele>1969</ele>
        <time>2018-10-17T10:20:50Z</time>
      </trkpt>
      <trkpt lat="45.82215" lon="6.435">
        <ele>1969</ele>
        <time>2018-10-17T10:20:51Z</time>
      </trkpt>
      <trkpt lat="45.82213" lon="6.43498">
        <ele>1969</ele>
        <time>2018-10-17T10:20:52Z</time>
      </trkpt>
      <trkpt lat="45.82213" lon="6.43498">
        <ele>1969</ele>
        <time>2018-10-17T10:20:53Z</time>
      </trkpt>
      <trkpt lat="45.82211" lon="6.43497">
        <ele>1969</ele>
        <time>2018-10-17T10:20:54Z</time>
      </trkpt>
      <trkpt lat="45.82211" lon="6.43497">
        <ele>1970</ele>
        <time>2018-10-17T10:20:55Z</time>
      </trkpt>
      <trkpt lat="45.82209" lon="6.43496">
        <ele>1970</ele>
        <time>2018-10-17T10:20:56Z</time>
      </trkpt>
      <trkpt lat="45.82209" lon="6.43496">
        <ele>1970</ele>
        <time>2018-10-17T10:20:57Z</time>
      </trkpt>
      <trkpt lat="45.82209" lon="6.43496">
        <ele>1971</ele>
        <time>2018-10-17T10:20:58Z</time>
      </trkpt>
      <trkpt lat="45.82207" lon="6.43494">
        <ele>1971</ele>
        <time>2018-10-17T10:20:59Z</time>
      </trkpt>
      <trkpt lat="45.82207" lon="6.43494">
        <ele>1971</ele>
        <time>2018-10-17T10:21:00Z</time>
      </trkpt>
      <trkpt lat="45.82205" lon="6.43492">
        <ele>1972</ele>
        <time>2018-10-17T10:21:01Z</time>
      </trkpt>
      <trkpt lat="45.82205" lon="6.43492">
        <ele>1972</ele>
        <time>2018-10-17T10:21:02Z</time>
      </trkpt>
      <trkpt lat="45.82204" lon="6.43491">
        <ele>1972</ele>
        <time>2018-10-17T10:21:03Z</time>
      </trkpt>
      <trkpt lat="45.82204" lon="6.43491">
        <ele>1972</ele>
        <time>2018-10-17T10:21:04Z</time>
      </trkpt>
      <trkpt lat="45.82202" lon="6.4349">
        <ele>1972</ele>
        <time>2018-10-17T10:21:05Z</time>
      </trkpt>
      <trkpt lat="45.82202" lon="6.4349">
        <ele>1972</ele>
        <time>2018-10-17T10:21:06Z</time>
      </trkpt>
      <trkpt lat="45.822" lon="6.43489">
        <ele>1973</ele>
        <time>2018-10-17T10:21:07Z</time>
      </trkpt>
      <trkpt lat="45.822" lon="6.43489">
        <ele>1973</ele>
        <time>2018-10-17T10:21:08Z</time>
      </trkpt>
      <trkpt lat="45.822" lon="6.43489">
        <ele>1973</ele>
        <time>2018-10-17T10:21:09Z</time>
      </trkpt>
      <trkpt lat="45.82197" lon="6.43488">
        <ele>1973</ele>
        <time>2018-10-17T10:21:10Z</time>
      </trkpt>
      <trkpt lat="45.82197" lon="6.43488">
        <ele>1974</ele>
        <time>2018-10-17T10:21:11Z</time>
      </trkpt>
      <trkpt lat="45.82197" lon="6.43488">
        <ele>1974</ele>
        <time>2018-10-17T10:21:12Z</time>
      </trkpt>
      <trkpt lat="45.82195" lon="6.43487">
        <ele>1975</ele>
        <time>2018-10-17T10:21:13Z</time>
      </trkpt>
      <trkpt lat="45.82195" lon="6.43487">
        <ele>1975</ele>
        <time>2018-10-17T10:21:14Z</time>
      </trkpt>
      <trkpt lat="45.82195" lon="6.43487">
        <ele>1975</ele>
        <time>2018-10-17T10:21:15Z</time>
      </trkpt>
      <trkpt lat="45.82193" lon="6.43485">
        <ele>1975</ele>
        <time>2018-10-17T10:21:16Z</time>
      </trkpt>
      <trkpt lat="45.82193" lon="6.43485">
        <ele>1976</ele>
        <time>2018-10-17T10:21:17Z</time>
      </trkpt>
      <trkpt lat="45.82193" lon="6.43485">
        <ele>1976</ele>
        <time>2018-10-17T10:21:18Z</time>
      </trkpt>
      <trkpt lat="45.82191" lon="6.43483">
        <ele>1976</ele>
        <time>2018-10-17T10:21:19Z</time>
      </trkpt>
      <trkpt lat="45.82191" lon="6.43483">
        <ele>1976</ele>
        <time>2018-10-17T10:21:20Z</time>
      </trkpt>
      <trkpt lat="45.82191" lon="6.43483">
        <ele>1976</ele>
        <time>2018-10-17T10:21:21Z</time>
      </trkpt>
      <trkpt lat="45.82189" lon="6.43481">
        <ele>1976</ele>
        <time>2018-10-17T10:21:22Z</time>
      </trkpt>
      <trkpt lat="45.82189" lon="6.43481">
        <ele>1976</ele>
        <time>2018-10-17T10:21:23Z</time>
      </trkpt>
      <trkpt lat="45.82189" lon="6.43481">
        <ele>1977</ele>
        <time>2018-10-17T10:21:24Z</time>
      </trkpt>
      <trkpt lat="45.82187" lon="6.43479">
        <ele>1977</ele>
        <time>2018-10-17T10:21:25Z</time>
      </trkpt>
      <trkpt lat="45.82187" lon="6.43479">
        <ele>1978</ele>
        <time>2018-10-17T10:21:26Z</time>
      </trkpt>
      <trkpt lat="45.82186" lon="6.43478">
        <ele>1978</ele>
        <time>2018-10-17T10:21:27Z</time>
      </trkpt>
      <trkpt lat="45.82186" lon="6.43478">
        <ele>1978</ele>
        <time>2018-10-17T10:21:28Z</time>
      </trkpt>
      <trkpt lat="45.82184" lon="6.43476">
        <ele>1978</ele>
        <time>2018-10-17T10:21:29Z</time>
      </trkpt>
      <trkpt lat="45.82184" lon="6.43476">
        <ele>1979</ele>
        <time>2018-10-17T10:21:30Z</time>
      </trkpt>
      <trkpt lat="45.82183" lon="6.43473">
        <ele>1979</ele>
        <time>2018-10-17T10:21:31Z</time>
      </trkpt>
      <trkpt lat="45.82183" lon="6.43473">
        <ele>1979</ele>
        <time>2018-10-17T10:21:32Z</time>
      </trkpt>
      <trkpt lat="45.82181" lon="6.43471">
        <ele>1979</ele>
        <time>2018-10-17T10:21:33Z</time>
      </trkpt>
      <trkpt lat="45.82181" lon="6.43471">
        <ele>1979</ele>
        <time>2018-10-17T10:21:34Z</time>
      </trkpt>
      <trkpt lat="45.82181" lon="6.43471">
        <ele>1979</ele>
        <time>2018-10-17T10:21:35Z</time>
      </trkpt>
      <trkpt lat="45.82179" lon="6.43468">
        <ele>1980</ele>
        <time>2018-10-17T10:21:36Z</time>
      </trkpt>
      <trkpt lat="45.82179" lon="6.43468">
        <ele>1980</ele>
        <time>2018-10-17T10:21:37Z</time>
      </trkpt>
      <trkpt lat="45.82179" lon="6.43468">
        <ele>1981</ele>
        <time>2018-10-17T10:21:38Z</time>
      </trkpt>
      <trkpt lat="45.82178" lon="6.43466">
        <ele>1981</ele>
        <time>2018-10-17T10:21:39Z</time>
      </trkpt>
      <trkpt lat="45.82178" lon="6.43466">
        <ele>1981</ele>
        <time>2018-10-17T10:21:40Z</time>
      </trkpt>
      <trkpt lat="45.82176" lon="6.43464">
        <ele>1981</ele>
        <time>2018-10-17T10:21:41Z</time>
      </trkpt>
      <trkpt lat="45.82176" lon="6.43464">
        <ele>1982</ele>
        <time>2018-10-17T10:21:42Z</time>
      </trkpt>
      <trkpt lat="45.82175" lon="6.43461">
        <ele>1982</ele>
        <time>2018-10-17T10:21:43Z</time>
      </trkpt>
      <trkpt lat="45.82175" lon="6.43461">
        <ele>1982</ele>
        <time>2018-10-17T10:21:44Z</time>
      </trkpt>
      <trkpt lat="45.82174" lon="6.43458">
        <ele>1982</ele>
        <time>2018-10-17T10:21:45Z</time>
      </trkpt>
      <trkpt lat="45.82174" lon="6.43458">
        <ele>1982</ele>
        <time>2018-10-17T10:21:46Z</time>
      </trkpt>
      <trkpt lat="45.82172" lon="6.43456">
        <ele>1982</ele>
        <time>2018-10-17T10:21:47Z</time>
      </trkpt>
      <trkpt lat="45.82172" lon="6.43456">
        <ele>1982</ele>
        <time>2018-10-17T10:21:48Z</time>
      </trkpt>
      <trkpt lat="45.82172" lon="6.43456">
        <ele>1983</ele>
        <time>2018-10-17T10:21:49Z</time>
      </trkpt>
      <trkpt lat="45.82171" lon="6.43454">
        <ele>1983</ele>
        <time>2018-10-17T10:21:50Z</time>
      </trkpt>
      <trkpt lat="45.82171" lon="6.43454">
        <ele>1983</ele>
        <time>2018-10-17T10:21:51Z</time>
      </trkpt>
      <trkpt lat="45.82171" lon="6.43454">
        <ele>1983</ele>
        <time>2018-10-17T10:21:52Z</time>
      </trkpt>
      <trkpt lat="45.82169" lon="6.43451">
        <ele>1983</ele>
        <time>2018-10-17T10:21:53Z</time>
      </trkpt>
      <trkpt lat="45.82169" lon="6.43451">
        <ele>1985</ele>
        <time>2018-10-17T10:21:54Z</time>
      </trkpt>
      <trkpt lat="45.82168" lon="6.43449">
        <ele>1985</ele>
        <time>2018-10-17T10:21:55Z</time>
      </trkpt>
      <trkpt lat="45.82168" lon="6.43449">
        <ele>1986</ele>
        <time>2018-10-17T10:21:56Z</time>
      </trkpt>
      <trkpt lat="45.82166" lon="6.43447">
        <ele>1986</ele>
        <time>2018-10-17T10:21:57Z</time>
      </trkpt>
      <trkpt lat="45.82166" lon="6.43447">
        <ele>1986</ele>
        <time>2018-10-17T10:21:58Z</time>
      </trkpt>
      <trkpt lat="45.82165" lon="6.43444">
        <ele>1987</ele>
        <time>2018-10-17T10:21:59Z</time>
      </trkpt>
      <trkpt lat="45.82165" lon="6.43444">
        <ele>1987</ele>
        <time>2018-10-17T10:22:00Z</time>
      </trkpt>
      <trkpt lat="45.82163" lon="6.43442">
        <ele>1987</ele>
        <time>2018-10-17T10:22:01Z</time>
      </trkpt>
      <trkpt lat="45.82163" lon="6.43442">
        <ele>1987</ele>
        <time>2018-10-17T10:22:02Z</time>
      </trkpt>
      <trkpt lat="45.82162" lon="6.43439">
        <ele>1987</ele>
        <time>2018-10-17T10:22:03Z</time>
      </trkpt>
      <trkpt lat="45.82162" lon="6.43439">
        <ele>1987</ele>
        <time>2018-10-17T10:22:04Z</time>
      </trkpt>
      <trkpt lat="45.82161" lon="6.43436">
        <ele>1987</ele>
        <time>2018-10-17T10:22:05Z</time>
      </trkpt>
      <trkpt lat="45.82161" lon="6.43436">
        <ele>1988</ele>
        <time>2018-10-17T10:22:06Z</time>
      </trkpt>
      <trkpt lat="45.82159" lon="6.43434">
        <ele>1988</ele>
        <time>2018-10-17T10:22:07Z</time>
      </trkpt>
      <trkpt lat="45.82159" lon="6.43434">
        <ele>1988</ele>
        <time>2018-10-17T10:22:08Z</time>
      </trkpt>
      <trkpt lat="45.82157" lon="6.43432">
        <ele>1988</ele>
        <time>2018-10-17T10:22:09Z</time>
      </trkpt>
      <trkpt lat="45.82157" lon="6.43432">
        <ele>1988</ele>
        <time>2018-10-17T10:22:10Z</time>
      </trkpt>
      <trkpt lat="45.82156" lon="6.4343">
        <ele>1989</ele>
        <time>2018-10-17T10:22:11Z</time>
      </trkpt>
      <trkpt lat="45.82156" lon="6.4343">
        <ele>1989</ele>
        <time>2018-10-17T10:22:12Z</time>
      </trkpt>
      <trkpt lat="45.82154" lon="6.43428">
        <ele>1989</ele>
        <time>2018-10-17T10:22:13Z</time>
      </trkpt>
      <trkpt lat="45.82154" lon="6.43428">
        <ele>1990</ele>
        <time>2018-10-17T10:22:14Z</time>
      </trkpt>
      <trkpt lat="45.82152" lon="6.43427">
        <ele>1990</ele>
        <time>2018-10-17T10:22:15Z</time>
      </trkpt>
      <trkpt lat="45.82152" lon="6.43427">
        <ele>1990</ele>
        <time>2018-10-17T10:22:16Z</time>
      </trkpt>
      <trkpt lat="45.8215" lon="6.43424">
        <ele>1990</ele>
        <time>2018-10-17T10:22:17Z</time>
      </trkpt>
      <trkpt lat="45.8215" lon="6.43424">
        <ele>1990</ele>
        <time>2018-10-17T10:22:18Z</time>
      </trkpt>
      <trkpt lat="45.82149" lon="6.43421">
        <ele>1990</ele>
        <time>2018-10-17T10:22:19Z</time>
      </trkpt>
      <trkpt lat="45.82149" lon="6.43421">
        <ele>1990</ele>
        <time>2018-10-17T10:22:20Z</time>
      </trkpt>
      <trkpt lat="45.82149" lon="6.43418">
        <ele>1990</ele>
        <time>2018-10-17T10:22:21Z</time>
      </trkpt>
      <trkpt lat="45.82149" lon="6.43418">
        <ele>1990</ele>
        <time>2018-10-17T10:22:22Z</time>
      </trkpt>
      <trkpt lat="45.82147" lon="6.43415">
        <ele>1990</ele>
        <time>2018-10-17T10:22:23Z</time>
      </trkpt>
      <trkpt lat="45.82147" lon="6.43415">
        <ele>1990</ele>
        <time>2018-10-17T10:22:24Z</time>
      </trkpt>
      <trkpt lat="45.82146" lon="6.43413">
        <ele>1991</ele>
        <time>2018-10-17T10:22:25Z</time>
      </trkpt>
      <trkpt lat="45.82146" lon="6.43413">
        <ele>1992</ele>
        <time>2018-10-17T10:22:26Z</time>
      </trkpt>
      <trkpt lat="45.82145" lon="6.43411">
        <ele>1992</ele>
        <time>2018-10-17T10:22:27Z</time>
      </trkpt>
      <trkpt lat="45.82145" lon="6.43411">
        <ele>1992</ele>
        <time>2018-10-17T10:22:28Z</time>
      </trkpt>
      <trkpt lat="45.82144" lon="6.43407">
        <ele>1992</ele>
        <time>2018-10-17T10:22:29Z</time>
      </trkpt>
      <trkpt lat="45.82144" lon="6.43407">
        <ele>1992</ele>
        <time>2018-10-17T10:22:30Z</time>
      </trkpt>
      <trkpt lat="45.82143" lon="6.43404">
        <ele>1992</ele>
        <time>2018-10-17T10:22:31Z</time>
      </trkpt>
      <trkpt lat="45.82143" lon="6.43404">
        <ele>1992</ele>
        <time>2018-10-17T10:22:32Z</time>
      </trkpt>
      <trkpt lat="45.82142" lon="6.43401">
        <ele>1992</ele>
        <time>2018-10-17T10:22:33Z</time>
      </trkpt>
      <trkpt lat="45.82142" lon="6.43401">
        <ele>1992</ele>
        <time>2018-10-17T10:22:34Z</time>
      </trkpt>
      <trkpt lat="45.82141" lon="6.43398">
        <ele>1993</ele>
        <time>2018-10-17T10:22:35Z</time>
      </trkpt>
      <trkpt lat="45.82141" lon="6.43398">
        <ele>1993</ele>
        <time>2018-10-17T10:22:36Z</time>
      </trkpt>
      <trkpt lat="45.82139" lon="6.43396">
        <ele>1994</ele>
        <time>2018-10-17T10:22:37Z</time>
      </trkpt>
      <trkpt lat="45.82139" lon="6.43396">
        <ele>1994</ele>
        <time>2018-10-17T10:22:38Z</time>
      </trkpt>
      <trkpt lat="45.82138" lon="6.43393">
        <ele>1994</ele>
        <time>2018-10-17T10:22:39Z</time>
      </trkpt>
      <trkpt lat="45.82138" lon="6.43393">
        <ele>1994</ele>
        <time>2018-10-17T10:22:40Z</time>
      </trkpt>
      <trkpt lat="45.82138" lon="6.43389">
        <ele>1994</ele>
        <time>2018-10-17T10:22:41Z</time>
      </trkpt>
      <trkpt lat="45.82138" lon="6.43389">
        <ele>1994</ele>
        <time>2018-10-17T10:22:42Z</time>
      </trkpt>
      <trkpt lat="45.82138" lon="6.43386">
        <ele>1994</ele>
        <time>2018-10-17T10:22:43Z</time>
      </trkpt>
      <trkpt lat="45.82138" lon="6.43386">
        <ele>1994</ele>
        <time>2018-10-17T10:22:44Z</time>
      </trkpt>
      <trkpt lat="45.82137" lon="6.43383">
        <ele>1995</ele>
        <time>2018-10-17T10:22:45Z</time>
      </trkpt>
      <trkpt lat="45.82137" lon="6.43383">
        <ele>1995</ele>
        <time>2018-10-17T10:22:46Z</time>
      </trkpt>
      <trkpt lat="45.82136" lon="6.43379">
        <ele>1995</ele>
        <time>2018-10-17T10:22:47Z</time>
      </trkpt>
      <trkpt lat="45.82136" lon="6.43379">
        <ele>1995</ele>
        <time>2018-10-17T10:22:48Z</time>
      </trkpt>
      <trkpt lat="45.82135" lon="6.43376">
        <ele>1995</ele>
        <time>2018-10-17T10:22:49Z</time>
      </trkpt>
      <trkpt lat="45.82135" lon="6.43376">
        <ele>1995</ele>
        <time>2018-10-17T10:22:50Z</time>
      </trkpt>
      <trkpt lat="45.82133" lon="6.43373">
        <ele>1995</ele>
        <time>2018-10-17T10:22:51Z</time>
      </trkpt>
      <trkpt lat="45.82133" lon="6.43373">
        <ele>1995</ele>
        <time>2018-10-17T10:22:52Z</time>
      </trkpt>
      <trkpt lat="45.82131" lon="6.4337">
        <ele>1995</ele>
        <time>2018-10-17T10:22:53Z</time>
      </trkpt>
      <trkpt lat="45.82131" lon="6.4337">
        <ele>1995</ele>
        <time>2018-10-17T10:22:54Z</time>
      </trkpt>
      <trkpt lat="45.82129" lon="6.43367">
        <ele>1996</ele>
        <time>2018-10-17T10:22:55Z</time>
      </trkpt>
      <trkpt lat="45.82129" lon="6.43367">
        <ele>1996</ele>
        <time>2018-10-17T10:22:56Z</time>
      </trkpt>
      <trkpt lat="45.82127" lon="6.43364">
        <ele>1996</ele>
        <time>2018-10-17T10:22:57Z</time>
      </trkpt>
      <trkpt lat="45.82127" lon="6.43364">
        <ele>1996</ele>
        <time>2018-10-17T10:22:58Z</time>
      </trkpt>
      <trkpt lat="45.82125" lon="6.43361">
        <ele>1996</ele>
        <time>2018-10-17T10:22:59Z</time>
      </trkpt>
      <trkpt lat="45.82125" lon="6.43361">
        <ele>1996</ele>
        <time>2018-10-17T10:23:00Z</time>
      </trkpt>
      <trkpt lat="45.82124" lon="6.43358">
        <ele>1996</ele>
        <time>2018-10-17T10:23:01Z</time>
      </trkpt>
      <trkpt lat="45.82124" lon="6.43358">
        <ele>1996</ele>
        <time>2018-10-17T10:23:02Z</time>
      </trkpt>
      <trkpt lat="45.82122" lon="6.43355">
        <ele>1996</ele>
        <time>2018-10-17T10:23:03Z</time>
      </trkpt>
      <trkpt lat="45.82122" lon="6.43355">
        <ele>1996</ele>
        <time>2018-10-17T10:23:04Z</time>
      </trkpt>
      <trkpt lat="45.82121" lon="6.43353">
        <ele>1997</ele>
        <time>2018-10-17T10:23:05Z</time>
      </trkpt>
      <trkpt lat="45.82121" lon="6.43353">
        <ele>1997</ele>
        <time>2018-10-17T10:23:06Z</time>
      </trkpt>
      <trkpt lat="45.8212" lon="6.43351">
        <ele>1997</ele>
        <time>2018-10-17T10:23:07Z</time>
      </trkpt>
      <trkpt lat="45.8212" lon="6.43351">
        <ele>1997</ele>
        <time>2018-10-17T10:23:08Z</time>
      </trkpt>
      <trkpt lat="45.82119" lon="6.43349">
        <ele>1997</ele>
        <time>2018-10-17T10:23:09Z</time>
      </trkpt>
      <trkpt lat="45.82119" lon="6.43349">
        <ele>1997</ele>
        <time>2018-10-17T10:23:10Z</time>
      </trkpt>
      <trkpt lat="45.82119" lon="6.43349">
        <ele>1997</ele>
        <time>2018-10-17T10:23:11Z</time>
      </trkpt>
      <trkpt lat="45.82117" lon="6.43347">
        <ele>1998</ele>
        <time>2018-10-17T10:23:12Z</time>
      </trkpt>
      <trkpt lat="45.82117" lon="6.43347">
        <ele>1998</ele>
        <time>2018-10-17T10:23:13Z</time>
      </trkpt>
      <trkpt lat="45.82117" lon="6.43347">
        <ele>1998</ele>
        <time>2018-10-17T10:23:14Z</time>
      </trkpt>
      <trkpt lat="45.82115" lon="6.43345">
        <ele>1998</ele>
        <time>2018-10-17T10:23:15Z</time>
      </trkpt>
      <trkpt lat="45.82115" lon="6.43345">
        <ele>2000</ele>
        <time>2018-10-17T10:23:16Z</time>
      </trkpt>
      <trkpt lat="45.82115" lon="6.43345">
        <ele>2001</ele>
        <time>2018-10-17T10:23:17Z</time>
      </trkpt>
      <trkpt lat="45.82113" lon="6.43343">
        <ele>2001</ele>
        <time>2018-10-17T10:23:18Z</time>
      </trkpt>
      <trkpt lat="45.82113" lon="6.43343">
        <ele>2001</ele>
        <time>2018-10-17T10:23:19Z</time>
      </trkpt>
      <trkpt lat="45.82113" lon="6.43343">
        <ele>2001</ele>
        <time>2018-10-17T10:23:20Z</time>
      </trkpt>
      <trkpt lat="45.82111" lon="6.43342">
        <ele>2002</ele>
        <time>2018-10-17T10:23:21Z</time>
      </trkpt>
      <trkpt lat="45.82111" lon="6.43342">
        <ele>2002</ele>
        <time>2018-10-17T10:23:22Z</time>
      </trkpt>
      <trkpt lat="45.82111" lon="6.43342">
        <ele>2002</ele>
        <time>2018-10-17T10:23:23Z</time>
      </trkpt>
      <trkpt lat="45.82109" lon="6.43341">
        <ele>2002</ele>
        <time>2018-10-17T10:23:24Z</time>
      </trkpt>
      <trkpt lat="45.82109" lon="6.43341">
        <ele>2003</ele>
        <time>2018-10-17T10:23:25Z</time>
      </trkpt>
      <trkpt lat="45.82109" lon="6.43341">
        <ele>2003</ele>
        <time>2018-10-17T10:23:26Z</time>
      </trkpt>
      <trkpt lat="45.82108" lon="6.43339">
        <ele>2004</ele>
        <time>2018-10-17T10:23:27Z</time>
      </trkpt>
      <trkpt lat="45.82108" lon="6.43339">
        <ele>2004</ele>
        <time>2018-10-17T10:23:28Z</time>
      </trkpt>
      <trkpt lat="45.82108" lon="6.43339">
        <ele>2004</ele>
        <time>2018-10-17T10:23:29Z</time>
      </trkpt>
      <trkpt lat="45.82106" lon="6.43338">
        <ele>2005</ele>
        <time>2018-10-17T10:23:30Z</time>
      </trkpt>
      <trkpt lat="45.82106" lon="6.43338">
        <ele>2005</ele>
        <time>2018-10-17T10:23:31Z</time>
      </trkpt>
      <trkpt lat="45.82106" lon="6.43338">
        <ele>2006</ele>
        <time>2018-10-17T10:23:32Z</time>
      </trkpt>
      <trkpt lat="45.82104" lon="6.43337">
        <ele>2006</ele>
        <time>2018-10-17T10:23:33Z</time>
      </trkpt>
      <trkpt lat="45.82104" lon="6.43337">
        <ele>2006</ele>
        <time>2018-10-17T10:23:34Z</time>
      </trkpt>
      <trkpt lat="45.82104" lon="6.43337">
        <ele>2006</ele>
        <time>2018-10-17T10:23:35Z</time>
      </trkpt>
      <trkpt lat="45.82102" lon="6.43334">
        <ele>2006</ele>
        <time>2018-10-17T10:23:36Z</time>
      </trkpt>
      <trkpt lat="45.82102" lon="6.43334">
        <ele>2006</ele>
        <time>2018-10-17T10:23:37Z</time>
      </trkpt>
      <trkpt lat="45.82102" lon="6.43334">
        <ele>2007</ele>
        <time>2018-10-17T10:23:38Z</time>
      </trkpt>
      <trkpt lat="45.82101" lon="6.43332">
        <ele>2007</ele>
        <time>2018-10-17T10:23:39Z</time>
      </trkpt>
      <trkpt lat="45.82101" lon="6.43332">
        <ele>2007</ele>
        <time>2018-10-17T10:23:40Z</time>
      </trkpt>
      <trkpt lat="45.82101" lon="6.43332">
        <ele>2008</ele>
        <time>2018-10-17T10:23:41Z</time>
      </trkpt>
      <trkpt lat="45.82101" lon="6.43329">
        <ele>2008</ele>
        <time>2018-10-17T10:23:42Z</time>
      </trkpt>
      <trkpt lat="45.82101" lon="6.43329">
        <ele>2008</ele>
        <time>2018-10-17T10:23:43Z</time>
      </trkpt>
      <trkpt lat="45.82101" lon="6.43329">
        <ele>2009</ele>
        <time>2018-10-17T10:23:44Z</time>
      </trkpt>
      <trkpt lat="45.82101" lon="6.43329">
        <ele>2009</ele>
        <time>2018-10-17T10:23:45Z</time>
      </trkpt>
      <trkpt lat="45.82101" lon="6.43329">
        <ele>2009</ele>
        <time>2018-10-17T10:23:46Z</time>
      </trkpt>
      <trkpt lat="45.82099" lon="6.43328">
        <ele>2009</ele>
        <time>2018-10-17T10:23:47Z</time>
      </trkpt>
      <trkpt lat="45.82099" lon="6.43328">
        <ele>2010</ele>
        <time>2018-10-17T10:23:48Z</time>
      </trkpt>
      <trkpt lat="45.82099" lon="6.43328">
        <ele>2010</ele>
        <time>2018-10-17T10:23:49Z</time>
      </trkpt>
      <trkpt lat="45.82097" lon="6.43326">
        <ele>2010</ele>
        <time>2018-10-17T10:23:50Z</time>
      </trkpt>
      <trkpt lat="45.82097" lon="6.43326">
        <ele>2011</ele>
        <time>2018-10-17T10:23:51Z</time>
      </trkpt>
      <trkpt lat="45.82097" lon="6.43326">
        <ele>2011</ele>
        <time>2018-10-17T10:23:52Z</time>
      </trkpt>
      <trkpt lat="45.82096" lon="6.43325">
        <ele>2011</ele>
        <time>2018-10-17T10:23:53Z</time>
      </trkpt>
      <trkpt lat="45.82096" lon="6.43325">
        <ele>2011</ele>
        <time>2018-10-17T10:23:54Z</time>
      </trkpt>
      <trkpt lat="45.82094" lon="6.43322">
        <ele>2012</ele>
        <time>2018-10-17T10:23:55Z</time>
      </trkpt>
      <trkpt lat="45.82094" lon="6.43322">
        <ele>2012</ele>
        <time>2018-10-17T10:23:56Z</time>
      </trkpt>
      <trkpt lat="45.82094" lon="6.43322">
        <ele>2012</ele>
        <time>2018-10-17T10:23:57Z</time>
      </trkpt>
      <trkpt lat="45.82093" lon="6.4332">
        <ele>2013</ele>
        <time>2018-10-17T10:23:58Z</time>
      </trkpt>
      <trkpt lat="45.82093" lon="6.4332">
        <ele>2013</ele>
        <time>2018-10-17T10:23:59Z</time>
      </trkpt>
      <trkpt lat="45.82093" lon="6.4332">
        <ele>2013</ele>
        <time>2018-10-17T10:24:00Z</time>
      </trkpt>
      <trkpt lat="45.82091" lon="6.43318">
        <ele>2013</ele>
        <time>2018-10-17T10:24:01Z</time>
      </trkpt>
      <trkpt lat="45.82091" lon="6.43318">
        <ele>2013</ele>
        <time>2018-10-17T10:24:02Z</time>
      </trkpt>
      <trkpt lat="45.82091" lon="6.43318">
        <ele>2013</ele>
        <time>2018-10-17T10:24:03Z</time>
      </trkpt>
      <trkpt lat="45.82091" lon="6.43315">
        <ele>2013</ele>
        <time>2018-10-17T10:24:04Z</time>
      </trkpt>
      <trkpt lat="45.82091" lon="6.43315">
        <ele>2014</ele>
        <time>2018-10-17T10:24:05Z</time>
      </trkpt>
      <trkpt lat="45.82091" lon="6.43315">
        <ele>2014</ele>
        <time>2018-10-17T10:24:06Z</time>
      </trkpt>
      <trkpt lat="45.8209" lon="6.43312">
        <ele>2014</ele>
        <time>2018-10-17T10:24:07Z</time>
      </trkpt>
      <trkpt lat="45.8209" lon="6.43312">
        <ele>2014</ele>
        <time>2018-10-17T10:24:08Z</time>
      </trkpt>
      <trkpt lat="45.82089" lon="6.43309">
        <ele>2014</ele>
        <time>2018-10-17T10:24:09Z</time>
      </trkpt>
      <trkpt lat="45.82089" lon="6.43309">
        <ele>2015</ele>
        <time>2018-10-17T10:24:10Z</time>
      </trkpt>
      <trkpt lat="45.82089" lon="6.43306">
        <ele>2015</ele>
        <time>2018-10-17T10:24:11Z</time>
      </trkpt>
      <trkpt lat="45.82089" lon="6.43306">
        <ele>2015</ele>
        <time>2018-10-17T10:24:12Z</time>
      </trkpt>
      <trkpt lat="45.82088" lon="6.43304">
        <ele>2015</ele>
        <time>2018-10-17T10:24:13Z</time>
      </trkpt>
      <trkpt lat="45.82088" lon="6.43304">
        <ele>2016</ele>
        <time>2018-10-17T10:24:14Z</time>
      </trkpt>
      <trkpt lat="45.82088" lon="6.43301">
        <ele>2016</ele>
        <time>2018-10-17T10:24:15Z</time>
      </trkpt>
      <trkpt lat="45.82088" lon="6.43301">
        <ele>2017</ele>
        <time>2018-10-17T10:24:16Z</time>
      </trkpt>
      <trkpt lat="45.82088" lon="6.43301">
        <ele>2017</ele>
        <time>2018-10-17T10:24:17Z</time>
      </trkpt>
      <trkpt lat="45.82086" lon="6.43298">
        <ele>2017</ele>
        <time>2018-10-17T10:24:18Z</time>
      </trkpt>
      <trkpt lat="45.82086" lon="6.43298">
        <ele>2017</ele>
        <time>2018-10-17T10:24:19Z</time>
      </trkpt>
      <trkpt lat="45.82086" lon="6.43298">
        <ele>2018</ele>
        <time>2018-10-17T10:24:20Z</time>
      </trkpt>
      <trkpt lat="45.82085" lon="6.43295">
        <ele>2018</ele>
        <time>2018-10-17T10:24:21Z</time>
      </trkpt>
      <trkpt lat="45.82085" lon="6.43295">
        <ele>2018</ele>
        <time>2018-10-17T10:24:22Z</time>
      </trkpt>
      <trkpt lat="45.82085" lon="6.43295">
        <ele>2019</ele>
        <time>2018-10-17T10:24:23Z</time>
      </trkpt>
      <trkpt lat="45.82085" lon="6.43295">
        <ele>2019</ele>
        <time>2018-10-17T10:24:24Z</time>
      </trkpt>
      <trkpt lat="45.82083" lon="6.43294">
        <ele>2019</ele>
        <time>2018-10-17T10:24:25Z</time>
      </trkpt>
      <trkpt lat="45.82083" lon="6.43294">
        <ele>2019</ele>
        <time>2018-10-17T10:24:26Z</time>
      </trkpt>
      <trkpt lat="45.82083" lon="6.43294">
        <ele>2019</ele>
        <time>2018-10-17T10:24:27Z</time>
      </trkpt>
      <trkpt lat="45.82081" lon="6.43291">
        <ele>2019</ele>
        <time>2018-10-17T10:24:28Z</time>
      </trkpt>
      <trkpt lat="45.82081" lon="6.43291">
        <ele>2019</ele>
        <time>2018-10-17T10:24:29Z</time>
      </trkpt>
      <trkpt lat="45.82081" lon="6.43291">
        <ele>2020</ele>
        <time>2018-10-17T10:24:30Z</time>
      </trkpt>
      <trkpt lat="45.8208" lon="6.43289">
        <ele>2020</ele>
        <time>2018-10-17T10:24:31Z</time>
      </trkpt>
      <trkpt lat="45.8208" lon="6.43289">
        <ele>2020</ele>
        <time>2018-10-17T10:24:32Z</time>
      </trkpt>
      <trkpt lat="45.8208" lon="6.43289">
        <ele>2020</ele>
        <time>2018-10-17T10:24:33Z</time>
      </trkpt>
      <trkpt lat="45.82079" lon="6.43287">
        <ele>2020</ele>
        <time>2018-10-17T10:24:34Z</time>
      </trkpt>
      <trkpt lat="45.82079" lon="6.43287">
        <ele>2021</ele>
        <time>2018-10-17T10:24:35Z</time>
      </trkpt>
      <trkpt lat="45.82079" lon="6.43287">
        <ele>2021</ele>
        <time>2018-10-17T10:24:36Z</time>
      </trkpt>
      <trkpt lat="45.82079" lon="6.43287">
        <ele>2022</ele>
        <time>2018-10-17T10:24:37Z</time>
      </trkpt>
      <trkpt lat="45.82078" lon="6.43284">
        <ele>2022</ele>
        <time>2018-10-17T10:24:38Z</time>
      </trkpt>
      <trkpt lat="45.82078" lon="6.43284">
        <ele>2022</ele>
        <time>2018-10-17T10:24:39Z</time>
      </trkpt>
      <trkpt lat="45.82078" lon="6.43284">
        <ele>2022</ele>
        <time>2018-10-17T10:24:40Z</time>
      </trkpt>
      <trkpt lat="45.82078" lon="6.43284">
        <ele>2023</ele>
        <time>2018-10-17T10:24:41Z</time>
      </trkpt>
      <trkpt lat="45.82077" lon="6.43281">
        <ele>2023</ele>
        <time>2018-10-17T10:24:42Z</time>
      </trkpt>
      <trkpt lat="45.82077" lon="6.43281">
        <ele>2023</ele>
        <time>2018-10-17T10:24:43Z</time>
      </trkpt>
      <trkpt lat="45.82077" lon="6.43281">
        <ele>2024</ele>
        <time>2018-10-17T10:24:44Z</time>
      </trkpt>
      <trkpt lat="45.82077" lon="6.43281">
        <ele>2024</ele>
        <time>2018-10-17T10:24:45Z</time>
      </trkpt>
      <trkpt lat="45.82076" lon="6.43278">
        <ele>2024</ele>
        <time>2018-10-17T10:24:46Z</time>
      </trkpt>
      <trkpt lat="45.82076" lon="6.43278">
        <ele>2025</ele>
        <time>2018-10-17T10:24:47Z</time>
      </trkpt>
      <trkpt lat="45.82076" lon="6.43278">
        <ele>2025</ele>
        <time>2018-10-17T10:24:48Z</time>
      </trkpt>
      <trkpt lat="45.82076" lon="6.43278">
        <ele>2025</ele>
        <time>2018-10-17T10:24:49Z</time>
      </trkpt>
      <trkpt lat="45.82076" lon="6.43275">
        <ele>2025</ele>
        <time>2018-10-17T10:24:50Z</time>
      </trkpt>
      <trkpt lat="45.82076" lon="6.43275">
        <ele>2026</ele>
        <time>2018-10-17T10:24:51Z</time>
      </trkpt>
      <trkpt lat="45.82076" lon="6.43275">
        <ele>2026</ele>
        <time>2018-10-17T10:24:52Z</time>
      </trkpt>
      <trkpt lat="45.82076" lon="6.43275">
        <ele>2026</ele>
        <time>2018-10-17T10:24:53Z</time>
      </trkpt>
      <trkpt lat="45.82076" lon="6.43275">
        <ele>2026</ele>
        <time>2018-10-17T10:24:54Z</time>
      </trkpt>
      <trkpt lat="45.82075" lon="6.43272">
        <ele>2027</ele>
        <time>2018-10-17T10:24:55Z</time>
      </trkpt>
      <trkpt lat="45.82075" lon="6.43272">
        <ele>2027</ele>
        <time>2018-10-17T10:24:56Z</time>
      </trkpt>
      <trkpt lat="45.82075" lon="6.43272">
        <ele>2027</ele>
        <time>2018-10-17T10:24:57Z</time>
      </trkpt>
      <trkpt lat="45.82075" lon="6.43272">
        <ele>2028</ele>
        <time>2018-10-17T10:24:58Z</time>
      </trkpt>
      <trkpt lat="45.82074" lon="6.4327">
        <ele>2028</ele>
        <time>2018-10-17T10:24:59Z</time>
      </trkpt>
      <trkpt lat="45.82074" lon="6.4327">
        <ele>2028</ele>
        <time>2018-10-17T10:25:00Z</time>
      </trkpt>
      <trkpt lat="45.82074" lon="6.4327">
        <ele>2028</ele>
        <time>2018-10-17T10:25:01Z</time>
      </trkpt>
      <trkpt lat="45.82074" lon="6.4327">
        <ele>2028</ele>
        <time>2018-10-17T10:25:02Z</time>
      </trkpt>
      <trkpt lat="45.82073" lon="6.43268">
        <ele>2028</ele>
        <time>2018-10-17T10:25:03Z</time>
      </trkpt>
      <trkpt lat="45.82073" lon="6.43268">
        <ele>2028</ele>
        <time>2018-10-17T10:25:04Z</time>
      </trkpt>
      <trkpt lat="45.82073" lon="6.43268">
        <ele>2028</ele>
        <time>2018-10-17T10:25:05Z</time>
      </trkpt>
      <trkpt lat="45.82073" lon="6.43268">
        <ele>2028</ele>
        <time>2018-10-17T10:25:06Z</time>
      </trkpt>
      <trkpt lat="45.82071" lon="6.43267">
        <ele>2029</ele>
        <time>2018-10-17T10:25:07Z</time>
      </trkpt>
      <trkpt lat="45.82071" lon="6.43267">
        <ele>2029</ele>
        <time>2018-10-17T10:25:08Z</time>
      </trkpt>
      <trkpt lat="45.82071" lon="6.43267">
        <ele>2029</ele>
        <time>2018-10-17T10:25:09Z</time>
      </trkpt>
      <trkpt lat="45.82071" lon="6.43267">
        <ele>2029</ele>
        <time>2018-10-17T10:25:10Z</time>
      </trkpt>
      <trkpt lat="45.8207" lon="6.43265">
        <ele>2029</ele>
        <time>2018-10-17T10:25:11Z</time>
      </trkpt>
      <trkpt lat="45.8207" lon="6.43265">
        <ele>2029</ele>
        <time>2018-10-17T10:25:12Z</time>
      </trkpt>
      <trkpt lat="45.8207" lon="6.43265">
        <ele>2029</ele>
        <time>2018-10-17T10:25:13Z</time>
      </trkpt>
      <trkpt lat="45.8207" lon="6.43265">
        <ele>2030</ele>
        <time>2018-10-17T10:25:14Z</time>
      </trkpt>
      <trkpt lat="45.82071" lon="6.43262">
        <ele>2030</ele>
        <time>2018-10-17T10:25:15Z</time>
      </trkpt>
      <trkpt lat="45.82071" lon="6.43262">
        <ele>2031</ele>
        <time>2018-10-17T10:25:16Z</time>
      </trkpt>
      <trkpt lat="45.82071" lon="6.43262">
        <ele>2031</ele>
        <time>2018-10-17T10:25:17Z</time>
      </trkpt>
      <trkpt lat="45.82071" lon="6.43262">
        <ele>2032</ele>
        <time>2018-10-17T10:25:18Z</time>
      </trkpt>
      <trkpt lat="45.82071" lon="6.43262">
        <ele>2032</ele>
        <time>2018-10-17T10:25:19Z</time>
      </trkpt>
      <trkpt lat="45.82071" lon="6.43259">
        <ele>2033</ele>
        <time>2018-10-17T10:25:20Z</time>
      </trkpt>
      <trkpt lat="45.82071" lon="6.43259">
        <ele>2033</ele>
        <time>2018-10-17T10:25:21Z</time>
      </trkpt>
      <trkpt lat="45.82071" lon="6.43259">
        <ele>2033</ele>
        <time>2018-10-17T10:25:22Z</time>
      </trkpt>
      <trkpt lat="45.8207" lon="6.43256">
        <ele>2033</ele>
        <time>2018-10-17T10:25:23Z</time>
      </trkpt>
      <trkpt lat="45.8207" lon="6.43256">
        <ele>2033</ele>
        <time>2018-10-17T10:25:24Z</time>
      </trkpt>
      <trkpt lat="45.8207" lon="6.43256">
        <ele>2034</ele>
        <time>2018-10-17T10:25:25Z</time>
      </trkpt>
      <trkpt lat="45.82069" lon="6.43254">
        <ele>2034</ele>
        <time>2018-10-17T10:25:26Z</time>
      </trkpt>
      <trkpt lat="45.82069" lon="6.43254">
        <ele>2034</ele>
        <time>2018-10-17T10:25:27Z</time>
      </trkpt>
      <trkpt lat="45.82069" lon="6.43254">
        <ele>2034</ele>
        <time>2018-10-17T10:25:28Z</time>
      </trkpt>
      <trkpt lat="45.82069" lon="6.43254">
        <ele>2034</ele>
        <time>2018-10-17T10:25:29Z</time>
      </trkpt>
      <trkpt lat="45.8207" lon="6.43251">
        <ele>2034</ele>
        <time>2018-10-17T10:25:30Z</time>
      </trkpt>
      <trkpt lat="45.8207" lon="6.43251">
        <ele>2034</ele>
        <time>2018-10-17T10:25:31Z</time>
      </trkpt>
      <trkpt lat="45.8207" lon="6.43251">
        <ele>2035</ele>
        <time>2018-10-17T10:25:32Z</time>
      </trkpt>
      <trkpt lat="45.8207" lon="6.43251">
        <ele>2035</ele>
        <time>2018-10-17T10:25:33Z</time>
      </trkpt>
      <trkpt lat="45.8207" lon="6.43248">
        <ele>2036</ele>
        <time>2018-10-17T10:25:34Z</time>
      </trkpt>
      <trkpt lat="45.8207" lon="6.43248">
        <ele>2038</ele>
        <time>2018-10-17T10:25:35Z</time>
      </trkpt>
      <trkpt lat="45.8207" lon="6.43248">
        <ele>2038</ele>
        <time>2018-10-17T10:25:36Z</time>
      </trkpt>
      <trkpt lat="45.82069" lon="6.43245">
        <ele>2037</ele>
        <time>2018-10-17T10:25:37Z</time>
      </trkpt>
      <trkpt lat="45.82069" lon="6.43245">
        <ele>2037</ele>
        <time>2018-10-17T10:25:38Z</time>
      </trkpt>
      <trkpt lat="45.82069" lon="6.43245">
        <ele>2039</ele>
        <time>2018-10-17T10:25:39Z</time>
      </trkpt>
      <trkpt lat="45.82069" lon="6.43245">
        <ele>2039</ele>
        <time>2018-10-17T10:25:40Z</time>
      </trkpt>
      <trkpt lat="45.8207" lon="6.43243">
        <ele>2038</ele>
        <time>2018-10-17T10:25:41Z</time>
      </trkpt>
      <trkpt lat="45.8207" lon="6.43243">
        <ele>2038</ele>
        <time>2018-10-17T10:25:42Z</time>
      </trkpt>
      <trkpt lat="45.8207" lon="6.43243">
        <ele>2040</ele>
        <time>2018-10-17T10:25:43Z</time>
      </trkpt>
      <trkpt lat="45.8207" lon="6.43243">
        <ele>2040</ele>
        <time>2018-10-17T10:25:44Z</time>
      </trkpt>
      <trkpt lat="45.8207" lon="6.43243">
        <ele>2039</ele>
        <time>2018-10-17T10:25:45Z</time>
      </trkpt>
      <trkpt lat="45.8207" lon="6.4324">
        <ele>2039</ele>
        <time>2018-10-17T10:25:46Z</time>
      </trkpt>
      <trkpt lat="45.8207" lon="6.4324">
        <ele>2041</ele>
        <time>2018-10-17T10:25:47Z</time>
      </trkpt>
      <trkpt lat="45.8207" lon="6.4324">
        <ele>2041</ele>
        <time>2018-10-17T10:25:48Z</time>
      </trkpt>
      <trkpt lat="45.8207" lon="6.4324">
        <ele>2040</ele>
        <time>2018-10-17T10:25:49Z</time>
      </trkpt>
      <trkpt lat="45.8207" lon="6.4324">
        <ele>2040</ele>
        <time>2018-10-17T10:25:50Z</time>
      </trkpt>
      <trkpt lat="45.82069" lon="6.43237">
        <ele>2040</ele>
        <time>2018-10-17T10:25:51Z</time>
      </trkpt>
      <trkpt lat="45.82069" lon="6.43237">
        <ele>2042</ele>
        <time>2018-10-17T10:25:52Z</time>
      </trkpt>
      <trkpt lat="45.82069" lon="6.43237">
        <ele>2041</ele>
        <time>2018-10-17T10:25:53Z</time>
      </trkpt>
      <trkpt lat="45.82069" lon="6.43237">
        <ele>2043</ele>
        <time>2018-10-17T10:25:54Z</time>
      </trkpt>
      <trkpt lat="45.82069" lon="6.43237">
        <ele>2043</ele>
        <time>2018-10-17T10:25:55Z</time>
      </trkpt>
      <trkpt lat="45.82069" lon="6.43237">
        <ele>2043</ele>
        <time>2018-10-17T10:25:56Z</time>
      </trkpt>
      <trkpt lat="45.82069" lon="6.43237">
        <ele>2042</ele>
        <time>2018-10-17T10:25:57Z</time>
      </trkpt>
      <trkpt lat="45.82069" lon="6.43237">
        <ele>2044</ele>
        <time>2018-10-17T10:25:58Z</time>
      </trkpt>
      <trkpt lat="45.82069" lon="6.43237">
        <ele>2044</ele>
        <time>2018-10-17T10:25:59Z</time>
      </trkpt>
      <trkpt lat="45.82071" lon="6.43237">
        <ele>2044</ele>
        <time>2018-10-17T10:26:00Z</time>
      </trkpt>
      <trkpt lat="45.82071" lon="6.43237">
        <ele>2043</ele>
        <time>2018-10-17T10:26:01Z</time>
      </trkpt>
      <trkpt lat="45.82071" lon="6.43237">
        <ele>2043</ele>
        <time>2018-10-17T10:26:02Z</time>
      </trkpt>
      <trkpt lat="45.82071" lon="6.43237">
        <ele>2043</ele>
        <time>2018-10-17T10:26:03Z</time>
      </trkpt>
      <trkpt lat="45.82071" lon="6.43237">
        <ele>2043</ele>
        <time>2018-10-17T10:26:04Z</time>
      </trkpt>
      <trkpt lat="45.82071" lon="6.43237">
        <ele>2043</ele>
        <time>2018-10-17T10:26:05Z</time>
      </trkpt>
      <trkpt lat="45.82073" lon="6.43236">
        <ele>2043</ele>
        <time>2018-10-17T10:26:06Z</time>
      </trkpt>
      <trkpt lat="45.82073" lon="6.43236">
        <ele>2044</ele>
        <time>2018-10-17T10:26:07Z</time>
      </trkpt>
      <trkpt lat="45.82073" lon="6.43236">
        <ele>2046</ele>
        <time>2018-10-17T10:26:08Z</time>
      </trkpt>
      <trkpt lat="45.82073" lon="6.43236">
        <ele>2045</ele>
        <time>2018-10-17T10:26:09Z</time>
      </trkpt>
      <trkpt lat="45.82073" lon="6.43236">
        <ele>2045</ele>
        <time>2018-10-17T10:26:10Z</time>
      </trkpt>
      <trkpt lat="45.82073" lon="6.43236">
        <ele>2045</ele>
        <time>2018-10-17T10:26:11Z</time>
      </trkpt>
      <trkpt lat="45.82073" lon="6.43236">
        <ele>2045</ele>
        <time>2018-10-17T10:26:12Z</time>
      </trkpt>
      <trkpt lat="45.82073" lon="6.43236">
        <ele>2045</ele>
        <time>2018-10-17T10:26:13Z</time>
      </trkpt>
      <trkpt lat="45.82073" lon="6.43236">
        <ele>2045</ele>
        <time>2018-10-17T10:26:14Z</time>
      </trkpt>
      <trkpt lat="45.82073" lon="6.43236">
        <ele>2045</ele>
        <time>2018-10-17T10:26:15Z</time>
      </trkpt>
      <trkpt lat="45.82073" lon="6.43236">
        <ele>2045</ele>
        <time>2018-10-17T10:26:16Z</time>
      </trkpt>
      <trkpt lat="45.82073" lon="6.43236">
        <ele>2045</ele>
        <time>2018-10-17T10:26:17Z</time>
      </trkpt>
      <trkpt lat="45.82073" lon="6.43236">
        <ele>2045</ele>
        <time>2018-10-17T10:26:18Z</time>
      </trkpt>
      <trkpt lat="45.82073" lon="6.43236">
        <ele>2045</ele>
        <time>2018-10-17T10:26:19Z</time>
      </trkpt>
      <trkpt lat="45.82073" lon="6.43236">
        <ele>2045</ele>
        <time>2018-10-17T10:26:20Z</time>
      </trkpt>
      <trkpt lat="45.82073" lon="6.43236">
        <ele>2045</ele>
        <time>2018-10-17T10:26:21Z</time>
      </trkpt>
      <trkpt lat="45.82075" lon="6.43236">
        <ele>2046</ele>
        <time>2018-10-17T10:26:22Z</time>
      </trkpt>
      <trkpt lat="45.82075" lon="6.43236">
        <ele>2046</ele>
        <time>2018-10-17T10:26:23Z</time>
      </trkpt>
      <trkpt lat="45.82075" lon="6.43236">
        <ele>2046</ele>
        <time>2018-10-17T10:26:24Z</time>
      </trkpt>
      <trkpt lat="45.82075" lon="6.43236">
        <ele>2046</ele>
        <time>2018-10-17T10:26:25Z</time>
      </trkpt>
      <trkpt lat="45.82075" lon="6.43236">
        <ele>2046</ele>
        <time>2018-10-17T10:26:26Z</time>
      </trkpt>
      <trkpt lat="45.82075" lon="6.43236">
        <ele>2047</ele>
        <time>2018-10-17T10:26:27Z</time>
      </trkpt>
      <trkpt lat="45.82075" lon="6.43233">
        <ele>2047</ele>
        <time>2018-10-17T10:26:28Z</time>
      </trkpt>
      <trkpt lat="45.82075" lon="6.43233">
        <ele>2047</ele>
        <time>2018-10-17T10:26:29Z</time>
      </trkpt>
      <trkpt lat="45.82075" lon="6.43233">
        <ele>2047</ele>
        <time>2018-10-17T10:26:30Z</time>
      </trkpt>
      <trkpt lat="45.82075" lon="6.43233">
        <ele>2048</ele>
        <time>2018-10-17T10:26:31Z</time>
      </trkpt>
      <trkpt lat="45.82075" lon="6.43231">
        <ele>2048</ele>
        <time>2018-10-17T10:26:32Z</time>
      </trkpt>
      <trkpt lat="45.82075" lon="6.43231">
        <ele>2048</ele>
        <time>2018-10-17T10:26:33Z</time>
      </trkpt>
      <trkpt lat="45.82075" lon="6.43231">
        <ele>2049</ele>
        <time>2018-10-17T10:26:34Z</time>
      </trkpt>
      <trkpt lat="45.82075" lon="6.43231">
        <ele>2049</ele>
        <time>2018-10-17T10:26:35Z</time>
      </trkpt>
      <trkpt lat="45.82074" lon="6.43228">
        <ele>2050</ele>
        <time>2018-10-17T10:26:36Z</time>
      </trkpt>
      <trkpt lat="45.82074" lon="6.43228">
        <ele>2050</ele>
        <time>2018-10-17T10:26:37Z</time>
      </trkpt>
      <trkpt lat="45.82074" lon="6.43228">
        <ele>2050</ele>
        <time>2018-10-17T10:26:38Z</time>
      </trkpt>
      <trkpt lat="45.82074" lon="6.43228">
        <ele>2050</ele>
        <time>2018-10-17T10:26:39Z</time>
      </trkpt>
      <trkpt lat="45.82074" lon="6.43228">
        <ele>2050</ele>
        <time>2018-10-17T10:26:40Z</time>
      </trkpt>
      <trkpt lat="45.82074" lon="6.43228">
        <ele>2050</ele>
        <time>2018-10-17T10:26:41Z</time>
      </trkpt>
      <trkpt lat="45.82074" lon="6.43228">
        <ele>2050</ele>
        <time>2018-10-17T10:26:42Z</time>
      </trkpt>
      <trkpt lat="45.82073" lon="6.43225">
        <ele>2050</ele>
        <time>2018-10-17T10:26:43Z</time>
      </trkpt>
      <trkpt lat="45.82073" lon="6.43225">
        <ele>2051</ele>
        <time>2018-10-17T10:26:44Z</time>
      </trkpt>
      <trkpt lat="45.82073" lon="6.43225">
        <ele>2051</ele>
        <time>2018-10-17T10:26:45Z</time>
      </trkpt>
      <trkpt lat="45.82073" lon="6.43225">
        <ele>2051</ele>
        <time>2018-10-17T10:26:46Z</time>
      </trkpt>
      <trkpt lat="45.82073" lon="6.43222">
        <ele>2051</ele>
        <time>2018-10-17T10:26:47Z</time>
      </trkpt>
      <trkpt lat="45.82073" lon="6.43222">
        <ele>2052</ele>
        <time>2018-10-17T10:26:48Z</time>
      </trkpt>
      <trkpt lat="45.82073" lon="6.43222">
        <ele>2053</ele>
        <time>2018-10-17T10:26:49Z</time>
      </trkpt>
      <trkpt lat="45.82073" lon="6.43222">
        <ele>2053</ele>
        <time>2018-10-17T10:26:50Z</time>
      </trkpt>
      <trkpt lat="45.82073" lon="6.43219">
        <ele>2053</ele>
        <time>2018-10-17T10:26:51Z</time>
      </trkpt>
      <trkpt lat="45.82073" lon="6.43219">
        <ele>2053</ele>
        <time>2018-10-17T10:26:52Z</time>
      </trkpt>
      <trkpt lat="45.82073" lon="6.43219">
        <ele>2053</ele>
        <time>2018-10-17T10:26:53Z</time>
      </trkpt>
      <trkpt lat="45.82073" lon="6.43219">
        <ele>2053</ele>
        <time>2018-10-17T10:26:54Z</time>
      </trkpt>
      <trkpt lat="45.82073" lon="6.43219">
        <ele>2055</ele>
        <time>2018-10-17T10:26:55Z</time>
      </trkpt>
      <trkpt lat="45.82073" lon="6.43216">
        <ele>2056</ele>
        <time>2018-10-17T10:26:56Z</time>
      </trkpt>
      <trkpt lat="45.82073" lon="6.43216">
        <ele>2056</ele>
        <time>2018-10-17T10:26:57Z</time>
      </trkpt>
      <trkpt lat="45.82073" lon="6.43216">
        <ele>2056</ele>
        <time>2018-10-17T10:26:58Z</time>
      </trkpt>
      <trkpt lat="45.82073" lon="6.43214">
        <ele>2056</ele>
        <time>2018-10-17T10:26:59Z</time>
      </trkpt>
      <trkpt lat="45.82073" lon="6.43214">
        <ele>2056</ele>
        <time>2018-10-17T10:27:00Z</time>
      </trkpt>
      <trkpt lat="45.82073" lon="6.43214">
        <ele>2057</ele>
        <time>2018-10-17T10:27:01Z</time>
      </trkpt>
      <trkpt lat="45.82073" lon="6.43214">
        <ele>2057</ele>
        <time>2018-10-17T10:27:02Z</time>
      </trkpt>
      <trkpt lat="45.82073" lon="6.43214">
        <ele>2057</ele>
        <time>2018-10-17T10:27:03Z</time>
      </trkpt>
      <trkpt lat="45.82072" lon="6.43211">
        <ele>2057</ele>
        <time>2018-10-17T10:27:04Z</time>
      </trkpt>
      <trkpt lat="45.82072" lon="6.43211">
        <ele>2058</ele>
        <time>2018-10-17T10:27:05Z</time>
      </trkpt>
      <trkpt lat="45.82072" lon="6.43211">
        <ele>2058</ele>
        <time>2018-10-17T10:27:06Z</time>
      </trkpt>
      <trkpt lat="45.82072" lon="6.43211">
        <ele>2058</ele>
        <time>2018-10-17T10:27:07Z</time>
      </trkpt>
      <trkpt lat="45.82072" lon="6.43211">
        <ele>2058</ele>
        <time>2018-10-17T10:27:08Z</time>
      </trkpt>
      <trkpt lat="45.82072" lon="6.43211">
        <ele>2059</ele>
        <time>2018-10-17T10:27:09Z</time>
      </trkpt>
      <trkpt lat="45.82072" lon="6.43208">
        <ele>2059</ele>
        <time>2018-10-17T10:27:10Z</time>
      </trkpt>
      <trkpt lat="45.82072" lon="6.43208">
        <ele>2059</ele>
        <time>2018-10-17T10:27:11Z</time>
      </trkpt>
      <trkpt lat="45.82072" lon="6.43208">
        <ele>2059</ele>
        <time>2018-10-17T10:27:12Z</time>
      </trkpt>
      <trkpt lat="45.82072" lon="6.43208">
        <ele>2059</ele>
        <time>2018-10-17T10:27:13Z</time>
      </trkpt>
      <trkpt lat="45.82072" lon="6.43205">
        <ele>2059</ele>
        <time>2018-10-17T10:27:14Z</time>
      </trkpt>
      <trkpt lat="45.82072" lon="6.43205">
        <ele>2059</ele>
        <time>2018-10-17T10:27:15Z</time>
      </trkpt>
      <trkpt lat="45.82072" lon="6.43205">
        <ele>2060</ele>
        <time>2018-10-17T10:27:16Z</time>
      </trkpt>
      <trkpt lat="45.82072" lon="6.43205">
        <ele>2060</ele>
        <time>2018-10-17T10:27:17Z</time>
      </trkpt>
      <trkpt lat="45.82072" lon="6.43205">
        <ele>2061</ele>
        <time>2018-10-17T10:27:18Z</time>
      </trkpt>
      <trkpt lat="45.82072" lon="6.43205">
        <ele>2061</ele>
        <time>2018-10-17T10:27:19Z</time>
      </trkpt>
      <trkpt lat="45.82071" lon="6.43204">
        <ele>2061</ele>
        <time>2018-10-17T10:27:20Z</time>
      </trkpt>
      <trkpt lat="45.82071" lon="6.43204">
        <ele>2061</ele>
        <time>2018-10-17T10:27:21Z</time>
      </trkpt>
      <trkpt lat="45.82071" lon="6.43204">
        <ele>2061</ele>
        <time>2018-10-17T10:27:22Z</time>
      </trkpt>
      <trkpt lat="45.82071" lon="6.43204">
        <ele>2062</ele>
        <time>2018-10-17T10:27:23Z</time>
      </trkpt>
      <trkpt lat="45.82071" lon="6.43204">
        <ele>2062</ele>
        <time>2018-10-17T10:27:24Z</time>
      </trkpt>
      <trkpt lat="45.82071" lon="6.43201">
        <ele>2062</ele>
        <time>2018-10-17T10:27:25Z</time>
      </trkpt>
      <trkpt lat="45.82071" lon="6.43201">
        <ele>2063</ele>
        <time>2018-10-17T10:27:26Z</time>
      </trkpt>
      <trkpt lat="45.82071" lon="6.43201">
        <ele>2063</ele>
        <time>2018-10-17T10:27:27Z</time>
      </trkpt>
      <trkpt lat="45.82071" lon="6.43201">
        <ele>2063</ele>
        <time>2018-10-17T10:27:28Z</time>
      </trkpt>
      <trkpt lat="45.82071" lon="6.43201">
        <ele>2063</ele>
        <time>2018-10-17T10:27:29Z</time>
      </trkpt>
      <trkpt lat="45.8207" lon="6.43198">
        <ele>2064</ele>
        <time>2018-10-17T10:27:30Z</time>
      </trkpt>
      <trkpt lat="45.8207" lon="6.43198">
        <ele>2064</ele>
        <time>2018-10-17T10:27:31Z</time>
      </trkpt>
      <trkpt lat="45.8207" lon="6.43198">
        <ele>2065</ele>
        <time>2018-10-17T10:27:32Z</time>
      </trkpt>
      <trkpt lat="45.8207" lon="6.43198">
        <ele>2065</ele>
        <time>2018-10-17T10:27:33Z</time>
      </trkpt>
      <trkpt lat="45.8207" lon="6.43198">
        <ele>2064</ele>
        <time>2018-10-17T10:27:34Z</time>
      </trkpt>
      <trkpt lat="45.82069" lon="6.43196">
        <ele>2064</ele>
        <time>2018-10-17T10:27:35Z</time>
      </trkpt>
      <trkpt lat="45.82069" lon="6.43196">
        <ele>2065</ele>
        <time>2018-10-17T10:27:36Z</time>
      </trkpt>
      <trkpt lat="45.82069" lon="6.43196">
        <ele>2065</ele>
        <time>2018-10-17T10:27:37Z</time>
      </trkpt>
      <trkpt lat="45.82069" lon="6.43192">
        <ele>2065</ele>
        <time>2018-10-17T10:27:38Z</time>
      </trkpt>
      <trkpt lat="45.82069" lon="6.43192">
        <ele>2065</ele>
        <time>2018-10-17T10:27:39Z</time>
      </trkpt>
      <trkpt lat="45.82069" lon="6.43192">
        <ele>2066</ele>
        <time>2018-10-17T10:27:40Z</time>
      </trkpt>
      <trkpt lat="45.82069" lon="6.4319">
        <ele>2066</ele>
        <time>2018-10-17T10:27:41Z</time>
      </trkpt>
      <trkpt lat="45.82069" lon="6.4319">
        <ele>2066</ele>
        <time>2018-10-17T10:27:42Z</time>
      </trkpt>
      <trkpt lat="45.82069" lon="6.4319">
        <ele>2066</ele>
        <time>2018-10-17T10:27:43Z</time>
      </trkpt>
      <trkpt lat="45.82068" lon="6.43187">
        <ele>2066</ele>
        <time>2018-10-17T10:27:44Z</time>
      </trkpt>
      <trkpt lat="45.82068" lon="6.43187">
        <ele>2066</ele>
        <time>2018-10-17T10:27:45Z</time>
      </trkpt>
      <trkpt lat="45.82068" lon="6.43187">
        <ele>2066</ele>
        <time>2018-10-17T10:27:46Z</time>
      </trkpt>
      <trkpt lat="45.82068" lon="6.43187">
        <ele>2067</ele>
        <time>2018-10-17T10:27:47Z</time>
      </trkpt>
      <trkpt lat="45.82067" lon="6.43185">
        <ele>2067</ele>
        <time>2018-10-17T10:27:48Z</time>
      </trkpt>
      <trkpt lat="45.82067" lon="6.43185">
        <ele>2067</ele>
        <time>2018-10-17T10:27:49Z</time>
      </trkpt>
      <trkpt lat="45.82067" lon="6.43185">
        <ele>2067</ele>
        <time>2018-10-17T10:27:50Z</time>
      </trkpt>
      <trkpt lat="45.82067" lon="6.43185">
        <ele>2067</ele>
        <time>2018-10-17T10:27:51Z</time>
      </trkpt>
      <trkpt lat="45.82067" lon="6.43185">
        <ele>2068</ele>
        <time>2018-10-17T10:27:52Z</time>
      </trkpt>
      <trkpt lat="45.82067" lon="6.43181">
        <ele>2068</ele>
        <time>2018-10-17T10:27:53Z</time>
      </trkpt>
      <trkpt lat="45.82067" lon="6.43181">
        <ele>2069</ele>
        <time>2018-10-17T10:27:54Z</time>
      </trkpt>
      <trkpt lat="45.82067" lon="6.43181">
        <ele>2069</ele>
        <time>2018-10-17T10:27:55Z</time>
      </trkpt>
      <trkpt lat="45.82067" lon="6.43181">
        <ele>2069</ele>
        <time>2018-10-17T10:27:56Z</time>
      </trkpt>
      <trkpt lat="45.82067" lon="6.43181">
        <ele>2069</ele>
        <time>2018-10-17T10:27:57Z</time>
      </trkpt>
      <trkpt lat="45.82067" lon="6.43178">
        <ele>2069</ele>
        <time>2018-10-17T10:27:58Z</time>
      </trkpt>
      <trkpt lat="45.82067" lon="6.43178">
        <ele>2070</ele>
        <time>2018-10-17T10:27:59Z</time>
      </trkpt>
      <trkpt lat="45.82067" lon="6.43178">
        <ele>2070</ele>
        <time>2018-10-17T10:28:00Z</time>
      </trkpt>
      <trkpt lat="45.82067" lon="6.43178">
        <ele>2070</ele>
        <time>2018-10-17T10:28:01Z</time>
      </trkpt>
      <trkpt lat="45.82067" lon="6.43178">
        <ele>2071</ele>
        <time>2018-10-17T10:28:02Z</time>
      </trkpt>
      <trkpt lat="45.82065" lon="6.43176">
        <ele>2071</ele>
        <time>2018-10-17T10:28:03Z</time>
      </trkpt>
      <trkpt lat="45.82065" lon="6.43176">
        <ele>2071</ele>
        <time>2018-10-17T10:28:04Z</time>
      </trkpt>
      <trkpt lat="45.82065" lon="6.43176">
        <ele>2071</ele>
        <time>2018-10-17T10:28:05Z</time>
      </trkpt>
      <trkpt lat="45.82065" lon="6.43176">
        <ele>2070</ele>
        <time>2018-10-17T10:28:06Z</time>
      </trkpt>
      <trkpt lat="45.82065" lon="6.43176">
        <ele>2071</ele>
        <time>2018-10-17T10:28:07Z</time>
      </trkpt>
      <trkpt lat="45.82065" lon="6.43176">
        <ele>2071</ele>
        <time>2018-10-17T10:28:08Z</time>
      </trkpt>
      <trkpt lat="45.82065" lon="6.43173">
        <ele>2072</ele>
        <time>2018-10-17T10:28:09Z</time>
      </trkpt>
      <trkpt lat="45.82065" lon="6.43173">
        <ele>2072</ele>
        <time>2018-10-17T10:28:10Z</time>
      </trkpt>
      <trkpt lat="45.82065" lon="6.43173">
        <ele>2072</ele>
        <time>2018-10-17T10:28:11Z</time>
      </trkpt>
      <trkpt lat="45.82065" lon="6.43173">
        <ele>2072</ele>
        <time>2018-10-17T10:28:12Z</time>
      </trkpt>
      <trkpt lat="45.82065" lon="6.43173">
        <ele>2072</ele>
        <time>2018-10-17T10:28:13Z</time>
      </trkpt>
      <trkpt lat="45.82065" lon="6.43173">
        <ele>2073</ele>
        <time>2018-10-17T10:28:14Z</time>
      </trkpt>
      <trkpt lat="45.82065" lon="6.43173">
        <ele>2074</ele>
        <time>2018-10-17T10:28:15Z</time>
      </trkpt>
      <trkpt lat="45.82064" lon="6.43171">
        <ele>2074</ele>
        <time>2018-10-17T10:28:16Z</time>
      </trkpt>
      <trkpt lat="45.82064" lon="6.43171">
        <ele>2075</ele>
        <time>2018-10-17T10:28:17Z</time>
      </trkpt>
      <trkpt lat="45.82064" lon="6.43171">
        <ele>2075</ele>
        <time>2018-10-17T10:28:18Z</time>
      </trkpt>
      <trkpt lat="45.82064" lon="6.43171">
        <ele>2075</ele>
        <time>2018-10-17T10:28:19Z</time>
      </trkpt>
      <trkpt lat="45.82064" lon="6.43171">
        <ele>2075</ele>
        <time>2018-10-17T10:28:20Z</time>
      </trkpt>
      <trkpt lat="45.82064" lon="6.43171">
        <ele>2075</ele>
        <time>2018-10-17T10:28:21Z</time>
      </trkpt>
      <trkpt lat="45.82064" lon="6.43171">
        <ele>2075</ele>
        <time>2018-10-17T10:28:22Z</time>
      </trkpt>
      <trkpt lat="45.82064" lon="6.43171">
        <ele>2075</ele>
        <time>2018-10-17T10:28:23Z</time>
      </trkpt>
      <trkpt lat="45.82064" lon="6.43171">
        <ele>2075</ele>
        <time>2018-10-17T10:28:24Z</time>
      </trkpt>
      <trkpt lat="45.82064" lon="6.43171">
        <ele>2075</ele>
        <time>2018-10-17T10:28:25Z</time>
      </trkpt>
      <trkpt lat="45.82063" lon="6.43168">
        <ele>2075</ele>
        <time>2018-10-17T10:28:26Z</time>
      </trkpt>
      <trkpt lat="45.82063" lon="6.43168">
        <ele>2076</ele>
        <time>2018-10-17T10:28:27Z</time>
      </trkpt>
      <trkpt lat="45.82063" lon="6.43168">
        <ele>2077</ele>
        <time>2018-10-17T10:28:28Z</time>
      </trkpt>
      <trkpt lat="45.82063" lon="6.43168">
        <ele>2077</ele>
        <time>2018-10-17T10:28:29Z</time>
      </trkpt>
      <trkpt lat="45.82061" lon="6.43168">
        <ele>2077</ele>
        <time>2018-10-17T10:28:30Z</time>
      </trkpt>
      <trkpt lat="45.82061" lon="6.43168">
        <ele>2077</ele>
        <time>2018-10-17T10:28:31Z</time>
      </trkpt>
      <trkpt lat="45.82061" lon="6.43168">
        <ele>2077</ele>
        <time>2018-10-17T10:28:32Z</time>
      </trkpt>
      <trkpt lat="45.82061" lon="6.43168">
        <ele>2078</ele>
        <time>2018-10-17T10:28:33Z</time>
      </trkpt>
      <trkpt lat="45.8206" lon="6.43165">
        <ele>2078</ele>
        <time>2018-10-17T10:28:34Z</time>
      </trkpt>
      <trkpt lat="45.8206" lon="6.43165">
        <ele>2078</ele>
        <time>2018-10-17T10:28:35Z</time>
      </trkpt>
      <trkpt lat="45.8206" lon="6.43165">
        <ele>2079</ele>
        <time>2018-10-17T10:28:36Z</time>
      </trkpt>
      <trkpt lat="45.8206" lon="6.43165">
        <ele>2079</ele>
        <time>2018-10-17T10:28:37Z</time>
      </trkpt>
      <trkpt lat="45.8206" lon="6.43165">
        <ele>2080</ele>
        <time>2018-10-17T10:28:38Z</time>
      </trkpt>
      <trkpt lat="45.8206" lon="6.43165">
        <ele>2080</ele>
        <time>2018-10-17T10:28:39Z</time>
      </trkpt>
      <trkpt lat="45.8206" lon="6.43165">
        <ele>2080</ele>
        <time>2018-10-17T10:28:40Z</time>
      </trkpt>
      <trkpt lat="45.8206" lon="6.43165">
        <ele>2080</ele>
        <time>2018-10-17T10:28:41Z</time>
      </trkpt>
      <trkpt lat="45.82061" lon="6.43163">
        <ele>2080</ele>
        <time>2018-10-17T10:28:42Z</time>
      </trkpt>
      <trkpt lat="45.82061" lon="6.43163">
        <ele>2080</ele>
        <time>2018-10-17T10:28:43Z</time>
      </trkpt>
      <trkpt lat="45.82061" lon="6.43163">
        <ele>2081</ele>
        <time>2018-10-17T10:28:44Z</time>
      </trkpt>
      <trkpt lat="45.82061" lon="6.43163">
        <ele>2081</ele>
        <time>2018-10-17T10:28:45Z</time>
      </trkpt>
      <trkpt lat="45.82061" lon="6.43163">
        <ele>2082</ele>
        <time>2018-10-17T10:28:46Z</time>
      </trkpt>
      <trkpt lat="45.82061" lon="6.43163">
        <ele>2082</ele>
        <time>2018-10-17T10:28:47Z</time>
      </trkpt>
      <trkpt lat="45.82062" lon="6.43161">
        <ele>2082</ele>
        <time>2018-10-17T10:28:48Z</time>
      </trkpt>
      <trkpt lat="45.82062" lon="6.43161">
        <ele>2082</ele>
        <time>2018-10-17T10:28:49Z</time>
      </trkpt>
      <trkpt lat="45.82062" lon="6.43161">
        <ele>2082</ele>
        <time>2018-10-17T10:28:50Z</time>
      </trkpt>
      <trkpt lat="45.82062" lon="6.43161">
        <ele>2082</ele>
        <time>2018-10-17T10:28:51Z</time>
      </trkpt>
      <trkpt lat="45.82062" lon="6.43161">
        <ele>2082</ele>
        <time>2018-10-17T10:28:52Z</time>
      </trkpt>
      <trkpt lat="45.82062" lon="6.43161">
        <ele>2083</ele>
        <time>2018-10-17T10:28:53Z</time>
      </trkpt>
      <trkpt lat="45.82061" lon="6.43159">
        <ele>2083</ele>
        <time>2018-10-17T10:28:54Z</time>
      </trkpt>
      <trkpt lat="45.82061" lon="6.43159">
        <ele>2083</ele>
        <time>2018-10-17T10:28:55Z</time>
      </trkpt>
      <trkpt lat="45.82061" lon="6.43159">
        <ele>2083</ele>
        <time>2018-10-17T10:28:56Z</time>
      </trkpt>
      <trkpt lat="45.82061" lon="6.43159">
        <ele>2083</ele>
        <time>2018-10-17T10:28:57Z</time>
      </trkpt>
      <trkpt lat="45.82061" lon="6.43159">
        <ele>2083</ele>
        <time>2018-10-17T10:28:58Z</time>
      </trkpt>
      <trkpt lat="45.8206" lon="6.43157">
        <ele>2085</ele>
        <time>2018-10-17T10:28:59Z</time>
      </trkpt>
      <trkpt lat="45.8206" lon="6.43157">
        <ele>2085</ele>
        <time>2018-10-17T10:29:00Z</time>
      </trkpt>
      <trkpt lat="45.8206" lon="6.43157">
        <ele>2086</ele>
        <time>2018-10-17T10:29:01Z</time>
      </trkpt>
      <trkpt lat="45.8206" lon="6.43157">
        <ele>2086</ele>
        <time>2018-10-17T10:29:02Z</time>
      </trkpt>
      <trkpt lat="45.8206" lon="6.43157">
        <ele>2086</ele>
        <time>2018-10-17T10:29:03Z</time>
      </trkpt>
      <trkpt lat="45.82058" lon="6.43156">
        <ele>2086</ele>
        <time>2018-10-17T10:29:04Z</time>
      </trkpt>
      <trkpt lat="45.82058" lon="6.43156">
        <ele>2086</ele>
        <time>2018-10-17T10:29:05Z</time>
      </trkpt>
      <trkpt lat="45.82058" lon="6.43156">
        <ele>2086</ele>
        <time>2018-10-17T10:29:06Z</time>
      </trkpt>
      <trkpt lat="45.82058" lon="6.43156">
        <ele>2087</ele>
        <time>2018-10-17T10:29:07Z</time>
      </trkpt>
      <trkpt lat="45.82056" lon="6.43154">
        <ele>2087</ele>
        <time>2018-10-17T10:29:08Z</time>
      </trkpt>
      <trkpt lat="45.82056" lon="6.43154">
        <ele>2087</ele>
        <time>2018-10-17T10:29:09Z</time>
      </trkpt>
      <trkpt lat="45.82056" lon="6.43154">
        <ele>2087</ele>
        <time>2018-10-17T10:29:10Z</time>
      </trkpt>
      <trkpt lat="45.82056" lon="6.43154">
        <ele>2087</ele>
        <time>2018-10-17T10:29:11Z</time>
      </trkpt>
      <trkpt lat="45.82056" lon="6.43154">
        <ele>2088</ele>
        <time>2018-10-17T10:29:12Z</time>
      </trkpt>
      <trkpt lat="45.82056" lon="6.43154">
        <ele>2088</ele>
        <time>2018-10-17T10:29:13Z</time>
      </trkpt>
      <trkpt lat="45.82054" lon="6.43152">
        <ele>2089</ele>
        <time>2018-10-17T10:29:14Z</time>
      </trkpt>
      <trkpt lat="45.82054" lon="6.43152">
        <ele>2089</ele>
        <time>2018-10-17T10:29:15Z</time>
      </trkpt>
      <trkpt lat="45.82054" lon="6.43152">
        <ele>2089</ele>
        <time>2018-10-17T10:29:16Z</time>
      </trkpt>
      <trkpt lat="45.82054" lon="6.43152">
        <ele>2089</ele>
        <time>2018-10-17T10:29:17Z</time>
      </trkpt>
      <trkpt lat="45.82054" lon="6.43152">
        <ele>2089</ele>
        <time>2018-10-17T10:29:18Z</time>
      </trkpt>
      <trkpt lat="45.82054" lon="6.43152">
        <ele>2089</ele>
        <time>2018-10-17T10:29:19Z</time>
      </trkpt>
      <trkpt lat="45.82056" lon="6.4315">
        <ele>2090</ele>
        <time>2018-10-17T10:29:20Z</time>
      </trkpt>
      <trkpt lat="45.82056" lon="6.4315">
        <ele>2090</ele>
        <time>2018-10-17T10:29:21Z</time>
      </trkpt>
      <trkpt lat="45.82056" lon="6.4315">
        <ele>2090</ele>
        <time>2018-10-17T10:29:22Z</time>
      </trkpt>
      <trkpt lat="45.82056" lon="6.4315">
        <ele>2090</ele>
        <time>2018-10-17T10:29:23Z</time>
      </trkpt>
      <trkpt lat="45.82057" lon="6.43148">
        <ele>2091</ele>
        <time>2018-10-17T10:29:24Z</time>
      </trkpt>
      <trkpt lat="45.82057" lon="6.43148">
        <ele>2091</ele>
        <time>2018-10-17T10:29:25Z</time>
      </trkpt>
      <trkpt lat="45.82057" lon="6.43148">
        <ele>2091</ele>
        <time>2018-10-17T10:29:26Z</time>
      </trkpt>
      <trkpt lat="45.82057" lon="6.43148">
        <ele>2091</ele>
        <time>2018-10-17T10:29:27Z</time>
      </trkpt>
      <trkpt lat="45.82057" lon="6.43148">
        <ele>2091</ele>
        <time>2018-10-17T10:29:28Z</time>
      </trkpt>
      <trkpt lat="45.82057" lon="6.43148">
        <ele>2092</ele>
        <time>2018-10-17T10:29:29Z</time>
      </trkpt>
      <trkpt lat="45.82056" lon="6.43146">
        <ele>2092</ele>
        <time>2018-10-17T10:29:30Z</time>
      </trkpt>
      <trkpt lat="45.82056" lon="6.43146">
        <ele>2092</ele>
        <time>2018-10-17T10:29:31Z</time>
      </trkpt>
      <trkpt lat="45.82056" lon="6.43146">
        <ele>2093</ele>
        <time>2018-10-17T10:29:32Z</time>
      </trkpt>
      <trkpt lat="45.82056" lon="6.43146">
        <ele>2093</ele>
        <time>2018-10-17T10:29:33Z</time>
      </trkpt>
      <trkpt lat="45.82056" lon="6.43146">
        <ele>2093</ele>
        <time>2018-10-17T10:29:34Z</time>
      </trkpt>
      <trkpt lat="45.82056" lon="6.43143">
        <ele>2093</ele>
        <time>2018-10-17T10:29:35Z</time>
      </trkpt>
      <trkpt lat="45.82056" lon="6.43143">
        <ele>2093</ele>
        <time>2018-10-17T10:29:36Z</time>
      </trkpt>
      <trkpt lat="45.82056" lon="6.43143">
        <ele>2094</ele>
        <time>2018-10-17T10:29:37Z</time>
      </trkpt>
      <trkpt lat="45.82056" lon="6.43143">
        <ele>2094</ele>
        <time>2018-10-17T10:29:38Z</time>
      </trkpt>
      <trkpt lat="45.82056" lon="6.43143">
        <ele>2094</ele>
        <time>2018-10-17T10:29:39Z</time>
      </trkpt>
      <trkpt lat="45.82056" lon="6.4314">
        <ele>2094</ele>
        <time>2018-10-17T10:29:40Z</time>
      </trkpt>
      <trkpt lat="45.82056" lon="6.4314">
        <ele>2094</ele>
        <time>2018-10-17T10:29:41Z</time>
      </trkpt>
      <trkpt lat="45.82056" lon="6.4314">
        <ele>2095</ele>
        <time>2018-10-17T10:29:42Z</time>
      </trkpt>
      <trkpt lat="45.82056" lon="6.4314">
        <ele>2095</ele>
        <time>2018-10-17T10:29:43Z</time>
      </trkpt>
      <trkpt lat="45.82056" lon="6.43137">
        <ele>2096</ele>
        <time>2018-10-17T10:29:44Z</time>
      </trkpt>
      <trkpt lat="45.82056" lon="6.43137">
        <ele>2096</ele>
        <time>2018-10-17T10:29:45Z</time>
      </trkpt>
      <trkpt lat="45.82056" lon="6.43137">
        <ele>2096</ele>
        <time>2018-10-17T10:29:46Z</time>
      </trkpt>
      <trkpt lat="45.82056" lon="6.43137">
        <ele>2096</ele>
        <time>2018-10-17T10:29:47Z</time>
      </trkpt>
      <trkpt lat="45.82056" lon="6.43135">
        <ele>2096</ele>
        <time>2018-10-17T10:29:48Z</time>
      </trkpt>
      <trkpt lat="45.82056" lon="6.43135">
        <ele>2097</ele>
        <time>2018-10-17T10:29:49Z</time>
      </trkpt>
      <trkpt lat="45.82056" lon="6.43135">
        <ele>2097</ele>
        <time>2018-10-17T10:29:50Z</time>
      </trkpt>
      <trkpt lat="45.82056" lon="6.43135">
        <ele>2097</ele>
        <time>2018-10-17T10:29:51Z</time>
      </trkpt>
      <trkpt lat="45.82056" lon="6.43135">
        <ele>2097</ele>
        <time>2018-10-17T10:29:52Z</time>
      </trkpt>
      <trkpt lat="45.82056" lon="6.43135">
        <ele>2098</ele>
        <time>2018-10-17T10:29:53Z</time>
      </trkpt>
      <trkpt lat="45.82056" lon="6.43135">
        <ele>2098</ele>
        <time>2018-10-17T10:29:54Z</time>
      </trkpt>
      <trkpt lat="45.82056" lon="6.43132">
        <ele>2098</ele>
        <time>2018-10-17T10:29:55Z</time>
      </trkpt>
      <trkpt lat="45.82056" lon="6.43132">
        <ele>2098</ele>
        <time>2018-10-17T10:29:56Z</time>
      </trkpt>
      <trkpt lat="45.82056" lon="6.43132">
        <ele>2098</ele>
        <time>2018-10-17T10:29:57Z</time>
      </trkpt>
      <trkpt lat="45.82056" lon="6.43132">
        <ele>2098</ele>
        <time>2018-10-17T10:29:58Z</time>
      </trkpt>
      <trkpt lat="45.82056" lon="6.43132">
        <ele>2099</ele>
        <time>2018-10-17T10:29:59Z</time>
      </trkpt>
      <trkpt lat="45.82056" lon="6.43132">
        <ele>2099</ele>
        <time>2018-10-17T10:30:00Z</time>
      </trkpt>
      <trkpt lat="45.82056" lon="6.43132">
        <ele>2099</ele>
        <time>2018-10-17T10:30:01Z</time>
      </trkpt>
      <trkpt lat="45.82056" lon="6.43129">
        <ele>2099</ele>
        <time>2018-10-17T10:30:02Z</time>
      </trkpt>
      <trkpt lat="45.82056" lon="6.43129">
        <ele>2099</ele>
        <time>2018-10-17T10:30:03Z</time>
      </trkpt>
      <trkpt lat="45.82056" lon="6.43129">
        <ele>2100</ele>
        <time>2018-10-17T10:30:04Z</time>
      </trkpt>
      <trkpt lat="45.82056" lon="6.43129">
        <ele>2100</ele>
        <time>2018-10-17T10:30:05Z</time>
      </trkpt>
      <trkpt lat="45.82056" lon="6.43129">
        <ele>2100</ele>
        <time>2018-10-17T10:30:06Z</time>
      </trkpt>
      <trkpt lat="45.82056" lon="6.43129">
        <ele>2101</ele>
        <time>2018-10-17T10:30:07Z</time>
      </trkpt>
      <trkpt lat="45.82056" lon="6.43129">
        <ele>2101</ele>
        <time>2018-10-17T10:30:08Z</time>
      </trkpt>
      <trkpt lat="45.82056" lon="6.43129">
        <ele>2101</ele>
        <time>2018-10-17T10:30:09Z</time>
      </trkpt>
      <trkpt lat="45.82056" lon="6.43129">
        <ele>2101</ele>
        <time>2018-10-17T10:30:10Z</time>
      </trkpt>
      <trkpt lat="45.82056" lon="6.43126">
        <ele>2101</ele>
        <time>2018-10-17T10:30:11Z</time>
      </trkpt>
      <trkpt lat="45.82056" lon="6.43126">
        <ele>2101</ele>
        <time>2018-10-17T10:30:12Z</time>
      </trkpt>
      <trkpt lat="45.82056" lon="6.43126">
        <ele>2101</ele>
        <time>2018-10-17T10:30:13Z</time>
      </trkpt>
      <trkpt lat="45.82056" lon="6.43126">
        <ele>2101</ele>
        <time>2018-10-17T10:30:14Z</time>
      </trkpt>
      <trkpt lat="45.82056" lon="6.43126">
        <ele>2102</ele>
        <time>2018-10-17T10:30:15Z</time>
      </trkpt>
      <trkpt lat="45.82056" lon="6.43126">
        <ele>2102</ele>
        <time>2018-10-17T10:30:16Z</time>
      </trkpt>
      <trkpt lat="45.82056" lon="6.43124">
        <ele>2103</ele>
        <time>2018-10-17T10:30:17Z</time>
      </trkpt>
      <trkpt lat="45.82056" lon="6.43124">
        <ele>2103</ele>
        <time>2018-10-17T10:30:18Z</time>
      </trkpt>
      <trkpt lat="45.82056" lon="6.43124">
        <ele>2103</ele>
        <time>2018-10-17T10:30:19Z</time>
      </trkpt>
      <trkpt lat="45.82056" lon="6.43124">
        <ele>2104</ele>
        <time>2018-10-17T10:30:20Z</time>
      </trkpt>
      <trkpt lat="45.82056" lon="6.43124">
        <ele>2105</ele>
        <time>2018-10-17T10:30:21Z</time>
      </trkpt>
      <trkpt lat="45.82055" lon="6.43121">
        <ele>2105</ele>
        <time>2018-10-17T10:30:22Z</time>
      </trkpt>
      <trkpt lat="45.82055" lon="6.43121">
        <ele>2105</ele>
        <time>2018-10-17T10:30:23Z</time>
      </trkpt>
      <trkpt lat="45.82055" lon="6.43121">
        <ele>2105</ele>
        <time>2018-10-17T10:30:24Z</time>
      </trkpt>
      <trkpt lat="45.82055" lon="6.43121">
        <ele>2105</ele>
        <time>2018-10-17T10:30:25Z</time>
      </trkpt>
      <trkpt lat="45.82055" lon="6.43121">
        <ele>2105</ele>
        <time>2018-10-17T10:30:26Z</time>
      </trkpt>
      <trkpt lat="45.82056" lon="6.43119">
        <ele>2105</ele>
        <time>2018-10-17T10:30:27Z</time>
      </trkpt>
      <trkpt lat="45.82056" lon="6.43119">
        <ele>2105</ele>
        <time>2018-10-17T10:30:28Z</time>
      </trkpt>
      <trkpt lat="45.82056" lon="6.43119">
        <ele>2105</ele>
        <time>2018-10-17T10:30:29Z</time>
      </trkpt>
      <trkpt lat="45.82056" lon="6.43119">
        <ele>2106</ele>
        <time>2018-10-17T10:30:30Z</time>
      </trkpt>
      <trkpt lat="45.82058" lon="6.43116">
        <ele>2106</ele>
        <time>2018-10-17T10:30:31Z</time>
      </trkpt>
      <trkpt lat="45.82058" lon="6.43116">
        <ele>2106</ele>
        <time>2018-10-17T10:30:32Z</time>
      </trkpt>
      <trkpt lat="45.82058" lon="6.43116">
        <ele>2107</ele>
        <time>2018-10-17T10:30:33Z</time>
      </trkpt>
      <trkpt lat="45.82058" lon="6.43116">
        <ele>2107</ele>
        <time>2018-10-17T10:30:34Z</time>
      </trkpt>
      <trkpt lat="45.82058" lon="6.43116">
        <ele>2107</ele>
        <time>2018-10-17T10:30:35Z</time>
      </trkpt>
      <trkpt lat="45.82058" lon="6.43116">
        <ele>2107</ele>
        <time>2018-10-17T10:30:36Z</time>
      </trkpt>
      <trkpt lat="45.82059" lon="6.43114">
        <ele>2107</ele>
        <time>2018-10-17T10:30:37Z</time>
      </trkpt>
      <trkpt lat="45.82059" lon="6.43114">
        <ele>2107</ele>
        <time>2018-10-17T10:30:38Z</time>
      </trkpt>
      <trkpt lat="45.82059" lon="6.43114">
        <ele>2108</ele>
        <time>2018-10-17T10:30:39Z</time>
      </trkpt>
      <trkpt lat="45.82059" lon="6.43114">
        <ele>2108</ele>
        <time>2018-10-17T10:30:40Z</time>
      </trkpt>
      <trkpt lat="45.8206" lon="6.43112">
        <ele>2109</ele>
        <time>2018-10-17T10:30:41Z</time>
      </trkpt>
      <trkpt lat="45.8206" lon="6.43112">
        <ele>2109</ele>
        <time>2018-10-17T10:30:42Z</time>
      </trkpt>
      <trkpt lat="45.8206" lon="6.43112">
        <ele>2109</ele>
        <time>2018-10-17T10:30:43Z</time>
      </trkpt>
      <trkpt lat="45.8206" lon="6.43112">
        <ele>2109</ele>
        <time>2018-10-17T10:30:44Z</time>
      </trkpt>
      <trkpt lat="45.8206" lon="6.43112">
        <ele>2109</ele>
        <time>2018-10-17T10:30:45Z</time>
      </trkpt>
      <trkpt lat="45.8206" lon="6.43112">
        <ele>2109</ele>
        <time>2018-10-17T10:30:46Z</time>
      </trkpt>
      <trkpt lat="45.8206" lon="6.43112">
        <ele>2110</ele>
        <time>2018-10-17T10:30:47Z</time>
      </trkpt>
      <trkpt lat="45.8206" lon="6.43112">
        <ele>2110</ele>
        <time>2018-10-17T10:30:48Z</time>
      </trkpt>
      <trkpt lat="45.8206" lon="6.43112">
        <ele>2110</ele>
        <time>2018-10-17T10:30:49Z</time>
      </trkpt>
      <trkpt lat="45.8206" lon="6.43112">
        <ele>2110</ele>
        <time>2018-10-17T10:30:50Z</time>
      </trkpt>
      <trkpt lat="45.8206" lon="6.43112">
        <ele>2112</ele>
        <time>2018-10-17T10:30:51Z</time>
      </trkpt>
      <trkpt lat="45.82059" lon="6.43109">
        <ele>2112</ele>
        <time>2018-10-17T10:30:52Z</time>
      </trkpt>
      <trkpt lat="45.82059" lon="6.43109">
        <ele>2112</ele>
        <time>2018-10-17T10:30:53Z</time>
      </trkpt>
      <trkpt lat="45.82059" lon="6.43109">
        <ele>2112</ele>
        <time>2018-10-17T10:30:54Z</time>
      </trkpt>
      <trkpt lat="45.82059" lon="6.43109">
        <ele>2113</ele>
        <time>2018-10-17T10:30:55Z</time>
      </trkpt>
      <trkpt lat="45.82059" lon="6.43106">
        <ele>2113</ele>
        <time>2018-10-17T10:30:56Z</time>
      </trkpt>
      <trkpt lat="45.82059" lon="6.43106">
        <ele>2113</ele>
        <time>2018-10-17T10:30:57Z</time>
      </trkpt>
      <trkpt lat="45.82059" lon="6.43106">
        <ele>2114</ele>
        <time>2018-10-17T10:30:58Z</time>
      </trkpt>
      <trkpt lat="45.82058" lon="6.43104">
        <ele>2114</ele>
        <time>2018-10-17T10:30:59Z</time>
      </trkpt>
      <trkpt lat="45.82058" lon="6.43104">
        <ele>2114</ele>
        <time>2018-10-17T10:31:00Z</time>
      </trkpt>
      <trkpt lat="45.82058" lon="6.43104">
        <ele>2114</ele>
        <time>2018-10-17T10:31:01Z</time>
      </trkpt>
      <trkpt lat="45.82058" lon="6.43104">
        <ele>2114</ele>
        <time>2018-10-17T10:31:02Z</time>
      </trkpt>
      <trkpt lat="45.82058" lon="6.43104">
        <ele>2115</ele>
        <time>2018-10-17T10:31:03Z</time>
      </trkpt>
      <trkpt lat="45.82058" lon="6.43104">
        <ele>2115</ele>
        <time>2018-10-17T10:31:04Z</time>
      </trkpt>
      <trkpt lat="45.82058" lon="6.43104">
        <ele>2115</ele>
        <time>2018-10-17T10:31:05Z</time>
      </trkpt>
      <trkpt lat="45.82058" lon="6.43104">
        <ele>2115</ele>
        <time>2018-10-17T10:31:06Z</time>
      </trkpt>
      <trkpt lat="45.82058" lon="6.43104">
        <ele>2115</ele>
        <time>2018-10-17T10:31:07Z</time>
      </trkpt>
      <trkpt lat="45.82058" lon="6.43104">
        <ele>2115</ele>
        <time>2018-10-17T10:31:08Z</time>
      </trkpt>
      <trkpt lat="45.82058" lon="6.43104">
        <ele>2116</ele>
        <time>2018-10-17T10:31:09Z</time>
      </trkpt>
      <trkpt lat="45.82058" lon="6.43104">
        <ele>2116</ele>
        <time>2018-10-17T10:31:10Z</time>
      </trkpt>
      <trkpt lat="45.82058" lon="6.43104">
        <ele>2116</ele>
        <time>2018-10-17T10:31:11Z</time>
      </trkpt>
      <trkpt lat="45.82058" lon="6.43104">
        <ele>2116</ele>
        <time>2018-10-17T10:31:12Z</time>
      </trkpt>
      <trkpt lat="45.82058" lon="6.43104">
        <ele>2116</ele>
        <time>2018-10-17T10:31:13Z</time>
      </trkpt>
      <trkpt lat="45.82058" lon="6.43104">
        <ele>2116</ele>
        <time>2018-10-17T10:31:14Z</time>
      </trkpt>
      <trkpt lat="45.82058" lon="6.43104">
        <ele>2117</ele>
        <time>2018-10-17T10:31:15Z</time>
      </trkpt>
      <trkpt lat="45.82058" lon="6.43104">
        <ele>2118</ele>
        <time>2018-10-17T10:31:16Z</time>
      </trkpt>
      <trkpt lat="45.82058" lon="6.43104">
        <ele>2118</ele>
        <time>2018-10-17T10:31:17Z</time>
      </trkpt>
      <trkpt lat="45.82058" lon="6.43104">
        <ele>2118</ele>
        <time>2018-10-17T10:31:18Z</time>
      </trkpt>
      <trkpt lat="45.82058" lon="6.43104">
        <ele>2118</ele>
        <time>2018-10-17T10:31:19Z</time>
      </trkpt>
      <trkpt lat="45.82058" lon="6.43104">
        <ele>2118</ele>
        <time>2018-10-17T10:31:20Z</time>
      </trkpt>
      <trkpt lat="45.82057" lon="6.43101">
        <ele>2118</ele>
        <time>2018-10-17T10:31:21Z</time>
      </trkpt>
      <trkpt lat="45.82057" lon="6.43101">
        <ele>2118</ele>
        <time>2018-10-17T10:31:22Z</time>
      </trkpt>
      <trkpt lat="45.82057" lon="6.43101">
        <ele>2119</ele>
        <time>2018-10-17T10:31:23Z</time>
      </trkpt>
      <trkpt lat="45.82057" lon="6.43101">
        <ele>2119</ele>
        <time>2018-10-17T10:31:24Z</time>
      </trkpt>
      <trkpt lat="45.82057" lon="6.43101">
        <ele>2119</ele>
        <time>2018-10-17T10:31:25Z</time>
      </trkpt>
      <trkpt lat="45.82057" lon="6.43101">
        <ele>2120</ele>
        <time>2018-10-17T10:31:26Z</time>
      </trkpt>
      <trkpt lat="45.82057" lon="6.43101">
        <ele>2120</ele>
        <time>2018-10-17T10:31:27Z</time>
      </trkpt>
      <trkpt lat="45.82056" lon="6.43099">
        <ele>2120</ele>
        <time>2018-10-17T10:31:28Z</time>
      </trkpt>
      <trkpt lat="45.82056" lon="6.43099">
        <ele>2120</ele>
        <time>2018-10-17T10:31:29Z</time>
      </trkpt>
      <trkpt lat="45.82056" lon="6.43099">
        <ele>2120</ele>
        <time>2018-10-17T10:31:30Z</time>
      </trkpt>
      <trkpt lat="45.82056" lon="6.43099">
        <ele>2121</ele>
        <time>2018-10-17T10:31:31Z</time>
      </trkpt>
      <trkpt lat="45.82056" lon="6.43099">
        <ele>2121</ele>
        <time>2018-10-17T10:31:32Z</time>
      </trkpt>
      <trkpt lat="45.82056" lon="6.43099">
        <ele>2121</ele>
        <time>2018-10-17T10:31:33Z</time>
      </trkpt>
      <trkpt lat="45.82056" lon="6.43099">
        <ele>2121</ele>
        <time>2018-10-17T10:31:34Z</time>
      </trkpt>
      <trkpt lat="45.82055" lon="6.43097">
        <ele>2121</ele>
        <time>2018-10-17T10:31:35Z</time>
      </trkpt>
      <trkpt lat="45.82055" lon="6.43097">
        <ele>2121</ele>
        <time>2018-10-17T10:31:36Z</time>
      </trkpt>
      <trkpt lat="45.82055" lon="6.43097">
        <ele>2121</ele>
        <time>2018-10-17T10:31:37Z</time>
      </trkpt>
      <trkpt lat="45.82055" lon="6.43097">
        <ele>2121</ele>
        <time>2018-10-17T10:31:38Z</time>
      </trkpt>
      <trkpt lat="45.82055" lon="6.43094">
        <ele>2121</ele>
        <time>2018-10-17T10:31:39Z</time>
      </trkpt>
      <trkpt lat="45.82055" lon="6.43094">
        <ele>2121</ele>
        <time>2018-10-17T10:31:40Z</time>
      </trkpt>
      <trkpt lat="45.82055" lon="6.43094">
        <ele>2121</ele>
        <time>2018-10-17T10:31:41Z</time>
      </trkpt>
      <trkpt lat="45.82055" lon="6.43094">
        <ele>2121</ele>
        <time>2018-10-17T10:31:42Z</time>
      </trkpt>
      <trkpt lat="45.82055" lon="6.43094">
        <ele>2122</ele>
        <time>2018-10-17T10:31:43Z</time>
      </trkpt>
      <trkpt lat="45.82054" lon="6.43091">
        <ele>2122</ele>
        <time>2018-10-17T10:31:44Z</time>
      </trkpt>
      <trkpt lat="45.82054" lon="6.43091">
        <ele>2123</ele>
        <time>2018-10-17T10:31:45Z</time>
      </trkpt>
      <trkpt lat="45.82054" lon="6.43091">
        <ele>2123</ele>
        <time>2018-10-17T10:31:46Z</time>
      </trkpt>
      <trkpt lat="45.82054" lon="6.43091">
        <ele>2123</ele>
        <time>2018-10-17T10:31:47Z</time>
      </trkpt>
      <trkpt lat="45.82053" lon="6.43089">
        <ele>2123</ele>
        <time>2018-10-17T10:31:48Z</time>
      </trkpt>
      <trkpt lat="45.82053" lon="6.43089">
        <ele>2124</ele>
        <time>2018-10-17T10:31:49Z</time>
      </trkpt>
      <trkpt lat="45.82053" lon="6.43089">
        <ele>2124</ele>
        <time>2018-10-17T10:31:50Z</time>
      </trkpt>
      <trkpt lat="45.82053" lon="6.43089">
        <ele>2124</ele>
        <time>2018-10-17T10:31:51Z</time>
      </trkpt>
      <trkpt lat="45.82053" lon="6.43086">
        <ele>2124</ele>
        <time>2018-10-17T10:31:52Z</time>
      </trkpt>
      <trkpt lat="45.82053" lon="6.43086">
        <ele>2124</ele>
        <time>2018-10-17T10:31:53Z</time>
      </trkpt>
      <trkpt lat="45.82053" lon="6.43086">
        <ele>2125</ele>
        <time>2018-10-17T10:31:54Z</time>
      </trkpt>
      <trkpt lat="45.82053" lon="6.43084">
        <ele>2125</ele>
        <time>2018-10-17T10:31:55Z</time>
      </trkpt>
      <trkpt lat="45.82053" lon="6.43084">
        <ele>2125</ele>
        <time>2018-10-17T10:31:56Z</time>
      </trkpt>
      <trkpt lat="45.82053" lon="6.43084">
        <ele>2125</ele>
        <time>2018-10-17T10:31:57Z</time>
      </trkpt>
      <trkpt lat="45.82053" lon="6.43084">
        <ele>2125</ele>
        <time>2018-10-17T10:31:58Z</time>
      </trkpt>
      <trkpt lat="45.82054" lon="6.43081">
        <ele>2125</ele>
        <time>2018-10-17T10:31:59Z</time>
      </trkpt>
      <trkpt lat="45.82054" lon="6.43081">
        <ele>2126</ele>
        <time>2018-10-17T10:32:00Z</time>
      </trkpt>
      <trkpt lat="45.82054" lon="6.43081">
        <ele>2127</ele>
        <time>2018-10-17T10:32:01Z</time>
      </trkpt>
      <trkpt lat="45.82054" lon="6.43078">
        <ele>2127</ele>
        <time>2018-10-17T10:32:02Z</time>
      </trkpt>
      <trkpt lat="45.82054" lon="6.43078">
        <ele>2127</ele>
        <time>2018-10-17T10:32:03Z</time>
      </trkpt>
      <trkpt lat="45.82054" lon="6.43078">
        <ele>2127</ele>
        <time>2018-10-17T10:32:04Z</time>
      </trkpt>
      <trkpt lat="45.82054" lon="6.43078">
        <ele>2127</ele>
        <time>2018-10-17T10:32:05Z</time>
      </trkpt>
      <trkpt lat="45.82054" lon="6.43078">
        <ele>2127</ele>
        <time>2018-10-17T10:32:06Z</time>
      </trkpt>
      <trkpt lat="45.82054" lon="6.43078">
        <ele>2127</ele>
        <time>2018-10-17T10:32:07Z</time>
      </trkpt>
      <trkpt lat="45.82054" lon="6.43078">
        <ele>2127</ele>
        <time>2018-10-17T10:32:08Z</time>
      </trkpt>
      <trkpt lat="45.82054" lon="6.43078">
        <ele>2127</ele>
        <time>2018-10-17T10:32:09Z</time>
      </trkpt>
      <trkpt lat="45.82054" lon="6.43078">
        <ele>2127</ele>
        <time>2018-10-17T10:32:10Z</time>
      </trkpt>
      <trkpt lat="45.82054" lon="6.43078">
        <ele>2127</ele>
        <time>2018-10-17T10:32:11Z</time>
      </trkpt>
      <trkpt lat="45.82052" lon="6.43078">
        <ele>2128</ele>
        <time>2018-10-17T10:32:12Z</time>
      </trkpt>
      <trkpt lat="45.82052" lon="6.43078">
        <ele>2128</ele>
        <time>2018-10-17T10:32:13Z</time>
      </trkpt>
      <trkpt lat="45.8205" lon="6.43079">
        <ele>2128</ele>
        <time>2018-10-17T10:32:14Z</time>
      </trkpt>
      <trkpt lat="45.8205" lon="6.43079">
        <ele>2128</ele>
        <time>2018-10-17T10:32:15Z</time>
      </trkpt>
      <trkpt lat="45.8205" lon="6.43079">
        <ele>2129</ele>
        <time>2018-10-17T10:32:16Z</time>
      </trkpt>
      <trkpt lat="45.82048" lon="6.43078">
        <ele>2129</ele>
        <time>2018-10-17T10:32:17Z</time>
      </trkpt>
      <trkpt lat="45.82048" lon="6.43078">
        <ele>2129</ele>
        <time>2018-10-17T10:32:18Z</time>
      </trkpt>
      <trkpt lat="45.82046" lon="6.43077">
        <ele>2129</ele>
        <time>2018-10-17T10:32:19Z</time>
      </trkpt>
      <trkpt lat="45.82046" lon="6.43077">
        <ele>2129</ele>
        <time>2018-10-17T10:32:20Z</time>
      </trkpt>
      <trkpt lat="45.82046" lon="6.43077">
        <ele>2129</ele>
        <time>2018-10-17T10:32:21Z</time>
      </trkpt>
      <trkpt lat="45.82043" lon="6.43078">
        <ele>2130</ele>
        <time>2018-10-17T10:32:22Z</time>
      </trkpt>
      <trkpt lat="45.82043" lon="6.43078">
        <ele>2130</ele>
        <time>2018-10-17T10:32:23Z</time>
      </trkpt>
      <trkpt lat="45.82041" lon="6.43078">
        <ele>2130</ele>
        <time>2018-10-17T10:32:24Z</time>
      </trkpt>
      <trkpt lat="45.82041" lon="6.43078">
        <ele>2130</ele>
        <time>2018-10-17T10:32:25Z</time>
      </trkpt>
      <trkpt lat="45.82039" lon="6.43078">
        <ele>2130</ele>
        <time>2018-10-17T10:32:26Z</time>
      </trkpt>
      <trkpt lat="45.82039" lon="6.43078">
        <ele>2130</ele>
        <time>2018-10-17T10:32:27Z</time>
      </trkpt>
      <trkpt lat="45.82037" lon="6.43079">
        <ele>2130</ele>
        <time>2018-10-17T10:32:28Z</time>
      </trkpt>
      <trkpt lat="45.82037" lon="6.43079">
        <ele>2130</ele>
        <time>2018-10-17T10:32:29Z</time>
      </trkpt>
      <trkpt lat="45.82037" lon="6.43079">
        <ele>2130</ele>
        <time>2018-10-17T10:32:30Z</time>
      </trkpt>
      <trkpt lat="45.82035" lon="6.43079">
        <ele>2130</ele>
        <time>2018-10-17T10:32:31Z</time>
      </trkpt>
      <trkpt lat="45.82035" lon="6.43079">
        <ele>2130</ele>
        <time>2018-10-17T10:32:32Z</time>
      </trkpt>
      <trkpt lat="45.82035" lon="6.43079">
        <ele>2130</ele>
        <time>2018-10-17T10:32:33Z</time>
      </trkpt>
      <trkpt lat="45.82033" lon="6.43079">
        <ele>2130</ele>
        <time>2018-10-17T10:32:34Z</time>
      </trkpt>
      <trkpt lat="45.82033" lon="6.43079">
        <ele>2130</ele>
        <time>2018-10-17T10:32:35Z</time>
      </trkpt>
      <trkpt lat="45.82033" lon="6.43079">
        <ele>2130</ele>
        <time>2018-10-17T10:32:36Z</time>
      </trkpt>
      <trkpt lat="45.82033" lon="6.43079">
        <ele>2130</ele>
        <time>2018-10-17T10:32:37Z</time>
      </trkpt>
      <trkpt lat="45.82033" lon="6.43079">
        <ele>2130</ele>
        <time>2018-10-17T10:32:38Z</time>
      </trkpt>
      <trkpt lat="45.82033" lon="6.43079">
        <ele>2130</ele>
        <time>2018-10-17T10:32:39Z</time>
      </trkpt>
      <trkpt lat="45.82033" lon="6.43079">
        <ele>2130</ele>
        <time>2018-10-17T10:32:40Z</time>
      </trkpt>
      <trkpt lat="45.82033" lon="6.43079">
        <ele>2131</ele>
        <time>2018-10-17T10:32:41Z</time>
      </trkpt>
      <trkpt lat="45.82033" lon="6.43079">
        <ele>2131</ele>
        <time>2018-10-17T10:32:42Z</time>
      </trkpt>
      <trkpt lat="45.82033" lon="6.43079">
        <ele>2131</ele>
        <time>2018-10-17T10:32:43Z</time>
      </trkpt>
      <trkpt lat="45.82033" lon="6.43079">
        <ele>2130</ele>
        <time>2018-10-17T10:32:44Z</time>
      </trkpt>
      <trkpt lat="45.82033" lon="6.43079">
        <ele>2130</ele>
        <time>2018-10-17T10:32:45Z</time>
      </trkpt>
      <trkpt lat="45.82033" lon="6.43079">
        <ele>2130</ele>
        <time>2018-10-17T10:32:46Z</time>
      </trkpt>
      <trkpt lat="45.82033" lon="6.43079">
        <ele>2130</ele>
        <time>2018-10-17T10:32:47Z</time>
      </trkpt>
      <trkpt lat="45.82033" lon="6.43079">
        <ele>2130</ele>
        <time>2018-10-17T10:32:48Z</time>
      </trkpt>
      <trkpt lat="45.82033" lon="6.43079">
        <ele>2130</ele>
        <time>2018-10-17T10:32:49Z</time>
      </trkpt>
      <trkpt lat="45.82033" lon="6.43079">
        <ele>2130</ele>
        <time>2018-10-17T10:32:50Z</time>
      </trkpt>
      <trkpt lat="45.82033" lon="6.43079">
        <ele>2130</ele>
        <time>2018-10-17T10:32:51Z</time>
      </trkpt>
      <trkpt lat="45.82033" lon="6.43079">
        <ele>2130</ele>
        <time>2018-10-17T10:32:52Z</time>
      </trkpt>
      <trkpt lat="45.82033" lon="6.43079">
        <ele>2130</ele>
        <time>2018-10-17T10:32:53Z</time>
      </trkpt>
      <trkpt lat="45.82033" lon="6.43079">
        <ele>2130</ele>
        <time>2018-10-17T10:32:54Z</time>
      </trkpt>
      <trkpt lat="45.82033" lon="6.43079">
        <ele>2130</ele>
        <time>2018-10-17T10:32:55Z</time>
      </trkpt>
      <trkpt lat="45.82033" lon="6.43079">
        <ele>2130</ele>
        <time>2018-10-17T10:32:56Z</time>
      </trkpt>
      <trkpt lat="45.82033" lon="6.43079">
        <ele>2130</ele>
        <time>2018-10-17T10:32:57Z</time>
      </trkpt>
      <trkpt lat="45.82033" lon="6.43079">
        <ele>2130</ele>
        <time>2018-10-17T10:32:58Z</time>
      </trkpt>
      <trkpt lat="45.82033" lon="6.43079">
        <ele>2130</ele>
        <time>2018-10-17T10:32:59Z</time>
      </trkpt>
      <trkpt lat="45.82033" lon="6.43079">
        <ele>2130</ele>
        <time>2018-10-17T10:33:00Z</time>
      </trkpt>
      <trkpt lat="45.82033" lon="6.43079">
        <ele>2130</ele>
        <time>2018-10-17T10:33:01Z</time>
      </trkpt>
      <trkpt lat="45.82033" lon="6.43079">
        <ele>2130</ele>
        <time>2018-10-17T10:33:02Z</time>
      </trkpt>
      <trkpt lat="45.82031" lon="6.43079">
        <ele>2130</ele>
        <time>2018-10-17T10:33:03Z</time>
      </trkpt>
      <trkpt lat="45.82031" lon="6.43079">
        <ele>2130</ele>
        <time>2018-10-17T10:33:04Z</time>
      </trkpt>
      <trkpt lat="45.82031" lon="6.43079">
        <ele>2129</ele>
        <time>2018-10-17T10:33:05Z</time>
      </trkpt>
      <trkpt lat="45.82031" lon="6.43079">
        <ele>2129</ele>
        <time>2018-10-17T10:33:06Z</time>
      </trkpt>
      <trkpt lat="45.82031" lon="6.43079">
        <ele>2129</ele>
        <time>2018-10-17T10:33:07Z</time>
      </trkpt>
      <trkpt lat="45.82031" lon="6.43079">
        <ele>2129</ele>
        <time>2018-10-17T10:33:08Z</time>
      </trkpt>
      <trkpt lat="45.82031" lon="6.43079">
        <ele>2128</ele>
        <time>2018-10-17T10:33:09Z</time>
      </trkpt>
      <trkpt lat="45.82031" lon="6.43079">
        <ele>2128</ele>
        <time>2018-10-17T10:33:10Z</time>
      </trkpt>
      <trkpt lat="45.82031" lon="6.43079">
        <ele>2128</ele>
        <time>2018-10-17T10:33:11Z</time>
      </trkpt>
      <trkpt lat="45.82031" lon="6.43079">
        <ele>2128</ele>
        <time>2018-10-17T10:33:12Z</time>
      </trkpt>
      <trkpt lat="45.82031" lon="6.43079">
        <ele>2129</ele>
        <time>2018-10-17T10:33:13Z</time>
      </trkpt>
      <trkpt lat="45.82031" lon="6.43079">
        <ele>2129</ele>
        <time>2018-10-17T10:33:14Z</time>
      </trkpt>
      <trkpt lat="45.82031" lon="6.43079">
        <ele>2129</ele>
        <time>2018-10-17T10:33:15Z</time>
      </trkpt>
      <trkpt lat="45.82031" lon="6.43079">
        <ele>2129</ele>
        <time>2018-10-17T10:33:16Z</time>
      </trkpt>
      <trkpt lat="45.82031" lon="6.43079">
        <ele>2129</ele>
        <time>2018-10-17T10:33:17Z</time>
      </trkpt>
      <trkpt lat="45.82031" lon="6.43079">
        <ele>2129</ele>
        <time>2018-10-17T10:33:18Z</time>
      </trkpt>
      <trkpt lat="45.82031" lon="6.43079">
        <ele>2129</ele>
        <time>2018-10-17T10:33:19Z</time>
      </trkpt>
      <trkpt lat="45.82031" lon="6.43079">
        <ele>2129</ele>
        <time>2018-10-17T10:33:20Z</time>
      </trkpt>
      <trkpt lat="45.82031" lon="6.43079">
        <ele>2129</ele>
        <time>2018-10-17T10:33:21Z</time>
      </trkpt>
      <trkpt lat="45.82031" lon="6.43079">
        <ele>2129</ele>
        <time>2018-10-17T10:33:22Z</time>
      </trkpt>
      <trkpt lat="45.82031" lon="6.43079">
        <ele>2129</ele>
        <time>2018-10-17T10:33:23Z</time>
      </trkpt>
      <trkpt lat="45.82031" lon="6.43079">
        <ele>2129</ele>
        <time>2018-10-17T10:33:24Z</time>
      </trkpt>
      <trkpt lat="45.82031" lon="6.43079">
        <ele>2129</ele>
        <time>2018-10-17T10:33:25Z</time>
      </trkpt>
      <trkpt lat="45.82031" lon="6.43079">
        <ele>2129</ele>
        <time>2018-10-17T10:33:26Z</time>
      </trkpt>
      <trkpt lat="45.82031" lon="6.43079">
        <ele>2129</ele>
        <time>2018-10-17T10:33:27Z</time>
      </trkpt>
      <trkpt lat="45.82031" lon="6.43079">
        <ele>2129</ele>
        <time>2018-10-17T10:33:28Z</time>
      </trkpt>
      <trkpt lat="45.82031" lon="6.43079">
        <ele>2129</ele>
        <time>2018-10-17T10:33:29Z</time>
      </trkpt>
      <trkpt lat="45.82031" lon="6.43079">
        <ele>2129</ele>
        <time>2018-10-17T10:33:30Z</time>
      </trkpt>
      <trkpt lat="45.82031" lon="6.43079">
        <ele>2129</ele>
        <time>2018-10-17T10:33:31Z</time>
      </trkpt>
      <trkpt lat="45.82031" lon="6.43079">
        <ele>2129</ele>
        <time>2018-10-17T10:33:32Z</time>
      </trkpt>
      <trkpt lat="45.82033" lon="6.4308">
        <ele>2129</ele>
        <time>2018-10-17T10:33:33Z</time>
      </trkpt>
      <trkpt lat="45.82033" lon="6.4308">
        <ele>2129</ele>
        <time>2018-10-17T10:33:34Z</time>
      </trkpt>
      <trkpt lat="45.82033" lon="6.4308">
        <ele>2130</ele>
        <time>2018-10-17T10:33:35Z</time>
      </trkpt>
      <trkpt lat="45.82033" lon="6.4308">
        <ele>2131</ele>
        <time>2018-10-17T10:33:36Z</time>
      </trkpt>
      <trkpt lat="45.82033" lon="6.4308">
        <ele>2131</ele>
        <time>2018-10-17T10:33:37Z</time>
      </trkpt>
      <trkpt lat="45.82033" lon="6.4308">
        <ele>2131</ele>
        <time>2018-10-17T10:33:38Z</time>
      </trkpt>
      <trkpt lat="45.82033" lon="6.4308">
        <ele>2130</ele>
        <time>2018-10-17T10:33:39Z</time>
      </trkpt>
      <trkpt lat="45.82033" lon="6.4308">
        <ele>2131</ele>
        <time>2018-10-17T10:33:40Z</time>
      </trkpt>
      <trkpt lat="45.82033" lon="6.4308">
        <ele>2131</ele>
        <time>2018-10-17T10:33:41Z</time>
      </trkpt>
      <trkpt lat="45.82033" lon="6.4308">
        <ele>2131</ele>
        <time>2018-10-17T10:33:42Z</time>
      </trkpt>
      <trkpt lat="45.82033" lon="6.4308">
        <ele>2131</ele>
        <time>2018-10-17T10:33:43Z</time>
      </trkpt>
      <trkpt lat="45.82033" lon="6.4308">
        <ele>2131</ele>
        <time>2018-10-17T10:33:44Z</time>
      </trkpt>
      <trkpt lat="45.82033" lon="6.4308">
        <ele>2131</ele>
        <time>2018-10-17T10:33:45Z</time>
      </trkpt>
      <trkpt lat="45.82033" lon="6.4308">
        <ele>2131</ele>
        <time>2018-10-17T10:33:46Z</time>
      </trkpt>
      <trkpt lat="45.82033" lon="6.4308">
        <ele>2131</ele>
        <time>2018-10-17T10:33:47Z</time>
      </trkpt>
      <trkpt lat="45.82033" lon="6.4308">
        <ele>2131</ele>
        <time>2018-10-17T10:33:48Z</time>
      </trkpt>
      <trkpt lat="45.82033" lon="6.4308">
        <ele>2131</ele>
        <time>2018-10-17T10:33:49Z</time>
      </trkpt>
      <trkpt lat="45.82033" lon="6.4308">
        <ele>2131</ele>
        <time>2018-10-17T10:33:50Z</time>
      </trkpt>
      <trkpt lat="45.82033" lon="6.4308">
        <ele>2131</ele>
        <time>2018-10-17T10:33:51Z</time>
      </trkpt>
      <trkpt lat="45.82033" lon="6.4308">
        <ele>2131</ele>
        <time>2018-10-17T10:33:52Z</time>
      </trkpt>
      <trkpt lat="45.82033" lon="6.4308">
        <ele>2131</ele>
        <time>2018-10-17T10:33:53Z</time>
      </trkpt>
      <trkpt lat="45.82033" lon="6.4308">
        <ele>2131</ele>
        <time>2018-10-17T10:33:54Z</time>
      </trkpt>
      <trkpt lat="45.82033" lon="6.4308">
        <ele>2131</ele>
        <time>2018-10-17T10:33:55Z</time>
      </trkpt>
      <trkpt lat="45.82033" lon="6.4308">
        <ele>2131</ele>
        <time>2018-10-17T10:33:56Z</time>
      </trkpt>
      <trkpt lat="45.82033" lon="6.4308">
        <ele>2131</ele>
        <time>2018-10-17T10:33:57Z</time>
      </trkpt>
      <trkpt lat="45.82033" lon="6.4308">
        <ele>2131</ele>
        <time>2018-10-17T10:33:58Z</time>
      </trkpt>
      <trkpt lat="45.82033" lon="6.4308">
        <ele>2131</ele>
        <time>2018-10-17T10:33:59Z</time>
      </trkpt>
      <trkpt lat="45.82033" lon="6.4308">
        <ele>2131</ele>
        <time>2018-10-17T10:34:00Z</time>
      </trkpt>
      <trkpt lat="45.82033" lon="6.4308">
        <ele>2131</ele>
        <time>2018-10-17T10:34:01Z</time>
      </trkpt>
      <trkpt lat="45.82033" lon="6.4308">
        <ele>2131</ele>
        <time>2018-10-17T10:34:02Z</time>
      </trkpt>
      <trkpt lat="45.82033" lon="6.4308">
        <ele>2131</ele>
        <time>2018-10-17T10:34:03Z</time>
      </trkpt>
      <trkpt lat="45.82033" lon="6.4308">
        <ele>2131</ele>
        <time>2018-10-17T10:34:04Z</time>
      </trkpt>
      <trkpt lat="45.82033" lon="6.4308">
        <ele>2131</ele>
        <time>2018-10-17T10:34:05Z</time>
      </trkpt>
      <trkpt lat="45.82033" lon="6.4308">
        <ele>2131</ele>
        <time>2018-10-17T10:34:06Z</time>
      </trkpt>
      <trkpt lat="45.82033" lon="6.4308">
        <ele>2131</ele>
        <time>2018-10-17T10:34:07Z</time>
      </trkpt>
      <trkpt lat="45.82033" lon="6.4308">
        <ele>2131</ele>
        <time>2018-10-17T10:34:08Z</time>
      </trkpt>
      <trkpt lat="45.82033" lon="6.4308">
        <ele>2130</ele>
        <time>2018-10-17T10:34:09Z</time>
      </trkpt>
      <trkpt lat="45.82033" lon="6.4308">
        <ele>2130</ele>
        <time>2018-10-17T10:34:10Z</time>
      </trkpt>
      <trkpt lat="45.82033" lon="6.4308">
        <ele>2130</ele>
        <time>2018-10-17T10:34:11Z</time>
      </trkpt>
      <trkpt lat="45.82033" lon="6.4308">
        <ele>2130</ele>
        <time>2018-10-17T10:34:12Z</time>
      </trkpt>
      <trkpt lat="45.82033" lon="6.4308">
        <ele>2130</ele>
        <time>2018-10-17T10:34:13Z</time>
      </trkpt>
      <trkpt lat="45.82033" lon="6.4308">
        <ele>2130</ele>
        <time>2018-10-17T10:34:14Z</time>
      </trkpt>
      <trkpt lat="45.82033" lon="6.4308">
        <ele>2130</ele>
        <time>2018-10-17T10:34:15Z</time>
      </trkpt>
      <trkpt lat="45.82033" lon="6.4308">
        <ele>2130</ele>
        <time>2018-10-17T10:34:16Z</time>
      </trkpt>
      <trkpt lat="45.82033" lon="6.4308">
        <ele>2130</ele>
        <time>2018-10-17T10:34:17Z</time>
      </trkpt>
      <trkpt lat="45.82033" lon="6.4308">
        <ele>2130</ele>
        <time>2018-10-17T10:34:18Z</time>
      </trkpt>
      <trkpt lat="45.82033" lon="6.4308">
        <ele>2130</ele>
        <time>2018-10-17T10:34:19Z</time>
      </trkpt>
      <trkpt lat="45.82033" lon="6.4308">
        <ele>2130</ele>
        <time>2018-10-17T10:34:20Z</time>
      </trkpt>
      <trkpt lat="45.82033" lon="6.4308">
        <ele>2130</ele>
        <time>2018-10-17T10:34:21Z</time>
      </trkpt>
      <trkpt lat="45.82033" lon="6.4308">
        <ele>2130</ele>
        <time>2018-10-17T10:34:22Z</time>
      </trkpt>
      <trkpt lat="45.82033" lon="6.4308">
        <ele>2130</ele>
        <time>2018-10-17T10:34:23Z</time>
      </trkpt>
      <trkpt lat="45.82033" lon="6.4308">
        <ele>2130</ele>
        <time>2018-10-17T10:34:24Z</time>
      </trkpt>
      <trkpt lat="45.82033" lon="6.4308">
        <ele>2130</ele>
        <time>2018-10-17T10:34:25Z</time>
      </trkpt>
      <trkpt lat="45.82033" lon="6.4308">
        <ele>2130</ele>
        <time>2018-10-17T10:34:26Z</time>
      </trkpt>
      <trkpt lat="45.82033" lon="6.4308">
        <ele>2130</ele>
        <time>2018-10-17T10:34:27Z</time>
      </trkpt>
      <trkpt lat="45.82033" lon="6.4308">
        <ele>2130</ele>
        <time>2018-10-17T10:34:28Z</time>
      </trkpt>
      <trkpt lat="45.82033" lon="6.4308">
        <ele>2130</ele>
        <time>2018-10-17T10:34:29Z</time>
      </trkpt>
      <trkpt lat="45.82033" lon="6.4308">
        <ele>2130</ele>
        <time>2018-10-17T10:34:30Z</time>
      </trkpt>
      <trkpt lat="45.82033" lon="6.4308">
        <ele>2130</ele>
        <time>2018-10-17T10:34:31Z</time>
      </trkpt>
      <trkpt lat="45.82033" lon="6.4308">
        <ele>2130</ele>
        <time>2018-10-17T10:34:32Z</time>
      </trkpt>
      <trkpt lat="45.82033" lon="6.4308">
        <ele>2130</ele>
        <time>2018-10-17T10:34:33Z</time>
      </trkpt>
      <trkpt lat="45.82033" lon="6.4308">
        <ele>2129</ele>
        <time>2018-10-17T10:34:34Z</time>
      </trkpt>
      <trkpt lat="45.82033" lon="6.4308">
        <ele>2130</ele>
        <time>2018-10-17T10:34:35Z</time>
      </trkpt>
      <trkpt lat="45.82033" lon="6.4308">
        <ele>2131</ele>
        <time>2018-10-17T10:34:36Z</time>
      </trkpt>
      <trkpt lat="45.82033" lon="6.4308">
        <ele>2131</ele>
        <time>2018-10-17T10:34:37Z</time>
      </trkpt>
      <trkpt lat="45.82033" lon="6.4308">
        <ele>2131</ele>
        <time>2018-10-17T10:34:38Z</time>
      </trkpt>
      <trkpt lat="45.82033" lon="6.4308">
        <ele>2131</ele>
        <time>2018-10-17T10:34:39Z</time>
      </trkpt>
      <trkpt lat="45.82033" lon="6.4308">
        <ele>2131</ele>
        <time>2018-10-17T10:34:40Z</time>
      </trkpt>
      <trkpt lat="45.82033" lon="6.4308">
        <ele>2131</ele>
        <time>2018-10-17T10:34:41Z</time>
      </trkpt>
      <trkpt lat="45.82033" lon="6.4308">
        <ele>2131</ele>
        <time>2018-10-17T10:34:42Z</time>
      </trkpt>
      <trkpt lat="45.82033" lon="6.4308">
        <ele>2130</ele>
        <time>2018-10-17T10:34:43Z</time>
      </trkpt>
      <trkpt lat="45.82033" lon="6.4308">
        <ele>2130</ele>
        <time>2018-10-17T10:34:44Z</time>
      </trkpt>
      <trkpt lat="45.82033" lon="6.4308">
        <ele>2130</ele>
        <time>2018-10-17T10:34:45Z</time>
      </trkpt>
      <trkpt lat="45.82033" lon="6.4308">
        <ele>2130</ele>
        <time>2018-10-17T10:34:46Z</time>
      </trkpt>
      <trkpt lat="45.82033" lon="6.4308">
        <ele>2130</ele>
        <time>2018-10-17T10:34:47Z</time>
      </trkpt>
      <trkpt lat="45.82033" lon="6.4308">
        <ele>2130</ele>
        <time>2018-10-17T10:34:48Z</time>
      </trkpt>
      <trkpt lat="45.82033" lon="6.4308">
        <ele>2130</ele>
        <time>2018-10-17T10:34:49Z</time>
      </trkpt>
      <trkpt lat="45.82033" lon="6.4308">
        <ele>2130</ele>
        <time>2018-10-17T10:34:50Z</time>
      </trkpt>
      <trkpt lat="45.82033" lon="6.4308">
        <ele>2130</ele>
        <time>2018-10-17T10:34:51Z</time>
      </trkpt>
      <trkpt lat="45.82033" lon="6.4308">
        <ele>2130</ele>
        <time>2018-10-17T10:34:52Z</time>
      </trkpt>
      <trkpt lat="45.82033" lon="6.4308">
        <ele>2130</ele>
        <time>2018-10-17T10:34:53Z</time>
      </trkpt>
      <trkpt lat="45.82033" lon="6.4308">
        <ele>2130</ele>
        <time>2018-10-17T10:34:54Z</time>
      </trkpt>
      <trkpt lat="45.82033" lon="6.4308">
        <ele>2130</ele>
        <time>2018-10-17T10:34:55Z</time>
      </trkpt>
      <trkpt lat="45.82033" lon="6.4308">
        <ele>2130</ele>
        <time>2018-10-17T10:34:56Z</time>
      </trkpt>
      <trkpt lat="45.82033" lon="6.4308">
        <ele>2130</ele>
        <time>2018-10-17T10:34:57Z</time>
      </trkpt>
      <trkpt lat="45.82033" lon="6.4308">
        <ele>2131</ele>
        <time>2018-10-17T10:34:58Z</time>
      </trkpt>
      <trkpt lat="45.82033" lon="6.4308">
        <ele>2131</ele>
        <time>2018-10-17T10:34:59Z</time>
      </trkpt>
      <trkpt lat="45.82033" lon="6.4308">
        <ele>2131</ele>
        <time>2018-10-17T10:35:00Z</time>
      </trkpt>
      <trkpt lat="45.82033" lon="6.4308">
        <ele>2131</ele>
        <time>2018-10-17T10:35:01Z</time>
      </trkpt>
      <trkpt lat="45.82033" lon="6.4308">
        <ele>2131</ele>
        <time>2018-10-17T10:35:02Z</time>
      </trkpt>
      <trkpt lat="45.82033" lon="6.4308">
        <ele>2131</ele>
        <time>2018-10-17T10:35:03Z</time>
      </trkpt>
      <trkpt lat="45.82033" lon="6.4308">
        <ele>2131</ele>
        <time>2018-10-17T10:35:04Z</time>
      </trkpt>
      <trkpt lat="45.82033" lon="6.4308">
        <ele>2131</ele>
        <time>2018-10-17T10:35:05Z</time>
      </trkpt>
      <trkpt lat="45.82033" lon="6.4308">
        <ele>2131</ele>
        <time>2018-10-17T10:35:06Z</time>
      </trkpt>
      <trkpt lat="45.82033" lon="6.4308">
        <ele>2131</ele>
        <time>2018-10-17T10:35:07Z</time>
      </trkpt>
      <trkpt lat="45.82033" lon="6.4308">
        <ele>2131</ele>
        <time>2018-10-17T10:35:08Z</time>
      </trkpt>
      <trkpt lat="45.82033" lon="6.4308">
        <ele>2131</ele>
        <time>2018-10-17T10:35:09Z</time>
      </trkpt>
      <trkpt lat="45.82033" lon="6.4308">
        <ele>2131</ele>
        <time>2018-10-17T10:35:10Z</time>
      </trkpt>
      <trkpt lat="45.82033" lon="6.4308">
        <ele>2131</ele>
        <time>2018-10-17T10:35:11Z</time>
      </trkpt>
      <trkpt lat="45.82033" lon="6.4308">
        <ele>2130</ele>
        <time>2018-10-17T10:35:12Z</time>
      </trkpt>
      <trkpt lat="45.82033" lon="6.4308">
        <ele>2130</ele>
        <time>2018-10-17T10:35:13Z</time>
      </trkpt>
      <trkpt lat="45.82033" lon="6.4308">
        <ele>2130</ele>
        <time>2018-10-17T10:35:14Z</time>
      </trkpt>
      <trkpt lat="45.82033" lon="6.4308">
        <ele>2131</ele>
        <time>2018-10-17T10:35:15Z</time>
      </trkpt>
      <trkpt lat="45.82033" lon="6.4308">
        <ele>2131</ele>
        <time>2018-10-17T10:35:16Z</time>
      </trkpt>
      <trkpt lat="45.82033" lon="6.4308">
        <ele>2131</ele>
        <time>2018-10-17T10:35:17Z</time>
      </trkpt>
      <trkpt lat="45.82033" lon="6.4308">
        <ele>2131</ele>
        <time>2018-10-17T10:35:18Z</time>
      </trkpt>
      <trkpt lat="45.82033" lon="6.4308">
        <ele>2131</ele>
        <time>2018-10-17T10:35:19Z</time>
      </trkpt>
      <trkpt lat="45.82033" lon="6.4308">
        <ele>2131</ele>
        <time>2018-10-17T10:35:20Z</time>
      </trkpt>
      <trkpt lat="45.82033" lon="6.4308">
        <ele>2130</ele>
        <time>2018-10-17T10:35:21Z</time>
      </trkpt>
      <trkpt lat="45.82033" lon="6.4308">
        <ele>2131</ele>
        <time>2018-10-17T10:35:22Z</time>
      </trkpt>
      <trkpt lat="45.82033" lon="6.4308">
        <ele>2131</ele>
        <time>2018-10-17T10:35:23Z</time>
      </trkpt>
      <trkpt lat="45.82033" lon="6.4308">
        <ele>2131</ele>
        <time>2018-10-17T10:35:24Z</time>
      </trkpt>
      <trkpt lat="45.82033" lon="6.4308">
        <ele>2131</ele>
        <time>2018-10-17T10:35:25Z</time>
      </trkpt>
      <trkpt lat="45.82033" lon="6.4308">
        <ele>2130</ele>
        <time>2018-10-17T10:35:26Z</time>
      </trkpt>
      <trkpt lat="45.82033" lon="6.4308">
        <ele>2130</ele>
        <time>2018-10-17T10:35:27Z</time>
      </trkpt>
      <trkpt lat="45.82033" lon="6.4308">
        <ele>2130</ele>
        <time>2018-10-17T10:35:28Z</time>
      </trkpt>
      <trkpt lat="45.82033" lon="6.4308">
        <ele>2130</ele>
        <time>2018-10-17T10:35:29Z</time>
      </trkpt>
      <trkpt lat="45.82033" lon="6.4308">
        <ele>2130</ele>
        <time>2018-10-17T10:35:30Z</time>
      </trkpt>
      <trkpt lat="45.82033" lon="6.4308">
        <ele>2130</ele>
        <time>2018-10-17T10:35:31Z</time>
      </trkpt>
      <trkpt lat="45.82033" lon="6.4308">
        <ele>2130</ele>
        <time>2018-10-17T10:35:32Z</time>
      </trkpt>
      <trkpt lat="45.82033" lon="6.4308">
        <ele>2130</ele>
        <time>2018-10-17T10:35:33Z</time>
      </trkpt>
      <trkpt lat="45.82033" lon="6.4308">
        <ele>2130</ele>
        <time>2018-10-17T10:35:34Z</time>
      </trkpt>
      <trkpt lat="45.82033" lon="6.4308">
        <ele>2130</ele>
        <time>2018-10-17T10:35:35Z</time>
      </trkpt>
      <trkpt lat="45.82033" lon="6.4308">
        <ele>2130</ele>
        <time>2018-10-17T10:35:36Z</time>
      </trkpt>
      <trkpt lat="45.82033" lon="6.4308">
        <ele>2130</ele>
        <time>2018-10-17T10:35:37Z</time>
      </trkpt>
      <trkpt lat="45.82033" lon="6.4308">
        <ele>2130</ele>
        <time>2018-10-17T10:35:38Z</time>
      </trkpt>
      <trkpt lat="45.82033" lon="6.4308">
        <ele>2130</ele>
        <time>2018-10-17T10:35:39Z</time>
      </trkpt>
      <trkpt lat="45.82033" lon="6.4308">
        <ele>2130</ele>
        <time>2018-10-17T10:35:40Z</time>
      </trkpt>
      <trkpt lat="45.82033" lon="6.4308">
        <ele>2130</ele>
        <time>2018-10-17T10:35:41Z</time>
      </trkpt>
      <trkpt lat="45.82033" lon="6.4308">
        <ele>2130</ele>
        <time>2018-10-17T10:35:42Z</time>
      </trkpt>
      <trkpt lat="45.82033" lon="6.4308">
        <ele>2130</ele>
        <time>2018-10-17T10:35:43Z</time>
      </trkpt>
      <trkpt lat="45.82033" lon="6.4308">
        <ele>2130</ele>
        <time>2018-10-17T10:35:44Z</time>
      </trkpt>
      <trkpt lat="45.8203" lon="6.4308">
        <ele>2129</ele>
        <time>2018-10-17T10:35:45Z</time>
      </trkpt>
      <trkpt lat="45.8203" lon="6.4308">
        <ele>2129</ele>
        <time>2018-10-17T10:35:46Z</time>
      </trkpt>
      <trkpt lat="45.82028" lon="6.43079">
        <ele>2129</ele>
        <time>2018-10-17T10:35:47Z</time>
      </trkpt>
      <trkpt lat="45.82028" lon="6.43079">
        <ele>2129</ele>
        <time>2018-10-17T10:35:48Z</time>
      </trkpt>
      <trkpt lat="45.82026" lon="6.43079">
        <ele>2129</ele>
        <time>2018-10-17T10:35:49Z</time>
      </trkpt>
      <trkpt lat="45.82026" lon="6.43079">
        <ele>2129</ele>
        <time>2018-10-17T10:35:50Z</time>
      </trkpt>
      <trkpt lat="45.82024" lon="6.43078">
        <ele>2129</ele>
        <time>2018-10-17T10:35:51Z</time>
      </trkpt>
      <trkpt lat="45.82022" lon="6.43077">
        <ele>2128</ele>
        <time>2018-10-17T10:35:52Z</time>
      </trkpt>
      <trkpt lat="45.82022" lon="6.43077">
        <ele>2128</ele>
        <time>2018-10-17T10:35:53Z</time>
      </trkpt>
      <trkpt lat="45.8202" lon="6.43076">
        <ele>2128</ele>
        <time>2018-10-17T10:35:54Z</time>
      </trkpt>
      <trkpt lat="45.8202" lon="6.43076">
        <ele>2128</ele>
        <time>2018-10-17T10:35:55Z</time>
      </trkpt>
      <trkpt lat="45.8202" lon="6.43076">
        <ele>2128</ele>
        <time>2018-10-17T10:35:56Z</time>
      </trkpt>
      <trkpt lat="45.8202" lon="6.43076">
        <ele>2128</ele>
        <time>2018-10-17T10:35:57Z</time>
      </trkpt>
      <trkpt lat="45.8202" lon="6.43076">
        <ele>2128</ele>
        <time>2018-10-17T10:35:58Z</time>
      </trkpt>
      <trkpt lat="45.8202" lon="6.43076">
        <ele>2128</ele>
        <time>2018-10-17T10:35:59Z</time>
      </trkpt>
      <trkpt lat="45.8202" lon="6.43076">
        <ele>2127</ele>
        <time>2018-10-17T10:36:00Z</time>
      </trkpt>
      <trkpt lat="45.82018" lon="6.43077">
        <ele>2127</ele>
        <time>2018-10-17T10:36:01Z</time>
      </trkpt>
      <trkpt lat="45.82018" lon="6.43077">
        <ele>2127</ele>
        <time>2018-10-17T10:36:02Z</time>
      </trkpt>
      <trkpt lat="45.82015" lon="6.43077">
        <ele>2127</ele>
        <time>2018-10-17T10:36:03Z</time>
      </trkpt>
      <trkpt lat="45.82015" lon="6.43077">
        <ele>2127</ele>
        <time>2018-10-17T10:36:04Z</time>
      </trkpt>
      <trkpt lat="45.82013" lon="6.43076">
        <ele>2126</ele>
        <time>2018-10-17T10:36:05Z</time>
      </trkpt>
      <trkpt lat="45.82013" lon="6.43076">
        <ele>2126</ele>
        <time>2018-10-17T10:36:06Z</time>
      </trkpt>
      <trkpt lat="45.8201" lon="6.43075">
        <ele>2126</ele>
        <time>2018-10-17T10:36:07Z</time>
      </trkpt>
      <trkpt lat="45.8201" lon="6.43075">
        <ele>2126</ele>
        <time>2018-10-17T10:36:08Z</time>
      </trkpt>
      <trkpt lat="45.82007" lon="6.43073">
        <ele>2125</ele>
        <time>2018-10-17T10:36:09Z</time>
      </trkpt>
      <trkpt lat="45.82007" lon="6.43073">
        <ele>2124</ele>
        <time>2018-10-17T10:36:10Z</time>
      </trkpt>
      <trkpt lat="45.82004" lon="6.43071">
        <ele>2124</ele>
        <time>2018-10-17T10:36:11Z</time>
      </trkpt>
      <trkpt lat="45.82004" lon="6.43071">
        <ele>2124</ele>
        <time>2018-10-17T10:36:12Z</time>
      </trkpt>
      <trkpt lat="45.82002" lon="6.4307">
        <ele>2124</ele>
        <time>2018-10-17T10:36:13Z</time>
      </trkpt>
      <trkpt lat="45.82002" lon="6.4307">
        <ele>2123</ele>
        <time>2018-10-17T10:36:14Z</time>
      </trkpt>
      <trkpt lat="45.81999" lon="6.43069">
        <ele>2122</ele>
        <time>2018-10-17T10:36:15Z</time>
      </trkpt>
      <trkpt lat="45.81999" lon="6.43069">
        <ele>2121</ele>
        <time>2018-10-17T10:36:16Z</time>
      </trkpt>
      <trkpt lat="45.81997" lon="6.43067">
        <ele>2121</ele>
        <time>2018-10-17T10:36:17Z</time>
      </trkpt>
      <trkpt lat="45.81997" lon="6.43067">
        <ele>2120</ele>
        <time>2018-10-17T10:36:18Z</time>
      </trkpt>
      <trkpt lat="45.81994" lon="6.43065">
        <ele>2121</ele>
        <time>2018-10-17T10:36:19Z</time>
      </trkpt>
      <trkpt lat="45.81994" lon="6.43065">
        <ele>2121</ele>
        <time>2018-10-17T10:36:20Z</time>
      </trkpt>
      <trkpt lat="45.81994" lon="6.43065">
        <ele>2121</ele>
        <time>2018-10-17T10:36:21Z</time>
      </trkpt>
      <trkpt lat="45.81992" lon="6.43065">
        <ele>2121</ele>
        <time>2018-10-17T10:36:22Z</time>
      </trkpt>
      <trkpt lat="45.81992" lon="6.43065">
        <ele>2121</ele>
        <time>2018-10-17T10:36:23Z</time>
      </trkpt>
      <trkpt lat="45.8199" lon="6.43064">
        <ele>2121</ele>
        <time>2018-10-17T10:36:24Z</time>
      </trkpt>
      <trkpt lat="45.8199" lon="6.43064">
        <ele>2121</ele>
        <time>2018-10-17T10:36:25Z</time>
      </trkpt>
      <trkpt lat="45.81988" lon="6.43063">
        <ele>2121</ele>
        <time>2018-10-17T10:36:26Z</time>
      </trkpt>
      <trkpt lat="45.81988" lon="6.43063">
        <ele>2120</ele>
        <time>2018-10-17T10:36:27Z</time>
      </trkpt>
      <trkpt lat="45.81986" lon="6.43063">
        <ele>2121</ele>
        <time>2018-10-17T10:36:28Z</time>
      </trkpt>
      <trkpt lat="45.81986" lon="6.43063">
        <ele>2121</ele>
        <time>2018-10-17T10:36:29Z</time>
      </trkpt>
      <trkpt lat="45.81984" lon="6.43061">
        <ele>2120</ele>
        <time>2018-10-17T10:36:30Z</time>
      </trkpt>
      <trkpt lat="45.81984" lon="6.43061">
        <ele>2120</ele>
        <time>2018-10-17T10:36:31Z</time>
      </trkpt>
      <trkpt lat="45.81983" lon="6.4306">
        <ele>2120</ele>
        <time>2018-10-17T10:36:32Z</time>
      </trkpt>
      <trkpt lat="45.81983" lon="6.4306">
        <ele>2120</ele>
        <time>2018-10-17T10:36:33Z</time>
      </trkpt>
      <trkpt lat="45.8198" lon="6.43058">
        <ele>2119</ele>
        <time>2018-10-17T10:36:34Z</time>
      </trkpt>
      <trkpt lat="45.8198" lon="6.43058">
        <ele>2119</ele>
        <time>2018-10-17T10:36:35Z</time>
      </trkpt>
      <trkpt lat="45.81979" lon="6.43056">
        <ele>2119</ele>
        <time>2018-10-17T10:36:36Z</time>
      </trkpt>
      <trkpt lat="45.81979" lon="6.43056">
        <ele>2119</ele>
        <time>2018-10-17T10:36:37Z</time>
      </trkpt>
      <trkpt lat="45.81977" lon="6.43054">
        <ele>2118</ele>
        <time>2018-10-17T10:36:38Z</time>
      </trkpt>
      <trkpt lat="45.81977" lon="6.43054">
        <ele>2117</ele>
        <time>2018-10-17T10:36:39Z</time>
      </trkpt>
      <trkpt lat="45.81977" lon="6.43054">
        <ele>2117</ele>
        <time>2018-10-17T10:36:40Z</time>
      </trkpt>
      <trkpt lat="45.81977" lon="6.43054">
        <ele>2117</ele>
        <time>2018-10-17T10:36:41Z</time>
      </trkpt>
      <trkpt lat="45.81977" lon="6.43054">
        <ele>2117</ele>
        <time>2018-10-17T10:36:42Z</time>
      </trkpt>
      <trkpt lat="45.81977" lon="6.43054">
        <ele>2118</ele>
        <time>2018-10-17T10:36:43Z</time>
      </trkpt>
      <trkpt lat="45.81977" lon="6.43054">
        <ele>2118</ele>
        <time>2018-10-17T10:36:44Z</time>
      </trkpt>
      <trkpt lat="45.81977" lon="6.43054">
        <ele>2118</ele>
        <time>2018-10-17T10:36:45Z</time>
      </trkpt>
      <trkpt lat="45.81977" lon="6.43054">
        <ele>2118</ele>
        <time>2018-10-17T10:36:46Z</time>
      </trkpt>
      <trkpt lat="45.81977" lon="6.43054">
        <ele>2118</ele>
        <time>2018-10-17T10:36:47Z</time>
      </trkpt>
      <trkpt lat="45.81977" lon="6.43054">
        <ele>2118</ele>
        <time>2018-10-17T10:36:48Z</time>
      </trkpt>
      <trkpt lat="45.81977" lon="6.43054">
        <ele>2118</ele>
        <time>2018-10-17T10:36:49Z</time>
      </trkpt>
      <trkpt lat="45.81977" lon="6.43054">
        <ele>2118</ele>
        <time>2018-10-17T10:36:50Z</time>
      </trkpt>
      <trkpt lat="45.81977" lon="6.43054">
        <ele>2118</ele>
        <time>2018-10-17T10:36:51Z</time>
      </trkpt>
      <trkpt lat="45.81977" lon="6.43054">
        <ele>2118</ele>
        <time>2018-10-17T10:36:52Z</time>
      </trkpt>
      <trkpt lat="45.81977" lon="6.43054">
        <ele>2118</ele>
        <time>2018-10-17T10:36:53Z</time>
      </trkpt>
      <trkpt lat="45.81977" lon="6.43054">
        <ele>2118</ele>
        <time>2018-10-17T10:36:54Z</time>
      </trkpt>
      <trkpt lat="45.81977" lon="6.43054">
        <ele>2118</ele>
        <time>2018-10-17T10:36:55Z</time>
      </trkpt>
      <trkpt lat="45.81977" lon="6.43054">
        <ele>2118</ele>
        <time>2018-10-17T10:36:56Z</time>
      </trkpt>
      <trkpt lat="45.81977" lon="6.43054">
        <ele>2118</ele>
        <time>2018-10-17T10:36:57Z</time>
      </trkpt>
      <trkpt lat="45.81977" lon="6.43054">
        <ele>2118</ele>
        <time>2018-10-17T10:36:58Z</time>
      </trkpt>
      <trkpt lat="45.81977" lon="6.43054">
        <ele>2118</ele>
        <time>2018-10-17T10:36:59Z</time>
      </trkpt>
      <trkpt lat="45.81977" lon="6.43054">
        <ele>2118</ele>
        <time>2018-10-17T10:37:00Z</time>
      </trkpt>
      <trkpt lat="45.81977" lon="6.43054">
        <ele>2118</ele>
        <time>2018-10-17T10:37:01Z</time>
      </trkpt>
      <trkpt lat="45.81977" lon="6.43054">
        <ele>2118</ele>
        <time>2018-10-17T10:37:02Z</time>
      </trkpt>
      <trkpt lat="45.81977" lon="6.43054">
        <ele>2118</ele>
        <time>2018-10-17T10:37:03Z</time>
      </trkpt>
      <trkpt lat="45.81977" lon="6.43054">
        <ele>2118</ele>
        <time>2018-10-17T10:37:04Z</time>
      </trkpt>
      <trkpt lat="45.81977" lon="6.43054">
        <ele>2118</ele>
        <time>2018-10-17T10:37:05Z</time>
      </trkpt>
      <trkpt lat="45.81977" lon="6.43054">
        <ele>2118</ele>
        <time>2018-10-17T10:37:06Z</time>
      </trkpt>
      <trkpt lat="45.81977" lon="6.43054">
        <ele>2118</ele>
        <time>2018-10-17T10:37:07Z</time>
      </trkpt>
      <trkpt lat="45.81977" lon="6.43054">
        <ele>2118</ele>
        <time>2018-10-17T10:37:08Z</time>
      </trkpt>
      <trkpt lat="45.81977" lon="6.43054">
        <ele>2118</ele>
        <time>2018-10-17T10:37:09Z</time>
      </trkpt>
      <trkpt lat="45.81977" lon="6.43054">
        <ele>2118</ele>
        <time>2018-10-17T10:37:10Z</time>
      </trkpt>
      <trkpt lat="45.81977" lon="6.43054">
        <ele>2118</ele>
        <time>2018-10-17T10:37:11Z</time>
      </trkpt>
      <trkpt lat="45.81977" lon="6.43054">
        <ele>2118</ele>
        <time>2018-10-17T10:37:12Z</time>
      </trkpt>
      <trkpt lat="45.81977" lon="6.43054">
        <ele>2118</ele>
        <time>2018-10-17T10:37:13Z</time>
      </trkpt>
      <trkpt lat="45.81977" lon="6.43054">
        <ele>2118</ele>
        <time>2018-10-17T10:37:14Z</time>
      </trkpt>
      <trkpt lat="45.81977" lon="6.43054">
        <ele>2118</ele>
        <time>2018-10-17T10:37:15Z</time>
      </trkpt>
      <trkpt lat="45.81977" lon="6.43054">
        <ele>2118</ele>
        <time>2018-10-17T10:37:16Z</time>
      </trkpt>
      <trkpt lat="45.81977" lon="6.43054">
        <ele>2118</ele>
        <time>2018-10-17T10:37:17Z</time>
      </trkpt>
      <trkpt lat="45.81977" lon="6.43054">
        <ele>2118</ele>
        <time>2018-10-17T10:37:18Z</time>
      </trkpt>
      <trkpt lat="45.81977" lon="6.43054">
        <ele>2118</ele>
        <time>2018-10-17T10:37:19Z</time>
      </trkpt>
      <trkpt lat="45.81977" lon="6.43054">
        <ele>2118</ele>
        <time>2018-10-17T10:37:20Z</time>
      </trkpt>
      <trkpt lat="45.81977" lon="6.43054">
        <ele>2118</ele>
        <time>2018-10-17T10:37:21Z</time>
      </trkpt>
      <trkpt lat="45.81977" lon="6.43054">
        <ele>2118</ele>
        <time>2018-10-17T10:37:22Z</time>
      </trkpt>
      <trkpt lat="45.81977" lon="6.43054">
        <ele>2118</ele>
        <time>2018-10-17T10:37:23Z</time>
      </trkpt>
      <trkpt lat="45.81977" lon="6.43054">
        <ele>2118</ele>
        <time>2018-10-17T10:37:24Z</time>
      </trkpt>
      <trkpt lat="45.81977" lon="6.43054">
        <ele>2118</ele>
        <time>2018-10-17T10:37:25Z</time>
      </trkpt>
      <trkpt lat="45.81977" lon="6.43054">
        <ele>2118</ele>
        <time>2018-10-17T10:37:26Z</time>
      </trkpt>
      <trkpt lat="45.81977" lon="6.43054">
        <ele>2118</ele>
        <time>2018-10-17T10:37:27Z</time>
      </trkpt>
      <trkpt lat="45.81977" lon="6.43054">
        <ele>2118</ele>
        <time>2018-10-17T10:37:28Z</time>
      </trkpt>
      <trkpt lat="45.81977" lon="6.43054">
        <ele>2118</ele>
        <time>2018-10-17T10:37:29Z</time>
      </trkpt>
      <trkpt lat="45.81977" lon="6.43054">
        <ele>2118</ele>
        <time>2018-10-17T10:37:30Z</time>
      </trkpt>
      <trkpt lat="45.81977" lon="6.43054">
        <ele>2118</ele>
        <time>2018-10-17T10:37:31Z</time>
      </trkpt>
      <trkpt lat="45.81977" lon="6.43054">
        <ele>2118</ele>
        <time>2018-10-17T10:37:32Z</time>
      </trkpt>
      <trkpt lat="45.81977" lon="6.43054">
        <ele>2118</ele>
        <time>2018-10-17T10:37:33Z</time>
      </trkpt>
      <trkpt lat="45.81977" lon="6.43054">
        <ele>2117</ele>
        <time>2018-10-17T10:37:34Z</time>
      </trkpt>
      <trkpt lat="45.81977" lon="6.43054">
        <ele>2117</ele>
        <time>2018-10-17T10:37:35Z</time>
      </trkpt>
      <trkpt lat="45.81977" lon="6.43054">
        <ele>2117</ele>
        <time>2018-10-17T10:37:36Z</time>
      </trkpt>
      <trkpt lat="45.81977" lon="6.43054">
        <ele>2117</ele>
        <time>2018-10-17T10:37:37Z</time>
      </trkpt>
      <trkpt lat="45.81977" lon="6.43054">
        <ele>2117</ele>
        <time>2018-10-17T10:37:38Z</time>
      </trkpt>
      <trkpt lat="45.81977" lon="6.43054">
        <ele>2117</ele>
        <time>2018-10-17T10:37:39Z</time>
      </trkpt>
      <trkpt lat="45.81977" lon="6.43054">
        <ele>2117</ele>
        <time>2018-10-17T10:37:40Z</time>
      </trkpt>
      <trkpt lat="45.81975" lon="6.43052">
        <ele>2117</ele>
        <time>2018-10-17T10:37:41Z</time>
      </trkpt>
      <trkpt lat="45.81975" lon="6.43052">
        <ele>2117</ele>
        <time>2018-10-17T10:37:42Z</time>
      </trkpt>
      <trkpt lat="45.81975" lon="6.43052">
        <ele>2116</ele>
        <time>2018-10-17T10:37:43Z</time>
      </trkpt>
      <trkpt lat="45.81975" lon="6.43052">
        <ele>2115</ele>
        <time>2018-10-17T10:37:44Z</time>
      </trkpt>
      <trkpt lat="45.81975" lon="6.43052">
        <ele>2115</ele>
        <time>2018-10-17T10:37:45Z</time>
      </trkpt>
      <trkpt lat="45.81975" lon="6.43052">
        <ele>2115</ele>
        <time>2018-10-17T10:37:46Z</time>
      </trkpt>
      <trkpt lat="45.81973" lon="6.43051">
        <ele>2115</ele>
        <time>2018-10-17T10:37:47Z</time>
      </trkpt>
      <trkpt lat="45.81973" lon="6.43051">
        <ele>2114</ele>
        <time>2018-10-17T10:37:48Z</time>
      </trkpt>
      <trkpt lat="45.81969" lon="6.43049">
        <ele>2113</ele>
        <time>2018-10-17T10:37:49Z</time>
      </trkpt>
      <trkpt lat="45.81967" lon="6.4305">
        <ele>2111</ele>
        <time>2018-10-17T10:37:50Z</time>
      </trkpt>
      <trkpt lat="45.81965" lon="6.4305">
        <ele>2111</ele>
        <time>2018-10-17T10:37:51Z</time>
      </trkpt>
      <trkpt lat="45.81965" lon="6.4305">
        <ele>2111</ele>
        <time>2018-10-17T10:37:52Z</time>
      </trkpt>
      <trkpt lat="45.81962" lon="6.4305">
        <ele>2111</ele>
        <time>2018-10-17T10:37:53Z</time>
      </trkpt>
      <trkpt lat="45.81962" lon="6.4305">
        <ele>2110</ele>
        <time>2018-10-17T10:37:54Z</time>
      </trkpt>
      <trkpt lat="45.81959" lon="6.43051">
        <ele>2109</ele>
        <time>2018-10-17T10:37:55Z</time>
      </trkpt>
      <trkpt lat="45.81959" lon="6.43051">
        <ele>2108</ele>
        <time>2018-10-17T10:37:56Z</time>
      </trkpt>
      <trkpt lat="45.81956" lon="6.4305">
        <ele>2107</ele>
        <time>2018-10-17T10:37:57Z</time>
      </trkpt>
      <trkpt lat="45.81956" lon="6.4305">
        <ele>2106</ele>
        <time>2018-10-17T10:37:58Z</time>
      </trkpt>
      <trkpt lat="45.81953" lon="6.43051">
        <ele>2106</ele>
        <time>2018-10-17T10:37:59Z</time>
      </trkpt>
      <trkpt lat="45.81951" lon="6.43051">
        <ele>2105</ele>
        <time>2018-10-17T10:38:00Z</time>
      </trkpt>
      <trkpt lat="45.81948" lon="6.43051">
        <ele>2103</ele>
        <time>2018-10-17T10:38:01Z</time>
      </trkpt>
      <trkpt lat="45.81945" lon="6.43051">
        <ele>2103</ele>
        <time>2018-10-17T10:38:02Z</time>
      </trkpt>
      <trkpt lat="45.81942" lon="6.4305">
        <ele>2102</ele>
        <time>2018-10-17T10:38:03Z</time>
      </trkpt>
      <trkpt lat="45.81939" lon="6.43049">
        <ele>2101</ele>
        <time>2018-10-17T10:38:04Z</time>
      </trkpt>
      <trkpt lat="45.81936" lon="6.43049">
        <ele>2100</ele>
        <time>2018-10-17T10:38:05Z</time>
      </trkpt>
      <trkpt lat="45.81932" lon="6.43049">
        <ele>2099</ele>
        <time>2018-10-17T10:38:06Z</time>
      </trkpt>
      <trkpt lat="45.81929" lon="6.43048">
        <ele>2099</ele>
        <time>2018-10-17T10:38:07Z</time>
      </trkpt>
      <trkpt lat="45.81926" lon="6.43047">
        <ele>2098</ele>
        <time>2018-10-17T10:38:08Z</time>
      </trkpt>
      <trkpt lat="45.81924" lon="6.43046">
        <ele>2097</ele>
        <time>2018-10-17T10:38:09Z</time>
      </trkpt>
      <trkpt lat="45.81921" lon="6.43045">
        <ele>2097</ele>
        <time>2018-10-17T10:38:10Z</time>
      </trkpt>
      <trkpt lat="45.81919" lon="6.43044">
        <ele>2097</ele>
        <time>2018-10-17T10:38:11Z</time>
      </trkpt>
      <trkpt lat="45.81916" lon="6.43044">
        <ele>2096</ele>
        <time>2018-10-17T10:38:12Z</time>
      </trkpt>
      <trkpt lat="45.81914" lon="6.43042">
        <ele>2096</ele>
        <time>2018-10-17T10:38:13Z</time>
      </trkpt>
      <trkpt lat="45.81912" lon="6.43041">
        <ele>2096</ele>
        <time>2018-10-17T10:38:14Z</time>
      </trkpt>
      <trkpt lat="45.81909" lon="6.4304">
        <ele>2095</ele>
        <time>2018-10-17T10:38:15Z</time>
      </trkpt>
      <trkpt lat="45.81907" lon="6.43039">
        <ele>2095</ele>
        <time>2018-10-17T10:38:16Z</time>
      </trkpt>
      <trkpt lat="45.81905" lon="6.43037">
        <ele>2095</ele>
        <time>2018-10-17T10:38:17Z</time>
      </trkpt>
      <trkpt lat="45.81903" lon="6.43037">
        <ele>2094</ele>
        <time>2018-10-17T10:38:18Z</time>
      </trkpt>
      <trkpt lat="45.819" lon="6.43036">
        <ele>2093</ele>
        <time>2018-10-17T10:38:19Z</time>
      </trkpt>
      <trkpt lat="45.81898" lon="6.43034">
        <ele>2093</ele>
        <time>2018-10-17T10:38:20Z</time>
      </trkpt>
      <trkpt lat="45.81896" lon="6.43033">
        <ele>2092</ele>
        <time>2018-10-17T10:38:21Z</time>
      </trkpt>
      <trkpt lat="45.81894" lon="6.43032">
        <ele>2092</ele>
        <time>2018-10-17T10:38:22Z</time>
      </trkpt>
      <trkpt lat="45.81894" lon="6.43032">
        <ele>2092</ele>
        <time>2018-10-17T10:38:23Z</time>
      </trkpt>
      <trkpt lat="45.81892" lon="6.43032">
        <ele>2092</ele>
        <time>2018-10-17T10:38:24Z</time>
      </trkpt>
      <trkpt lat="45.81892" lon="6.43032">
        <ele>2091</ele>
        <time>2018-10-17T10:38:25Z</time>
      </trkpt>
      <trkpt lat="45.81892" lon="6.43032">
        <ele>2091</ele>
        <time>2018-10-17T10:38:26Z</time>
      </trkpt>
      <trkpt lat="45.81889" lon="6.43031">
        <ele>2091</ele>
        <time>2018-10-17T10:38:27Z</time>
      </trkpt>
      <trkpt lat="45.81889" lon="6.43031">
        <ele>2091</ele>
        <time>2018-10-17T10:38:28Z</time>
      </trkpt>
      <trkpt lat="45.81889" lon="6.43031">
        <ele>2091</ele>
        <time>2018-10-17T10:38:29Z</time>
      </trkpt>
      <trkpt lat="45.81889" lon="6.43031">
        <ele>2091</ele>
        <time>2018-10-17T10:38:30Z</time>
      </trkpt>
      <trkpt lat="45.81889" lon="6.43031">
        <ele>2091</ele>
        <time>2018-10-17T10:38:31Z</time>
      </trkpt>
      <trkpt lat="45.81889" lon="6.43031">
        <ele>2091</ele>
        <time>2018-10-17T10:38:32Z</time>
      </trkpt>
      <trkpt lat="45.81889" lon="6.43031">
        <ele>2091</ele>
        <time>2018-10-17T10:38:33Z</time>
      </trkpt>
      <trkpt lat="45.81889" lon="6.43031">
        <ele>2091</ele>
        <time>2018-10-17T10:38:34Z</time>
      </trkpt>
      <trkpt lat="45.81889" lon="6.43031">
        <ele>2091</ele>
        <time>2018-10-17T10:38:35Z</time>
      </trkpt>
      <trkpt lat="45.81889" lon="6.43031">
        <ele>2091</ele>
        <time>2018-10-17T10:38:36Z</time>
      </trkpt>
      <trkpt lat="45.81889" lon="6.43031">
        <ele>2091</ele>
        <time>2018-10-17T10:38:37Z</time>
      </trkpt>
      <trkpt lat="45.81889" lon="6.43031">
        <ele>2091</ele>
        <time>2018-10-17T10:38:38Z</time>
      </trkpt>
      <trkpt lat="45.81889" lon="6.43031">
        <ele>2091</ele>
        <time>2018-10-17T10:38:39Z</time>
      </trkpt>
      <trkpt lat="45.81889" lon="6.43031">
        <ele>2090</ele>
        <time>2018-10-17T10:38:40Z</time>
      </trkpt>
      <trkpt lat="45.81889" lon="6.43031">
        <ele>2090</ele>
        <time>2018-10-17T10:38:41Z</time>
      </trkpt>
      <trkpt lat="45.81889" lon="6.43031">
        <ele>2090</ele>
        <time>2018-10-17T10:38:42Z</time>
      </trkpt>
      <trkpt lat="45.81889" lon="6.43031">
        <ele>2090</ele>
        <time>2018-10-17T10:38:43Z</time>
      </trkpt>
      <trkpt lat="45.81889" lon="6.43031">
        <ele>2091</ele>
        <time>2018-10-17T10:38:44Z</time>
      </trkpt>
      <trkpt lat="45.81889" lon="6.43031">
        <ele>2091</ele>
        <time>2018-10-17T10:38:45Z</time>
      </trkpt>
      <trkpt lat="45.81889" lon="6.43031">
        <ele>2091</ele>
        <time>2018-10-17T10:38:46Z</time>
      </trkpt>
      <trkpt lat="45.81889" lon="6.43031">
        <ele>2091</ele>
        <time>2018-10-17T10:38:47Z</time>
      </trkpt>
      <trkpt lat="45.81889" lon="6.43031">
        <ele>2091</ele>
        <time>2018-10-17T10:38:48Z</time>
      </trkpt>
      <trkpt lat="45.81889" lon="6.43031">
        <ele>2091</ele>
        <time>2018-10-17T10:38:49Z</time>
      </trkpt>
      <trkpt lat="45.81889" lon="6.43031">
        <ele>2091</ele>
        <time>2018-10-17T10:38:50Z</time>
      </trkpt>
      <trkpt lat="45.81889" lon="6.43031">
        <ele>2091</ele>
        <time>2018-10-17T10:38:51Z</time>
      </trkpt>
      <trkpt lat="45.81889" lon="6.43031">
        <ele>2091</ele>
        <time>2018-10-17T10:38:52Z</time>
      </trkpt>
      <trkpt lat="45.81889" lon="6.43031">
        <ele>2091</ele>
        <time>2018-10-17T10:38:53Z</time>
      </trkpt>
      <trkpt lat="45.81889" lon="6.43031">
        <ele>2091</ele>
        <time>2018-10-17T10:38:54Z</time>
      </trkpt>
      <trkpt lat="45.81889" lon="6.43031">
        <ele>2091</ele>
        <time>2018-10-17T10:38:55Z</time>
      </trkpt>
      <trkpt lat="45.81889" lon="6.43031">
        <ele>2091</ele>
        <time>2018-10-17T10:38:56Z</time>
      </trkpt>
      <trkpt lat="45.81889" lon="6.43031">
        <ele>2091</ele>
        <time>2018-10-17T10:38:57Z</time>
      </trkpt>
      <trkpt lat="45.81889" lon="6.43031">
        <ele>2091</ele>
        <time>2018-10-17T10:38:58Z</time>
      </trkpt>
      <trkpt lat="45.81889" lon="6.43031">
        <ele>2091</ele>
        <time>2018-10-17T10:38:59Z</time>
      </trkpt>
      <trkpt lat="45.81889" lon="6.43031">
        <ele>2091</ele>
        <time>2018-10-17T10:39:00Z</time>
      </trkpt>
      <trkpt lat="45.81889" lon="6.43031">
        <ele>2091</ele>
        <time>2018-10-17T10:39:01Z</time>
      </trkpt>
      <trkpt lat="45.81889" lon="6.43031">
        <ele>2091</ele>
        <time>2018-10-17T10:39:02Z</time>
      </trkpt>
      <trkpt lat="45.81889" lon="6.43031">
        <ele>2091</ele>
        <time>2018-10-17T10:39:03Z</time>
      </trkpt>
      <trkpt lat="45.81889" lon="6.43031">
        <ele>2091</ele>
        <time>2018-10-17T10:39:04Z</time>
      </trkpt>
      <trkpt lat="45.81889" lon="6.43031">
        <ele>2091</ele>
        <time>2018-10-17T10:39:05Z</time>
      </trkpt>
      <trkpt lat="45.81889" lon="6.43031">
        <ele>2091</ele>
        <time>2018-10-17T10:39:06Z</time>
      </trkpt>
      <trkpt lat="45.81889" lon="6.43031">
        <ele>2091</ele>
        <time>2018-10-17T10:39:07Z</time>
      </trkpt>
      <trkpt lat="45.81889" lon="6.43031">
        <ele>2091</ele>
        <time>2018-10-17T10:39:08Z</time>
      </trkpt>
      <trkpt lat="45.81889" lon="6.43031">
        <ele>2091</ele>
        <time>2018-10-17T10:39:09Z</time>
      </trkpt>
      <trkpt lat="45.81889" lon="6.43031">
        <ele>2091</ele>
        <time>2018-10-17T10:39:10Z</time>
      </trkpt>
      <trkpt lat="45.81889" lon="6.43031">
        <ele>2091</ele>
        <time>2018-10-17T10:39:11Z</time>
      </trkpt>
      <trkpt lat="45.81889" lon="6.43031">
        <ele>2091</ele>
        <time>2018-10-17T10:39:12Z</time>
      </trkpt>
      <trkpt lat="45.81889" lon="6.43031">
        <ele>2091</ele>
        <time>2018-10-17T10:39:13Z</time>
      </trkpt>
      <trkpt lat="45.81889" lon="6.43031">
        <ele>2091</ele>
        <time>2018-10-17T10:39:14Z</time>
      </trkpt>
      <trkpt lat="45.81889" lon="6.43031">
        <ele>2091</ele>
        <time>2018-10-17T10:39:15Z</time>
      </trkpt>
      <trkpt lat="45.81889" lon="6.43031">
        <ele>2091</ele>
        <time>2018-10-17T10:39:16Z</time>
      </trkpt>
      <trkpt lat="45.81889" lon="6.43031">
        <ele>2091</ele>
        <time>2018-10-17T10:39:17Z</time>
      </trkpt>
      <trkpt lat="45.81889" lon="6.43031">
        <ele>2091</ele>
        <time>2018-10-17T10:39:18Z</time>
      </trkpt>
      <trkpt lat="45.81889" lon="6.43031">
        <ele>2091</ele>
        <time>2018-10-17T10:39:19Z</time>
      </trkpt>
      <trkpt lat="45.81889" lon="6.43031">
        <ele>2092</ele>
        <time>2018-10-17T10:39:20Z</time>
      </trkpt>
      <trkpt lat="45.81889" lon="6.43031">
        <ele>2092</ele>
        <time>2018-10-17T10:39:21Z</time>
      </trkpt>
      <trkpt lat="45.81889" lon="6.43031">
        <ele>2092</ele>
        <time>2018-10-17T10:39:22Z</time>
      </trkpt>
      <trkpt lat="45.81889" lon="6.43031">
        <ele>2092</ele>
        <time>2018-10-17T10:39:23Z</time>
      </trkpt>
      <trkpt lat="45.81889" lon="6.43031">
        <ele>2092</ele>
        <time>2018-10-17T10:39:24Z</time>
      </trkpt>
      <trkpt lat="45.81889" lon="6.43031">
        <ele>2092</ele>
        <time>2018-10-17T10:39:25Z</time>
      </trkpt>
      <trkpt lat="45.81889" lon="6.43031">
        <ele>2092</ele>
        <time>2018-10-17T10:39:26Z</time>
      </trkpt>
      <trkpt lat="45.81889" lon="6.43031">
        <ele>2092</ele>
        <time>2018-10-17T10:39:27Z</time>
      </trkpt>
      <trkpt lat="45.81889" lon="6.43031">
        <ele>2092</ele>
        <time>2018-10-17T10:39:28Z</time>
      </trkpt>
      <trkpt lat="45.81889" lon="6.43031">
        <ele>2092</ele>
        <time>2018-10-17T10:39:29Z</time>
      </trkpt>
      <trkpt lat="45.81889" lon="6.43031">
        <ele>2092</ele>
        <time>2018-10-17T10:39:30Z</time>
      </trkpt>
      <trkpt lat="45.81889" lon="6.43031">
        <ele>2092</ele>
        <time>2018-10-17T10:39:31Z</time>
      </trkpt>
      <trkpt lat="45.81889" lon="6.43031">
        <ele>2092</ele>
        <time>2018-10-17T10:39:32Z</time>
      </trkpt>
      <trkpt lat="45.81889" lon="6.43031">
        <ele>2092</ele>
        <time>2018-10-17T10:39:33Z</time>
      </trkpt>
      <trkpt lat="45.81889" lon="6.43031">
        <ele>2092</ele>
        <time>2018-10-17T10:39:34Z</time>
      </trkpt>
      <trkpt lat="45.81889" lon="6.43031">
        <ele>2091</ele>
        <time>2018-10-17T10:39:35Z</time>
      </trkpt>
      <trkpt lat="45.81889" lon="6.43031">
        <ele>2091</ele>
        <time>2018-10-17T10:39:36Z</time>
      </trkpt>
      <trkpt lat="45.81889" lon="6.43031">
        <ele>2091</ele>
        <time>2018-10-17T10:39:37Z</time>
      </trkpt>
      <trkpt lat="45.81889" lon="6.43031">
        <ele>2091</ele>
        <time>2018-10-17T10:39:38Z</time>
      </trkpt>
      <trkpt lat="45.81889" lon="6.43031">
        <ele>2091</ele>
        <time>2018-10-17T10:39:39Z</time>
      </trkpt>
      <trkpt lat="45.81889" lon="6.43031">
        <ele>2091</ele>
        <time>2018-10-17T10:39:40Z</time>
      </trkpt>
      <trkpt lat="45.81889" lon="6.43031">
        <ele>2091</ele>
        <time>2018-10-17T10:39:41Z</time>
      </trkpt>
      <trkpt lat="45.81889" lon="6.43031">
        <ele>2091</ele>
        <time>2018-10-17T10:39:42Z</time>
      </trkpt>
      <trkpt lat="45.81889" lon="6.43031">
        <ele>2091</ele>
        <time>2018-10-17T10:39:43Z</time>
      </trkpt>
      <trkpt lat="45.81889" lon="6.43031">
        <ele>2091</ele>
        <time>2018-10-17T10:39:44Z</time>
      </trkpt>
      <trkpt lat="45.81889" lon="6.43031">
        <ele>2091</ele>
        <time>2018-10-17T10:39:45Z</time>
      </trkpt>
      <trkpt lat="45.81889" lon="6.43031">
        <ele>2091</ele>
        <time>2018-10-17T10:39:46Z</time>
      </trkpt>
      <trkpt lat="45.81889" lon="6.43031">
        <ele>2091</ele>
        <time>2018-10-17T10:39:47Z</time>
      </trkpt>
      <trkpt lat="45.81889" lon="6.43031">
        <ele>2091</ele>
        <time>2018-10-17T10:39:48Z</time>
      </trkpt>
      <trkpt lat="45.81889" lon="6.43031">
        <ele>2091</ele>
        <time>2018-10-17T10:39:49Z</time>
      </trkpt>
      <trkpt lat="45.81889" lon="6.43031">
        <ele>2091</ele>
        <time>2018-10-17T10:39:50Z</time>
      </trkpt>
      <trkpt lat="45.81889" lon="6.43031">
        <ele>2091</ele>
        <time>2018-10-17T10:39:51Z</time>
      </trkpt>
      <trkpt lat="45.81889" lon="6.43031">
        <ele>2091</ele>
        <time>2018-10-17T10:39:52Z</time>
      </trkpt>
      <trkpt lat="45.81889" lon="6.43031">
        <ele>2091</ele>
        <time>2018-10-17T10:39:53Z</time>
      </trkpt>
      <trkpt lat="45.81889" lon="6.43031">
        <ele>2091</ele>
        <time>2018-10-17T10:39:54Z</time>
      </trkpt>
      <trkpt lat="45.81889" lon="6.43031">
        <ele>2091</ele>
        <time>2018-10-17T10:39:55Z</time>
      </trkpt>
      <trkpt lat="45.81889" lon="6.43031">
        <ele>2091</ele>
        <time>2018-10-17T10:39:56Z</time>
      </trkpt>
      <trkpt lat="45.81889" lon="6.43031">
        <ele>2092</ele>
        <time>2018-10-17T10:39:57Z</time>
      </trkpt>
      <trkpt lat="45.81889" lon="6.43031">
        <ele>2092</ele>
        <time>2018-10-17T10:39:58Z</time>
      </trkpt>
      <trkpt lat="45.81889" lon="6.43031">
        <ele>2092</ele>
        <time>2018-10-17T10:39:59Z</time>
      </trkpt>
      <trkpt lat="45.81889" lon="6.43031">
        <ele>2092</ele>
        <time>2018-10-17T10:40:00Z</time>
      </trkpt>
      <trkpt lat="45.81889" lon="6.43031">
        <ele>2092</ele>
        <time>2018-10-17T10:40:01Z</time>
      </trkpt>
      <trkpt lat="45.81889" lon="6.43031">
        <ele>2092</ele>
        <time>2018-10-17T10:40:02Z</time>
      </trkpt>
      <trkpt lat="45.81889" lon="6.43031">
        <ele>2092</ele>
        <time>2018-10-17T10:40:03Z</time>
      </trkpt>
      <trkpt lat="45.81889" lon="6.43031">
        <ele>2092</ele>
        <time>2018-10-17T10:40:04Z</time>
      </trkpt>
      <trkpt lat="45.81889" lon="6.43031">
        <ele>2092</ele>
        <time>2018-10-17T10:40:05Z</time>
      </trkpt>
      <trkpt lat="45.81889" lon="6.43031">
        <ele>2092</ele>
        <time>2018-10-17T10:40:06Z</time>
      </trkpt>
      <trkpt lat="45.81889" lon="6.43031">
        <ele>2092</ele>
        <time>2018-10-17T10:40:07Z</time>
      </trkpt>
      <trkpt lat="45.81889" lon="6.43031">
        <ele>2092</ele>
        <time>2018-10-17T10:40:08Z</time>
      </trkpt>
      <trkpt lat="45.81889" lon="6.43031">
        <ele>2092</ele>
        <time>2018-10-17T10:40:09Z</time>
      </trkpt>
      <trkpt lat="45.81889" lon="6.43031">
        <ele>2092</ele>
        <time>2018-10-17T10:40:10Z</time>
      </trkpt>
      <trkpt lat="45.81889" lon="6.43031">
        <ele>2092</ele>
        <time>2018-10-17T10:40:11Z</time>
      </trkpt>
      <trkpt lat="45.81889" lon="6.43031">
        <ele>2092</ele>
        <time>2018-10-17T10:40:12Z</time>
      </trkpt>
      <trkpt lat="45.81889" lon="6.43031">
        <ele>2092</ele>
        <time>2018-10-17T10:40:13Z</time>
      </trkpt>
      <trkpt lat="45.81889" lon="6.43031">
        <ele>2092</ele>
        <time>2018-10-17T10:40:14Z</time>
      </trkpt>
      <trkpt lat="45.81889" lon="6.43031">
        <ele>2092</ele>
        <time>2018-10-17T10:40:15Z</time>
      </trkpt>
      <trkpt lat="45.81889" lon="6.43031">
        <ele>2092</ele>
        <time>2018-10-17T10:40:16Z</time>
      </trkpt>
      <trkpt lat="45.81889" lon="6.43031">
        <ele>2092</ele>
        <time>2018-10-17T10:40:17Z</time>
      </trkpt>
      <trkpt lat="45.81889" lon="6.43031">
        <ele>2092</ele>
        <time>2018-10-17T10:40:18Z</time>
      </trkpt>
      <trkpt lat="45.81889" lon="6.43031">
        <ele>2092</ele>
        <time>2018-10-17T10:40:19Z</time>
      </trkpt>
      <trkpt lat="45.81889" lon="6.43031">
        <ele>2092</ele>
        <time>2018-10-17T10:40:20Z</time>
      </trkpt>
      <trkpt lat="45.81889" lon="6.43031">
        <ele>2092</ele>
        <time>2018-10-17T10:40:21Z</time>
      </trkpt>
      <trkpt lat="45.81889" lon="6.43031">
        <ele>2092</ele>
        <time>2018-10-17T10:40:22Z</time>
      </trkpt>
      <trkpt lat="45.81889" lon="6.43031">
        <ele>2092</ele>
        <time>2018-10-17T10:40:23Z</time>
      </trkpt>
      <trkpt lat="45.81889" lon="6.43031">
        <ele>2092</ele>
        <time>2018-10-17T10:40:24Z</time>
      </trkpt>
      <trkpt lat="45.81889" lon="6.43031">
        <ele>2092</ele>
        <time>2018-10-17T10:40:25Z</time>
      </trkpt>
      <trkpt lat="45.81889" lon="6.43031">
        <ele>2092</ele>
        <time>2018-10-17T10:40:26Z</time>
      </trkpt>
      <trkpt lat="45.81889" lon="6.43031">
        <ele>2092</ele>
        <time>2018-10-17T10:40:27Z</time>
      </trkpt>
      <trkpt lat="45.81889" lon="6.43031">
        <ele>2092</ele>
        <time>2018-10-17T10:40:28Z</time>
      </trkpt>
      <trkpt lat="45.81889" lon="6.43031">
        <ele>2092</ele>
        <time>2018-10-17T10:40:29Z</time>
      </trkpt>
      <trkpt lat="45.81889" lon="6.43031">
        <ele>2092</ele>
        <time>2018-10-17T10:40:30Z</time>
      </trkpt>
      <trkpt lat="45.81889" lon="6.43031">
        <ele>2092</ele>
        <time>2018-10-17T10:40:31Z</time>
      </trkpt>
      <trkpt lat="45.81889" lon="6.43031">
        <ele>2092</ele>
        <time>2018-10-17T10:40:32Z</time>
      </trkpt>
      <trkpt lat="45.81889" lon="6.43031">
        <ele>2092</ele>
        <time>2018-10-17T10:40:33Z</time>
      </trkpt>
      <trkpt lat="45.81889" lon="6.43031">
        <ele>2092</ele>
        <time>2018-10-17T10:40:34Z</time>
      </trkpt>
      <trkpt lat="45.81889" lon="6.43031">
        <ele>2092</ele>
        <time>2018-10-17T10:40:35Z</time>
      </trkpt>
      <trkpt lat="45.81889" lon="6.43031">
        <ele>2092</ele>
        <time>2018-10-17T10:40:36Z</time>
      </trkpt>
      <trkpt lat="45.81889" lon="6.43031">
        <ele>2092</ele>
        <time>2018-10-17T10:40:37Z</time>
      </trkpt>
      <trkpt lat="45.81889" lon="6.43031">
        <ele>2092</ele>
        <time>2018-10-17T10:40:38Z</time>
      </trkpt>
      <trkpt lat="45.81889" lon="6.43031">
        <ele>2092</ele>
        <time>2018-10-17T10:40:39Z</time>
      </trkpt>
      <trkpt lat="45.81889" lon="6.43031">
        <ele>2092</ele>
        <time>2018-10-17T10:40:40Z</time>
      </trkpt>
      <trkpt lat="45.81889" lon="6.43031">
        <ele>2092</ele>
        <time>2018-10-17T10:40:41Z</time>
      </trkpt>
      <trkpt lat="45.81889" lon="6.43031">
        <ele>2092</ele>
        <time>2018-10-17T10:40:42Z</time>
      </trkpt>
      <trkpt lat="45.81889" lon="6.43031">
        <ele>2092</ele>
        <time>2018-10-17T10:40:43Z</time>
      </trkpt>
      <trkpt lat="45.81889" lon="6.43031">
        <ele>2092</ele>
        <time>2018-10-17T10:40:44Z</time>
      </trkpt>
      <trkpt lat="45.81889" lon="6.43031">
        <ele>2092</ele>
        <time>2018-10-17T10:40:45Z</time>
      </trkpt>
      <trkpt lat="45.81889" lon="6.43031">
        <ele>2092</ele>
        <time>2018-10-17T10:40:46Z</time>
      </trkpt>
      <trkpt lat="45.81889" lon="6.43031">
        <ele>2092</ele>
        <time>2018-10-17T10:40:47Z</time>
      </trkpt>
      <trkpt lat="45.81889" lon="6.43031">
        <ele>2092</ele>
        <time>2018-10-17T10:40:48Z</time>
      </trkpt>
      <trkpt lat="45.81889" lon="6.43031">
        <ele>2092</ele>
        <time>2018-10-17T10:40:49Z</time>
      </trkpt>
      <trkpt lat="45.81889" lon="6.43031">
        <ele>2092</ele>
        <time>2018-10-17T10:40:50Z</time>
      </trkpt>
      <trkpt lat="45.81889" lon="6.43031">
        <ele>2092</ele>
        <time>2018-10-17T10:40:51Z</time>
      </trkpt>
      <trkpt lat="45.81889" lon="6.43031">
        <ele>2092</ele>
        <time>2018-10-17T10:40:52Z</time>
      </trkpt>
      <trkpt lat="45.81889" lon="6.43031">
        <ele>2092</ele>
        <time>2018-10-17T10:40:53Z</time>
      </trkpt>
      <trkpt lat="45.81889" lon="6.43031">
        <ele>2092</ele>
        <time>2018-10-17T10:40:54Z</time>
      </trkpt>
      <trkpt lat="45.81889" lon="6.43031">
        <ele>2092</ele>
        <time>2018-10-17T10:40:55Z</time>
      </trkpt>
      <trkpt lat="45.81889" lon="6.43031">
        <ele>2092</ele>
        <time>2018-10-17T10:40:56Z</time>
      </trkpt>
      <trkpt lat="45.81889" lon="6.43031">
        <ele>2092</ele>
        <time>2018-10-17T10:40:57Z</time>
      </trkpt>
      <trkpt lat="45.81889" lon="6.43031">
        <ele>2092</ele>
        <time>2018-10-17T10:40:58Z</time>
      </trkpt>
      <trkpt lat="45.81889" lon="6.43031">
        <ele>2092</ele>
        <time>2018-10-17T10:40:59Z</time>
      </trkpt>
      <trkpt lat="45.81889" lon="6.43031">
        <ele>2092</ele>
        <time>2018-10-17T10:41:00Z</time>
      </trkpt>
      <trkpt lat="45.81889" lon="6.43031">
        <ele>2092</ele>
        <time>2018-10-17T10:41:01Z</time>
      </trkpt>
      <trkpt lat="45.81889" lon="6.43031">
        <ele>2092</ele>
        <time>2018-10-17T10:41:02Z</time>
      </trkpt>
      <trkpt lat="45.81889" lon="6.43031">
        <ele>2092</ele>
        <time>2018-10-17T10:41:03Z</time>
      </trkpt>
      <trkpt lat="45.81889" lon="6.43031">
        <ele>2092</ele>
        <time>2018-10-17T10:41:04Z</time>
      </trkpt>
      <trkpt lat="45.81889" lon="6.43031">
        <ele>2092</ele>
        <time>2018-10-17T10:41:05Z</time>
      </trkpt>
      <trkpt lat="45.81889" lon="6.43031">
        <ele>2092</ele>
        <time>2018-10-17T10:41:06Z</time>
      </trkpt>
      <trkpt lat="45.81889" lon="6.43031">
        <ele>2092</ele>
        <time>2018-10-17T10:41:07Z</time>
      </trkpt>
      <trkpt lat="45.81889" lon="6.43031">
        <ele>2092</ele>
        <time>2018-10-17T10:41:08Z</time>
      </trkpt>
      <trkpt lat="45.81889" lon="6.43031">
        <ele>2092</ele>
        <time>2018-10-17T10:41:09Z</time>
      </trkpt>
      <trkpt lat="45.81889" lon="6.43031">
        <ele>2092</ele>
        <time>2018-10-17T10:41:10Z</time>
      </trkpt>
      <trkpt lat="45.81889" lon="6.43031">
        <ele>2092</ele>
        <time>2018-10-17T10:41:11Z</time>
      </trkpt>
      <trkpt lat="45.81889" lon="6.43031">
        <ele>2092</ele>
        <time>2018-10-17T10:41:12Z</time>
      </trkpt>
      <trkpt lat="45.81889" lon="6.43031">
        <ele>2092</ele>
        <time>2018-10-17T10:41:13Z</time>
      </trkpt>
      <trkpt lat="45.81889" lon="6.43031">
        <ele>2092</ele>
        <time>2018-10-17T10:41:14Z</time>
      </trkpt>
      <trkpt lat="45.81889" lon="6.43031">
        <ele>2092</ele>
        <time>2018-10-17T10:41:15Z</time>
      </trkpt>
      <trkpt lat="45.81889" lon="6.43031">
        <ele>2092</ele>
        <time>2018-10-17T10:41:16Z</time>
      </trkpt>
      <trkpt lat="45.81889" lon="6.43031">
        <ele>2092</ele>
        <time>2018-10-17T10:41:17Z</time>
      </trkpt>
      <trkpt lat="45.81889" lon="6.43031">
        <ele>2092</ele>
        <time>2018-10-17T10:41:18Z</time>
      </trkpt>
      <trkpt lat="45.81889" lon="6.43031">
        <ele>2092</ele>
        <time>2018-10-17T10:41:19Z</time>
      </trkpt>
      <trkpt lat="45.81889" lon="6.43031">
        <ele>2092</ele>
        <time>2018-10-17T10:41:20Z</time>
      </trkpt>
      <trkpt lat="45.81889" lon="6.43031">
        <ele>2092</ele>
        <time>2018-10-17T10:41:21Z</time>
      </trkpt>
      <trkpt lat="45.81889" lon="6.43031">
        <ele>2092</ele>
        <time>2018-10-17T10:41:22Z</time>
      </trkpt>
      <trkpt lat="45.81889" lon="6.43031">
        <ele>2092</ele>
        <time>2018-10-17T10:41:23Z</time>
      </trkpt>
      <trkpt lat="45.81889" lon="6.43031">
        <ele>2092</ele>
        <time>2018-10-17T10:41:24Z</time>
      </trkpt>
      <trkpt lat="45.81889" lon="6.43031">
        <ele>2092</ele>
        <time>2018-10-17T10:41:25Z</time>
      </trkpt>
      <trkpt lat="45.81889" lon="6.43031">
        <ele>2092</ele>
        <time>2018-10-17T10:41:26Z</time>
      </trkpt>
      <trkpt lat="45.81889" lon="6.43031">
        <ele>2092</ele>
        <time>2018-10-17T10:41:27Z</time>
      </trkpt>
      <trkpt lat="45.81889" lon="6.43031">
        <ele>2092</ele>
        <time>2018-10-17T10:41:28Z</time>
      </trkpt>
      <trkpt lat="45.81889" lon="6.43031">
        <ele>2092</ele>
        <time>2018-10-17T10:41:29Z</time>
      </trkpt>
      <trkpt lat="45.81889" lon="6.43031">
        <ele>2092</ele>
        <time>2018-10-17T10:41:30Z</time>
      </trkpt>
      <trkpt lat="45.81889" lon="6.43031">
        <ele>2093</ele>
        <time>2018-10-17T10:41:31Z</time>
      </trkpt>
      <trkpt lat="45.81889" lon="6.43031">
        <ele>2093</ele>
        <time>2018-10-17T10:41:32Z</time>
      </trkpt>
      <trkpt lat="45.81889" lon="6.43031">
        <ele>2093</ele>
        <time>2018-10-17T10:41:33Z</time>
      </trkpt>
      <trkpt lat="45.81889" lon="6.43031">
        <ele>2093</ele>
        <time>2018-10-17T10:41:34Z</time>
      </trkpt>
      <trkpt lat="45.81889" lon="6.43031">
        <ele>2092</ele>
        <time>2018-10-17T10:41:35Z</time>
      </trkpt>
      <trkpt lat="45.81889" lon="6.43031">
        <ele>2092</ele>
        <time>2018-10-17T10:41:36Z</time>
      </trkpt>
      <trkpt lat="45.81889" lon="6.43031">
        <ele>2093</ele>
        <time>2018-10-17T10:41:37Z</time>
      </trkpt>
      <trkpt lat="45.81889" lon="6.43031">
        <ele>2093</ele>
        <time>2018-10-17T10:41:38Z</time>
      </trkpt>
      <trkpt lat="45.81889" lon="6.43031">
        <ele>2093</ele>
        <time>2018-10-17T10:41:39Z</time>
      </trkpt>
      <trkpt lat="45.81889" lon="6.43031">
        <ele>2093</ele>
        <time>2018-10-17T10:41:40Z</time>
      </trkpt>
      <trkpt lat="45.81889" lon="6.43031">
        <ele>2093</ele>
        <time>2018-10-17T10:41:41Z</time>
      </trkpt>
      <trkpt lat="45.81889" lon="6.43031">
        <ele>2093</ele>
        <time>2018-10-17T10:41:42Z</time>
      </trkpt>
      <trkpt lat="45.81889" lon="6.43031">
        <ele>2093</ele>
        <time>2018-10-17T10:41:43Z</time>
      </trkpt>
      <trkpt lat="45.81889" lon="6.43031">
        <ele>2093</ele>
        <time>2018-10-17T10:41:44Z</time>
      </trkpt>
      <trkpt lat="45.81889" lon="6.43031">
        <ele>2093</ele>
        <time>2018-10-17T10:41:45Z</time>
      </trkpt>
      <trkpt lat="45.81889" lon="6.43031">
        <ele>2093</ele>
        <time>2018-10-17T10:41:46Z</time>
      </trkpt>
      <trkpt lat="45.81889" lon="6.43031">
        <ele>2092</ele>
        <time>2018-10-17T10:41:47Z</time>
      </trkpt>
      <trkpt lat="45.81889" lon="6.43031">
        <ele>2092</ele>
        <time>2018-10-17T10:41:48Z</time>
      </trkpt>
      <trkpt lat="45.81889" lon="6.43031">
        <ele>2092</ele>
        <time>2018-10-17T10:41:49Z</time>
      </trkpt>
      <trkpt lat="45.81889" lon="6.43031">
        <ele>2092</ele>
        <time>2018-10-17T10:41:50Z</time>
      </trkpt>
      <trkpt lat="45.81889" lon="6.43031">
        <ele>2092</ele>
        <time>2018-10-17T10:41:51Z</time>
      </trkpt>
      <trkpt lat="45.81889" lon="6.43031">
        <ele>2092</ele>
        <time>2018-10-17T10:41:52Z</time>
      </trkpt>
      <trkpt lat="45.81889" lon="6.43031">
        <ele>2092</ele>
        <time>2018-10-17T10:41:53Z</time>
      </trkpt>
      <trkpt lat="45.81889" lon="6.43031">
        <ele>2092</ele>
        <time>2018-10-17T10:41:54Z</time>
      </trkpt>
      <trkpt lat="45.81889" lon="6.43031">
        <ele>2092</ele>
        <time>2018-10-17T10:41:55Z</time>
      </trkpt>
      <trkpt lat="45.81889" lon="6.43031">
        <ele>2092</ele>
        <time>2018-10-17T10:41:56Z</time>
      </trkpt>
      <trkpt lat="45.81889" lon="6.43031">
        <ele>2092</ele>
        <time>2018-10-17T10:41:57Z</time>
      </trkpt>
      <trkpt lat="45.81889" lon="6.43031">
        <ele>2092</ele>
        <time>2018-10-17T10:41:58Z</time>
      </trkpt>
      <trkpt lat="45.81889" lon="6.43031">
        <ele>2092</ele>
        <time>2018-10-17T10:41:59Z</time>
      </trkpt>
      <trkpt lat="45.81889" lon="6.43031">
        <ele>2092</ele>
        <time>2018-10-17T10:42:00Z</time>
      </trkpt>
      <trkpt lat="45.81889" lon="6.43031">
        <ele>2092</ele>
        <time>2018-10-17T10:42:01Z</time>
      </trkpt>
      <trkpt lat="45.81889" lon="6.43031">
        <ele>2092</ele>
        <time>2018-10-17T10:42:02Z</time>
      </trkpt>
      <trkpt lat="45.81889" lon="6.43031">
        <ele>2092</ele>
        <time>2018-10-17T10:42:03Z</time>
      </trkpt>
      <trkpt lat="45.81889" lon="6.43031">
        <ele>2092</ele>
        <time>2018-10-17T10:42:04Z</time>
      </trkpt>
      <trkpt lat="45.81889" lon="6.43031">
        <ele>2092</ele>
        <time>2018-10-17T10:42:05Z</time>
      </trkpt>
      <trkpt lat="45.81889" lon="6.43031">
        <ele>2092</ele>
        <time>2018-10-17T10:42:06Z</time>
      </trkpt>
      <trkpt lat="45.81889" lon="6.43031">
        <ele>2092</ele>
        <time>2018-10-17T10:42:07Z</time>
      </trkpt>
      <trkpt lat="45.81889" lon="6.43031">
        <ele>2092</ele>
        <time>2018-10-17T10:42:08Z</time>
      </trkpt>
      <trkpt lat="45.81889" lon="6.43031">
        <ele>2092</ele>
        <time>2018-10-17T10:42:09Z</time>
      </trkpt>
      <trkpt lat="45.81889" lon="6.43031">
        <ele>2092</ele>
        <time>2018-10-17T10:42:10Z</time>
      </trkpt>
      <trkpt lat="45.81889" lon="6.43031">
        <ele>2092</ele>
        <time>2018-10-17T10:42:11Z</time>
      </trkpt>
      <trkpt lat="45.81889" lon="6.43031">
        <ele>2092</ele>
        <time>2018-10-17T10:42:12Z</time>
      </trkpt>
      <trkpt lat="45.81889" lon="6.43031">
        <ele>2092</ele>
        <time>2018-10-17T10:42:13Z</time>
      </trkpt>
      <trkpt lat="45.81889" lon="6.43031">
        <ele>2092</ele>
        <time>2018-10-17T10:42:14Z</time>
      </trkpt>
      <trkpt lat="45.81889" lon="6.43031">
        <ele>2092</ele>
        <time>2018-10-17T10:42:15Z</time>
      </trkpt>
      <trkpt lat="45.81889" lon="6.43031">
        <ele>2092</ele>
        <time>2018-10-17T10:42:16Z</time>
      </trkpt>
      <trkpt lat="45.81889" lon="6.43031">
        <ele>2092</ele>
        <time>2018-10-17T10:42:17Z</time>
      </trkpt>
      <trkpt lat="45.81889" lon="6.43031">
        <ele>2092</ele>
        <time>2018-10-17T10:42:18Z</time>
      </trkpt>
      <trkpt lat="45.81889" lon="6.43031">
        <ele>2092</ele>
        <time>2018-10-17T10:42:19Z</time>
      </trkpt>
      <trkpt lat="45.81889" lon="6.43031">
        <ele>2092</ele>
        <time>2018-10-17T10:42:20Z</time>
      </trkpt>
      <trkpt lat="45.81889" lon="6.43031">
        <ele>2092</ele>
        <time>2018-10-17T10:42:21Z</time>
      </trkpt>
      <trkpt lat="45.81889" lon="6.43031">
        <ele>2092</ele>
        <time>2018-10-17T10:42:22Z</time>
      </trkpt>
      <trkpt lat="45.81889" lon="6.43031">
        <ele>2092</ele>
        <time>2018-10-17T10:42:23Z</time>
      </trkpt>
      <trkpt lat="45.81889" lon="6.43031">
        <ele>2092</ele>
        <time>2018-10-17T10:42:24Z</time>
      </trkpt>
      <trkpt lat="45.81889" lon="6.43031">
        <ele>2092</ele>
        <time>2018-10-17T10:42:25Z</time>
      </trkpt>
      <trkpt lat="45.81889" lon="6.43031">
        <ele>2092</ele>
        <time>2018-10-17T10:42:26Z</time>
      </trkpt>
      <trkpt lat="45.81889" lon="6.43031">
        <ele>2092</ele>
        <time>2018-10-17T10:42:27Z</time>
      </trkpt>
      <trkpt lat="45.81889" lon="6.43031">
        <ele>2092</ele>
        <time>2018-10-17T10:42:28Z</time>
      </trkpt>
      <trkpt lat="45.81889" lon="6.43031">
        <ele>2092</ele>
        <time>2018-10-17T10:42:29Z</time>
      </trkpt>
      <trkpt lat="45.81889" lon="6.43031">
        <ele>2092</ele>
        <time>2018-10-17T10:42:30Z</time>
      </trkpt>
      <trkpt lat="45.81888" lon="6.43029">
        <ele>2092</ele>
        <time>2018-10-17T10:42:31Z</time>
      </trkpt>
      <trkpt lat="45.81888" lon="6.43029">
        <ele>2091</ele>
        <time>2018-10-17T10:42:32Z</time>
      </trkpt>
      <trkpt lat="45.81885" lon="6.43029">
        <ele>2091</ele>
        <time>2018-10-17T10:42:33Z</time>
      </trkpt>
      <trkpt lat="45.81885" lon="6.43029">
        <ele>2091</ele>
        <time>2018-10-17T10:42:34Z</time>
      </trkpt>
      <trkpt lat="45.81883" lon="6.43028">
        <ele>2091</ele>
        <time>2018-10-17T10:42:35Z</time>
      </trkpt>
      <trkpt lat="45.81883" lon="6.43028">
        <ele>2091</ele>
        <time>2018-10-17T10:42:36Z</time>
      </trkpt>
      <trkpt lat="45.81881" lon="6.43027">
        <ele>2091</ele>
        <time>2018-10-17T10:42:37Z</time>
      </trkpt>
      <trkpt lat="45.81881" lon="6.43027">
        <ele>2090</ele>
        <time>2018-10-17T10:42:38Z</time>
      </trkpt>
      <trkpt lat="45.81879" lon="6.43025">
        <ele>2090</ele>
        <time>2018-10-17T10:42:39Z</time>
      </trkpt>
      <trkpt lat="45.81879" lon="6.43025">
        <ele>2090</ele>
        <time>2018-10-17T10:42:40Z</time>
      </trkpt>
      <trkpt lat="45.81876" lon="6.43025">
        <ele>2090</ele>
        <time>2018-10-17T10:42:41Z</time>
      </trkpt>
      <trkpt lat="45.81876" lon="6.43025">
        <ele>2090</ele>
        <time>2018-10-17T10:42:42Z</time>
      </trkpt>
      <trkpt lat="45.81874" lon="6.43024">
        <ele>2090</ele>
        <time>2018-10-17T10:42:43Z</time>
      </trkpt>
      <trkpt lat="45.81874" lon="6.43024">
        <ele>2089</ele>
        <time>2018-10-17T10:42:44Z</time>
      </trkpt>
      <trkpt lat="45.81871" lon="6.43023">
        <ele>2089</ele>
        <time>2018-10-17T10:42:45Z</time>
      </trkpt>
      <trkpt lat="45.81871" lon="6.43023">
        <ele>2089</ele>
        <time>2018-10-17T10:42:46Z</time>
      </trkpt>
      <trkpt lat="45.81868" lon="6.43023">
        <ele>2088</ele>
        <time>2018-10-17T10:42:47Z</time>
      </trkpt>
      <trkpt lat="45.81868" lon="6.43023">
        <ele>2088</ele>
        <time>2018-10-17T10:42:48Z</time>
      </trkpt>
      <trkpt lat="45.81866" lon="6.43022">
        <ele>2088</ele>
        <time>2018-10-17T10:42:49Z</time>
      </trkpt>
      <trkpt lat="45.81866" lon="6.43022">
        <ele>2088</ele>
        <time>2018-10-17T10:42:50Z</time>
      </trkpt>
      <trkpt lat="45.81863" lon="6.43021">
        <ele>2088</ele>
        <time>2018-10-17T10:42:51Z</time>
      </trkpt>
      <trkpt lat="45.81863" lon="6.43021">
        <ele>2088</ele>
        <time>2018-10-17T10:42:52Z</time>
      </trkpt>
      <trkpt lat="45.81861" lon="6.4302">
        <ele>2088</ele>
        <time>2018-10-17T10:42:53Z</time>
      </trkpt>
      <trkpt lat="45.81861" lon="6.4302">
        <ele>2087</ele>
        <time>2018-10-17T10:42:54Z</time>
      </trkpt>
      <trkpt lat="45.8186" lon="6.43019">
        <ele>2087</ele>
        <time>2018-10-17T10:42:55Z</time>
      </trkpt>
      <trkpt lat="45.8186" lon="6.43019">
        <ele>2087</ele>
        <time>2018-10-17T10:42:56Z</time>
      </trkpt>
      <trkpt lat="45.81858" lon="6.43018">
        <ele>2087</ele>
        <time>2018-10-17T10:42:57Z</time>
      </trkpt>
      <trkpt lat="45.81858" lon="6.43018">
        <ele>2087</ele>
        <time>2018-10-17T10:42:58Z</time>
      </trkpt>
      <trkpt lat="45.81856" lon="6.43017">
        <ele>2087</ele>
        <time>2018-10-17T10:42:59Z</time>
      </trkpt>
      <trkpt lat="45.81856" lon="6.43017">
        <ele>2086</ele>
        <time>2018-10-17T10:43:00Z</time>
      </trkpt>
      <trkpt lat="45.81853" lon="6.43017">
        <ele>2085</ele>
        <time>2018-10-17T10:43:01Z</time>
      </trkpt>
      <trkpt lat="45.81853" lon="6.43017">
        <ele>2085</ele>
        <time>2018-10-17T10:43:02Z</time>
      </trkpt>
      <trkpt lat="45.81851" lon="6.43016">
        <ele>2085</ele>
        <time>2018-10-17T10:43:03Z</time>
      </trkpt>
      <trkpt lat="45.81851" lon="6.43016">
        <ele>2085</ele>
        <time>2018-10-17T10:43:04Z</time>
      </trkpt>
      <trkpt lat="45.81849" lon="6.43014">
        <ele>2084</ele>
        <time>2018-10-17T10:43:05Z</time>
      </trkpt>
      <trkpt lat="45.81849" lon="6.43014">
        <ele>2084</ele>
        <time>2018-10-17T10:43:06Z</time>
      </trkpt>
      <trkpt lat="45.81847" lon="6.43013">
        <ele>2083</ele>
        <time>2018-10-17T10:43:07Z</time>
      </trkpt>
      <trkpt lat="45.81847" lon="6.43013">
        <ele>2083</ele>
        <time>2018-10-17T10:43:08Z</time>
      </trkpt>
      <trkpt lat="45.81845" lon="6.43014">
        <ele>2083</ele>
        <time>2018-10-17T10:43:09Z</time>
      </trkpt>
      <trkpt lat="45.81845" lon="6.43014">
        <ele>2082</ele>
        <time>2018-10-17T10:43:10Z</time>
      </trkpt>
      <trkpt lat="45.81843" lon="6.43013">
        <ele>2082</ele>
        <time>2018-10-17T10:43:11Z</time>
      </trkpt>
      <trkpt lat="45.81843" lon="6.43013">
        <ele>2082</ele>
        <time>2018-10-17T10:43:12Z</time>
      </trkpt>
      <trkpt lat="45.81843" lon="6.43013">
        <ele>2082</ele>
        <time>2018-10-17T10:43:13Z</time>
      </trkpt>
      <trkpt lat="45.81841" lon="6.43013">
        <ele>2082</ele>
        <time>2018-10-17T10:43:14Z</time>
      </trkpt>
      <trkpt lat="45.81841" lon="6.43013">
        <ele>2082</ele>
        <time>2018-10-17T10:43:15Z</time>
      </trkpt>
      <trkpt lat="45.81839" lon="6.43013">
        <ele>2082</ele>
        <time>2018-10-17T10:43:16Z</time>
      </trkpt>
      <trkpt lat="45.81839" lon="6.43013">
        <ele>2081</ele>
        <time>2018-10-17T10:43:17Z</time>
      </trkpt>
      <trkpt lat="45.81839" lon="6.43013">
        <ele>2080</ele>
        <time>2018-10-17T10:43:18Z</time>
      </trkpt>
      <trkpt lat="45.81836" lon="6.43012">
        <ele>2079</ele>
        <time>2018-10-17T10:43:19Z</time>
      </trkpt>
      <trkpt lat="45.81836" lon="6.43012">
        <ele>2079</ele>
        <time>2018-10-17T10:43:20Z</time>
      </trkpt>
      <trkpt lat="45.81836" lon="6.43012">
        <ele>2079</ele>
        <time>2018-10-17T10:43:21Z</time>
      </trkpt>
      <trkpt lat="45.81834" lon="6.43012">
        <ele>2079</ele>
        <time>2018-10-17T10:43:22Z</time>
      </trkpt>
      <trkpt lat="45.81834" lon="6.43012">
        <ele>2079</ele>
        <time>2018-10-17T10:43:23Z</time>
      </trkpt>
      <trkpt lat="45.81834" lon="6.43012">
        <ele>2078</ele>
        <time>2018-10-17T10:43:24Z</time>
      </trkpt>
      <trkpt lat="45.81832" lon="6.43013">
        <ele>2078</ele>
        <time>2018-10-17T10:43:25Z</time>
      </trkpt>
      <trkpt lat="45.81832" lon="6.43013">
        <ele>2077</ele>
        <time>2018-10-17T10:43:26Z</time>
      </trkpt>
      <trkpt lat="45.81832" lon="6.43013">
        <ele>2076</ele>
        <time>2018-10-17T10:43:27Z</time>
      </trkpt>
      <trkpt lat="45.8183" lon="6.43013">
        <ele>2076</ele>
        <time>2018-10-17T10:43:28Z</time>
      </trkpt>
      <trkpt lat="45.8183" lon="6.43013">
        <ele>2076</ele>
        <time>2018-10-17T10:43:29Z</time>
      </trkpt>
      <trkpt lat="45.81828" lon="6.43013">
        <ele>2075</ele>
        <time>2018-10-17T10:43:30Z</time>
      </trkpt>
      <trkpt lat="45.81828" lon="6.43013">
        <ele>2075</ele>
        <time>2018-10-17T10:43:31Z</time>
      </trkpt>
      <trkpt lat="45.81826" lon="6.43013">
        <ele>2075</ele>
        <time>2018-10-17T10:43:32Z</time>
      </trkpt>
      <trkpt lat="45.81826" lon="6.43013">
        <ele>2074</ele>
        <time>2018-10-17T10:43:33Z</time>
      </trkpt>
      <trkpt lat="45.81824" lon="6.43013">
        <ele>2074</ele>
        <time>2018-10-17T10:43:34Z</time>
      </trkpt>
      <trkpt lat="45.81824" lon="6.43013">
        <ele>2074</ele>
        <time>2018-10-17T10:43:35Z</time>
      </trkpt>
      <trkpt lat="45.81821" lon="6.43013">
        <ele>2073</ele>
        <time>2018-10-17T10:43:36Z</time>
      </trkpt>
      <trkpt lat="45.81821" lon="6.43013">
        <ele>2072</ele>
        <time>2018-10-17T10:43:37Z</time>
      </trkpt>
      <trkpt lat="45.81819" lon="6.43013">
        <ele>2072</ele>
        <time>2018-10-17T10:43:38Z</time>
      </trkpt>
      <trkpt lat="45.81819" lon="6.43013">
        <ele>2072</ele>
        <time>2018-10-17T10:43:39Z</time>
      </trkpt>
      <trkpt lat="45.81819" lon="6.43013">
        <ele>2072</ele>
        <time>2018-10-17T10:43:40Z</time>
      </trkpt>
      <trkpt lat="45.81817" lon="6.43013">
        <ele>2072</ele>
        <time>2018-10-17T10:43:41Z</time>
      </trkpt>
      <trkpt lat="45.81817" lon="6.43013">
        <ele>2072</ele>
        <time>2018-10-17T10:43:42Z</time>
      </trkpt>
      <trkpt lat="45.81817" lon="6.43013">
        <ele>2071</ele>
        <time>2018-10-17T10:43:43Z</time>
      </trkpt>
      <trkpt lat="45.81815" lon="6.43014">
        <ele>2071</ele>
        <time>2018-10-17T10:43:44Z</time>
      </trkpt>
      <trkpt lat="45.81815" lon="6.43014">
        <ele>2071</ele>
        <time>2018-10-17T10:43:45Z</time>
      </trkpt>
      <trkpt lat="45.81815" lon="6.43014">
        <ele>2071</ele>
        <time>2018-10-17T10:43:46Z</time>
      </trkpt>
      <trkpt lat="45.81815" lon="6.43014">
        <ele>2071</ele>
        <time>2018-10-17T10:43:47Z</time>
      </trkpt>
      <trkpt lat="45.81815" lon="6.43014">
        <ele>2070</ele>
        <time>2018-10-17T10:43:48Z</time>
      </trkpt>
      <trkpt lat="45.81815" lon="6.43014">
        <ele>2070</ele>
        <time>2018-10-17T10:43:49Z</time>
      </trkpt>
      <trkpt lat="45.81815" lon="6.43014">
        <ele>2070</ele>
        <time>2018-10-17T10:43:50Z</time>
      </trkpt>
      <trkpt lat="45.81815" lon="6.43014">
        <ele>2070</ele>
        <time>2018-10-17T10:43:51Z</time>
      </trkpt>
      <trkpt lat="45.81813" lon="6.43013">
        <ele>2070</ele>
        <time>2018-10-17T10:43:52Z</time>
      </trkpt>
      <trkpt lat="45.81813" lon="6.43013">
        <ele>2070</ele>
        <time>2018-10-17T10:43:53Z</time>
      </trkpt>
      <trkpt lat="45.81813" lon="6.43013">
        <ele>2069</ele>
        <time>2018-10-17T10:43:54Z</time>
      </trkpt>
      <trkpt lat="45.81811" lon="6.43015">
        <ele>2069</ele>
        <time>2018-10-17T10:43:55Z</time>
      </trkpt>
      <trkpt lat="45.81811" lon="6.43015">
        <ele>2068</ele>
        <time>2018-10-17T10:43:56Z</time>
      </trkpt>
      <trkpt lat="45.81811" lon="6.43015">
        <ele>2067</ele>
        <time>2018-10-17T10:43:57Z</time>
      </trkpt>
      <trkpt lat="45.81811" lon="6.43015">
        <ele>2067</ele>
        <time>2018-10-17T10:43:58Z</time>
      </trkpt>
      <trkpt lat="45.81811" lon="6.43018">
        <ele>2067</ele>
        <time>2018-10-17T10:43:59Z</time>
      </trkpt>
      <trkpt lat="45.81811" lon="6.43018">
        <ele>2067</ele>
        <time>2018-10-17T10:44:00Z</time>
      </trkpt>
      <trkpt lat="45.81811" lon="6.43018">
        <ele>2066</ele>
        <time>2018-10-17T10:44:01Z</time>
      </trkpt>
      <trkpt lat="45.81808" lon="6.43019">
        <ele>2066</ele>
        <time>2018-10-17T10:44:02Z</time>
      </trkpt>
      <trkpt lat="45.81808" lon="6.43019">
        <ele>2065</ele>
        <time>2018-10-17T10:44:03Z</time>
      </trkpt>
      <trkpt lat="45.81808" lon="6.43019">
        <ele>2065</ele>
        <time>2018-10-17T10:44:04Z</time>
      </trkpt>
      <trkpt lat="45.81806" lon="6.43021">
        <ele>2065</ele>
        <time>2018-10-17T10:44:05Z</time>
      </trkpt>
      <trkpt lat="45.81806" lon="6.43021">
        <ele>2064</ele>
        <time>2018-10-17T10:44:06Z</time>
      </trkpt>
      <trkpt lat="45.81804" lon="6.4302">
        <ele>2064</ele>
        <time>2018-10-17T10:44:07Z</time>
      </trkpt>
      <trkpt lat="45.81804" lon="6.4302">
        <ele>2064</ele>
        <time>2018-10-17T10:44:08Z</time>
      </trkpt>
      <trkpt lat="45.81804" lon="6.4302">
        <ele>2063</ele>
        <time>2018-10-17T10:44:09Z</time>
      </trkpt>
      <trkpt lat="45.81803" lon="6.43017">
        <ele>2063</ele>
        <time>2018-10-17T10:44:10Z</time>
      </trkpt>
      <trkpt lat="45.81803" lon="6.43017">
        <ele>2063</ele>
        <time>2018-10-17T10:44:11Z</time>
      </trkpt>
      <trkpt lat="45.81801" lon="6.43017">
        <ele>2063</ele>
        <time>2018-10-17T10:44:12Z</time>
      </trkpt>
      <trkpt lat="45.81801" lon="6.43017">
        <ele>2062</ele>
        <time>2018-10-17T10:44:13Z</time>
      </trkpt>
      <trkpt lat="45.81798" lon="6.43016">
        <ele>2062</ele>
        <time>2018-10-17T10:44:14Z</time>
      </trkpt>
      <trkpt lat="45.81798" lon="6.43016">
        <ele>2061</ele>
        <time>2018-10-17T10:44:15Z</time>
      </trkpt>
      <trkpt lat="45.81796" lon="6.43016">
        <ele>2061</ele>
        <time>2018-10-17T10:44:16Z</time>
      </trkpt>
      <trkpt lat="45.81796" lon="6.43016">
        <ele>2060</ele>
        <time>2018-10-17T10:44:17Z</time>
      </trkpt>
      <trkpt lat="45.81795" lon="6.43017">
        <ele>2060</ele>
        <time>2018-10-17T10:44:18Z</time>
      </trkpt>
      <trkpt lat="45.81795" lon="6.43017">
        <ele>2060</ele>
        <time>2018-10-17T10:44:19Z</time>
      </trkpt>
      <trkpt lat="45.81792" lon="6.43017">
        <ele>2060</ele>
        <time>2018-10-17T10:44:20Z</time>
      </trkpt>
      <trkpt lat="45.81792" lon="6.43017">
        <ele>2059</ele>
        <time>2018-10-17T10:44:21Z</time>
      </trkpt>
      <trkpt lat="45.81789" lon="6.43018">
        <ele>2059</ele>
        <time>2018-10-17T10:44:22Z</time>
      </trkpt>
      <trkpt lat="45.81789" lon="6.43018">
        <ele>2058</ele>
        <time>2018-10-17T10:44:23Z</time>
      </trkpt>
      <trkpt lat="45.81786" lon="6.43018">
        <ele>2058</ele>
        <time>2018-10-17T10:44:24Z</time>
      </trkpt>
      <trkpt lat="45.81786" lon="6.43018">
        <ele>2058</ele>
        <time>2018-10-17T10:44:25Z</time>
      </trkpt>
      <trkpt lat="45.81784" lon="6.43018">
        <ele>2058</ele>
        <time>2018-10-17T10:44:26Z</time>
      </trkpt>
      <trkpt lat="45.81784" lon="6.43018">
        <ele>2056</ele>
        <time>2018-10-17T10:44:27Z</time>
      </trkpt>
      <trkpt lat="45.81781" lon="6.43017">
        <ele>2056</ele>
        <time>2018-10-17T10:44:28Z</time>
      </trkpt>
      <trkpt lat="45.81781" lon="6.43017">
        <ele>2056</ele>
        <time>2018-10-17T10:44:29Z</time>
      </trkpt>
      <trkpt lat="45.81779" lon="6.43016">
        <ele>2056</ele>
        <time>2018-10-17T10:44:30Z</time>
      </trkpt>
      <trkpt lat="45.81779" lon="6.43016">
        <ele>2056</ele>
        <time>2018-10-17T10:44:31Z</time>
      </trkpt>
      <trkpt lat="45.81776" lon="6.43016">
        <ele>2056</ele>
        <time>2018-10-17T10:44:32Z</time>
      </trkpt>
      <trkpt lat="45.81776" lon="6.43016">
        <ele>2056</ele>
        <time>2018-10-17T10:44:33Z</time>
      </trkpt>
      <trkpt lat="45.81773" lon="6.43016">
        <ele>2056</ele>
        <time>2018-10-17T10:44:34Z</time>
      </trkpt>
      <trkpt lat="45.81773" lon="6.43016">
        <ele>2056</ele>
        <time>2018-10-17T10:44:35Z</time>
      </trkpt>
      <trkpt lat="45.8177" lon="6.43015">
        <ele>2056</ele>
        <time>2018-10-17T10:44:36Z</time>
      </trkpt>
      <trkpt lat="45.8177" lon="6.43015">
        <ele>2056</ele>
        <time>2018-10-17T10:44:37Z</time>
      </trkpt>
      <trkpt lat="45.81767" lon="6.43015">
        <ele>2056</ele>
        <time>2018-10-17T10:44:38Z</time>
      </trkpt>
      <trkpt lat="45.81767" lon="6.43015">
        <ele>2056</ele>
        <time>2018-10-17T10:44:39Z</time>
      </trkpt>
      <trkpt lat="45.81764" lon="6.43014">
        <ele>2056</ele>
        <time>2018-10-17T10:44:40Z</time>
      </trkpt>
      <trkpt lat="45.81764" lon="6.43014">
        <ele>2056</ele>
        <time>2018-10-17T10:44:41Z</time>
      </trkpt>
      <trkpt lat="45.81762" lon="6.43013">
        <ele>2056</ele>
        <time>2018-10-17T10:44:42Z</time>
      </trkpt>
      <trkpt lat="45.81762" lon="6.43013">
        <ele>2055</ele>
        <time>2018-10-17T10:44:43Z</time>
      </trkpt>
      <trkpt lat="45.8176" lon="6.43012">
        <ele>2054</ele>
        <time>2018-10-17T10:44:44Z</time>
      </trkpt>
      <trkpt lat="45.8176" lon="6.43012">
        <ele>2054</ele>
        <time>2018-10-17T10:44:45Z</time>
      </trkpt>
      <trkpt lat="45.81758" lon="6.4301">
        <ele>2054</ele>
        <time>2018-10-17T10:44:46Z</time>
      </trkpt>
      <trkpt lat="45.81758" lon="6.4301">
        <ele>2054</ele>
        <time>2018-10-17T10:44:47Z</time>
      </trkpt>
      <trkpt lat="45.81756" lon="6.43009">
        <ele>2053</ele>
        <time>2018-10-17T10:44:48Z</time>
      </trkpt>
      <trkpt lat="45.81756" lon="6.43009">
        <ele>2053</ele>
        <time>2018-10-17T10:44:49Z</time>
      </trkpt>
      <trkpt lat="45.81754" lon="6.43008">
        <ele>2053</ele>
        <time>2018-10-17T10:44:50Z</time>
      </trkpt>
      <trkpt lat="45.81754" lon="6.43008">
        <ele>2053</ele>
        <time>2018-10-17T10:44:51Z</time>
      </trkpt>
      <trkpt lat="45.81751" lon="6.43006">
        <ele>2053</ele>
        <time>2018-10-17T10:44:52Z</time>
      </trkpt>
      <trkpt lat="45.81751" lon="6.43006">
        <ele>2052</ele>
        <time>2018-10-17T10:44:53Z</time>
      </trkpt>
      <trkpt lat="45.81749" lon="6.43004">
        <ele>2052</ele>
        <time>2018-10-17T10:44:54Z</time>
      </trkpt>
      <trkpt lat="45.81749" lon="6.43004">
        <ele>2052</ele>
        <time>2018-10-17T10:44:55Z</time>
      </trkpt>
      <trkpt lat="45.81747" lon="6.43003">
        <ele>2052</ele>
        <time>2018-10-17T10:44:56Z</time>
      </trkpt>
      <trkpt lat="45.81747" lon="6.43003">
        <ele>2052</ele>
        <time>2018-10-17T10:44:57Z</time>
      </trkpt>
      <trkpt lat="45.81745" lon="6.43001">
        <ele>2052</ele>
        <time>2018-10-17T10:44:58Z</time>
      </trkpt>
      <trkpt lat="45.81745" lon="6.43001">
        <ele>2051</ele>
        <time>2018-10-17T10:44:59Z</time>
      </trkpt>
      <trkpt lat="45.81743" lon="6.42999">
        <ele>2051</ele>
        <time>2018-10-17T10:45:00Z</time>
      </trkpt>
      <trkpt lat="45.81743" lon="6.42999">
        <ele>2052</ele>
        <time>2018-10-17T10:45:01Z</time>
      </trkpt>
      <trkpt lat="45.81742" lon="6.42998">
        <ele>2052</ele>
        <time>2018-10-17T10:45:02Z</time>
      </trkpt>
      <trkpt lat="45.81742" lon="6.42998">
        <ele>2052</ele>
        <time>2018-10-17T10:45:03Z</time>
      </trkpt>
      <trkpt lat="45.8174" lon="6.42996">
        <ele>2052</ele>
        <time>2018-10-17T10:45:04Z</time>
      </trkpt>
      <trkpt lat="45.8174" lon="6.42996">
        <ele>2053</ele>
        <time>2018-10-17T10:45:05Z</time>
      </trkpt>
      <trkpt lat="45.8174" lon="6.42996">
        <ele>2053</ele>
        <time>2018-10-17T10:45:06Z</time>
      </trkpt>
      <trkpt lat="45.81738" lon="6.42995">
        <ele>2053</ele>
        <time>2018-10-17T10:45:07Z</time>
      </trkpt>
      <trkpt lat="45.81738" lon="6.42995">
        <ele>2053</ele>
        <time>2018-10-17T10:45:08Z</time>
      </trkpt>
      <trkpt lat="45.81736" lon="6.42994">
        <ele>2053</ele>
        <time>2018-10-17T10:45:09Z</time>
      </trkpt>
      <trkpt lat="45.81736" lon="6.42994">
        <ele>2052</ele>
        <time>2018-10-17T10:45:10Z</time>
      </trkpt>
      <trkpt lat="45.81734" lon="6.42992">
        <ele>2052</ele>
        <time>2018-10-17T10:45:11Z</time>
      </trkpt>
      <trkpt lat="45.81734" lon="6.42992">
        <ele>2052</ele>
        <time>2018-10-17T10:45:12Z</time>
      </trkpt>
      <trkpt lat="45.81734" lon="6.42992">
        <ele>2052</ele>
        <time>2018-10-17T10:45:13Z</time>
      </trkpt>
      <trkpt lat="45.81732" lon="6.42989">
        <ele>2052</ele>
        <time>2018-10-17T10:45:14Z</time>
      </trkpt>
      <trkpt lat="45.81732" lon="6.42989">
        <ele>2052</ele>
        <time>2018-10-17T10:45:15Z</time>
      </trkpt>
      <trkpt lat="45.81732" lon="6.42989">
        <ele>2052</ele>
        <time>2018-10-17T10:45:16Z</time>
      </trkpt>
      <trkpt lat="45.8173" lon="6.42987">
        <ele>2053</ele>
        <time>2018-10-17T10:45:17Z</time>
      </trkpt>
      <trkpt lat="45.8173" lon="6.42987">
        <ele>2053</ele>
        <time>2018-10-17T10:45:18Z</time>
      </trkpt>
      <trkpt lat="45.81728" lon="6.42985">
        <ele>2053</ele>
        <time>2018-10-17T10:45:19Z</time>
      </trkpt>
      <trkpt lat="45.81728" lon="6.42985">
        <ele>2053</ele>
        <time>2018-10-17T10:45:20Z</time>
      </trkpt>
      <trkpt lat="45.81726" lon="6.42984">
        <ele>2053</ele>
        <time>2018-10-17T10:45:21Z</time>
      </trkpt>
      <trkpt lat="45.81726" lon="6.42984">
        <ele>2053</ele>
        <time>2018-10-17T10:45:22Z</time>
      </trkpt>
      <trkpt lat="45.81725" lon="6.42983">
        <ele>2053</ele>
        <time>2018-10-17T10:45:23Z</time>
      </trkpt>
      <trkpt lat="45.81725" lon="6.42983">
        <ele>2053</ele>
        <time>2018-10-17T10:45:24Z</time>
      </trkpt>
      <trkpt lat="45.81722" lon="6.42981">
        <ele>2053</ele>
        <time>2018-10-17T10:45:25Z</time>
      </trkpt>
      <trkpt lat="45.81722" lon="6.42981">
        <ele>2053</ele>
        <time>2018-10-17T10:45:26Z</time>
      </trkpt>
      <trkpt lat="45.8172" lon="6.4298">
        <ele>2053</ele>
        <time>2018-10-17T10:45:27Z</time>
      </trkpt>
      <trkpt lat="45.8172" lon="6.4298">
        <ele>2053</ele>
        <time>2018-10-17T10:45:28Z</time>
      </trkpt>
      <trkpt lat="45.8172" lon="6.4298">
        <ele>2053</ele>
        <time>2018-10-17T10:45:29Z</time>
      </trkpt>
      <trkpt lat="45.81718" lon="6.42978">
        <ele>2053</ele>
        <time>2018-10-17T10:45:30Z</time>
      </trkpt>
      <trkpt lat="45.81718" lon="6.42978">
        <ele>2053</ele>
        <time>2018-10-17T10:45:31Z</time>
      </trkpt>
      <trkpt lat="45.81718" lon="6.42978">
        <ele>2053</ele>
        <time>2018-10-17T10:45:32Z</time>
      </trkpt>
      <trkpt lat="45.81718" lon="6.42978">
        <ele>2054</ele>
        <time>2018-10-17T10:45:33Z</time>
      </trkpt>
      <trkpt lat="45.81716" lon="6.42978">
        <ele>2054</ele>
        <time>2018-10-17T10:45:34Z</time>
      </trkpt>
      <trkpt lat="45.81716" lon="6.42978">
        <ele>2054</ele>
        <time>2018-10-17T10:45:35Z</time>
      </trkpt>
      <trkpt lat="45.81716" lon="6.42978">
        <ele>2055</ele>
        <time>2018-10-17T10:45:36Z</time>
      </trkpt>
      <trkpt lat="45.81716" lon="6.42978">
        <ele>2055</ele>
        <time>2018-10-17T10:45:37Z</time>
      </trkpt>
      <trkpt lat="45.81714" lon="6.42976">
        <ele>2055</ele>
        <time>2018-10-17T10:45:38Z</time>
      </trkpt>
      <trkpt lat="45.81714" lon="6.42976">
        <ele>2055</ele>
        <time>2018-10-17T10:45:39Z</time>
      </trkpt>
      <trkpt lat="45.81714" lon="6.42976">
        <ele>2055</ele>
        <time>2018-10-17T10:45:40Z</time>
      </trkpt>
      <trkpt lat="45.81714" lon="6.42976">
        <ele>2055</ele>
        <time>2018-10-17T10:45:41Z</time>
      </trkpt>
      <trkpt lat="45.81713" lon="6.42974">
        <ele>2057</ele>
        <time>2018-10-17T10:45:42Z</time>
      </trkpt>
      <trkpt lat="45.81713" lon="6.42974">
        <ele>2057</ele>
        <time>2018-10-17T10:45:43Z</time>
      </trkpt>
      <trkpt lat="45.81713" lon="6.42974">
        <ele>2057</ele>
        <time>2018-10-17T10:45:44Z</time>
      </trkpt>
      <trkpt lat="45.81711" lon="6.42973">
        <ele>2057</ele>
        <time>2018-10-17T10:45:45Z</time>
      </trkpt>
      <trkpt lat="45.81711" lon="6.42973">
        <ele>2058</ele>
        <time>2018-10-17T10:45:46Z</time>
      </trkpt>
      <trkpt lat="45.81711" lon="6.42973">
        <ele>2058</ele>
        <time>2018-10-17T10:45:47Z</time>
      </trkpt>
      <trkpt lat="45.81711" lon="6.42973">
        <ele>2058</ele>
        <time>2018-10-17T10:45:48Z</time>
      </trkpt>
      <trkpt lat="45.81711" lon="6.42973">
        <ele>2058</ele>
        <time>2018-10-17T10:45:49Z</time>
      </trkpt>
      <trkpt lat="45.81711" lon="6.42973">
        <ele>2058</ele>
        <time>2018-10-17T10:45:50Z</time>
      </trkpt>
      <trkpt lat="45.81711" lon="6.42973">
        <ele>2056</ele>
        <time>2018-10-17T10:45:51Z</time>
      </trkpt>
      <trkpt lat="45.81709" lon="6.42974">
        <ele>2056</ele>
        <time>2018-10-17T10:45:52Z</time>
      </trkpt>
      <trkpt lat="45.81709" lon="6.42974">
        <ele>2056</ele>
        <time>2018-10-17T10:45:53Z</time>
      </trkpt>
      <trkpt lat="45.81709" lon="6.42974">
        <ele>2056</ele>
        <time>2018-10-17T10:45:54Z</time>
      </trkpt>
      <trkpt lat="45.81709" lon="6.42974">
        <ele>2056</ele>
        <time>2018-10-17T10:45:55Z</time>
      </trkpt>
      <trkpt lat="45.81709" lon="6.42974">
        <ele>2056</ele>
        <time>2018-10-17T10:45:56Z</time>
      </trkpt>
      <trkpt lat="45.81708" lon="6.42972">
        <ele>2058</ele>
        <time>2018-10-17T10:45:57Z</time>
      </trkpt>
      <trkpt lat="45.81708" lon="6.42972">
        <ele>2058</ele>
        <time>2018-10-17T10:45:58Z</time>
      </trkpt>
      <trkpt lat="45.81708" lon="6.42972">
        <ele>2058</ele>
        <time>2018-10-17T10:45:59Z</time>
      </trkpt>
      <trkpt lat="45.81708" lon="6.42972">
        <ele>2058</ele>
        <time>2018-10-17T10:46:00Z</time>
      </trkpt>
      <trkpt lat="45.81706" lon="6.42971">
        <ele>2058</ele>
        <time>2018-10-17T10:46:01Z</time>
      </trkpt>
      <trkpt lat="45.81706" lon="6.42971">
        <ele>2058</ele>
        <time>2018-10-17T10:46:02Z</time>
      </trkpt>
      <trkpt lat="45.81706" lon="6.42971">
        <ele>2058</ele>
        <time>2018-10-17T10:46:03Z</time>
      </trkpt>
      <trkpt lat="45.81706" lon="6.42971">
        <ele>2058</ele>
        <time>2018-10-17T10:46:04Z</time>
      </trkpt>
      <trkpt lat="45.81706" lon="6.42971">
        <ele>2058</ele>
        <time>2018-10-17T10:46:05Z</time>
      </trkpt>
      <trkpt lat="45.81706" lon="6.42971">
        <ele>2058</ele>
        <time>2018-10-17T10:46:06Z</time>
      </trkpt>
      <trkpt lat="45.81706" lon="6.42971">
        <ele>2058</ele>
        <time>2018-10-17T10:46:07Z</time>
      </trkpt>
      <trkpt lat="45.81704" lon="6.4297">
        <ele>2058</ele>
        <time>2018-10-17T10:46:08Z</time>
      </trkpt>
      <trkpt lat="45.81704" lon="6.4297">
        <ele>2058</ele>
        <time>2018-10-17T10:46:09Z</time>
      </trkpt>
      <trkpt lat="45.81704" lon="6.4297">
        <ele>2059</ele>
        <time>2018-10-17T10:46:10Z</time>
      </trkpt>
      <trkpt lat="45.81704" lon="6.4297">
        <ele>2059</ele>
        <time>2018-10-17T10:46:11Z</time>
      </trkpt>
      <trkpt lat="45.81704" lon="6.4297">
        <ele>2059</ele>
        <time>2018-10-17T10:46:12Z</time>
      </trkpt>
      <trkpt lat="45.81702" lon="6.42968">
        <ele>2060</ele>
        <time>2018-10-17T10:46:13Z</time>
      </trkpt>
      <trkpt lat="45.81702" lon="6.42968">
        <ele>2060</ele>
        <time>2018-10-17T10:46:14Z</time>
      </trkpt>
      <trkpt lat="45.81702" lon="6.42968">
        <ele>2060</ele>
        <time>2018-10-17T10:46:15Z</time>
      </trkpt>
      <trkpt lat="45.81702" lon="6.42968">
        <ele>2061</ele>
        <time>2018-10-17T10:46:16Z</time>
      </trkpt>
      <trkpt lat="45.817" lon="6.42967">
        <ele>2061</ele>
        <time>2018-10-17T10:46:17Z</time>
      </trkpt>
      <trkpt lat="45.817" lon="6.42967">
        <ele>2061</ele>
        <time>2018-10-17T10:46:18Z</time>
      </trkpt>
      <trkpt lat="45.817" lon="6.42967">
        <ele>2061</ele>
        <time>2018-10-17T10:46:19Z</time>
      </trkpt>
      <trkpt lat="45.817" lon="6.42967">
        <ele>2061</ele>
        <time>2018-10-17T10:46:20Z</time>
      </trkpt>
      <trkpt lat="45.817" lon="6.42967">
        <ele>2062</ele>
        <time>2018-10-17T10:46:21Z</time>
      </trkpt>
      <trkpt lat="45.81701" lon="6.42964">
        <ele>2062</ele>
        <time>2018-10-17T10:46:22Z</time>
      </trkpt>
      <trkpt lat="45.81701" lon="6.42964">
        <ele>2062</ele>
        <time>2018-10-17T10:46:23Z</time>
      </trkpt>
      <trkpt lat="45.81701" lon="6.42964">
        <ele>2062</ele>
        <time>2018-10-17T10:46:24Z</time>
      </trkpt>
      <trkpt lat="45.81701" lon="6.42964">
        <ele>2062</ele>
        <time>2018-10-17T10:46:25Z</time>
      </trkpt>
      <trkpt lat="45.81701" lon="6.42964">
        <ele>2063</ele>
        <time>2018-10-17T10:46:26Z</time>
      </trkpt>
      <trkpt lat="45.81701" lon="6.42964">
        <ele>2063</ele>
        <time>2018-10-17T10:46:27Z</time>
      </trkpt>
      <trkpt lat="45.81701" lon="6.42964">
        <ele>2063</ele>
        <time>2018-10-17T10:46:28Z</time>
      </trkpt>
      <trkpt lat="45.81701" lon="6.42964">
        <ele>2063</ele>
        <time>2018-10-17T10:46:29Z</time>
      </trkpt>
      <trkpt lat="45.81701" lon="6.42964">
        <ele>2063</ele>
        <time>2018-10-17T10:46:30Z</time>
      </trkpt>
      <trkpt lat="45.81701" lon="6.42964">
        <ele>2063</ele>
        <time>2018-10-17T10:46:31Z</time>
      </trkpt>
      <trkpt lat="45.81701" lon="6.42964">
        <ele>2064</ele>
        <time>2018-10-17T10:46:32Z</time>
      </trkpt>
      <trkpt lat="45.817" lon="6.42961">
        <ele>2064</ele>
        <time>2018-10-17T10:46:33Z</time>
      </trkpt>
      <trkpt lat="45.817" lon="6.42961">
        <ele>2065</ele>
        <time>2018-10-17T10:46:34Z</time>
      </trkpt>
      <trkpt lat="45.817" lon="6.42961">
        <ele>2065</ele>
        <time>2018-10-17T10:46:35Z</time>
      </trkpt>
      <trkpt lat="45.81698" lon="6.4296">
        <ele>2065</ele>
        <time>2018-10-17T10:46:36Z</time>
      </trkpt>
      <trkpt lat="45.81698" lon="6.4296">
        <ele>2065</ele>
        <time>2018-10-17T10:46:37Z</time>
      </trkpt>
      <trkpt lat="45.81698" lon="6.4296">
        <ele>2065</ele>
        <time>2018-10-17T10:46:38Z</time>
      </trkpt>
      <trkpt lat="45.81698" lon="6.4296">
        <ele>2065</ele>
        <time>2018-10-17T10:46:39Z</time>
      </trkpt>
      <trkpt lat="45.81695" lon="6.42959">
        <ele>2066</ele>
        <time>2018-10-17T10:46:40Z</time>
      </trkpt>
      <trkpt lat="45.81695" lon="6.42959">
        <ele>2066</ele>
        <time>2018-10-17T10:46:41Z</time>
      </trkpt>
      <trkpt lat="45.81695" lon="6.42959">
        <ele>2066</ele>
        <time>2018-10-17T10:46:42Z</time>
      </trkpt>
      <trkpt lat="45.81695" lon="6.42959">
        <ele>2066</ele>
        <time>2018-10-17T10:46:43Z</time>
      </trkpt>
      <trkpt lat="45.81695" lon="6.42959">
        <ele>2066</ele>
        <time>2018-10-17T10:46:44Z</time>
      </trkpt>
      <trkpt lat="45.81695" lon="6.42959">
        <ele>2066</ele>
        <time>2018-10-17T10:46:45Z</time>
      </trkpt>
      <trkpt lat="45.81694" lon="6.42957">
        <ele>2066</ele>
        <time>2018-10-17T10:46:46Z</time>
      </trkpt>
      <trkpt lat="45.81694" lon="6.42957">
        <ele>2066</ele>
        <time>2018-10-17T10:46:47Z</time>
      </trkpt>
      <trkpt lat="45.81694" lon="6.42957">
        <ele>2066</ele>
        <time>2018-10-17T10:46:48Z</time>
      </trkpt>
      <trkpt lat="45.81694" lon="6.42957">
        <ele>2065</ele>
        <time>2018-10-17T10:46:49Z</time>
      </trkpt>
      <trkpt lat="45.81694" lon="6.42957">
        <ele>2065</ele>
        <time>2018-10-17T10:46:50Z</time>
      </trkpt>
      <trkpt lat="45.81693" lon="6.42954">
        <ele>2067</ele>
        <time>2018-10-17T10:46:51Z</time>
      </trkpt>
      <trkpt lat="45.81693" lon="6.42954">
        <ele>2067</ele>
        <time>2018-10-17T10:46:52Z</time>
      </trkpt>
      <trkpt lat="45.81693" lon="6.42954">
        <ele>2068</ele>
        <time>2018-10-17T10:46:53Z</time>
      </trkpt>
      <trkpt lat="45.81691" lon="6.42953">
        <ele>2068</ele>
        <time>2018-10-17T10:46:54Z</time>
      </trkpt>
      <trkpt lat="45.81691" lon="6.42953">
        <ele>2068</ele>
        <time>2018-10-17T10:46:55Z</time>
      </trkpt>
      <trkpt lat="45.81691" lon="6.42953">
        <ele>2068</ele>
        <time>2018-10-17T10:46:56Z</time>
      </trkpt>
      <trkpt lat="45.81691" lon="6.42953">
        <ele>2069</ele>
        <time>2018-10-17T10:46:57Z</time>
      </trkpt>
      <trkpt lat="45.8169" lon="6.42951">
        <ele>2069</ele>
        <time>2018-10-17T10:46:58Z</time>
      </trkpt>
      <trkpt lat="45.8169" lon="6.42951">
        <ele>2069</ele>
        <time>2018-10-17T10:46:59Z</time>
      </trkpt>
      <trkpt lat="45.8169" lon="6.42951">
        <ele>2069</ele>
        <time>2018-10-17T10:47:00Z</time>
      </trkpt>
      <trkpt lat="45.81688" lon="6.42949">
        <ele>2070</ele>
        <time>2018-10-17T10:47:01Z</time>
      </trkpt>
      <trkpt lat="45.81688" lon="6.42949">
        <ele>2070</ele>
        <time>2018-10-17T10:47:02Z</time>
      </trkpt>
      <trkpt lat="45.81688" lon="6.42949">
        <ele>2070</ele>
        <time>2018-10-17T10:47:03Z</time>
      </trkpt>
      <trkpt lat="45.81688" lon="6.42949">
        <ele>2070</ele>
        <time>2018-10-17T10:47:04Z</time>
      </trkpt>
      <trkpt lat="45.81687" lon="6.42947">
        <ele>2069</ele>
        <time>2018-10-17T10:47:05Z</time>
      </trkpt>
      <trkpt lat="45.81687" lon="6.42947">
        <ele>2069</ele>
        <time>2018-10-17T10:47:06Z</time>
      </trkpt>
      <trkpt lat="45.81687" lon="6.42947">
        <ele>2071</ele>
        <time>2018-10-17T10:47:07Z</time>
      </trkpt>
      <trkpt lat="45.81687" lon="6.42947">
        <ele>2071</ele>
        <time>2018-10-17T10:47:08Z</time>
      </trkpt>
      <trkpt lat="45.81687" lon="6.42947">
        <ele>2070</ele>
        <time>2018-10-17T10:47:09Z</time>
      </trkpt>
      <trkpt lat="45.81685" lon="6.42945">
        <ele>2070</ele>
        <time>2018-10-17T10:47:10Z</time>
      </trkpt>
      <trkpt lat="45.81685" lon="6.42945">
        <ele>2072</ele>
        <time>2018-10-17T10:47:11Z</time>
      </trkpt>
      <trkpt lat="45.81685" lon="6.42945">
        <ele>2072</ele>
        <time>2018-10-17T10:47:12Z</time>
      </trkpt>
      <trkpt lat="45.81685" lon="6.42945">
        <ele>2071</ele>
        <time>2018-10-17T10:47:13Z</time>
      </trkpt>
      <trkpt lat="45.81685" lon="6.42945">
        <ele>2071</ele>
        <time>2018-10-17T10:47:14Z</time>
      </trkpt>
      <trkpt lat="45.81683" lon="6.42945">
        <ele>2071</ele>
        <time>2018-10-17T10:47:15Z</time>
      </trkpt>
      <trkpt lat="45.81683" lon="6.42945">
        <ele>2071</ele>
        <time>2018-10-17T10:47:16Z</time>
      </trkpt>
      <trkpt lat="45.81683" lon="6.42945">
        <ele>2073</ele>
        <time>2018-10-17T10:47:17Z</time>
      </trkpt>
      <trkpt lat="45.8168" lon="6.42945">
        <ele>2072</ele>
        <time>2018-10-17T10:47:18Z</time>
      </trkpt>
      <trkpt lat="45.8168" lon="6.42945">
        <ele>2072</ele>
        <time>2018-10-17T10:47:19Z</time>
      </trkpt>
      <trkpt lat="45.81678" lon="6.42945">
        <ele>2074</ele>
        <time>2018-10-17T10:47:21Z</time>
      </trkpt>
      <trkpt lat="45.81678" lon="6.42945">
        <ele>2073</ele>
        <time>2018-10-17T10:47:22Z</time>
      </trkpt>
      <trkpt lat="45.81678" lon="6.42945">
        <ele>2073</ele>
        <time>2018-10-17T10:47:23Z</time>
      </trkpt>
      <trkpt lat="45.81678" lon="6.42945">
        <ele>2072</ele>
        <time>2018-10-17T10:47:24Z</time>
      </trkpt>
      <trkpt lat="45.81677" lon="6.42944">
        <ele>2073</ele>
        <time>2018-10-17T10:47:25Z</time>
      </trkpt>
      <trkpt lat="45.81677" lon="6.42944">
        <ele>2073</ele>
        <time>2018-10-17T10:47:26Z</time>
      </trkpt>
      <trkpt lat="45.81677" lon="6.42944">
        <ele>2075</ele>
        <time>2018-10-17T10:47:27Z</time>
      </trkpt>
      <trkpt lat="45.81677" lon="6.42944">
        <ele>2075</ele>
        <time>2018-10-17T10:47:28Z</time>
      </trkpt>
      <trkpt lat="45.81677" lon="6.42944">
        <ele>2075</ele>
        <time>2018-10-17T10:47:29Z</time>
      </trkpt>
      <trkpt lat="45.81677" lon="6.42944">
        <ele>2075</ele>
        <time>2018-10-17T10:47:30Z</time>
      </trkpt>
      <trkpt lat="45.81674" lon="6.42944">
        <ele>2075</ele>
        <time>2018-10-17T10:47:31Z</time>
      </trkpt>
      <trkpt lat="45.81674" lon="6.42944">
        <ele>2076</ele>
        <time>2018-10-17T10:47:32Z</time>
      </trkpt>
      <trkpt lat="45.81674" lon="6.42944">
        <ele>2076</ele>
        <time>2018-10-17T10:47:33Z</time>
      </trkpt>
      <trkpt lat="45.81674" lon="6.42944">
        <ele>2076</ele>
        <time>2018-10-17T10:47:34Z</time>
      </trkpt>
      <trkpt lat="45.81674" lon="6.42944">
        <ele>2076</ele>
        <time>2018-10-17T10:47:35Z</time>
      </trkpt>
      <trkpt lat="45.81673" lon="6.42943">
        <ele>2076</ele>
        <time>2018-10-17T10:47:36Z</time>
      </trkpt>
      <trkpt lat="45.81673" lon="6.42943">
        <ele>2076</ele>
        <time>2018-10-17T10:47:37Z</time>
      </trkpt>
      <trkpt lat="45.81673" lon="6.42943">
        <ele>2076</ele>
        <time>2018-10-17T10:47:38Z</time>
      </trkpt>
      <trkpt lat="45.81671" lon="6.42943">
        <ele>2076</ele>
        <time>2018-10-17T10:47:39Z</time>
      </trkpt>
      <trkpt lat="45.81671" lon="6.42943">
        <ele>2076</ele>
        <time>2018-10-17T10:47:40Z</time>
      </trkpt>
      <trkpt lat="45.81671" lon="6.42943">
        <ele>2076</ele>
        <time>2018-10-17T10:47:41Z</time>
      </trkpt>
      <trkpt lat="45.81671" lon="6.42943">
        <ele>2077</ele>
        <time>2018-10-17T10:47:42Z</time>
      </trkpt>
      <trkpt lat="45.81668" lon="6.42943">
        <ele>2077</ele>
        <time>2018-10-17T10:47:43Z</time>
      </trkpt>
      <trkpt lat="45.81668" lon="6.42943">
        <ele>2078</ele>
        <time>2018-10-17T10:47:44Z</time>
      </trkpt>
      <trkpt lat="45.81668" lon="6.42943">
        <ele>2078</ele>
        <time>2018-10-17T10:47:45Z</time>
      </trkpt>
      <trkpt lat="45.81666" lon="6.42941">
        <ele>2079</ele>
        <time>2018-10-17T10:47:46Z</time>
      </trkpt>
      <trkpt lat="45.81666" lon="6.42941">
        <ele>2079</ele>
        <time>2018-10-17T10:47:47Z</time>
      </trkpt>
      <trkpt lat="45.81666" lon="6.42941">
        <ele>2079</ele>
        <time>2018-10-17T10:47:48Z</time>
      </trkpt>
      <trkpt lat="45.81664" lon="6.42939">
        <ele>2079</ele>
        <time>2018-10-17T10:47:49Z</time>
      </trkpt>
      <trkpt lat="45.81664" lon="6.42939">
        <ele>2079</ele>
        <time>2018-10-17T10:47:50Z</time>
      </trkpt>
      <trkpt lat="45.81662" lon="6.42939">
        <ele>2079</ele>
        <time>2018-10-17T10:47:51Z</time>
      </trkpt>
      <trkpt lat="45.81662" lon="6.42939">
        <ele>2079</ele>
        <time>2018-10-17T10:47:52Z</time>
      </trkpt>
      <trkpt lat="45.8166" lon="6.4294">
        <ele>2078</ele>
        <time>2018-10-17T10:47:53Z</time>
      </trkpt>
      <trkpt lat="45.8166" lon="6.4294">
        <ele>2078</ele>
        <time>2018-10-17T10:47:54Z</time>
      </trkpt>
      <trkpt lat="45.81658" lon="6.4294">
        <ele>2078</ele>
        <time>2018-10-17T10:47:55Z</time>
      </trkpt>
      <trkpt lat="45.81658" lon="6.4294">
        <ele>2077</ele>
        <time>2018-10-17T10:47:56Z</time>
      </trkpt>
      <trkpt lat="45.81655" lon="6.42941">
        <ele>2077</ele>
        <time>2018-10-17T10:47:57Z</time>
      </trkpt>
      <trkpt lat="45.81655" lon="6.42941">
        <ele>2077</ele>
        <time>2018-10-17T10:47:58Z</time>
      </trkpt>
      <trkpt lat="45.81653" lon="6.42941">
        <ele>2077</ele>
        <time>2018-10-17T10:47:59Z</time>
      </trkpt>
      <trkpt lat="45.81653" lon="6.42941">
        <ele>2077</ele>
        <time>2018-10-17T10:48:00Z</time>
      </trkpt>
      <trkpt lat="45.8165" lon="6.42941">
        <ele>2076</ele>
        <time>2018-10-17T10:48:01Z</time>
      </trkpt>
      <trkpt lat="45.8165" lon="6.42941">
        <ele>2076</ele>
        <time>2018-10-17T10:48:02Z</time>
      </trkpt>
      <trkpt lat="45.81648" lon="6.42941">
        <ele>2076</ele>
        <time>2018-10-17T10:48:03Z</time>
      </trkpt>
      <trkpt lat="45.81648" lon="6.42941">
        <ele>2076</ele>
        <time>2018-10-17T10:48:04Z</time>
      </trkpt>
      <trkpt lat="45.81645" lon="6.42942">
        <ele>2076</ele>
        <time>2018-10-17T10:48:05Z</time>
      </trkpt>
      <trkpt lat="45.81645" lon="6.42942">
        <ele>2076</ele>
        <time>2018-10-17T10:48:06Z</time>
      </trkpt>
      <trkpt lat="45.81643" lon="6.42943">
        <ele>2074</ele>
        <time>2018-10-17T10:48:07Z</time>
      </trkpt>
      <trkpt lat="45.81643" lon="6.42943">
        <ele>2074</ele>
        <time>2018-10-17T10:48:08Z</time>
      </trkpt>
      <trkpt lat="45.81641" lon="6.42944">
        <ele>2074</ele>
        <time>2018-10-17T10:48:09Z</time>
      </trkpt>
      <trkpt lat="45.81641" lon="6.42944">
        <ele>2074</ele>
        <time>2018-10-17T10:48:10Z</time>
      </trkpt>
      <trkpt lat="45.81639" lon="6.42945">
        <ele>2074</ele>
        <time>2018-10-17T10:48:11Z</time>
      </trkpt>
      <trkpt lat="45.81639" lon="6.42945">
        <ele>2074</ele>
        <time>2018-10-17T10:48:12Z</time>
      </trkpt>
      <trkpt lat="45.81637" lon="6.42946">
        <ele>2074</ele>
        <time>2018-10-17T10:48:13Z</time>
      </trkpt>
      <trkpt lat="45.81637" lon="6.42946">
        <ele>2074</ele>
        <time>2018-10-17T10:48:14Z</time>
      </trkpt>
      <trkpt lat="45.81634" lon="6.42947">
        <ele>2074</ele>
        <time>2018-10-17T10:48:15Z</time>
      </trkpt>
      <trkpt lat="45.81634" lon="6.42947">
        <ele>2074</ele>
        <time>2018-10-17T10:48:16Z</time>
      </trkpt>
      <trkpt lat="45.81632" lon="6.42948">
        <ele>2074</ele>
        <time>2018-10-17T10:48:17Z</time>
      </trkpt>
      <trkpt lat="45.81632" lon="6.42948">
        <ele>2074</ele>
        <time>2018-10-17T10:48:18Z</time>
      </trkpt>
      <trkpt lat="45.81629" lon="6.42948">
        <ele>2074</ele>
        <time>2018-10-17T10:48:19Z</time>
      </trkpt>
      <trkpt lat="45.81629" lon="6.42948">
        <ele>2074</ele>
        <time>2018-10-17T10:48:20Z</time>
      </trkpt>
      <trkpt lat="45.81627" lon="6.42949">
        <ele>2073</ele>
        <time>2018-10-17T10:48:21Z</time>
      </trkpt>
      <trkpt lat="45.81627" lon="6.42949">
        <ele>2073</ele>
        <time>2018-10-17T10:48:22Z</time>
      </trkpt>
      <trkpt lat="45.81625" lon="6.42949">
        <ele>2073</ele>
        <time>2018-10-17T10:48:23Z</time>
      </trkpt>
      <trkpt lat="45.81625" lon="6.42949">
        <ele>2073</ele>
        <time>2018-10-17T10:48:24Z</time>
      </trkpt>
      <trkpt lat="45.81622" lon="6.4295">
        <ele>2072</ele>
        <time>2018-10-17T10:48:25Z</time>
      </trkpt>
      <trkpt lat="45.81622" lon="6.4295">
        <ele>2072</ele>
        <time>2018-10-17T10:48:26Z</time>
      </trkpt>
      <trkpt lat="45.8162" lon="6.42952">
        <ele>2072</ele>
        <time>2018-10-17T10:48:27Z</time>
      </trkpt>
      <trkpt lat="45.8162" lon="6.42952">
        <ele>2071</ele>
        <time>2018-10-17T10:48:28Z</time>
      </trkpt>
      <trkpt lat="45.8162" lon="6.42952">
        <ele>2071</ele>
        <time>2018-10-17T10:48:29Z</time>
      </trkpt>
      <trkpt lat="45.81618" lon="6.42952">
        <ele>2071</ele>
        <time>2018-10-17T10:48:30Z</time>
      </trkpt>
      <trkpt lat="45.81618" lon="6.42952">
        <ele>2071</ele>
        <time>2018-10-17T10:48:31Z</time>
      </trkpt>
      <trkpt lat="45.81618" lon="6.42952">
        <ele>2070</ele>
        <time>2018-10-17T10:48:32Z</time>
      </trkpt>
      <trkpt lat="45.81618" lon="6.42952">
        <ele>2070</ele>
        <time>2018-10-17T10:48:33Z</time>
      </trkpt>
      <trkpt lat="45.81616" lon="6.42951">
        <ele>2069</ele>
        <time>2018-10-17T10:48:34Z</time>
      </trkpt>
      <trkpt lat="45.81616" lon="6.42951">
        <ele>2069</ele>
        <time>2018-10-17T10:48:35Z</time>
      </trkpt>
      <trkpt lat="45.81613" lon="6.42952">
        <ele>2069</ele>
        <time>2018-10-17T10:48:36Z</time>
      </trkpt>
      <trkpt lat="45.81613" lon="6.42952">
        <ele>2069</ele>
        <time>2018-10-17T10:48:37Z</time>
      </trkpt>
      <trkpt lat="45.81612" lon="6.42953">
        <ele>2069</ele>
        <time>2018-10-17T10:48:38Z</time>
      </trkpt>
      <trkpt lat="45.81612" lon="6.42953">
        <ele>2069</ele>
        <time>2018-10-17T10:48:39Z</time>
      </trkpt>
      <trkpt lat="45.81609" lon="6.42954">
        <ele>2069</ele>
        <time>2018-10-17T10:48:40Z</time>
      </trkpt>
      <trkpt lat="45.81609" lon="6.42954">
        <ele>2069</ele>
        <time>2018-10-17T10:48:41Z</time>
      </trkpt>
      <trkpt lat="45.81606" lon="6.42955">
        <ele>2069</ele>
        <time>2018-10-17T10:48:42Z</time>
      </trkpt>
      <trkpt lat="45.81606" lon="6.42955">
        <ele>2069</ele>
        <time>2018-10-17T10:48:43Z</time>
      </trkpt>
      <trkpt lat="45.81604" lon="6.42955">
        <ele>2069</ele>
        <time>2018-10-17T10:48:44Z</time>
      </trkpt>
      <trkpt lat="45.81604" lon="6.42955">
        <ele>2069</ele>
        <time>2018-10-17T10:48:45Z</time>
      </trkpt>
      <trkpt lat="45.81601" lon="6.42955">
        <ele>2069</ele>
        <time>2018-10-17T10:48:46Z</time>
      </trkpt>
      <trkpt lat="45.81601" lon="6.42955">
        <ele>2069</ele>
        <time>2018-10-17T10:48:47Z</time>
      </trkpt>
      <trkpt lat="45.81599" lon="6.42957">
        <ele>2069</ele>
        <time>2018-10-17T10:48:48Z</time>
      </trkpt>
      <trkpt lat="45.81599" lon="6.42957">
        <ele>2069</ele>
        <time>2018-10-17T10:48:49Z</time>
      </trkpt>
      <trkpt lat="45.81596" lon="6.42958">
        <ele>2069</ele>
        <time>2018-10-17T10:48:50Z</time>
      </trkpt>
      <trkpt lat="45.81596" lon="6.42958">
        <ele>2069</ele>
        <time>2018-10-17T10:48:51Z</time>
      </trkpt>
      <trkpt lat="45.81593" lon="6.42959">
        <ele>2069</ele>
        <time>2018-10-17T10:48:52Z</time>
      </trkpt>
      <trkpt lat="45.81593" lon="6.42959">
        <ele>2069</ele>
        <time>2018-10-17T10:48:53Z</time>
      </trkpt>
      <trkpt lat="45.81591" lon="6.4296">
        <ele>2069</ele>
        <time>2018-10-17T10:48:54Z</time>
      </trkpt>
      <trkpt lat="45.81591" lon="6.4296">
        <ele>2069</ele>
        <time>2018-10-17T10:48:55Z</time>
      </trkpt>
      <trkpt lat="45.81591" lon="6.4296">
        <ele>2069</ele>
        <time>2018-10-17T10:48:56Z</time>
      </trkpt>
      <trkpt lat="45.81589" lon="6.42962">
        <ele>2069</ele>
        <time>2018-10-17T10:48:57Z</time>
      </trkpt>
      <trkpt lat="45.81589" lon="6.42962">
        <ele>2069</ele>
        <time>2018-10-17T10:48:58Z</time>
      </trkpt>
      <trkpt lat="45.81587" lon="6.42963">
        <ele>2069</ele>
        <time>2018-10-17T10:48:59Z</time>
      </trkpt>
      <trkpt lat="45.81587" lon="6.42963">
        <ele>2069</ele>
        <time>2018-10-17T10:49:00Z</time>
      </trkpt>
      <trkpt lat="45.81587" lon="6.42963">
        <ele>2068</ele>
        <time>2018-10-17T10:49:01Z</time>
      </trkpt>
      <trkpt lat="45.81585" lon="6.42965">
        <ele>2068</ele>
        <time>2018-10-17T10:49:02Z</time>
      </trkpt>
      <trkpt lat="45.81585" lon="6.42965">
        <ele>2068</ele>
        <time>2018-10-17T10:49:03Z</time>
      </trkpt>
      <trkpt lat="45.81584" lon="6.42967">
        <ele>2067</ele>
        <time>2018-10-17T10:49:04Z</time>
      </trkpt>
      <trkpt lat="45.81584" lon="6.42967">
        <ele>2066</ele>
        <time>2018-10-17T10:49:05Z</time>
      </trkpt>
      <trkpt lat="45.81581" lon="6.4297">
        <ele>2065</ele>
        <time>2018-10-17T10:49:06Z</time>
      </trkpt>
      <trkpt lat="45.81581" lon="6.4297">
        <ele>2065</ele>
        <time>2018-10-17T10:49:07Z</time>
      </trkpt>
      <trkpt lat="45.81578" lon="6.42973">
        <ele>2064</ele>
        <time>2018-10-17T10:49:08Z</time>
      </trkpt>
      <trkpt lat="45.81578" lon="6.42973">
        <ele>2063</ele>
        <time>2018-10-17T10:49:09Z</time>
      </trkpt>
      <trkpt lat="45.81577" lon="6.42974">
        <ele>2063</ele>
        <time>2018-10-17T10:49:10Z</time>
      </trkpt>
      <trkpt lat="45.81577" lon="6.42974">
        <ele>2063</ele>
        <time>2018-10-17T10:49:11Z</time>
      </trkpt>
      <trkpt lat="45.81577" lon="6.42974">
        <ele>2063</ele>
        <time>2018-10-17T10:49:12Z</time>
      </trkpt>
      <trkpt lat="45.81577" lon="6.42974">
        <ele>2063</ele>
        <time>2018-10-17T10:49:13Z</time>
      </trkpt>
      <trkpt lat="45.81577" lon="6.42974">
        <ele>2063</ele>
        <time>2018-10-17T10:49:14Z</time>
      </trkpt>
      <trkpt lat="45.81577" lon="6.42974">
        <ele>2063</ele>
        <time>2018-10-17T10:49:15Z</time>
      </trkpt>
      <trkpt lat="45.81577" lon="6.42974">
        <ele>2063</ele>
        <time>2018-10-17T10:49:16Z</time>
      </trkpt>
      <trkpt lat="45.81577" lon="6.42974">
        <ele>2063</ele>
        <time>2018-10-17T10:49:17Z</time>
      </trkpt>
      <trkpt lat="45.81577" lon="6.42974">
        <ele>2062</ele>
        <time>2018-10-17T10:49:18Z</time>
      </trkpt>
      <trkpt lat="45.81577" lon="6.42974">
        <ele>2062</ele>
        <time>2018-10-17T10:49:19Z</time>
      </trkpt>
      <trkpt lat="45.81577" lon="6.42974">
        <ele>2062</ele>
        <time>2018-10-17T10:49:20Z</time>
      </trkpt>
      <trkpt lat="45.81578" lon="6.42977">
        <ele>2062</ele>
        <time>2018-10-17T10:49:21Z</time>
      </trkpt>
      <trkpt lat="45.81578" lon="6.42977">
        <ele>2061</ele>
        <time>2018-10-17T10:49:22Z</time>
      </trkpt>
      <trkpt lat="45.81578" lon="6.42977">
        <ele>2060</ele>
        <time>2018-10-17T10:49:23Z</time>
      </trkpt>
      <trkpt lat="45.81578" lon="6.42977">
        <ele>2060</ele>
        <time>2018-10-17T10:49:24Z</time>
      </trkpt>
      <trkpt lat="45.81579" lon="6.42978">
        <ele>2060</ele>
        <time>2018-10-17T10:49:25Z</time>
      </trkpt>
      <trkpt lat="45.81579" lon="6.42978">
        <ele>2060</ele>
        <time>2018-10-17T10:49:26Z</time>
      </trkpt>
      <trkpt lat="45.81579" lon="6.42978">
        <ele>2060</ele>
        <time>2018-10-17T10:49:27Z</time>
      </trkpt>
      <trkpt lat="45.81579" lon="6.42978">
        <ele>2060</ele>
        <time>2018-10-17T10:49:28Z</time>
      </trkpt>
      <trkpt lat="45.81579" lon="6.42978">
        <ele>2060</ele>
        <time>2018-10-17T10:49:29Z</time>
      </trkpt>
      <trkpt lat="45.81579" lon="6.42978">
        <ele>2059</ele>
        <time>2018-10-17T10:49:30Z</time>
      </trkpt>
      <trkpt lat="45.81579" lon="6.42978">
        <ele>2059</ele>
        <time>2018-10-17T10:49:31Z</time>
      </trkpt>
      <trkpt lat="45.81578" lon="6.4298">
        <ele>2059</ele>
        <time>2018-10-17T10:49:32Z</time>
      </trkpt>
      <trkpt lat="45.81578" lon="6.4298">
        <ele>2058</ele>
        <time>2018-10-17T10:49:33Z</time>
      </trkpt>
      <trkpt lat="45.81578" lon="6.4298">
        <ele>2058</ele>
        <time>2018-10-17T10:49:34Z</time>
      </trkpt>
      <trkpt lat="45.81578" lon="6.4298">
        <ele>2058</ele>
        <time>2018-10-17T10:49:35Z</time>
      </trkpt>
      <trkpt lat="45.81578" lon="6.4298">
        <ele>2058</ele>
        <time>2018-10-17T10:49:36Z</time>
      </trkpt>
      <trkpt lat="45.81578" lon="6.4298">
        <ele>2058</ele>
        <time>2018-10-17T10:49:37Z</time>
      </trkpt>
      <trkpt lat="45.81578" lon="6.4298">
        <ele>2057</ele>
        <time>2018-10-17T10:49:38Z</time>
      </trkpt>
      <trkpt lat="45.81578" lon="6.42983">
        <ele>2057</ele>
        <time>2018-10-17T10:49:39Z</time>
      </trkpt>
      <trkpt lat="45.81578" lon="6.42983">
        <ele>2057</ele>
        <time>2018-10-17T10:49:40Z</time>
      </trkpt>
      <trkpt lat="45.81578" lon="6.42983">
        <ele>2057</ele>
        <time>2018-10-17T10:49:41Z</time>
      </trkpt>
      <trkpt lat="45.81576" lon="6.42984">
        <ele>2057</ele>
        <time>2018-10-17T10:49:42Z</time>
      </trkpt>
      <trkpt lat="45.81576" lon="6.42984">
        <ele>2057</ele>
        <time>2018-10-17T10:49:43Z</time>
      </trkpt>
      <trkpt lat="45.81574" lon="6.42984">
        <ele>2056</ele>
        <time>2018-10-17T10:49:44Z</time>
      </trkpt>
      <trkpt lat="45.81574" lon="6.42984">
        <ele>2055</ele>
        <time>2018-10-17T10:49:45Z</time>
      </trkpt>
      <trkpt lat="45.81572" lon="6.42984">
        <ele>2055</ele>
        <time>2018-10-17T10:49:46Z</time>
      </trkpt>
      <trkpt lat="45.81572" lon="6.42984">
        <ele>2055</ele>
        <time>2018-10-17T10:49:47Z</time>
      </trkpt>
      <trkpt lat="45.81569" lon="6.42985">
        <ele>2054</ele>
        <time>2018-10-17T10:49:48Z</time>
      </trkpt>
      <trkpt lat="45.81569" lon="6.42985">
        <ele>2054</ele>
        <time>2018-10-17T10:49:49Z</time>
      </trkpt>
      <trkpt lat="45.81567" lon="6.42986">
        <ele>2054</ele>
        <time>2018-10-17T10:49:50Z</time>
      </trkpt>
      <trkpt lat="45.81567" lon="6.42986">
        <ele>2053</ele>
        <time>2018-10-17T10:49:51Z</time>
      </trkpt>
      <trkpt lat="45.81567" lon="6.42986">
        <ele>2052</ele>
        <time>2018-10-17T10:49:52Z</time>
      </trkpt>
      <trkpt lat="45.81565" lon="6.42984">
        <ele>2052</ele>
        <time>2018-10-17T10:49:53Z</time>
      </trkpt>
      <trkpt lat="45.81565" lon="6.42984">
        <ele>2052</ele>
        <time>2018-10-17T10:49:54Z</time>
      </trkpt>
      <trkpt lat="45.81565" lon="6.42984">
        <ele>2052</ele>
        <time>2018-10-17T10:49:55Z</time>
      </trkpt>
      <trkpt lat="45.81565" lon="6.42984">
        <ele>2053</ele>
        <time>2018-10-17T10:49:56Z</time>
      </trkpt>
      <trkpt lat="45.81565" lon="6.42984">
        <ele>2053</ele>
        <time>2018-10-17T10:49:57Z</time>
      </trkpt>
      <trkpt lat="45.81565" lon="6.42984">
        <ele>2054</ele>
        <time>2018-10-17T10:49:58Z</time>
      </trkpt>
      <trkpt lat="45.81565" lon="6.42984">
        <ele>2054</ele>
        <time>2018-10-17T10:49:59Z</time>
      </trkpt>
      <trkpt lat="45.81563" lon="6.42983">
        <ele>2054</ele>
        <time>2018-10-17T10:50:00Z</time>
      </trkpt>
      <trkpt lat="45.81563" lon="6.42983">
        <ele>2054</ele>
        <time>2018-10-17T10:50:01Z</time>
      </trkpt>
      <trkpt lat="45.81563" lon="6.42983">
        <ele>2054</ele>
        <time>2018-10-17T10:50:02Z</time>
      </trkpt>
      <trkpt lat="45.8156" lon="6.42982">
        <ele>2054</ele>
        <time>2018-10-17T10:50:03Z</time>
      </trkpt>
      <trkpt lat="45.8156" lon="6.42982">
        <ele>2054</ele>
        <time>2018-10-17T10:50:04Z</time>
      </trkpt>
      <trkpt lat="45.8156" lon="6.42982">
        <ele>2055</ele>
        <time>2018-10-17T10:50:05Z</time>
      </trkpt>
      <trkpt lat="45.8156" lon="6.42982">
        <ele>2055</ele>
        <time>2018-10-17T10:50:06Z</time>
      </trkpt>
      <trkpt lat="45.8156" lon="6.42982">
        <ele>2055</ele>
        <time>2018-10-17T10:50:07Z</time>
      </trkpt>
      <trkpt lat="45.8156" lon="6.42982">
        <ele>2055</ele>
        <time>2018-10-17T10:50:08Z</time>
      </trkpt>
      <trkpt lat="45.8156" lon="6.42982">
        <ele>2055</ele>
        <time>2018-10-17T10:50:09Z</time>
      </trkpt>
      <trkpt lat="45.8156" lon="6.42982">
        <ele>2055</ele>
        <time>2018-10-17T10:50:10Z</time>
      </trkpt>
      <trkpt lat="45.8156" lon="6.42982">
        <ele>2055</ele>
        <time>2018-10-17T10:50:11Z</time>
      </trkpt>
      <trkpt lat="45.8156" lon="6.42982">
        <ele>2055</ele>
        <time>2018-10-17T10:50:12Z</time>
      </trkpt>
      <trkpt lat="45.81559" lon="6.42981">
        <ele>2055</ele>
        <time>2018-10-17T10:50:13Z</time>
      </trkpt>
      <trkpt lat="45.81559" lon="6.42981">
        <ele>2055</ele>
        <time>2018-10-17T10:50:14Z</time>
      </trkpt>
      <trkpt lat="45.81559" lon="6.42981">
        <ele>2055</ele>
        <time>2018-10-17T10:50:15Z</time>
      </trkpt>
      <trkpt lat="45.81556" lon="6.42979">
        <ele>2055</ele>
        <time>2018-10-17T10:50:16Z</time>
      </trkpt>
      <trkpt lat="45.81556" lon="6.42979">
        <ele>2055</ele>
        <time>2018-10-17T10:50:17Z</time>
      </trkpt>
      <trkpt lat="45.81556" lon="6.42979">
        <ele>2055</ele>
        <time>2018-10-17T10:50:18Z</time>
      </trkpt>
      <trkpt lat="45.81554" lon="6.4298">
        <ele>2055</ele>
        <time>2018-10-17T10:50:19Z</time>
      </trkpt>
      <trkpt lat="45.81554" lon="6.4298">
        <ele>2055</ele>
        <time>2018-10-17T10:50:20Z</time>
      </trkpt>
      <trkpt lat="45.81551" lon="6.42981">
        <ele>2055</ele>
        <time>2018-10-17T10:50:21Z</time>
      </trkpt>
      <trkpt lat="45.81551" lon="6.42981">
        <ele>2055</ele>
        <time>2018-10-17T10:50:22Z</time>
      </trkpt>
      <trkpt lat="45.81549" lon="6.42981">
        <ele>2055</ele>
        <time>2018-10-17T10:50:23Z</time>
      </trkpt>
      <trkpt lat="45.81549" lon="6.42981">
        <ele>2055</ele>
        <time>2018-10-17T10:50:24Z</time>
      </trkpt>
      <trkpt lat="45.81546" lon="6.42983">
        <ele>2055</ele>
        <time>2018-10-17T10:50:25Z</time>
      </trkpt>
      <trkpt lat="45.81546" lon="6.42983">
        <ele>2055</ele>
        <time>2018-10-17T10:50:26Z</time>
      </trkpt>
      <trkpt lat="45.81544" lon="6.42984">
        <ele>2055</ele>
        <time>2018-10-17T10:50:27Z</time>
      </trkpt>
      <trkpt lat="45.81544" lon="6.42984">
        <ele>2055</ele>
        <time>2018-10-17T10:50:28Z</time>
      </trkpt>
      <trkpt lat="45.81541" lon="6.42985">
        <ele>2055</ele>
        <time>2018-10-17T10:50:29Z</time>
      </trkpt>
      <trkpt lat="45.81541" lon="6.42985">
        <ele>2054</ele>
        <time>2018-10-17T10:50:30Z</time>
      </trkpt>
      <trkpt lat="45.81538" lon="6.42985">
        <ele>2054</ele>
        <time>2018-10-17T10:50:31Z</time>
      </trkpt>
      <trkpt lat="45.81538" lon="6.42985">
        <ele>2054</ele>
        <time>2018-10-17T10:50:32Z</time>
      </trkpt>
      <trkpt lat="45.81535" lon="6.42985">
        <ele>2053</ele>
        <time>2018-10-17T10:50:33Z</time>
      </trkpt>
      <trkpt lat="45.81535" lon="6.42985">
        <ele>2053</ele>
        <time>2018-10-17T10:50:34Z</time>
      </trkpt>
      <trkpt lat="45.81532" lon="6.42985">
        <ele>2053</ele>
        <time>2018-10-17T10:50:35Z</time>
      </trkpt>
      <trkpt lat="45.81532" lon="6.42985">
        <ele>2053</ele>
        <time>2018-10-17T10:50:36Z</time>
      </trkpt>
      <trkpt lat="45.81529" lon="6.42985">
        <ele>2052</ele>
        <time>2018-10-17T10:50:37Z</time>
      </trkpt>
      <trkpt lat="45.81529" lon="6.42985">
        <ele>2051</ele>
        <time>2018-10-17T10:50:38Z</time>
      </trkpt>
      <trkpt lat="45.81526" lon="6.42985">
        <ele>2051</ele>
        <time>2018-10-17T10:50:39Z</time>
      </trkpt>
      <trkpt lat="45.81526" lon="6.42985">
        <ele>2051</ele>
        <time>2018-10-17T10:50:40Z</time>
      </trkpt>
      <trkpt lat="45.81524" lon="6.42985">
        <ele>2051</ele>
        <time>2018-10-17T10:50:41Z</time>
      </trkpt>
      <trkpt lat="45.81524" lon="6.42985">
        <ele>2050</ele>
        <time>2018-10-17T10:50:42Z</time>
      </trkpt>
      <trkpt lat="45.81521" lon="6.42985">
        <ele>2050</ele>
        <time>2018-10-17T10:50:43Z</time>
      </trkpt>
      <trkpt lat="45.81521" lon="6.42985">
        <ele>2050</ele>
        <time>2018-10-17T10:50:44Z</time>
      </trkpt>
      <trkpt lat="45.81518" lon="6.42984">
        <ele>2049</ele>
        <time>2018-10-17T10:50:45Z</time>
      </trkpt>
      <trkpt lat="45.81518" lon="6.42984">
        <ele>2048</ele>
        <time>2018-10-17T10:50:46Z</time>
      </trkpt>
      <trkpt lat="45.81515" lon="6.42984">
        <ele>2048</ele>
        <time>2018-10-17T10:50:47Z</time>
      </trkpt>
      <trkpt lat="45.81515" lon="6.42984">
        <ele>2047</ele>
        <time>2018-10-17T10:50:48Z</time>
      </trkpt>
      <trkpt lat="45.81512" lon="6.42984">
        <ele>2047</ele>
        <time>2018-10-17T10:50:49Z</time>
      </trkpt>
      <trkpt lat="45.81512" lon="6.42984">
        <ele>2047</ele>
        <time>2018-10-17T10:50:50Z</time>
      </trkpt>
      <trkpt lat="45.81509" lon="6.42983">
        <ele>2047</ele>
        <time>2018-10-17T10:50:51Z</time>
      </trkpt>
      <trkpt lat="45.81509" lon="6.42983">
        <ele>2047</ele>
        <time>2018-10-17T10:50:52Z</time>
      </trkpt>
      <trkpt lat="45.81507" lon="6.42982">
        <ele>2046</ele>
        <time>2018-10-17T10:50:53Z</time>
      </trkpt>
      <trkpt lat="45.81507" lon="6.42982">
        <ele>2045</ele>
        <time>2018-10-17T10:50:54Z</time>
      </trkpt>
      <trkpt lat="45.81504" lon="6.42981">
        <ele>2045</ele>
        <time>2018-10-17T10:50:55Z</time>
      </trkpt>
      <trkpt lat="45.81504" lon="6.42981">
        <ele>2044</ele>
        <time>2018-10-17T10:50:56Z</time>
      </trkpt>
      <trkpt lat="45.81502" lon="6.4298">
        <ele>2043</ele>
        <time>2018-10-17T10:50:57Z</time>
      </trkpt>
      <trkpt lat="45.81502" lon="6.4298">
        <ele>2043</ele>
        <time>2018-10-17T10:50:58Z</time>
      </trkpt>
      <trkpt lat="45.815" lon="6.42979">
        <ele>2043</ele>
        <time>2018-10-17T10:50:59Z</time>
      </trkpt>
      <trkpt lat="45.815" lon="6.42979">
        <ele>2043</ele>
        <time>2018-10-17T10:51:00Z</time>
      </trkpt>
      <trkpt lat="45.81497" lon="6.42978">
        <ele>2042</ele>
        <time>2018-10-17T10:51:01Z</time>
      </trkpt>
      <trkpt lat="45.81497" lon="6.42978">
        <ele>2042</ele>
        <time>2018-10-17T10:51:02Z</time>
      </trkpt>
      <trkpt lat="45.81495" lon="6.42977">
        <ele>2041</ele>
        <time>2018-10-17T10:51:03Z</time>
      </trkpt>
      <trkpt lat="45.81495" lon="6.42977">
        <ele>2041</ele>
        <time>2018-10-17T10:51:04Z</time>
      </trkpt>
      <trkpt lat="45.81493" lon="6.42976">
        <ele>2040</ele>
        <time>2018-10-17T10:51:05Z</time>
      </trkpt>
      <trkpt lat="45.81493" lon="6.42976">
        <ele>2039</ele>
        <time>2018-10-17T10:51:06Z</time>
      </trkpt>
      <trkpt lat="45.8149" lon="6.42974">
        <ele>2039</ele>
        <time>2018-10-17T10:51:07Z</time>
      </trkpt>
      <trkpt lat="45.8149" lon="6.42974">
        <ele>2038</ele>
        <time>2018-10-17T10:51:08Z</time>
      </trkpt>
      <trkpt lat="45.81487" lon="6.42973">
        <ele>2038</ele>
        <time>2018-10-17T10:51:09Z</time>
      </trkpt>
      <trkpt lat="45.81487" lon="6.42973">
        <ele>2038</ele>
        <time>2018-10-17T10:51:10Z</time>
      </trkpt>
      <trkpt lat="45.81485" lon="6.42972">
        <ele>2037</ele>
        <time>2018-10-17T10:51:11Z</time>
      </trkpt>
      <trkpt lat="45.81485" lon="6.42972">
        <ele>2036</ele>
        <time>2018-10-17T10:51:12Z</time>
      </trkpt>
      <trkpt lat="45.81482" lon="6.42972">
        <ele>2036</ele>
        <time>2018-10-17T10:51:13Z</time>
      </trkpt>
      <trkpt lat="45.81482" lon="6.42972">
        <ele>2036</ele>
        <time>2018-10-17T10:51:14Z</time>
      </trkpt>
      <trkpt lat="45.81479" lon="6.42972">
        <ele>2036</ele>
        <time>2018-10-17T10:51:15Z</time>
      </trkpt>
      <trkpt lat="45.81479" lon="6.42972">
        <ele>2036</ele>
        <time>2018-10-17T10:51:16Z</time>
      </trkpt>
      <trkpt lat="45.81476" lon="6.42971">
        <ele>2036</ele>
        <time>2018-10-17T10:51:17Z</time>
      </trkpt>
      <trkpt lat="45.81476" lon="6.42971">
        <ele>2035</ele>
        <time>2018-10-17T10:51:18Z</time>
      </trkpt>
      <trkpt lat="45.81473" lon="6.42971">
        <ele>2035</ele>
        <time>2018-10-17T10:51:19Z</time>
      </trkpt>
      <trkpt lat="45.81473" lon="6.42971">
        <ele>2035</ele>
        <time>2018-10-17T10:51:20Z</time>
      </trkpt>
      <trkpt lat="45.8147" lon="6.42969">
        <ele>2034</ele>
        <time>2018-10-17T10:51:21Z</time>
      </trkpt>
      <trkpt lat="45.8147" lon="6.42969">
        <ele>2034</ele>
        <time>2018-10-17T10:51:22Z</time>
      </trkpt>
      <trkpt lat="45.81468" lon="6.42968">
        <ele>2034</ele>
        <time>2018-10-17T10:51:23Z</time>
      </trkpt>
      <trkpt lat="45.81468" lon="6.42968">
        <ele>2034</ele>
        <time>2018-10-17T10:51:24Z</time>
      </trkpt>
      <trkpt lat="45.81465" lon="6.42967">
        <ele>2033</ele>
        <time>2018-10-17T10:51:25Z</time>
      </trkpt>
      <trkpt lat="45.81465" lon="6.42967">
        <ele>2033</ele>
        <time>2018-10-17T10:51:26Z</time>
      </trkpt>
      <trkpt lat="45.81462" lon="6.42966">
        <ele>2032</ele>
        <time>2018-10-17T10:51:27Z</time>
      </trkpt>
      <trkpt lat="45.81462" lon="6.42966">
        <ele>2032</ele>
        <time>2018-10-17T10:51:28Z</time>
      </trkpt>
      <trkpt lat="45.81459" lon="6.42965">
        <ele>2032</ele>
        <time>2018-10-17T10:51:29Z</time>
      </trkpt>
      <trkpt lat="45.81459" lon="6.42965">
        <ele>2032</ele>
        <time>2018-10-17T10:51:30Z</time>
      </trkpt>
      <trkpt lat="45.81456" lon="6.42964">
        <ele>2031</ele>
        <time>2018-10-17T10:51:31Z</time>
      </trkpt>
      <trkpt lat="45.81456" lon="6.42964">
        <ele>2031</ele>
        <time>2018-10-17T10:51:32Z</time>
      </trkpt>
      <trkpt lat="45.81452" lon="6.42962">
        <ele>2031</ele>
        <time>2018-10-17T10:51:33Z</time>
      </trkpt>
      <trkpt lat="45.81451" lon="6.42961">
        <ele>2029</ele>
        <time>2018-10-17T10:51:34Z</time>
      </trkpt>
      <trkpt lat="45.81449" lon="6.4296">
        <ele>2028</ele>
        <time>2018-10-17T10:51:35Z</time>
      </trkpt>
      <trkpt lat="45.81447" lon="6.4296">
        <ele>2027</ele>
        <time>2018-10-17T10:51:36Z</time>
      </trkpt>
      <trkpt lat="45.81444" lon="6.42959">
        <ele>2026</ele>
        <time>2018-10-17T10:51:37Z</time>
      </trkpt>
      <trkpt lat="45.81443" lon="6.42958">
        <ele>2026</ele>
        <time>2018-10-17T10:51:38Z</time>
      </trkpt>
      <trkpt lat="45.81441" lon="6.42958">
        <ele>2025</ele>
        <time>2018-10-17T10:51:39Z</time>
      </trkpt>
      <trkpt lat="45.81438" lon="6.42958">
        <ele>2025</ele>
        <time>2018-10-17T10:51:40Z</time>
      </trkpt>
      <trkpt lat="45.81436" lon="6.42958">
        <ele>2024</ele>
        <time>2018-10-17T10:51:41Z</time>
      </trkpt>
      <trkpt lat="45.81434" lon="6.42957">
        <ele>2023</ele>
        <time>2018-10-17T10:51:42Z</time>
      </trkpt>
      <trkpt lat="45.81432" lon="6.42957">
        <ele>2022</ele>
        <time>2018-10-17T10:51:43Z</time>
      </trkpt>
      <trkpt lat="45.81429" lon="6.42957">
        <ele>2021</ele>
        <time>2018-10-17T10:51:44Z</time>
      </trkpt>
      <trkpt lat="45.81426" lon="6.42956">
        <ele>2020</ele>
        <time>2018-10-17T10:51:45Z</time>
      </trkpt>
      <trkpt lat="45.81423" lon="6.42955">
        <ele>2020</ele>
        <time>2018-10-17T10:51:46Z</time>
      </trkpt>
      <trkpt lat="45.81421" lon="6.42955">
        <ele>2019</ele>
        <time>2018-10-17T10:51:47Z</time>
      </trkpt>
      <trkpt lat="45.81418" lon="6.42955">
        <ele>2019</ele>
        <time>2018-10-17T10:51:48Z</time>
      </trkpt>
      <trkpt lat="45.81415" lon="6.42954">
        <ele>2018</ele>
        <time>2018-10-17T10:51:49Z</time>
      </trkpt>
      <trkpt lat="45.81413" lon="6.42954">
        <ele>2018</ele>
        <time>2018-10-17T10:51:50Z</time>
      </trkpt>
      <trkpt lat="45.8141" lon="6.42954">
        <ele>2018</ele>
        <time>2018-10-17T10:51:51Z</time>
      </trkpt>
      <trkpt lat="45.81408" lon="6.42954">
        <ele>2018</ele>
        <time>2018-10-17T10:51:52Z</time>
      </trkpt>
      <trkpt lat="45.81406" lon="6.42954">
        <ele>2017</ele>
        <time>2018-10-17T10:51:53Z</time>
      </trkpt>
      <trkpt lat="45.81406" lon="6.42954">
        <ele>2016</ele>
        <time>2018-10-17T10:51:54Z</time>
      </trkpt>
      <trkpt lat="45.81402" lon="6.42953">
        <ele>2015</ele>
        <time>2018-10-17T10:51:55Z</time>
      </trkpt>
      <trkpt lat="45.814" lon="6.42953">
        <ele>2015</ele>
        <time>2018-10-17T10:51:56Z</time>
      </trkpt>
      <trkpt lat="45.81398" lon="6.42953">
        <ele>2015</ele>
        <time>2018-10-17T10:51:57Z</time>
      </trkpt>
      <trkpt lat="45.81395" lon="6.42953">
        <ele>2015</ele>
        <time>2018-10-17T10:51:58Z</time>
      </trkpt>
      <trkpt lat="45.81393" lon="6.42954">
        <ele>2015</ele>
        <time>2018-10-17T10:51:59Z</time>
      </trkpt>
      <trkpt lat="45.81391" lon="6.42953">
        <ele>2014</ele>
        <time>2018-10-17T10:52:00Z</time>
      </trkpt>
      <trkpt lat="45.81388" lon="6.42953">
        <ele>2014</ele>
        <time>2018-10-17T10:52:01Z</time>
      </trkpt>
      <trkpt lat="45.81386" lon="6.42953">
        <ele>2014</ele>
        <time>2018-10-17T10:52:02Z</time>
      </trkpt>
      <trkpt lat="45.81384" lon="6.42953">
        <ele>2014</ele>
        <time>2018-10-17T10:52:03Z</time>
      </trkpt>
      <trkpt lat="45.81382" lon="6.42952">
        <ele>2013</ele>
        <time>2018-10-17T10:52:04Z</time>
      </trkpt>
      <trkpt lat="45.8138" lon="6.42952">
        <ele>2013</ele>
        <time>2018-10-17T10:52:05Z</time>
      </trkpt>
      <trkpt lat="45.81378" lon="6.42952">
        <ele>2012</ele>
        <time>2018-10-17T10:52:06Z</time>
      </trkpt>
      <trkpt lat="45.81376" lon="6.42952">
        <ele>2012</ele>
        <time>2018-10-17T10:52:07Z</time>
      </trkpt>
      <trkpt lat="45.81376" lon="6.42952">
        <ele>2012</ele>
        <time>2018-10-17T10:52:08Z</time>
      </trkpt>
      <trkpt lat="45.81373" lon="6.42951">
        <ele>2011</ele>
        <time>2018-10-17T10:52:09Z</time>
      </trkpt>
      <trkpt lat="45.81373" lon="6.42951">
        <ele>2011</ele>
        <time>2018-10-17T10:52:10Z</time>
      </trkpt>
      <trkpt lat="45.8137" lon="6.4295">
        <ele>2011</ele>
        <time>2018-10-17T10:52:11Z</time>
      </trkpt>
      <trkpt lat="45.8137" lon="6.4295">
        <ele>2011</ele>
        <time>2018-10-17T10:52:12Z</time>
      </trkpt>
      <trkpt lat="45.81368" lon="6.4295">
        <ele>2011</ele>
        <time>2018-10-17T10:52:13Z</time>
      </trkpt>
      <trkpt lat="45.81368" lon="6.4295">
        <ele>2012</ele>
        <time>2018-10-17T10:52:14Z</time>
      </trkpt>
      <trkpt lat="45.81366" lon="6.42949">
        <ele>2012</ele>
        <time>2018-10-17T10:52:15Z</time>
      </trkpt>
      <trkpt lat="45.81366" lon="6.42949">
        <ele>2012</ele>
        <time>2018-10-17T10:52:16Z</time>
      </trkpt>
      <trkpt lat="45.81363" lon="6.42948">
        <ele>2012</ele>
        <time>2018-10-17T10:52:17Z</time>
      </trkpt>
      <trkpt lat="45.81363" lon="6.42948">
        <ele>2012</ele>
        <time>2018-10-17T10:52:18Z</time>
      </trkpt>
      <trkpt lat="45.81361" lon="6.42947">
        <ele>2012</ele>
        <time>2018-10-17T10:52:19Z</time>
      </trkpt>
      <trkpt lat="45.81361" lon="6.42947">
        <ele>2012</ele>
        <time>2018-10-17T10:52:20Z</time>
      </trkpt>
      <trkpt lat="45.81359" lon="6.42947">
        <ele>2012</ele>
        <time>2018-10-17T10:52:21Z</time>
      </trkpt>
      <trkpt lat="45.81359" lon="6.42947">
        <ele>2012</ele>
        <time>2018-10-17T10:52:22Z</time>
      </trkpt>
      <trkpt lat="45.81357" lon="6.42947">
        <ele>2013</ele>
        <time>2018-10-17T10:52:23Z</time>
      </trkpt>
      <trkpt lat="45.81357" lon="6.42947">
        <ele>2013</ele>
        <time>2018-10-17T10:52:24Z</time>
      </trkpt>
      <trkpt lat="45.81355" lon="6.42946">
        <ele>2013</ele>
        <time>2018-10-17T10:52:25Z</time>
      </trkpt>
      <trkpt lat="45.81355" lon="6.42946">
        <ele>2013</ele>
        <time>2018-10-17T10:52:26Z</time>
      </trkpt>
      <trkpt lat="45.81352" lon="6.42945">
        <ele>2013</ele>
        <time>2018-10-17T10:52:27Z</time>
      </trkpt>
      <trkpt lat="45.81352" lon="6.42945">
        <ele>2013</ele>
        <time>2018-10-17T10:52:28Z</time>
      </trkpt>
      <trkpt lat="45.81351" lon="6.42943">
        <ele>2013</ele>
        <time>2018-10-17T10:52:29Z</time>
      </trkpt>
      <trkpt lat="45.81351" lon="6.42943">
        <ele>2013</ele>
        <time>2018-10-17T10:52:30Z</time>
      </trkpt>
      <trkpt lat="45.81348" lon="6.42941">
        <ele>2013</ele>
        <time>2018-10-17T10:52:31Z</time>
      </trkpt>
      <trkpt lat="45.81348" lon="6.42941">
        <ele>2013</ele>
        <time>2018-10-17T10:52:32Z</time>
      </trkpt>
      <trkpt lat="45.81346" lon="6.42938">
        <ele>2013</ele>
        <time>2018-10-17T10:52:33Z</time>
      </trkpt>
      <trkpt lat="45.81346" lon="6.42938">
        <ele>2013</ele>
        <time>2018-10-17T10:52:34Z</time>
      </trkpt>
      <trkpt lat="45.81344" lon="6.42936">
        <ele>2013</ele>
        <time>2018-10-17T10:52:35Z</time>
      </trkpt>
      <trkpt lat="45.81344" lon="6.42936">
        <ele>2012</ele>
        <time>2018-10-17T10:52:36Z</time>
      </trkpt>
      <trkpt lat="45.81342" lon="6.42934">
        <ele>2012</ele>
        <time>2018-10-17T10:52:37Z</time>
      </trkpt>
      <trkpt lat="45.81342" lon="6.42934">
        <ele>2012</ele>
        <time>2018-10-17T10:52:38Z</time>
      </trkpt>
      <trkpt lat="45.8134" lon="6.42932">
        <ele>2012</ele>
        <time>2018-10-17T10:52:39Z</time>
      </trkpt>
      <trkpt lat="45.8134" lon="6.42932">
        <ele>2012</ele>
        <time>2018-10-17T10:52:40Z</time>
      </trkpt>
      <trkpt lat="45.81338" lon="6.4293">
        <ele>2012</ele>
        <time>2018-10-17T10:52:41Z</time>
      </trkpt>
      <trkpt lat="45.81338" lon="6.4293">
        <ele>2012</ele>
        <time>2018-10-17T10:52:42Z</time>
      </trkpt>
      <trkpt lat="45.81338" lon="6.4293">
        <ele>2012</ele>
        <time>2018-10-17T10:52:43Z</time>
      </trkpt>
      <trkpt lat="45.81338" lon="6.4293">
        <ele>2012</ele>
        <time>2018-10-17T10:52:44Z</time>
      </trkpt>
      <trkpt lat="45.81338" lon="6.4293">
        <ele>2012</ele>
        <time>2018-10-17T10:52:45Z</time>
      </trkpt>
      <trkpt lat="45.81338" lon="6.4293">
        <ele>2012</ele>
        <time>2018-10-17T10:52:46Z</time>
      </trkpt>
      <trkpt lat="45.81338" lon="6.4293">
        <ele>2012</ele>
        <time>2018-10-17T10:52:47Z</time>
      </trkpt>
      <trkpt lat="45.81338" lon="6.4293">
        <ele>2012</ele>
        <time>2018-10-17T10:52:48Z</time>
      </trkpt>
      <trkpt lat="45.81338" lon="6.4293">
        <ele>2012</ele>
        <time>2018-10-17T10:52:49Z</time>
      </trkpt>
      <trkpt lat="45.81338" lon="6.4293">
        <ele>2012</ele>
        <time>2018-10-17T10:52:50Z</time>
      </trkpt>
      <trkpt lat="45.81338" lon="6.4293">
        <ele>2012</ele>
        <time>2018-10-17T10:52:51Z</time>
      </trkpt>
      <trkpt lat="45.81338" lon="6.4293">
        <ele>2012</ele>
        <time>2018-10-17T10:52:52Z</time>
      </trkpt>
      <trkpt lat="45.81338" lon="6.4293">
        <ele>2012</ele>
        <time>2018-10-17T10:52:53Z</time>
      </trkpt>
      <trkpt lat="45.81338" lon="6.4293">
        <ele>2012</ele>
        <time>2018-10-17T10:52:54Z</time>
      </trkpt>
      <trkpt lat="45.81338" lon="6.4293">
        <ele>2012</ele>
        <time>2018-10-17T10:52:55Z</time>
      </trkpt>
      <trkpt lat="45.81338" lon="6.4293">
        <ele>2012</ele>
        <time>2018-10-17T10:52:56Z</time>
      </trkpt>
      <trkpt lat="45.81338" lon="6.4293">
        <ele>2012</ele>
        <time>2018-10-17T10:52:57Z</time>
      </trkpt>
      <trkpt lat="45.81338" lon="6.4293">
        <ele>2012</ele>
        <time>2018-10-17T10:52:58Z</time>
      </trkpt>
      <trkpt lat="45.81338" lon="6.4293">
        <ele>2012</ele>
        <time>2018-10-17T10:52:59Z</time>
      </trkpt>
      <trkpt lat="45.81338" lon="6.4293">
        <ele>2012</ele>
        <time>2018-10-17T10:53:00Z</time>
      </trkpt>
      <trkpt lat="45.81338" lon="6.4293">
        <ele>2012</ele>
        <time>2018-10-17T10:53:01Z</time>
      </trkpt>
      <trkpt lat="45.81338" lon="6.4293">
        <ele>2012</ele>
        <time>2018-10-17T10:53:02Z</time>
      </trkpt>
      <trkpt lat="45.81338" lon="6.4293">
        <ele>2012</ele>
        <time>2018-10-17T10:53:03Z</time>
      </trkpt>
      <trkpt lat="45.81338" lon="6.4293">
        <ele>2012</ele>
        <time>2018-10-17T10:53:04Z</time>
      </trkpt>
      <trkpt lat="45.81338" lon="6.4293">
        <ele>2012</ele>
        <time>2018-10-17T10:53:05Z</time>
      </trkpt>
      <trkpt lat="45.81338" lon="6.4293">
        <ele>2012</ele>
        <time>2018-10-17T10:53:06Z</time>
      </trkpt>
      <trkpt lat="45.81338" lon="6.4293">
        <ele>2012</ele>
        <time>2018-10-17T10:53:07Z</time>
      </trkpt>
      <trkpt lat="45.81339" lon="6.42927">
        <ele>2012</ele>
        <time>2018-10-17T10:53:08Z</time>
      </trkpt>
      <trkpt lat="45.81339" lon="6.42927">
        <ele>2012</ele>
        <time>2018-10-17T10:53:09Z</time>
      </trkpt>
      <trkpt lat="45.81339" lon="6.42927">
        <ele>2012</ele>
        <time>2018-10-17T10:53:10Z</time>
      </trkpt>
      <trkpt lat="45.81341" lon="6.42925">
        <ele>2012</ele>
        <time>2018-10-17T10:53:11Z</time>
      </trkpt>
      <trkpt lat="45.81341" lon="6.42925">
        <ele>2011</ele>
        <time>2018-10-17T10:53:12Z</time>
      </trkpt>
      <trkpt lat="45.81341" lon="6.42925">
        <ele>2011</ele>
        <time>2018-10-17T10:53:13Z</time>
      </trkpt>
      <trkpt lat="45.81344" lon="6.42923">
        <ele>2011</ele>
        <time>2018-10-17T10:53:14Z</time>
      </trkpt>
      <trkpt lat="45.81344" lon="6.42923">
        <ele>2010</ele>
        <time>2018-10-17T10:53:15Z</time>
      </trkpt>
      <trkpt lat="45.81344" lon="6.42923">
        <ele>2010</ele>
        <time>2018-10-17T10:53:16Z</time>
      </trkpt>
      <trkpt lat="45.81344" lon="6.42923">
        <ele>2010</ele>
        <time>2018-10-17T10:53:17Z</time>
      </trkpt>
      <trkpt lat="45.81344" lon="6.42923">
        <ele>2009</ele>
        <time>2018-10-17T10:53:18Z</time>
      </trkpt>
      <trkpt lat="45.81343" lon="6.4292">
        <ele>2009</ele>
        <time>2018-10-17T10:53:19Z</time>
      </trkpt>
      <trkpt lat="45.81343" lon="6.4292">
        <ele>2009</ele>
        <time>2018-10-17T10:53:20Z</time>
      </trkpt>
      <trkpt lat="45.81343" lon="6.4292">
        <ele>2008</ele>
        <time>2018-10-17T10:53:21Z</time>
      </trkpt>
      <trkpt lat="45.81343" lon="6.4292">
        <ele>2007</ele>
        <time>2018-10-17T10:53:22Z</time>
      </trkpt>
      <trkpt lat="45.81343" lon="6.42918">
        <ele>2007</ele>
        <time>2018-10-17T10:53:23Z</time>
      </trkpt>
      <trkpt lat="45.81343" lon="6.42918">
        <ele>2007</ele>
        <time>2018-10-17T10:53:24Z</time>
      </trkpt>
      <trkpt lat="45.81343" lon="6.42918">
        <ele>2007</ele>
        <time>2018-10-17T10:53:25Z</time>
      </trkpt>
      <trkpt lat="45.81343" lon="6.42918">
        <ele>2007</ele>
        <time>2018-10-17T10:53:26Z</time>
      </trkpt>
      <trkpt lat="45.81343" lon="6.42918">
        <ele>2006</ele>
        <time>2018-10-17T10:53:27Z</time>
      </trkpt>
      <trkpt lat="45.81343" lon="6.42918">
        <ele>2006</ele>
        <time>2018-10-17T10:53:28Z</time>
      </trkpt>
      <trkpt lat="45.81343" lon="6.42918">
        <ele>2006</ele>
        <time>2018-10-17T10:53:29Z</time>
      </trkpt>
      <trkpt lat="45.8134" lon="6.42917">
        <ele>2006</ele>
        <time>2018-10-17T10:53:30Z</time>
      </trkpt>
      <trkpt lat="45.8134" lon="6.42917">
        <ele>2006</ele>
        <time>2018-10-17T10:53:31Z</time>
      </trkpt>
      <trkpt lat="45.81338" lon="6.42915">
        <ele>2005</ele>
        <time>2018-10-17T10:53:32Z</time>
      </trkpt>
      <trkpt lat="45.81338" lon="6.42915">
        <ele>2005</ele>
        <time>2018-10-17T10:53:33Z</time>
      </trkpt>
      <trkpt lat="45.81338" lon="6.42915">
        <ele>2005</ele>
        <time>2018-10-17T10:53:34Z</time>
      </trkpt>
      <trkpt lat="45.81339" lon="6.42913">
        <ele>2005</ele>
        <time>2018-10-17T10:53:35Z</time>
      </trkpt>
      <trkpt lat="45.81339" lon="6.42913">
        <ele>2004</ele>
        <time>2018-10-17T10:53:36Z</time>
      </trkpt>
      <trkpt lat="45.81339" lon="6.42913">
        <ele>2004</ele>
        <time>2018-10-17T10:53:37Z</time>
      </trkpt>
      <trkpt lat="45.81339" lon="6.42913">
        <ele>2003</ele>
        <time>2018-10-17T10:53:38Z</time>
      </trkpt>
      <trkpt lat="45.81339" lon="6.42913">
        <ele>2003</ele>
        <time>2018-10-17T10:53:39Z</time>
      </trkpt>
      <trkpt lat="45.8134" lon="6.4291">
        <ele>2003</ele>
        <time>2018-10-17T10:53:40Z</time>
      </trkpt>
      <trkpt lat="45.8134" lon="6.4291">
        <ele>2002</ele>
        <time>2018-10-17T10:53:41Z</time>
      </trkpt>
      <trkpt lat="45.8134" lon="6.4291">
        <ele>2002</ele>
        <time>2018-10-17T10:53:42Z</time>
      </trkpt>
      <trkpt lat="45.8134" lon="6.4291">
        <ele>2002</ele>
        <time>2018-10-17T10:53:43Z</time>
      </trkpt>
      <trkpt lat="45.81341" lon="6.42908">
        <ele>2001</ele>
        <time>2018-10-17T10:53:44Z</time>
      </trkpt>
      <trkpt lat="45.81341" lon="6.42908">
        <ele>2001</ele>
        <time>2018-10-17T10:53:45Z</time>
      </trkpt>
      <trkpt lat="45.81341" lon="6.42908">
        <ele>2001</ele>
        <time>2018-10-17T10:53:46Z</time>
      </trkpt>
      <trkpt lat="45.81341" lon="6.42908">
        <ele>2000</ele>
        <time>2018-10-17T10:53:47Z</time>
      </trkpt>
      <trkpt lat="45.81343" lon="6.42906">
        <ele>1999</ele>
        <time>2018-10-17T10:53:48Z</time>
      </trkpt>
      <trkpt lat="45.81343" lon="6.42906">
        <ele>1999</ele>
        <time>2018-10-17T10:53:49Z</time>
      </trkpt>
      <trkpt lat="45.81343" lon="6.42906">
        <ele>1999</ele>
        <time>2018-10-17T10:53:50Z</time>
      </trkpt>
      <trkpt lat="45.81343" lon="6.42906">
        <ele>1999</ele>
        <time>2018-10-17T10:53:51Z</time>
      </trkpt>
      <trkpt lat="45.81343" lon="6.42906">
        <ele>1998</ele>
        <time>2018-10-17T10:53:52Z</time>
      </trkpt>
      <trkpt lat="45.81343" lon="6.42906">
        <ele>1998</ele>
        <time>2018-10-17T10:53:53Z</time>
      </trkpt>
      <trkpt lat="45.81343" lon="6.42906">
        <ele>1998</ele>
        <time>2018-10-17T10:53:54Z</time>
      </trkpt>
      <trkpt lat="45.81344" lon="6.42904">
        <ele>1998</ele>
        <time>2018-10-17T10:53:55Z</time>
      </trkpt>
      <trkpt lat="45.81344" lon="6.42904">
        <ele>1998</ele>
        <time>2018-10-17T10:53:56Z</time>
      </trkpt>
      <trkpt lat="45.81344" lon="6.42904">
        <ele>1998</ele>
        <time>2018-10-17T10:53:57Z</time>
      </trkpt>
      <trkpt lat="45.81344" lon="6.42904">
        <ele>1998</ele>
        <time>2018-10-17T10:53:58Z</time>
      </trkpt>
      <trkpt lat="45.81344" lon="6.42904">
        <ele>1997</ele>
        <time>2018-10-17T10:53:59Z</time>
      </trkpt>
      <trkpt lat="45.81344" lon="6.42904">
        <ele>1998</ele>
        <time>2018-10-17T10:54:00Z</time>
      </trkpt>
      <trkpt lat="45.81344" lon="6.42904">
        <ele>1998</ele>
        <time>2018-10-17T10:54:01Z</time>
      </trkpt>
      <trkpt lat="45.81344" lon="6.42904">
        <ele>1998</ele>
        <time>2018-10-17T10:54:02Z</time>
      </trkpt>
      <trkpt lat="45.81344" lon="6.42904">
        <ele>1998</ele>
        <time>2018-10-17T10:54:03Z</time>
      </trkpt>
      <trkpt lat="45.81344" lon="6.42904">
        <ele>1998</ele>
        <time>2018-10-17T10:54:04Z</time>
      </trkpt>
      <trkpt lat="45.81344" lon="6.42904">
        <ele>1998</ele>
        <time>2018-10-17T10:54:05Z</time>
      </trkpt>
      <trkpt lat="45.81344" lon="6.42904">
        <ele>1998</ele>
        <time>2018-10-17T10:54:06Z</time>
      </trkpt>
      <trkpt lat="45.81344" lon="6.42904">
        <ele>1998</ele>
        <time>2018-10-17T10:54:07Z</time>
      </trkpt>
      <trkpt lat="45.81344" lon="6.42904">
        <ele>1998</ele>
        <time>2018-10-17T10:54:08Z</time>
      </trkpt>
      <trkpt lat="45.81344" lon="6.42904">
        <ele>1998</ele>
        <time>2018-10-17T10:54:09Z</time>
      </trkpt>
      <trkpt lat="45.81342" lon="6.42905">
        <ele>1998</ele>
        <time>2018-10-17T10:54:10Z</time>
      </trkpt>
      <trkpt lat="45.81342" lon="6.42905">
        <ele>1998</ele>
        <time>2018-10-17T10:54:11Z</time>
      </trkpt>
      <trkpt lat="45.81342" lon="6.42905">
        <ele>1998</ele>
        <time>2018-10-17T10:54:12Z</time>
      </trkpt>
      <trkpt lat="45.8134" lon="6.42905">
        <ele>1998</ele>
        <time>2018-10-17T10:54:13Z</time>
      </trkpt>
      <trkpt lat="45.8134" lon="6.42905">
        <ele>1998</ele>
        <time>2018-10-17T10:54:14Z</time>
      </trkpt>
      <trkpt lat="45.8134" lon="6.42905">
        <ele>1998</ele>
        <time>2018-10-17T10:54:15Z</time>
      </trkpt>
      <trkpt lat="45.81337" lon="6.42905">
        <ele>1998</ele>
        <time>2018-10-17T10:54:16Z</time>
      </trkpt>
      <trkpt lat="45.81337" lon="6.42905">
        <ele>1998</ele>
        <time>2018-10-17T10:54:17Z</time>
      </trkpt>
      <trkpt lat="45.81337" lon="6.42905">
        <ele>1998</ele>
        <time>2018-10-17T10:54:18Z</time>
      </trkpt>
      <trkpt lat="45.81337" lon="6.42905">
        <ele>1997</ele>
        <time>2018-10-17T10:54:19Z</time>
      </trkpt>
      <trkpt lat="45.81337" lon="6.42905">
        <ele>1997</ele>
        <time>2018-10-17T10:54:20Z</time>
      </trkpt>
      <trkpt lat="45.81335" lon="6.42905">
        <ele>1997</ele>
        <time>2018-10-17T10:54:21Z</time>
      </trkpt>
      <trkpt lat="45.81335" lon="6.42905">
        <ele>1997</ele>
        <time>2018-10-17T10:54:22Z</time>
      </trkpt>
      <trkpt lat="45.81335" lon="6.42905">
        <ele>1997</ele>
        <time>2018-10-17T10:54:23Z</time>
      </trkpt>
      <trkpt lat="45.81335" lon="6.42905">
        <ele>1996</ele>
        <time>2018-10-17T10:54:24Z</time>
      </trkpt>
      <trkpt lat="45.81335" lon="6.42905">
        <ele>1996</ele>
        <time>2018-10-17T10:54:25Z</time>
      </trkpt>
      <trkpt lat="45.81335" lon="6.42905">
        <ele>1996</ele>
        <time>2018-10-17T10:54:26Z</time>
      </trkpt>
      <trkpt lat="45.81334" lon="6.42903">
        <ele>1996</ele>
        <time>2018-10-17T10:54:27Z</time>
      </trkpt>
      <trkpt lat="45.81334" lon="6.42903">
        <ele>1995</ele>
        <time>2018-10-17T10:54:28Z</time>
      </trkpt>
      <trkpt lat="45.81334" lon="6.42903">
        <ele>1995</ele>
        <time>2018-10-17T10:54:29Z</time>
      </trkpt>
      <trkpt lat="45.81332" lon="6.42902">
        <ele>1995</ele>
        <time>2018-10-17T10:54:30Z</time>
      </trkpt>
      <trkpt lat="45.81332" lon="6.42902">
        <ele>1995</ele>
        <time>2018-10-17T10:54:31Z</time>
      </trkpt>
      <trkpt lat="45.81332" lon="6.42902">
        <ele>1995</ele>
        <time>2018-10-17T10:54:32Z</time>
      </trkpt>
      <trkpt lat="45.81332" lon="6.42902">
        <ele>1994</ele>
        <time>2018-10-17T10:54:33Z</time>
      </trkpt>
      <trkpt lat="45.81332" lon="6.42902">
        <ele>1994</ele>
        <time>2018-10-17T10:54:34Z</time>
      </trkpt>
      <trkpt lat="45.81332" lon="6.42902">
        <ele>1994</ele>
        <time>2018-10-17T10:54:35Z</time>
      </trkpt>
      <trkpt lat="45.81332" lon="6.42902">
        <ele>1994</ele>
        <time>2018-10-17T10:54:36Z</time>
      </trkpt>
      <trkpt lat="45.8133" lon="6.429">
        <ele>1994</ele>
        <time>2018-10-17T10:54:37Z</time>
      </trkpt>
      <trkpt lat="45.8133" lon="6.429">
        <ele>1994</ele>
        <time>2018-10-17T10:54:38Z</time>
      </trkpt>
      <trkpt lat="45.8133" lon="6.429">
        <ele>1994</ele>
        <time>2018-10-17T10:54:39Z</time>
      </trkpt>
      <trkpt lat="45.8133" lon="6.429">
        <ele>1994</ele>
        <time>2018-10-17T10:54:40Z</time>
      </trkpt>
      <trkpt lat="45.8133" lon="6.429">
        <ele>1994</ele>
        <time>2018-10-17T10:54:41Z</time>
      </trkpt>
      <trkpt lat="45.8133" lon="6.429">
        <ele>1994</ele>
        <time>2018-10-17T10:54:42Z</time>
      </trkpt>
      <trkpt lat="45.8133" lon="6.429">
        <ele>1994</ele>
        <time>2018-10-17T10:54:43Z</time>
      </trkpt>
      <trkpt lat="45.8133" lon="6.429">
        <ele>1994</ele>
        <time>2018-10-17T10:54:44Z</time>
      </trkpt>
      <trkpt lat="45.8133" lon="6.429">
        <ele>1994</ele>
        <time>2018-10-17T10:54:45Z</time>
      </trkpt>
      <trkpt lat="45.8133" lon="6.429">
        <ele>1994</ele>
        <time>2018-10-17T10:54:46Z</time>
      </trkpt>
      <trkpt lat="45.8133" lon="6.429">
        <ele>1994</ele>
        <time>2018-10-17T10:54:47Z</time>
      </trkpt>
      <trkpt lat="45.8133" lon="6.429">
        <ele>1994</ele>
        <time>2018-10-17T10:54:48Z</time>
      </trkpt>
      <trkpt lat="45.8133" lon="6.429">
        <ele>1994</ele>
        <time>2018-10-17T10:54:49Z</time>
      </trkpt>
      <trkpt lat="45.8133" lon="6.429">
        <ele>1994</ele>
        <time>2018-10-17T10:54:50Z</time>
      </trkpt>
      <trkpt lat="45.8133" lon="6.429">
        <ele>1994</ele>
        <time>2018-10-17T10:54:51Z</time>
      </trkpt>
      <trkpt lat="45.8133" lon="6.429">
        <ele>1994</ele>
        <time>2018-10-17T10:54:52Z</time>
      </trkpt>
      <trkpt lat="45.8133" lon="6.429">
        <ele>1994</ele>
        <time>2018-10-17T10:54:53Z</time>
      </trkpt>
      <trkpt lat="45.8133" lon="6.429">
        <ele>1993</ele>
        <time>2018-10-17T10:54:54Z</time>
      </trkpt>
      <trkpt lat="45.8133" lon="6.429">
        <ele>1993</ele>
        <time>2018-10-17T10:54:55Z</time>
      </trkpt>
      <trkpt lat="45.8133" lon="6.429">
        <ele>1993</ele>
        <time>2018-10-17T10:54:56Z</time>
      </trkpt>
      <trkpt lat="45.8133" lon="6.429">
        <ele>1993</ele>
        <time>2018-10-17T10:54:57Z</time>
      </trkpt>
      <trkpt lat="45.8133" lon="6.429">
        <ele>1993</ele>
        <time>2018-10-17T10:54:58Z</time>
      </trkpt>
      <trkpt lat="45.8133" lon="6.429">
        <ele>1993</ele>
        <time>2018-10-17T10:54:59Z</time>
      </trkpt>
      <trkpt lat="45.8133" lon="6.429">
        <ele>1993</ele>
        <time>2018-10-17T10:55:00Z</time>
      </trkpt>
      <trkpt lat="45.8133" lon="6.429">
        <ele>1993</ele>
        <time>2018-10-17T10:55:01Z</time>
      </trkpt>
      <trkpt lat="45.8133" lon="6.429">
        <ele>1993</ele>
        <time>2018-10-17T10:55:02Z</time>
      </trkpt>
      <trkpt lat="45.8133" lon="6.429">
        <ele>1993</ele>
        <time>2018-10-17T10:55:03Z</time>
      </trkpt>
      <trkpt lat="45.8133" lon="6.429">
        <ele>1993</ele>
        <time>2018-10-17T10:55:04Z</time>
      </trkpt>
      <trkpt lat="45.8133" lon="6.429">
        <ele>1994</ele>
        <time>2018-10-17T10:55:05Z</time>
      </trkpt>
      <trkpt lat="45.8133" lon="6.429">
        <ele>1994</ele>
        <time>2018-10-17T10:55:06Z</time>
      </trkpt>
      <trkpt lat="45.8133" lon="6.42897">
        <ele>1994</ele>
        <time>2018-10-17T10:55:07Z</time>
      </trkpt>
      <trkpt lat="45.8133" lon="6.42897">
        <ele>1994</ele>
        <time>2018-10-17T10:55:08Z</time>
      </trkpt>
      <trkpt lat="45.8133" lon="6.42897">
        <ele>1994</ele>
        <time>2018-10-17T10:55:09Z</time>
      </trkpt>
      <trkpt lat="45.8133" lon="6.42897">
        <ele>1994</ele>
        <time>2018-10-17T10:55:10Z</time>
      </trkpt>
      <trkpt lat="45.8133" lon="6.42897">
        <ele>1994</ele>
        <time>2018-10-17T10:55:11Z</time>
      </trkpt>
      <trkpt lat="45.8133" lon="6.42897">
        <ele>1994</ele>
        <time>2018-10-17T10:55:12Z</time>
      </trkpt>
      <trkpt lat="45.8133" lon="6.42897">
        <ele>1993</ele>
        <time>2018-10-17T10:55:13Z</time>
      </trkpt>
      <trkpt lat="45.81331" lon="6.42893">
        <ele>1993</ele>
        <time>2018-10-17T10:55:14Z</time>
      </trkpt>
      <trkpt lat="45.81331" lon="6.42893">
        <ele>1993</ele>
        <time>2018-10-17T10:55:15Z</time>
      </trkpt>
      <trkpt lat="45.81331" lon="6.42893">
        <ele>1992</ele>
        <time>2018-10-17T10:55:16Z</time>
      </trkpt>
      <trkpt lat="45.81331" lon="6.42893">
        <ele>1992</ele>
        <time>2018-10-17T10:55:17Z</time>
      </trkpt>
      <trkpt lat="45.81331" lon="6.42893">
        <ele>1992</ele>
        <time>2018-10-17T10:55:18Z</time>
      </trkpt>
      <trkpt lat="45.81331" lon="6.42893">
        <ele>1992</ele>
        <time>2018-10-17T10:55:19Z</time>
      </trkpt>
      <trkpt lat="45.81331" lon="6.42891">
        <ele>1990</ele>
        <time>2018-10-17T10:55:20Z</time>
      </trkpt>
      <trkpt lat="45.81331" lon="6.42891">
        <ele>1990</ele>
        <time>2018-10-17T10:55:21Z</time>
      </trkpt>
      <trkpt lat="45.81331" lon="6.42891">
        <ele>1990</ele>
        <time>2018-10-17T10:55:22Z</time>
      </trkpt>
      <trkpt lat="45.81331" lon="6.42891">
        <ele>1990</ele>
        <time>2018-10-17T10:55:23Z</time>
      </trkpt>
      <trkpt lat="45.81331" lon="6.42891">
        <ele>1990</ele>
        <time>2018-10-17T10:55:24Z</time>
      </trkpt>
      <trkpt lat="45.81331" lon="6.42891">
        <ele>1990</ele>
        <time>2018-10-17T10:55:25Z</time>
      </trkpt>
      <trkpt lat="45.81331" lon="6.42891">
        <ele>1990</ele>
        <time>2018-10-17T10:55:26Z</time>
      </trkpt>
      <trkpt lat="45.81331" lon="6.42891">
        <ele>1990</ele>
        <time>2018-10-17T10:55:27Z</time>
      </trkpt>
      <trkpt lat="45.81331" lon="6.42891">
        <ele>1990</ele>
        <time>2018-10-17T10:55:28Z</time>
      </trkpt>
      <trkpt lat="45.81331" lon="6.42891">
        <ele>1989</ele>
        <time>2018-10-17T10:55:29Z</time>
      </trkpt>
      <trkpt lat="45.81331" lon="6.42891">
        <ele>1989</ele>
        <time>2018-10-17T10:55:30Z</time>
      </trkpt>
      <trkpt lat="45.81331" lon="6.42891">
        <ele>1989</ele>
        <time>2018-10-17T10:55:31Z</time>
      </trkpt>
      <trkpt lat="45.81331" lon="6.42891">
        <ele>1989</ele>
        <time>2018-10-17T10:55:32Z</time>
      </trkpt>
      <trkpt lat="45.81331" lon="6.42891">
        <ele>1989</ele>
        <time>2018-10-17T10:55:33Z</time>
      </trkpt>
      <trkpt lat="45.81331" lon="6.42891">
        <ele>1989</ele>
        <time>2018-10-17T10:55:34Z</time>
      </trkpt>
      <trkpt lat="45.81329" lon="6.42888">
        <ele>1989</ele>
        <time>2018-10-17T10:55:35Z</time>
      </trkpt>
      <trkpt lat="45.81329" lon="6.42888">
        <ele>1989</ele>
        <time>2018-10-17T10:55:36Z</time>
      </trkpt>
      <trkpt lat="45.81329" lon="6.42888">
        <ele>1989</ele>
        <time>2018-10-17T10:55:37Z</time>
      </trkpt>
      <trkpt lat="45.81329" lon="6.42888">
        <ele>1989</ele>
        <time>2018-10-17T10:55:38Z</time>
      </trkpt>
      <trkpt lat="45.81329" lon="6.42888">
        <ele>1989</ele>
        <time>2018-10-17T10:55:39Z</time>
      </trkpt>
      <trkpt lat="45.81329" lon="6.42888">
        <ele>1989</ele>
        <time>2018-10-17T10:55:40Z</time>
      </trkpt>
      <trkpt lat="45.81329" lon="6.42888">
        <ele>1989</ele>
        <time>2018-10-17T10:55:41Z</time>
      </trkpt>
      <trkpt lat="45.81329" lon="6.42888">
        <ele>1989</ele>
        <time>2018-10-17T10:55:42Z</time>
      </trkpt>
      <trkpt lat="45.81329" lon="6.42888">
        <ele>1988</ele>
        <time>2018-10-17T10:55:43Z</time>
      </trkpt>
      <trkpt lat="45.81329" lon="6.42888">
        <ele>1988</ele>
        <time>2018-10-17T10:55:44Z</time>
      </trkpt>
      <trkpt lat="45.81328" lon="6.42886">
        <ele>1988</ele>
        <time>2018-10-17T10:55:45Z</time>
      </trkpt>
      <trkpt lat="45.81328" lon="6.42886">
        <ele>1988</ele>
        <time>2018-10-17T10:55:46Z</time>
      </trkpt>
      <trkpt lat="45.81328" lon="6.42886">
        <ele>1987</ele>
        <time>2018-10-17T10:55:47Z</time>
      </trkpt>
      <trkpt lat="45.81328" lon="6.42886">
        <ele>1987</ele>
        <time>2018-10-17T10:55:48Z</time>
      </trkpt>
      <trkpt lat="45.81327" lon="6.42883">
        <ele>1987</ele>
        <time>2018-10-17T10:55:49Z</time>
      </trkpt>
      <trkpt lat="45.81327" lon="6.42883">
        <ele>1987</ele>
        <time>2018-10-17T10:55:50Z</time>
      </trkpt>
      <trkpt lat="45.81325" lon="6.42881">
        <ele>1987</ele>
        <time>2018-10-17T10:55:51Z</time>
      </trkpt>
      <trkpt lat="45.81325" lon="6.42881">
        <ele>1987</ele>
        <time>2018-10-17T10:55:52Z</time>
      </trkpt>
      <trkpt lat="45.81323" lon="6.42878">
        <ele>1987</ele>
        <time>2018-10-17T10:55:53Z</time>
      </trkpt>
      <trkpt lat="45.81323" lon="6.42878">
        <ele>1987</ele>
        <time>2018-10-17T10:55:54Z</time>
      </trkpt>
      <trkpt lat="45.81322" lon="6.42877">
        <ele>1987</ele>
        <time>2018-10-17T10:55:55Z</time>
      </trkpt>
      <trkpt lat="45.81322" lon="6.42877">
        <ele>1987</ele>
        <time>2018-10-17T10:55:56Z</time>
      </trkpt>
      <trkpt lat="45.8132" lon="6.42874">
        <ele>1987</ele>
        <time>2018-10-17T10:55:57Z</time>
      </trkpt>
      <trkpt lat="45.8132" lon="6.42874">
        <ele>1987</ele>
        <time>2018-10-17T10:55:58Z</time>
      </trkpt>
      <trkpt lat="45.8132" lon="6.42874">
        <ele>1986</ele>
        <time>2018-10-17T10:55:59Z</time>
      </trkpt>
      <trkpt lat="45.81319" lon="6.42871">
        <ele>1986</ele>
        <time>2018-10-17T10:56:00Z</time>
      </trkpt>
      <trkpt lat="45.81319" lon="6.42871">
        <ele>1985</ele>
        <time>2018-10-17T10:56:01Z</time>
      </trkpt>
      <trkpt lat="45.81319" lon="6.42871">
        <ele>1985</ele>
        <time>2018-10-17T10:56:02Z</time>
      </trkpt>
      <trkpt lat="45.81317" lon="6.42869">
        <ele>1985</ele>
        <time>2018-10-17T10:56:03Z</time>
      </trkpt>
      <trkpt lat="45.81317" lon="6.42869">
        <ele>1985</ele>
        <time>2018-10-17T10:56:04Z</time>
      </trkpt>
      <trkpt lat="45.81315" lon="6.42868">
        <ele>1985</ele>
        <time>2018-10-17T10:56:05Z</time>
      </trkpt>
      <trkpt lat="45.81315" lon="6.42868">
        <ele>1985</ele>
        <time>2018-10-17T10:56:06Z</time>
      </trkpt>
      <trkpt lat="45.81315" lon="6.42868">
        <ele>1985</ele>
        <time>2018-10-17T10:56:07Z</time>
      </trkpt>
      <trkpt lat="45.81314" lon="6.42866">
        <ele>1985</ele>
        <time>2018-10-17T10:56:08Z</time>
      </trkpt>
      <trkpt lat="45.81314" lon="6.42866">
        <ele>1985</ele>
        <time>2018-10-17T10:56:09Z</time>
      </trkpt>
      <trkpt lat="45.81313" lon="6.42864">
        <ele>1985</ele>
        <time>2018-10-17T10:56:10Z</time>
      </trkpt>
      <trkpt lat="45.81313" lon="6.42864">
        <ele>1985</ele>
        <time>2018-10-17T10:56:11Z</time>
      </trkpt>
      <trkpt lat="45.81311" lon="6.42862">
        <ele>1985</ele>
        <time>2018-10-17T10:56:12Z</time>
      </trkpt>
      <trkpt lat="45.81311" lon="6.42862">
        <ele>1985</ele>
        <time>2018-10-17T10:56:13Z</time>
      </trkpt>
      <trkpt lat="45.8131" lon="6.42861">
        <ele>1985</ele>
        <time>2018-10-17T10:56:14Z</time>
      </trkpt>
      <trkpt lat="45.8131" lon="6.42861">
        <ele>1985</ele>
        <time>2018-10-17T10:56:15Z</time>
      </trkpt>
      <trkpt lat="45.8131" lon="6.42861">
        <ele>1985</ele>
        <time>2018-10-17T10:56:16Z</time>
      </trkpt>
      <trkpt lat="45.81308" lon="6.42859">
        <ele>1985</ele>
        <time>2018-10-17T10:56:17Z</time>
      </trkpt>
      <trkpt lat="45.81308" lon="6.42859">
        <ele>1985</ele>
        <time>2018-10-17T10:56:18Z</time>
      </trkpt>
      <trkpt lat="45.81308" lon="6.42859">
        <ele>1985</ele>
        <time>2018-10-17T10:56:19Z</time>
      </trkpt>
      <trkpt lat="45.81306" lon="6.42857">
        <ele>1985</ele>
        <time>2018-10-17T10:56:20Z</time>
      </trkpt>
      <trkpt lat="45.81306" lon="6.42857">
        <ele>1985</ele>
        <time>2018-10-17T10:56:21Z</time>
      </trkpt>
      <trkpt lat="45.81306" lon="6.42857">
        <ele>1985</ele>
        <time>2018-10-17T10:56:22Z</time>
      </trkpt>
      <trkpt lat="45.81304" lon="6.42856">
        <ele>1985</ele>
        <time>2018-10-17T10:56:23Z</time>
      </trkpt>
      <trkpt lat="45.81304" lon="6.42856">
        <ele>1985</ele>
        <time>2018-10-17T10:56:24Z</time>
      </trkpt>
      <trkpt lat="45.81304" lon="6.42856">
        <ele>1985</ele>
        <time>2018-10-17T10:56:25Z</time>
      </trkpt>
      <trkpt lat="45.81302" lon="6.42853">
        <ele>1985</ele>
        <time>2018-10-17T10:56:26Z</time>
      </trkpt>
      <trkpt lat="45.81302" lon="6.42853">
        <ele>1985</ele>
        <time>2018-10-17T10:56:27Z</time>
      </trkpt>
      <trkpt lat="45.81302" lon="6.42853">
        <ele>1985</ele>
        <time>2018-10-17T10:56:28Z</time>
      </trkpt>
      <trkpt lat="45.81302" lon="6.4285">
        <ele>1985</ele>
        <time>2018-10-17T10:56:29Z</time>
      </trkpt>
      <trkpt lat="45.81302" lon="6.4285">
        <ele>1985</ele>
        <time>2018-10-17T10:56:30Z</time>
      </trkpt>
      <trkpt lat="45.81302" lon="6.4285">
        <ele>1985</ele>
        <time>2018-10-17T10:56:31Z</time>
      </trkpt>
      <trkpt lat="45.81302" lon="6.4285">
        <ele>1985</ele>
        <time>2018-10-17T10:56:32Z</time>
      </trkpt>
      <trkpt lat="45.81301" lon="6.42848">
        <ele>1985</ele>
        <time>2018-10-17T10:56:33Z</time>
      </trkpt>
      <trkpt lat="45.81301" lon="6.42848">
        <ele>1985</ele>
        <time>2018-10-17T10:56:34Z</time>
      </trkpt>
      <trkpt lat="45.813" lon="6.42846">
        <ele>1985</ele>
        <time>2018-10-17T10:56:35Z</time>
      </trkpt>
      <trkpt lat="45.813" lon="6.42846">
        <ele>1984</ele>
        <time>2018-10-17T10:56:36Z</time>
      </trkpt>
      <trkpt lat="45.813" lon="6.42846">
        <ele>1984</ele>
        <time>2018-10-17T10:56:37Z</time>
      </trkpt>
      <trkpt lat="45.81299" lon="6.42843">
        <ele>1984</ele>
        <time>2018-10-17T10:56:38Z</time>
      </trkpt>
      <trkpt lat="45.81299" lon="6.42843">
        <ele>1984</ele>
        <time>2018-10-17T10:56:39Z</time>
      </trkpt>
      <trkpt lat="45.81298" lon="6.42842">
        <ele>1984</ele>
        <time>2018-10-17T10:56:40Z</time>
      </trkpt>
      <trkpt lat="45.81298" lon="6.42842">
        <ele>1984</ele>
        <time>2018-10-17T10:56:41Z</time>
      </trkpt>
      <trkpt lat="45.81297" lon="6.42839">
        <ele>1984</ele>
        <time>2018-10-17T10:56:42Z</time>
      </trkpt>
      <trkpt lat="45.81297" lon="6.42839">
        <ele>1984</ele>
        <time>2018-10-17T10:56:43Z</time>
      </trkpt>
      <trkpt lat="45.81297" lon="6.42839">
        <ele>1984</ele>
        <time>2018-10-17T10:56:44Z</time>
      </trkpt>
      <trkpt lat="45.81297" lon="6.42839">
        <ele>1984</ele>
        <time>2018-10-17T10:56:45Z</time>
      </trkpt>
      <trkpt lat="45.81296" lon="6.42836">
        <ele>1984</ele>
        <time>2018-10-17T10:56:46Z</time>
      </trkpt>
      <trkpt lat="45.81296" lon="6.42836">
        <ele>1984</ele>
        <time>2018-10-17T10:56:47Z</time>
      </trkpt>
      <trkpt lat="45.81294" lon="6.42834">
        <ele>1984</ele>
        <time>2018-10-17T10:56:48Z</time>
      </trkpt>
      <trkpt lat="45.81294" lon="6.42834">
        <ele>1983</ele>
        <time>2018-10-17T10:56:49Z</time>
      </trkpt>
      <trkpt lat="45.81293" lon="6.42832">
        <ele>1983</ele>
        <time>2018-10-17T10:56:50Z</time>
      </trkpt>
      <trkpt lat="45.81293" lon="6.42832">
        <ele>1983</ele>
        <time>2018-10-17T10:56:51Z</time>
      </trkpt>
      <trkpt lat="45.81293" lon="6.42832">
        <ele>1983</ele>
        <time>2018-10-17T10:56:52Z</time>
      </trkpt>
      <trkpt lat="45.81292" lon="6.42829">
        <ele>1983</ele>
        <time>2018-10-17T10:56:53Z</time>
      </trkpt>
      <trkpt lat="45.81292" lon="6.42829">
        <ele>1982</ele>
        <time>2018-10-17T10:56:54Z</time>
      </trkpt>
      <trkpt lat="45.81291" lon="6.42826">
        <ele>1981</ele>
        <time>2018-10-17T10:56:55Z</time>
      </trkpt>
      <trkpt lat="45.81291" lon="6.42826">
        <ele>1981</ele>
        <time>2018-10-17T10:56:56Z</time>
      </trkpt>
      <trkpt lat="45.8129" lon="6.42823">
        <ele>1981</ele>
        <time>2018-10-17T10:56:57Z</time>
      </trkpt>
      <trkpt lat="45.8129" lon="6.42823">
        <ele>1981</ele>
        <time>2018-10-17T10:56:58Z</time>
      </trkpt>
      <trkpt lat="45.8129" lon="6.4282">
        <ele>1981</ele>
        <time>2018-10-17T10:56:59Z</time>
      </trkpt>
      <trkpt lat="45.8129" lon="6.4282">
        <ele>1981</ele>
        <time>2018-10-17T10:57:00Z</time>
      </trkpt>
      <trkpt lat="45.81289" lon="6.42817">
        <ele>1980</ele>
        <time>2018-10-17T10:57:01Z</time>
      </trkpt>
      <trkpt lat="45.81289" lon="6.42817">
        <ele>1980</ele>
        <time>2018-10-17T10:57:02Z</time>
      </trkpt>
      <trkpt lat="45.81288" lon="6.42814">
        <ele>1980</ele>
        <time>2018-10-17T10:57:03Z</time>
      </trkpt>
      <trkpt lat="45.81288" lon="6.42814">
        <ele>1980</ele>
        <time>2018-10-17T10:57:04Z</time>
      </trkpt>
      <trkpt lat="45.81287" lon="6.42811">
        <ele>1980</ele>
        <time>2018-10-17T10:57:05Z</time>
      </trkpt>
      <trkpt lat="45.81287" lon="6.42811">
        <ele>1980</ele>
        <time>2018-10-17T10:57:06Z</time>
      </trkpt>
      <trkpt lat="45.81286" lon="6.42808">
        <ele>1980</ele>
        <time>2018-10-17T10:57:07Z</time>
      </trkpt>
      <trkpt lat="45.81286" lon="6.42808">
        <ele>1980</ele>
        <time>2018-10-17T10:57:08Z</time>
      </trkpt>
      <trkpt lat="45.81285" lon="6.42805">
        <ele>1980</ele>
        <time>2018-10-17T10:57:09Z</time>
      </trkpt>
      <trkpt lat="45.81285" lon="6.42805">
        <ele>1980</ele>
        <time>2018-10-17T10:57:10Z</time>
      </trkpt>
      <trkpt lat="45.81284" lon="6.42802">
        <ele>1980</ele>
        <time>2018-10-17T10:57:11Z</time>
      </trkpt>
      <trkpt lat="45.81284" lon="6.42802">
        <ele>1980</ele>
        <time>2018-10-17T10:57:12Z</time>
      </trkpt>
      <trkpt lat="45.81282" lon="6.428">
        <ele>1980</ele>
        <time>2018-10-17T10:57:13Z</time>
      </trkpt>
      <trkpt lat="45.81282" lon="6.428">
        <ele>1980</ele>
        <time>2018-10-17T10:57:14Z</time>
      </trkpt>
      <trkpt lat="45.8128" lon="6.42798">
        <ele>1980</ele>
        <time>2018-10-17T10:57:15Z</time>
      </trkpt>
      <trkpt lat="45.8128" lon="6.42798">
        <ele>1980</ele>
        <time>2018-10-17T10:57:16Z</time>
      </trkpt>
      <trkpt lat="45.81279" lon="6.42795">
        <ele>1980</ele>
        <time>2018-10-17T10:57:17Z</time>
      </trkpt>
      <trkpt lat="45.81279" lon="6.42795">
        <ele>1980</ele>
        <time>2018-10-17T10:57:18Z</time>
      </trkpt>
      <trkpt lat="45.81279" lon="6.42795">
        <ele>1979</ele>
        <time>2018-10-17T10:57:19Z</time>
      </trkpt>
      <trkpt lat="45.81277" lon="6.42793">
        <ele>1979</ele>
        <time>2018-10-17T10:57:20Z</time>
      </trkpt>
      <trkpt lat="45.81277" lon="6.42793">
        <ele>1979</ele>
        <time>2018-10-17T10:57:21Z</time>
      </trkpt>
      <trkpt lat="45.81277" lon="6.4279">
        <ele>1979</ele>
        <time>2018-10-17T10:57:22Z</time>
      </trkpt>
      <trkpt lat="45.81277" lon="6.4279">
        <ele>1979</ele>
        <time>2018-10-17T10:57:23Z</time>
      </trkpt>
      <trkpt lat="45.81277" lon="6.4279">
        <ele>1979</ele>
        <time>2018-10-17T10:57:24Z</time>
      </trkpt>
      <trkpt lat="45.81276" lon="6.42786">
        <ele>1979</ele>
        <time>2018-10-17T10:57:25Z</time>
      </trkpt>
      <trkpt lat="45.81276" lon="6.42786">
        <ele>1978</ele>
        <time>2018-10-17T10:57:26Z</time>
      </trkpt>
      <trkpt lat="45.81275" lon="6.42784">
        <ele>1978</ele>
        <time>2018-10-17T10:57:27Z</time>
      </trkpt>
      <trkpt lat="45.81275" lon="6.42784">
        <ele>1978</ele>
        <time>2018-10-17T10:57:28Z</time>
      </trkpt>
      <trkpt lat="45.81275" lon="6.42784">
        <ele>1978</ele>
        <time>2018-10-17T10:57:29Z</time>
      </trkpt>
      <trkpt lat="45.81274" lon="6.42781">
        <ele>1978</ele>
        <time>2018-10-17T10:57:30Z</time>
      </trkpt>
      <trkpt lat="45.81274" lon="6.42781">
        <ele>1977</ele>
        <time>2018-10-17T10:57:31Z</time>
      </trkpt>
      <trkpt lat="45.81274" lon="6.42777">
        <ele>1977</ele>
        <time>2018-10-17T10:57:32Z</time>
      </trkpt>
      <trkpt lat="45.81274" lon="6.42777">
        <ele>1977</ele>
        <time>2018-10-17T10:57:33Z</time>
      </trkpt>
      <trkpt lat="45.81275" lon="6.42773">
        <ele>1977</ele>
        <time>2018-10-17T10:57:34Z</time>
      </trkpt>
      <trkpt lat="45.81275" lon="6.42773">
        <ele>1977</ele>
        <time>2018-10-17T10:57:35Z</time>
      </trkpt>
      <trkpt lat="45.81275" lon="6.4277">
        <ele>1977</ele>
        <time>2018-10-17T10:57:36Z</time>
      </trkpt>
      <trkpt lat="45.81275" lon="6.4277">
        <ele>1976</ele>
        <time>2018-10-17T10:57:37Z</time>
      </trkpt>
      <trkpt lat="45.81274" lon="6.42766">
        <ele>1975</ele>
        <time>2018-10-17T10:57:38Z</time>
      </trkpt>
      <trkpt lat="45.81274" lon="6.42766">
        <ele>1976</ele>
        <time>2018-10-17T10:57:39Z</time>
      </trkpt>
      <trkpt lat="45.81274" lon="6.42763">
        <ele>1976</ele>
        <time>2018-10-17T10:57:40Z</time>
      </trkpt>
      <trkpt lat="45.81274" lon="6.42763">
        <ele>1976</ele>
        <time>2018-10-17T10:57:41Z</time>
      </trkpt>
      <trkpt lat="45.81274" lon="6.4276">
        <ele>1976</ele>
        <time>2018-10-17T10:57:42Z</time>
      </trkpt>
      <trkpt lat="45.81274" lon="6.4276">
        <ele>1976</ele>
        <time>2018-10-17T10:57:43Z</time>
      </trkpt>
      <trkpt lat="45.81275" lon="6.42757">
        <ele>1976</ele>
        <time>2018-10-17T10:57:44Z</time>
      </trkpt>
      <trkpt lat="45.81275" lon="6.42757">
        <ele>1976</ele>
        <time>2018-10-17T10:57:45Z</time>
      </trkpt>
      <trkpt lat="45.81275" lon="6.42757">
        <ele>1975</ele>
        <time>2018-10-17T10:57:46Z</time>
      </trkpt>
      <trkpt lat="45.81276" lon="6.42755">
        <ele>1975</ele>
        <time>2018-10-17T10:57:47Z</time>
      </trkpt>
      <trkpt lat="45.81276" lon="6.42755">
        <ele>1975</ele>
        <time>2018-10-17T10:57:48Z</time>
      </trkpt>
      <trkpt lat="45.81276" lon="6.42755">
        <ele>1975</ele>
        <time>2018-10-17T10:57:49Z</time>
      </trkpt>
      <trkpt lat="45.81277" lon="6.42751">
        <ele>1975</ele>
        <time>2018-10-17T10:57:50Z</time>
      </trkpt>
      <trkpt lat="45.81277" lon="6.42751">
        <ele>1974</ele>
        <time>2018-10-17T10:57:51Z</time>
      </trkpt>
      <trkpt lat="45.81278" lon="6.42748">
        <ele>1973</ele>
        <time>2018-10-17T10:57:52Z</time>
      </trkpt>
      <trkpt lat="45.81278" lon="6.42748">
        <ele>1973</ele>
        <time>2018-10-17T10:57:53Z</time>
      </trkpt>
      <trkpt lat="45.81277" lon="6.42745">
        <ele>1973</ele>
        <time>2018-10-17T10:57:54Z</time>
      </trkpt>
      <trkpt lat="45.81277" lon="6.42745">
        <ele>1973</ele>
        <time>2018-10-17T10:57:55Z</time>
      </trkpt>
      <trkpt lat="45.81277" lon="6.42743">
        <ele>1973</ele>
        <time>2018-10-17T10:57:56Z</time>
      </trkpt>
      <trkpt lat="45.81277" lon="6.42743">
        <ele>1973</ele>
        <time>2018-10-17T10:57:57Z</time>
      </trkpt>
      <trkpt lat="45.81277" lon="6.42743">
        <ele>1973</ele>
        <time>2018-10-17T10:57:58Z</time>
      </trkpt>
      <trkpt lat="45.81277" lon="6.42743">
        <ele>1973</ele>
        <time>2018-10-17T10:57:59Z</time>
      </trkpt>
      <trkpt lat="45.81275" lon="6.4274">
        <ele>1974</ele>
        <time>2018-10-17T10:58:00Z</time>
      </trkpt>
      <trkpt lat="45.81275" lon="6.4274">
        <ele>1974</ele>
        <time>2018-10-17T10:58:01Z</time>
      </trkpt>
      <trkpt lat="45.81275" lon="6.4274">
        <ele>1974</ele>
        <time>2018-10-17T10:58:02Z</time>
      </trkpt>
      <trkpt lat="45.81275" lon="6.4274">
        <ele>1974</ele>
        <time>2018-10-17T10:58:03Z</time>
      </trkpt>
      <trkpt lat="45.81273" lon="6.4274">
        <ele>1975</ele>
        <time>2018-10-17T10:58:04Z</time>
      </trkpt>
      <trkpt lat="45.81273" lon="6.4274">
        <ele>1975</ele>
        <time>2018-10-17T10:58:05Z</time>
      </trkpt>
      <trkpt lat="45.81273" lon="6.4274">
        <ele>1975</ele>
        <time>2018-10-17T10:58:06Z</time>
      </trkpt>
      <trkpt lat="45.81273" lon="6.4274">
        <ele>1976</ele>
        <time>2018-10-17T10:58:07Z</time>
      </trkpt>
      <trkpt lat="45.81273" lon="6.4274">
        <ele>1976</ele>
        <time>2018-10-17T10:58:08Z</time>
      </trkpt>
      <trkpt lat="45.81272" lon="6.42738">
        <ele>1976</ele>
        <time>2018-10-17T10:58:09Z</time>
      </trkpt>
      <trkpt lat="45.81272" lon="6.42738">
        <ele>1977</ele>
        <time>2018-10-17T10:58:10Z</time>
      </trkpt>
      <trkpt lat="45.81272" lon="6.42738">
        <ele>1977</ele>
        <time>2018-10-17T10:58:11Z</time>
      </trkpt>
      <trkpt lat="45.81272" lon="6.42738">
        <ele>1977</ele>
        <time>2018-10-17T10:58:12Z</time>
      </trkpt>
      <trkpt lat="45.81271" lon="6.42735">
        <ele>1978</ele>
        <time>2018-10-17T10:58:13Z</time>
      </trkpt>
      <trkpt lat="45.81271" lon="6.42735">
        <ele>1978</ele>
        <time>2018-10-17T10:58:14Z</time>
      </trkpt>
      <trkpt lat="45.81271" lon="6.42735">
        <ele>1978</ele>
        <time>2018-10-17T10:58:15Z</time>
      </trkpt>
      <trkpt lat="45.81271" lon="6.42735">
        <ele>1978</ele>
        <time>2018-10-17T10:58:16Z</time>
      </trkpt>
      <trkpt lat="45.81273" lon="6.42733">
        <ele>1978</ele>
        <time>2018-10-17T10:58:17Z</time>
      </trkpt>
      <trkpt lat="45.81273" lon="6.42733">
        <ele>1978</ele>
        <time>2018-10-17T10:58:18Z</time>
      </trkpt>
      <trkpt lat="45.81273" lon="6.42733">
        <ele>1978</ele>
        <time>2018-10-17T10:58:19Z</time>
      </trkpt>
      <trkpt lat="45.81273" lon="6.42733">
        <ele>1978</ele>
        <time>2018-10-17T10:58:20Z</time>
      </trkpt>
      <trkpt lat="45.81274" lon="6.42732">
        <ele>1978</ele>
        <time>2018-10-17T10:58:21Z</time>
      </trkpt>
      <trkpt lat="45.81274" lon="6.42732">
        <ele>1977</ele>
        <time>2018-10-17T10:58:22Z</time>
      </trkpt>
      <trkpt lat="45.81276" lon="6.4273">
        <ele>1977</ele>
        <time>2018-10-17T10:58:23Z</time>
      </trkpt>
      <trkpt lat="45.81276" lon="6.4273">
        <ele>1977</ele>
        <time>2018-10-17T10:58:24Z</time>
      </trkpt>
      <trkpt lat="45.81277" lon="6.42728">
        <ele>1977</ele>
        <time>2018-10-17T10:58:25Z</time>
      </trkpt>
      <trkpt lat="45.81277" lon="6.42728">
        <ele>1977</ele>
        <time>2018-10-17T10:58:26Z</time>
      </trkpt>
      <trkpt lat="45.81279" lon="6.42725">
        <ele>1977</ele>
        <time>2018-10-17T10:58:27Z</time>
      </trkpt>
      <trkpt lat="45.81279" lon="6.42725">
        <ele>1977</ele>
        <time>2018-10-17T10:58:28Z</time>
      </trkpt>
      <trkpt lat="45.8128" lon="6.42722">
        <ele>1977</ele>
        <time>2018-10-17T10:58:29Z</time>
      </trkpt>
      <trkpt lat="45.8128" lon="6.42722">
        <ele>1976</ele>
        <time>2018-10-17T10:58:30Z</time>
      </trkpt>
      <trkpt lat="45.8128" lon="6.42719">
        <ele>1976</ele>
        <time>2018-10-17T10:58:31Z</time>
      </trkpt>
      <trkpt lat="45.8128" lon="6.42719">
        <ele>1976</ele>
        <time>2018-10-17T10:58:32Z</time>
      </trkpt>
      <trkpt lat="45.8128" lon="6.42716">
        <ele>1975</ele>
        <time>2018-10-17T10:58:33Z</time>
      </trkpt>
      <trkpt lat="45.8128" lon="6.42716">
        <ele>1975</ele>
        <time>2018-10-17T10:58:34Z</time>
      </trkpt>
      <trkpt lat="45.81279" lon="6.42712">
        <ele>1975</ele>
        <time>2018-10-17T10:58:35Z</time>
      </trkpt>
      <trkpt lat="45.81279" lon="6.42712">
        <ele>1975</ele>
        <time>2018-10-17T10:58:36Z</time>
      </trkpt>
      <trkpt lat="45.8128" lon="6.42709">
        <ele>1975</ele>
        <time>2018-10-17T10:58:37Z</time>
      </trkpt>
      <trkpt lat="45.8128" lon="6.42709">
        <ele>1975</ele>
        <time>2018-10-17T10:58:38Z</time>
      </trkpt>
      <trkpt lat="45.8128" lon="6.42706">
        <ele>1975</ele>
        <time>2018-10-17T10:58:39Z</time>
      </trkpt>
      <trkpt lat="45.8128" lon="6.42706">
        <ele>1975</ele>
        <time>2018-10-17T10:58:40Z</time>
      </trkpt>
      <trkpt lat="45.81281" lon="6.42703">
        <ele>1975</ele>
        <time>2018-10-17T10:58:41Z</time>
      </trkpt>
      <trkpt lat="45.81281" lon="6.42703">
        <ele>1976</ele>
        <time>2018-10-17T10:58:42Z</time>
      </trkpt>
      <trkpt lat="45.81281" lon="6.42701">
        <ele>1976</ele>
        <time>2018-10-17T10:58:43Z</time>
      </trkpt>
      <trkpt lat="45.81281" lon="6.42701">
        <ele>1976</ele>
        <time>2018-10-17T10:58:44Z</time>
      </trkpt>
      <trkpt lat="45.81281" lon="6.42701">
        <ele>1976</ele>
        <time>2018-10-17T10:58:45Z</time>
      </trkpt>
      <trkpt lat="45.81282" lon="6.42697">
        <ele>1976</ele>
        <time>2018-10-17T10:58:46Z</time>
      </trkpt>
      <trkpt lat="45.81282" lon="6.42697">
        <ele>1976</ele>
        <time>2018-10-17T10:58:47Z</time>
      </trkpt>
      <trkpt lat="45.81282" lon="6.42697">
        <ele>1976</ele>
        <time>2018-10-17T10:58:48Z</time>
      </trkpt>
      <trkpt lat="45.81282" lon="6.42697">
        <ele>1976</ele>
        <time>2018-10-17T10:58:49Z</time>
      </trkpt>
      <trkpt lat="45.81282" lon="6.42695">
        <ele>1976</ele>
        <time>2018-10-17T10:58:50Z</time>
      </trkpt>
      <trkpt lat="45.81282" lon="6.42695">
        <ele>1977</ele>
        <time>2018-10-17T10:58:51Z</time>
      </trkpt>
      <trkpt lat="45.81282" lon="6.42695">
        <ele>1977</ele>
        <time>2018-10-17T10:58:52Z</time>
      </trkpt>
      <trkpt lat="45.81282" lon="6.42692">
        <ele>1977</ele>
        <time>2018-10-17T10:58:53Z</time>
      </trkpt>
      <trkpt lat="45.81282" lon="6.42692">
        <ele>1977</ele>
        <time>2018-10-17T10:58:54Z</time>
      </trkpt>
      <trkpt lat="45.81282" lon="6.42692">
        <ele>1978</ele>
        <time>2018-10-17T10:58:55Z</time>
      </trkpt>
      <trkpt lat="45.81282" lon="6.42689">
        <ele>1978</ele>
        <time>2018-10-17T10:58:56Z</time>
      </trkpt>
      <trkpt lat="45.81282" lon="6.42689">
        <ele>1978</ele>
        <time>2018-10-17T10:58:57Z</time>
      </trkpt>
      <trkpt lat="45.81282" lon="6.42689">
        <ele>1978</ele>
        <time>2018-10-17T10:58:58Z</time>
      </trkpt>
      <trkpt lat="45.81282" lon="6.42689">
        <ele>1978</ele>
        <time>2018-10-17T10:58:59Z</time>
      </trkpt>
      <trkpt lat="45.81282" lon="6.42689">
        <ele>1978</ele>
        <time>2018-10-17T10:59:00Z</time>
      </trkpt>
      <trkpt lat="45.81282" lon="6.42686">
        <ele>1978</ele>
        <time>2018-10-17T10:59:01Z</time>
      </trkpt>
      <trkpt lat="45.81282" lon="6.42686">
        <ele>1978</ele>
        <time>2018-10-17T10:59:02Z</time>
      </trkpt>
      <trkpt lat="45.81282" lon="6.42686">
        <ele>1978</ele>
        <time>2018-10-17T10:59:03Z</time>
      </trkpt>
      <trkpt lat="45.8128" lon="6.42683">
        <ele>1978</ele>
        <time>2018-10-17T10:59:04Z</time>
      </trkpt>
      <trkpt lat="45.8128" lon="6.42683">
        <ele>1978</ele>
        <time>2018-10-17T10:59:05Z</time>
      </trkpt>
      <trkpt lat="45.81278" lon="6.42682">
        <ele>1978</ele>
        <time>2018-10-17T10:59:06Z</time>
      </trkpt>
      <trkpt lat="45.81278" lon="6.42682">
        <ele>1978</ele>
        <time>2018-10-17T10:59:07Z</time>
      </trkpt>
      <trkpt lat="45.81277" lon="6.4268">
        <ele>1978</ele>
        <time>2018-10-17T10:59:08Z</time>
      </trkpt>
      <trkpt lat="45.81277" lon="6.4268">
        <ele>1979</ele>
        <time>2018-10-17T10:59:09Z</time>
      </trkpt>
      <trkpt lat="45.81276" lon="6.42678">
        <ele>1979</ele>
        <time>2018-10-17T10:59:10Z</time>
      </trkpt>
      <trkpt lat="45.81276" lon="6.42678">
        <ele>1979</ele>
        <time>2018-10-17T10:59:11Z</time>
      </trkpt>
      <trkpt lat="45.81276" lon="6.42678">
        <ele>1979</ele>
        <time>2018-10-17T10:59:12Z</time>
      </trkpt>
      <trkpt lat="45.81275" lon="6.42675">
        <ele>1979</ele>
        <time>2018-10-17T10:59:13Z</time>
      </trkpt>
      <trkpt lat="45.81275" lon="6.42675">
        <ele>1979</ele>
        <time>2018-10-17T10:59:14Z</time>
      </trkpt>
      <trkpt lat="45.81275" lon="6.42675">
        <ele>1979</ele>
        <time>2018-10-17T10:59:15Z</time>
      </trkpt>
      <trkpt lat="45.81275" lon="6.42671">
        <ele>1979</ele>
        <time>2018-10-17T10:59:16Z</time>
      </trkpt>
      <trkpt lat="45.81275" lon="6.42671">
        <ele>1979</ele>
        <time>2018-10-17T10:59:17Z</time>
      </trkpt>
      <trkpt lat="45.81276" lon="6.42668">
        <ele>1978</ele>
        <time>2018-10-17T10:59:18Z</time>
      </trkpt>
      <trkpt lat="45.81276" lon="6.42668">
        <ele>1980</ele>
        <time>2018-10-17T10:59:19Z</time>
      </trkpt>
      <trkpt lat="45.81276" lon="6.42668">
        <ele>1980</ele>
        <time>2018-10-17T10:59:20Z</time>
      </trkpt>
      <trkpt lat="45.81277" lon="6.42666">
        <ele>1980</ele>
        <time>2018-10-17T10:59:21Z</time>
      </trkpt>
      <trkpt lat="45.81277" lon="6.42666">
        <ele>1981</ele>
        <time>2018-10-17T10:59:22Z</time>
      </trkpt>
      <trkpt lat="45.81277" lon="6.42666">
        <ele>1981</ele>
        <time>2018-10-17T10:59:23Z</time>
      </trkpt>
      <trkpt lat="45.81277" lon="6.42666">
        <ele>1981</ele>
        <time>2018-10-17T10:59:24Z</time>
      </trkpt>
      <trkpt lat="45.81277" lon="6.42663">
        <ele>1981</ele>
        <time>2018-10-17T10:59:25Z</time>
      </trkpt>
      <trkpt lat="45.81277" lon="6.42663">
        <ele>1980</ele>
        <time>2018-10-17T10:59:26Z</time>
      </trkpt>
      <trkpt lat="45.81277" lon="6.42661">
        <ele>1980</ele>
        <time>2018-10-17T10:59:27Z</time>
      </trkpt>
      <trkpt lat="45.81277" lon="6.42661">
        <ele>1980</ele>
        <time>2018-10-17T10:59:28Z</time>
      </trkpt>
      <trkpt lat="45.81277" lon="6.42661">
        <ele>1980</ele>
        <time>2018-10-17T10:59:29Z</time>
      </trkpt>
      <trkpt lat="45.81278" lon="6.42657">
        <ele>1980</ele>
        <time>2018-10-17T10:59:30Z</time>
      </trkpt>
      <trkpt lat="45.81278" lon="6.42657">
        <ele>1980</ele>
        <time>2018-10-17T10:59:31Z</time>
      </trkpt>
      <trkpt lat="45.81278" lon="6.42657">
        <ele>1980</ele>
        <time>2018-10-17T10:59:32Z</time>
      </trkpt>
      <trkpt lat="45.81278" lon="6.42657">
        <ele>1981</ele>
        <time>2018-10-17T10:59:33Z</time>
      </trkpt>
      <trkpt lat="45.81278" lon="6.42657">
        <ele>1981</ele>
        <time>2018-10-17T10:59:34Z</time>
      </trkpt>
      <trkpt lat="45.81278" lon="6.42657">
        <ele>1981</ele>
        <time>2018-10-17T10:59:35Z</time>
      </trkpt>
      <trkpt lat="45.81278" lon="6.42657">
        <ele>1981</ele>
        <time>2018-10-17T10:59:36Z</time>
      </trkpt>
      <trkpt lat="45.81278" lon="6.42657">
        <ele>1981</ele>
        <time>2018-10-17T10:59:37Z</time>
      </trkpt>
      <trkpt lat="45.81278" lon="6.42657">
        <ele>1981</ele>
        <time>2018-10-17T10:59:38Z</time>
      </trkpt>
      <trkpt lat="45.81278" lon="6.42657">
        <ele>1981</ele>
        <time>2018-10-17T10:59:39Z</time>
      </trkpt>
      <trkpt lat="45.81278" lon="6.42657">
        <ele>1981</ele>
        <time>2018-10-17T10:59:40Z</time>
      </trkpt>
      <trkpt lat="45.81278" lon="6.42657">
        <ele>1981</ele>
        <time>2018-10-17T10:59:41Z</time>
      </trkpt>
      <trkpt lat="45.81278" lon="6.42657">
        <ele>1981</ele>
        <time>2018-10-17T10:59:42Z</time>
      </trkpt>
      <trkpt lat="45.81278" lon="6.42657">
        <ele>1981</ele>
        <time>2018-10-17T10:59:43Z</time>
      </trkpt>
      <trkpt lat="45.81278" lon="6.42654">
        <ele>1980</ele>
        <time>2018-10-17T10:59:44Z</time>
      </trkpt>
      <trkpt lat="45.81278" lon="6.42654">
        <ele>1980</ele>
        <time>2018-10-17T10:59:45Z</time>
      </trkpt>
      <trkpt lat="45.81278" lon="6.42654">
        <ele>1980</ele>
        <time>2018-10-17T10:59:46Z</time>
      </trkpt>
      <trkpt lat="45.81278" lon="6.42651">
        <ele>1980</ele>
        <time>2018-10-17T10:59:47Z</time>
      </trkpt>
      <trkpt lat="45.81278" lon="6.42651">
        <ele>1981</ele>
        <time>2018-10-17T10:59:48Z</time>
      </trkpt>
      <trkpt lat="45.81278" lon="6.42651">
        <ele>1981</ele>
        <time>2018-10-17T10:59:49Z</time>
      </trkpt>
      <trkpt lat="45.81277" lon="6.42648">
        <ele>1981</ele>
        <time>2018-10-17T10:59:50Z</time>
      </trkpt>
      <trkpt lat="45.81277" lon="6.42648">
        <ele>1981</ele>
        <time>2018-10-17T10:59:51Z</time>
      </trkpt>
      <trkpt lat="45.81277" lon="6.42646">
        <ele>1981</ele>
        <time>2018-10-17T10:59:52Z</time>
      </trkpt>
      <trkpt lat="45.81277" lon="6.42646">
        <ele>1981</ele>
        <time>2018-10-17T10:59:53Z</time>
      </trkpt>
      <trkpt lat="45.81277" lon="6.42646">
        <ele>1981</ele>
        <time>2018-10-17T10:59:54Z</time>
      </trkpt>
      <trkpt lat="45.81277" lon="6.42642">
        <ele>1981</ele>
        <time>2018-10-17T10:59:55Z</time>
      </trkpt>
      <trkpt lat="45.81277" lon="6.42642">
        <ele>1981</ele>
        <time>2018-10-17T10:59:56Z</time>
      </trkpt>
      <trkpt lat="45.81277" lon="6.42642">
        <ele>1981</ele>
        <time>2018-10-17T10:59:57Z</time>
      </trkpt>
      <trkpt lat="45.81277" lon="6.42639">
        <ele>1981</ele>
        <time>2018-10-17T10:59:58Z</time>
      </trkpt>
      <trkpt lat="45.81277" lon="6.42639">
        <ele>1981</ele>
        <time>2018-10-17T10:59:59Z</time>
      </trkpt>
      <trkpt lat="45.81277" lon="6.42639">
        <ele>1981</ele>
        <time>2018-10-17T11:00:00Z</time>
      </trkpt>
      <trkpt lat="45.81277" lon="6.42634">
        <ele>1981</ele>
        <time>2018-10-17T11:00:01Z</time>
      </trkpt>
      <trkpt lat="45.81277" lon="6.42634">
        <ele>1981</ele>
        <time>2018-10-17T11:00:02Z</time>
      </trkpt>
      <trkpt lat="45.81278" lon="6.42632">
        <ele>1981</ele>
        <time>2018-10-17T11:00:03Z</time>
      </trkpt>
      <trkpt lat="45.81278" lon="6.42632">
        <ele>1981</ele>
        <time>2018-10-17T11:00:04Z</time>
      </trkpt>
      <trkpt lat="45.81278" lon="6.42629">
        <ele>1982</ele>
        <time>2018-10-17T11:00:05Z</time>
      </trkpt>
      <trkpt lat="45.81278" lon="6.42629">
        <ele>1982</ele>
        <time>2018-10-17T11:00:06Z</time>
      </trkpt>
      <trkpt lat="45.81278" lon="6.42629">
        <ele>1982</ele>
        <time>2018-10-17T11:00:07Z</time>
      </trkpt>
      <trkpt lat="45.81278" lon="6.42625">
        <ele>1982</ele>
        <time>2018-10-17T11:00:08Z</time>
      </trkpt>
      <trkpt lat="45.81278" lon="6.42625">
        <ele>1982</ele>
        <time>2018-10-17T11:00:09Z</time>
      </trkpt>
      <trkpt lat="45.81278" lon="6.42625">
        <ele>1982</ele>
        <time>2018-10-17T11:00:10Z</time>
      </trkpt>
      <trkpt lat="45.81278" lon="6.42622">
        <ele>1982</ele>
        <time>2018-10-17T11:00:11Z</time>
      </trkpt>
      <trkpt lat="45.81278" lon="6.42622">
        <ele>1981</ele>
        <time>2018-10-17T11:00:12Z</time>
      </trkpt>
      <trkpt lat="45.81278" lon="6.42622">
        <ele>1981</ele>
        <time>2018-10-17T11:00:13Z</time>
      </trkpt>
      <trkpt lat="45.81277" lon="6.42619">
        <ele>1981</ele>
        <time>2018-10-17T11:00:14Z</time>
      </trkpt>
      <trkpt lat="45.81277" lon="6.42619">
        <ele>1982</ele>
        <time>2018-10-17T11:00:15Z</time>
      </trkpt>
      <trkpt lat="45.81275" lon="6.42616">
        <ele>1982</ele>
        <time>2018-10-17T11:00:16Z</time>
      </trkpt>
      <trkpt lat="45.81275" lon="6.42616">
        <ele>1983</ele>
        <time>2018-10-17T11:00:17Z</time>
      </trkpt>
      <trkpt lat="45.81275" lon="6.42616">
        <ele>1983</ele>
        <time>2018-10-17T11:00:18Z</time>
      </trkpt>
      <trkpt lat="45.81274" lon="6.42613">
        <ele>1983</ele>
        <time>2018-10-17T11:00:19Z</time>
      </trkpt>
      <trkpt lat="45.81274" lon="6.42613">
        <ele>1983</ele>
        <time>2018-10-17T11:00:20Z</time>
      </trkpt>
      <trkpt lat="45.81274" lon="6.42613">
        <ele>1983</ele>
        <time>2018-10-17T11:00:21Z</time>
      </trkpt>
      <trkpt lat="45.81272" lon="6.4261">
        <ele>1984</ele>
        <time>2018-10-17T11:00:22Z</time>
      </trkpt>
      <trkpt lat="45.81272" lon="6.4261">
        <ele>1984</ele>
        <time>2018-10-17T11:00:23Z</time>
      </trkpt>
      <trkpt lat="45.81272" lon="6.4261">
        <ele>1984</ele>
        <time>2018-10-17T11:00:24Z</time>
      </trkpt>
      <trkpt lat="45.81272" lon="6.4261">
        <ele>1984</ele>
        <time>2018-10-17T11:00:25Z</time>
      </trkpt>
      <trkpt lat="45.81272" lon="6.4261">
        <ele>1984</ele>
        <time>2018-10-17T11:00:26Z</time>
      </trkpt>
      <trkpt lat="45.81272" lon="6.42607">
        <ele>1984</ele>
        <time>2018-10-17T11:00:27Z</time>
      </trkpt>
      <trkpt lat="45.81272" lon="6.42607">
        <ele>1984</ele>
        <time>2018-10-17T11:00:28Z</time>
      </trkpt>
      <trkpt lat="45.81272" lon="6.42607">
        <ele>1984</ele>
        <time>2018-10-17T11:00:29Z</time>
      </trkpt>
      <trkpt lat="45.81271" lon="6.42604">
        <ele>1984</ele>
        <time>2018-10-17T11:00:30Z</time>
      </trkpt>
      <trkpt lat="45.81271" lon="6.42604">
        <ele>1983</ele>
        <time>2018-10-17T11:00:31Z</time>
      </trkpt>
      <trkpt lat="45.81271" lon="6.42599">
        <ele>1983</ele>
        <time>2018-10-17T11:00:32Z</time>
      </trkpt>
      <trkpt lat="45.81271" lon="6.42599">
        <ele>1983</ele>
        <time>2018-10-17T11:00:33Z</time>
      </trkpt>
      <trkpt lat="45.81272" lon="6.42595">
        <ele>1984</ele>
        <time>2018-10-17T11:00:34Z</time>
      </trkpt>
      <trkpt lat="45.81272" lon="6.42595">
        <ele>1984</ele>
        <time>2018-10-17T11:00:35Z</time>
      </trkpt>
      <trkpt lat="45.81272" lon="6.42592">
        <ele>1984</ele>
        <time>2018-10-17T11:00:36Z</time>
      </trkpt>
      <trkpt lat="45.81272" lon="6.42592">
        <ele>1984</ele>
        <time>2018-10-17T11:00:37Z</time>
      </trkpt>
      <trkpt lat="45.81273" lon="6.42589">
        <ele>1984</ele>
        <time>2018-10-17T11:00:38Z</time>
      </trkpt>
      <trkpt lat="45.81273" lon="6.42589">
        <ele>1985</ele>
        <time>2018-10-17T11:00:39Z</time>
      </trkpt>
      <trkpt lat="45.81273" lon="6.42585">
        <ele>1985</ele>
        <time>2018-10-17T11:00:40Z</time>
      </trkpt>
      <trkpt lat="45.81273" lon="6.42585">
        <ele>1985</ele>
        <time>2018-10-17T11:00:41Z</time>
      </trkpt>
      <trkpt lat="45.81273" lon="6.42582">
        <ele>1985</ele>
        <time>2018-10-17T11:00:42Z</time>
      </trkpt>
      <trkpt lat="45.81273" lon="6.42582">
        <ele>1985</ele>
        <time>2018-10-17T11:00:43Z</time>
      </trkpt>
      <trkpt lat="45.81273" lon="6.42578">
        <ele>1985</ele>
        <time>2018-10-17T11:00:44Z</time>
      </trkpt>
      <trkpt lat="45.81273" lon="6.42578">
        <ele>1985</ele>
        <time>2018-10-17T11:00:45Z</time>
      </trkpt>
      <trkpt lat="45.81273" lon="6.42575">
        <ele>1985</ele>
        <time>2018-10-17T11:00:46Z</time>
      </trkpt>
      <trkpt lat="45.81273" lon="6.42575">
        <ele>1985</ele>
        <time>2018-10-17T11:00:47Z</time>
      </trkpt>
      <trkpt lat="45.81274" lon="6.42571">
        <ele>1985</ele>
        <time>2018-10-17T11:00:48Z</time>
      </trkpt>
      <trkpt lat="45.81274" lon="6.42571">
        <ele>1985</ele>
        <time>2018-10-17T11:00:49Z</time>
      </trkpt>
      <trkpt lat="45.81274" lon="6.42568">
        <ele>1985</ele>
        <time>2018-10-17T11:00:50Z</time>
      </trkpt>
      <trkpt lat="45.81274" lon="6.42568">
        <ele>1986</ele>
        <time>2018-10-17T11:00:51Z</time>
      </trkpt>
      <trkpt lat="45.81273" lon="6.42565">
        <ele>1986</ele>
        <time>2018-10-17T11:00:52Z</time>
      </trkpt>
      <trkpt lat="45.81273" lon="6.42565">
        <ele>1986</ele>
        <time>2018-10-17T11:00:53Z</time>
      </trkpt>
      <trkpt lat="45.81273" lon="6.42562">
        <ele>1986</ele>
        <time>2018-10-17T11:00:54Z</time>
      </trkpt>
      <trkpt lat="45.81273" lon="6.42562">
        <ele>1986</ele>
        <time>2018-10-17T11:00:55Z</time>
      </trkpt>
      <trkpt lat="45.81273" lon="6.42559">
        <ele>1986</ele>
        <time>2018-10-17T11:00:56Z</time>
      </trkpt>
      <trkpt lat="45.81273" lon="6.42559">
        <ele>1987</ele>
        <time>2018-10-17T11:00:57Z</time>
      </trkpt>
      <trkpt lat="45.81274" lon="6.42556">
        <ele>1987</ele>
        <time>2018-10-17T11:00:58Z</time>
      </trkpt>
      <trkpt lat="45.81274" lon="6.42556">
        <ele>1987</ele>
        <time>2018-10-17T11:00:59Z</time>
      </trkpt>
      <trkpt lat="45.81275" lon="6.42553">
        <ele>1987</ele>
        <time>2018-10-17T11:01:00Z</time>
      </trkpt>
      <trkpt lat="45.81275" lon="6.42553">
        <ele>1987</ele>
        <time>2018-10-17T11:01:01Z</time>
      </trkpt>
      <trkpt lat="45.81276" lon="6.42551">
        <ele>1987</ele>
        <time>2018-10-17T11:01:02Z</time>
      </trkpt>
      <trkpt lat="45.81276" lon="6.42551">
        <ele>1987</ele>
        <time>2018-10-17T11:01:03Z</time>
      </trkpt>
      <trkpt lat="45.81276" lon="6.42551">
        <ele>1987</ele>
        <time>2018-10-17T11:01:04Z</time>
      </trkpt>
      <trkpt lat="45.81277" lon="6.42547">
        <ele>1988</ele>
        <time>2018-10-17T11:01:05Z</time>
      </trkpt>
      <trkpt lat="45.81277" lon="6.42547">
        <ele>1988</ele>
        <time>2018-10-17T11:01:06Z</time>
      </trkpt>
      <trkpt lat="45.81277" lon="6.42547">
        <ele>1988</ele>
        <time>2018-10-17T11:01:07Z</time>
      </trkpt>
      <trkpt lat="45.81277" lon="6.42544">
        <ele>1988</ele>
        <time>2018-10-17T11:01:08Z</time>
      </trkpt>
      <trkpt lat="45.81277" lon="6.42544">
        <ele>1988</ele>
        <time>2018-10-17T11:01:09Z</time>
      </trkpt>
      <trkpt lat="45.81277" lon="6.42544">
        <ele>1989</ele>
        <time>2018-10-17T11:01:10Z</time>
      </trkpt>
      <trkpt lat="45.81278" lon="6.42541">
        <ele>1989</ele>
        <time>2018-10-17T11:01:11Z</time>
      </trkpt>
      <trkpt lat="45.81278" lon="6.42541">
        <ele>1989</ele>
        <time>2018-10-17T11:01:12Z</time>
      </trkpt>
      <trkpt lat="45.81279" lon="6.42538">
        <ele>1989</ele>
        <time>2018-10-17T11:01:13Z</time>
      </trkpt>
      <trkpt lat="45.81279" lon="6.42538">
        <ele>1989</ele>
        <time>2018-10-17T11:01:14Z</time>
      </trkpt>
      <trkpt lat="45.8128" lon="6.42535">
        <ele>1989</ele>
        <time>2018-10-17T11:01:15Z</time>
      </trkpt>
      <trkpt lat="45.8128" lon="6.42535">
        <ele>1989</ele>
        <time>2018-10-17T11:01:16Z</time>
      </trkpt>
      <trkpt lat="45.81282" lon="6.42532">
        <ele>1989</ele>
        <time>2018-10-17T11:01:17Z</time>
      </trkpt>
      <trkpt lat="45.81282" lon="6.42532">
        <ele>1989</ele>
        <time>2018-10-17T11:01:18Z</time>
      </trkpt>
      <trkpt lat="45.81283" lon="6.42529">
        <ele>1989</ele>
        <time>2018-10-17T11:01:19Z</time>
      </trkpt>
      <trkpt lat="45.81283" lon="6.42529">
        <ele>1989</ele>
        <time>2018-10-17T11:01:20Z</time>
      </trkpt>
      <trkpt lat="45.81285" lon="6.42527">
        <ele>1989</ele>
        <time>2018-10-17T11:01:21Z</time>
      </trkpt>
      <trkpt lat="45.81285" lon="6.42527">
        <ele>1990</ele>
        <time>2018-10-17T11:01:22Z</time>
      </trkpt>
      <trkpt lat="45.81285" lon="6.42524">
        <ele>1990</ele>
        <time>2018-10-17T11:01:23Z</time>
      </trkpt>
      <trkpt lat="45.81285" lon="6.42524">
        <ele>1990</ele>
        <time>2018-10-17T11:01:24Z</time>
      </trkpt>
      <trkpt lat="45.81286" lon="6.42521">
        <ele>1990</ele>
        <time>2018-10-17T11:01:25Z</time>
      </trkpt>
      <trkpt lat="45.81286" lon="6.42521">
        <ele>1990</ele>
        <time>2018-10-17T11:01:26Z</time>
      </trkpt>
      <trkpt lat="45.81286" lon="6.42521">
        <ele>1991</ele>
        <time>2018-10-17T11:01:27Z</time>
      </trkpt>
      <trkpt lat="45.81286" lon="6.42518">
        <ele>1991</ele>
        <time>2018-10-17T11:01:28Z</time>
      </trkpt>
      <trkpt lat="45.81286" lon="6.42518">
        <ele>1991</ele>
        <time>2018-10-17T11:01:29Z</time>
      </trkpt>
      <trkpt lat="45.81287" lon="6.42515">
        <ele>1991</ele>
        <time>2018-10-17T11:01:30Z</time>
      </trkpt>
      <trkpt lat="45.81287" lon="6.42515">
        <ele>1992</ele>
        <time>2018-10-17T11:01:31Z</time>
      </trkpt>
      <trkpt lat="45.81287" lon="6.42515">
        <ele>1992</ele>
        <time>2018-10-17T11:01:32Z</time>
      </trkpt>
      <trkpt lat="45.81288" lon="6.42512">
        <ele>1992</ele>
        <time>2018-10-17T11:01:33Z</time>
      </trkpt>
      <trkpt lat="45.81288" lon="6.42512">
        <ele>1992</ele>
        <time>2018-10-17T11:01:34Z</time>
      </trkpt>
      <trkpt lat="45.81289" lon="6.4251">
        <ele>1992</ele>
        <time>2018-10-17T11:01:35Z</time>
      </trkpt>
      <trkpt lat="45.81289" lon="6.4251">
        <ele>1992</ele>
        <time>2018-10-17T11:01:36Z</time>
      </trkpt>
      <trkpt lat="45.8129" lon="6.42507">
        <ele>1992</ele>
        <time>2018-10-17T11:01:37Z</time>
      </trkpt>
      <trkpt lat="45.8129" lon="6.42507">
        <ele>1992</ele>
        <time>2018-10-17T11:01:38Z</time>
      </trkpt>
      <trkpt lat="45.8129" lon="6.42504">
        <ele>1992</ele>
        <time>2018-10-17T11:01:39Z</time>
      </trkpt>
      <trkpt lat="45.8129" lon="6.42504">
        <ele>1992</ele>
        <time>2018-10-17T11:01:40Z</time>
      </trkpt>
      <trkpt lat="45.81291" lon="6.42501">
        <ele>1992</ele>
        <time>2018-10-17T11:01:41Z</time>
      </trkpt>
      <trkpt lat="45.81291" lon="6.42501">
        <ele>1992</ele>
        <time>2018-10-17T11:01:42Z</time>
      </trkpt>
      <trkpt lat="45.81292" lon="6.42498">
        <ele>1992</ele>
        <time>2018-10-17T11:01:43Z</time>
      </trkpt>
      <trkpt lat="45.81292" lon="6.42498">
        <ele>1993</ele>
        <time>2018-10-17T11:01:44Z</time>
      </trkpt>
      <trkpt lat="45.81293" lon="6.42496">
        <ele>1993</ele>
        <time>2018-10-17T11:01:45Z</time>
      </trkpt>
      <trkpt lat="45.81293" lon="6.42496">
        <ele>1993</ele>
        <time>2018-10-17T11:01:46Z</time>
      </trkpt>
      <trkpt lat="45.81293" lon="6.42496">
        <ele>1994</ele>
        <time>2018-10-17T11:01:47Z</time>
      </trkpt>
      <trkpt lat="45.81294" lon="6.42493">
        <ele>1994</ele>
        <time>2018-10-17T11:01:48Z</time>
      </trkpt>
      <trkpt lat="45.81294" lon="6.42493">
        <ele>1994</ele>
        <time>2018-10-17T11:01:49Z</time>
      </trkpt>
      <trkpt lat="45.81294" lon="6.42493">
        <ele>1994</ele>
        <time>2018-10-17T11:01:50Z</time>
      </trkpt>
      <trkpt lat="45.81294" lon="6.42493">
        <ele>1994</ele>
        <time>2018-10-17T11:01:51Z</time>
      </trkpt>
      <trkpt lat="45.81294" lon="6.42489">
        <ele>1994</ele>
        <time>2018-10-17T11:01:52Z</time>
      </trkpt>
      <trkpt lat="45.81294" lon="6.42489">
        <ele>1995</ele>
        <time>2018-10-17T11:01:53Z</time>
      </trkpt>
      <trkpt lat="45.81294" lon="6.42489">
        <ele>1995</ele>
        <time>2018-10-17T11:01:54Z</time>
      </trkpt>
      <trkpt lat="45.81294" lon="6.42489">
        <ele>1995</ele>
        <time>2018-10-17T11:01:55Z</time>
      </trkpt>
      <trkpt lat="45.81294" lon="6.42486">
        <ele>1995</ele>
        <time>2018-10-17T11:01:56Z</time>
      </trkpt>
      <trkpt lat="45.81294" lon="6.42486">
        <ele>1996</ele>
        <time>2018-10-17T11:01:57Z</time>
      </trkpt>
      <trkpt lat="45.81294" lon="6.42486">
        <ele>1996</ele>
        <time>2018-10-17T11:01:58Z</time>
      </trkpt>
      <trkpt lat="45.81294" lon="6.42486">
        <ele>1997</ele>
        <time>2018-10-17T11:01:59Z</time>
      </trkpt>
      <trkpt lat="45.81294" lon="6.42484">
        <ele>1997</ele>
        <time>2018-10-17T11:02:00Z</time>
      </trkpt>
      <trkpt lat="45.81294" lon="6.42484">
        <ele>1997</ele>
        <time>2018-10-17T11:02:01Z</time>
      </trkpt>
      <trkpt lat="45.81294" lon="6.42484">
        <ele>1997</ele>
        <time>2018-10-17T11:02:02Z</time>
      </trkpt>
      <trkpt lat="45.81293" lon="6.42481">
        <ele>1997</ele>
        <time>2018-10-17T11:02:03Z</time>
      </trkpt>
      <trkpt lat="45.81293" lon="6.42481">
        <ele>1997</ele>
        <time>2018-10-17T11:02:04Z</time>
      </trkpt>
      <trkpt lat="45.81293" lon="6.42481">
        <ele>1997</ele>
        <time>2018-10-17T11:02:05Z</time>
      </trkpt>
      <trkpt lat="45.81293" lon="6.42481">
        <ele>1998</ele>
        <time>2018-10-17T11:02:06Z</time>
      </trkpt>
      <trkpt lat="45.81292" lon="6.42478">
        <ele>1999</ele>
        <time>2018-10-17T11:02:07Z</time>
      </trkpt>
      <trkpt lat="45.81292" lon="6.42478">
        <ele>1999</ele>
        <time>2018-10-17T11:02:08Z</time>
      </trkpt>
      <trkpt lat="45.81292" lon="6.42478">
        <ele>1999</ele>
        <time>2018-10-17T11:02:09Z</time>
      </trkpt>
      <trkpt lat="45.81292" lon="6.42478">
        <ele>1999</ele>
        <time>2018-10-17T11:02:10Z</time>
      </trkpt>
      <trkpt lat="45.81292" lon="6.42475">
        <ele>1999</ele>
        <time>2018-10-17T11:02:11Z</time>
      </trkpt>
      <trkpt lat="45.81292" lon="6.42475">
        <ele>2000</ele>
        <time>2018-10-17T11:02:12Z</time>
      </trkpt>
      <trkpt lat="45.81292" lon="6.42475">
        <ele>2000</ele>
        <time>2018-10-17T11:02:13Z</time>
      </trkpt>
      <trkpt lat="45.81292" lon="6.42475">
        <ele>2000</ele>
        <time>2018-10-17T11:02:14Z</time>
      </trkpt>
      <trkpt lat="45.81292" lon="6.42475">
        <ele>2000</ele>
        <time>2018-10-17T11:02:15Z</time>
      </trkpt>
      <trkpt lat="45.81292" lon="6.42475">
        <ele>2000</ele>
        <time>2018-10-17T11:02:16Z</time>
      </trkpt>
      <trkpt lat="45.81291" lon="6.42473">
        <ele>2001</ele>
        <time>2018-10-17T11:02:17Z</time>
      </trkpt>
      <trkpt lat="45.81291" lon="6.42473">
        <ele>2001</ele>
        <time>2018-10-17T11:02:18Z</time>
      </trkpt>
      <trkpt lat="45.81291" lon="6.42473">
        <ele>2001</ele>
        <time>2018-10-17T11:02:19Z</time>
      </trkpt>
      <trkpt lat="45.81291" lon="6.42473">
        <ele>2001</ele>
        <time>2018-10-17T11:02:20Z</time>
      </trkpt>
      <trkpt lat="45.81291" lon="6.42473">
        <ele>2001</ele>
        <time>2018-10-17T11:02:21Z</time>
      </trkpt>
      <trkpt lat="45.81291" lon="6.42473">
        <ele>2001</ele>
        <time>2018-10-17T11:02:22Z</time>
      </trkpt>
      <trkpt lat="45.81291" lon="6.42473">
        <ele>2001</ele>
        <time>2018-10-17T11:02:23Z</time>
      </trkpt>
      <trkpt lat="45.81291" lon="6.42473">
        <ele>2001</ele>
        <time>2018-10-17T11:02:24Z</time>
      </trkpt>
      <trkpt lat="45.81291" lon="6.42473">
        <ele>2001</ele>
        <time>2018-10-17T11:02:25Z</time>
      </trkpt>
      <trkpt lat="45.81291" lon="6.42473">
        <ele>2001</ele>
        <time>2018-10-17T11:02:26Z</time>
      </trkpt>
      <trkpt lat="45.81291" lon="6.42473">
        <ele>2001</ele>
        <time>2018-10-17T11:02:27Z</time>
      </trkpt>
      <trkpt lat="45.81291" lon="6.42473">
        <ele>2001</ele>
        <time>2018-10-17T11:02:28Z</time>
      </trkpt>
      <trkpt lat="45.81291" lon="6.42473">
        <ele>2001</ele>
        <time>2018-10-17T11:02:29Z</time>
      </trkpt>
      <trkpt lat="45.81291" lon="6.42473">
        <ele>2002</ele>
        <time>2018-10-17T11:02:30Z</time>
      </trkpt>
      <trkpt lat="45.81291" lon="6.42473">
        <ele>2002</ele>
        <time>2018-10-17T11:02:31Z</time>
      </trkpt>
      <trkpt lat="45.81291" lon="6.42473">
        <ele>2002</ele>
        <time>2018-10-17T11:02:32Z</time>
      </trkpt>
      <trkpt lat="45.81291" lon="6.42473">
        <ele>2002</ele>
        <time>2018-10-17T11:02:33Z</time>
      </trkpt>
      <trkpt lat="45.81291" lon="6.42469">
        <ele>2001</ele>
        <time>2018-10-17T11:02:34Z</time>
      </trkpt>
      <trkpt lat="45.81291" lon="6.42469">
        <ele>2001</ele>
        <time>2018-10-17T11:02:35Z</time>
      </trkpt>
      <trkpt lat="45.81291" lon="6.42469">
        <ele>2003</ele>
        <time>2018-10-17T11:02:36Z</time>
      </trkpt>
      <trkpt lat="45.81291" lon="6.42469">
        <ele>2003</ele>
        <time>2018-10-17T11:02:37Z</time>
      </trkpt>
      <trkpt lat="45.81291" lon="6.42469">
        <ele>2002</ele>
        <time>2018-10-17T11:02:38Z</time>
      </trkpt>
      <trkpt lat="45.81292" lon="6.42467">
        <ele>2004</ele>
        <time>2018-10-17T11:02:39Z</time>
      </trkpt>
      <trkpt lat="45.81292" lon="6.42467">
        <ele>2004</ele>
        <time>2018-10-17T11:02:40Z</time>
      </trkpt>
      <trkpt lat="45.81292" lon="6.42467">
        <ele>2004</ele>
        <time>2018-10-17T11:02:41Z</time>
      </trkpt>
      <trkpt lat="45.81292" lon="6.42467">
        <ele>2003</ele>
        <time>2018-10-17T11:02:42Z</time>
      </trkpt>
      <trkpt lat="45.81294" lon="6.42465">
        <ele>2003</ele>
        <time>2018-10-17T11:02:43Z</time>
      </trkpt>
      <trkpt lat="45.81294" lon="6.42465">
        <ele>2005</ele>
        <time>2018-10-17T11:02:44Z</time>
      </trkpt>
      <trkpt lat="45.81294" lon="6.42465">
        <ele>2005</ele>
        <time>2018-10-17T11:02:45Z</time>
      </trkpt>
      <trkpt lat="45.81296" lon="6.42464">
        <ele>2004</ele>
        <time>2018-10-17T11:02:46Z</time>
      </trkpt>
      <trkpt lat="45.81296" lon="6.42464">
        <ele>2004</ele>
        <time>2018-10-17T11:02:47Z</time>
      </trkpt>
      <trkpt lat="45.81296" lon="6.42464">
        <ele>2004</ele>
        <time>2018-10-17T11:02:48Z</time>
      </trkpt>
      <trkpt lat="45.81297" lon="6.42462">
        <ele>2006</ele>
        <time>2018-10-17T11:02:49Z</time>
      </trkpt>
      <trkpt lat="45.81297" lon="6.42462">
        <ele>2005</ele>
        <time>2018-10-17T11:02:50Z</time>
      </trkpt>
      <trkpt lat="45.81297" lon="6.42462">
        <ele>2005</ele>
        <time>2018-10-17T11:02:51Z</time>
      </trkpt>
      <trkpt lat="45.81299" lon="6.42461">
        <ele>2005</ele>
        <time>2018-10-17T11:02:52Z</time>
      </trkpt>
      <trkpt lat="45.81299" lon="6.42461">
        <ele>2005</ele>
        <time>2018-10-17T11:02:53Z</time>
      </trkpt>
      <trkpt lat="45.81299" lon="6.42461">
        <ele>2006</ele>
        <time>2018-10-17T11:02:54Z</time>
      </trkpt>
      <trkpt lat="45.81299" lon="6.42461">
        <ele>2006</ele>
        <time>2018-10-17T11:02:55Z</time>
      </trkpt>
      <trkpt lat="45.81299" lon="6.42461">
        <ele>2006</ele>
        <time>2018-10-17T11:02:56Z</time>
      </trkpt>
      <trkpt lat="45.81299" lon="6.42461">
        <ele>2006</ele>
        <time>2018-10-17T11:02:57Z</time>
      </trkpt>
      <trkpt lat="45.81298" lon="6.42458">
        <ele>2007</ele>
        <time>2018-10-17T11:02:58Z</time>
      </trkpt>
      <trkpt lat="45.81298" lon="6.42458">
        <ele>2007</ele>
        <time>2018-10-17T11:02:59Z</time>
      </trkpt>
      <trkpt lat="45.81298" lon="6.42458">
        <ele>2007</ele>
        <time>2018-10-17T11:03:00Z</time>
      </trkpt>
      <trkpt lat="45.81297" lon="6.42457">
        <ele>2007</ele>
        <time>2018-10-17T11:03:01Z</time>
      </trkpt>
      <trkpt lat="45.81297" lon="6.42457">
        <ele>2007</ele>
        <time>2018-10-17T11:03:02Z</time>
      </trkpt>
      <trkpt lat="45.81297" lon="6.42457">
        <ele>2007</ele>
        <time>2018-10-17T11:03:03Z</time>
      </trkpt>
      <trkpt lat="45.81297" lon="6.42457">
        <ele>2008</ele>
        <time>2018-10-17T11:03:04Z</time>
      </trkpt>
      <trkpt lat="45.81295" lon="6.42455">
        <ele>2008</ele>
        <time>2018-10-17T11:03:05Z</time>
      </trkpt>
      <trkpt lat="45.81295" lon="6.42455">
        <ele>2009</ele>
        <time>2018-10-17T11:03:06Z</time>
      </trkpt>
      <trkpt lat="45.81295" lon="6.42455">
        <ele>2009</ele>
        <time>2018-10-17T11:03:07Z</time>
      </trkpt>
      <trkpt lat="45.81295" lon="6.42455">
        <ele>2009</ele>
        <time>2018-10-17T11:03:08Z</time>
      </trkpt>
      <trkpt lat="45.81294" lon="6.42453">
        <ele>2009</ele>
        <time>2018-10-17T11:03:09Z</time>
      </trkpt>
      <trkpt lat="45.81294" lon="6.42453">
        <ele>2009</ele>
        <time>2018-10-17T11:03:10Z</time>
      </trkpt>
      <trkpt lat="45.81294" lon="6.42453">
        <ele>2009</ele>
        <time>2018-10-17T11:03:11Z</time>
      </trkpt>
      <trkpt lat="45.81294" lon="6.42453">
        <ele>2009</ele>
        <time>2018-10-17T11:03:12Z</time>
      </trkpt>
      <trkpt lat="45.81294" lon="6.42453">
        <ele>2012</ele>
        <time>2018-10-17T11:03:13Z</time>
      </trkpt>
      <trkpt lat="45.81292" lon="6.42451">
        <ele>2011</ele>
        <time>2018-10-17T11:03:14Z</time>
      </trkpt>
      <trkpt lat="45.81292" lon="6.42451">
        <ele>2011</ele>
        <time>2018-10-17T11:03:15Z</time>
      </trkpt>
      <trkpt lat="45.81292" lon="6.42451">
        <ele>2011</ele>
        <time>2018-10-17T11:03:16Z</time>
      </trkpt>
      <trkpt lat="45.81292" lon="6.42451">
        <ele>2011</ele>
        <time>2018-10-17T11:03:17Z</time>
      </trkpt>
      <trkpt lat="45.81291" lon="6.42449">
        <ele>2011</ele>
        <time>2018-10-17T11:03:18Z</time>
      </trkpt>
      <trkpt lat="45.81291" lon="6.42449">
        <ele>2012</ele>
        <time>2018-10-17T11:03:19Z</time>
      </trkpt>
      <trkpt lat="45.81291" lon="6.42449">
        <ele>2012</ele>
        <time>2018-10-17T11:03:20Z</time>
      </trkpt>
      <trkpt lat="45.81291" lon="6.42449">
        <ele>2012</ele>
        <time>2018-10-17T11:03:21Z</time>
      </trkpt>
      <trkpt lat="45.81291" lon="6.42449">
        <ele>2012</ele>
        <time>2018-10-17T11:03:22Z</time>
      </trkpt>
      <trkpt lat="45.81291" lon="6.42449">
        <ele>2012</ele>
        <time>2018-10-17T11:03:23Z</time>
      </trkpt>
      <trkpt lat="45.81291" lon="6.42449">
        <ele>2012</ele>
        <time>2018-10-17T11:03:24Z</time>
      </trkpt>
      <trkpt lat="45.81291" lon="6.42449">
        <ele>2013</ele>
        <time>2018-10-17T11:03:25Z</time>
      </trkpt>
      <trkpt lat="45.81291" lon="6.42449">
        <ele>2013</ele>
        <time>2018-10-17T11:03:26Z</time>
      </trkpt>
      <trkpt lat="45.81289" lon="6.42447">
        <ele>2013</ele>
        <time>2018-10-17T11:03:27Z</time>
      </trkpt>
      <trkpt lat="45.81289" lon="6.42447">
        <ele>2013</ele>
        <time>2018-10-17T11:03:28Z</time>
      </trkpt>
      <trkpt lat="45.81289" lon="6.42447">
        <ele>2013</ele>
        <time>2018-10-17T11:03:29Z</time>
      </trkpt>
      <trkpt lat="45.81289" lon="6.42447">
        <ele>2013</ele>
        <time>2018-10-17T11:03:30Z</time>
      </trkpt>
      <trkpt lat="45.81291" lon="6.42445">
        <ele>2013</ele>
        <time>2018-10-17T11:03:31Z</time>
      </trkpt>
      <trkpt lat="45.81291" lon="6.42445">
        <ele>2014</ele>
        <time>2018-10-17T11:03:32Z</time>
      </trkpt>
      <trkpt lat="45.81291" lon="6.42445">
        <ele>2014</ele>
        <time>2018-10-17T11:03:33Z</time>
      </trkpt>
      <trkpt lat="45.81291" lon="6.42445">
        <ele>2014</ele>
        <time>2018-10-17T11:03:34Z</time>
      </trkpt>
      <trkpt lat="45.81291" lon="6.42445">
        <ele>2015</ele>
        <time>2018-10-17T11:03:35Z</time>
      </trkpt>
      <trkpt lat="45.81291" lon="6.42445">
        <ele>2015</ele>
        <time>2018-10-17T11:03:36Z</time>
      </trkpt>
      <trkpt lat="45.81291" lon="6.42445">
        <ele>2015</ele>
        <time>2018-10-17T11:03:37Z</time>
      </trkpt>
      <trkpt lat="45.81291" lon="6.42445">
        <ele>2015</ele>
        <time>2018-10-17T11:03:38Z</time>
      </trkpt>
      <trkpt lat="45.81291" lon="6.42445">
        <ele>2015</ele>
        <time>2018-10-17T11:03:39Z</time>
      </trkpt>
      <trkpt lat="45.81291" lon="6.42445">
        <ele>2015</ele>
        <time>2018-10-17T11:03:40Z</time>
      </trkpt>
      <trkpt lat="45.81291" lon="6.42445">
        <ele>2015</ele>
        <time>2018-10-17T11:03:41Z</time>
      </trkpt>
      <trkpt lat="45.8129" lon="6.42443">
        <ele>2015</ele>
        <time>2018-10-17T11:03:42Z</time>
      </trkpt>
      <trkpt lat="45.8129" lon="6.42443">
        <ele>2015</ele>
        <time>2018-10-17T11:03:43Z</time>
      </trkpt>
      <trkpt lat="45.8129" lon="6.42443">
        <ele>2015</ele>
        <time>2018-10-17T11:03:44Z</time>
      </trkpt>
      <trkpt lat="45.8129" lon="6.42443">
        <ele>2016</ele>
        <time>2018-10-17T11:03:45Z</time>
      </trkpt>
      <trkpt lat="45.8129" lon="6.4244">
        <ele>2017</ele>
        <time>2018-10-17T11:03:46Z</time>
      </trkpt>
      <trkpt lat="45.8129" lon="6.4244">
        <ele>2017</ele>
        <time>2018-10-17T11:03:47Z</time>
      </trkpt>
      <trkpt lat="45.8129" lon="6.4244">
        <ele>2017</ele>
        <time>2018-10-17T11:03:48Z</time>
      </trkpt>
      <trkpt lat="45.81291" lon="6.42439">
        <ele>2017</ele>
        <time>2018-10-17T11:03:49Z</time>
      </trkpt>
      <trkpt lat="45.81291" lon="6.42439">
        <ele>2017</ele>
        <time>2018-10-17T11:03:50Z</time>
      </trkpt>
      <trkpt lat="45.81291" lon="6.42439">
        <ele>2018</ele>
        <time>2018-10-17T11:03:51Z</time>
      </trkpt>
      <trkpt lat="45.81293" lon="6.42435">
        <ele>2019</ele>
        <time>2018-10-17T11:03:52Z</time>
      </trkpt>
      <trkpt lat="45.81293" lon="6.42435">
        <ele>2019</ele>
        <time>2018-10-17T11:03:53Z</time>
      </trkpt>
      <trkpt lat="45.81293" lon="6.42435">
        <ele>2019</ele>
        <time>2018-10-17T11:03:54Z</time>
      </trkpt>
      <trkpt lat="45.81295" lon="6.42436">
        <ele>2019</ele>
        <time>2018-10-17T11:03:55Z</time>
      </trkpt>
      <trkpt lat="45.81295" lon="6.42436">
        <ele>2019</ele>
        <time>2018-10-17T11:03:56Z</time>
      </trkpt>
      <trkpt lat="45.81295" lon="6.42436">
        <ele>2018</ele>
        <time>2018-10-17T11:03:57Z</time>
      </trkpt>
      <trkpt lat="45.81297" lon="6.42435">
        <ele>2018</ele>
        <time>2018-10-17T11:03:58Z</time>
      </trkpt>
      <trkpt lat="45.81297" lon="6.42435">
        <ele>2018</ele>
        <time>2018-10-17T11:03:59Z</time>
      </trkpt>
      <trkpt lat="45.81297" lon="6.42435">
        <ele>2019</ele>
        <time>2018-10-17T11:04:00Z</time>
      </trkpt>
      <trkpt lat="45.81297" lon="6.42435">
        <ele>2019</ele>
        <time>2018-10-17T11:04:01Z</time>
      </trkpt>
      <trkpt lat="45.81299" lon="6.42434">
        <ele>2019</ele>
        <time>2018-10-17T11:04:02Z</time>
      </trkpt>
      <trkpt lat="45.81299" lon="6.42434">
        <ele>2019</ele>
        <time>2018-10-17T11:04:03Z</time>
      </trkpt>
      <trkpt lat="45.81299" lon="6.42434">
        <ele>2019</ele>
        <time>2018-10-17T11:04:04Z</time>
      </trkpt>
      <trkpt lat="45.81299" lon="6.42434">
        <ele>2019</ele>
        <time>2018-10-17T11:04:05Z</time>
      </trkpt>
      <trkpt lat="45.81299" lon="6.42434">
        <ele>2019</ele>
        <time>2018-10-17T11:04:06Z</time>
      </trkpt>
      <trkpt lat="45.81299" lon="6.42434">
        <ele>2019</ele>
        <time>2018-10-17T11:04:07Z</time>
      </trkpt>
      <trkpt lat="45.81299" lon="6.42434">
        <ele>2019</ele>
        <time>2018-10-17T11:04:08Z</time>
      </trkpt>
      <trkpt lat="45.81301" lon="6.42432">
        <ele>2019</ele>
        <time>2018-10-17T11:04:09Z</time>
      </trkpt>
      <trkpt lat="45.81301" lon="6.42432">
        <ele>2019</ele>
        <time>2018-10-17T11:04:10Z</time>
      </trkpt>
      <trkpt lat="45.81301" lon="6.42432">
        <ele>2020</ele>
        <time>2018-10-17T11:04:11Z</time>
      </trkpt>
      <trkpt lat="45.81301" lon="6.42432">
        <ele>2020</ele>
        <time>2018-10-17T11:04:12Z</time>
      </trkpt>
      <trkpt lat="45.81301" lon="6.42432">
        <ele>2020</ele>
        <time>2018-10-17T11:04:13Z</time>
      </trkpt>
      <trkpt lat="45.81301" lon="6.42432">
        <ele>2020</ele>
        <time>2018-10-17T11:04:14Z</time>
      </trkpt>
      <trkpt lat="45.81301" lon="6.42432">
        <ele>2022</ele>
        <time>2018-10-17T11:04:15Z</time>
      </trkpt>
      <trkpt lat="45.81301" lon="6.42432">
        <ele>2022</ele>
        <time>2018-10-17T11:04:16Z</time>
      </trkpt>
      <trkpt lat="45.81301" lon="6.42432">
        <ele>2022</ele>
        <time>2018-10-17T11:04:17Z</time>
      </trkpt>
      <trkpt lat="45.81301" lon="6.42432">
        <ele>2022</ele>
        <time>2018-10-17T11:04:18Z</time>
      </trkpt>
      <trkpt lat="45.81304" lon="6.42433">
        <ele>2022</ele>
        <time>2018-10-17T11:04:19Z</time>
      </trkpt>
      <trkpt lat="45.81304" lon="6.42433">
        <ele>2022</ele>
        <time>2018-10-17T11:04:20Z</time>
      </trkpt>
      <trkpt lat="45.81304" lon="6.42433">
        <ele>2022</ele>
        <time>2018-10-17T11:04:21Z</time>
      </trkpt>
      <trkpt lat="45.81304" lon="6.42433">
        <ele>2022</ele>
        <time>2018-10-17T11:04:22Z</time>
      </trkpt>
      <trkpt lat="45.81304" lon="6.42433">
        <ele>2022</ele>
        <time>2018-10-17T11:04:23Z</time>
      </trkpt>
      <trkpt lat="45.81304" lon="6.42433">
        <ele>2022</ele>
        <time>2018-10-17T11:04:24Z</time>
      </trkpt>
      <trkpt lat="45.81304" lon="6.42433">
        <ele>2022</ele>
        <time>2018-10-17T11:04:25Z</time>
      </trkpt>
      <trkpt lat="45.81304" lon="6.42433">
        <ele>2023</ele>
        <time>2018-10-17T11:04:26Z</time>
      </trkpt>
      <trkpt lat="45.81304" lon="6.42433">
        <ele>2023</ele>
        <time>2018-10-17T11:04:27Z</time>
      </trkpt>
      <trkpt lat="45.81304" lon="6.42433">
        <ele>2023</ele>
        <time>2018-10-17T11:04:28Z</time>
      </trkpt>
      <trkpt lat="45.81304" lon="6.42433">
        <ele>2023</ele>
        <time>2018-10-17T11:04:29Z</time>
      </trkpt>
      <trkpt lat="45.81306" lon="6.42435">
        <ele>2023</ele>
        <time>2018-10-17T11:04:30Z</time>
      </trkpt>
      <trkpt lat="45.81306" lon="6.42435">
        <ele>2022</ele>
        <time>2018-10-17T11:04:31Z</time>
      </trkpt>
      <trkpt lat="45.81308" lon="6.42435">
        <ele>2022</ele>
        <time>2018-10-17T11:04:32Z</time>
      </trkpt>
      <trkpt lat="45.81308" lon="6.42435">
        <ele>2022</ele>
        <time>2018-10-17T11:04:33Z</time>
      </trkpt>
      <trkpt lat="45.81308" lon="6.42435">
        <ele>2022</ele>
        <time>2018-10-17T11:04:34Z</time>
      </trkpt>
      <trkpt lat="45.8131" lon="6.42437">
        <ele>2022</ele>
        <time>2018-10-17T11:04:35Z</time>
      </trkpt>
      <trkpt lat="45.8131" lon="6.42437">
        <ele>2020</ele>
        <time>2018-10-17T11:04:36Z</time>
      </trkpt>
      <trkpt lat="45.81311" lon="6.42439">
        <ele>2020</ele>
        <time>2018-10-17T11:04:37Z</time>
      </trkpt>
      <trkpt lat="45.81311" lon="6.42439">
        <ele>2019</ele>
        <time>2018-10-17T11:04:38Z</time>
      </trkpt>
      <trkpt lat="45.81313" lon="6.4244">
        <ele>2019</ele>
        <time>2018-10-17T11:04:39Z</time>
      </trkpt>
      <trkpt lat="45.81313" lon="6.4244">
        <ele>2019</ele>
        <time>2018-10-17T11:04:40Z</time>
      </trkpt>
      <trkpt lat="45.81313" lon="6.4244">
        <ele>2019</ele>
        <time>2018-10-17T11:04:41Z</time>
      </trkpt>
      <trkpt lat="45.81315" lon="6.42439">
        <ele>2019</ele>
        <time>2018-10-17T11:04:42Z</time>
      </trkpt>
      <trkpt lat="45.81315" lon="6.42439">
        <ele>2020</ele>
        <time>2018-10-17T11:04:43Z</time>
      </trkpt>
      <trkpt lat="45.81315" lon="6.42439">
        <ele>2020</ele>
        <time>2018-10-17T11:04:44Z</time>
      </trkpt>
      <trkpt lat="45.81314" lon="6.42436">
        <ele>2020</ele>
        <time>2018-10-17T11:04:45Z</time>
      </trkpt>
      <trkpt lat="45.81314" lon="6.42436">
        <ele>2020</ele>
        <time>2018-10-17T11:04:46Z</time>
      </trkpt>
      <trkpt lat="45.81314" lon="6.42436">
        <ele>2020</ele>
        <time>2018-10-17T11:04:47Z</time>
      </trkpt>
      <trkpt lat="45.81314" lon="6.42433">
        <ele>2020</ele>
        <time>2018-10-17T11:04:48Z</time>
      </trkpt>
      <trkpt lat="45.81314" lon="6.42433">
        <ele>2020</ele>
        <time>2018-10-17T11:04:49Z</time>
      </trkpt>
      <trkpt lat="45.81314" lon="6.42433">
        <ele>2020</ele>
        <time>2018-10-17T11:04:50Z</time>
      </trkpt>
      <trkpt lat="45.81312" lon="6.42432">
        <ele>2022</ele>
        <time>2018-10-17T11:04:51Z</time>
      </trkpt>
      <trkpt lat="45.81312" lon="6.42432">
        <ele>2022</ele>
        <time>2018-10-17T11:04:52Z</time>
      </trkpt>
      <trkpt lat="45.81312" lon="6.42432">
        <ele>2022</ele>
        <time>2018-10-17T11:04:53Z</time>
      </trkpt>
      <trkpt lat="45.81312" lon="6.42432">
        <ele>2022</ele>
        <time>2018-10-17T11:04:54Z</time>
      </trkpt>
      <trkpt lat="45.81312" lon="6.42432">
        <ele>2023</ele>
        <time>2018-10-17T11:04:55Z</time>
      </trkpt>
      <trkpt lat="45.81309" lon="6.42432">
        <ele>2023</ele>
        <time>2018-10-17T11:04:56Z</time>
      </trkpt>
      <trkpt lat="45.81309" lon="6.42432">
        <ele>2023</ele>
        <time>2018-10-17T11:04:57Z</time>
      </trkpt>
      <trkpt lat="45.81309" lon="6.42432">
        <ele>2023</ele>
        <time>2018-10-17T11:04:58Z</time>
      </trkpt>
      <trkpt lat="45.81307" lon="6.42431">
        <ele>2023</ele>
        <time>2018-10-17T11:04:59Z</time>
      </trkpt>
      <trkpt lat="45.81307" lon="6.42431">
        <ele>2023</ele>
        <time>2018-10-17T11:05:00Z</time>
      </trkpt>
      <trkpt lat="45.81307" lon="6.42431">
        <ele>2023</ele>
        <time>2018-10-17T11:05:01Z</time>
      </trkpt>
      <trkpt lat="45.81306" lon="6.42431">
        <ele>2024</ele>
        <time>2018-10-17T11:05:02Z</time>
      </trkpt>
      <trkpt lat="45.81306" lon="6.42431">
        <ele>2024</ele>
        <time>2018-10-17T11:05:03Z</time>
      </trkpt>
      <trkpt lat="45.81306" lon="6.42431">
        <ele>2024</ele>
        <time>2018-10-17T11:05:04Z</time>
      </trkpt>
      <trkpt lat="45.81303" lon="6.4243">
        <ele>2024</ele>
        <time>2018-10-17T11:05:05Z</time>
      </trkpt>
      <trkpt lat="45.81303" lon="6.4243">
        <ele>2024</ele>
        <time>2018-10-17T11:05:06Z</time>
      </trkpt>
      <trkpt lat="45.81301" lon="6.4243">
        <ele>2025</ele>
        <time>2018-10-17T11:05:07Z</time>
      </trkpt>
      <trkpt lat="45.81301" lon="6.4243">
        <ele>2025</ele>
        <time>2018-10-17T11:05:08Z</time>
      </trkpt>
      <trkpt lat="45.81301" lon="6.4243">
        <ele>2026</ele>
        <time>2018-10-17T11:05:09Z</time>
      </trkpt>
      <trkpt lat="45.81299" lon="6.42427">
        <ele>2026</ele>
        <time>2018-10-17T11:05:10Z</time>
      </trkpt>
      <trkpt lat="45.81299" lon="6.42427">
        <ele>2027</ele>
        <time>2018-10-17T11:05:11Z</time>
      </trkpt>
      <trkpt lat="45.81299" lon="6.42427">
        <ele>2027</ele>
        <time>2018-10-17T11:05:12Z</time>
      </trkpt>
      <trkpt lat="45.81297" lon="6.42425">
        <ele>2027</ele>
        <time>2018-10-17T11:05:13Z</time>
      </trkpt>
      <trkpt lat="45.81297" lon="6.42425">
        <ele>2027</ele>
        <time>2018-10-17T11:05:14Z</time>
      </trkpt>
      <trkpt lat="45.81297" lon="6.42425">
        <ele>2027</ele>
        <time>2018-10-17T11:05:15Z</time>
      </trkpt>
      <trkpt lat="45.81297" lon="6.42425">
        <ele>2027</ele>
        <time>2018-10-17T11:05:16Z</time>
      </trkpt>
      <trkpt lat="45.81297" lon="6.42425">
        <ele>2027</ele>
        <time>2018-10-17T11:05:17Z</time>
      </trkpt>
      <trkpt lat="45.81297" lon="6.42425">
        <ele>2027</ele>
        <time>2018-10-17T11:05:18Z</time>
      </trkpt>
      <trkpt lat="45.81297" lon="6.42425">
        <ele>2027</ele>
        <time>2018-10-17T11:05:19Z</time>
      </trkpt>
      <trkpt lat="45.81297" lon="6.42425">
        <ele>2027</ele>
        <time>2018-10-17T11:05:20Z</time>
      </trkpt>
      <trkpt lat="45.81297" lon="6.42425">
        <ele>2028</ele>
        <time>2018-10-17T11:05:21Z</time>
      </trkpt>
      <trkpt lat="45.81296" lon="6.42424">
        <ele>2028</ele>
        <time>2018-10-17T11:05:22Z</time>
      </trkpt>
      <trkpt lat="45.81296" lon="6.42424">
        <ele>2028</ele>
        <time>2018-10-17T11:05:23Z</time>
      </trkpt>
      <trkpt lat="45.81296" lon="6.42424">
        <ele>2028</ele>
        <time>2018-10-17T11:05:24Z</time>
      </trkpt>
      <trkpt lat="45.81295" lon="6.42421">
        <ele>2028</ele>
        <time>2018-10-17T11:05:25Z</time>
      </trkpt>
      <trkpt lat="45.81295" lon="6.42421">
        <ele>2027</ele>
        <time>2018-10-17T11:05:26Z</time>
      </trkpt>
      <trkpt lat="45.81295" lon="6.42421">
        <ele>2025</ele>
        <time>2018-10-17T11:05:27Z</time>
      </trkpt>
      <trkpt lat="45.81295" lon="6.42418">
        <ele>2027</ele>
        <time>2018-10-17T11:05:28Z</time>
      </trkpt>
      <trkpt lat="45.81295" lon="6.42418">
        <ele>2027</ele>
        <time>2018-10-17T11:05:29Z</time>
      </trkpt>
      <trkpt lat="45.81293" lon="6.42416">
        <ele>2027</ele>
        <time>2018-10-17T11:05:30Z</time>
      </trkpt>
      <trkpt lat="45.81293" lon="6.42416">
        <ele>2027</ele>
        <time>2018-10-17T11:05:31Z</time>
      </trkpt>
      <trkpt lat="45.81293" lon="6.42416">
        <ele>2027</ele>
        <time>2018-10-17T11:05:32Z</time>
      </trkpt>
      <trkpt lat="45.81291" lon="6.42414">
        <ele>2027</ele>
        <time>2018-10-17T11:05:33Z</time>
      </trkpt>
      <trkpt lat="45.81291" lon="6.42414">
        <ele>2027</ele>
        <time>2018-10-17T11:05:34Z</time>
      </trkpt>
      <trkpt lat="45.8129" lon="6.42411">
        <ele>2027</ele>
        <time>2018-10-17T11:05:35Z</time>
      </trkpt>
      <trkpt lat="45.8129" lon="6.42411">
        <ele>2027</ele>
        <time>2018-10-17T11:05:36Z</time>
      </trkpt>
      <trkpt lat="45.81289" lon="6.42408">
        <ele>2027</ele>
        <time>2018-10-17T11:05:37Z</time>
      </trkpt>
      <trkpt lat="45.81289" lon="6.42408">
        <ele>2027</ele>
        <time>2018-10-17T11:05:38Z</time>
      </trkpt>
      <trkpt lat="45.81288" lon="6.42406">
        <ele>2027</ele>
        <time>2018-10-17T11:05:39Z</time>
      </trkpt>
      <trkpt lat="45.81288" lon="6.42406">
        <ele>2027</ele>
        <time>2018-10-17T11:05:40Z</time>
      </trkpt>
      <trkpt lat="45.81286" lon="6.42404">
        <ele>2027</ele>
        <time>2018-10-17T11:05:41Z</time>
      </trkpt>
      <trkpt lat="45.81286" lon="6.42404">
        <ele>2027</ele>
        <time>2018-10-17T11:05:42Z</time>
      </trkpt>
      <trkpt lat="45.81284" lon="6.42402">
        <ele>2028</ele>
        <time>2018-10-17T11:05:43Z</time>
      </trkpt>
      <trkpt lat="45.81284" lon="6.42402">
        <ele>2028</ele>
        <time>2018-10-17T11:05:44Z</time>
      </trkpt>
      <trkpt lat="45.81282" lon="6.424">
        <ele>2028</ele>
        <time>2018-10-17T11:05:45Z</time>
      </trkpt>
      <trkpt lat="45.81282" lon="6.424">
        <ele>2028</ele>
        <time>2018-10-17T11:05:46Z</time>
      </trkpt>
      <trkpt lat="45.8128" lon="6.42397">
        <ele>2028</ele>
        <time>2018-10-17T11:05:47Z</time>
      </trkpt>
      <trkpt lat="45.8128" lon="6.42397">
        <ele>2028</ele>
        <time>2018-10-17T11:05:48Z</time>
      </trkpt>
      <trkpt lat="45.81278" lon="6.42395">
        <ele>2028</ele>
        <time>2018-10-17T11:05:49Z</time>
      </trkpt>
      <trkpt lat="45.81278" lon="6.42395">
        <ele>2028</ele>
        <time>2018-10-17T11:05:50Z</time>
      </trkpt>
      <trkpt lat="45.81277" lon="6.42394">
        <ele>2028</ele>
        <time>2018-10-17T11:05:51Z</time>
      </trkpt>
      <trkpt lat="45.81277" lon="6.42394">
        <ele>2028</ele>
        <time>2018-10-17T11:05:52Z</time>
      </trkpt>
      <trkpt lat="45.81275" lon="6.42392">
        <ele>2028</ele>
        <time>2018-10-17T11:05:53Z</time>
      </trkpt>
      <trkpt lat="45.81275" lon="6.42392">
        <ele>2029</ele>
        <time>2018-10-17T11:05:54Z</time>
      </trkpt>
      <trkpt lat="45.81272" lon="6.42391">
        <ele>2029</ele>
        <time>2018-10-17T11:05:55Z</time>
      </trkpt>
      <trkpt lat="45.81272" lon="6.42391">
        <ele>2029</ele>
        <time>2018-10-17T11:05:56Z</time>
      </trkpt>
      <trkpt lat="45.8127" lon="6.42391">
        <ele>2029</ele>
        <time>2018-10-17T11:05:57Z</time>
      </trkpt>
      <trkpt lat="45.8127" lon="6.42391">
        <ele>2029</ele>
        <time>2018-10-17T11:05:58Z</time>
      </trkpt>
      <trkpt lat="45.81268" lon="6.42391">
        <ele>2029</ele>
        <time>2018-10-17T11:05:59Z</time>
      </trkpt>
      <trkpt lat="45.81268" lon="6.42391">
        <ele>2029</ele>
        <time>2018-10-17T11:06:00Z</time>
      </trkpt>
      <trkpt lat="45.81266" lon="6.42392">
        <ele>2029</ele>
        <time>2018-10-17T11:06:01Z</time>
      </trkpt>
      <trkpt lat="45.81266" lon="6.42392">
        <ele>2029</ele>
        <time>2018-10-17T11:06:02Z</time>
      </trkpt>
      <trkpt lat="45.81264" lon="6.42393">
        <ele>2029</ele>
        <time>2018-10-17T11:06:03Z</time>
      </trkpt>
      <trkpt lat="45.81264" lon="6.42393">
        <ele>2029</ele>
        <time>2018-10-17T11:06:04Z</time>
      </trkpt>
      <trkpt lat="45.81262" lon="6.42393">
        <ele>2029</ele>
        <time>2018-10-17T11:06:05Z</time>
      </trkpt>
      <trkpt lat="45.81262" lon="6.42393">
        <ele>2029</ele>
        <time>2018-10-17T11:06:06Z</time>
      </trkpt>
      <trkpt lat="45.81259" lon="6.42394">
        <ele>2029</ele>
        <time>2018-10-17T11:06:07Z</time>
      </trkpt>
      <trkpt lat="45.81259" lon="6.42394">
        <ele>2029</ele>
        <time>2018-10-17T11:06:08Z</time>
      </trkpt>
      <trkpt lat="45.81257" lon="6.42395">
        <ele>2029</ele>
        <time>2018-10-17T11:06:09Z</time>
      </trkpt>
      <trkpt lat="45.81257" lon="6.42395">
        <ele>2029</ele>
        <time>2018-10-17T11:06:10Z</time>
      </trkpt>
      <trkpt lat="45.81255" lon="6.42395">
        <ele>2029</ele>
        <time>2018-10-17T11:06:11Z</time>
      </trkpt>
      <trkpt lat="45.81255" lon="6.42395">
        <ele>2029</ele>
        <time>2018-10-17T11:06:12Z</time>
      </trkpt>
      <trkpt lat="45.81253" lon="6.42395">
        <ele>2029</ele>
        <time>2018-10-17T11:06:13Z</time>
      </trkpt>
      <trkpt lat="45.81253" lon="6.42395">
        <ele>2029</ele>
        <time>2018-10-17T11:06:14Z</time>
      </trkpt>
      <trkpt lat="45.81251" lon="6.42395">
        <ele>2029</ele>
        <time>2018-10-17T11:06:15Z</time>
      </trkpt>
      <trkpt lat="45.81251" lon="6.42395">
        <ele>2029</ele>
        <time>2018-10-17T11:06:16Z</time>
      </trkpt>
      <trkpt lat="45.81249" lon="6.42395">
        <ele>2029</ele>
        <time>2018-10-17T11:06:17Z</time>
      </trkpt>
      <trkpt lat="45.81249" lon="6.42395">
        <ele>2028</ele>
        <time>2018-10-17T11:06:18Z</time>
      </trkpt>
      <trkpt lat="45.81246" lon="6.42396">
        <ele>2028</ele>
        <time>2018-10-17T11:06:19Z</time>
      </trkpt>
      <trkpt lat="45.81246" lon="6.42396">
        <ele>2027</ele>
        <time>2018-10-17T11:06:20Z</time>
      </trkpt>
      <trkpt lat="45.81243" lon="6.42397">
        <ele>2027</ele>
        <time>2018-10-17T11:06:21Z</time>
      </trkpt>
      <trkpt lat="45.81243" lon="6.42397">
        <ele>2027</ele>
        <time>2018-10-17T11:06:22Z</time>
      </trkpt>
      <trkpt lat="45.8124" lon="6.42398">
        <ele>2027</ele>
        <time>2018-10-17T11:06:23Z</time>
      </trkpt>
      <trkpt lat="45.8124" lon="6.42398">
        <ele>2027</ele>
        <time>2018-10-17T11:06:24Z</time>
      </trkpt>
      <trkpt lat="45.81238" lon="6.42399">
        <ele>2027</ele>
        <time>2018-10-17T11:06:25Z</time>
      </trkpt>
      <trkpt lat="45.81238" lon="6.42399">
        <ele>2027</ele>
        <time>2018-10-17T11:06:26Z</time>
      </trkpt>
      <trkpt lat="45.81235" lon="6.42399">
        <ele>2027</ele>
        <time>2018-10-17T11:06:27Z</time>
      </trkpt>
      <trkpt lat="45.81235" lon="6.42399">
        <ele>2027</ele>
        <time>2018-10-17T11:06:28Z</time>
      </trkpt>
      <trkpt lat="45.81233" lon="6.42399">
        <ele>2027</ele>
        <time>2018-10-17T11:06:29Z</time>
      </trkpt>
      <trkpt lat="45.81233" lon="6.42399">
        <ele>2027</ele>
        <time>2018-10-17T11:06:30Z</time>
      </trkpt>
      <trkpt lat="45.81231" lon="6.42399">
        <ele>2027</ele>
        <time>2018-10-17T11:06:31Z</time>
      </trkpt>
      <trkpt lat="45.81231" lon="6.42399">
        <ele>2027</ele>
        <time>2018-10-17T11:06:32Z</time>
      </trkpt>
      <trkpt lat="45.81228" lon="6.42399">
        <ele>2027</ele>
        <time>2018-10-17T11:06:33Z</time>
      </trkpt>
      <trkpt lat="45.81228" lon="6.42399">
        <ele>2027</ele>
        <time>2018-10-17T11:06:34Z</time>
      </trkpt>
      <trkpt lat="45.81228" lon="6.42399">
        <ele>2027</ele>
        <time>2018-10-17T11:06:35Z</time>
      </trkpt>
      <trkpt lat="45.81226" lon="6.424">
        <ele>2027</ele>
        <time>2018-10-17T11:06:36Z</time>
      </trkpt>
      <trkpt lat="45.81226" lon="6.424">
        <ele>2027</ele>
        <time>2018-10-17T11:06:37Z</time>
      </trkpt>
      <trkpt lat="45.81226" lon="6.424">
        <ele>2027</ele>
        <time>2018-10-17T11:06:38Z</time>
      </trkpt>
      <trkpt lat="45.81226" lon="6.424">
        <ele>2027</ele>
        <time>2018-10-17T11:06:39Z</time>
      </trkpt>
      <trkpt lat="45.81226" lon="6.424">
        <ele>2027</ele>
        <time>2018-10-17T11:06:40Z</time>
      </trkpt>
      <trkpt lat="45.81226" lon="6.424">
        <ele>2027</ele>
        <time>2018-10-17T11:06:41Z</time>
      </trkpt>
      <trkpt lat="45.81226" lon="6.424">
        <ele>2027</ele>
        <time>2018-10-17T11:06:42Z</time>
      </trkpt>
      <trkpt lat="45.81226" lon="6.424">
        <ele>2027</ele>
        <time>2018-10-17T11:06:43Z</time>
      </trkpt>
      <trkpt lat="45.81226" lon="6.424">
        <ele>2027</ele>
        <time>2018-10-17T11:06:44Z</time>
      </trkpt>
      <trkpt lat="45.81226" lon="6.424">
        <ele>2027</ele>
        <time>2018-10-17T11:06:45Z</time>
      </trkpt>
      <trkpt lat="45.81226" lon="6.424">
        <ele>2028</ele>
        <time>2018-10-17T11:06:46Z</time>
      </trkpt>
      <trkpt lat="45.81226" lon="6.424">
        <ele>2028</ele>
        <time>2018-10-17T11:06:47Z</time>
      </trkpt>
      <trkpt lat="45.81226" lon="6.424">
        <ele>2028</ele>
        <time>2018-10-17T11:06:48Z</time>
      </trkpt>
      <trkpt lat="45.81226" lon="6.424">
        <ele>2028</ele>
        <time>2018-10-17T11:06:49Z</time>
      </trkpt>
      <trkpt lat="45.81226" lon="6.424">
        <ele>2028</ele>
        <time>2018-10-17T11:06:50Z</time>
      </trkpt>
      <trkpt lat="45.81226" lon="6.424">
        <ele>2028</ele>
        <time>2018-10-17T11:06:51Z</time>
      </trkpt>
      <trkpt lat="45.81226" lon="6.424">
        <ele>2028</ele>
        <time>2018-10-17T11:06:52Z</time>
      </trkpt>
      <trkpt lat="45.81226" lon="6.424">
        <ele>2028</ele>
        <time>2018-10-17T11:06:53Z</time>
      </trkpt>
      <trkpt lat="45.81226" lon="6.424">
        <ele>2028</ele>
        <time>2018-10-17T11:06:54Z</time>
      </trkpt>
      <trkpt lat="45.81226" lon="6.424">
        <ele>2028</ele>
        <time>2018-10-17T11:06:55Z</time>
      </trkpt>
      <trkpt lat="45.81226" lon="6.424">
        <ele>2028</ele>
        <time>2018-10-17T11:06:56Z</time>
      </trkpt>
      <trkpt lat="45.81226" lon="6.424">
        <ele>2028</ele>
        <time>2018-10-17T11:06:57Z</time>
      </trkpt>
      <trkpt lat="45.81226" lon="6.424">
        <ele>2028</ele>
        <time>2018-10-17T11:06:58Z</time>
      </trkpt>
      <trkpt lat="45.81226" lon="6.424">
        <ele>2028</ele>
        <time>2018-10-17T11:06:59Z</time>
      </trkpt>
      <trkpt lat="45.81226" lon="6.424">
        <ele>2028</ele>
        <time>2018-10-17T11:07:00Z</time>
      </trkpt>
      <trkpt lat="45.81224" lon="6.42401">
        <ele>2028</ele>
        <time>2018-10-17T11:07:01Z</time>
      </trkpt>
      <trkpt lat="45.81224" lon="6.42401">
        <ele>2028</ele>
        <time>2018-10-17T11:07:02Z</time>
      </trkpt>
      <trkpt lat="45.81224" lon="6.42401">
        <ele>2028</ele>
        <time>2018-10-17T11:07:03Z</time>
      </trkpt>
      <trkpt lat="45.81221" lon="6.42401">
        <ele>2028</ele>
        <time>2018-10-17T11:07:04Z</time>
      </trkpt>
      <trkpt lat="45.81221" lon="6.42401">
        <ele>2028</ele>
        <time>2018-10-17T11:07:05Z</time>
      </trkpt>
      <trkpt lat="45.81221" lon="6.42401">
        <ele>2028</ele>
        <time>2018-10-17T11:07:06Z</time>
      </trkpt>
      <trkpt lat="45.81219" lon="6.424">
        <ele>2028</ele>
        <time>2018-10-17T11:07:07Z</time>
      </trkpt>
      <trkpt lat="45.81219" lon="6.424">
        <ele>2029</ele>
        <time>2018-10-17T11:07:08Z</time>
      </trkpt>
      <trkpt lat="45.81219" lon="6.424">
        <ele>2029</ele>
        <time>2018-10-17T11:07:09Z</time>
      </trkpt>
      <trkpt lat="45.81219" lon="6.424">
        <ele>2029</ele>
        <time>2018-10-17T11:07:10Z</time>
      </trkpt>
      <trkpt lat="45.81217" lon="6.42399">
        <ele>2029</ele>
        <time>2018-10-17T11:07:11Z</time>
      </trkpt>
      <trkpt lat="45.81217" lon="6.42399">
        <ele>2029</ele>
        <time>2018-10-17T11:07:12Z</time>
      </trkpt>
      <trkpt lat="45.81217" lon="6.42399">
        <ele>2030</ele>
        <time>2018-10-17T11:07:13Z</time>
      </trkpt>
      <trkpt lat="45.81214" lon="6.42399">
        <ele>2030</ele>
        <time>2018-10-17T11:07:14Z</time>
      </trkpt>
      <trkpt lat="45.81214" lon="6.42399">
        <ele>2031</ele>
        <time>2018-10-17T11:07:15Z</time>
      </trkpt>
      <trkpt lat="45.81214" lon="6.42399">
        <ele>2031</ele>
        <time>2018-10-17T11:07:16Z</time>
      </trkpt>
      <trkpt lat="45.81212" lon="6.42399">
        <ele>2031</ele>
        <time>2018-10-17T11:07:17Z</time>
      </trkpt>
      <trkpt lat="45.81212" lon="6.42399">
        <ele>2031</ele>
        <time>2018-10-17T11:07:18Z</time>
      </trkpt>
      <trkpt lat="45.81212" lon="6.42399">
        <ele>2031</ele>
        <time>2018-10-17T11:07:19Z</time>
      </trkpt>
      <trkpt lat="45.81211" lon="6.42397">
        <ele>2032</ele>
        <time>2018-10-17T11:07:20Z</time>
      </trkpt>
      <trkpt lat="45.81211" lon="6.42397">
        <ele>2032</ele>
        <time>2018-10-17T11:07:21Z</time>
      </trkpt>
      <trkpt lat="45.81211" lon="6.42397">
        <ele>2032</ele>
        <time>2018-10-17T11:07:22Z</time>
      </trkpt>
      <trkpt lat="45.81209" lon="6.42395">
        <ele>2032</ele>
        <time>2018-10-17T11:07:23Z</time>
      </trkpt>
      <trkpt lat="45.81209" lon="6.42395">
        <ele>2033</ele>
        <time>2018-10-17T11:07:24Z</time>
      </trkpt>
      <trkpt lat="45.81209" lon="6.42395">
        <ele>2033</ele>
        <time>2018-10-17T11:07:25Z</time>
      </trkpt>
      <trkpt lat="45.81209" lon="6.42395">
        <ele>2033</ele>
        <time>2018-10-17T11:07:26Z</time>
      </trkpt>
      <trkpt lat="45.81209" lon="6.42395">
        <ele>2034</ele>
        <time>2018-10-17T11:07:27Z</time>
      </trkpt>
      <trkpt lat="45.81209" lon="6.42395">
        <ele>2034</ele>
        <time>2018-10-17T11:07:28Z</time>
      </trkpt>
      <trkpt lat="45.81208" lon="6.42392">
        <ele>2034</ele>
        <time>2018-10-17T11:07:29Z</time>
      </trkpt>
      <trkpt lat="45.81208" lon="6.42392">
        <ele>2035</ele>
        <time>2018-10-17T11:07:30Z</time>
      </trkpt>
      <trkpt lat="45.81208" lon="6.42392">
        <ele>2035</ele>
        <time>2018-10-17T11:07:31Z</time>
      </trkpt>
      <trkpt lat="45.81207" lon="6.4239">
        <ele>2035</ele>
        <time>2018-10-17T11:07:32Z</time>
      </trkpt>
      <trkpt lat="45.81207" lon="6.4239">
        <ele>2036</ele>
        <time>2018-10-17T11:07:33Z</time>
      </trkpt>
      <trkpt lat="45.81207" lon="6.4239">
        <ele>2036</ele>
        <time>2018-10-17T11:07:34Z</time>
      </trkpt>
      <trkpt lat="45.81207" lon="6.4239">
        <ele>2036</ele>
        <time>2018-10-17T11:07:35Z</time>
      </trkpt>
      <trkpt lat="45.81205" lon="6.42387">
        <ele>2036</ele>
        <time>2018-10-17T11:07:36Z</time>
      </trkpt>
      <trkpt lat="45.81205" lon="6.42387">
        <ele>2036</ele>
        <time>2018-10-17T11:07:37Z</time>
      </trkpt>
      <trkpt lat="45.81204" lon="6.42385">
        <ele>2036</ele>
        <time>2018-10-17T11:07:38Z</time>
      </trkpt>
      <trkpt lat="45.81204" lon="6.42385">
        <ele>2036</ele>
        <time>2018-10-17T11:07:39Z</time>
      </trkpt>
      <trkpt lat="45.81203" lon="6.42382">
        <ele>2036</ele>
        <time>2018-10-17T11:07:40Z</time>
      </trkpt>
      <trkpt lat="45.81203" lon="6.42382">
        <ele>2036</ele>
        <time>2018-10-17T11:07:41Z</time>
      </trkpt>
      <trkpt lat="45.81201" lon="6.4238">
        <ele>2036</ele>
        <time>2018-10-17T11:07:42Z</time>
      </trkpt>
      <trkpt lat="45.81201" lon="6.4238">
        <ele>2036</ele>
        <time>2018-10-17T11:07:43Z</time>
      </trkpt>
      <trkpt lat="45.812" lon="6.42377">
        <ele>2036</ele>
        <time>2018-10-17T11:07:44Z</time>
      </trkpt>
      <trkpt lat="45.812" lon="6.42377">
        <ele>2036</ele>
        <time>2018-10-17T11:07:45Z</time>
      </trkpt>
      <trkpt lat="45.81198" lon="6.42375">
        <ele>2036</ele>
        <time>2018-10-17T11:07:46Z</time>
      </trkpt>
      <trkpt lat="45.81198" lon="6.42375">
        <ele>2036</ele>
        <time>2018-10-17T11:07:47Z</time>
      </trkpt>
      <trkpt lat="45.81197" lon="6.42373">
        <ele>2036</ele>
        <time>2018-10-17T11:07:48Z</time>
      </trkpt>
      <trkpt lat="45.81197" lon="6.42373">
        <ele>2036</ele>
        <time>2018-10-17T11:07:49Z</time>
      </trkpt>
      <trkpt lat="45.81195" lon="6.42371">
        <ele>2036</ele>
        <time>2018-10-17T11:07:50Z</time>
      </trkpt>
      <trkpt lat="45.81195" lon="6.42371">
        <ele>2036</ele>
        <time>2018-10-17T11:07:51Z</time>
      </trkpt>
      <trkpt lat="45.81194" lon="6.42369">
        <ele>2034</ele>
        <time>2018-10-17T11:07:52Z</time>
      </trkpt>
      <trkpt lat="45.81194" lon="6.42369">
        <ele>2034</ele>
        <time>2018-10-17T11:07:53Z</time>
      </trkpt>
      <trkpt lat="45.81193" lon="6.42367">
        <ele>2034</ele>
        <time>2018-10-17T11:07:54Z</time>
      </trkpt>
      <trkpt lat="45.81193" lon="6.42367">
        <ele>2033</ele>
        <time>2018-10-17T11:07:55Z</time>
      </trkpt>
      <trkpt lat="45.81191" lon="6.42365">
        <ele>2033</ele>
        <time>2018-10-17T11:07:56Z</time>
      </trkpt>
      <trkpt lat="45.81191" lon="6.42365">
        <ele>2033</ele>
        <time>2018-10-17T11:07:57Z</time>
      </trkpt>
      <trkpt lat="45.81191" lon="6.42365">
        <ele>2033</ele>
        <time>2018-10-17T11:07:58Z</time>
      </trkpt>
      <trkpt lat="45.8119" lon="6.42362">
        <ele>2032</ele>
        <time>2018-10-17T11:07:59Z</time>
      </trkpt>
      <trkpt lat="45.8119" lon="6.42362">
        <ele>2032</ele>
        <time>2018-10-17T11:08:00Z</time>
      </trkpt>
      <trkpt lat="45.8119" lon="6.4236">
        <ele>2032</ele>
        <time>2018-10-17T11:08:01Z</time>
      </trkpt>
      <trkpt lat="45.8119" lon="6.4236">
        <ele>2032</ele>
        <time>2018-10-17T11:08:02Z</time>
      </trkpt>
      <trkpt lat="45.8119" lon="6.4236">
        <ele>2032</ele>
        <time>2018-10-17T11:08:03Z</time>
      </trkpt>
      <trkpt lat="45.81188" lon="6.42357">
        <ele>2031</ele>
        <time>2018-10-17T11:08:04Z</time>
      </trkpt>
      <trkpt lat="45.81188" lon="6.42357">
        <ele>2031</ele>
        <time>2018-10-17T11:08:05Z</time>
      </trkpt>
      <trkpt lat="45.81188" lon="6.42357">
        <ele>2031</ele>
        <time>2018-10-17T11:08:06Z</time>
      </trkpt>
      <trkpt lat="45.81186" lon="6.42354">
        <ele>2030</ele>
        <time>2018-10-17T11:08:07Z</time>
      </trkpt>
      <trkpt lat="45.81186" lon="6.42354">
        <ele>2030</ele>
        <time>2018-10-17T11:08:08Z</time>
      </trkpt>
      <trkpt lat="45.81185" lon="6.42352">
        <ele>2030</ele>
        <time>2018-10-17T11:08:09Z</time>
      </trkpt>
      <trkpt lat="45.81185" lon="6.42352">
        <ele>2029</ele>
        <time>2018-10-17T11:08:10Z</time>
      </trkpt>
      <trkpt lat="45.81185" lon="6.42349">
        <ele>2028</ele>
        <time>2018-10-17T11:08:11Z</time>
      </trkpt>
      <trkpt lat="45.81185" lon="6.42349">
        <ele>2028</ele>
        <time>2018-10-17T11:08:12Z</time>
      </trkpt>
      <trkpt lat="45.81184" lon="6.42346">
        <ele>2028</ele>
        <time>2018-10-17T11:08:13Z</time>
      </trkpt>
      <trkpt lat="45.81184" lon="6.42346">
        <ele>2027</ele>
        <time>2018-10-17T11:08:14Z</time>
      </trkpt>
      <trkpt lat="45.81183" lon="6.42345">
        <ele>2026</ele>
        <time>2018-10-17T11:08:15Z</time>
      </trkpt>
      <trkpt lat="45.81183" lon="6.42345">
        <ele>2026</ele>
        <time>2018-10-17T11:08:16Z</time>
      </trkpt>
      <trkpt lat="45.8118" lon="6.42343">
        <ele>2026</ele>
        <time>2018-10-17T11:08:17Z</time>
      </trkpt>
      <trkpt lat="45.81179" lon="6.42341">
        <ele>2026</ele>
        <time>2018-10-17T11:08:18Z</time>
      </trkpt>
      <trkpt lat="45.81179" lon="6.42341">
        <ele>2026</ele>
        <time>2018-10-17T11:08:19Z</time>
      </trkpt>
      <trkpt lat="45.81177" lon="6.42338">
        <ele>2025</ele>
        <time>2018-10-17T11:08:20Z</time>
      </trkpt>
      <trkpt lat="45.81177" lon="6.42338">
        <ele>2025</ele>
        <time>2018-10-17T11:08:21Z</time>
      </trkpt>
      <trkpt lat="45.81176" lon="6.42336">
        <ele>2025</ele>
        <time>2018-10-17T11:08:22Z</time>
      </trkpt>
      <trkpt lat="45.81176" lon="6.42336">
        <ele>2025</ele>
        <time>2018-10-17T11:08:23Z</time>
      </trkpt>
      <trkpt lat="45.81174" lon="6.42334">
        <ele>2025</ele>
        <time>2018-10-17T11:08:24Z</time>
      </trkpt>
      <trkpt lat="45.81174" lon="6.42334">
        <ele>2025</ele>
        <time>2018-10-17T11:08:25Z</time>
      </trkpt>
      <trkpt lat="45.81174" lon="6.42334">
        <ele>2025</ele>
        <time>2018-10-17T11:08:26Z</time>
      </trkpt>
      <trkpt lat="45.81172" lon="6.42332">
        <ele>2025</ele>
        <time>2018-10-17T11:08:27Z</time>
      </trkpt>
      <trkpt lat="45.81172" lon="6.42332">
        <ele>2024</ele>
        <time>2018-10-17T11:08:28Z</time>
      </trkpt>
      <trkpt lat="45.81172" lon="6.42332">
        <ele>2024</ele>
        <time>2018-10-17T11:08:29Z</time>
      </trkpt>
      <trkpt lat="45.81172" lon="6.42332">
        <ele>2024</ele>
        <time>2018-10-17T11:08:30Z</time>
      </trkpt>
      <trkpt lat="45.8117" lon="6.42331">
        <ele>2024</ele>
        <time>2018-10-17T11:08:31Z</time>
      </trkpt>
      <trkpt lat="45.8117" lon="6.42331">
        <ele>2023</ele>
        <time>2018-10-17T11:08:32Z</time>
      </trkpt>
      <trkpt lat="45.8117" lon="6.42331">
        <ele>2023</ele>
        <time>2018-10-17T11:08:33Z</time>
      </trkpt>
      <trkpt lat="45.8117" lon="6.42331">
        <ele>2023</ele>
        <time>2018-10-17T11:08:34Z</time>
      </trkpt>
      <trkpt lat="45.8117" lon="6.42331">
        <ele>2023</ele>
        <time>2018-10-17T11:08:35Z</time>
      </trkpt>
      <trkpt lat="45.8117" lon="6.42331">
        <ele>2023</ele>
        <time>2018-10-17T11:08:36Z</time>
      </trkpt>
      <trkpt lat="45.8117" lon="6.42331">
        <ele>2023</ele>
        <time>2018-10-17T11:08:37Z</time>
      </trkpt>
      <trkpt lat="45.8117" lon="6.42331">
        <ele>2023</ele>
        <time>2018-10-17T11:08:38Z</time>
      </trkpt>
      <trkpt lat="45.8117" lon="6.42331">
        <ele>2023</ele>
        <time>2018-10-17T11:08:39Z</time>
      </trkpt>
      <trkpt lat="45.8117" lon="6.42331">
        <ele>2023</ele>
        <time>2018-10-17T11:08:40Z</time>
      </trkpt>
      <trkpt lat="45.8117" lon="6.42331">
        <ele>2023</ele>
        <time>2018-10-17T11:08:41Z</time>
      </trkpt>
      <trkpt lat="45.8117" lon="6.42331">
        <ele>2023</ele>
        <time>2018-10-17T11:08:42Z</time>
      </trkpt>
      <trkpt lat="45.8117" lon="6.42331">
        <ele>2023</ele>
        <time>2018-10-17T11:08:43Z</time>
      </trkpt>
      <trkpt lat="45.8117" lon="6.42331">
        <ele>2023</ele>
        <time>2018-10-17T11:08:44Z</time>
      </trkpt>
      <trkpt lat="45.8117" lon="6.42331">
        <ele>2023</ele>
        <time>2018-10-17T11:08:45Z</time>
      </trkpt>
      <trkpt lat="45.8117" lon="6.42331">
        <ele>2023</ele>
        <time>2018-10-17T11:08:46Z</time>
      </trkpt>
      <trkpt lat="45.8117" lon="6.42331">
        <ele>2023</ele>
        <time>2018-10-17T11:08:47Z</time>
      </trkpt>
      <trkpt lat="45.8117" lon="6.42331">
        <ele>2023</ele>
        <time>2018-10-17T11:08:48Z</time>
      </trkpt>
      <trkpt lat="45.8117" lon="6.42331">
        <ele>2023</ele>
        <time>2018-10-17T11:08:49Z</time>
      </trkpt>
      <trkpt lat="45.8117" lon="6.42331">
        <ele>2023</ele>
        <time>2018-10-17T11:08:50Z</time>
      </trkpt>
      <trkpt lat="45.8117" lon="6.42331">
        <ele>2023</ele>
        <time>2018-10-17T11:08:51Z</time>
      </trkpt>
      <trkpt lat="45.8117" lon="6.42331">
        <ele>2023</ele>
        <time>2018-10-17T11:08:52Z</time>
      </trkpt>
      <trkpt lat="45.8117" lon="6.42331">
        <ele>2023</ele>
        <time>2018-10-17T11:08:53Z</time>
      </trkpt>
      <trkpt lat="45.8117" lon="6.42327">
        <ele>2023</ele>
        <time>2018-10-17T11:08:54Z</time>
      </trkpt>
      <trkpt lat="45.8117" lon="6.42327">
        <ele>2022</ele>
        <time>2018-10-17T11:08:55Z</time>
      </trkpt>
      <trkpt lat="45.8117" lon="6.42327">
        <ele>2022</ele>
        <time>2018-10-17T11:08:56Z</time>
      </trkpt>
      <trkpt lat="45.81169" lon="6.42324">
        <ele>2022</ele>
        <time>2018-10-17T11:08:57Z</time>
      </trkpt>
      <trkpt lat="45.81169" lon="6.42324">
        <ele>2022</ele>
        <time>2018-10-17T11:08:58Z</time>
      </trkpt>
      <trkpt lat="45.81169" lon="6.42324">
        <ele>2021</ele>
        <time>2018-10-17T11:08:59Z</time>
      </trkpt>
      <trkpt lat="45.81169" lon="6.42324">
        <ele>2021</ele>
        <time>2018-10-17T11:09:00Z</time>
      </trkpt>
      <trkpt lat="45.81169" lon="6.42324">
        <ele>2021</ele>
        <time>2018-10-17T11:09:01Z</time>
      </trkpt>
      <trkpt lat="45.81169" lon="6.42324">
        <ele>2022</ele>
        <time>2018-10-17T11:09:02Z</time>
      </trkpt>
      <trkpt lat="45.81169" lon="6.42324">
        <ele>2022</ele>
        <time>2018-10-17T11:09:03Z</time>
      </trkpt>
      <trkpt lat="45.81169" lon="6.42324">
        <ele>2022</ele>
        <time>2018-10-17T11:09:04Z</time>
      </trkpt>
      <trkpt lat="45.81169" lon="6.42324">
        <ele>2022</ele>
        <time>2018-10-17T11:09:05Z</time>
      </trkpt>
      <trkpt lat="45.81169" lon="6.42324">
        <ele>2023</ele>
        <time>2018-10-17T11:09:06Z</time>
      </trkpt>
      <trkpt lat="45.81169" lon="6.42324">
        <ele>2023</ele>
        <time>2018-10-17T11:09:07Z</time>
      </trkpt>
      <trkpt lat="45.81169" lon="6.42324">
        <ele>2023</ele>
        <time>2018-10-17T11:09:08Z</time>
      </trkpt>
      <trkpt lat="45.81169" lon="6.42324">
        <ele>2023</ele>
        <time>2018-10-17T11:09:09Z</time>
      </trkpt>
      <trkpt lat="45.81169" lon="6.42324">
        <ele>2022</ele>
        <time>2018-10-17T11:09:10Z</time>
      </trkpt>
      <trkpt lat="45.81169" lon="6.42324">
        <ele>2022</ele>
        <time>2018-10-17T11:09:11Z</time>
      </trkpt>
      <trkpt lat="45.81169" lon="6.42324">
        <ele>2022</ele>
        <time>2018-10-17T11:09:12Z</time>
      </trkpt>
      <trkpt lat="45.81169" lon="6.42324">
        <ele>2022</ele>
        <time>2018-10-17T11:09:13Z</time>
      </trkpt>
      <trkpt lat="45.81169" lon="6.42324">
        <ele>2022</ele>
        <time>2018-10-17T11:09:14Z</time>
      </trkpt>
      <trkpt lat="45.81169" lon="6.42324">
        <ele>2022</ele>
        <time>2018-10-17T11:09:15Z</time>
      </trkpt>
      <trkpt lat="45.81169" lon="6.42324">
        <ele>2022</ele>
        <time>2018-10-17T11:09:16Z</time>
      </trkpt>
      <trkpt lat="45.81169" lon="6.42324">
        <ele>2022</ele>
        <time>2018-10-17T11:09:17Z</time>
      </trkpt>
      <trkpt lat="45.81169" lon="6.42327">
        <ele>2022</ele>
        <time>2018-10-17T11:09:18Z</time>
      </trkpt>
      <trkpt lat="45.81169" lon="6.42327">
        <ele>2022</ele>
        <time>2018-10-17T11:09:19Z</time>
      </trkpt>
      <trkpt lat="45.81169" lon="6.42327">
        <ele>2022</ele>
        <time>2018-10-17T11:09:20Z</time>
      </trkpt>
      <trkpt lat="45.81169" lon="6.4233">
        <ele>2022</ele>
        <time>2018-10-17T11:09:21Z</time>
      </trkpt>
      <trkpt lat="45.81169" lon="6.4233">
        <ele>2023</ele>
        <time>2018-10-17T11:09:22Z</time>
      </trkpt>
      <trkpt lat="45.81169" lon="6.4233">
        <ele>2023</ele>
        <time>2018-10-17T11:09:23Z</time>
      </trkpt>
      <trkpt lat="45.81169" lon="6.42333">
        <ele>2023</ele>
        <time>2018-10-17T11:09:24Z</time>
      </trkpt>
      <trkpt lat="45.81169" lon="6.42333">
        <ele>2024</ele>
        <time>2018-10-17T11:09:25Z</time>
      </trkpt>
      <trkpt lat="45.81169" lon="6.42333">
        <ele>2024</ele>
        <time>2018-10-17T11:09:26Z</time>
      </trkpt>
      <trkpt lat="45.81169" lon="6.42333">
        <ele>2024</ele>
        <time>2018-10-17T11:09:27Z</time>
      </trkpt>
      <trkpt lat="45.81169" lon="6.42336">
        <ele>2024</ele>
        <time>2018-10-17T11:09:28Z</time>
      </trkpt>
      <trkpt lat="45.81169" lon="6.42336">
        <ele>2024</ele>
        <time>2018-10-17T11:09:29Z</time>
      </trkpt>
      <trkpt lat="45.81169" lon="6.42336">
        <ele>2025</ele>
        <time>2018-10-17T11:09:30Z</time>
      </trkpt>
      <trkpt lat="45.81169" lon="6.42336">
        <ele>2026</ele>
        <time>2018-10-17T11:09:31Z</time>
      </trkpt>
      <trkpt lat="45.81168" lon="6.42339">
        <ele>2026</ele>
        <time>2018-10-17T11:09:32Z</time>
      </trkpt>
      <trkpt lat="45.81168" lon="6.42339">
        <ele>2026</ele>
        <time>2018-10-17T11:09:33Z</time>
      </trkpt>
      <trkpt lat="45.81168" lon="6.42339">
        <ele>2026</ele>
        <time>2018-10-17T11:09:34Z</time>
      </trkpt>
      <trkpt lat="45.81168" lon="6.42339">
        <ele>2026</ele>
        <time>2018-10-17T11:09:35Z</time>
      </trkpt>
      <trkpt lat="45.81168" lon="6.42339">
        <ele>2026</ele>
        <time>2018-10-17T11:09:36Z</time>
      </trkpt>
      <trkpt lat="45.81168" lon="6.42339">
        <ele>2026</ele>
        <time>2018-10-17T11:09:37Z</time>
      </trkpt>
      <trkpt lat="45.81167" lon="6.42342">
        <ele>2026</ele>
        <time>2018-10-17T11:09:38Z</time>
      </trkpt>
      <trkpt lat="45.81167" lon="6.42342">
        <ele>2026</ele>
        <time>2018-10-17T11:09:39Z</time>
      </trkpt>
      <trkpt lat="45.81167" lon="6.42342">
        <ele>2027</ele>
        <time>2018-10-17T11:09:40Z</time>
      </trkpt>
      <trkpt lat="45.81167" lon="6.42342">
        <ele>2028</ele>
        <time>2018-10-17T11:09:41Z</time>
      </trkpt>
      <trkpt lat="45.81167" lon="6.42342">
        <ele>2028</ele>
        <time>2018-10-17T11:09:42Z</time>
      </trkpt>
      <trkpt lat="45.81166" lon="6.42344">
        <ele>2028</ele>
        <time>2018-10-17T11:09:43Z</time>
      </trkpt>
      <trkpt lat="45.81166" lon="6.42344">
        <ele>2028</ele>
        <time>2018-10-17T11:09:44Z</time>
      </trkpt>
      <trkpt lat="45.81166" lon="6.42344">
        <ele>2028</ele>
        <time>2018-10-17T11:09:45Z</time>
      </trkpt>
      <trkpt lat="45.81166" lon="6.42344">
        <ele>2028</ele>
        <time>2018-10-17T11:09:46Z</time>
      </trkpt>
      <trkpt lat="45.81166" lon="6.42344">
        <ele>2029</ele>
        <time>2018-10-17T11:09:47Z</time>
      </trkpt>
      <trkpt lat="45.81164" lon="6.42346">
        <ele>2030</ele>
        <time>2018-10-17T11:09:48Z</time>
      </trkpt>
      <trkpt lat="45.81164" lon="6.42346">
        <ele>2030</ele>
        <time>2018-10-17T11:09:49Z</time>
      </trkpt>
      <trkpt lat="45.81164" lon="6.42346">
        <ele>2030</ele>
        <time>2018-10-17T11:09:50Z</time>
      </trkpt>
      <trkpt lat="45.81164" lon="6.42346">
        <ele>2030</ele>
        <time>2018-10-17T11:09:51Z</time>
      </trkpt>
      <trkpt lat="45.81164" lon="6.42346">
        <ele>2030</ele>
        <time>2018-10-17T11:09:52Z</time>
      </trkpt>
      <trkpt lat="45.81164" lon="6.42346">
        <ele>2030</ele>
        <time>2018-10-17T11:09:53Z</time>
      </trkpt>
      <trkpt lat="45.81164" lon="6.42346">
        <ele>2031</ele>
        <time>2018-10-17T11:09:54Z</time>
      </trkpt>
      <trkpt lat="45.81164" lon="6.42346">
        <ele>2031</ele>
        <time>2018-10-17T11:09:55Z</time>
      </trkpt>
      <trkpt lat="45.81162" lon="6.42348">
        <ele>2031</ele>
        <time>2018-10-17T11:09:56Z</time>
      </trkpt>
      <trkpt lat="45.81162" lon="6.42348">
        <ele>2031</ele>
        <time>2018-10-17T11:09:57Z</time>
      </trkpt>
      <trkpt lat="45.81162" lon="6.42348">
        <ele>2032</ele>
        <time>2018-10-17T11:09:58Z</time>
      </trkpt>
      <trkpt lat="45.81162" lon="6.42348">
        <ele>2032</ele>
        <time>2018-10-17T11:09:59Z</time>
      </trkpt>
      <trkpt lat="45.81162" lon="6.42348">
        <ele>2032</ele>
        <time>2018-10-17T11:10:00Z</time>
      </trkpt>
      <trkpt lat="45.81162" lon="6.42348">
        <ele>2032</ele>
        <time>2018-10-17T11:10:01Z</time>
      </trkpt>
      <trkpt lat="45.81162" lon="6.42348">
        <ele>2033</ele>
        <time>2018-10-17T11:10:02Z</time>
      </trkpt>
      <trkpt lat="45.81162" lon="6.42348">
        <ele>2034</ele>
        <time>2018-10-17T11:10:03Z</time>
      </trkpt>
      <trkpt lat="45.81162" lon="6.42348">
        <ele>2034</ele>
        <time>2018-10-17T11:10:04Z</time>
      </trkpt>
      <trkpt lat="45.81162" lon="6.42348">
        <ele>2034</ele>
        <time>2018-10-17T11:10:05Z</time>
      </trkpt>
      <trkpt lat="45.81162" lon="6.42348">
        <ele>2034</ele>
        <time>2018-10-17T11:10:06Z</time>
      </trkpt>
      <trkpt lat="45.81162" lon="6.42348">
        <ele>2034</ele>
        <time>2018-10-17T11:10:07Z</time>
      </trkpt>
      <trkpt lat="45.81161" lon="6.4235">
        <ele>2034</ele>
        <time>2018-10-17T11:10:08Z</time>
      </trkpt>
      <trkpt lat="45.81161" lon="6.4235">
        <ele>2035</ele>
        <time>2018-10-17T11:10:09Z</time>
      </trkpt>
      <trkpt lat="45.81161" lon="6.4235">
        <ele>2035</ele>
        <time>2018-10-17T11:10:10Z</time>
      </trkpt>
      <trkpt lat="45.81161" lon="6.4235">
        <ele>2036</ele>
        <time>2018-10-17T11:10:11Z</time>
      </trkpt>
      <trkpt lat="45.81161" lon="6.4235">
        <ele>2036</ele>
        <time>2018-10-17T11:10:12Z</time>
      </trkpt>
      <trkpt lat="45.81161" lon="6.4235">
        <ele>2036</ele>
        <time>2018-10-17T11:10:13Z</time>
      </trkpt>
      <trkpt lat="45.81161" lon="6.4235">
        <ele>2036</ele>
        <time>2018-10-17T11:10:14Z</time>
      </trkpt>
      <trkpt lat="45.81161" lon="6.4235">
        <ele>2036</ele>
        <time>2018-10-17T11:10:15Z</time>
      </trkpt>
      <trkpt lat="45.8116" lon="6.42352">
        <ele>2036</ele>
        <time>2018-10-17T11:10:16Z</time>
      </trkpt>
      <trkpt lat="45.8116" lon="6.42352">
        <ele>2036</ele>
        <time>2018-10-17T11:10:17Z</time>
      </trkpt>
      <trkpt lat="45.8116" lon="6.42352">
        <ele>2036</ele>
        <time>2018-10-17T11:10:18Z</time>
      </trkpt>
      <trkpt lat="45.8116" lon="6.42352">
        <ele>2037</ele>
        <time>2018-10-17T11:10:19Z</time>
      </trkpt>
      <trkpt lat="45.81158" lon="6.42354">
        <ele>2037</ele>
        <time>2018-10-17T11:10:20Z</time>
      </trkpt>
      <trkpt lat="45.81158" lon="6.42354">
        <ele>2038</ele>
        <time>2018-10-17T11:10:21Z</time>
      </trkpt>
      <trkpt lat="45.81158" lon="6.42354">
        <ele>2038</ele>
        <time>2018-10-17T11:10:22Z</time>
      </trkpt>
      <trkpt lat="45.81156" lon="6.42354">
        <ele>2038</ele>
        <time>2018-10-17T11:10:23Z</time>
      </trkpt>
      <trkpt lat="45.81156" lon="6.42354">
        <ele>2039</ele>
        <time>2018-10-17T11:10:24Z</time>
      </trkpt>
      <trkpt lat="45.81156" lon="6.42354">
        <ele>2039</ele>
        <time>2018-10-17T11:10:25Z</time>
      </trkpt>
      <trkpt lat="45.81156" lon="6.42354">
        <ele>2039</ele>
        <time>2018-10-17T11:10:26Z</time>
      </trkpt>
      <trkpt lat="45.81156" lon="6.42354">
        <ele>2040</ele>
        <time>2018-10-17T11:10:27Z</time>
      </trkpt>
      <trkpt lat="45.81156" lon="6.42354">
        <ele>2040</ele>
        <time>2018-10-17T11:10:28Z</time>
      </trkpt>
      <trkpt lat="45.81155" lon="6.42356">
        <ele>2040</ele>
        <time>2018-10-17T11:10:29Z</time>
      </trkpt>
      <trkpt lat="45.81155" lon="6.42356">
        <ele>2040</ele>
        <time>2018-10-17T11:10:30Z</time>
      </trkpt>
      <trkpt lat="45.81155" lon="6.42356">
        <ele>2040</ele>
        <time>2018-10-17T11:10:31Z</time>
      </trkpt>
      <trkpt lat="45.81153" lon="6.42358">
        <ele>2041</ele>
        <time>2018-10-17T11:10:32Z</time>
      </trkpt>
      <trkpt lat="45.81153" lon="6.42358">
        <ele>2041</ele>
        <time>2018-10-17T11:10:33Z</time>
      </trkpt>
      <trkpt lat="45.81153" lon="6.42358">
        <ele>2041</ele>
        <time>2018-10-17T11:10:34Z</time>
      </trkpt>
      <trkpt lat="45.81153" lon="6.42358">
        <ele>2041</ele>
        <time>2018-10-17T11:10:35Z</time>
      </trkpt>
      <trkpt lat="45.81153" lon="6.42358">
        <ele>2041</ele>
        <time>2018-10-17T11:10:36Z</time>
      </trkpt>
      <trkpt lat="45.81153" lon="6.42358">
        <ele>2042</ele>
        <time>2018-10-17T11:10:37Z</time>
      </trkpt>
      <trkpt lat="45.81153" lon="6.42358">
        <ele>2042</ele>
        <time>2018-10-17T11:10:38Z</time>
      </trkpt>
      <trkpt lat="45.81153" lon="6.42358">
        <ele>2042</ele>
        <time>2018-10-17T11:10:39Z</time>
      </trkpt>
      <trkpt lat="45.81153" lon="6.42358">
        <ele>2042</ele>
        <time>2018-10-17T11:10:40Z</time>
      </trkpt>
      <trkpt lat="45.81153" lon="6.42358">
        <ele>2042</ele>
        <time>2018-10-17T11:10:41Z</time>
      </trkpt>
      <trkpt lat="45.81153" lon="6.42358">
        <ele>2042</ele>
        <time>2018-10-17T11:10:42Z</time>
      </trkpt>
      <trkpt lat="45.81153" lon="6.42358">
        <ele>2042</ele>
        <time>2018-10-17T11:10:43Z</time>
      </trkpt>
      <trkpt lat="45.81153" lon="6.42358">
        <ele>2042</ele>
        <time>2018-10-17T11:10:44Z</time>
      </trkpt>
      <trkpt lat="45.81153" lon="6.42358">
        <ele>2043</ele>
        <time>2018-10-17T11:10:45Z</time>
      </trkpt>
      <trkpt lat="45.81153" lon="6.42358">
        <ele>2043</ele>
        <time>2018-10-17T11:10:46Z</time>
      </trkpt>
      <trkpt lat="45.81153" lon="6.42358">
        <ele>2043</ele>
        <time>2018-10-17T11:10:47Z</time>
      </trkpt>
      <trkpt lat="45.81153" lon="6.42361">
        <ele>2043</ele>
        <time>2018-10-17T11:10:48Z</time>
      </trkpt>
      <trkpt lat="45.81153" lon="6.42361">
        <ele>2043</ele>
        <time>2018-10-17T11:10:49Z</time>
      </trkpt>
      <trkpt lat="45.81153" lon="6.42361">
        <ele>2044</ele>
        <time>2018-10-17T11:10:50Z</time>
      </trkpt>
      <trkpt lat="45.81153" lon="6.42361">
        <ele>2045</ele>
        <time>2018-10-17T11:10:51Z</time>
      </trkpt>
      <trkpt lat="45.81153" lon="6.42361">
        <ele>2045</ele>
        <time>2018-10-17T11:10:52Z</time>
      </trkpt>
      <trkpt lat="45.81153" lon="6.42361">
        <ele>2045</ele>
        <time>2018-10-17T11:10:53Z</time>
      </trkpt>
      <trkpt lat="45.81153" lon="6.42361">
        <ele>2046</ele>
        <time>2018-10-17T11:10:54Z</time>
      </trkpt>
      <trkpt lat="45.81153" lon="6.42361">
        <ele>2046</ele>
        <time>2018-10-17T11:10:55Z</time>
      </trkpt>
      <trkpt lat="45.81153" lon="6.42361">
        <ele>2046</ele>
        <time>2018-10-17T11:10:56Z</time>
      </trkpt>
      <trkpt lat="45.81153" lon="6.42361">
        <ele>2046</ele>
        <time>2018-10-17T11:10:57Z</time>
      </trkpt>
      <trkpt lat="45.81153" lon="6.42361">
        <ele>2047</ele>
        <time>2018-10-17T11:10:58Z</time>
      </trkpt>
      <trkpt lat="45.81153" lon="6.42361">
        <ele>2047</ele>
        <time>2018-10-17T11:10:59Z</time>
      </trkpt>
      <trkpt lat="45.81151" lon="6.42363">
        <ele>2047</ele>
        <time>2018-10-17T11:11:00Z</time>
      </trkpt>
      <trkpt lat="45.81151" lon="6.42363">
        <ele>2047</ele>
        <time>2018-10-17T11:11:01Z</time>
      </trkpt>
      <trkpt lat="45.81151" lon="6.42363">
        <ele>2047</ele>
        <time>2018-10-17T11:11:02Z</time>
      </trkpt>
      <trkpt lat="45.81151" lon="6.42363">
        <ele>2047</ele>
        <time>2018-10-17T11:11:03Z</time>
      </trkpt>
      <trkpt lat="45.81151" lon="6.42363">
        <ele>2047</ele>
        <time>2018-10-17T11:11:04Z</time>
      </trkpt>
      <trkpt lat="45.81151" lon="6.42363">
        <ele>2048</ele>
        <time>2018-10-17T11:11:05Z</time>
      </trkpt>
      <trkpt lat="45.81151" lon="6.42363">
        <ele>2048</ele>
        <time>2018-10-17T11:11:06Z</time>
      </trkpt>
      <trkpt lat="45.81151" lon="6.42363">
        <ele>2048</ele>
        <time>2018-10-17T11:11:07Z</time>
      </trkpt>
      <trkpt lat="45.81151" lon="6.42363">
        <ele>2049</ele>
        <time>2018-10-17T11:11:08Z</time>
      </trkpt>
      <trkpt lat="45.81151" lon="6.42363">
        <ele>2048</ele>
        <time>2018-10-17T11:11:09Z</time>
      </trkpt>
      <trkpt lat="45.8115" lon="6.42364">
        <ele>2048</ele>
        <time>2018-10-17T11:11:10Z</time>
      </trkpt>
      <trkpt lat="45.8115" lon="6.42364">
        <ele>2048</ele>
        <time>2018-10-17T11:11:11Z</time>
      </trkpt>
      <trkpt lat="45.8115" lon="6.42364">
        <ele>2048</ele>
        <time>2018-10-17T11:11:12Z</time>
      </trkpt>
      <trkpt lat="45.81148" lon="6.42365">
        <ele>2049</ele>
        <time>2018-10-17T11:11:13Z</time>
      </trkpt>
      <trkpt lat="45.81148" lon="6.42365">
        <ele>2049</ele>
        <time>2018-10-17T11:11:14Z</time>
      </trkpt>
      <trkpt lat="45.81148" lon="6.42365">
        <ele>2049</ele>
        <time>2018-10-17T11:11:15Z</time>
      </trkpt>
      <trkpt lat="45.81148" lon="6.42365">
        <ele>2049</ele>
        <time>2018-10-17T11:11:16Z</time>
      </trkpt>
      <trkpt lat="45.81148" lon="6.42365">
        <ele>2050</ele>
        <time>2018-10-17T11:11:17Z</time>
      </trkpt>
      <trkpt lat="45.81146" lon="6.42367">
        <ele>2050</ele>
        <time>2018-10-17T11:11:18Z</time>
      </trkpt>
      <trkpt lat="45.81146" lon="6.42367">
        <ele>2050</ele>
        <time>2018-10-17T11:11:19Z</time>
      </trkpt>
      <trkpt lat="45.81146" lon="6.42367">
        <ele>2051</ele>
        <time>2018-10-17T11:11:20Z</time>
      </trkpt>
      <trkpt lat="45.81146" lon="6.42367">
        <ele>2051</ele>
        <time>2018-10-17T11:11:21Z</time>
      </trkpt>
      <trkpt lat="45.81146" lon="6.42367">
        <ele>2051</ele>
        <time>2018-10-17T11:11:22Z</time>
      </trkpt>
      <trkpt lat="45.81145" lon="6.42368">
        <ele>2051</ele>
        <time>2018-10-17T11:11:23Z</time>
      </trkpt>
      <trkpt lat="45.81145" lon="6.42368">
        <ele>2051</ele>
        <time>2018-10-17T11:11:24Z</time>
      </trkpt>
      <trkpt lat="45.81145" lon="6.42368">
        <ele>2051</ele>
        <time>2018-10-17T11:11:25Z</time>
      </trkpt>
      <trkpt lat="45.81145" lon="6.42368">
        <ele>2051</ele>
        <time>2018-10-17T11:11:26Z</time>
      </trkpt>
      <trkpt lat="45.81145" lon="6.42368">
        <ele>2051</ele>
        <time>2018-10-17T11:11:27Z</time>
      </trkpt>
      <trkpt lat="45.81145" lon="6.42368">
        <ele>2051</ele>
        <time>2018-10-17T11:11:28Z</time>
      </trkpt>
      <trkpt lat="45.81143" lon="6.42369">
        <ele>2051</ele>
        <time>2018-10-17T11:11:29Z</time>
      </trkpt>
      <trkpt lat="45.81143" lon="6.42369">
        <ele>2051</ele>
        <time>2018-10-17T11:11:30Z</time>
      </trkpt>
      <trkpt lat="45.81143" lon="6.42369">
        <ele>2052</ele>
        <time>2018-10-17T11:11:31Z</time>
      </trkpt>
      <trkpt lat="45.8114" lon="6.42368">
        <ele>2052</ele>
        <time>2018-10-17T11:11:32Z</time>
      </trkpt>
      <trkpt lat="45.8114" lon="6.42368">
        <ele>2052</ele>
        <time>2018-10-17T11:11:33Z</time>
      </trkpt>
      <trkpt lat="45.8114" lon="6.42368">
        <ele>2053</ele>
        <time>2018-10-17T11:11:34Z</time>
      </trkpt>
      <trkpt lat="45.81138" lon="6.42367">
        <ele>2053</ele>
        <time>2018-10-17T11:11:35Z</time>
      </trkpt>
      <trkpt lat="45.81138" lon="6.42367">
        <ele>2053</ele>
        <time>2018-10-17T11:11:36Z</time>
      </trkpt>
      <trkpt lat="45.81138" lon="6.42367">
        <ele>2053</ele>
        <time>2018-10-17T11:11:37Z</time>
      </trkpt>
      <trkpt lat="45.81138" lon="6.42367">
        <ele>2053</ele>
        <time>2018-10-17T11:11:38Z</time>
      </trkpt>
      <trkpt lat="45.81136" lon="6.42366">
        <ele>2053</ele>
        <time>2018-10-17T11:11:39Z</time>
      </trkpt>
      <trkpt lat="45.81136" lon="6.42366">
        <ele>2053</ele>
        <time>2018-10-17T11:11:40Z</time>
      </trkpt>
      <trkpt lat="45.81136" lon="6.42366">
        <ele>2054</ele>
        <time>2018-10-17T11:11:41Z</time>
      </trkpt>
      <trkpt lat="45.81136" lon="6.42366">
        <ele>2054</ele>
        <time>2018-10-17T11:11:42Z</time>
      </trkpt>
      <trkpt lat="45.81136" lon="6.42366">
        <ele>2054</ele>
        <time>2018-10-17T11:11:43Z</time>
      </trkpt>
      <trkpt lat="45.81136" lon="6.42366">
        <ele>2054</ele>
        <time>2018-10-17T11:11:44Z</time>
      </trkpt>
      <trkpt lat="45.81134" lon="6.42366">
        <ele>2054</ele>
        <time>2018-10-17T11:11:45Z</time>
      </trkpt>
      <trkpt lat="45.81134" lon="6.42366">
        <ele>2055</ele>
        <time>2018-10-17T11:11:46Z</time>
      </trkpt>
      <trkpt lat="45.81134" lon="6.42366">
        <ele>2055</ele>
        <time>2018-10-17T11:11:47Z</time>
      </trkpt>
      <trkpt lat="45.81132" lon="6.42366">
        <ele>2056</ele>
        <time>2018-10-17T11:11:48Z</time>
      </trkpt>
      <trkpt lat="45.81132" lon="6.42366">
        <ele>2057</ele>
        <time>2018-10-17T11:11:49Z</time>
      </trkpt>
      <trkpt lat="45.81132" lon="6.42366">
        <ele>2057</ele>
        <time>2018-10-17T11:11:50Z</time>
      </trkpt>
      <trkpt lat="45.81129" lon="6.42367">
        <ele>2057</ele>
        <time>2018-10-17T11:11:51Z</time>
      </trkpt>
      <trkpt lat="45.81129" lon="6.42367">
        <ele>2057</ele>
        <time>2018-10-17T11:11:52Z</time>
      </trkpt>
      <trkpt lat="45.81129" lon="6.42367">
        <ele>2057</ele>
        <time>2018-10-17T11:11:53Z</time>
      </trkpt>
      <trkpt lat="45.81127" lon="6.42367">
        <ele>2057</ele>
        <time>2018-10-17T11:11:54Z</time>
      </trkpt>
      <trkpt lat="45.81127" lon="6.42367">
        <ele>2057</ele>
        <time>2018-10-17T11:11:55Z</time>
      </trkpt>
      <trkpt lat="45.81127" lon="6.42367">
        <ele>2057</ele>
        <time>2018-10-17T11:11:56Z</time>
      </trkpt>
      <trkpt lat="45.81127" lon="6.42367">
        <ele>2057</ele>
        <time>2018-10-17T11:11:57Z</time>
      </trkpt>
      <trkpt lat="45.81125" lon="6.42368">
        <ele>2058</ele>
        <time>2018-10-17T11:11:58Z</time>
      </trkpt>
      <trkpt lat="45.81125" lon="6.42368">
        <ele>2058</ele>
        <time>2018-10-17T11:11:59Z</time>
      </trkpt>
      <trkpt lat="45.81125" lon="6.42368">
        <ele>2058</ele>
        <time>2018-10-17T11:12:00Z</time>
      </trkpt>
      <trkpt lat="45.81125" lon="6.42368">
        <ele>2059</ele>
        <time>2018-10-17T11:12:01Z</time>
      </trkpt>
      <trkpt lat="45.81125" lon="6.42368">
        <ele>2059</ele>
        <time>2018-10-17T11:12:02Z</time>
      </trkpt>
      <trkpt lat="45.81125" lon="6.42368">
        <ele>2059</ele>
        <time>2018-10-17T11:12:03Z</time>
      </trkpt>
      <trkpt lat="45.81123" lon="6.42369">
        <ele>2059</ele>
        <time>2018-10-17T11:12:04Z</time>
      </trkpt>
      <trkpt lat="45.81123" lon="6.42369">
        <ele>2059</ele>
        <time>2018-10-17T11:12:05Z</time>
      </trkpt>
      <trkpt lat="45.81122" lon="6.42369">
        <ele>2059</ele>
        <time>2018-10-17T11:12:06Z</time>
      </trkpt>
      <trkpt lat="45.81122" lon="6.42369">
        <ele>2060</ele>
        <time>2018-10-17T11:12:07Z</time>
      </trkpt>
      <trkpt lat="45.81119" lon="6.42369">
        <ele>2060</ele>
        <time>2018-10-17T11:12:08Z</time>
      </trkpt>
      <trkpt lat="45.81119" lon="6.42369">
        <ele>2060</ele>
        <time>2018-10-17T11:12:09Z</time>
      </trkpt>
      <trkpt lat="45.81119" lon="6.42369">
        <ele>2060</ele>
        <time>2018-10-17T11:12:10Z</time>
      </trkpt>
      <trkpt lat="45.81117" lon="6.42368">
        <ele>2060</ele>
        <time>2018-10-17T11:12:11Z</time>
      </trkpt>
      <trkpt lat="45.81117" lon="6.42368">
        <ele>2060</ele>
        <time>2018-10-17T11:12:12Z</time>
      </trkpt>
      <trkpt lat="45.81117" lon="6.42368">
        <ele>2060</ele>
        <time>2018-10-17T11:12:13Z</time>
      </trkpt>
      <trkpt lat="45.81115" lon="6.42368">
        <ele>2060</ele>
        <time>2018-10-17T11:12:14Z</time>
      </trkpt>
      <trkpt lat="45.81115" lon="6.42368">
        <ele>2060</ele>
        <time>2018-10-17T11:12:15Z</time>
      </trkpt>
      <trkpt lat="45.81115" lon="6.42368">
        <ele>2061</ele>
        <time>2018-10-17T11:12:16Z</time>
      </trkpt>
      <trkpt lat="45.81115" lon="6.42368">
        <ele>2061</ele>
        <time>2018-10-17T11:12:17Z</time>
      </trkpt>
      <trkpt lat="45.81115" lon="6.42368">
        <ele>2061</ele>
        <time>2018-10-17T11:12:18Z</time>
      </trkpt>
      <trkpt lat="45.81115" lon="6.42368">
        <ele>2062</ele>
        <time>2018-10-17T11:12:19Z</time>
      </trkpt>
      <trkpt lat="45.81115" lon="6.42368">
        <ele>2063</ele>
        <time>2018-10-17T11:12:20Z</time>
      </trkpt>
      <trkpt lat="45.81113" lon="6.42368">
        <ele>2063</ele>
        <time>2018-10-17T11:12:21Z</time>
      </trkpt>
      <trkpt lat="45.81113" lon="6.42368">
        <ele>2063</ele>
        <time>2018-10-17T11:12:22Z</time>
      </trkpt>
      <trkpt lat="45.81113" lon="6.42368">
        <ele>2063</ele>
        <time>2018-10-17T11:12:23Z</time>
      </trkpt>
      <trkpt lat="45.81113" lon="6.42368">
        <ele>2063</ele>
        <time>2018-10-17T11:12:24Z</time>
      </trkpt>
      <trkpt lat="45.81113" lon="6.42368">
        <ele>2063</ele>
        <time>2018-10-17T11:12:25Z</time>
      </trkpt>
      <trkpt lat="45.81113" lon="6.42368">
        <ele>2063</ele>
        <time>2018-10-17T11:12:26Z</time>
      </trkpt>
      <trkpt lat="45.81113" lon="6.42368">
        <ele>2063</ele>
        <time>2018-10-17T11:12:27Z</time>
      </trkpt>
      <trkpt lat="45.81111" lon="6.4237">
        <ele>2063</ele>
        <time>2018-10-17T11:12:28Z</time>
      </trkpt>
      <trkpt lat="45.81111" lon="6.4237">
        <ele>2063</ele>
        <time>2018-10-17T11:12:29Z</time>
      </trkpt>
      <trkpt lat="45.81111" lon="6.4237">
        <ele>2064</ele>
        <time>2018-10-17T11:12:30Z</time>
      </trkpt>
      <trkpt lat="45.81111" lon="6.42373">
        <ele>2064</ele>
        <time>2018-10-17T11:12:31Z</time>
      </trkpt>
      <trkpt lat="45.81111" lon="6.42373">
        <ele>2064</ele>
        <time>2018-10-17T11:12:32Z</time>
      </trkpt>
      <trkpt lat="45.81109" lon="6.42375">
        <ele>2064</ele>
        <time>2018-10-17T11:12:33Z</time>
      </trkpt>
      <trkpt lat="45.81109" lon="6.42375">
        <ele>2064</ele>
        <time>2018-10-17T11:12:34Z</time>
      </trkpt>
      <trkpt lat="45.81109" lon="6.42375">
        <ele>2064</ele>
        <time>2018-10-17T11:12:35Z</time>
      </trkpt>
      <trkpt lat="45.81107" lon="6.42377">
        <ele>2064</ele>
        <time>2018-10-17T11:12:36Z</time>
      </trkpt>
      <trkpt lat="45.81107" lon="6.42377">
        <ele>2064</ele>
        <time>2018-10-17T11:12:37Z</time>
      </trkpt>
      <trkpt lat="45.81105" lon="6.42377">
        <ele>2064</ele>
        <time>2018-10-17T11:12:38Z</time>
      </trkpt>
      <trkpt lat="45.81105" lon="6.42377">
        <ele>2064</ele>
        <time>2018-10-17T11:12:39Z</time>
      </trkpt>
      <trkpt lat="45.81103" lon="6.42377">
        <ele>2064</ele>
        <time>2018-10-17T11:12:40Z</time>
      </trkpt>
      <trkpt lat="45.81103" lon="6.42377">
        <ele>2064</ele>
        <time>2018-10-17T11:12:41Z</time>
      </trkpt>
      <trkpt lat="45.81101" lon="6.42376">
        <ele>2064</ele>
        <time>2018-10-17T11:12:42Z</time>
      </trkpt>
      <trkpt lat="45.81101" lon="6.42376">
        <ele>2064</ele>
        <time>2018-10-17T11:12:43Z</time>
      </trkpt>
      <trkpt lat="45.81099" lon="6.42377">
        <ele>2064</ele>
        <time>2018-10-17T11:12:44Z</time>
      </trkpt>
      <trkpt lat="45.81099" lon="6.42377">
        <ele>2065</ele>
        <time>2018-10-17T11:12:45Z</time>
      </trkpt>
      <trkpt lat="45.81099" lon="6.42377">
        <ele>2065</ele>
        <time>2018-10-17T11:12:46Z</time>
      </trkpt>
      <trkpt lat="45.81096" lon="6.42377">
        <ele>2065</ele>
        <time>2018-10-17T11:12:47Z</time>
      </trkpt>
      <trkpt lat="45.81096" lon="6.42377">
        <ele>2065</ele>
        <time>2018-10-17T11:12:48Z</time>
      </trkpt>
      <trkpt lat="45.81094" lon="6.42375">
        <ele>2065</ele>
        <time>2018-10-17T11:12:49Z</time>
      </trkpt>
      <trkpt lat="45.81094" lon="6.42375">
        <ele>2065</ele>
        <time>2018-10-17T11:12:50Z</time>
      </trkpt>
      <trkpt lat="45.81092" lon="6.42373">
        <ele>2065</ele>
        <time>2018-10-17T11:12:51Z</time>
      </trkpt>
      <trkpt lat="45.81092" lon="6.42373">
        <ele>2065</ele>
        <time>2018-10-17T11:12:52Z</time>
      </trkpt>
      <trkpt lat="45.8109" lon="6.42372">
        <ele>2065</ele>
        <time>2018-10-17T11:12:53Z</time>
      </trkpt>
      <trkpt lat="45.8109" lon="6.42372">
        <ele>2065</ele>
        <time>2018-10-17T11:12:54Z</time>
      </trkpt>
      <trkpt lat="45.8109" lon="6.42372">
        <ele>2066</ele>
        <time>2018-10-17T11:12:55Z</time>
      </trkpt>
      <trkpt lat="45.81087" lon="6.42372">
        <ele>2066</ele>
        <time>2018-10-17T11:12:56Z</time>
      </trkpt>
      <trkpt lat="45.81087" lon="6.42372">
        <ele>2066</ele>
        <time>2018-10-17T11:12:57Z</time>
      </trkpt>
      <trkpt lat="45.81085" lon="6.42371">
        <ele>2067</ele>
        <time>2018-10-17T11:12:58Z</time>
      </trkpt>
      <trkpt lat="45.81085" lon="6.42371">
        <ele>2067</ele>
        <time>2018-10-17T11:12:59Z</time>
      </trkpt>
      <trkpt lat="45.81083" lon="6.42371">
        <ele>2067</ele>
        <time>2018-10-17T11:13:00Z</time>
      </trkpt>
      <trkpt lat="45.81083" lon="6.42371">
        <ele>2067</ele>
        <time>2018-10-17T11:13:01Z</time>
      </trkpt>
      <trkpt lat="45.81081" lon="6.4237">
        <ele>2068</ele>
        <time>2018-10-17T11:13:02Z</time>
      </trkpt>
      <trkpt lat="45.81081" lon="6.4237">
        <ele>2068</ele>
        <time>2018-10-17T11:13:03Z</time>
      </trkpt>
      <trkpt lat="45.81078" lon="6.42369">
        <ele>2068</ele>
        <time>2018-10-17T11:13:04Z</time>
      </trkpt>
      <trkpt lat="45.81078" lon="6.42369">
        <ele>2068</ele>
        <time>2018-10-17T11:13:05Z</time>
      </trkpt>
      <trkpt lat="45.81076" lon="6.42367">
        <ele>2068</ele>
        <time>2018-10-17T11:13:06Z</time>
      </trkpt>
      <trkpt lat="45.81076" lon="6.42367">
        <ele>2068</ele>
        <time>2018-10-17T11:13:07Z</time>
      </trkpt>
      <trkpt lat="45.81076" lon="6.42367">
        <ele>2069</ele>
        <time>2018-10-17T11:13:08Z</time>
      </trkpt>
      <trkpt lat="45.81076" lon="6.42367">
        <ele>2069</ele>
        <time>2018-10-17T11:13:09Z</time>
      </trkpt>
      <trkpt lat="45.81076" lon="6.42367">
        <ele>2069</ele>
        <time>2018-10-17T11:13:10Z</time>
      </trkpt>
      <trkpt lat="45.81076" lon="6.42367">
        <ele>2069</ele>
        <time>2018-10-17T11:13:11Z</time>
      </trkpt>
      <trkpt lat="45.81076" lon="6.42367">
        <ele>2069</ele>
        <time>2018-10-17T11:13:12Z</time>
      </trkpt>
      <trkpt lat="45.81076" lon="6.42367">
        <ele>2069</ele>
        <time>2018-10-17T11:13:13Z</time>
      </trkpt>
      <trkpt lat="45.81076" lon="6.42367">
        <ele>2069</ele>
        <time>2018-10-17T11:13:14Z</time>
      </trkpt>
      <trkpt lat="45.81074" lon="6.42367">
        <ele>2069</ele>
        <time>2018-10-17T11:13:15Z</time>
      </trkpt>
      <trkpt lat="45.81074" lon="6.42367">
        <ele>2069</ele>
        <time>2018-10-17T11:13:16Z</time>
      </trkpt>
      <trkpt lat="45.81072" lon="6.42367">
        <ele>2069</ele>
        <time>2018-10-17T11:13:17Z</time>
      </trkpt>
      <trkpt lat="45.81072" lon="6.42367">
        <ele>2070</ele>
        <time>2018-10-17T11:13:18Z</time>
      </trkpt>
      <trkpt lat="45.81072" lon="6.42367">
        <ele>2070</ele>
        <time>2018-10-17T11:13:19Z</time>
      </trkpt>
      <trkpt lat="45.81072" lon="6.42367">
        <ele>2070</ele>
        <time>2018-10-17T11:13:20Z</time>
      </trkpt>
      <trkpt lat="45.81072" lon="6.42367">
        <ele>2070</ele>
        <time>2018-10-17T11:13:21Z</time>
      </trkpt>
      <trkpt lat="45.8107" lon="6.42367">
        <ele>2070</ele>
        <time>2018-10-17T11:13:22Z</time>
      </trkpt>
      <trkpt lat="45.8107" lon="6.42367">
        <ele>2070</ele>
        <time>2018-10-17T11:13:23Z</time>
      </trkpt>
      <trkpt lat="45.8107" lon="6.42367">
        <ele>2070</ele>
        <time>2018-10-17T11:13:24Z</time>
      </trkpt>
      <trkpt lat="45.81067" lon="6.42367">
        <ele>2070</ele>
        <time>2018-10-17T11:13:25Z</time>
      </trkpt>
      <trkpt lat="45.81067" lon="6.42367">
        <ele>2070</ele>
        <time>2018-10-17T11:13:26Z</time>
      </trkpt>
      <trkpt lat="45.81066" lon="6.42366">
        <ele>2070</ele>
        <time>2018-10-17T11:13:27Z</time>
      </trkpt>
      <trkpt lat="45.81066" lon="6.42366">
        <ele>2070</ele>
        <time>2018-10-17T11:13:28Z</time>
      </trkpt>
      <trkpt lat="45.81066" lon="6.42366">
        <ele>2070</ele>
        <time>2018-10-17T11:13:29Z</time>
      </trkpt>
      <trkpt lat="45.81064" lon="6.42366">
        <ele>2071</ele>
        <time>2018-10-17T11:13:30Z</time>
      </trkpt>
      <trkpt lat="45.81064" lon="6.42366">
        <ele>2071</ele>
        <time>2018-10-17T11:13:31Z</time>
      </trkpt>
      <trkpt lat="45.81064" lon="6.42366">
        <ele>2071</ele>
        <time>2018-10-17T11:13:32Z</time>
      </trkpt>
      <trkpt lat="45.81061" lon="6.42365">
        <ele>2071</ele>
        <time>2018-10-17T11:13:33Z</time>
      </trkpt>
      <trkpt lat="45.81061" lon="6.42365">
        <ele>2072</ele>
        <time>2018-10-17T11:13:34Z</time>
      </trkpt>
      <trkpt lat="45.81061" lon="6.42365">
        <ele>2072</ele>
        <time>2018-10-17T11:13:35Z</time>
      </trkpt>
      <trkpt lat="45.81059" lon="6.42364">
        <ele>2072</ele>
        <time>2018-10-17T11:13:36Z</time>
      </trkpt>
      <trkpt lat="45.81059" lon="6.42364">
        <ele>2072</ele>
        <time>2018-10-17T11:13:37Z</time>
      </trkpt>
      <trkpt lat="45.81059" lon="6.42364">
        <ele>2072</ele>
        <time>2018-10-17T11:13:38Z</time>
      </trkpt>
      <trkpt lat="45.81057" lon="6.42363">
        <ele>2072</ele>
        <time>2018-10-17T11:13:39Z</time>
      </trkpt>
      <trkpt lat="45.81057" lon="6.42363">
        <ele>2073</ele>
        <time>2018-10-17T11:13:40Z</time>
      </trkpt>
      <trkpt lat="45.81057" lon="6.42363">
        <ele>2074</ele>
        <time>2018-10-17T11:13:41Z</time>
      </trkpt>
      <trkpt lat="45.81054" lon="6.42363">
        <ele>2074</ele>
        <time>2018-10-17T11:13:42Z</time>
      </trkpt>
      <trkpt lat="45.81054" lon="6.42363">
        <ele>2074</ele>
        <time>2018-10-17T11:13:43Z</time>
      </trkpt>
      <trkpt lat="45.81054" lon="6.42363">
        <ele>2074</ele>
        <time>2018-10-17T11:13:44Z</time>
      </trkpt>
      <trkpt lat="45.81052" lon="6.42364">
        <ele>2074</ele>
        <time>2018-10-17T11:13:45Z</time>
      </trkpt>
      <trkpt lat="45.81052" lon="6.42364">
        <ele>2075</ele>
        <time>2018-10-17T11:13:46Z</time>
      </trkpt>
      <trkpt lat="45.81052" lon="6.42364">
        <ele>2075</ele>
        <time>2018-10-17T11:13:47Z</time>
      </trkpt>
      <trkpt lat="45.8105" lon="6.42366">
        <ele>2076</ele>
        <time>2018-10-17T11:13:48Z</time>
      </trkpt>
      <trkpt lat="45.8105" lon="6.42366">
        <ele>2076</ele>
        <time>2018-10-17T11:13:49Z</time>
      </trkpt>
      <trkpt lat="45.8105" lon="6.42366">
        <ele>2076</ele>
        <time>2018-10-17T11:13:50Z</time>
      </trkpt>
      <trkpt lat="45.81048" lon="6.42367">
        <ele>2076</ele>
        <time>2018-10-17T11:13:51Z</time>
      </trkpt>
      <trkpt lat="45.81048" lon="6.42367">
        <ele>2076</ele>
        <time>2018-10-17T11:13:52Z</time>
      </trkpt>
      <trkpt lat="45.81048" lon="6.42367">
        <ele>2076</ele>
        <time>2018-10-17T11:13:53Z</time>
      </trkpt>
      <trkpt lat="45.81047" lon="6.42371">
        <ele>2076</ele>
        <time>2018-10-17T11:13:54Z</time>
      </trkpt>
      <trkpt lat="45.81047" lon="6.42371">
        <ele>2076</ele>
        <time>2018-10-17T11:13:55Z</time>
      </trkpt>
      <trkpt lat="45.81046" lon="6.42375">
        <ele>2076</ele>
        <time>2018-10-17T11:13:56Z</time>
      </trkpt>
      <trkpt lat="45.81044" lon="6.42377">
        <ele>2076</ele>
        <time>2018-10-17T11:13:57Z</time>
      </trkpt>
      <trkpt lat="45.81044" lon="6.42377">
        <ele>2076</ele>
        <time>2018-10-17T11:13:58Z</time>
      </trkpt>
      <trkpt lat="45.81042" lon="6.42379">
        <ele>2076</ele>
        <time>2018-10-17T11:13:59Z</time>
      </trkpt>
      <trkpt lat="45.81042" lon="6.42379">
        <ele>2075</ele>
        <time>2018-10-17T11:14:00Z</time>
      </trkpt>
      <trkpt lat="45.8104" lon="6.42381">
        <ele>2075</ele>
        <time>2018-10-17T11:14:01Z</time>
      </trkpt>
      <trkpt lat="45.8104" lon="6.42381">
        <ele>2075</ele>
        <time>2018-10-17T11:14:02Z</time>
      </trkpt>
      <trkpt lat="45.81038" lon="6.42383">
        <ele>2075</ele>
        <time>2018-10-17T11:14:03Z</time>
      </trkpt>
      <trkpt lat="45.81038" lon="6.42383">
        <ele>2075</ele>
        <time>2018-10-17T11:14:04Z</time>
      </trkpt>
      <trkpt lat="45.81038" lon="6.42383">
        <ele>2075</ele>
        <time>2018-10-17T11:14:05Z</time>
      </trkpt>
      <trkpt lat="45.81035" lon="6.42385">
        <ele>2075</ele>
        <time>2018-10-17T11:14:06Z</time>
      </trkpt>
      <trkpt lat="45.81035" lon="6.42385">
        <ele>2075</ele>
        <time>2018-10-17T11:14:07Z</time>
      </trkpt>
      <trkpt lat="45.81033" lon="6.42386">
        <ele>2075</ele>
        <time>2018-10-17T11:14:08Z</time>
      </trkpt>
      <trkpt lat="45.81033" lon="6.42386">
        <ele>2075</ele>
        <time>2018-10-17T11:14:09Z</time>
      </trkpt>
      <trkpt lat="45.81031" lon="6.42388">
        <ele>2075</ele>
        <time>2018-10-17T11:14:10Z</time>
      </trkpt>
      <trkpt lat="45.81031" lon="6.42388">
        <ele>2075</ele>
        <time>2018-10-17T11:14:11Z</time>
      </trkpt>
      <trkpt lat="45.81029" lon="6.4239">
        <ele>2075</ele>
        <time>2018-10-17T11:14:12Z</time>
      </trkpt>
      <trkpt lat="45.81029" lon="6.4239">
        <ele>2075</ele>
        <time>2018-10-17T11:14:13Z</time>
      </trkpt>
      <trkpt lat="45.81027" lon="6.42392">
        <ele>2075</ele>
        <time>2018-10-17T11:14:14Z</time>
      </trkpt>
      <trkpt lat="45.81027" lon="6.42392">
        <ele>2075</ele>
        <time>2018-10-17T11:14:15Z</time>
      </trkpt>
      <trkpt lat="45.81024" lon="6.42395">
        <ele>2075</ele>
        <time>2018-10-17T11:14:16Z</time>
      </trkpt>
      <trkpt lat="45.81024" lon="6.42395">
        <ele>2075</ele>
        <time>2018-10-17T11:14:17Z</time>
      </trkpt>
      <trkpt lat="45.81022" lon="6.42398">
        <ele>2075</ele>
        <time>2018-10-17T11:14:18Z</time>
      </trkpt>
      <trkpt lat="45.81022" lon="6.42398">
        <ele>2075</ele>
        <time>2018-10-17T11:14:19Z</time>
      </trkpt>
      <trkpt lat="45.8102" lon="6.424">
        <ele>2075</ele>
        <time>2018-10-17T11:14:20Z</time>
      </trkpt>
      <trkpt lat="45.8102" lon="6.424">
        <ele>2075</ele>
        <time>2018-10-17T11:14:21Z</time>
      </trkpt>
      <trkpt lat="45.81019" lon="6.42402">
        <ele>2075</ele>
        <time>2018-10-17T11:14:22Z</time>
      </trkpt>
      <trkpt lat="45.81019" lon="6.42402">
        <ele>2075</ele>
        <time>2018-10-17T11:14:23Z</time>
      </trkpt>
      <trkpt lat="45.81016" lon="6.42404">
        <ele>2075</ele>
        <time>2018-10-17T11:14:24Z</time>
      </trkpt>
      <trkpt lat="45.81016" lon="6.42404">
        <ele>2075</ele>
        <time>2018-10-17T11:14:25Z</time>
      </trkpt>
      <trkpt lat="45.81014" lon="6.42407">
        <ele>2075</ele>
        <time>2018-10-17T11:14:26Z</time>
      </trkpt>
      <trkpt lat="45.81014" lon="6.42407">
        <ele>2075</ele>
        <time>2018-10-17T11:14:27Z</time>
      </trkpt>
      <trkpt lat="45.81012" lon="6.4241">
        <ele>2075</ele>
        <time>2018-10-17T11:14:28Z</time>
      </trkpt>
      <trkpt lat="45.81012" lon="6.4241">
        <ele>2075</ele>
        <time>2018-10-17T11:14:29Z</time>
      </trkpt>
      <trkpt lat="45.8101" lon="6.42413">
        <ele>2075</ele>
        <time>2018-10-17T11:14:30Z</time>
      </trkpt>
      <trkpt lat="45.8101" lon="6.42413">
        <ele>2075</ele>
        <time>2018-10-17T11:14:31Z</time>
      </trkpt>
      <trkpt lat="45.81007" lon="6.42417">
        <ele>2075</ele>
        <time>2018-10-17T11:14:32Z</time>
      </trkpt>
      <trkpt lat="45.81007" lon="6.42417">
        <ele>2075</ele>
        <time>2018-10-17T11:14:33Z</time>
      </trkpt>
      <trkpt lat="45.81004" lon="6.42419">
        <ele>2075</ele>
        <time>2018-10-17T11:14:34Z</time>
      </trkpt>
      <trkpt lat="45.81002" lon="6.42421">
        <ele>2075</ele>
        <time>2018-10-17T11:14:35Z</time>
      </trkpt>
      <trkpt lat="45.81002" lon="6.42421">
        <ele>2075</ele>
        <time>2018-10-17T11:14:36Z</time>
      </trkpt>
      <trkpt lat="45.81" lon="6.42424">
        <ele>2075</ele>
        <time>2018-10-17T11:14:37Z</time>
      </trkpt>
      <trkpt lat="45.81" lon="6.42424">
        <ele>2075</ele>
        <time>2018-10-17T11:14:38Z</time>
      </trkpt>
      <trkpt lat="45.80998" lon="6.42427">
        <ele>2075</ele>
        <time>2018-10-17T11:14:39Z</time>
      </trkpt>
      <trkpt lat="45.80998" lon="6.42427">
        <ele>2075</ele>
        <time>2018-10-17T11:14:40Z</time>
      </trkpt>
      <trkpt lat="45.80997" lon="6.4243">
        <ele>2075</ele>
        <time>2018-10-17T11:14:41Z</time>
      </trkpt>
      <trkpt lat="45.80997" lon="6.4243">
        <ele>2075</ele>
        <time>2018-10-17T11:14:42Z</time>
      </trkpt>
      <trkpt lat="45.80995" lon="6.42433">
        <ele>2075</ele>
        <time>2018-10-17T11:14:43Z</time>
      </trkpt>
      <trkpt lat="45.80995" lon="6.42433">
        <ele>2075</ele>
        <time>2018-10-17T11:14:44Z</time>
      </trkpt>
      <trkpt lat="45.80992" lon="6.42435">
        <ele>2075</ele>
        <time>2018-10-17T11:14:45Z</time>
      </trkpt>
      <trkpt lat="45.80992" lon="6.42435">
        <ele>2075</ele>
        <time>2018-10-17T11:14:46Z</time>
      </trkpt>
      <trkpt lat="45.8099" lon="6.42439">
        <ele>2075</ele>
        <time>2018-10-17T11:14:47Z</time>
      </trkpt>
      <trkpt lat="45.8099" lon="6.42439">
        <ele>2075</ele>
        <time>2018-10-17T11:14:48Z</time>
      </trkpt>
      <trkpt lat="45.80988" lon="6.42442">
        <ele>2075</ele>
        <time>2018-10-17T11:14:49Z</time>
      </trkpt>
      <trkpt lat="45.80988" lon="6.42442">
        <ele>2075</ele>
        <time>2018-10-17T11:14:50Z</time>
      </trkpt>
      <trkpt lat="45.80987" lon="6.42445">
        <ele>2075</ele>
        <time>2018-10-17T11:14:51Z</time>
      </trkpt>
      <trkpt lat="45.80987" lon="6.42445">
        <ele>2075</ele>
        <time>2018-10-17T11:14:52Z</time>
      </trkpt>
      <trkpt lat="45.80985" lon="6.42447">
        <ele>2075</ele>
        <time>2018-10-17T11:14:53Z</time>
      </trkpt>
      <trkpt lat="45.80985" lon="6.42447">
        <ele>2075</ele>
        <time>2018-10-17T11:14:54Z</time>
      </trkpt>
      <trkpt lat="45.80983" lon="6.42449">
        <ele>2075</ele>
        <time>2018-10-17T11:14:55Z</time>
      </trkpt>
      <trkpt lat="45.80983" lon="6.42449">
        <ele>2075</ele>
        <time>2018-10-17T11:14:56Z</time>
      </trkpt>
      <trkpt lat="45.80981" lon="6.42452">
        <ele>2074</ele>
        <time>2018-10-17T11:14:57Z</time>
      </trkpt>
      <trkpt lat="45.80981" lon="6.42452">
        <ele>2075</ele>
        <time>2018-10-17T11:14:58Z</time>
      </trkpt>
      <trkpt lat="45.80979" lon="6.42455">
        <ele>2075</ele>
        <time>2018-10-17T11:14:59Z</time>
      </trkpt>
      <trkpt lat="45.80979" lon="6.42455">
        <ele>2075</ele>
        <time>2018-10-17T11:15:00Z</time>
      </trkpt>
      <trkpt lat="45.80977" lon="6.42457">
        <ele>2075</ele>
        <time>2018-10-17T11:15:01Z</time>
      </trkpt>
      <trkpt lat="45.80977" lon="6.42457">
        <ele>2075</ele>
        <time>2018-10-17T11:15:02Z</time>
      </trkpt>
      <trkpt lat="45.80974" lon="6.4246">
        <ele>2075</ele>
        <time>2018-10-17T11:15:03Z</time>
      </trkpt>
      <trkpt lat="45.80974" lon="6.4246">
        <ele>2075</ele>
        <time>2018-10-17T11:15:04Z</time>
      </trkpt>
      <trkpt lat="45.80972" lon="6.42463">
        <ele>2075</ele>
        <time>2018-10-17T11:15:05Z</time>
      </trkpt>
      <trkpt lat="45.80972" lon="6.42463">
        <ele>2075</ele>
        <time>2018-10-17T11:15:06Z</time>
      </trkpt>
      <trkpt lat="45.8097" lon="6.42465">
        <ele>2075</ele>
        <time>2018-10-17T11:15:07Z</time>
      </trkpt>
      <trkpt lat="45.8097" lon="6.42465">
        <ele>2075</ele>
        <time>2018-10-17T11:15:08Z</time>
      </trkpt>
      <trkpt lat="45.80968" lon="6.42467">
        <ele>2075</ele>
        <time>2018-10-17T11:15:09Z</time>
      </trkpt>
      <trkpt lat="45.80968" lon="6.42467">
        <ele>2075</ele>
        <time>2018-10-17T11:15:10Z</time>
      </trkpt>
      <trkpt lat="45.80967" lon="6.42469">
        <ele>2075</ele>
        <time>2018-10-17T11:15:11Z</time>
      </trkpt>
      <trkpt lat="45.80967" lon="6.42469">
        <ele>2075</ele>
        <time>2018-10-17T11:15:12Z</time>
      </trkpt>
      <trkpt lat="45.80965" lon="6.42471">
        <ele>2075</ele>
        <time>2018-10-17T11:15:13Z</time>
      </trkpt>
      <trkpt lat="45.80965" lon="6.42471">
        <ele>2075</ele>
        <time>2018-10-17T11:15:14Z</time>
      </trkpt>
      <trkpt lat="45.80963" lon="6.42471">
        <ele>2075</ele>
        <time>2018-10-17T11:15:15Z</time>
      </trkpt>
      <trkpt lat="45.80963" lon="6.42471">
        <ele>2075</ele>
        <time>2018-10-17T11:15:16Z</time>
      </trkpt>
      <trkpt lat="45.80961" lon="6.42472">
        <ele>2075</ele>
        <time>2018-10-17T11:15:17Z</time>
      </trkpt>
      <trkpt lat="45.80961" lon="6.42472">
        <ele>2075</ele>
        <time>2018-10-17T11:15:18Z</time>
      </trkpt>
      <trkpt lat="45.80959" lon="6.42474">
        <ele>2075</ele>
        <time>2018-10-17T11:15:19Z</time>
      </trkpt>
      <trkpt lat="45.80959" lon="6.42474">
        <ele>2075</ele>
        <time>2018-10-17T11:15:20Z</time>
      </trkpt>
      <trkpt lat="45.80956" lon="6.42475">
        <ele>2075</ele>
        <time>2018-10-17T11:15:21Z</time>
      </trkpt>
      <trkpt lat="45.80956" lon="6.42475">
        <ele>2075</ele>
        <time>2018-10-17T11:15:22Z</time>
      </trkpt>
      <trkpt lat="45.80954" lon="6.42476">
        <ele>2075</ele>
        <time>2018-10-17T11:15:23Z</time>
      </trkpt>
      <trkpt lat="45.80954" lon="6.42476">
        <ele>2075</ele>
        <time>2018-10-17T11:15:24Z</time>
      </trkpt>
      <trkpt lat="45.80952" lon="6.42477">
        <ele>2075</ele>
        <time>2018-10-17T11:15:25Z</time>
      </trkpt>
      <trkpt lat="45.80952" lon="6.42477">
        <ele>2075</ele>
        <time>2018-10-17T11:15:26Z</time>
      </trkpt>
      <trkpt lat="45.80949" lon="6.4248">
        <ele>2075</ele>
        <time>2018-10-17T11:15:27Z</time>
      </trkpt>
      <trkpt lat="45.80949" lon="6.4248">
        <ele>2075</ele>
        <time>2018-10-17T11:15:28Z</time>
      </trkpt>
      <trkpt lat="45.80947" lon="6.42482">
        <ele>2076</ele>
        <time>2018-10-17T11:15:29Z</time>
      </trkpt>
      <trkpt lat="45.80947" lon="6.42482">
        <ele>2076</ele>
        <time>2018-10-17T11:15:30Z</time>
      </trkpt>
      <trkpt lat="45.80946" lon="6.42485">
        <ele>2076</ele>
        <time>2018-10-17T11:15:31Z</time>
      </trkpt>
      <trkpt lat="45.80946" lon="6.42485">
        <ele>2076</ele>
        <time>2018-10-17T11:15:32Z</time>
      </trkpt>
      <trkpt lat="45.80944" lon="6.42488">
        <ele>2076</ele>
        <time>2018-10-17T11:15:33Z</time>
      </trkpt>
      <trkpt lat="45.80944" lon="6.42488">
        <ele>2076</ele>
        <time>2018-10-17T11:15:34Z</time>
      </trkpt>
      <trkpt lat="45.80943" lon="6.42491">
        <ele>2076</ele>
        <time>2018-10-17T11:15:35Z</time>
      </trkpt>
      <trkpt lat="45.80943" lon="6.42491">
        <ele>2077</ele>
        <time>2018-10-17T11:15:36Z</time>
      </trkpt>
      <trkpt lat="45.80941" lon="6.42494">
        <ele>2077</ele>
        <time>2018-10-17T11:15:37Z</time>
      </trkpt>
      <trkpt lat="45.80941" lon="6.42494">
        <ele>2077</ele>
        <time>2018-10-17T11:15:38Z</time>
      </trkpt>
      <trkpt lat="45.80939" lon="6.42497">
        <ele>2077</ele>
        <time>2018-10-17T11:15:39Z</time>
      </trkpt>
      <trkpt lat="45.80939" lon="6.42497">
        <ele>2077</ele>
        <time>2018-10-17T11:15:40Z</time>
      </trkpt>
      <trkpt lat="45.80937" lon="6.42499">
        <ele>2077</ele>
        <time>2018-10-17T11:15:41Z</time>
      </trkpt>
      <trkpt lat="45.80937" lon="6.42499">
        <ele>2077</ele>
        <time>2018-10-17T11:15:42Z</time>
      </trkpt>
      <trkpt lat="45.80934" lon="6.425">
        <ele>2077</ele>
        <time>2018-10-17T11:15:43Z</time>
      </trkpt>
      <trkpt lat="45.80934" lon="6.425">
        <ele>2077</ele>
        <time>2018-10-17T11:15:44Z</time>
      </trkpt>
      <trkpt lat="45.80931" lon="6.42502">
        <ele>2076</ele>
        <time>2018-10-17T11:15:45Z</time>
      </trkpt>
      <trkpt lat="45.80931" lon="6.42502">
        <ele>2076</ele>
        <time>2018-10-17T11:15:46Z</time>
      </trkpt>
      <trkpt lat="45.80928" lon="6.42503">
        <ele>2076</ele>
        <time>2018-10-17T11:15:47Z</time>
      </trkpt>
      <trkpt lat="45.80928" lon="6.42503">
        <ele>2076</ele>
        <time>2018-10-17T11:15:48Z</time>
      </trkpt>
      <trkpt lat="45.80926" lon="6.42506">
        <ele>2076</ele>
        <time>2018-10-17T11:15:49Z</time>
      </trkpt>
      <trkpt lat="45.80926" lon="6.42506">
        <ele>2076</ele>
        <time>2018-10-17T11:15:50Z</time>
      </trkpt>
      <trkpt lat="45.80924" lon="6.42507">
        <ele>2076</ele>
        <time>2018-10-17T11:15:51Z</time>
      </trkpt>
      <trkpt lat="45.80924" lon="6.42507">
        <ele>2076</ele>
        <time>2018-10-17T11:15:52Z</time>
      </trkpt>
      <trkpt lat="45.80921" lon="6.42509">
        <ele>2077</ele>
        <time>2018-10-17T11:15:53Z</time>
      </trkpt>
      <trkpt lat="45.80921" lon="6.42509">
        <ele>2077</ele>
        <time>2018-10-17T11:15:54Z</time>
      </trkpt>
      <trkpt lat="45.80919" lon="6.4251">
        <ele>2077</ele>
        <time>2018-10-17T11:15:55Z</time>
      </trkpt>
      <trkpt lat="45.80919" lon="6.4251">
        <ele>2077</ele>
        <time>2018-10-17T11:15:56Z</time>
      </trkpt>
      <trkpt lat="45.80917" lon="6.42512">
        <ele>2077</ele>
        <time>2018-10-17T11:15:57Z</time>
      </trkpt>
      <trkpt lat="45.80917" lon="6.42512">
        <ele>2077</ele>
        <time>2018-10-17T11:15:58Z</time>
      </trkpt>
      <trkpt lat="45.80915" lon="6.42514">
        <ele>2077</ele>
        <time>2018-10-17T11:15:59Z</time>
      </trkpt>
      <trkpt lat="45.80915" lon="6.42514">
        <ele>2077</ele>
        <time>2018-10-17T11:16:00Z</time>
      </trkpt>
      <trkpt lat="45.80913" lon="6.42515">
        <ele>2077</ele>
        <time>2018-10-17T11:16:01Z</time>
      </trkpt>
      <trkpt lat="45.80913" lon="6.42515">
        <ele>2077</ele>
        <time>2018-10-17T11:16:02Z</time>
      </trkpt>
      <trkpt lat="45.8091" lon="6.42516">
        <ele>2077</ele>
        <time>2018-10-17T11:16:03Z</time>
      </trkpt>
      <trkpt lat="45.8091" lon="6.42516">
        <ele>2077</ele>
        <time>2018-10-17T11:16:04Z</time>
      </trkpt>
      <trkpt lat="45.80908" lon="6.42518">
        <ele>2077</ele>
        <time>2018-10-17T11:16:05Z</time>
      </trkpt>
      <trkpt lat="45.80908" lon="6.42518">
        <ele>2077</ele>
        <time>2018-10-17T11:16:06Z</time>
      </trkpt>
      <trkpt lat="45.80906" lon="6.4252">
        <ele>2077</ele>
        <time>2018-10-17T11:16:07Z</time>
      </trkpt>
      <trkpt lat="45.80906" lon="6.4252">
        <ele>2077</ele>
        <time>2018-10-17T11:16:08Z</time>
      </trkpt>
      <trkpt lat="45.80904" lon="6.42521">
        <ele>2077</ele>
        <time>2018-10-17T11:16:09Z</time>
      </trkpt>
      <trkpt lat="45.80904" lon="6.42521">
        <ele>2078</ele>
        <time>2018-10-17T11:16:10Z</time>
      </trkpt>
      <trkpt lat="45.80902" lon="6.42521">
        <ele>2078</ele>
        <time>2018-10-17T11:16:11Z</time>
      </trkpt>
      <trkpt lat="45.80902" lon="6.42521">
        <ele>2078</ele>
        <time>2018-10-17T11:16:12Z</time>
      </trkpt>
      <trkpt lat="45.80899" lon="6.42523">
        <ele>2078</ele>
        <time>2018-10-17T11:16:13Z</time>
      </trkpt>
      <trkpt lat="45.80899" lon="6.42523">
        <ele>2078</ele>
        <time>2018-10-17T11:16:14Z</time>
      </trkpt>
      <trkpt lat="45.80898" lon="6.42526">
        <ele>2078</ele>
        <time>2018-10-17T11:16:15Z</time>
      </trkpt>
      <trkpt lat="45.80898" lon="6.42526">
        <ele>2078</ele>
        <time>2018-10-17T11:16:16Z</time>
      </trkpt>
      <trkpt lat="45.80896" lon="6.42527">
        <ele>2078</ele>
        <time>2018-10-17T11:16:17Z</time>
      </trkpt>
      <trkpt lat="45.80896" lon="6.42527">
        <ele>2079</ele>
        <time>2018-10-17T11:16:18Z</time>
      </trkpt>
      <trkpt lat="45.80894" lon="6.42529">
        <ele>2079</ele>
        <time>2018-10-17T11:16:19Z</time>
      </trkpt>
      <trkpt lat="45.80894" lon="6.42529">
        <ele>2079</ele>
        <time>2018-10-17T11:16:20Z</time>
      </trkpt>
      <trkpt lat="45.80891" lon="6.42531">
        <ele>2079</ele>
        <time>2018-10-17T11:16:21Z</time>
      </trkpt>
      <trkpt lat="45.80891" lon="6.42531">
        <ele>2079</ele>
        <time>2018-10-17T11:16:22Z</time>
      </trkpt>
      <trkpt lat="45.80888" lon="6.42531">
        <ele>2079</ele>
        <time>2018-10-17T11:16:23Z</time>
      </trkpt>
      <trkpt lat="45.80888" lon="6.42531">
        <ele>2079</ele>
        <time>2018-10-17T11:16:24Z</time>
      </trkpt>
      <trkpt lat="45.80887" lon="6.42531">
        <ele>2079</ele>
        <time>2018-10-17T11:16:25Z</time>
      </trkpt>
      <trkpt lat="45.80887" lon="6.42531">
        <ele>2079</ele>
        <time>2018-10-17T11:16:26Z</time>
      </trkpt>
      <trkpt lat="45.80885" lon="6.42532">
        <ele>2080</ele>
        <time>2018-10-17T11:16:27Z</time>
      </trkpt>
      <trkpt lat="45.80885" lon="6.42532">
        <ele>2080</ele>
        <time>2018-10-17T11:16:28Z</time>
      </trkpt>
      <trkpt lat="45.80883" lon="6.42532">
        <ele>2080</ele>
        <time>2018-10-17T11:16:29Z</time>
      </trkpt>
      <trkpt lat="45.80883" lon="6.42532">
        <ele>2080</ele>
        <time>2018-10-17T11:16:30Z</time>
      </trkpt>
      <trkpt lat="45.8088" lon="6.42532">
        <ele>2080</ele>
        <time>2018-10-17T11:16:31Z</time>
      </trkpt>
      <trkpt lat="45.8088" lon="6.42532">
        <ele>2080</ele>
        <time>2018-10-17T11:16:32Z</time>
      </trkpt>
      <trkpt lat="45.80879" lon="6.42533">
        <ele>2080</ele>
        <time>2018-10-17T11:16:33Z</time>
      </trkpt>
      <trkpt lat="45.80879" lon="6.42533">
        <ele>2080</ele>
        <time>2018-10-17T11:16:34Z</time>
      </trkpt>
      <trkpt lat="45.80877" lon="6.42535">
        <ele>2080</ele>
        <time>2018-10-17T11:16:35Z</time>
      </trkpt>
      <trkpt lat="45.80877" lon="6.42535">
        <ele>2080</ele>
        <time>2018-10-17T11:16:36Z</time>
      </trkpt>
      <trkpt lat="45.80875" lon="6.42537">
        <ele>2080</ele>
        <time>2018-10-17T11:16:37Z</time>
      </trkpt>
      <trkpt lat="45.80875" lon="6.42537">
        <ele>2080</ele>
        <time>2018-10-17T11:16:38Z</time>
      </trkpt>
      <trkpt lat="45.80872" lon="6.42538">
        <ele>2080</ele>
        <time>2018-10-17T11:16:39Z</time>
      </trkpt>
      <trkpt lat="45.80872" lon="6.42538">
        <ele>2080</ele>
        <time>2018-10-17T11:16:40Z</time>
      </trkpt>
      <trkpt lat="45.8087" lon="6.42539">
        <ele>2080</ele>
        <time>2018-10-17T11:16:41Z</time>
      </trkpt>
      <trkpt lat="45.8087" lon="6.42539">
        <ele>2080</ele>
        <time>2018-10-17T11:16:42Z</time>
      </trkpt>
      <trkpt lat="45.80867" lon="6.42541">
        <ele>2081</ele>
        <time>2018-10-17T11:16:43Z</time>
      </trkpt>
      <trkpt lat="45.80867" lon="6.42541">
        <ele>2081</ele>
        <time>2018-10-17T11:16:44Z</time>
      </trkpt>
      <trkpt lat="45.80865" lon="6.42542">
        <ele>2081</ele>
        <time>2018-10-17T11:16:45Z</time>
      </trkpt>
      <trkpt lat="45.80865" lon="6.42542">
        <ele>2081</ele>
        <time>2018-10-17T11:16:46Z</time>
      </trkpt>
      <trkpt lat="45.80862" lon="6.42542">
        <ele>2081</ele>
        <time>2018-10-17T11:16:47Z</time>
      </trkpt>
      <trkpt lat="45.80862" lon="6.42542">
        <ele>2081</ele>
        <time>2018-10-17T11:16:48Z</time>
      </trkpt>
      <trkpt lat="45.80859" lon="6.42542">
        <ele>2081</ele>
        <time>2018-10-17T11:16:49Z</time>
      </trkpt>
      <trkpt lat="45.80859" lon="6.42542">
        <ele>2080</ele>
        <time>2018-10-17T11:16:50Z</time>
      </trkpt>
      <trkpt lat="45.80855" lon="6.42543">
        <ele>2080</ele>
        <time>2018-10-17T11:16:51Z</time>
      </trkpt>
      <trkpt lat="45.80855" lon="6.42543">
        <ele>2081</ele>
        <time>2018-10-17T11:16:52Z</time>
      </trkpt>
      <trkpt lat="45.80852" lon="6.42542">
        <ele>2081</ele>
        <time>2018-10-17T11:16:53Z</time>
      </trkpt>
      <trkpt lat="45.80852" lon="6.42542">
        <ele>2081</ele>
        <time>2018-10-17T11:16:54Z</time>
      </trkpt>
      <trkpt lat="45.8085" lon="6.42541">
        <ele>2081</ele>
        <time>2018-10-17T11:16:55Z</time>
      </trkpt>
      <trkpt lat="45.8085" lon="6.42541">
        <ele>2080</ele>
        <time>2018-10-17T11:16:56Z</time>
      </trkpt>
      <trkpt lat="45.80847" lon="6.42542">
        <ele>2080</ele>
        <time>2018-10-17T11:16:57Z</time>
      </trkpt>
      <trkpt lat="45.80847" lon="6.42542">
        <ele>2080</ele>
        <time>2018-10-17T11:16:58Z</time>
      </trkpt>
      <trkpt lat="45.80845" lon="6.4254">
        <ele>2080</ele>
        <time>2018-10-17T11:16:59Z</time>
      </trkpt>
      <trkpt lat="45.80845" lon="6.4254">
        <ele>2080</ele>
        <time>2018-10-17T11:17:00Z</time>
      </trkpt>
      <trkpt lat="45.80842" lon="6.4254">
        <ele>2080</ele>
        <time>2018-10-17T11:17:01Z</time>
      </trkpt>
      <trkpt lat="45.80842" lon="6.4254">
        <ele>2080</ele>
        <time>2018-10-17T11:17:02Z</time>
      </trkpt>
      <trkpt lat="45.8084" lon="6.42541">
        <ele>2080</ele>
        <time>2018-10-17T11:17:03Z</time>
      </trkpt>
      <trkpt lat="45.8084" lon="6.42541">
        <ele>2080</ele>
        <time>2018-10-17T11:17:04Z</time>
      </trkpt>
      <trkpt lat="45.80837" lon="6.42541">
        <ele>2080</ele>
        <time>2018-10-17T11:17:05Z</time>
      </trkpt>
      <trkpt lat="45.80837" lon="6.42541">
        <ele>2080</ele>
        <time>2018-10-17T11:17:06Z</time>
      </trkpt>
      <trkpt lat="45.80835" lon="6.42542">
        <ele>2080</ele>
        <time>2018-10-17T11:17:07Z</time>
      </trkpt>
      <trkpt lat="45.80835" lon="6.42542">
        <ele>2080</ele>
        <time>2018-10-17T11:17:08Z</time>
      </trkpt>
      <trkpt lat="45.80832" lon="6.42542">
        <ele>2080</ele>
        <time>2018-10-17T11:17:09Z</time>
      </trkpt>
      <trkpt lat="45.80832" lon="6.42542">
        <ele>2080</ele>
        <time>2018-10-17T11:17:10Z</time>
      </trkpt>
      <trkpt lat="45.8083" lon="6.42542">
        <ele>2080</ele>
        <time>2018-10-17T11:17:11Z</time>
      </trkpt>
      <trkpt lat="45.8083" lon="6.42542">
        <ele>2080</ele>
        <time>2018-10-17T11:17:12Z</time>
      </trkpt>
      <trkpt lat="45.80827" lon="6.42543">
        <ele>2080</ele>
        <time>2018-10-17T11:17:13Z</time>
      </trkpt>
      <trkpt lat="45.80827" lon="6.42543">
        <ele>2081</ele>
        <time>2018-10-17T11:17:14Z</time>
      </trkpt>
      <trkpt lat="45.80825" lon="6.42542">
        <ele>2081</ele>
        <time>2018-10-17T11:17:15Z</time>
      </trkpt>
      <trkpt lat="45.80825" lon="6.42542">
        <ele>2081</ele>
        <time>2018-10-17T11:17:16Z</time>
      </trkpt>
      <trkpt lat="45.80823" lon="6.42541">
        <ele>2081</ele>
        <time>2018-10-17T11:17:17Z</time>
      </trkpt>
      <trkpt lat="45.80823" lon="6.42541">
        <ele>2081</ele>
        <time>2018-10-17T11:17:18Z</time>
      </trkpt>
      <trkpt lat="45.8082" lon="6.4254">
        <ele>2081</ele>
        <time>2018-10-17T11:17:19Z</time>
      </trkpt>
      <trkpt lat="45.8082" lon="6.4254">
        <ele>2081</ele>
        <time>2018-10-17T11:17:20Z</time>
      </trkpt>
      <trkpt lat="45.80818" lon="6.42537">
        <ele>2082</ele>
        <time>2018-10-17T11:17:21Z</time>
      </trkpt>
      <trkpt lat="45.80818" lon="6.42537">
        <ele>2082</ele>
        <time>2018-10-17T11:17:22Z</time>
      </trkpt>
      <trkpt lat="45.80817" lon="6.42534">
        <ele>2082</ele>
        <time>2018-10-17T11:17:23Z</time>
      </trkpt>
      <trkpt lat="45.80817" lon="6.42534">
        <ele>2082</ele>
        <time>2018-10-17T11:17:24Z</time>
      </trkpt>
      <trkpt lat="45.80814" lon="6.42532">
        <ele>2082</ele>
        <time>2018-10-17T11:17:25Z</time>
      </trkpt>
      <trkpt lat="45.80814" lon="6.42532">
        <ele>2082</ele>
        <time>2018-10-17T11:17:26Z</time>
      </trkpt>
      <trkpt lat="45.80812" lon="6.42532">
        <ele>2082</ele>
        <time>2018-10-17T11:17:27Z</time>
      </trkpt>
      <trkpt lat="45.80812" lon="6.42532">
        <ele>2082</ele>
        <time>2018-10-17T11:17:28Z</time>
      </trkpt>
      <trkpt lat="45.80809" lon="6.42531">
        <ele>2082</ele>
        <time>2018-10-17T11:17:29Z</time>
      </trkpt>
      <trkpt lat="45.80809" lon="6.42531">
        <ele>2082</ele>
        <time>2018-10-17T11:17:30Z</time>
      </trkpt>
      <trkpt lat="45.80806" lon="6.42531">
        <ele>2082</ele>
        <time>2018-10-17T11:17:31Z</time>
      </trkpt>
      <trkpt lat="45.80806" lon="6.42531">
        <ele>2082</ele>
        <time>2018-10-17T11:17:32Z</time>
      </trkpt>
      <trkpt lat="45.80803" lon="6.4253">
        <ele>2082</ele>
        <time>2018-10-17T11:17:33Z</time>
      </trkpt>
      <trkpt lat="45.80803" lon="6.4253">
        <ele>2082</ele>
        <time>2018-10-17T11:17:34Z</time>
      </trkpt>
      <trkpt lat="45.80801" lon="6.42529">
        <ele>2082</ele>
        <time>2018-10-17T11:17:35Z</time>
      </trkpt>
      <trkpt lat="45.80801" lon="6.42529">
        <ele>2083</ele>
        <time>2018-10-17T11:17:36Z</time>
      </trkpt>
      <trkpt lat="45.80798" lon="6.42528">
        <ele>2083</ele>
        <time>2018-10-17T11:17:37Z</time>
      </trkpt>
      <trkpt lat="45.80798" lon="6.42528">
        <ele>2083</ele>
        <time>2018-10-17T11:17:38Z</time>
      </trkpt>
      <trkpt lat="45.80795" lon="6.42527">
        <ele>2083</ele>
        <time>2018-10-17T11:17:39Z</time>
      </trkpt>
      <trkpt lat="45.80795" lon="6.42527">
        <ele>2083</ele>
        <time>2018-10-17T11:17:40Z</time>
      </trkpt>
      <trkpt lat="45.80792" lon="6.42526">
        <ele>2083</ele>
        <time>2018-10-17T11:17:41Z</time>
      </trkpt>
      <trkpt lat="45.80792" lon="6.42526">
        <ele>2083</ele>
        <time>2018-10-17T11:17:42Z</time>
      </trkpt>
      <trkpt lat="45.80789" lon="6.42526">
        <ele>2083</ele>
        <time>2018-10-17T11:17:43Z</time>
      </trkpt>
      <trkpt lat="45.80789" lon="6.42526">
        <ele>2083</ele>
        <time>2018-10-17T11:17:44Z</time>
      </trkpt>
      <trkpt lat="45.80786" lon="6.42526">
        <ele>2083</ele>
        <time>2018-10-17T11:17:45Z</time>
      </trkpt>
      <trkpt lat="45.80786" lon="6.42526">
        <ele>2083</ele>
        <time>2018-10-17T11:17:46Z</time>
      </trkpt>
      <trkpt lat="45.80783" lon="6.42526">
        <ele>2083</ele>
        <time>2018-10-17T11:17:47Z</time>
      </trkpt>
      <trkpt lat="45.80783" lon="6.42526">
        <ele>2083</ele>
        <time>2018-10-17T11:17:48Z</time>
      </trkpt>
      <trkpt lat="45.8078" lon="6.42526">
        <ele>2083</ele>
        <time>2018-10-17T11:17:49Z</time>
      </trkpt>
      <trkpt lat="45.8078" lon="6.42526">
        <ele>2083</ele>
        <time>2018-10-17T11:17:50Z</time>
      </trkpt>
      <trkpt lat="45.80777" lon="6.42526">
        <ele>2083</ele>
        <time>2018-10-17T11:17:51Z</time>
      </trkpt>
      <trkpt lat="45.80777" lon="6.42526">
        <ele>2083</ele>
        <time>2018-10-17T11:17:52Z</time>
      </trkpt>
      <trkpt lat="45.80774" lon="6.42525">
        <ele>2083</ele>
        <time>2018-10-17T11:17:53Z</time>
      </trkpt>
      <trkpt lat="45.80774" lon="6.42525">
        <ele>2083</ele>
        <time>2018-10-17T11:17:54Z</time>
      </trkpt>
      <trkpt lat="45.80771" lon="6.42524">
        <ele>2083</ele>
        <time>2018-10-17T11:17:55Z</time>
      </trkpt>
      <trkpt lat="45.80771" lon="6.42524">
        <ele>2083</ele>
        <time>2018-10-17T11:17:56Z</time>
      </trkpt>
      <trkpt lat="45.80768" lon="6.42522">
        <ele>2083</ele>
        <time>2018-10-17T11:17:57Z</time>
      </trkpt>
      <trkpt lat="45.80768" lon="6.42522">
        <ele>2084</ele>
        <time>2018-10-17T11:17:58Z</time>
      </trkpt>
      <trkpt lat="45.80765" lon="6.42521">
        <ele>2084</ele>
        <time>2018-10-17T11:17:59Z</time>
      </trkpt>
      <trkpt lat="45.80765" lon="6.42521">
        <ele>2084</ele>
        <time>2018-10-17T11:18:00Z</time>
      </trkpt>
      <trkpt lat="45.80763" lon="6.4252">
        <ele>2084</ele>
        <time>2018-10-17T11:18:01Z</time>
      </trkpt>
      <trkpt lat="45.80763" lon="6.4252">
        <ele>2084</ele>
        <time>2018-10-17T11:18:02Z</time>
      </trkpt>
      <trkpt lat="45.8076" lon="6.42518">
        <ele>2084</ele>
        <time>2018-10-17T11:18:03Z</time>
      </trkpt>
      <trkpt lat="45.8076" lon="6.42518">
        <ele>2084</ele>
        <time>2018-10-17T11:18:04Z</time>
      </trkpt>
      <trkpt lat="45.80758" lon="6.42517">
        <ele>2084</ele>
        <time>2018-10-17T11:18:05Z</time>
      </trkpt>
      <trkpt lat="45.80758" lon="6.42517">
        <ele>2084</ele>
        <time>2018-10-17T11:18:06Z</time>
      </trkpt>
      <trkpt lat="45.80756" lon="6.42516">
        <ele>2084</ele>
        <time>2018-10-17T11:18:07Z</time>
      </trkpt>
      <trkpt lat="45.80756" lon="6.42516">
        <ele>2084</ele>
        <time>2018-10-17T11:18:08Z</time>
      </trkpt>
      <trkpt lat="45.80753" lon="6.42514">
        <ele>2084</ele>
        <time>2018-10-17T11:18:09Z</time>
      </trkpt>
      <trkpt lat="45.80753" lon="6.42514">
        <ele>2085</ele>
        <time>2018-10-17T11:18:10Z</time>
      </trkpt>
      <trkpt lat="45.80751" lon="6.42513">
        <ele>2085</ele>
        <time>2018-10-17T11:18:11Z</time>
      </trkpt>
      <trkpt lat="45.80751" lon="6.42513">
        <ele>2085</ele>
        <time>2018-10-17T11:18:12Z</time>
      </trkpt>
      <trkpt lat="45.80751" lon="6.42513">
        <ele>2085</ele>
        <time>2018-10-17T11:18:13Z</time>
      </trkpt>
      <trkpt lat="45.80751" lon="6.42513">
        <ele>2085</ele>
        <time>2018-10-17T11:18:14Z</time>
      </trkpt>
      <trkpt lat="45.80751" lon="6.42513">
        <ele>2085</ele>
        <time>2018-10-17T11:18:15Z</time>
      </trkpt>
      <trkpt lat="45.80749" lon="6.42512">
        <ele>2085</ele>
        <time>2018-10-17T11:18:16Z</time>
      </trkpt>
      <trkpt lat="45.80749" lon="6.42512">
        <ele>2085</ele>
        <time>2018-10-17T11:18:17Z</time>
      </trkpt>
      <trkpt lat="45.80746" lon="6.42512">
        <ele>2085</ele>
        <time>2018-10-17T11:18:18Z</time>
      </trkpt>
      <trkpt lat="45.80746" lon="6.42512">
        <ele>2085</ele>
        <time>2018-10-17T11:18:19Z</time>
      </trkpt>
      <trkpt lat="45.80744" lon="6.42511">
        <ele>2085</ele>
        <time>2018-10-17T11:18:20Z</time>
      </trkpt>
      <trkpt lat="45.80744" lon="6.42511">
        <ele>2085</ele>
        <time>2018-10-17T11:18:21Z</time>
      </trkpt>
      <trkpt lat="45.80744" lon="6.42511">
        <ele>2085</ele>
        <time>2018-10-17T11:18:22Z</time>
      </trkpt>
      <trkpt lat="45.80744" lon="6.42511">
        <ele>2085</ele>
        <time>2018-10-17T11:18:23Z</time>
      </trkpt>
      <trkpt lat="45.80744" lon="6.42511">
        <ele>2085</ele>
        <time>2018-10-17T11:18:24Z</time>
      </trkpt>
      <trkpt lat="45.80744" lon="6.42511">
        <ele>2085</ele>
        <time>2018-10-17T11:18:25Z</time>
      </trkpt>
      <trkpt lat="45.80744" lon="6.42511">
        <ele>2085</ele>
        <time>2018-10-17T11:18:26Z</time>
      </trkpt>
      <trkpt lat="45.80742" lon="6.42511">
        <ele>2085</ele>
        <time>2018-10-17T11:18:27Z</time>
      </trkpt>
      <trkpt lat="45.80742" lon="6.42511">
        <ele>2085</ele>
        <time>2018-10-17T11:18:28Z</time>
      </trkpt>
      <trkpt lat="45.80742" lon="6.42511">
        <ele>2085</ele>
        <time>2018-10-17T11:18:29Z</time>
      </trkpt>
      <trkpt lat="45.80742" lon="6.42511">
        <ele>2085</ele>
        <time>2018-10-17T11:18:30Z</time>
      </trkpt>
      <trkpt lat="45.80742" lon="6.42511">
        <ele>2085</ele>
        <time>2018-10-17T11:18:31Z</time>
      </trkpt>
      <trkpt lat="45.80742" lon="6.42511">
        <ele>2085</ele>
        <time>2018-10-17T11:18:32Z</time>
      </trkpt>
      <trkpt lat="45.80739" lon="6.42512">
        <ele>2085</ele>
        <time>2018-10-17T11:18:33Z</time>
      </trkpt>
      <trkpt lat="45.80739" lon="6.42512">
        <ele>2085</ele>
        <time>2018-10-17T11:18:34Z</time>
      </trkpt>
      <trkpt lat="45.80737" lon="6.42511">
        <ele>2085</ele>
        <time>2018-10-17T11:18:35Z</time>
      </trkpt>
      <trkpt lat="45.80737" lon="6.42511">
        <ele>2086</ele>
        <time>2018-10-17T11:18:36Z</time>
      </trkpt>
      <trkpt lat="45.80734" lon="6.42511">
        <ele>2086</ele>
        <time>2018-10-17T11:18:37Z</time>
      </trkpt>
      <trkpt lat="45.80734" lon="6.42511">
        <ele>2086</ele>
        <time>2018-10-17T11:18:38Z</time>
      </trkpt>
      <trkpt lat="45.80732" lon="6.4251">
        <ele>2086</ele>
        <time>2018-10-17T11:18:39Z</time>
      </trkpt>
      <trkpt lat="45.80732" lon="6.4251">
        <ele>2086</ele>
        <time>2018-10-17T11:18:40Z</time>
      </trkpt>
      <trkpt lat="45.80729" lon="6.42509">
        <ele>2086</ele>
        <time>2018-10-17T11:18:41Z</time>
      </trkpt>
      <trkpt lat="45.80729" lon="6.42509">
        <ele>2086</ele>
        <time>2018-10-17T11:18:42Z</time>
      </trkpt>
      <trkpt lat="45.80726" lon="6.42509">
        <ele>2086</ele>
        <time>2018-10-17T11:18:43Z</time>
      </trkpt>
      <trkpt lat="45.80724" lon="6.42509">
        <ele>2086</ele>
        <time>2018-10-17T11:18:44Z</time>
      </trkpt>
      <trkpt lat="45.80724" lon="6.42509">
        <ele>2087</ele>
        <time>2018-10-17T11:18:45Z</time>
      </trkpt>
      <trkpt lat="45.80721" lon="6.4251">
        <ele>2087</ele>
        <time>2018-10-17T11:18:46Z</time>
      </trkpt>
      <trkpt lat="45.80721" lon="6.4251">
        <ele>2087</ele>
        <time>2018-10-17T11:18:47Z</time>
      </trkpt>
      <trkpt lat="45.80718" lon="6.4251">
        <ele>2087</ele>
        <time>2018-10-17T11:18:48Z</time>
      </trkpt>
      <trkpt lat="45.80718" lon="6.4251">
        <ele>2088</ele>
        <time>2018-10-17T11:18:49Z</time>
      </trkpt>
      <trkpt lat="45.80715" lon="6.4251">
        <ele>2088</ele>
        <time>2018-10-17T11:18:50Z</time>
      </trkpt>
      <trkpt lat="45.80715" lon="6.4251">
        <ele>2088</ele>
        <time>2018-10-17T11:18:51Z</time>
      </trkpt>
      <trkpt lat="45.80713" lon="6.4251">
        <ele>2088</ele>
        <time>2018-10-17T11:18:52Z</time>
      </trkpt>
      <trkpt lat="45.80713" lon="6.4251">
        <ele>2087</ele>
        <time>2018-10-17T11:18:53Z</time>
      </trkpt>
      <trkpt lat="45.80711" lon="6.4251">
        <ele>2087</ele>
        <time>2018-10-17T11:18:54Z</time>
      </trkpt>
      <trkpt lat="45.80711" lon="6.4251">
        <ele>2086</ele>
        <time>2018-10-17T11:18:55Z</time>
      </trkpt>
      <trkpt lat="45.80708" lon="6.4251">
        <ele>2086</ele>
        <time>2018-10-17T11:18:56Z</time>
      </trkpt>
      <trkpt lat="45.80708" lon="6.4251">
        <ele>2087</ele>
        <time>2018-10-17T11:18:57Z</time>
      </trkpt>
      <trkpt lat="45.80705" lon="6.4251">
        <ele>2087</ele>
        <time>2018-10-17T11:18:58Z</time>
      </trkpt>
      <trkpt lat="45.80705" lon="6.4251">
        <ele>2087</ele>
        <time>2018-10-17T11:18:59Z</time>
      </trkpt>
      <trkpt lat="45.80703" lon="6.42509">
        <ele>2086</ele>
        <time>2018-10-17T11:19:00Z</time>
      </trkpt>
      <trkpt lat="45.80703" lon="6.42509">
        <ele>2086</ele>
        <time>2018-10-17T11:19:01Z</time>
      </trkpt>
      <trkpt lat="45.807" lon="6.42509">
        <ele>2086</ele>
        <time>2018-10-17T11:19:02Z</time>
      </trkpt>
      <trkpt lat="45.807" lon="6.42509">
        <ele>2086</ele>
        <time>2018-10-17T11:19:03Z</time>
      </trkpt>
      <trkpt lat="45.80698" lon="6.42509">
        <ele>2086</ele>
        <time>2018-10-17T11:19:04Z</time>
      </trkpt>
      <trkpt lat="45.80698" lon="6.42509">
        <ele>2085</ele>
        <time>2018-10-17T11:19:05Z</time>
      </trkpt>
      <trkpt lat="45.80695" lon="6.42508">
        <ele>2085</ele>
        <time>2018-10-17T11:19:06Z</time>
      </trkpt>
      <trkpt lat="45.80695" lon="6.42508">
        <ele>2086</ele>
        <time>2018-10-17T11:19:07Z</time>
      </trkpt>
      <trkpt lat="45.80693" lon="6.42508">
        <ele>2086</ele>
        <time>2018-10-17T11:19:08Z</time>
      </trkpt>
      <trkpt lat="45.80693" lon="6.42508">
        <ele>2086</ele>
        <time>2018-10-17T11:19:09Z</time>
      </trkpt>
      <trkpt lat="45.80691" lon="6.42509">
        <ele>2086</ele>
        <time>2018-10-17T11:19:10Z</time>
      </trkpt>
      <trkpt lat="45.80691" lon="6.42509">
        <ele>2086</ele>
        <time>2018-10-17T11:19:11Z</time>
      </trkpt>
      <trkpt lat="45.80688" lon="6.42509">
        <ele>2086</ele>
        <time>2018-10-17T11:19:12Z</time>
      </trkpt>
      <trkpt lat="45.80688" lon="6.42509">
        <ele>2087</ele>
        <time>2018-10-17T11:19:13Z</time>
      </trkpt>
      <trkpt lat="45.80686" lon="6.42508">
        <ele>2087</ele>
        <time>2018-10-17T11:19:14Z</time>
      </trkpt>
      <trkpt lat="45.80686" lon="6.42508">
        <ele>2086</ele>
        <time>2018-10-17T11:19:15Z</time>
      </trkpt>
      <trkpt lat="45.80683" lon="6.42509">
        <ele>2086</ele>
        <time>2018-10-17T11:19:16Z</time>
      </trkpt>
      <trkpt lat="45.80683" lon="6.42509">
        <ele>2086</ele>
        <time>2018-10-17T11:19:17Z</time>
      </trkpt>
      <trkpt lat="45.80681" lon="6.42508">
        <ele>2086</ele>
        <time>2018-10-17T11:19:18Z</time>
      </trkpt>
      <trkpt lat="45.80681" lon="6.42508">
        <ele>2086</ele>
        <time>2018-10-17T11:19:19Z</time>
      </trkpt>
      <trkpt lat="45.80679" lon="6.42509">
        <ele>2086</ele>
        <time>2018-10-17T11:19:20Z</time>
      </trkpt>
      <trkpt lat="45.80679" lon="6.42509">
        <ele>2086</ele>
        <time>2018-10-17T11:19:21Z</time>
      </trkpt>
      <trkpt lat="45.80677" lon="6.42509">
        <ele>2085</ele>
        <time>2018-10-17T11:19:22Z</time>
      </trkpt>
      <trkpt lat="45.80677" lon="6.42509">
        <ele>2085</ele>
        <time>2018-10-17T11:19:23Z</time>
      </trkpt>
      <trkpt lat="45.80674" lon="6.42509">
        <ele>2085</ele>
        <time>2018-10-17T11:19:24Z</time>
      </trkpt>
      <trkpt lat="45.80674" lon="6.42509">
        <ele>2085</ele>
        <time>2018-10-17T11:19:25Z</time>
      </trkpt>
      <trkpt lat="45.80672" lon="6.42509">
        <ele>2085</ele>
        <time>2018-10-17T11:19:26Z</time>
      </trkpt>
      <trkpt lat="45.80672" lon="6.42509">
        <ele>2086</ele>
        <time>2018-10-17T11:19:27Z</time>
      </trkpt>
      <trkpt lat="45.80669" lon="6.42509">
        <ele>2086</ele>
        <time>2018-10-17T11:19:28Z</time>
      </trkpt>
      <trkpt lat="45.80669" lon="6.42509">
        <ele>2086</ele>
        <time>2018-10-17T11:19:29Z</time>
      </trkpt>
      <trkpt lat="45.80667" lon="6.42508">
        <ele>2086</ele>
        <time>2018-10-17T11:19:30Z</time>
      </trkpt>
      <trkpt lat="45.80667" lon="6.42508">
        <ele>2086</ele>
        <time>2018-10-17T11:19:31Z</time>
      </trkpt>
      <trkpt lat="45.80664" lon="6.42508">
        <ele>2086</ele>
        <time>2018-10-17T11:19:32Z</time>
      </trkpt>
      <trkpt lat="45.80664" lon="6.42508">
        <ele>2086</ele>
        <time>2018-10-17T11:19:33Z</time>
      </trkpt>
      <trkpt lat="45.80662" lon="6.42508">
        <ele>2086</ele>
        <time>2018-10-17T11:19:34Z</time>
      </trkpt>
      <trkpt lat="45.80662" lon="6.42508">
        <ele>2087</ele>
        <time>2018-10-17T11:19:35Z</time>
      </trkpt>
      <trkpt lat="45.8066" lon="6.42508">
        <ele>2087</ele>
        <time>2018-10-17T11:19:36Z</time>
      </trkpt>
      <trkpt lat="45.8066" lon="6.42508">
        <ele>2087</ele>
        <time>2018-10-17T11:19:37Z</time>
      </trkpt>
      <trkpt lat="45.80657" lon="6.42509">
        <ele>2087</ele>
        <time>2018-10-17T11:19:38Z</time>
      </trkpt>
      <trkpt lat="45.80657" lon="6.42509">
        <ele>2087</ele>
        <time>2018-10-17T11:19:39Z</time>
      </trkpt>
      <trkpt lat="45.80655" lon="6.42509">
        <ele>2087</ele>
        <time>2018-10-17T11:19:40Z</time>
      </trkpt>
      <trkpt lat="45.80655" lon="6.42509">
        <ele>2087</ele>
        <time>2018-10-17T11:19:41Z</time>
      </trkpt>
      <trkpt lat="45.80652" lon="6.42509">
        <ele>2087</ele>
        <time>2018-10-17T11:19:42Z</time>
      </trkpt>
      <trkpt lat="45.80652" lon="6.42509">
        <ele>2087</ele>
        <time>2018-10-17T11:19:43Z</time>
      </trkpt>
      <trkpt lat="45.8065" lon="6.42509">
        <ele>2087</ele>
        <time>2018-10-17T11:19:44Z</time>
      </trkpt>
      <trkpt lat="45.8065" lon="6.42509">
        <ele>2087</ele>
        <time>2018-10-17T11:19:45Z</time>
      </trkpt>
      <trkpt lat="45.80648" lon="6.42509">
        <ele>2087</ele>
        <time>2018-10-17T11:19:46Z</time>
      </trkpt>
      <trkpt lat="45.80648" lon="6.42509">
        <ele>2087</ele>
        <time>2018-10-17T11:19:47Z</time>
      </trkpt>
      <trkpt lat="45.80646" lon="6.42509">
        <ele>2088</ele>
        <time>2018-10-17T11:19:48Z</time>
      </trkpt>
      <trkpt lat="45.80646" lon="6.42509">
        <ele>2088</ele>
        <time>2018-10-17T11:19:49Z</time>
      </trkpt>
      <trkpt lat="45.80643" lon="6.42509">
        <ele>2088</ele>
        <time>2018-10-17T11:19:50Z</time>
      </trkpt>
      <trkpt lat="45.80641" lon="6.42508">
        <ele>2088</ele>
        <time>2018-10-17T11:19:52Z</time>
      </trkpt>
      <trkpt lat="45.80641" lon="6.42508">
        <ele>2088</ele>
        <time>2018-10-17T11:19:53Z</time>
      </trkpt>
      <trkpt lat="45.80638" lon="6.42507">
        <ele>2088</ele>
        <time>2018-10-17T11:19:54Z</time>
      </trkpt>
      <trkpt lat="45.80638" lon="6.42507">
        <ele>2089</ele>
        <time>2018-10-17T11:19:55Z</time>
      </trkpt>
      <trkpt lat="45.80636" lon="6.42506">
        <ele>2089</ele>
        <time>2018-10-17T11:19:56Z</time>
      </trkpt>
      <trkpt lat="45.80636" lon="6.42506">
        <ele>2089</ele>
        <time>2018-10-17T11:19:57Z</time>
      </trkpt>
      <trkpt lat="45.80633" lon="6.42506">
        <ele>2089</ele>
        <time>2018-10-17T11:19:58Z</time>
      </trkpt>
      <trkpt lat="45.80633" lon="6.42506">
        <ele>2089</ele>
        <time>2018-10-17T11:19:59Z</time>
      </trkpt>
      <trkpt lat="45.80631" lon="6.42506">
        <ele>2090</ele>
        <time>2018-10-17T11:20:00Z</time>
      </trkpt>
      <trkpt lat="45.80631" lon="6.42506">
        <ele>2090</ele>
        <time>2018-10-17T11:20:01Z</time>
      </trkpt>
      <trkpt lat="45.80628" lon="6.42505">
        <ele>2090</ele>
        <time>2018-10-17T11:20:02Z</time>
      </trkpt>
      <trkpt lat="45.80628" lon="6.42505">
        <ele>2090</ele>
        <time>2018-10-17T11:20:03Z</time>
      </trkpt>
      <trkpt lat="45.80625" lon="6.42505">
        <ele>2090</ele>
        <time>2018-10-17T11:20:04Z</time>
      </trkpt>
      <trkpt lat="45.80625" lon="6.42505">
        <ele>2090</ele>
        <time>2018-10-17T11:20:05Z</time>
      </trkpt>
      <trkpt lat="45.80623" lon="6.42504">
        <ele>2090</ele>
        <time>2018-10-17T11:20:06Z</time>
      </trkpt>
      <trkpt lat="45.80623" lon="6.42504">
        <ele>2090</ele>
        <time>2018-10-17T11:20:07Z</time>
      </trkpt>
      <trkpt lat="45.8062" lon="6.42504">
        <ele>2090</ele>
        <time>2018-10-17T11:20:08Z</time>
      </trkpt>
      <trkpt lat="45.8062" lon="6.42504">
        <ele>2090</ele>
        <time>2018-10-17T11:20:09Z</time>
      </trkpt>
      <trkpt lat="45.80617" lon="6.42503">
        <ele>2090</ele>
        <time>2018-10-17T11:20:10Z</time>
      </trkpt>
      <trkpt lat="45.80617" lon="6.42503">
        <ele>2090</ele>
        <time>2018-10-17T11:20:11Z</time>
      </trkpt>
      <trkpt lat="45.80615" lon="6.42501">
        <ele>2090</ele>
        <time>2018-10-17T11:20:12Z</time>
      </trkpt>
      <trkpt lat="45.80615" lon="6.42501">
        <ele>2090</ele>
        <time>2018-10-17T11:20:13Z</time>
      </trkpt>
      <trkpt lat="45.80613" lon="6.425">
        <ele>2090</ele>
        <time>2018-10-17T11:20:14Z</time>
      </trkpt>
      <trkpt lat="45.80613" lon="6.425">
        <ele>2090</ele>
        <time>2018-10-17T11:20:15Z</time>
      </trkpt>
      <trkpt lat="45.8061" lon="6.425">
        <ele>2091</ele>
        <time>2018-10-17T11:20:16Z</time>
      </trkpt>
      <trkpt lat="45.8061" lon="6.425">
        <ele>2091</ele>
        <time>2018-10-17T11:20:17Z</time>
      </trkpt>
      <trkpt lat="45.80608" lon="6.42499">
        <ele>2091</ele>
        <time>2018-10-17T11:20:18Z</time>
      </trkpt>
      <trkpt lat="45.80608" lon="6.42499">
        <ele>2091</ele>
        <time>2018-10-17T11:20:19Z</time>
      </trkpt>
      <trkpt lat="45.80608" lon="6.42499">
        <ele>2091</ele>
        <time>2018-10-17T11:20:20Z</time>
      </trkpt>
      <trkpt lat="45.80606" lon="6.42498">
        <ele>2091</ele>
        <time>2018-10-17T11:20:21Z</time>
      </trkpt>
      <trkpt lat="45.80606" lon="6.42498">
        <ele>2091</ele>
        <time>2018-10-17T11:20:22Z</time>
      </trkpt>
      <trkpt lat="45.80606" lon="6.42498">
        <ele>2091</ele>
        <time>2018-10-17T11:20:23Z</time>
      </trkpt>
      <trkpt lat="45.80606" lon="6.42498">
        <ele>2091</ele>
        <time>2018-10-17T11:20:24Z</time>
      </trkpt>
      <trkpt lat="45.80605" lon="6.42495">
        <ele>2091</ele>
        <time>2018-10-17T11:20:25Z</time>
      </trkpt>
      <trkpt lat="45.80605" lon="6.42495">
        <ele>2091</ele>
        <time>2018-10-17T11:20:26Z</time>
      </trkpt>
      <trkpt lat="45.80603" lon="6.42493">
        <ele>2091</ele>
        <time>2018-10-17T11:20:27Z</time>
      </trkpt>
      <trkpt lat="45.80603" lon="6.42493">
        <ele>2090</ele>
        <time>2018-10-17T11:20:28Z</time>
      </trkpt>
      <trkpt lat="45.80602" lon="6.42491">
        <ele>2090</ele>
        <time>2018-10-17T11:20:29Z</time>
      </trkpt>
      <trkpt lat="45.80602" lon="6.42491">
        <ele>2089</ele>
        <time>2018-10-17T11:20:30Z</time>
      </trkpt>
      <trkpt lat="45.806" lon="6.42488">
        <ele>2089</ele>
        <time>2018-10-17T11:20:31Z</time>
      </trkpt>
      <trkpt lat="45.806" lon="6.42488">
        <ele>2089</ele>
        <time>2018-10-17T11:20:32Z</time>
      </trkpt>
      <trkpt lat="45.80598" lon="6.42485">
        <ele>2088</ele>
        <time>2018-10-17T11:20:33Z</time>
      </trkpt>
      <trkpt lat="45.80598" lon="6.42485">
        <ele>2088</ele>
        <time>2018-10-17T11:20:34Z</time>
      </trkpt>
      <trkpt lat="45.80597" lon="6.42481">
        <ele>2088</ele>
        <time>2018-10-17T11:20:35Z</time>
      </trkpt>
      <trkpt lat="45.80597" lon="6.42481">
        <ele>2088</ele>
        <time>2018-10-17T11:20:36Z</time>
      </trkpt>
      <trkpt lat="45.80596" lon="6.42477">
        <ele>2087</ele>
        <time>2018-10-17T11:20:37Z</time>
      </trkpt>
      <trkpt lat="45.80596" lon="6.42477">
        <ele>2086</ele>
        <time>2018-10-17T11:20:38Z</time>
      </trkpt>
      <trkpt lat="45.80595" lon="6.42474">
        <ele>2086</ele>
        <time>2018-10-17T11:20:39Z</time>
      </trkpt>
      <trkpt lat="45.80595" lon="6.42474">
        <ele>2086</ele>
        <time>2018-10-17T11:20:40Z</time>
      </trkpt>
      <trkpt lat="45.80595" lon="6.42474">
        <ele>2086</ele>
        <time>2018-10-17T11:20:41Z</time>
      </trkpt>
      <trkpt lat="45.80595" lon="6.42474">
        <ele>2086</ele>
        <time>2018-10-17T11:20:42Z</time>
      </trkpt>
      <trkpt lat="45.80594" lon="6.42471">
        <ele>2086</ele>
        <time>2018-10-17T11:20:43Z</time>
      </trkpt>
      <trkpt lat="45.80594" lon="6.42471">
        <ele>2086</ele>
        <time>2018-10-17T11:20:44Z</time>
      </trkpt>
      <trkpt lat="45.80592" lon="6.42467">
        <ele>2086</ele>
        <time>2018-10-17T11:20:45Z</time>
      </trkpt>
      <trkpt lat="45.80592" lon="6.42467">
        <ele>2086</ele>
        <time>2018-10-17T11:20:46Z</time>
      </trkpt>
      <trkpt lat="45.80591" lon="6.42464">
        <ele>2086</ele>
        <time>2018-10-17T11:20:47Z</time>
      </trkpt>
      <trkpt lat="45.80591" lon="6.42464">
        <ele>2086</ele>
        <time>2018-10-17T11:20:48Z</time>
      </trkpt>
      <trkpt lat="45.80589" lon="6.4246">
        <ele>2086</ele>
        <time>2018-10-17T11:20:49Z</time>
      </trkpt>
      <trkpt lat="45.80589" lon="6.4246">
        <ele>2086</ele>
        <time>2018-10-17T11:20:50Z</time>
      </trkpt>
      <trkpt lat="45.80588" lon="6.42457">
        <ele>2086</ele>
        <time>2018-10-17T11:20:51Z</time>
      </trkpt>
      <trkpt lat="45.80588" lon="6.42457">
        <ele>2086</ele>
        <time>2018-10-17T11:20:52Z</time>
      </trkpt>
      <trkpt lat="45.80587" lon="6.42454">
        <ele>2086</ele>
        <time>2018-10-17T11:20:53Z</time>
      </trkpt>
      <trkpt lat="45.80587" lon="6.42454">
        <ele>2086</ele>
        <time>2018-10-17T11:20:54Z</time>
      </trkpt>
      <trkpt lat="45.80587" lon="6.42449">
        <ele>2085</ele>
        <time>2018-10-17T11:20:55Z</time>
      </trkpt>
      <trkpt lat="45.80587" lon="6.42447">
        <ele>2085</ele>
        <time>2018-10-17T11:20:56Z</time>
      </trkpt>
      <trkpt lat="45.80587" lon="6.42447">
        <ele>2085</ele>
        <time>2018-10-17T11:20:57Z</time>
      </trkpt>
      <trkpt lat="45.80585" lon="6.42444">
        <ele>2084</ele>
        <time>2018-10-17T11:20:58Z</time>
      </trkpt>
      <trkpt lat="45.80585" lon="6.42444">
        <ele>2084</ele>
        <time>2018-10-17T11:20:59Z</time>
      </trkpt>
      <trkpt lat="45.80583" lon="6.42441">
        <ele>2083</ele>
        <time>2018-10-17T11:21:00Z</time>
      </trkpt>
      <trkpt lat="45.80583" lon="6.42441">
        <ele>2083</ele>
        <time>2018-10-17T11:21:01Z</time>
      </trkpt>
      <trkpt lat="45.80581" lon="6.4244">
        <ele>2083</ele>
        <time>2018-10-17T11:21:02Z</time>
      </trkpt>
      <trkpt lat="45.80581" lon="6.4244">
        <ele>2084</ele>
        <time>2018-10-17T11:21:03Z</time>
      </trkpt>
      <trkpt lat="45.80579" lon="6.42438">
        <ele>2084</ele>
        <time>2018-10-17T11:21:04Z</time>
      </trkpt>
      <trkpt lat="45.80579" lon="6.42438">
        <ele>2084</ele>
        <time>2018-10-17T11:21:05Z</time>
      </trkpt>
      <trkpt lat="45.80578" lon="6.42436">
        <ele>2085</ele>
        <time>2018-10-17T11:21:06Z</time>
      </trkpt>
      <trkpt lat="45.80578" lon="6.42436">
        <ele>2085</ele>
        <time>2018-10-17T11:21:07Z</time>
      </trkpt>
      <trkpt lat="45.80577" lon="6.42433">
        <ele>2085</ele>
        <time>2018-10-17T11:21:08Z</time>
      </trkpt>
      <trkpt lat="45.80577" lon="6.42433">
        <ele>2085</ele>
        <time>2018-10-17T11:21:09Z</time>
      </trkpt>
      <trkpt lat="45.80576" lon="6.42431">
        <ele>2085</ele>
        <time>2018-10-17T11:21:10Z</time>
      </trkpt>
      <trkpt lat="45.80576" lon="6.42431">
        <ele>2085</ele>
        <time>2018-10-17T11:21:11Z</time>
      </trkpt>
      <trkpt lat="45.80576" lon="6.42431">
        <ele>2085</ele>
        <time>2018-10-17T11:21:12Z</time>
      </trkpt>
      <trkpt lat="45.80573" lon="6.4243">
        <ele>2085</ele>
        <time>2018-10-17T11:21:13Z</time>
      </trkpt>
      <trkpt lat="45.80573" lon="6.4243">
        <ele>2085</ele>
        <time>2018-10-17T11:21:14Z</time>
      </trkpt>
      <trkpt lat="45.80573" lon="6.4243">
        <ele>2085</ele>
        <time>2018-10-17T11:21:15Z</time>
      </trkpt>
      <trkpt lat="45.80571" lon="6.4243">
        <ele>2085</ele>
        <time>2018-10-17T11:21:16Z</time>
      </trkpt>
      <trkpt lat="45.80571" lon="6.4243">
        <ele>2086</ele>
        <time>2018-10-17T11:21:17Z</time>
      </trkpt>
      <trkpt lat="45.80571" lon="6.4243">
        <ele>2087</ele>
        <time>2018-10-17T11:21:18Z</time>
      </trkpt>
      <trkpt lat="45.80569" lon="6.42428">
        <ele>2088</ele>
        <time>2018-10-17T11:21:19Z</time>
      </trkpt>
      <trkpt lat="45.80569" lon="6.42428">
        <ele>2088</ele>
        <time>2018-10-17T11:21:20Z</time>
      </trkpt>
      <trkpt lat="45.80569" lon="6.42428">
        <ele>2088</ele>
        <time>2018-10-17T11:21:21Z</time>
      </trkpt>
      <trkpt lat="45.80567" lon="6.42427">
        <ele>2088</ele>
        <time>2018-10-17T11:21:22Z</time>
      </trkpt>
      <trkpt lat="45.80567" lon="6.42427">
        <ele>2088</ele>
        <time>2018-10-17T11:21:23Z</time>
      </trkpt>
      <trkpt lat="45.80567" lon="6.42427">
        <ele>2088</ele>
        <time>2018-10-17T11:21:24Z</time>
      </trkpt>
      <trkpt lat="45.80565" lon="6.42426">
        <ele>2088</ele>
        <time>2018-10-17T11:21:25Z</time>
      </trkpt>
      <trkpt lat="45.80565" lon="6.42426">
        <ele>2088</ele>
        <time>2018-10-17T11:21:26Z</time>
      </trkpt>
      <trkpt lat="45.80565" lon="6.42426">
        <ele>2089</ele>
        <time>2018-10-17T11:21:27Z</time>
      </trkpt>
      <trkpt lat="45.80565" lon="6.42426">
        <ele>2089</ele>
        <time>2018-10-17T11:21:28Z</time>
      </trkpt>
      <trkpt lat="45.80565" lon="6.42426">
        <ele>2089</ele>
        <time>2018-10-17T11:21:29Z</time>
      </trkpt>
      <trkpt lat="45.80565" lon="6.42426">
        <ele>2089</ele>
        <time>2018-10-17T11:21:30Z</time>
      </trkpt>
      <trkpt lat="45.80564" lon="6.42425">
        <ele>2090</ele>
        <time>2018-10-17T11:21:31Z</time>
      </trkpt>
      <trkpt lat="45.80564" lon="6.42425">
        <ele>2090</ele>
        <time>2018-10-17T11:21:32Z</time>
      </trkpt>
      <trkpt lat="45.80564" lon="6.42425">
        <ele>2090</ele>
        <time>2018-10-17T11:21:33Z</time>
      </trkpt>
      <trkpt lat="45.80562" lon="6.42423">
        <ele>2090</ele>
        <time>2018-10-17T11:21:34Z</time>
      </trkpt>
      <trkpt lat="45.80562" lon="6.42423">
        <ele>2091</ele>
        <time>2018-10-17T11:21:35Z</time>
      </trkpt>
      <trkpt lat="45.80562" lon="6.42423">
        <ele>2091</ele>
        <time>2018-10-17T11:21:36Z</time>
      </trkpt>
      <trkpt lat="45.8056" lon="6.42423">
        <ele>2091</ele>
        <time>2018-10-17T11:21:37Z</time>
      </trkpt>
      <trkpt lat="45.8056" lon="6.42423">
        <ele>2091</ele>
        <time>2018-10-17T11:21:38Z</time>
      </trkpt>
      <trkpt lat="45.8056" lon="6.42423">
        <ele>2091</ele>
        <time>2018-10-17T11:21:39Z</time>
      </trkpt>
      <trkpt lat="45.8056" lon="6.42423">
        <ele>2091</ele>
        <time>2018-10-17T11:21:40Z</time>
      </trkpt>
      <trkpt lat="45.8056" lon="6.42423">
        <ele>2091</ele>
        <time>2018-10-17T11:21:41Z</time>
      </trkpt>
      <trkpt lat="45.8056" lon="6.42423">
        <ele>2091</ele>
        <time>2018-10-17T11:21:42Z</time>
      </trkpt>
      <trkpt lat="45.8056" lon="6.42423">
        <ele>2091</ele>
        <time>2018-10-17T11:21:43Z</time>
      </trkpt>
      <trkpt lat="45.8056" lon="6.42423">
        <ele>2091</ele>
        <time>2018-10-17T11:21:44Z</time>
      </trkpt>
      <trkpt lat="45.80558" lon="6.42423">
        <ele>2091</ele>
        <time>2018-10-17T11:21:45Z</time>
      </trkpt>
      <trkpt lat="45.80558" lon="6.42423">
        <ele>2091</ele>
        <time>2018-10-17T11:21:46Z</time>
      </trkpt>
      <trkpt lat="45.80558" lon="6.42423">
        <ele>2091</ele>
        <time>2018-10-17T11:21:47Z</time>
      </trkpt>
      <trkpt lat="45.80556" lon="6.42421">
        <ele>2091</ele>
        <time>2018-10-17T11:21:48Z</time>
      </trkpt>
      <trkpt lat="45.80556" lon="6.42421">
        <ele>2092</ele>
        <time>2018-10-17T11:21:49Z</time>
      </trkpt>
      <trkpt lat="45.80556" lon="6.42421">
        <ele>2092</ele>
        <time>2018-10-17T11:21:50Z</time>
      </trkpt>
      <trkpt lat="45.80554" lon="6.4242">
        <ele>2092</ele>
        <time>2018-10-17T11:21:51Z</time>
      </trkpt>
      <trkpt lat="45.80554" lon="6.4242">
        <ele>2092</ele>
        <time>2018-10-17T11:21:52Z</time>
      </trkpt>
      <trkpt lat="45.80554" lon="6.4242">
        <ele>2092</ele>
        <time>2018-10-17T11:21:53Z</time>
      </trkpt>
      <trkpt lat="45.80552" lon="6.4242">
        <ele>2092</ele>
        <time>2018-10-17T11:21:54Z</time>
      </trkpt>
      <trkpt lat="45.80552" lon="6.4242">
        <ele>2092</ele>
        <time>2018-10-17T11:21:55Z</time>
      </trkpt>
      <trkpt lat="45.80552" lon="6.4242">
        <ele>2093</ele>
        <time>2018-10-17T11:21:56Z</time>
      </trkpt>
      <trkpt lat="45.80552" lon="6.4242">
        <ele>2093</ele>
        <time>2018-10-17T11:21:57Z</time>
      </trkpt>
      <trkpt lat="45.8055" lon="6.42418">
        <ele>2093</ele>
        <time>2018-10-17T11:21:58Z</time>
      </trkpt>
      <trkpt lat="45.8055" lon="6.42418">
        <ele>2093</ele>
        <time>2018-10-17T11:21:59Z</time>
      </trkpt>
      <trkpt lat="45.8055" lon="6.42418">
        <ele>2094</ele>
        <time>2018-10-17T11:22:00Z</time>
      </trkpt>
      <trkpt lat="45.8055" lon="6.42418">
        <ele>2094</ele>
        <time>2018-10-17T11:22:01Z</time>
      </trkpt>
      <trkpt lat="45.80548" lon="6.42417">
        <ele>2094</ele>
        <time>2018-10-17T11:22:02Z</time>
      </trkpt>
      <trkpt lat="45.80548" lon="6.42417">
        <ele>2094</ele>
        <time>2018-10-17T11:22:03Z</time>
      </trkpt>
      <trkpt lat="45.80548" lon="6.42417">
        <ele>2094</ele>
        <time>2018-10-17T11:22:04Z</time>
      </trkpt>
      <trkpt lat="45.80548" lon="6.42417">
        <ele>2094</ele>
        <time>2018-10-17T11:22:05Z</time>
      </trkpt>
      <trkpt lat="45.80546" lon="6.42415">
        <ele>2094</ele>
        <time>2018-10-17T11:22:06Z</time>
      </trkpt>
      <trkpt lat="45.80546" lon="6.42415">
        <ele>2095</ele>
        <time>2018-10-17T11:22:07Z</time>
      </trkpt>
      <trkpt lat="45.80546" lon="6.42415">
        <ele>2095</ele>
        <time>2018-10-17T11:22:08Z</time>
      </trkpt>
      <trkpt lat="45.80546" lon="6.42415">
        <ele>2095</ele>
        <time>2018-10-17T11:22:09Z</time>
      </trkpt>
      <trkpt lat="45.80544" lon="6.42414">
        <ele>2095</ele>
        <time>2018-10-17T11:22:10Z</time>
      </trkpt>
      <trkpt lat="45.80544" lon="6.42414">
        <ele>2095</ele>
        <time>2018-10-17T11:22:11Z</time>
      </trkpt>
      <trkpt lat="45.80544" lon="6.42414">
        <ele>2095</ele>
        <time>2018-10-17T11:22:12Z</time>
      </trkpt>
      <trkpt lat="45.80544" lon="6.42414">
        <ele>2095</ele>
        <time>2018-10-17T11:22:13Z</time>
      </trkpt>
      <trkpt lat="45.80542" lon="6.42412">
        <ele>2095</ele>
        <time>2018-10-17T11:22:14Z</time>
      </trkpt>
      <trkpt lat="45.80542" lon="6.42412">
        <ele>2096</ele>
        <time>2018-10-17T11:22:15Z</time>
      </trkpt>
      <trkpt lat="45.80542" lon="6.42412">
        <ele>2097</ele>
        <time>2018-10-17T11:22:16Z</time>
      </trkpt>
      <trkpt lat="45.80542" lon="6.42412">
        <ele>2097</ele>
        <time>2018-10-17T11:22:17Z</time>
      </trkpt>
      <trkpt lat="45.8054" lon="6.42411">
        <ele>2097</ele>
        <time>2018-10-17T11:22:18Z</time>
      </trkpt>
      <trkpt lat="45.8054" lon="6.42411">
        <ele>2097</ele>
        <time>2018-10-17T11:22:19Z</time>
      </trkpt>
      <trkpt lat="45.8054" lon="6.42411">
        <ele>2097</ele>
        <time>2018-10-17T11:22:20Z</time>
      </trkpt>
      <trkpt lat="45.8054" lon="6.42411">
        <ele>2097</ele>
        <time>2018-10-17T11:22:21Z</time>
      </trkpt>
      <trkpt lat="45.80539" lon="6.42414">
        <ele>2099</ele>
        <time>2018-10-17T11:22:22Z</time>
      </trkpt>
      <trkpt lat="45.80539" lon="6.42414">
        <ele>2099</ele>
        <time>2018-10-17T11:22:23Z</time>
      </trkpt>
      <trkpt lat="45.80539" lon="6.42414">
        <ele>2099</ele>
        <time>2018-10-17T11:22:24Z</time>
      </trkpt>
      <trkpt lat="45.80539" lon="6.42414">
        <ele>2099</ele>
        <time>2018-10-17T11:22:25Z</time>
      </trkpt>
      <trkpt lat="45.80538" lon="6.42417">
        <ele>2099</ele>
        <time>2018-10-17T11:22:26Z</time>
      </trkpt>
      <trkpt lat="45.80538" lon="6.42417">
        <ele>2099</ele>
        <time>2018-10-17T11:22:27Z</time>
      </trkpt>
      <trkpt lat="45.80538" lon="6.42417">
        <ele>2099</ele>
        <time>2018-10-17T11:22:28Z</time>
      </trkpt>
      <trkpt lat="45.80538" lon="6.42417">
        <ele>2099</ele>
        <time>2018-10-17T11:22:29Z</time>
      </trkpt>
      <trkpt lat="45.80538" lon="6.42417">
        <ele>2100</ele>
        <time>2018-10-17T11:22:30Z</time>
      </trkpt>
      <trkpt lat="45.80538" lon="6.42417">
        <ele>2100</ele>
        <time>2018-10-17T11:22:31Z</time>
      </trkpt>
      <trkpt lat="45.80537" lon="6.42419">
        <ele>2100</ele>
        <time>2018-10-17T11:22:32Z</time>
      </trkpt>
      <trkpt lat="45.80537" lon="6.42419">
        <ele>2100</ele>
        <time>2018-10-17T11:22:33Z</time>
      </trkpt>
      <trkpt lat="45.80537" lon="6.42419">
        <ele>2100</ele>
        <time>2018-10-17T11:22:34Z</time>
      </trkpt>
      <trkpt lat="45.80537" lon="6.42419">
        <ele>2100</ele>
        <time>2018-10-17T11:22:35Z</time>
      </trkpt>
      <trkpt lat="45.80537" lon="6.42422">
        <ele>2100</ele>
        <time>2018-10-17T11:22:36Z</time>
      </trkpt>
      <trkpt lat="45.80537" lon="6.42422">
        <ele>2101</ele>
        <time>2018-10-17T11:22:37Z</time>
      </trkpt>
      <trkpt lat="45.80537" lon="6.42422">
        <ele>2101</ele>
        <time>2018-10-17T11:22:38Z</time>
      </trkpt>
      <trkpt lat="45.80537" lon="6.42422">
        <ele>2101</ele>
        <time>2018-10-17T11:22:39Z</time>
      </trkpt>
      <trkpt lat="45.80538" lon="6.42426">
        <ele>2101</ele>
        <time>2018-10-17T11:22:40Z</time>
      </trkpt>
      <trkpt lat="45.80538" lon="6.42426">
        <ele>2101</ele>
        <time>2018-10-17T11:22:41Z</time>
      </trkpt>
      <trkpt lat="45.80538" lon="6.42426">
        <ele>2101</ele>
        <time>2018-10-17T11:22:42Z</time>
      </trkpt>
      <trkpt lat="45.80538" lon="6.42426">
        <ele>2101</ele>
        <time>2018-10-17T11:22:43Z</time>
      </trkpt>
      <trkpt lat="45.80538" lon="6.42426">
        <ele>2101</ele>
        <time>2018-10-17T11:22:44Z</time>
      </trkpt>
      <trkpt lat="45.80538" lon="6.42426">
        <ele>2101</ele>
        <time>2018-10-17T11:22:45Z</time>
      </trkpt>
      <trkpt lat="45.80538" lon="6.42426">
        <ele>2102</ele>
        <time>2018-10-17T11:22:46Z</time>
      </trkpt>
      <trkpt lat="45.80536" lon="6.42425">
        <ele>2102</ele>
        <time>2018-10-17T11:22:47Z</time>
      </trkpt>
      <trkpt lat="45.80536" lon="6.42425">
        <ele>2103</ele>
        <time>2018-10-17T11:22:48Z</time>
      </trkpt>
      <trkpt lat="45.80536" lon="6.42425">
        <ele>2103</ele>
        <time>2018-10-17T11:22:49Z</time>
      </trkpt>
      <trkpt lat="45.80536" lon="6.42425">
        <ele>2103</ele>
        <time>2018-10-17T11:22:50Z</time>
      </trkpt>
      <trkpt lat="45.80536" lon="6.42425">
        <ele>2103</ele>
        <time>2018-10-17T11:22:51Z</time>
      </trkpt>
      <trkpt lat="45.80534" lon="6.42425">
        <ele>2103</ele>
        <time>2018-10-17T11:22:52Z</time>
      </trkpt>
      <trkpt lat="45.80534" lon="6.42425">
        <ele>2103</ele>
        <time>2018-10-17T11:22:53Z</time>
      </trkpt>
      <trkpt lat="45.80534" lon="6.42425">
        <ele>2104</ele>
        <time>2018-10-17T11:22:54Z</time>
      </trkpt>
      <trkpt lat="45.80534" lon="6.42425">
        <ele>2104</ele>
        <time>2018-10-17T11:22:55Z</time>
      </trkpt>
      <trkpt lat="45.80534" lon="6.42425">
        <ele>2104</ele>
        <time>2018-10-17T11:22:56Z</time>
      </trkpt>
      <trkpt lat="45.80532" lon="6.42425">
        <ele>2104</ele>
        <time>2018-10-17T11:22:57Z</time>
      </trkpt>
      <trkpt lat="45.80532" lon="6.42425">
        <ele>2104</ele>
        <time>2018-10-17T11:22:58Z</time>
      </trkpt>
      <trkpt lat="45.80532" lon="6.42425">
        <ele>2104</ele>
        <time>2018-10-17T11:22:59Z</time>
      </trkpt>
      <trkpt lat="45.80532" lon="6.42425">
        <ele>2104</ele>
        <time>2018-10-17T11:23:00Z</time>
      </trkpt>
      <trkpt lat="45.80532" lon="6.42425">
        <ele>2104</ele>
        <time>2018-10-17T11:23:01Z</time>
      </trkpt>
      <trkpt lat="45.80532" lon="6.42425">
        <ele>2105</ele>
        <time>2018-10-17T11:23:02Z</time>
      </trkpt>
      <trkpt lat="45.80532" lon="6.42425">
        <ele>2105</ele>
        <time>2018-10-17T11:23:03Z</time>
      </trkpt>
      <trkpt lat="45.8053" lon="6.42424">
        <ele>2105</ele>
        <time>2018-10-17T11:23:04Z</time>
      </trkpt>
      <trkpt lat="45.8053" lon="6.42424">
        <ele>2105</ele>
        <time>2018-10-17T11:23:05Z</time>
      </trkpt>
      <trkpt lat="45.8053" lon="6.42424">
        <ele>2106</ele>
        <time>2018-10-17T11:23:06Z</time>
      </trkpt>
      <trkpt lat="45.8053" lon="6.42424">
        <ele>2106</ele>
        <time>2018-10-17T11:23:07Z</time>
      </trkpt>
      <trkpt lat="45.8053" lon="6.42424">
        <ele>2106</ele>
        <time>2018-10-17T11:23:08Z</time>
      </trkpt>
      <trkpt lat="45.8053" lon="6.42424">
        <ele>2106</ele>
        <time>2018-10-17T11:23:09Z</time>
      </trkpt>
      <trkpt lat="45.8053" lon="6.42424">
        <ele>2106</ele>
        <time>2018-10-17T11:23:10Z</time>
      </trkpt>
      <trkpt lat="45.8053" lon="6.42424">
        <ele>2106</ele>
        <time>2018-10-17T11:23:11Z</time>
      </trkpt>
      <trkpt lat="45.8053" lon="6.42424">
        <ele>2106</ele>
        <time>2018-10-17T11:23:12Z</time>
      </trkpt>
      <trkpt lat="45.80528" lon="6.42427">
        <ele>2106</ele>
        <time>2018-10-17T11:23:13Z</time>
      </trkpt>
      <trkpt lat="45.80528" lon="6.42427">
        <ele>2106</ele>
        <time>2018-10-17T11:23:14Z</time>
      </trkpt>
      <trkpt lat="45.80528" lon="6.42427">
        <ele>2106</ele>
        <time>2018-10-17T11:23:15Z</time>
      </trkpt>
      <trkpt lat="45.80528" lon="6.42427">
        <ele>2106</ele>
        <time>2018-10-17T11:23:16Z</time>
      </trkpt>
      <trkpt lat="45.80528" lon="6.42427">
        <ele>2106</ele>
        <time>2018-10-17T11:23:17Z</time>
      </trkpt>
      <trkpt lat="45.80526" lon="6.42427">
        <ele>2106</ele>
        <time>2018-10-17T11:23:18Z</time>
      </trkpt>
      <trkpt lat="45.80526" lon="6.42427">
        <ele>2106</ele>
        <time>2018-10-17T11:23:19Z</time>
      </trkpt>
      <trkpt lat="45.80526" lon="6.42427">
        <ele>2107</ele>
        <time>2018-10-17T11:23:20Z</time>
      </trkpt>
      <trkpt lat="45.80526" lon="6.42427">
        <ele>2107</ele>
        <time>2018-10-17T11:23:21Z</time>
      </trkpt>
      <trkpt lat="45.80526" lon="6.42427">
        <ele>2107</ele>
        <time>2018-10-17T11:23:22Z</time>
      </trkpt>
      <trkpt lat="45.80526" lon="6.42427">
        <ele>2107</ele>
        <time>2018-10-17T11:23:23Z</time>
      </trkpt>
      <trkpt lat="45.80525" lon="6.42426">
        <ele>2108</ele>
        <time>2018-10-17T11:23:24Z</time>
      </trkpt>
      <trkpt lat="45.80525" lon="6.42426">
        <ele>2108</ele>
        <time>2018-10-17T11:23:25Z</time>
      </trkpt>
      <trkpt lat="45.80525" lon="6.42426">
        <ele>2108</ele>
        <time>2018-10-17T11:23:26Z</time>
      </trkpt>
      <trkpt lat="45.80525" lon="6.42426">
        <ele>2108</ele>
        <time>2018-10-17T11:23:27Z</time>
      </trkpt>
      <trkpt lat="45.80525" lon="6.42426">
        <ele>2108</ele>
        <time>2018-10-17T11:23:28Z</time>
      </trkpt>
      <trkpt lat="45.80523" lon="6.42425">
        <ele>2108</ele>
        <time>2018-10-17T11:23:29Z</time>
      </trkpt>
      <trkpt lat="45.80523" lon="6.42425">
        <ele>2109</ele>
        <time>2018-10-17T11:23:30Z</time>
      </trkpt>
      <trkpt lat="45.80523" lon="6.42425">
        <ele>2109</ele>
        <time>2018-10-17T11:23:31Z</time>
      </trkpt>
      <trkpt lat="45.80523" lon="6.42425">
        <ele>2109</ele>
        <time>2018-10-17T11:23:32Z</time>
      </trkpt>
      <trkpt lat="45.80521" lon="6.42422">
        <ele>2109</ele>
        <time>2018-10-17T11:23:33Z</time>
      </trkpt>
      <trkpt lat="45.80521" lon="6.42422">
        <ele>2109</ele>
        <time>2018-10-17T11:23:34Z</time>
      </trkpt>
      <trkpt lat="45.80521" lon="6.42422">
        <ele>2110</ele>
        <time>2018-10-17T11:23:35Z</time>
      </trkpt>
      <trkpt lat="45.80521" lon="6.42422">
        <ele>2111</ele>
        <time>2018-10-17T11:23:36Z</time>
      </trkpt>
      <trkpt lat="45.80521" lon="6.42422">
        <ele>2111</ele>
        <time>2018-10-17T11:23:37Z</time>
      </trkpt>
      <trkpt lat="45.8052" lon="6.42425">
        <ele>2111</ele>
        <time>2018-10-17T11:23:38Z</time>
      </trkpt>
      <trkpt lat="45.8052" lon="6.42425">
        <ele>2111</ele>
        <time>2018-10-17T11:23:39Z</time>
      </trkpt>
      <trkpt lat="45.8052" lon="6.42425">
        <ele>2111</ele>
        <time>2018-10-17T11:23:40Z</time>
      </trkpt>
      <trkpt lat="45.8052" lon="6.42425">
        <ele>2111</ele>
        <time>2018-10-17T11:23:41Z</time>
      </trkpt>
      <trkpt lat="45.8052" lon="6.42425">
        <ele>2111</ele>
        <time>2018-10-17T11:23:42Z</time>
      </trkpt>
      <trkpt lat="45.8052" lon="6.42428">
        <ele>2111</ele>
        <time>2018-10-17T11:23:43Z</time>
      </trkpt>
      <trkpt lat="45.8052" lon="6.42428">
        <ele>2111</ele>
        <time>2018-10-17T11:23:44Z</time>
      </trkpt>
      <trkpt lat="45.8052" lon="6.42428">
        <ele>2111</ele>
        <time>2018-10-17T11:23:45Z</time>
      </trkpt>
      <trkpt lat="45.8052" lon="6.42428">
        <ele>2111</ele>
        <time>2018-10-17T11:23:46Z</time>
      </trkpt>
      <trkpt lat="45.8052" lon="6.42428">
        <ele>2111</ele>
        <time>2018-10-17T11:23:47Z</time>
      </trkpt>
      <trkpt lat="45.8052" lon="6.42431">
        <ele>2112</ele>
        <time>2018-10-17T11:23:48Z</time>
      </trkpt>
      <trkpt lat="45.8052" lon="6.42431">
        <ele>2112</ele>
        <time>2018-10-17T11:23:49Z</time>
      </trkpt>
      <trkpt lat="45.8052" lon="6.42431">
        <ele>2112</ele>
        <time>2018-10-17T11:23:50Z</time>
      </trkpt>
      <trkpt lat="45.8052" lon="6.42431">
        <ele>2112</ele>
        <time>2018-10-17T11:23:51Z</time>
      </trkpt>
      <trkpt lat="45.8052" lon="6.42431">
        <ele>2112</ele>
        <time>2018-10-17T11:23:52Z</time>
      </trkpt>
      <trkpt lat="45.80518" lon="6.4243">
        <ele>2112</ele>
        <time>2018-10-17T11:23:53Z</time>
      </trkpt>
      <trkpt lat="45.80518" lon="6.4243">
        <ele>2113</ele>
        <time>2018-10-17T11:23:54Z</time>
      </trkpt>
      <trkpt lat="45.80518" lon="6.4243">
        <ele>2113</ele>
        <time>2018-10-17T11:23:55Z</time>
      </trkpt>
      <trkpt lat="45.80518" lon="6.4243">
        <ele>2114</ele>
        <time>2018-10-17T11:23:56Z</time>
      </trkpt>
      <trkpt lat="45.80518" lon="6.4243">
        <ele>2114</ele>
        <time>2018-10-17T11:23:57Z</time>
      </trkpt>
      <trkpt lat="45.80516" lon="6.42429">
        <ele>2114</ele>
        <time>2018-10-17T11:23:58Z</time>
      </trkpt>
      <trkpt lat="45.80516" lon="6.42429">
        <ele>2115</ele>
        <time>2018-10-17T11:23:59Z</time>
      </trkpt>
      <trkpt lat="45.80516" lon="6.42429">
        <ele>2115</ele>
        <time>2018-10-17T11:24:00Z</time>
      </trkpt>
      <trkpt lat="45.80516" lon="6.42429">
        <ele>2115</ele>
        <time>2018-10-17T11:24:01Z</time>
      </trkpt>
      <trkpt lat="45.80516" lon="6.42429">
        <ele>2115</ele>
        <time>2018-10-17T11:24:02Z</time>
      </trkpt>
      <trkpt lat="45.80516" lon="6.42429">
        <ele>2116</ele>
        <time>2018-10-17T11:24:03Z</time>
      </trkpt>
      <trkpt lat="45.80516" lon="6.42429">
        <ele>2116</ele>
        <time>2018-10-17T11:24:04Z</time>
      </trkpt>
      <trkpt lat="45.80514" lon="6.4243">
        <ele>2116</ele>
        <time>2018-10-17T11:24:05Z</time>
      </trkpt>
      <trkpt lat="45.80514" lon="6.4243">
        <ele>2116</ele>
        <time>2018-10-17T11:24:06Z</time>
      </trkpt>
      <trkpt lat="45.80514" lon="6.4243">
        <ele>2116</ele>
        <time>2018-10-17T11:24:07Z</time>
      </trkpt>
      <trkpt lat="45.80514" lon="6.4243">
        <ele>2116</ele>
        <time>2018-10-17T11:24:08Z</time>
      </trkpt>
      <trkpt lat="45.80514" lon="6.4243">
        <ele>2116</ele>
        <time>2018-10-17T11:24:09Z</time>
      </trkpt>
      <trkpt lat="45.80512" lon="6.4243">
        <ele>2116</ele>
        <time>2018-10-17T11:24:10Z</time>
      </trkpt>
      <trkpt lat="45.80512" lon="6.4243">
        <ele>2117</ele>
        <time>2018-10-17T11:24:11Z</time>
      </trkpt>
      <trkpt lat="45.80512" lon="6.4243">
        <ele>2117</ele>
        <time>2018-10-17T11:24:12Z</time>
      </trkpt>
      <trkpt lat="45.80512" lon="6.4243">
        <ele>2118</ele>
        <time>2018-10-17T11:24:13Z</time>
      </trkpt>
      <trkpt lat="45.80512" lon="6.4243">
        <ele>2118</ele>
        <time>2018-10-17T11:24:14Z</time>
      </trkpt>
      <trkpt lat="45.80512" lon="6.4243">
        <ele>2118</ele>
        <time>2018-10-17T11:24:15Z</time>
      </trkpt>
      <trkpt lat="45.8051" lon="6.42428">
        <ele>2118</ele>
        <time>2018-10-17T11:24:16Z</time>
      </trkpt>
      <trkpt lat="45.8051" lon="6.42428">
        <ele>2118</ele>
        <time>2018-10-17T11:24:17Z</time>
      </trkpt>
      <trkpt lat="45.8051" lon="6.42428">
        <ele>2118</ele>
        <time>2018-10-17T11:24:18Z</time>
      </trkpt>
      <trkpt lat="45.8051" lon="6.42428">
        <ele>2118</ele>
        <time>2018-10-17T11:24:19Z</time>
      </trkpt>
      <trkpt lat="45.8051" lon="6.42428">
        <ele>2118</ele>
        <time>2018-10-17T11:24:20Z</time>
      </trkpt>
      <trkpt lat="45.80509" lon="6.42427">
        <ele>2118</ele>
        <time>2018-10-17T11:24:21Z</time>
      </trkpt>
      <trkpt lat="45.80509" lon="6.42427">
        <ele>2118</ele>
        <time>2018-10-17T11:24:22Z</time>
      </trkpt>
      <trkpt lat="45.80509" lon="6.42427">
        <ele>2118</ele>
        <time>2018-10-17T11:24:23Z</time>
      </trkpt>
      <trkpt lat="45.80509" lon="6.42427">
        <ele>2119</ele>
        <time>2018-10-17T11:24:24Z</time>
      </trkpt>
      <trkpt lat="45.80509" lon="6.42427">
        <ele>2119</ele>
        <time>2018-10-17T11:24:25Z</time>
      </trkpt>
      <trkpt lat="45.80507" lon="6.42426">
        <ele>2119</ele>
        <time>2018-10-17T11:24:26Z</time>
      </trkpt>
      <trkpt lat="45.80507" lon="6.42426">
        <ele>2119</ele>
        <time>2018-10-17T11:24:27Z</time>
      </trkpt>
      <trkpt lat="45.80507" lon="6.42426">
        <ele>2119</ele>
        <time>2018-10-17T11:24:28Z</time>
      </trkpt>
      <trkpt lat="45.80507" lon="6.42426">
        <ele>2119</ele>
        <time>2018-10-17T11:24:29Z</time>
      </trkpt>
      <trkpt lat="45.80507" lon="6.42426">
        <ele>2120</ele>
        <time>2018-10-17T11:24:30Z</time>
      </trkpt>
      <trkpt lat="45.80505" lon="6.42424">
        <ele>2120</ele>
        <time>2018-10-17T11:24:31Z</time>
      </trkpt>
      <trkpt lat="45.80505" lon="6.42424">
        <ele>2120</ele>
        <time>2018-10-17T11:24:32Z</time>
      </trkpt>
      <trkpt lat="45.80505" lon="6.42424">
        <ele>2121</ele>
        <time>2018-10-17T11:24:33Z</time>
      </trkpt>
      <trkpt lat="45.80505" lon="6.42424">
        <ele>2121</ele>
        <time>2018-10-17T11:24:34Z</time>
      </trkpt>
      <trkpt lat="45.80505" lon="6.42424">
        <ele>2121</ele>
        <time>2018-10-17T11:24:35Z</time>
      </trkpt>
      <trkpt lat="45.80505" lon="6.42424">
        <ele>2121</ele>
        <time>2018-10-17T11:24:36Z</time>
      </trkpt>
      <trkpt lat="45.80504" lon="6.42427">
        <ele>2121</ele>
        <time>2018-10-17T11:24:37Z</time>
      </trkpt>
      <trkpt lat="45.80504" lon="6.42427">
        <ele>2121</ele>
        <time>2018-10-17T11:24:38Z</time>
      </trkpt>
      <trkpt lat="45.80504" lon="6.42427">
        <ele>2121</ele>
        <time>2018-10-17T11:24:39Z</time>
      </trkpt>
      <trkpt lat="45.80504" lon="6.42427">
        <ele>2122</ele>
        <time>2018-10-17T11:24:40Z</time>
      </trkpt>
      <trkpt lat="45.80502" lon="6.42427">
        <ele>2122</ele>
        <time>2018-10-17T11:24:41Z</time>
      </trkpt>
      <trkpt lat="45.80502" lon="6.42427">
        <ele>2122</ele>
        <time>2018-10-17T11:24:42Z</time>
      </trkpt>
      <trkpt lat="45.80502" lon="6.42427">
        <ele>2122</ele>
        <time>2018-10-17T11:24:43Z</time>
      </trkpt>
      <trkpt lat="45.80502" lon="6.42427">
        <ele>2122</ele>
        <time>2018-10-17T11:24:44Z</time>
      </trkpt>
      <trkpt lat="45.80502" lon="6.42427">
        <ele>2122</ele>
        <time>2018-10-17T11:24:45Z</time>
      </trkpt>
      <trkpt lat="45.805" lon="6.42426">
        <ele>2122</ele>
        <time>2018-10-17T11:24:46Z</time>
      </trkpt>
      <trkpt lat="45.805" lon="6.42426">
        <ele>2122</ele>
        <time>2018-10-17T11:24:47Z</time>
      </trkpt>
      <trkpt lat="45.805" lon="6.42426">
        <ele>2122</ele>
        <time>2018-10-17T11:24:48Z</time>
      </trkpt>
      <trkpt lat="45.805" lon="6.42426">
        <ele>2123</ele>
        <time>2018-10-17T11:24:49Z</time>
      </trkpt>
      <trkpt lat="45.80498" lon="6.42424">
        <ele>2123</ele>
        <time>2018-10-17T11:24:50Z</time>
      </trkpt>
      <trkpt lat="45.80498" lon="6.42424">
        <ele>2123</ele>
        <time>2018-10-17T11:24:51Z</time>
      </trkpt>
      <trkpt lat="45.80498" lon="6.42424">
        <ele>2124</ele>
        <time>2018-10-17T11:24:52Z</time>
      </trkpt>
      <trkpt lat="45.80498" lon="6.42424">
        <ele>2124</ele>
        <time>2018-10-17T11:24:53Z</time>
      </trkpt>
      <trkpt lat="45.80498" lon="6.42424">
        <ele>2124</ele>
        <time>2018-10-17T11:24:54Z</time>
      </trkpt>
      <trkpt lat="45.80498" lon="6.42424">
        <ele>2124</ele>
        <time>2018-10-17T11:24:55Z</time>
      </trkpt>
      <trkpt lat="45.80498" lon="6.42424">
        <ele>2124</ele>
        <time>2018-10-17T11:24:56Z</time>
      </trkpt>
      <trkpt lat="45.80498" lon="6.42424">
        <ele>2124</ele>
        <time>2018-10-17T11:24:57Z</time>
      </trkpt>
      <trkpt lat="45.80496" lon="6.42424">
        <ele>2124</ele>
        <time>2018-10-17T11:24:58Z</time>
      </trkpt>
      <trkpt lat="45.80496" lon="6.42424">
        <ele>2124</ele>
        <time>2018-10-17T11:24:59Z</time>
      </trkpt>
      <trkpt lat="45.80496" lon="6.42424">
        <ele>2125</ele>
        <time>2018-10-17T11:25:00Z</time>
      </trkpt>
      <trkpt lat="45.80496" lon="6.42424">
        <ele>2125</ele>
        <time>2018-10-17T11:25:01Z</time>
      </trkpt>
      <trkpt lat="45.80496" lon="6.42424">
        <ele>2125</ele>
        <time>2018-10-17T11:25:02Z</time>
      </trkpt>
      <trkpt lat="45.80495" lon="6.42427">
        <ele>2125</ele>
        <time>2018-10-17T11:25:03Z</time>
      </trkpt>
      <trkpt lat="45.80495" lon="6.42427">
        <ele>2125</ele>
        <time>2018-10-17T11:25:04Z</time>
      </trkpt>
      <trkpt lat="45.80495" lon="6.42427">
        <ele>2126</ele>
        <time>2018-10-17T11:25:05Z</time>
      </trkpt>
      <trkpt lat="45.80495" lon="6.42427">
        <ele>2126</ele>
        <time>2018-10-17T11:25:06Z</time>
      </trkpt>
      <trkpt lat="45.80495" lon="6.42427">
        <ele>2126</ele>
        <time>2018-10-17T11:25:07Z</time>
      </trkpt>
      <trkpt lat="45.80494" lon="6.42427">
        <ele>2126</ele>
        <time>2018-10-17T11:25:08Z</time>
      </trkpt>
      <trkpt lat="45.80494" lon="6.42427">
        <ele>2126</ele>
        <time>2018-10-17T11:25:09Z</time>
      </trkpt>
      <trkpt lat="45.80494" lon="6.42427">
        <ele>2126</ele>
        <time>2018-10-17T11:25:10Z</time>
      </trkpt>
      <trkpt lat="45.80494" lon="6.42427">
        <ele>2126</ele>
        <time>2018-10-17T11:25:11Z</time>
      </trkpt>
      <trkpt lat="45.80494" lon="6.42427">
        <ele>2126</ele>
        <time>2018-10-17T11:25:12Z</time>
      </trkpt>
      <trkpt lat="45.80494" lon="6.42427">
        <ele>2127</ele>
        <time>2018-10-17T11:25:13Z</time>
      </trkpt>
      <trkpt lat="45.80494" lon="6.42427">
        <ele>2127</ele>
        <time>2018-10-17T11:25:14Z</time>
      </trkpt>
      <trkpt lat="45.80494" lon="6.42427">
        <ele>2127</ele>
        <time>2018-10-17T11:25:15Z</time>
      </trkpt>
      <trkpt lat="45.80492" lon="6.42428">
        <ele>2127</ele>
        <time>2018-10-17T11:25:16Z</time>
      </trkpt>
      <trkpt lat="45.80492" lon="6.42428">
        <ele>2127</ele>
        <time>2018-10-17T11:25:17Z</time>
      </trkpt>
      <trkpt lat="45.80492" lon="6.42428">
        <ele>2127</ele>
        <time>2018-10-17T11:25:18Z</time>
      </trkpt>
      <trkpt lat="45.80492" lon="6.42428">
        <ele>2127</ele>
        <time>2018-10-17T11:25:19Z</time>
      </trkpt>
      <trkpt lat="45.80492" lon="6.42428">
        <ele>2128</ele>
        <time>2018-10-17T11:25:20Z</time>
      </trkpt>
      <trkpt lat="45.8049" lon="6.42428">
        <ele>2129</ele>
        <time>2018-10-17T11:25:21Z</time>
      </trkpt>
      <trkpt lat="45.8049" lon="6.42428">
        <ele>2129</ele>
        <time>2018-10-17T11:25:22Z</time>
      </trkpt>
      <trkpt lat="45.8049" lon="6.42428">
        <ele>2129</ele>
        <time>2018-10-17T11:25:23Z</time>
      </trkpt>
      <trkpt lat="45.8049" lon="6.42428">
        <ele>2129</ele>
        <time>2018-10-17T11:25:24Z</time>
      </trkpt>
      <trkpt lat="45.80488" lon="6.42428">
        <ele>2129</ele>
        <time>2018-10-17T11:25:25Z</time>
      </trkpt>
      <trkpt lat="45.80488" lon="6.42428">
        <ele>2130</ele>
        <time>2018-10-17T11:25:26Z</time>
      </trkpt>
      <trkpt lat="45.80488" lon="6.42428">
        <ele>2130</ele>
        <time>2018-10-17T11:25:27Z</time>
      </trkpt>
      <trkpt lat="45.80488" lon="6.42428">
        <ele>2130</ele>
        <time>2018-10-17T11:25:28Z</time>
      </trkpt>
      <trkpt lat="45.80486" lon="6.42429">
        <ele>2130</ele>
        <time>2018-10-17T11:25:29Z</time>
      </trkpt>
      <trkpt lat="45.80486" lon="6.42429">
        <ele>2130</ele>
        <time>2018-10-17T11:25:30Z</time>
      </trkpt>
      <trkpt lat="45.80486" lon="6.42429">
        <ele>2130</ele>
        <time>2018-10-17T11:25:31Z</time>
      </trkpt>
      <trkpt lat="45.80486" lon="6.42429">
        <ele>2130</ele>
        <time>2018-10-17T11:25:32Z</time>
      </trkpt>
      <trkpt lat="45.80486" lon="6.42429">
        <ele>2131</ele>
        <time>2018-10-17T11:25:33Z</time>
      </trkpt>
      <trkpt lat="45.80486" lon="6.42429">
        <ele>2131</ele>
        <time>2018-10-17T11:25:34Z</time>
      </trkpt>
      <trkpt lat="45.80486" lon="6.42431">
        <ele>2131</ele>
        <time>2018-10-17T11:25:35Z</time>
      </trkpt>
      <trkpt lat="45.80486" lon="6.42431">
        <ele>2131</ele>
        <time>2018-10-17T11:25:36Z</time>
      </trkpt>
      <trkpt lat="45.80486" lon="6.42431">
        <ele>2131</ele>
        <time>2018-10-17T11:25:37Z</time>
      </trkpt>
      <trkpt lat="45.80487" lon="6.42434">
        <ele>2131</ele>
        <time>2018-10-17T11:25:38Z</time>
      </trkpt>
      <trkpt lat="45.80487" lon="6.42434">
        <ele>2132</ele>
        <time>2018-10-17T11:25:39Z</time>
      </trkpt>
      <trkpt lat="45.80487" lon="6.42434">
        <ele>2132</ele>
        <time>2018-10-17T11:25:40Z</time>
      </trkpt>
      <trkpt lat="45.80487" lon="6.42434">
        <ele>2132</ele>
        <time>2018-10-17T11:25:41Z</time>
      </trkpt>
      <trkpt lat="45.80487" lon="6.42437">
        <ele>2132</ele>
        <time>2018-10-17T11:25:42Z</time>
      </trkpt>
      <trkpt lat="45.80487" lon="6.42437">
        <ele>2132</ele>
        <time>2018-10-17T11:25:43Z</time>
      </trkpt>
      <trkpt lat="45.80487" lon="6.42437">
        <ele>2133</ele>
        <time>2018-10-17T11:25:44Z</time>
      </trkpt>
      <trkpt lat="45.80487" lon="6.42437">
        <ele>2133</ele>
        <time>2018-10-17T11:25:45Z</time>
      </trkpt>
      <trkpt lat="45.80488" lon="6.4244">
        <ele>2133</ele>
        <time>2018-10-17T11:25:46Z</time>
      </trkpt>
      <trkpt lat="45.80488" lon="6.4244">
        <ele>2133</ele>
        <time>2018-10-17T11:25:47Z</time>
      </trkpt>
      <trkpt lat="45.80488" lon="6.4244">
        <ele>2133</ele>
        <time>2018-10-17T11:25:48Z</time>
      </trkpt>
      <trkpt lat="45.80488" lon="6.4244">
        <ele>2133</ele>
        <time>2018-10-17T11:25:49Z</time>
      </trkpt>
      <trkpt lat="45.80488" lon="6.4244">
        <ele>2134</ele>
        <time>2018-10-17T11:25:50Z</time>
      </trkpt>
      <trkpt lat="45.80488" lon="6.4244">
        <ele>2134</ele>
        <time>2018-10-17T11:25:51Z</time>
      </trkpt>
      <trkpt lat="45.80487" lon="6.42443">
        <ele>2134</ele>
        <time>2018-10-17T11:25:52Z</time>
      </trkpt>
      <trkpt lat="45.80487" lon="6.42443">
        <ele>2134</ele>
        <time>2018-10-17T11:25:53Z</time>
      </trkpt>
      <trkpt lat="45.80487" lon="6.42443">
        <ele>2134</ele>
        <time>2018-10-17T11:25:54Z</time>
      </trkpt>
      <trkpt lat="45.80487" lon="6.42443">
        <ele>2134</ele>
        <time>2018-10-17T11:25:55Z</time>
      </trkpt>
      <trkpt lat="45.80487" lon="6.42443">
        <ele>2134</ele>
        <time>2018-10-17T11:25:56Z</time>
      </trkpt>
      <trkpt lat="45.80487" lon="6.42443">
        <ele>2134</ele>
        <time>2018-10-17T11:25:57Z</time>
      </trkpt>
      <trkpt lat="45.80488" lon="6.42445">
        <ele>2134</ele>
        <time>2018-10-17T11:25:58Z</time>
      </trkpt>
      <trkpt lat="45.80488" lon="6.42445">
        <ele>2134</ele>
        <time>2018-10-17T11:25:59Z</time>
      </trkpt>
      <trkpt lat="45.80488" lon="6.42445">
        <ele>2134</ele>
        <time>2018-10-17T11:26:00Z</time>
      </trkpt>
      <trkpt lat="45.80488" lon="6.42445">
        <ele>2136</ele>
        <time>2018-10-17T11:26:01Z</time>
      </trkpt>
      <trkpt lat="45.80488" lon="6.42445">
        <ele>2137</ele>
        <time>2018-10-17T11:26:02Z</time>
      </trkpt>
      <trkpt lat="45.80489" lon="6.42448">
        <ele>2137</ele>
        <time>2018-10-17T11:26:03Z</time>
      </trkpt>
      <trkpt lat="45.80489" lon="6.42448">
        <ele>2137</ele>
        <time>2018-10-17T11:26:04Z</time>
      </trkpt>
      <trkpt lat="45.80489" lon="6.42448">
        <ele>2137</ele>
        <time>2018-10-17T11:26:05Z</time>
      </trkpt>
      <trkpt lat="45.80489" lon="6.42448">
        <ele>2138</ele>
        <time>2018-10-17T11:26:06Z</time>
      </trkpt>
      <trkpt lat="45.80489" lon="6.42448">
        <ele>2138</ele>
        <time>2018-10-17T11:26:07Z</time>
      </trkpt>
      <trkpt lat="45.80489" lon="6.4245">
        <ele>2138</ele>
        <time>2018-10-17T11:26:08Z</time>
      </trkpt>
      <trkpt lat="45.80489" lon="6.4245">
        <ele>2138</ele>
        <time>2018-10-17T11:26:09Z</time>
      </trkpt>
      <trkpt lat="45.80489" lon="6.4245">
        <ele>2138</ele>
        <time>2018-10-17T11:26:10Z</time>
      </trkpt>
      <trkpt lat="45.80489" lon="6.4245">
        <ele>2138</ele>
        <time>2018-10-17T11:26:11Z</time>
      </trkpt>
      <trkpt lat="45.80489" lon="6.4245">
        <ele>2138</ele>
        <time>2018-10-17T11:26:12Z</time>
      </trkpt>
      <trkpt lat="45.80487" lon="6.4245">
        <ele>2138</ele>
        <time>2018-10-17T11:26:13Z</time>
      </trkpt>
      <trkpt lat="45.80487" lon="6.4245">
        <ele>2139</ele>
        <time>2018-10-17T11:26:14Z</time>
      </trkpt>
      <trkpt lat="45.80487" lon="6.4245">
        <ele>2139</ele>
        <time>2018-10-17T11:26:15Z</time>
      </trkpt>
      <trkpt lat="45.80487" lon="6.4245">
        <ele>2139</ele>
        <time>2018-10-17T11:26:16Z</time>
      </trkpt>
      <trkpt lat="45.80487" lon="6.4245">
        <ele>2139</ele>
        <time>2018-10-17T11:26:17Z</time>
      </trkpt>
      <trkpt lat="45.80487" lon="6.4245">
        <ele>2139</ele>
        <time>2018-10-17T11:26:18Z</time>
      </trkpt>
      <trkpt lat="45.80487" lon="6.4245">
        <ele>2139</ele>
        <time>2018-10-17T11:26:19Z</time>
      </trkpt>
      <trkpt lat="45.80487" lon="6.4245">
        <ele>2139</ele>
        <time>2018-10-17T11:26:20Z</time>
      </trkpt>
      <trkpt lat="45.80487" lon="6.4245">
        <ele>2139</ele>
        <time>2018-10-17T11:26:21Z</time>
      </trkpt>
      <trkpt lat="45.80487" lon="6.4245">
        <ele>2139</ele>
        <time>2018-10-17T11:26:22Z</time>
      </trkpt>
      <trkpt lat="45.80487" lon="6.4245">
        <ele>2139</ele>
        <time>2018-10-17T11:26:23Z</time>
      </trkpt>
      <trkpt lat="45.80487" lon="6.4245">
        <ele>2140</ele>
        <time>2018-10-17T11:26:24Z</time>
      </trkpt>
      <trkpt lat="45.80489" lon="6.42451">
        <ele>2140</ele>
        <time>2018-10-17T11:26:25Z</time>
      </trkpt>
      <trkpt lat="45.80489" lon="6.42451">
        <ele>2140</ele>
        <time>2018-10-17T11:26:26Z</time>
      </trkpt>
      <trkpt lat="45.80489" lon="6.42451">
        <ele>2140</ele>
        <time>2018-10-17T11:26:27Z</time>
      </trkpt>
      <trkpt lat="45.8049" lon="6.42453">
        <ele>2140</ele>
        <time>2018-10-17T11:26:28Z</time>
      </trkpt>
      <trkpt lat="45.8049" lon="6.42453">
        <ele>2140</ele>
        <time>2018-10-17T11:26:29Z</time>
      </trkpt>
      <trkpt lat="45.8049" lon="6.42453">
        <ele>2140</ele>
        <time>2018-10-17T11:26:30Z</time>
      </trkpt>
      <trkpt lat="45.8049" lon="6.42453">
        <ele>2140</ele>
        <time>2018-10-17T11:26:31Z</time>
      </trkpt>
      <trkpt lat="45.80491" lon="6.42456">
        <ele>2141</ele>
        <time>2018-10-17T11:26:32Z</time>
      </trkpt>
      <trkpt lat="45.80491" lon="6.42456">
        <ele>2142</ele>
        <time>2018-10-17T11:26:33Z</time>
      </trkpt>
      <trkpt lat="45.80491" lon="6.42456">
        <ele>2142</ele>
        <time>2018-10-17T11:26:34Z</time>
      </trkpt>
      <trkpt lat="45.80491" lon="6.42456">
        <ele>2142</ele>
        <time>2018-10-17T11:26:35Z</time>
      </trkpt>
      <trkpt lat="45.80492" lon="6.42458">
        <ele>2142</ele>
        <time>2018-10-17T11:26:36Z</time>
      </trkpt>
      <trkpt lat="45.80492" lon="6.42458">
        <ele>2142</ele>
        <time>2018-10-17T11:26:37Z</time>
      </trkpt>
      <trkpt lat="45.80492" lon="6.42458">
        <ele>2142</ele>
        <time>2018-10-17T11:26:38Z</time>
      </trkpt>
      <trkpt lat="45.80492" lon="6.42458">
        <ele>2143</ele>
        <time>2018-10-17T11:26:39Z</time>
      </trkpt>
      <trkpt lat="45.80492" lon="6.42458">
        <ele>2143</ele>
        <time>2018-10-17T11:26:40Z</time>
      </trkpt>
      <trkpt lat="45.80492" lon="6.42461">
        <ele>2143</ele>
        <time>2018-10-17T11:26:41Z</time>
      </trkpt>
      <trkpt lat="45.80492" lon="6.42461">
        <ele>2143</ele>
        <time>2018-10-17T11:26:42Z</time>
      </trkpt>
      <trkpt lat="45.80492" lon="6.42461">
        <ele>2143</ele>
        <time>2018-10-17T11:26:43Z</time>
      </trkpt>
      <trkpt lat="45.80492" lon="6.42461">
        <ele>2143</ele>
        <time>2018-10-17T11:26:44Z</time>
      </trkpt>
      <trkpt lat="45.80493" lon="6.42464">
        <ele>2143</ele>
        <time>2018-10-17T11:26:45Z</time>
      </trkpt>
      <trkpt lat="45.80493" lon="6.42464">
        <ele>2144</ele>
        <time>2018-10-17T11:26:46Z</time>
      </trkpt>
      <trkpt lat="45.80493" lon="6.42464">
        <ele>2144</ele>
        <time>2018-10-17T11:26:47Z</time>
      </trkpt>
      <trkpt lat="45.80493" lon="6.42464">
        <ele>2144</ele>
        <time>2018-10-17T11:26:48Z</time>
      </trkpt>
      <trkpt lat="45.80493" lon="6.42467">
        <ele>2144</ele>
        <time>2018-10-17T11:26:49Z</time>
      </trkpt>
      <trkpt lat="45.80493" lon="6.42467">
        <ele>2144</ele>
        <time>2018-10-17T11:26:50Z</time>
      </trkpt>
      <trkpt lat="45.80493" lon="6.42467">
        <ele>2144</ele>
        <time>2018-10-17T11:26:51Z</time>
      </trkpt>
      <trkpt lat="45.80493" lon="6.42467">
        <ele>2144</ele>
        <time>2018-10-17T11:26:52Z</time>
      </trkpt>
      <trkpt lat="45.80494" lon="6.42469">
        <ele>2145</ele>
        <time>2018-10-17T11:26:53Z</time>
      </trkpt>
      <trkpt lat="45.80494" lon="6.42469">
        <ele>2146</ele>
        <time>2018-10-17T11:26:54Z</time>
      </trkpt>
      <trkpt lat="45.80494" lon="6.42469">
        <ele>2146</ele>
        <time>2018-10-17T11:26:55Z</time>
      </trkpt>
      <trkpt lat="45.80494" lon="6.42469">
        <ele>2146</ele>
        <time>2018-10-17T11:26:56Z</time>
      </trkpt>
      <trkpt lat="45.80494" lon="6.42469">
        <ele>2146</ele>
        <time>2018-10-17T11:26:57Z</time>
      </trkpt>
      <trkpt lat="45.80495" lon="6.42472">
        <ele>2146</ele>
        <time>2018-10-17T11:26:58Z</time>
      </trkpt>
      <trkpt lat="45.80495" lon="6.42472">
        <ele>2146</ele>
        <time>2018-10-17T11:26:59Z</time>
      </trkpt>
      <trkpt lat="45.80495" lon="6.42472">
        <ele>2146</ele>
        <time>2018-10-17T11:27:00Z</time>
      </trkpt>
      <trkpt lat="45.80495" lon="6.42472">
        <ele>2146</ele>
        <time>2018-10-17T11:27:01Z</time>
      </trkpt>
      <trkpt lat="45.80496" lon="6.42475">
        <ele>2146</ele>
        <time>2018-10-17T11:27:02Z</time>
      </trkpt>
      <trkpt lat="45.80496" lon="6.42475">
        <ele>2146</ele>
        <time>2018-10-17T11:27:03Z</time>
      </trkpt>
      <trkpt lat="45.80496" lon="6.42475">
        <ele>2147</ele>
        <time>2018-10-17T11:27:04Z</time>
      </trkpt>
      <trkpt lat="45.80496" lon="6.42475">
        <ele>2147</ele>
        <time>2018-10-17T11:27:05Z</time>
      </trkpt>
      <trkpt lat="45.80497" lon="6.42476">
        <ele>2147</ele>
        <time>2018-10-17T11:27:06Z</time>
      </trkpt>
      <trkpt lat="45.80497" lon="6.42476">
        <ele>2147</ele>
        <time>2018-10-17T11:27:07Z</time>
      </trkpt>
      <trkpt lat="45.80497" lon="6.42476">
        <ele>2148</ele>
        <time>2018-10-17T11:27:08Z</time>
      </trkpt>
      <trkpt lat="45.80497" lon="6.42476">
        <ele>2148</ele>
        <time>2018-10-17T11:27:09Z</time>
      </trkpt>
      <trkpt lat="45.80497" lon="6.42476">
        <ele>2149</ele>
        <time>2018-10-17T11:27:10Z</time>
      </trkpt>
      <trkpt lat="45.80497" lon="6.42479">
        <ele>2149</ele>
        <time>2018-10-17T11:27:11Z</time>
      </trkpt>
      <trkpt lat="45.80497" lon="6.42479">
        <ele>2149</ele>
        <time>2018-10-17T11:27:12Z</time>
      </trkpt>
      <trkpt lat="45.80497" lon="6.42479">
        <ele>2149</ele>
        <time>2018-10-17T11:27:13Z</time>
      </trkpt>
      <trkpt lat="45.80495" lon="6.4248">
        <ele>2149</ele>
        <time>2018-10-17T11:27:14Z</time>
      </trkpt>
      <trkpt lat="45.80495" lon="6.4248">
        <ele>2149</ele>
        <time>2018-10-17T11:27:15Z</time>
      </trkpt>
      <trkpt lat="45.80495" lon="6.4248">
        <ele>2149</ele>
        <time>2018-10-17T11:27:16Z</time>
      </trkpt>
      <trkpt lat="45.80493" lon="6.4248">
        <ele>2149</ele>
        <time>2018-10-17T11:27:17Z</time>
      </trkpt>
      <trkpt lat="45.80493" lon="6.4248">
        <ele>2149</ele>
        <time>2018-10-17T11:27:18Z</time>
      </trkpt>
      <trkpt lat="45.80493" lon="6.4248">
        <ele>2149</ele>
        <time>2018-10-17T11:27:19Z</time>
      </trkpt>
      <trkpt lat="45.8049" lon="6.4248">
        <ele>2150</ele>
        <time>2018-10-17T11:27:20Z</time>
      </trkpt>
      <trkpt lat="45.8049" lon="6.4248">
        <ele>2150</ele>
        <time>2018-10-17T11:27:21Z</time>
      </trkpt>
      <trkpt lat="45.8049" lon="6.4248">
        <ele>2150</ele>
        <time>2018-10-17T11:27:22Z</time>
      </trkpt>
      <trkpt lat="45.8049" lon="6.4248">
        <ele>2150</ele>
        <time>2018-10-17T11:27:23Z</time>
      </trkpt>
      <trkpt lat="45.8049" lon="6.4248">
        <ele>2150</ele>
        <time>2018-10-17T11:27:24Z</time>
      </trkpt>
      <trkpt lat="45.8049" lon="6.4248">
        <ele>2150</ele>
        <time>2018-10-17T11:27:25Z</time>
      </trkpt>
      <trkpt lat="45.8049" lon="6.4248">
        <ele>2150</ele>
        <time>2018-10-17T11:27:26Z</time>
      </trkpt>
      <trkpt lat="45.8049" lon="6.4248">
        <ele>2150</ele>
        <time>2018-10-17T11:27:27Z</time>
      </trkpt>
      <trkpt lat="45.80488" lon="6.42479">
        <ele>2151</ele>
        <time>2018-10-17T11:27:28Z</time>
      </trkpt>
      <trkpt lat="45.80488" lon="6.42479">
        <ele>2151</ele>
        <time>2018-10-17T11:27:29Z</time>
      </trkpt>
      <trkpt lat="45.80488" lon="6.42479">
        <ele>2151</ele>
        <time>2018-10-17T11:27:30Z</time>
      </trkpt>
      <trkpt lat="45.80486" lon="6.42478">
        <ele>2151</ele>
        <time>2018-10-17T11:27:31Z</time>
      </trkpt>
      <trkpt lat="45.80486" lon="6.42478">
        <ele>2151</ele>
        <time>2018-10-17T11:27:32Z</time>
      </trkpt>
      <trkpt lat="45.80486" lon="6.42478">
        <ele>2151</ele>
        <time>2018-10-17T11:27:33Z</time>
      </trkpt>
      <trkpt lat="45.80485" lon="6.42477">
        <ele>2152</ele>
        <time>2018-10-17T11:27:34Z</time>
      </trkpt>
      <trkpt lat="45.80485" lon="6.42477">
        <ele>2152</ele>
        <time>2018-10-17T11:27:35Z</time>
      </trkpt>
      <trkpt lat="45.80485" lon="6.42477">
        <ele>2152</ele>
        <time>2018-10-17T11:27:36Z</time>
      </trkpt>
      <trkpt lat="45.80485" lon="6.42477">
        <ele>2152</ele>
        <time>2018-10-17T11:27:37Z</time>
      </trkpt>
      <trkpt lat="45.80483" lon="6.42476">
        <ele>2153</ele>
        <time>2018-10-17T11:27:38Z</time>
      </trkpt>
      <trkpt lat="45.80483" lon="6.42476">
        <ele>2153</ele>
        <time>2018-10-17T11:27:39Z</time>
      </trkpt>
      <trkpt lat="45.80483" lon="6.42476">
        <ele>2153</ele>
        <time>2018-10-17T11:27:40Z</time>
      </trkpt>
      <trkpt lat="45.80483" lon="6.42476">
        <ele>2153</ele>
        <time>2018-10-17T11:27:41Z</time>
      </trkpt>
      <trkpt lat="45.80481" lon="6.42476">
        <ele>2153</ele>
        <time>2018-10-17T11:27:42Z</time>
      </trkpt>
      <trkpt lat="45.80481" lon="6.42476">
        <ele>2153</ele>
        <time>2018-10-17T11:27:43Z</time>
      </trkpt>
      <trkpt lat="45.80481" lon="6.42476">
        <ele>2154</ele>
        <time>2018-10-17T11:27:44Z</time>
      </trkpt>
      <trkpt lat="45.80481" lon="6.42476">
        <ele>2154</ele>
        <time>2018-10-17T11:27:45Z</time>
      </trkpt>
      <trkpt lat="45.80481" lon="6.42476">
        <ele>2154</ele>
        <time>2018-10-17T11:27:46Z</time>
      </trkpt>
      <trkpt lat="45.80479" lon="6.42476">
        <ele>2154</ele>
        <time>2018-10-17T11:27:47Z</time>
      </trkpt>
      <trkpt lat="45.80479" lon="6.42476">
        <ele>2154</ele>
        <time>2018-10-17T11:27:48Z</time>
      </trkpt>
      <trkpt lat="45.80479" lon="6.42476">
        <ele>2155</ele>
        <time>2018-10-17T11:27:49Z</time>
      </trkpt>
      <trkpt lat="45.80479" lon="6.42476">
        <ele>2155</ele>
        <time>2018-10-17T11:27:50Z</time>
      </trkpt>
      <trkpt lat="45.80478" lon="6.42479">
        <ele>2155</ele>
        <time>2018-10-17T11:27:51Z</time>
      </trkpt>
      <trkpt lat="45.80478" lon="6.42479">
        <ele>2155</ele>
        <time>2018-10-17T11:27:52Z</time>
      </trkpt>
      <trkpt lat="45.80478" lon="6.42479">
        <ele>2155</ele>
        <time>2018-10-17T11:27:53Z</time>
      </trkpt>
      <trkpt lat="45.80478" lon="6.42479">
        <ele>2155</ele>
        <time>2018-10-17T11:27:54Z</time>
      </trkpt>
      <trkpt lat="45.80477" lon="6.42481">
        <ele>2156</ele>
        <time>2018-10-17T11:27:55Z</time>
      </trkpt>
      <trkpt lat="45.80477" lon="6.42481">
        <ele>2156</ele>
        <time>2018-10-17T11:27:56Z</time>
      </trkpt>
      <trkpt lat="45.80477" lon="6.42481">
        <ele>2156</ele>
        <time>2018-10-17T11:27:57Z</time>
      </trkpt>
      <trkpt lat="45.80477" lon="6.42481">
        <ele>2157</ele>
        <time>2018-10-17T11:27:58Z</time>
      </trkpt>
      <trkpt lat="45.80476" lon="6.42484">
        <ele>2157</ele>
        <time>2018-10-17T11:27:59Z</time>
      </trkpt>
      <trkpt lat="45.80476" lon="6.42484">
        <ele>2157</ele>
        <time>2018-10-17T11:28:00Z</time>
      </trkpt>
      <trkpt lat="45.80476" lon="6.42484">
        <ele>2157</ele>
        <time>2018-10-17T11:28:01Z</time>
      </trkpt>
      <trkpt lat="45.80474" lon="6.42485">
        <ele>2157</ele>
        <time>2018-10-17T11:28:02Z</time>
      </trkpt>
      <trkpt lat="45.80474" lon="6.42485">
        <ele>2157</ele>
        <time>2018-10-17T11:28:03Z</time>
      </trkpt>
      <trkpt lat="45.80474" lon="6.42485">
        <ele>2158</ele>
        <time>2018-10-17T11:28:04Z</time>
      </trkpt>
      <trkpt lat="45.80473" lon="6.42485">
        <ele>2158</ele>
        <time>2018-10-17T11:28:05Z</time>
      </trkpt>
      <trkpt lat="45.80473" lon="6.42485">
        <ele>2158</ele>
        <time>2018-10-17T11:28:06Z</time>
      </trkpt>
      <trkpt lat="45.80473" lon="6.42485">
        <ele>2158</ele>
        <time>2018-10-17T11:28:07Z</time>
      </trkpt>
      <trkpt lat="45.80471" lon="6.42485">
        <ele>2158</ele>
        <time>2018-10-17T11:28:08Z</time>
      </trkpt>
      <trkpt lat="45.80471" lon="6.42485">
        <ele>2159</ele>
        <time>2018-10-17T11:28:09Z</time>
      </trkpt>
      <trkpt lat="45.80471" lon="6.42485">
        <ele>2159</ele>
        <time>2018-10-17T11:28:10Z</time>
      </trkpt>
      <trkpt lat="45.80471" lon="6.42485">
        <ele>2159</ele>
        <time>2018-10-17T11:28:11Z</time>
      </trkpt>
      <trkpt lat="45.80468" lon="6.42484">
        <ele>2160</ele>
        <time>2018-10-17T11:28:12Z</time>
      </trkpt>
      <trkpt lat="45.80468" lon="6.42484">
        <ele>2160</ele>
        <time>2018-10-17T11:28:13Z</time>
      </trkpt>
      <trkpt lat="45.80468" lon="6.42484">
        <ele>2160</ele>
        <time>2018-10-17T11:28:14Z</time>
      </trkpt>
      <trkpt lat="45.80468" lon="6.42484">
        <ele>2162</ele>
        <time>2018-10-17T11:28:15Z</time>
      </trkpt>
      <trkpt lat="45.80466" lon="6.42484">
        <ele>2162</ele>
        <time>2018-10-17T11:28:16Z</time>
      </trkpt>
      <trkpt lat="45.80466" lon="6.42484">
        <ele>2162</ele>
        <time>2018-10-17T11:28:17Z</time>
      </trkpt>
      <trkpt lat="45.80466" lon="6.42484">
        <ele>2162</ele>
        <time>2018-10-17T11:28:18Z</time>
      </trkpt>
      <trkpt lat="45.80466" lon="6.42484">
        <ele>2162</ele>
        <time>2018-10-17T11:28:19Z</time>
      </trkpt>
      <trkpt lat="45.80466" lon="6.42484">
        <ele>2163</ele>
        <time>2018-10-17T11:28:20Z</time>
      </trkpt>
      <trkpt lat="45.80466" lon="6.42484">
        <ele>2163</ele>
        <time>2018-10-17T11:28:21Z</time>
      </trkpt>
      <trkpt lat="45.80466" lon="6.42484">
        <ele>2163</ele>
        <time>2018-10-17T11:28:22Z</time>
      </trkpt>
      <trkpt lat="45.80466" lon="6.42484">
        <ele>2163</ele>
        <time>2018-10-17T11:28:23Z</time>
      </trkpt>
      <trkpt lat="45.80465" lon="6.42484">
        <ele>2163</ele>
        <time>2018-10-17T11:28:24Z</time>
      </trkpt>
      <trkpt lat="45.80465" lon="6.42484">
        <ele>2163</ele>
        <time>2018-10-17T11:28:25Z</time>
      </trkpt>
      <trkpt lat="45.80465" lon="6.42484">
        <ele>2163</ele>
        <time>2018-10-17T11:28:26Z</time>
      </trkpt>
      <trkpt lat="45.80465" lon="6.42484">
        <ele>2163</ele>
        <time>2018-10-17T11:28:27Z</time>
      </trkpt>
      <trkpt lat="45.80465" lon="6.42484">
        <ele>2163</ele>
        <time>2018-10-17T11:28:28Z</time>
      </trkpt>
      <trkpt lat="45.80463" lon="6.42486">
        <ele>2163</ele>
        <time>2018-10-17T11:28:29Z</time>
      </trkpt>
      <trkpt lat="45.80463" lon="6.42486">
        <ele>2163</ele>
        <time>2018-10-17T11:28:30Z</time>
      </trkpt>
      <trkpt lat="45.80463" lon="6.42486">
        <ele>2163</ele>
        <time>2018-10-17T11:28:31Z</time>
      </trkpt>
      <trkpt lat="45.80463" lon="6.42486">
        <ele>2163</ele>
        <time>2018-10-17T11:28:32Z</time>
      </trkpt>
      <trkpt lat="45.80461" lon="6.42487">
        <ele>2164</ele>
        <time>2018-10-17T11:28:33Z</time>
      </trkpt>
      <trkpt lat="45.80461" lon="6.42487">
        <ele>2164</ele>
        <time>2018-10-17T11:28:34Z</time>
      </trkpt>
      <trkpt lat="45.80461" lon="6.42487">
        <ele>2164</ele>
        <time>2018-10-17T11:28:35Z</time>
      </trkpt>
      <trkpt lat="45.80461" lon="6.42487">
        <ele>2165</ele>
        <time>2018-10-17T11:28:36Z</time>
      </trkpt>
      <trkpt lat="45.80459" lon="6.42488">
        <ele>2165</ele>
        <time>2018-10-17T11:28:37Z</time>
      </trkpt>
      <trkpt lat="45.80459" lon="6.42488">
        <ele>2165</ele>
        <time>2018-10-17T11:28:38Z</time>
      </trkpt>
      <trkpt lat="45.80459" lon="6.42488">
        <ele>2166</ele>
        <time>2018-10-17T11:28:39Z</time>
      </trkpt>
      <trkpt lat="45.80459" lon="6.42488">
        <ele>2166</ele>
        <time>2018-10-17T11:28:40Z</time>
      </trkpt>
      <trkpt lat="45.80459" lon="6.42488">
        <ele>2166</ele>
        <time>2018-10-17T11:28:41Z</time>
      </trkpt>
      <trkpt lat="45.80458" lon="6.42489">
        <ele>2166</ele>
        <time>2018-10-17T11:28:42Z</time>
      </trkpt>
      <trkpt lat="45.80458" lon="6.42489">
        <ele>2166</ele>
        <time>2018-10-17T11:28:43Z</time>
      </trkpt>
      <trkpt lat="45.80458" lon="6.42489">
        <ele>2167</ele>
        <time>2018-10-17T11:28:44Z</time>
      </trkpt>
      <trkpt lat="45.80458" lon="6.42489">
        <ele>2167</ele>
        <time>2018-10-17T11:28:45Z</time>
      </trkpt>
      <trkpt lat="45.80456" lon="6.4249">
        <ele>2167</ele>
        <time>2018-10-17T11:28:46Z</time>
      </trkpt>
      <trkpt lat="45.80456" lon="6.4249">
        <ele>2168</ele>
        <time>2018-10-17T11:28:47Z</time>
      </trkpt>
      <trkpt lat="45.80456" lon="6.4249">
        <ele>2168</ele>
        <time>2018-10-17T11:28:48Z</time>
      </trkpt>
      <trkpt lat="45.80454" lon="6.42492">
        <ele>2168</ele>
        <time>2018-10-17T11:28:49Z</time>
      </trkpt>
      <trkpt lat="45.80454" lon="6.42492">
        <ele>2168</ele>
        <time>2018-10-17T11:28:50Z</time>
      </trkpt>
      <trkpt lat="45.80454" lon="6.42492">
        <ele>2168</ele>
        <time>2018-10-17T11:28:51Z</time>
      </trkpt>
      <trkpt lat="45.80452" lon="6.42492">
        <ele>2168</ele>
        <time>2018-10-17T11:28:52Z</time>
      </trkpt>
      <trkpt lat="45.80452" lon="6.42492">
        <ele>2168</ele>
        <time>2018-10-17T11:28:53Z</time>
      </trkpt>
      <trkpt lat="45.80452" lon="6.42492">
        <ele>2169</ele>
        <time>2018-10-17T11:28:54Z</time>
      </trkpt>
      <trkpt lat="45.80452" lon="6.42492">
        <ele>2170</ele>
        <time>2018-10-17T11:28:55Z</time>
      </trkpt>
      <trkpt lat="45.8045" lon="6.42493">
        <ele>2170</ele>
        <time>2018-10-17T11:28:56Z</time>
      </trkpt>
      <trkpt lat="45.8045" lon="6.42493">
        <ele>2170</ele>
        <time>2018-10-17T11:28:57Z</time>
      </trkpt>
      <trkpt lat="45.8045" lon="6.42493">
        <ele>2170</ele>
        <time>2018-10-17T11:28:58Z</time>
      </trkpt>
      <trkpt lat="45.80448" lon="6.42495">
        <ele>2170</ele>
        <time>2018-10-17T11:28:59Z</time>
      </trkpt>
      <trkpt lat="45.80448" lon="6.42495">
        <ele>2170</ele>
        <time>2018-10-17T11:29:00Z</time>
      </trkpt>
      <trkpt lat="45.80448" lon="6.42495">
        <ele>2170</ele>
        <time>2018-10-17T11:29:01Z</time>
      </trkpt>
      <trkpt lat="45.80448" lon="6.42495">
        <ele>2170</ele>
        <time>2018-10-17T11:29:02Z</time>
      </trkpt>
      <trkpt lat="45.80448" lon="6.42495">
        <ele>2170</ele>
        <time>2018-10-17T11:29:03Z</time>
      </trkpt>
      <trkpt lat="45.80448" lon="6.42495">
        <ele>2170</ele>
        <time>2018-10-17T11:29:04Z</time>
      </trkpt>
      <trkpt lat="45.80448" lon="6.42495">
        <ele>2171</ele>
        <time>2018-10-17T11:29:05Z</time>
      </trkpt>
      <trkpt lat="45.80448" lon="6.42495">
        <ele>2171</ele>
        <time>2018-10-17T11:29:06Z</time>
      </trkpt>
      <trkpt lat="45.80448" lon="6.42495">
        <ele>2171</ele>
        <time>2018-10-17T11:29:07Z</time>
      </trkpt>
      <trkpt lat="45.80448" lon="6.42495">
        <ele>2171</ele>
        <time>2018-10-17T11:29:08Z</time>
      </trkpt>
      <trkpt lat="45.80448" lon="6.42495">
        <ele>2171</ele>
        <time>2018-10-17T11:29:09Z</time>
      </trkpt>
      <trkpt lat="45.80448" lon="6.42495">
        <ele>2171</ele>
        <time>2018-10-17T11:29:10Z</time>
      </trkpt>
      <trkpt lat="45.80448" lon="6.42495">
        <ele>2171</ele>
        <time>2018-10-17T11:29:11Z</time>
      </trkpt>
      <trkpt lat="45.80448" lon="6.42495">
        <ele>2171</ele>
        <time>2018-10-17T11:29:12Z</time>
      </trkpt>
      <trkpt lat="45.80448" lon="6.42495">
        <ele>2171</ele>
        <time>2018-10-17T11:29:13Z</time>
      </trkpt>
      <trkpt lat="45.80448" lon="6.42495">
        <ele>2171</ele>
        <time>2018-10-17T11:29:14Z</time>
      </trkpt>
      <trkpt lat="45.80448" lon="6.42495">
        <ele>2171</ele>
        <time>2018-10-17T11:29:15Z</time>
      </trkpt>
      <trkpt lat="45.80448" lon="6.42495">
        <ele>2171</ele>
        <time>2018-10-17T11:29:16Z</time>
      </trkpt>
      <trkpt lat="45.80446" lon="6.42494">
        <ele>2171</ele>
        <time>2018-10-17T11:29:17Z</time>
      </trkpt>
      <trkpt lat="45.80446" lon="6.42494">
        <ele>2172</ele>
        <time>2018-10-17T11:29:18Z</time>
      </trkpt>
      <trkpt lat="45.80446" lon="6.42494">
        <ele>2172</ele>
        <time>2018-10-17T11:29:19Z</time>
      </trkpt>
      <trkpt lat="45.80446" lon="6.42494">
        <ele>2172</ele>
        <time>2018-10-17T11:29:20Z</time>
      </trkpt>
      <trkpt lat="45.80446" lon="6.42494">
        <ele>2172</ele>
        <time>2018-10-17T11:29:21Z</time>
      </trkpt>
      <trkpt lat="45.80446" lon="6.42494">
        <ele>2172</ele>
        <time>2018-10-17T11:29:22Z</time>
      </trkpt>
      <trkpt lat="45.80444" lon="6.42495">
        <ele>2172</ele>
        <time>2018-10-17T11:29:23Z</time>
      </trkpt>
      <trkpt lat="45.80444" lon="6.42495">
        <ele>2173</ele>
        <time>2018-10-17T11:29:24Z</time>
      </trkpt>
      <trkpt lat="45.80444" lon="6.42495">
        <ele>2173</ele>
        <time>2018-10-17T11:29:25Z</time>
      </trkpt>
      <trkpt lat="45.80444" lon="6.42495">
        <ele>2173</ele>
        <time>2018-10-17T11:29:26Z</time>
      </trkpt>
      <trkpt lat="45.80442" lon="6.42493">
        <ele>2173</ele>
        <time>2018-10-17T11:29:27Z</time>
      </trkpt>
      <trkpt lat="45.80442" lon="6.42493">
        <ele>2173</ele>
        <time>2018-10-17T11:29:28Z</time>
      </trkpt>
      <trkpt lat="45.80442" lon="6.42493">
        <ele>2173</ele>
        <time>2018-10-17T11:29:29Z</time>
      </trkpt>
      <trkpt lat="45.80441" lon="6.42491">
        <ele>2173</ele>
        <time>2018-10-17T11:29:30Z</time>
      </trkpt>
      <trkpt lat="45.80441" lon="6.42491">
        <ele>2174</ele>
        <time>2018-10-17T11:29:31Z</time>
      </trkpt>
      <trkpt lat="45.80441" lon="6.42491">
        <ele>2174</ele>
        <time>2018-10-17T11:29:32Z</time>
      </trkpt>
      <trkpt lat="45.80441" lon="6.42491">
        <ele>2174</ele>
        <time>2018-10-17T11:29:33Z</time>
      </trkpt>
      <trkpt lat="45.80441" lon="6.42491">
        <ele>2174</ele>
        <time>2018-10-17T11:29:34Z</time>
      </trkpt>
      <trkpt lat="45.80439" lon="6.42491">
        <ele>2174</ele>
        <time>2018-10-17T11:29:35Z</time>
      </trkpt>
      <trkpt lat="45.80439" lon="6.42491">
        <ele>2174</ele>
        <time>2018-10-17T11:29:36Z</time>
      </trkpt>
      <trkpt lat="45.80439" lon="6.42491">
        <ele>2174</ele>
        <time>2018-10-17T11:29:37Z</time>
      </trkpt>
      <trkpt lat="45.80437" lon="6.42493">
        <ele>2174</ele>
        <time>2018-10-17T11:29:38Z</time>
      </trkpt>
      <trkpt lat="45.80437" lon="6.42493">
        <ele>2174</ele>
        <time>2018-10-17T11:29:39Z</time>
      </trkpt>
      <trkpt lat="45.80437" lon="6.42493">
        <ele>2175</ele>
        <time>2018-10-17T11:29:40Z</time>
      </trkpt>
      <trkpt lat="45.80436" lon="6.42494">
        <ele>2175</ele>
        <time>2018-10-17T11:29:41Z</time>
      </trkpt>
      <trkpt lat="45.80436" lon="6.42494">
        <ele>2175</ele>
        <time>2018-10-17T11:29:42Z</time>
      </trkpt>
      <trkpt lat="45.80436" lon="6.42494">
        <ele>2175</ele>
        <time>2018-10-17T11:29:43Z</time>
      </trkpt>
      <trkpt lat="45.80436" lon="6.42494">
        <ele>2175</ele>
        <time>2018-10-17T11:29:44Z</time>
      </trkpt>
      <trkpt lat="45.80436" lon="6.42494">
        <ele>2175</ele>
        <time>2018-10-17T11:29:45Z</time>
      </trkpt>
      <trkpt lat="45.80436" lon="6.42494">
        <ele>2175</ele>
        <time>2018-10-17T11:29:46Z</time>
      </trkpt>
      <trkpt lat="45.80434" lon="6.42495">
        <ele>2175</ele>
        <time>2018-10-17T11:29:47Z</time>
      </trkpt>
      <trkpt lat="45.80434" lon="6.42495">
        <ele>2175</ele>
        <time>2018-10-17T11:29:48Z</time>
      </trkpt>
      <trkpt lat="45.80434" lon="6.42495">
        <ele>2176</ele>
        <time>2018-10-17T11:29:49Z</time>
      </trkpt>
      <trkpt lat="45.80434" lon="6.42495">
        <ele>2176</ele>
        <time>2018-10-17T11:29:50Z</time>
      </trkpt>
      <trkpt lat="45.80432" lon="6.42496">
        <ele>2176</ele>
        <time>2018-10-17T11:29:51Z</time>
      </trkpt>
      <trkpt lat="45.80432" lon="6.42496">
        <ele>2176</ele>
        <time>2018-10-17T11:29:52Z</time>
      </trkpt>
      <trkpt lat="45.80432" lon="6.42496">
        <ele>2176</ele>
        <time>2018-10-17T11:29:53Z</time>
      </trkpt>
      <trkpt lat="45.8043" lon="6.42496">
        <ele>2177</ele>
        <time>2018-10-17T11:29:54Z</time>
      </trkpt>
      <trkpt lat="45.8043" lon="6.42496">
        <ele>2178</ele>
        <time>2018-10-17T11:29:55Z</time>
      </trkpt>
      <trkpt lat="45.8043" lon="6.42496">
        <ele>2178</ele>
        <time>2018-10-17T11:29:56Z</time>
      </trkpt>
      <trkpt lat="45.80428" lon="6.42496">
        <ele>2178</ele>
        <time>2018-10-17T11:29:57Z</time>
      </trkpt>
      <trkpt lat="45.80428" lon="6.42496">
        <ele>2178</ele>
        <time>2018-10-17T11:29:58Z</time>
      </trkpt>
      <trkpt lat="45.80428" lon="6.42496">
        <ele>2178</ele>
        <time>2018-10-17T11:29:59Z</time>
      </trkpt>
      <trkpt lat="45.80428" lon="6.42496">
        <ele>2178</ele>
        <time>2018-10-17T11:30:00Z</time>
      </trkpt>
      <trkpt lat="45.80428" lon="6.42496">
        <ele>2178</ele>
        <time>2018-10-17T11:30:01Z</time>
      </trkpt>
      <trkpt lat="45.80428" lon="6.42496">
        <ele>2178</ele>
        <time>2018-10-17T11:30:02Z</time>
      </trkpt>
      <trkpt lat="45.80428" lon="6.42496">
        <ele>2178</ele>
        <time>2018-10-17T11:30:03Z</time>
      </trkpt>
      <trkpt lat="45.80428" lon="6.42496">
        <ele>2178</ele>
        <time>2018-10-17T11:30:04Z</time>
      </trkpt>
      <trkpt lat="45.80426" lon="6.42497">
        <ele>2178</ele>
        <time>2018-10-17T11:30:05Z</time>
      </trkpt>
      <trkpt lat="45.80426" lon="6.42497">
        <ele>2178</ele>
        <time>2018-10-17T11:30:06Z</time>
      </trkpt>
      <trkpt lat="45.80426" lon="6.42497">
        <ele>2178</ele>
        <time>2018-10-17T11:30:07Z</time>
      </trkpt>
      <trkpt lat="45.80424" lon="6.42496">
        <ele>2178</ele>
        <time>2018-10-17T11:30:08Z</time>
      </trkpt>
      <trkpt lat="45.80424" lon="6.42496">
        <ele>2178</ele>
        <time>2018-10-17T11:30:09Z</time>
      </trkpt>
      <trkpt lat="45.80424" lon="6.42496">
        <ele>2178</ele>
        <time>2018-10-17T11:30:10Z</time>
      </trkpt>
      <trkpt lat="45.80424" lon="6.42496">
        <ele>2179</ele>
        <time>2018-10-17T11:30:11Z</time>
      </trkpt>
      <trkpt lat="45.80424" lon="6.42496">
        <ele>2179</ele>
        <time>2018-10-17T11:30:12Z</time>
      </trkpt>
      <trkpt lat="45.80424" lon="6.42496">
        <ele>2179</ele>
        <time>2018-10-17T11:30:13Z</time>
      </trkpt>
      <trkpt lat="45.80422" lon="6.42498">
        <ele>2179</ele>
        <time>2018-10-17T11:30:14Z</time>
      </trkpt>
      <trkpt lat="45.80422" lon="6.42498">
        <ele>2179</ele>
        <time>2018-10-17T11:30:15Z</time>
      </trkpt>
      <trkpt lat="45.80422" lon="6.42498">
        <ele>2179</ele>
        <time>2018-10-17T11:30:16Z</time>
      </trkpt>
      <trkpt lat="45.8042" lon="6.42498">
        <ele>2180</ele>
        <time>2018-10-17T11:30:17Z</time>
      </trkpt>
      <trkpt lat="45.8042" lon="6.42498">
        <ele>2181</ele>
        <time>2018-10-17T11:30:18Z</time>
      </trkpt>
      <trkpt lat="45.8042" lon="6.42498">
        <ele>2181</ele>
        <time>2018-10-17T11:30:19Z</time>
      </trkpt>
      <trkpt lat="45.80418" lon="6.42497">
        <ele>2181</ele>
        <time>2018-10-17T11:30:20Z</time>
      </trkpt>
      <trkpt lat="45.80418" lon="6.42497">
        <ele>2182</ele>
        <time>2018-10-17T11:30:21Z</time>
      </trkpt>
      <trkpt lat="45.80418" lon="6.42497">
        <ele>2182</ele>
        <time>2018-10-17T11:30:22Z</time>
      </trkpt>
      <trkpt lat="45.80416" lon="6.42498">
        <ele>2182</ele>
        <time>2018-10-17T11:30:23Z</time>
      </trkpt>
      <trkpt lat="45.80416" lon="6.42498">
        <ele>2182</ele>
        <time>2018-10-17T11:30:24Z</time>
      </trkpt>
      <trkpt lat="45.80416" lon="6.42498">
        <ele>2182</ele>
        <time>2018-10-17T11:30:25Z</time>
      </trkpt>
      <trkpt lat="45.80416" lon="6.42498">
        <ele>2182</ele>
        <time>2018-10-17T11:30:26Z</time>
      </trkpt>
      <trkpt lat="45.80416" lon="6.42498">
        <ele>2182</ele>
        <time>2018-10-17T11:30:27Z</time>
      </trkpt>
      <trkpt lat="45.80416" lon="6.42498">
        <ele>2182</ele>
        <time>2018-10-17T11:30:28Z</time>
      </trkpt>
      <trkpt lat="45.80414" lon="6.42498">
        <ele>2182</ele>
        <time>2018-10-17T11:30:29Z</time>
      </trkpt>
      <trkpt lat="45.80414" lon="6.42498">
        <ele>2182</ele>
        <time>2018-10-17T11:30:30Z</time>
      </trkpt>
      <trkpt lat="45.80414" lon="6.42498">
        <ele>2182</ele>
        <time>2018-10-17T11:30:31Z</time>
      </trkpt>
      <trkpt lat="45.80414" lon="6.42498">
        <ele>2182</ele>
        <time>2018-10-17T11:30:32Z</time>
      </trkpt>
      <trkpt lat="45.80412" lon="6.425">
        <ele>2182</ele>
        <time>2018-10-17T11:30:33Z</time>
      </trkpt>
      <trkpt lat="45.80412" lon="6.425">
        <ele>2183</ele>
        <time>2018-10-17T11:30:34Z</time>
      </trkpt>
      <trkpt lat="45.80412" lon="6.425">
        <ele>2183</ele>
        <time>2018-10-17T11:30:35Z</time>
      </trkpt>
      <trkpt lat="45.8041" lon="6.42499">
        <ele>2183</ele>
        <time>2018-10-17T11:30:36Z</time>
      </trkpt>
      <trkpt lat="45.8041" lon="6.42499">
        <ele>2183</ele>
        <time>2018-10-17T11:30:37Z</time>
      </trkpt>
      <trkpt lat="45.8041" lon="6.42499">
        <ele>2183</ele>
        <time>2018-10-17T11:30:38Z</time>
      </trkpt>
      <trkpt lat="45.8041" lon="6.42499">
        <ele>2184</ele>
        <time>2018-10-17T11:30:39Z</time>
      </trkpt>
      <trkpt lat="45.8041" lon="6.42499">
        <ele>2184</ele>
        <time>2018-10-17T11:30:40Z</time>
      </trkpt>
      <trkpt lat="45.80408" lon="6.425">
        <ele>2184</ele>
        <time>2018-10-17T11:30:41Z</time>
      </trkpt>
      <trkpt lat="45.80408" lon="6.425">
        <ele>2184</ele>
        <time>2018-10-17T11:30:42Z</time>
      </trkpt>
      <trkpt lat="45.80408" lon="6.425">
        <ele>2184</ele>
        <time>2018-10-17T11:30:43Z</time>
      </trkpt>
      <trkpt lat="45.80408" lon="6.425">
        <ele>2184</ele>
        <time>2018-10-17T11:30:44Z</time>
      </trkpt>
      <trkpt lat="45.80408" lon="6.425">
        <ele>2184</ele>
        <time>2018-10-17T11:30:45Z</time>
      </trkpt>
      <trkpt lat="45.80408" lon="6.425">
        <ele>2184</ele>
        <time>2018-10-17T11:30:46Z</time>
      </trkpt>
      <trkpt lat="45.80407" lon="6.42502">
        <ele>2185</ele>
        <time>2018-10-17T11:30:47Z</time>
      </trkpt>
      <trkpt lat="45.80407" lon="6.42502">
        <ele>2185</ele>
        <time>2018-10-17T11:30:48Z</time>
      </trkpt>
      <trkpt lat="45.80407" lon="6.42502">
        <ele>2186</ele>
        <time>2018-10-17T11:30:49Z</time>
      </trkpt>
      <trkpt lat="45.80407" lon="6.42502">
        <ele>2186</ele>
        <time>2018-10-17T11:30:50Z</time>
      </trkpt>
      <trkpt lat="45.80407" lon="6.42502">
        <ele>2186</ele>
        <time>2018-10-17T11:30:51Z</time>
      </trkpt>
      <trkpt lat="45.80407" lon="6.42502">
        <ele>2186</ele>
        <time>2018-10-17T11:30:52Z</time>
      </trkpt>
      <trkpt lat="45.80407" lon="6.42502">
        <ele>2187</ele>
        <time>2018-10-17T11:30:53Z</time>
      </trkpt>
      <trkpt lat="45.80407" lon="6.42502">
        <ele>2187</ele>
        <time>2018-10-17T11:30:54Z</time>
      </trkpt>
      <trkpt lat="45.80405" lon="6.42501">
        <ele>2187</ele>
        <time>2018-10-17T11:30:55Z</time>
      </trkpt>
      <trkpt lat="45.80405" lon="6.42501">
        <ele>2187</ele>
        <time>2018-10-17T11:30:56Z</time>
      </trkpt>
      <trkpt lat="45.80405" lon="6.42501">
        <ele>2187</ele>
        <time>2018-10-17T11:30:57Z</time>
      </trkpt>
      <trkpt lat="45.80405" lon="6.42501">
        <ele>2187</ele>
        <time>2018-10-17T11:30:58Z</time>
      </trkpt>
      <trkpt lat="45.80405" lon="6.42501">
        <ele>2187</ele>
        <time>2018-10-17T11:30:59Z</time>
      </trkpt>
      <trkpt lat="45.80405" lon="6.42501">
        <ele>2187</ele>
        <time>2018-10-17T11:31:00Z</time>
      </trkpt>
      <trkpt lat="45.80405" lon="6.42501">
        <ele>2187</ele>
        <time>2018-10-17T11:31:01Z</time>
      </trkpt>
      <trkpt lat="45.80403" lon="6.42501">
        <ele>2187</ele>
        <time>2018-10-17T11:31:02Z</time>
      </trkpt>
      <trkpt lat="45.80403" lon="6.42501">
        <ele>2188</ele>
        <time>2018-10-17T11:31:03Z</time>
      </trkpt>
      <trkpt lat="45.80403" lon="6.42501">
        <ele>2188</ele>
        <time>2018-10-17T11:31:04Z</time>
      </trkpt>
      <trkpt lat="45.80403" lon="6.42501">
        <ele>2188</ele>
        <time>2018-10-17T11:31:05Z</time>
      </trkpt>
      <trkpt lat="45.80403" lon="6.42501">
        <ele>2188</ele>
        <time>2018-10-17T11:31:06Z</time>
      </trkpt>
      <trkpt lat="45.80403" lon="6.42501">
        <ele>2188</ele>
        <time>2018-10-17T11:31:07Z</time>
      </trkpt>
      <trkpt lat="45.80403" lon="6.42501">
        <ele>2188</ele>
        <time>2018-10-17T11:31:08Z</time>
      </trkpt>
      <trkpt lat="45.80403" lon="6.42501">
        <ele>2188</ele>
        <time>2018-10-17T11:31:09Z</time>
      </trkpt>
      <trkpt lat="45.80403" lon="6.42501">
        <ele>2188</ele>
        <time>2018-10-17T11:31:10Z</time>
      </trkpt>
      <trkpt lat="45.80403" lon="6.42501">
        <ele>2189</ele>
        <time>2018-10-17T11:31:11Z</time>
      </trkpt>
      <trkpt lat="45.80403" lon="6.42501">
        <ele>2189</ele>
        <time>2018-10-17T11:31:12Z</time>
      </trkpt>
      <trkpt lat="45.80401" lon="6.42502">
        <ele>2189</ele>
        <time>2018-10-17T11:31:13Z</time>
      </trkpt>
      <trkpt lat="45.80401" lon="6.42502">
        <ele>2189</ele>
        <time>2018-10-17T11:31:14Z</time>
      </trkpt>
      <trkpt lat="45.80401" lon="6.42502">
        <ele>2190</ele>
        <time>2018-10-17T11:31:15Z</time>
      </trkpt>
      <trkpt lat="45.80401" lon="6.42502">
        <ele>2190</ele>
        <time>2018-10-17T11:31:16Z</time>
      </trkpt>
      <trkpt lat="45.80398" lon="6.425">
        <ele>2190</ele>
        <time>2018-10-17T11:31:17Z</time>
      </trkpt>
      <trkpt lat="45.80398" lon="6.425">
        <ele>2190</ele>
        <time>2018-10-17T11:31:18Z</time>
      </trkpt>
      <trkpt lat="45.80398" lon="6.425">
        <ele>2191</ele>
        <time>2018-10-17T11:31:19Z</time>
      </trkpt>
      <trkpt lat="45.80398" lon="6.425">
        <ele>2191</ele>
        <time>2018-10-17T11:31:20Z</time>
      </trkpt>
      <trkpt lat="45.80397" lon="6.42499">
        <ele>2191</ele>
        <time>2018-10-17T11:31:21Z</time>
      </trkpt>
      <trkpt lat="45.80397" lon="6.42499">
        <ele>2192</ele>
        <time>2018-10-17T11:31:22Z</time>
      </trkpt>
      <trkpt lat="45.80397" lon="6.42499">
        <ele>2192</ele>
        <time>2018-10-17T11:31:23Z</time>
      </trkpt>
      <trkpt lat="45.80397" lon="6.42499">
        <ele>2192</ele>
        <time>2018-10-17T11:31:24Z</time>
      </trkpt>
      <trkpt lat="45.80395" lon="6.42497">
        <ele>2192</ele>
        <time>2018-10-17T11:31:25Z</time>
      </trkpt>
      <trkpt lat="45.80395" lon="6.42497">
        <ele>2192</ele>
        <time>2018-10-17T11:31:26Z</time>
      </trkpt>
      <trkpt lat="45.80395" lon="6.42497">
        <ele>2192</ele>
        <time>2018-10-17T11:31:27Z</time>
      </trkpt>
      <trkpt lat="45.80393" lon="6.42496">
        <ele>2192</ele>
        <time>2018-10-17T11:31:28Z</time>
      </trkpt>
      <trkpt lat="45.80393" lon="6.42496">
        <ele>2192</ele>
        <time>2018-10-17T11:31:29Z</time>
      </trkpt>
      <trkpt lat="45.80393" lon="6.42496">
        <ele>2192</ele>
        <time>2018-10-17T11:31:30Z</time>
      </trkpt>
      <trkpt lat="45.80391" lon="6.42495">
        <ele>2192</ele>
        <time>2018-10-17T11:31:31Z</time>
      </trkpt>
      <trkpt lat="45.80391" lon="6.42495">
        <ele>2192</ele>
        <time>2018-10-17T11:31:32Z</time>
      </trkpt>
      <trkpt lat="45.80391" lon="6.42495">
        <ele>2192</ele>
        <time>2018-10-17T11:31:33Z</time>
      </trkpt>
      <trkpt lat="45.80389" lon="6.42494">
        <ele>2192</ele>
        <time>2018-10-17T11:31:34Z</time>
      </trkpt>
      <trkpt lat="45.80389" lon="6.42494">
        <ele>2192</ele>
        <time>2018-10-17T11:31:35Z</time>
      </trkpt>
      <trkpt lat="45.80389" lon="6.42494">
        <ele>2192</ele>
        <time>2018-10-17T11:31:36Z</time>
      </trkpt>
      <trkpt lat="45.80388" lon="6.42492">
        <ele>2193</ele>
        <time>2018-10-17T11:31:37Z</time>
      </trkpt>
      <trkpt lat="45.80388" lon="6.42492">
        <ele>2193</ele>
        <time>2018-10-17T11:31:38Z</time>
      </trkpt>
      <trkpt lat="45.80388" lon="6.42492">
        <ele>2193</ele>
        <time>2018-10-17T11:31:39Z</time>
      </trkpt>
      <trkpt lat="45.80386" lon="6.42491">
        <ele>2193</ele>
        <time>2018-10-17T11:31:40Z</time>
      </trkpt>
      <trkpt lat="45.80386" lon="6.42491">
        <ele>2193</ele>
        <time>2018-10-17T11:31:41Z</time>
      </trkpt>
      <trkpt lat="45.80386" lon="6.42491">
        <ele>2193</ele>
        <time>2018-10-17T11:31:42Z</time>
      </trkpt>
      <trkpt lat="45.80386" lon="6.42491">
        <ele>2193</ele>
        <time>2018-10-17T11:31:43Z</time>
      </trkpt>
      <trkpt lat="45.80384" lon="6.42491">
        <ele>2194</ele>
        <time>2018-10-17T11:31:44Z</time>
      </trkpt>
      <trkpt lat="45.80384" lon="6.42491">
        <ele>2194</ele>
        <time>2018-10-17T11:31:45Z</time>
      </trkpt>
      <trkpt lat="45.80384" lon="6.42491">
        <ele>2194</ele>
        <time>2018-10-17T11:31:46Z</time>
      </trkpt>
      <trkpt lat="45.80382" lon="6.42491">
        <ele>2194</ele>
        <time>2018-10-17T11:31:47Z</time>
      </trkpt>
      <trkpt lat="45.80382" lon="6.42491">
        <ele>2194</ele>
        <time>2018-10-17T11:31:48Z</time>
      </trkpt>
      <trkpt lat="45.80382" lon="6.42491">
        <ele>2195</ele>
        <time>2018-10-17T11:31:49Z</time>
      </trkpt>
      <trkpt lat="45.80382" lon="6.42491">
        <ele>2195</ele>
        <time>2018-10-17T11:31:50Z</time>
      </trkpt>
      <trkpt lat="45.8038" lon="6.42492">
        <ele>2195</ele>
        <time>2018-10-17T11:31:51Z</time>
      </trkpt>
      <trkpt lat="45.8038" lon="6.42492">
        <ele>2195</ele>
        <time>2018-10-17T11:31:52Z</time>
      </trkpt>
      <trkpt lat="45.8038" lon="6.42492">
        <ele>2195</ele>
        <time>2018-10-17T11:31:53Z</time>
      </trkpt>
      <trkpt lat="45.8038" lon="6.42492">
        <ele>2195</ele>
        <time>2018-10-17T11:31:54Z</time>
      </trkpt>
      <trkpt lat="45.80377" lon="6.42491">
        <ele>2195</ele>
        <time>2018-10-17T11:31:55Z</time>
      </trkpt>
      <trkpt lat="45.80377" lon="6.42491">
        <ele>2195</ele>
        <time>2018-10-17T11:31:56Z</time>
      </trkpt>
      <trkpt lat="45.80377" lon="6.42491">
        <ele>2196</ele>
        <time>2018-10-17T11:31:57Z</time>
      </trkpt>
      <trkpt lat="45.80375" lon="6.42492">
        <ele>2196</ele>
        <time>2018-10-17T11:31:58Z</time>
      </trkpt>
      <trkpt lat="45.80375" lon="6.42492">
        <ele>2196</ele>
        <time>2018-10-17T11:31:59Z</time>
      </trkpt>
      <trkpt lat="45.80375" lon="6.42492">
        <ele>2196</ele>
        <time>2018-10-17T11:32:00Z</time>
      </trkpt>
      <trkpt lat="45.80375" lon="6.42492">
        <ele>2196</ele>
        <time>2018-10-17T11:32:01Z</time>
      </trkpt>
      <trkpt lat="45.80374" lon="6.42493">
        <ele>2196</ele>
        <time>2018-10-17T11:32:02Z</time>
      </trkpt>
      <trkpt lat="45.80374" lon="6.42493">
        <ele>2197</ele>
        <time>2018-10-17T11:32:03Z</time>
      </trkpt>
      <trkpt lat="45.80374" lon="6.42493">
        <ele>2197</ele>
        <time>2018-10-17T11:32:04Z</time>
      </trkpt>
      <trkpt lat="45.80374" lon="6.42493">
        <ele>2197</ele>
        <time>2018-10-17T11:32:05Z</time>
      </trkpt>
      <trkpt lat="45.80372" lon="6.42494">
        <ele>2197</ele>
        <time>2018-10-17T11:32:06Z</time>
      </trkpt>
      <trkpt lat="45.80372" lon="6.42494">
        <ele>2198</ele>
        <time>2018-10-17T11:32:07Z</time>
      </trkpt>
      <trkpt lat="45.80372" lon="6.42494">
        <ele>2198</ele>
        <time>2018-10-17T11:32:08Z</time>
      </trkpt>
      <trkpt lat="45.80372" lon="6.42494">
        <ele>2198</ele>
        <time>2018-10-17T11:32:09Z</time>
      </trkpt>
      <trkpt lat="45.80369" lon="6.42493">
        <ele>2199</ele>
        <time>2018-10-17T11:32:10Z</time>
      </trkpt>
      <trkpt lat="45.80369" lon="6.42493">
        <ele>2199</ele>
        <time>2018-10-17T11:32:11Z</time>
      </trkpt>
      <trkpt lat="45.80369" lon="6.42493">
        <ele>2199</ele>
        <time>2018-10-17T11:32:12Z</time>
      </trkpt>
      <trkpt lat="45.80369" lon="6.42493">
        <ele>2199</ele>
        <time>2018-10-17T11:32:13Z</time>
      </trkpt>
      <trkpt lat="45.80367" lon="6.42493">
        <ele>2200</ele>
        <time>2018-10-17T11:32:14Z</time>
      </trkpt>
      <trkpt lat="45.80367" lon="6.42493">
        <ele>2200</ele>
        <time>2018-10-17T11:32:15Z</time>
      </trkpt>
      <trkpt lat="45.80367" lon="6.42493">
        <ele>2200</ele>
        <time>2018-10-17T11:32:16Z</time>
      </trkpt>
      <trkpt lat="45.80365" lon="6.42492">
        <ele>2200</ele>
        <time>2018-10-17T11:32:17Z</time>
      </trkpt>
      <trkpt lat="45.80365" lon="6.42492">
        <ele>2200</ele>
        <time>2018-10-17T11:32:18Z</time>
      </trkpt>
      <trkpt lat="45.80365" lon="6.42492">
        <ele>2200</ele>
        <time>2018-10-17T11:32:19Z</time>
      </trkpt>
      <trkpt lat="45.80365" lon="6.42492">
        <ele>2200</ele>
        <time>2018-10-17T11:32:20Z</time>
      </trkpt>
      <trkpt lat="45.80363" lon="6.42491">
        <ele>2200</ele>
        <time>2018-10-17T11:32:21Z</time>
      </trkpt>
      <trkpt lat="45.80363" lon="6.42491">
        <ele>2201</ele>
        <time>2018-10-17T11:32:22Z</time>
      </trkpt>
      <trkpt lat="45.80363" lon="6.42491">
        <ele>2202</ele>
        <time>2018-10-17T11:32:23Z</time>
      </trkpt>
      <trkpt lat="45.80363" lon="6.42491">
        <ele>2202</ele>
        <time>2018-10-17T11:32:24Z</time>
      </trkpt>
      <trkpt lat="45.80361" lon="6.42491">
        <ele>2202</ele>
        <time>2018-10-17T11:32:25Z</time>
      </trkpt>
      <trkpt lat="45.80361" lon="6.42491">
        <ele>2202</ele>
        <time>2018-10-17T11:32:26Z</time>
      </trkpt>
      <trkpt lat="45.80361" lon="6.42491">
        <ele>2202</ele>
        <time>2018-10-17T11:32:27Z</time>
      </trkpt>
      <trkpt lat="45.8036" lon="6.42489">
        <ele>2202</ele>
        <time>2018-10-17T11:32:28Z</time>
      </trkpt>
      <trkpt lat="45.8036" lon="6.42489">
        <ele>2203</ele>
        <time>2018-10-17T11:32:29Z</time>
      </trkpt>
      <trkpt lat="45.8036" lon="6.42489">
        <ele>2203</ele>
        <time>2018-10-17T11:32:30Z</time>
      </trkpt>
      <trkpt lat="45.8036" lon="6.42489">
        <ele>2203</ele>
        <time>2018-10-17T11:32:31Z</time>
      </trkpt>
      <trkpt lat="45.80358" lon="6.42486">
        <ele>2203</ele>
        <time>2018-10-17T11:32:32Z</time>
      </trkpt>
      <trkpt lat="45.80358" lon="6.42486">
        <ele>2203</ele>
        <time>2018-10-17T11:32:33Z</time>
      </trkpt>
      <trkpt lat="45.80358" lon="6.42486">
        <ele>2203</ele>
        <time>2018-10-17T11:32:34Z</time>
      </trkpt>
      <trkpt lat="45.80358" lon="6.42486">
        <ele>2203</ele>
        <time>2018-10-17T11:32:35Z</time>
      </trkpt>
      <trkpt lat="45.80358" lon="6.42486">
        <ele>2203</ele>
        <time>2018-10-17T11:32:36Z</time>
      </trkpt>
      <trkpt lat="45.80358" lon="6.42486">
        <ele>2203</ele>
        <time>2018-10-17T11:32:37Z</time>
      </trkpt>
      <trkpt lat="45.80358" lon="6.42486">
        <ele>2204</ele>
        <time>2018-10-17T11:32:38Z</time>
      </trkpt>
      <trkpt lat="45.80358" lon="6.42486">
        <ele>2204</ele>
        <time>2018-10-17T11:32:39Z</time>
      </trkpt>
      <trkpt lat="45.80358" lon="6.42486">
        <ele>2204</ele>
        <time>2018-10-17T11:32:40Z</time>
      </trkpt>
      <trkpt lat="45.80356" lon="6.42485">
        <ele>2205</ele>
        <time>2018-10-17T11:32:41Z</time>
      </trkpt>
      <trkpt lat="45.80356" lon="6.42485">
        <ele>2205</ele>
        <time>2018-10-17T11:32:42Z</time>
      </trkpt>
      <trkpt lat="45.80356" lon="6.42485">
        <ele>2205</ele>
        <time>2018-10-17T11:32:43Z</time>
      </trkpt>
      <trkpt lat="45.80356" lon="6.42485">
        <ele>2204</ele>
        <time>2018-10-17T11:32:44Z</time>
      </trkpt>
      <trkpt lat="45.80355" lon="6.42483">
        <ele>2204</ele>
        <time>2018-10-17T11:32:45Z</time>
      </trkpt>
      <trkpt lat="45.80355" lon="6.42483">
        <ele>2205</ele>
        <time>2018-10-17T11:32:46Z</time>
      </trkpt>
      <trkpt lat="45.80355" lon="6.42483">
        <ele>2205</ele>
        <time>2018-10-17T11:32:47Z</time>
      </trkpt>
      <trkpt lat="45.80355" lon="6.42483">
        <ele>2205</ele>
        <time>2018-10-17T11:32:48Z</time>
      </trkpt>
      <trkpt lat="45.80353" lon="6.4248">
        <ele>2205</ele>
        <time>2018-10-17T11:32:49Z</time>
      </trkpt>
      <trkpt lat="45.80353" lon="6.4248">
        <ele>2205</ele>
        <time>2018-10-17T11:32:50Z</time>
      </trkpt>
      <trkpt lat="45.80353" lon="6.4248">
        <ele>2205</ele>
        <time>2018-10-17T11:32:51Z</time>
      </trkpt>
      <trkpt lat="45.80351" lon="6.42478">
        <ele>2206</ele>
        <time>2018-10-17T11:32:52Z</time>
      </trkpt>
      <trkpt lat="45.80351" lon="6.42478">
        <ele>2206</ele>
        <time>2018-10-17T11:32:53Z</time>
      </trkpt>
      <trkpt lat="45.80351" lon="6.42478">
        <ele>2206</ele>
        <time>2018-10-17T11:32:54Z</time>
      </trkpt>
      <trkpt lat="45.80351" lon="6.42478">
        <ele>2206</ele>
        <time>2018-10-17T11:32:55Z</time>
      </trkpt>
      <trkpt lat="45.80351" lon="6.42478">
        <ele>2206</ele>
        <time>2018-10-17T11:32:56Z</time>
      </trkpt>
      <trkpt lat="45.80351" lon="6.42478">
        <ele>2206</ele>
        <time>2018-10-17T11:32:57Z</time>
      </trkpt>
      <trkpt lat="45.80351" lon="6.42478">
        <ele>2206</ele>
        <time>2018-10-17T11:32:58Z</time>
      </trkpt>
      <trkpt lat="45.80351" lon="6.42478">
        <ele>2207</ele>
        <time>2018-10-17T11:32:59Z</time>
      </trkpt>
      <trkpt lat="45.8035" lon="6.42476">
        <ele>2207</ele>
        <time>2018-10-17T11:33:00Z</time>
      </trkpt>
      <trkpt lat="45.8035" lon="6.42476">
        <ele>2207</ele>
        <time>2018-10-17T11:33:01Z</time>
      </trkpt>
      <trkpt lat="45.8035" lon="6.42476">
        <ele>2208</ele>
        <time>2018-10-17T11:33:02Z</time>
      </trkpt>
      <trkpt lat="45.8035" lon="6.42476">
        <ele>2208</ele>
        <time>2018-10-17T11:33:03Z</time>
      </trkpt>
      <trkpt lat="45.80351" lon="6.42473">
        <ele>2208</ele>
        <time>2018-10-17T11:33:04Z</time>
      </trkpt>
      <trkpt lat="45.80351" lon="6.42473">
        <ele>2208</ele>
        <time>2018-10-17T11:33:05Z</time>
      </trkpt>
      <trkpt lat="45.80351" lon="6.42473">
        <ele>2208</ele>
        <time>2018-10-17T11:33:06Z</time>
      </trkpt>
      <trkpt lat="45.80351" lon="6.42473">
        <ele>2208</ele>
        <time>2018-10-17T11:33:07Z</time>
      </trkpt>
      <trkpt lat="45.80351" lon="6.42473">
        <ele>2208</ele>
        <time>2018-10-17T11:33:08Z</time>
      </trkpt>
      <trkpt lat="45.80351" lon="6.42473">
        <ele>2209</ele>
        <time>2018-10-17T11:33:09Z</time>
      </trkpt>
      <trkpt lat="45.80351" lon="6.42473">
        <ele>2209</ele>
        <time>2018-10-17T11:33:10Z</time>
      </trkpt>
      <trkpt lat="45.80351" lon="6.4247">
        <ele>2210</ele>
        <time>2018-10-17T11:33:11Z</time>
      </trkpt>
      <trkpt lat="45.80351" lon="6.4247">
        <ele>2210</ele>
        <time>2018-10-17T11:33:12Z</time>
      </trkpt>
      <trkpt lat="45.80351" lon="6.4247">
        <ele>2210</ele>
        <time>2018-10-17T11:33:13Z</time>
      </trkpt>
      <trkpt lat="45.80351" lon="6.4247">
        <ele>2210</ele>
        <time>2018-10-17T11:33:14Z</time>
      </trkpt>
      <trkpt lat="45.80351" lon="6.4247">
        <ele>2210</ele>
        <time>2018-10-17T11:33:15Z</time>
      </trkpt>
      <trkpt lat="45.80349" lon="6.42469">
        <ele>2210</ele>
        <time>2018-10-17T11:33:16Z</time>
      </trkpt>
      <trkpt lat="45.80349" lon="6.42469">
        <ele>2210</ele>
        <time>2018-10-17T11:33:17Z</time>
      </trkpt>
      <trkpt lat="45.80349" lon="6.42469">
        <ele>2211</ele>
        <time>2018-10-17T11:33:18Z</time>
      </trkpt>
      <trkpt lat="45.80349" lon="6.42469">
        <ele>2211</ele>
        <time>2018-10-17T11:33:19Z</time>
      </trkpt>
      <trkpt lat="45.80349" lon="6.42469">
        <ele>2211</ele>
        <time>2018-10-17T11:33:20Z</time>
      </trkpt>
      <trkpt lat="45.80348" lon="6.42472">
        <ele>2211</ele>
        <time>2018-10-17T11:33:21Z</time>
      </trkpt>
      <trkpt lat="45.80348" lon="6.42472">
        <ele>2212</ele>
        <time>2018-10-17T11:33:22Z</time>
      </trkpt>
      <trkpt lat="45.80348" lon="6.42472">
        <ele>2212</ele>
        <time>2018-10-17T11:33:23Z</time>
      </trkpt>
      <trkpt lat="45.80348" lon="6.42472">
        <ele>2212</ele>
        <time>2018-10-17T11:33:24Z</time>
      </trkpt>
      <trkpt lat="45.80348" lon="6.42472">
        <ele>2213</ele>
        <time>2018-10-17T11:33:25Z</time>
      </trkpt>
      <trkpt lat="45.80348" lon="6.42472">
        <ele>2213</ele>
        <time>2018-10-17T11:33:26Z</time>
      </trkpt>
      <trkpt lat="45.80348" lon="6.42472">
        <ele>2213</ele>
        <time>2018-10-17T11:33:27Z</time>
      </trkpt>
      <trkpt lat="45.80348" lon="6.42472">
        <ele>2213</ele>
        <time>2018-10-17T11:33:28Z</time>
      </trkpt>
      <trkpt lat="45.80348" lon="6.42472">
        <ele>2213</ele>
        <time>2018-10-17T11:33:29Z</time>
      </trkpt>
      <trkpt lat="45.80347" lon="6.42474">
        <ele>2213</ele>
        <time>2018-10-17T11:33:30Z</time>
      </trkpt>
      <trkpt lat="45.80347" lon="6.42474">
        <ele>2213</ele>
        <time>2018-10-17T11:33:31Z</time>
      </trkpt>
      <trkpt lat="45.80347" lon="6.42474">
        <ele>2213</ele>
        <time>2018-10-17T11:33:32Z</time>
      </trkpt>
      <trkpt lat="45.80347" lon="6.42474">
        <ele>2213</ele>
        <time>2018-10-17T11:33:33Z</time>
      </trkpt>
      <trkpt lat="45.80347" lon="6.42474">
        <ele>2214</ele>
        <time>2018-10-17T11:33:34Z</time>
      </trkpt>
      <trkpt lat="45.80347" lon="6.42474">
        <ele>2214</ele>
        <time>2018-10-17T11:33:35Z</time>
      </trkpt>
      <trkpt lat="45.80347" lon="6.42474">
        <ele>2214</ele>
        <time>2018-10-17T11:33:36Z</time>
      </trkpt>
      <trkpt lat="45.80347" lon="6.42474">
        <ele>2214</ele>
        <time>2018-10-17T11:33:37Z</time>
      </trkpt>
      <trkpt lat="45.80345" lon="6.42474">
        <ele>2214</ele>
        <time>2018-10-17T11:33:38Z</time>
      </trkpt>
      <trkpt lat="45.80345" lon="6.42474">
        <ele>2214</ele>
        <time>2018-10-17T11:33:39Z</time>
      </trkpt>
      <trkpt lat="45.80345" lon="6.42474">
        <ele>2215</ele>
        <time>2018-10-17T11:33:40Z</time>
      </trkpt>
      <trkpt lat="45.80345" lon="6.42474">
        <ele>2215</ele>
        <time>2018-10-17T11:33:41Z</time>
      </trkpt>
      <trkpt lat="45.80343" lon="6.42476">
        <ele>2215</ele>
        <time>2018-10-17T11:33:42Z</time>
      </trkpt>
      <trkpt lat="45.80343" lon="6.42476">
        <ele>2215</ele>
        <time>2018-10-17T11:33:43Z</time>
      </trkpt>
      <trkpt lat="45.80343" lon="6.42476">
        <ele>2215</ele>
        <time>2018-10-17T11:33:44Z</time>
      </trkpt>
      <trkpt lat="45.80343" lon="6.42476">
        <ele>2215</ele>
        <time>2018-10-17T11:33:45Z</time>
      </trkpt>
      <trkpt lat="45.80343" lon="6.42476">
        <ele>2215</ele>
        <time>2018-10-17T11:33:46Z</time>
      </trkpt>
      <trkpt lat="45.80341" lon="6.42475">
        <ele>2215</ele>
        <time>2018-10-17T11:33:47Z</time>
      </trkpt>
      <trkpt lat="45.80341" lon="6.42475">
        <ele>2215</ele>
        <time>2018-10-17T11:33:48Z</time>
      </trkpt>
      <trkpt lat="45.80341" lon="6.42475">
        <ele>2216</ele>
        <time>2018-10-17T11:33:49Z</time>
      </trkpt>
      <trkpt lat="45.80341" lon="6.42475">
        <ele>2216</ele>
        <time>2018-10-17T11:33:50Z</time>
      </trkpt>
      <trkpt lat="45.80341" lon="6.42475">
        <ele>2216</ele>
        <time>2018-10-17T11:33:51Z</time>
      </trkpt>
      <trkpt lat="45.8034" lon="6.42477">
        <ele>2216</ele>
        <time>2018-10-17T11:33:52Z</time>
      </trkpt>
      <trkpt lat="45.8034" lon="6.42477">
        <ele>2216</ele>
        <time>2018-10-17T11:33:53Z</time>
      </trkpt>
      <trkpt lat="45.8034" lon="6.42477">
        <ele>2217</ele>
        <time>2018-10-17T11:33:54Z</time>
      </trkpt>
      <trkpt lat="45.8034" lon="6.42477">
        <ele>2217</ele>
        <time>2018-10-17T11:33:55Z</time>
      </trkpt>
      <trkpt lat="45.8034" lon="6.42477">
        <ele>2217</ele>
        <time>2018-10-17T11:33:56Z</time>
      </trkpt>
      <trkpt lat="45.8034" lon="6.42477">
        <ele>2217</ele>
        <time>2018-10-17T11:33:57Z</time>
      </trkpt>
      <trkpt lat="45.80338" lon="6.42479">
        <ele>2217</ele>
        <time>2018-10-17T11:33:58Z</time>
      </trkpt>
      <trkpt lat="45.80338" lon="6.42479">
        <ele>2219</ele>
        <time>2018-10-17T11:33:59Z</time>
      </trkpt>
      <trkpt lat="45.80338" lon="6.42479">
        <ele>2219</ele>
        <time>2018-10-17T11:34:00Z</time>
      </trkpt>
      <trkpt lat="45.80338" lon="6.42479">
        <ele>2219</ele>
        <time>2018-10-17T11:34:01Z</time>
      </trkpt>
      <trkpt lat="45.80338" lon="6.42479">
        <ele>2219</ele>
        <time>2018-10-17T11:34:02Z</time>
      </trkpt>
      <trkpt lat="45.80338" lon="6.42479">
        <ele>2219</ele>
        <time>2018-10-17T11:34:03Z</time>
      </trkpt>
      <trkpt lat="45.80338" lon="6.42479">
        <ele>2219</ele>
        <time>2018-10-17T11:34:04Z</time>
      </trkpt>
      <trkpt lat="45.80338" lon="6.42479">
        <ele>2219</ele>
        <time>2018-10-17T11:34:05Z</time>
      </trkpt>
      <trkpt lat="45.80336" lon="6.42481">
        <ele>2219</ele>
        <time>2018-10-17T11:34:06Z</time>
      </trkpt>
      <trkpt lat="45.80336" lon="6.42481">
        <ele>2220</ele>
        <time>2018-10-17T11:34:07Z</time>
      </trkpt>
      <trkpt lat="45.80336" lon="6.42481">
        <ele>2220</ele>
        <time>2018-10-17T11:34:08Z</time>
      </trkpt>
      <trkpt lat="45.80336" lon="6.42481">
        <ele>2220</ele>
        <time>2018-10-17T11:34:09Z</time>
      </trkpt>
      <trkpt lat="45.80336" lon="6.42481">
        <ele>2221</ele>
        <time>2018-10-17T11:34:10Z</time>
      </trkpt>
      <trkpt lat="45.80334" lon="6.42482">
        <ele>2221</ele>
        <time>2018-10-17T11:34:11Z</time>
      </trkpt>
      <trkpt lat="45.80334" lon="6.42482">
        <ele>2221</ele>
        <time>2018-10-17T11:34:12Z</time>
      </trkpt>
      <trkpt lat="45.80334" lon="6.42482">
        <ele>2221</ele>
        <time>2018-10-17T11:34:13Z</time>
      </trkpt>
      <trkpt lat="45.80334" lon="6.42482">
        <ele>2221</ele>
        <time>2018-10-17T11:34:14Z</time>
      </trkpt>
      <trkpt lat="45.80334" lon="6.42482">
        <ele>2221</ele>
        <time>2018-10-17T11:34:15Z</time>
      </trkpt>
      <trkpt lat="45.80334" lon="6.42482">
        <ele>2222</ele>
        <time>2018-10-17T11:34:16Z</time>
      </trkpt>
      <trkpt lat="45.80334" lon="6.42482">
        <ele>2222</ele>
        <time>2018-10-17T11:34:17Z</time>
      </trkpt>
      <trkpt lat="45.80333" lon="6.4248">
        <ele>2222</ele>
        <time>2018-10-17T11:34:18Z</time>
      </trkpt>
      <trkpt lat="45.80333" lon="6.4248">
        <ele>2222</ele>
        <time>2018-10-17T11:34:19Z</time>
      </trkpt>
      <trkpt lat="45.80333" lon="6.4248">
        <ele>2222</ele>
        <time>2018-10-17T11:34:20Z</time>
      </trkpt>
      <trkpt lat="45.80333" lon="6.4248">
        <ele>2222</ele>
        <time>2018-10-17T11:34:21Z</time>
      </trkpt>
      <trkpt lat="45.80333" lon="6.4248">
        <ele>2223</ele>
        <time>2018-10-17T11:34:22Z</time>
      </trkpt>
      <trkpt lat="45.80332" lon="6.42477">
        <ele>2223</ele>
        <time>2018-10-17T11:34:23Z</time>
      </trkpt>
      <trkpt lat="45.80332" lon="6.42477">
        <ele>2223</ele>
        <time>2018-10-17T11:34:24Z</time>
      </trkpt>
      <trkpt lat="45.80332" lon="6.42477">
        <ele>2223</ele>
        <time>2018-10-17T11:34:25Z</time>
      </trkpt>
      <trkpt lat="45.80332" lon="6.42477">
        <ele>2224</ele>
        <time>2018-10-17T11:34:26Z</time>
      </trkpt>
      <trkpt lat="45.80332" lon="6.42477">
        <ele>2224</ele>
        <time>2018-10-17T11:34:27Z</time>
      </trkpt>
      <trkpt lat="45.80332" lon="6.42477">
        <ele>2224</ele>
        <time>2018-10-17T11:34:28Z</time>
      </trkpt>
      <trkpt lat="45.8033" lon="6.42476">
        <ele>2224</ele>
        <time>2018-10-17T11:34:29Z</time>
      </trkpt>
      <trkpt lat="45.8033" lon="6.42476">
        <ele>2224</ele>
        <time>2018-10-17T11:34:30Z</time>
      </trkpt>
      <trkpt lat="45.8033" lon="6.42476">
        <ele>2225</ele>
        <time>2018-10-17T11:34:31Z</time>
      </trkpt>
      <trkpt lat="45.8033" lon="6.42476">
        <ele>2225</ele>
        <time>2018-10-17T11:34:32Z</time>
      </trkpt>
      <trkpt lat="45.80328" lon="6.42475">
        <ele>2225</ele>
        <time>2018-10-17T11:34:33Z</time>
      </trkpt>
      <trkpt lat="45.80328" lon="6.42475">
        <ele>2225</ele>
        <time>2018-10-17T11:34:34Z</time>
      </trkpt>
      <trkpt lat="45.80328" lon="6.42475">
        <ele>2224</ele>
        <time>2018-10-17T11:34:35Z</time>
      </trkpt>
      <trkpt lat="45.80328" lon="6.42475">
        <ele>2224</ele>
        <time>2018-10-17T11:34:36Z</time>
      </trkpt>
      <trkpt lat="45.80328" lon="6.42475">
        <ele>2224</ele>
        <time>2018-10-17T11:34:37Z</time>
      </trkpt>
      <trkpt lat="45.80328" lon="6.42475">
        <ele>2224</ele>
        <time>2018-10-17T11:34:38Z</time>
      </trkpt>
      <trkpt lat="45.80327" lon="6.42471">
        <ele>2225</ele>
        <time>2018-10-17T11:34:39Z</time>
      </trkpt>
      <trkpt lat="45.80327" lon="6.42471">
        <ele>2225</ele>
        <time>2018-10-17T11:34:40Z</time>
      </trkpt>
      <trkpt lat="45.80327" lon="6.42471">
        <ele>2225</ele>
        <time>2018-10-17T11:34:41Z</time>
      </trkpt>
      <trkpt lat="45.80326" lon="6.42469">
        <ele>2225</ele>
        <time>2018-10-17T11:34:42Z</time>
      </trkpt>
      <trkpt lat="45.80326" lon="6.42469">
        <ele>2225</ele>
        <time>2018-10-17T11:34:43Z</time>
      </trkpt>
      <trkpt lat="45.80326" lon="6.42469">
        <ele>2225</ele>
        <time>2018-10-17T11:34:44Z</time>
      </trkpt>
      <trkpt lat="45.80326" lon="6.42469">
        <ele>2225</ele>
        <time>2018-10-17T11:34:45Z</time>
      </trkpt>
      <trkpt lat="45.80326" lon="6.42469">
        <ele>2225</ele>
        <time>2018-10-17T11:34:46Z</time>
      </trkpt>
      <trkpt lat="45.80326" lon="6.42469">
        <ele>2225</ele>
        <time>2018-10-17T11:34:47Z</time>
      </trkpt>
      <trkpt lat="45.80325" lon="6.42467">
        <ele>2225</ele>
        <time>2018-10-17T11:34:48Z</time>
      </trkpt>
      <trkpt lat="45.80325" lon="6.42467">
        <ele>2226</ele>
        <time>2018-10-17T11:34:49Z</time>
      </trkpt>
      <trkpt lat="45.80325" lon="6.42467">
        <ele>2226</ele>
        <time>2018-10-17T11:34:50Z</time>
      </trkpt>
      <trkpt lat="45.80325" lon="6.42467">
        <ele>2226</ele>
        <time>2018-10-17T11:34:51Z</time>
      </trkpt>
      <trkpt lat="45.80325" lon="6.42467">
        <ele>2226</ele>
        <time>2018-10-17T11:34:52Z</time>
      </trkpt>
      <trkpt lat="45.80325" lon="6.42467">
        <ele>2226</ele>
        <time>2018-10-17T11:34:53Z</time>
      </trkpt>
      <trkpt lat="45.80323" lon="6.42468">
        <ele>2226</ele>
        <time>2018-10-17T11:34:54Z</time>
      </trkpt>
      <trkpt lat="45.80323" lon="6.42468">
        <ele>2226</ele>
        <time>2018-10-17T11:34:55Z</time>
      </trkpt>
      <trkpt lat="45.80323" lon="6.42468">
        <ele>2227</ele>
        <time>2018-10-17T11:34:56Z</time>
      </trkpt>
      <trkpt lat="45.80323" lon="6.42468">
        <ele>2227</ele>
        <time>2018-10-17T11:34:57Z</time>
      </trkpt>
      <trkpt lat="45.80322" lon="6.42466">
        <ele>2227</ele>
        <time>2018-10-17T11:34:58Z</time>
      </trkpt>
      <trkpt lat="45.80322" lon="6.42466">
        <ele>2229</ele>
        <time>2018-10-17T11:34:59Z</time>
      </trkpt>
      <trkpt lat="45.80322" lon="6.42466">
        <ele>2229</ele>
        <time>2018-10-17T11:35:00Z</time>
      </trkpt>
      <trkpt lat="45.80322" lon="6.42466">
        <ele>2229</ele>
        <time>2018-10-17T11:35:01Z</time>
      </trkpt>
      <trkpt lat="45.80322" lon="6.42466">
        <ele>2229</ele>
        <time>2018-10-17T11:35:02Z</time>
      </trkpt>
      <trkpt lat="45.80322" lon="6.42466">
        <ele>2229</ele>
        <time>2018-10-17T11:35:03Z</time>
      </trkpt>
      <trkpt lat="45.80322" lon="6.42466">
        <ele>2229</ele>
        <time>2018-10-17T11:35:04Z</time>
      </trkpt>
      <trkpt lat="45.80322" lon="6.42466">
        <ele>2229</ele>
        <time>2018-10-17T11:35:05Z</time>
      </trkpt>
      <trkpt lat="45.8032" lon="6.42464">
        <ele>2230</ele>
        <time>2018-10-17T11:35:06Z</time>
      </trkpt>
      <trkpt lat="45.8032" lon="6.42464">
        <ele>2230</ele>
        <time>2018-10-17T11:35:07Z</time>
      </trkpt>
      <trkpt lat="45.8032" lon="6.42464">
        <ele>2230</ele>
        <time>2018-10-17T11:35:08Z</time>
      </trkpt>
      <trkpt lat="45.8032" lon="6.42464">
        <ele>2230</ele>
        <time>2018-10-17T11:35:09Z</time>
      </trkpt>
      <trkpt lat="45.8032" lon="6.42464">
        <ele>2230</ele>
        <time>2018-10-17T11:35:10Z</time>
      </trkpt>
      <trkpt lat="45.8032" lon="6.42464">
        <ele>2230</ele>
        <time>2018-10-17T11:35:11Z</time>
      </trkpt>
      <trkpt lat="45.80318" lon="6.42463">
        <ele>2231</ele>
        <time>2018-10-17T11:35:12Z</time>
      </trkpt>
      <trkpt lat="45.80318" lon="6.42463">
        <ele>2231</ele>
        <time>2018-10-17T11:35:13Z</time>
      </trkpt>
      <trkpt lat="45.80318" lon="6.42463">
        <ele>2231</ele>
        <time>2018-10-17T11:35:14Z</time>
      </trkpt>
      <trkpt lat="45.80318" lon="6.42463">
        <ele>2231</ele>
        <time>2018-10-17T11:35:15Z</time>
      </trkpt>
      <trkpt lat="45.80318" lon="6.42463">
        <ele>2231</ele>
        <time>2018-10-17T11:35:16Z</time>
      </trkpt>
      <trkpt lat="45.80318" lon="6.42463">
        <ele>2232</ele>
        <time>2018-10-17T11:35:17Z</time>
      </trkpt>
      <trkpt lat="45.80318" lon="6.42463">
        <ele>2232</ele>
        <time>2018-10-17T11:35:18Z</time>
      </trkpt>
      <trkpt lat="45.80318" lon="6.42463">
        <ele>2232</ele>
        <time>2018-10-17T11:35:19Z</time>
      </trkpt>
      <trkpt lat="45.80318" lon="6.42463">
        <ele>2232</ele>
        <time>2018-10-17T11:35:20Z</time>
      </trkpt>
      <trkpt lat="45.80317" lon="6.42463">
        <ele>2232</ele>
        <time>2018-10-17T11:35:21Z</time>
      </trkpt>
      <trkpt lat="45.80317" lon="6.42463">
        <ele>2232</ele>
        <time>2018-10-17T11:35:22Z</time>
      </trkpt>
      <trkpt lat="45.80317" lon="6.42463">
        <ele>2233</ele>
        <time>2018-10-17T11:35:23Z</time>
      </trkpt>
      <trkpt lat="45.80317" lon="6.42463">
        <ele>2233</ele>
        <time>2018-10-17T11:35:24Z</time>
      </trkpt>
      <trkpt lat="45.80317" lon="6.42463">
        <ele>2233</ele>
        <time>2018-10-17T11:35:25Z</time>
      </trkpt>
      <trkpt lat="45.80317" lon="6.42463">
        <ele>2233</ele>
        <time>2018-10-17T11:35:26Z</time>
      </trkpt>
      <trkpt lat="45.80317" lon="6.42463">
        <ele>2233</ele>
        <time>2018-10-17T11:35:27Z</time>
      </trkpt>
      <trkpt lat="45.80317" lon="6.42463">
        <ele>2234</ele>
        <time>2018-10-17T11:35:28Z</time>
      </trkpt>
      <trkpt lat="45.80317" lon="6.42463">
        <ele>2234</ele>
        <time>2018-10-17T11:35:29Z</time>
      </trkpt>
      <trkpt lat="45.80317" lon="6.42463">
        <ele>2234</ele>
        <time>2018-10-17T11:35:30Z</time>
      </trkpt>
      <trkpt lat="45.80317" lon="6.42463">
        <ele>2234</ele>
        <time>2018-10-17T11:35:31Z</time>
      </trkpt>
      <trkpt lat="45.80315" lon="6.42463">
        <ele>2234</ele>
        <time>2018-10-17T11:35:32Z</time>
      </trkpt>
      <trkpt lat="45.80315" lon="6.42463">
        <ele>2234</ele>
        <time>2018-10-17T11:35:33Z</time>
      </trkpt>
      <trkpt lat="45.80315" lon="6.42463">
        <ele>2234</ele>
        <time>2018-10-17T11:35:34Z</time>
      </trkpt>
      <trkpt lat="45.80315" lon="6.42463">
        <ele>2234</ele>
        <time>2018-10-17T11:35:35Z</time>
      </trkpt>
      <trkpt lat="45.80315" lon="6.42463">
        <ele>2234</ele>
        <time>2018-10-17T11:35:36Z</time>
      </trkpt>
      <trkpt lat="45.80315" lon="6.42463">
        <ele>2235</ele>
        <time>2018-10-17T11:35:37Z</time>
      </trkpt>
      <trkpt lat="45.80315" lon="6.42463">
        <ele>2236</ele>
        <time>2018-10-17T11:35:38Z</time>
      </trkpt>
      <trkpt lat="45.80315" lon="6.42463">
        <ele>2236</ele>
        <time>2018-10-17T11:35:39Z</time>
      </trkpt>
      <trkpt lat="45.80315" lon="6.42463">
        <ele>2236</ele>
        <time>2018-10-17T11:35:40Z</time>
      </trkpt>
      <trkpt lat="45.80315" lon="6.42463">
        <ele>2236</ele>
        <time>2018-10-17T11:35:41Z</time>
      </trkpt>
      <trkpt lat="45.80315" lon="6.42463">
        <ele>2236</ele>
        <time>2018-10-17T11:35:42Z</time>
      </trkpt>
      <trkpt lat="45.80315" lon="6.42463">
        <ele>2235</ele>
        <time>2018-10-17T11:35:43Z</time>
      </trkpt>
      <trkpt lat="45.80315" lon="6.42463">
        <ele>2236</ele>
        <time>2018-10-17T11:35:44Z</time>
      </trkpt>
      <trkpt lat="45.80315" lon="6.42463">
        <ele>2236</ele>
        <time>2018-10-17T11:35:45Z</time>
      </trkpt>
      <trkpt lat="45.80315" lon="6.42463">
        <ele>2236</ele>
        <time>2018-10-17T11:35:46Z</time>
      </trkpt>
      <trkpt lat="45.80315" lon="6.42463">
        <ele>2236</ele>
        <time>2018-10-17T11:35:47Z</time>
      </trkpt>
      <trkpt lat="45.80315" lon="6.42463">
        <ele>2236</ele>
        <time>2018-10-17T11:35:48Z</time>
      </trkpt>
      <trkpt lat="45.80313" lon="6.42461">
        <ele>2236</ele>
        <time>2018-10-17T11:35:49Z</time>
      </trkpt>
      <trkpt lat="45.80313" lon="6.42461">
        <ele>2236</ele>
        <time>2018-10-17T11:35:50Z</time>
      </trkpt>
      <trkpt lat="45.80313" lon="6.42461">
        <ele>2236</ele>
        <time>2018-10-17T11:35:51Z</time>
      </trkpt>
      <trkpt lat="45.80313" lon="6.42461">
        <ele>2237</ele>
        <time>2018-10-17T11:35:52Z</time>
      </trkpt>
      <trkpt lat="45.80313" lon="6.42461">
        <ele>2238</ele>
        <time>2018-10-17T11:35:53Z</time>
      </trkpt>
      <trkpt lat="45.80313" lon="6.42461">
        <ele>2238</ele>
        <time>2018-10-17T11:35:54Z</time>
      </trkpt>
      <trkpt lat="45.80313" lon="6.42461">
        <ele>2238</ele>
        <time>2018-10-17T11:35:55Z</time>
      </trkpt>
      <trkpt lat="45.80313" lon="6.42461">
        <ele>2238</ele>
        <time>2018-10-17T11:35:56Z</time>
      </trkpt>
      <trkpt lat="45.80313" lon="6.42461">
        <ele>2238</ele>
        <time>2018-10-17T11:35:57Z</time>
      </trkpt>
      <trkpt lat="45.80313" lon="6.42461">
        <ele>2239</ele>
        <time>2018-10-17T11:35:58Z</time>
      </trkpt>
      <trkpt lat="45.80313" lon="6.42461">
        <ele>2239</ele>
        <time>2018-10-17T11:35:59Z</time>
      </trkpt>
      <trkpt lat="45.80312" lon="6.42459">
        <ele>2239</ele>
        <time>2018-10-17T11:36:00Z</time>
      </trkpt>
      <trkpt lat="45.80312" lon="6.42459">
        <ele>2239</ele>
        <time>2018-10-17T11:36:01Z</time>
      </trkpt>
      <trkpt lat="45.80312" lon="6.42459">
        <ele>2239</ele>
        <time>2018-10-17T11:36:02Z</time>
      </trkpt>
      <trkpt lat="45.80312" lon="6.42459">
        <ele>2239</ele>
        <time>2018-10-17T11:36:03Z</time>
      </trkpt>
      <trkpt lat="45.80312" lon="6.42459">
        <ele>2239</ele>
        <time>2018-10-17T11:36:04Z</time>
      </trkpt>
      <trkpt lat="45.80312" lon="6.42459">
        <ele>2239</ele>
        <time>2018-10-17T11:36:05Z</time>
      </trkpt>
      <trkpt lat="45.80312" lon="6.42459">
        <ele>2239</ele>
        <time>2018-10-17T11:36:06Z</time>
      </trkpt>
      <trkpt lat="45.80312" lon="6.42459">
        <ele>2240</ele>
        <time>2018-10-17T11:36:07Z</time>
      </trkpt>
      <trkpt lat="45.80312" lon="6.42459">
        <ele>2240</ele>
        <time>2018-10-17T11:36:08Z</time>
      </trkpt>
      <trkpt lat="45.80311" lon="6.42457">
        <ele>2240</ele>
        <time>2018-10-17T11:36:09Z</time>
      </trkpt>
      <trkpt lat="45.80311" lon="6.42457">
        <ele>2241</ele>
        <time>2018-10-17T11:36:10Z</time>
      </trkpt>
      <trkpt lat="45.80311" lon="6.42457">
        <ele>2241</ele>
        <time>2018-10-17T11:36:11Z</time>
      </trkpt>
      <trkpt lat="45.80311" lon="6.42457">
        <ele>2241</ele>
        <time>2018-10-17T11:36:12Z</time>
      </trkpt>
      <trkpt lat="45.80311" lon="6.42457">
        <ele>2241</ele>
        <time>2018-10-17T11:36:13Z</time>
      </trkpt>
      <trkpt lat="45.80311" lon="6.42457">
        <ele>2241</ele>
        <time>2018-10-17T11:36:14Z</time>
      </trkpt>
      <trkpt lat="45.80311" lon="6.42457">
        <ele>2241</ele>
        <time>2018-10-17T11:36:15Z</time>
      </trkpt>
      <trkpt lat="45.80311" lon="6.42457">
        <ele>2241</ele>
        <time>2018-10-17T11:36:16Z</time>
      </trkpt>
      <trkpt lat="45.80311" lon="6.42457">
        <ele>2242</ele>
        <time>2018-10-17T11:36:17Z</time>
      </trkpt>
      <trkpt lat="45.8031" lon="6.42455">
        <ele>2242</ele>
        <time>2018-10-17T11:36:18Z</time>
      </trkpt>
      <trkpt lat="45.8031" lon="6.42455">
        <ele>2242</ele>
        <time>2018-10-17T11:36:19Z</time>
      </trkpt>
      <trkpt lat="45.8031" lon="6.42455">
        <ele>2242</ele>
        <time>2018-10-17T11:36:20Z</time>
      </trkpt>
      <trkpt lat="45.8031" lon="6.42455">
        <ele>2242</ele>
        <time>2018-10-17T11:36:21Z</time>
      </trkpt>
      <trkpt lat="45.8031" lon="6.42455">
        <ele>2242</ele>
        <time>2018-10-17T11:36:22Z</time>
      </trkpt>
      <trkpt lat="45.80309" lon="6.42453">
        <ele>2243</ele>
        <time>2018-10-17T11:36:23Z</time>
      </trkpt>
      <trkpt lat="45.80309" lon="6.42453">
        <ele>2244</ele>
        <time>2018-10-17T11:36:24Z</time>
      </trkpt>
      <trkpt lat="45.80309" lon="6.42453">
        <ele>2244</ele>
        <time>2018-10-17T11:36:25Z</time>
      </trkpt>
      <trkpt lat="45.80309" lon="6.42453">
        <ele>2244</ele>
        <time>2018-10-17T11:36:26Z</time>
      </trkpt>
      <trkpt lat="45.80309" lon="6.42453">
        <ele>2244</ele>
        <time>2018-10-17T11:36:27Z</time>
      </trkpt>
      <trkpt lat="45.80309" lon="6.42453">
        <ele>2244</ele>
        <time>2018-10-17T11:36:28Z</time>
      </trkpt>
      <trkpt lat="45.80308" lon="6.4245">
        <ele>2244</ele>
        <time>2018-10-17T11:36:29Z</time>
      </trkpt>
      <trkpt lat="45.80308" lon="6.4245">
        <ele>2244</ele>
        <time>2018-10-17T11:36:30Z</time>
      </trkpt>
      <trkpt lat="45.80308" lon="6.4245">
        <ele>2244</ele>
        <time>2018-10-17T11:36:31Z</time>
      </trkpt>
      <trkpt lat="45.80308" lon="6.4245">
        <ele>2244</ele>
        <time>2018-10-17T11:36:32Z</time>
      </trkpt>
      <trkpt lat="45.80306" lon="6.42448">
        <ele>2244</ele>
        <time>2018-10-17T11:36:33Z</time>
      </trkpt>
      <trkpt lat="45.80306" lon="6.42448">
        <ele>2244</ele>
        <time>2018-10-17T11:36:34Z</time>
      </trkpt>
      <trkpt lat="45.80306" lon="6.42448">
        <ele>2245</ele>
        <time>2018-10-17T11:36:35Z</time>
      </trkpt>
      <trkpt lat="45.80305" lon="6.42446">
        <ele>2245</ele>
        <time>2018-10-17T11:36:36Z</time>
      </trkpt>
      <trkpt lat="45.80305" lon="6.42446">
        <ele>2245</ele>
        <time>2018-10-17T11:36:37Z</time>
      </trkpt>
      <trkpt lat="45.80305" lon="6.42446">
        <ele>2245</ele>
        <time>2018-10-17T11:36:38Z</time>
      </trkpt>
      <trkpt lat="45.80305" lon="6.42446">
        <ele>2245</ele>
        <time>2018-10-17T11:36:39Z</time>
      </trkpt>
      <trkpt lat="45.80305" lon="6.42446">
        <ele>2245</ele>
        <time>2018-10-17T11:36:40Z</time>
      </trkpt>
      <trkpt lat="45.80305" lon="6.42446">
        <ele>2244</ele>
        <time>2018-10-17T11:36:41Z</time>
      </trkpt>
      <trkpt lat="45.80305" lon="6.42446">
        <ele>2244</ele>
        <time>2018-10-17T11:36:42Z</time>
      </trkpt>
      <trkpt lat="45.80305" lon="6.42446">
        <ele>2244</ele>
        <time>2018-10-17T11:36:43Z</time>
      </trkpt>
      <trkpt lat="45.80305" lon="6.42446">
        <ele>2244</ele>
        <time>2018-10-17T11:36:44Z</time>
      </trkpt>
      <trkpt lat="45.80305" lon="6.42446">
        <ele>2244</ele>
        <time>2018-10-17T11:36:45Z</time>
      </trkpt>
      <trkpt lat="45.80305" lon="6.42446">
        <ele>2244</ele>
        <time>2018-10-17T11:36:46Z</time>
      </trkpt>
      <trkpt lat="45.80305" lon="6.42446">
        <ele>2244</ele>
        <time>2018-10-17T11:36:47Z</time>
      </trkpt>
      <trkpt lat="45.80305" lon="6.42446">
        <ele>2244</ele>
        <time>2018-10-17T11:36:48Z</time>
      </trkpt>
      <trkpt lat="45.80304" lon="6.42444">
        <ele>2244</ele>
        <time>2018-10-17T11:36:49Z</time>
      </trkpt>
      <trkpt lat="45.80304" lon="6.42444">
        <ele>2244</ele>
        <time>2018-10-17T11:36:50Z</time>
      </trkpt>
      <trkpt lat="45.80304" lon="6.42444">
        <ele>2245</ele>
        <time>2018-10-17T11:36:51Z</time>
      </trkpt>
      <trkpt lat="45.80304" lon="6.42444">
        <ele>2246</ele>
        <time>2018-10-17T11:36:52Z</time>
      </trkpt>
      <trkpt lat="45.80304" lon="6.42444">
        <ele>2246</ele>
        <time>2018-10-17T11:36:53Z</time>
      </trkpt>
      <trkpt lat="45.80302" lon="6.42443">
        <ele>2246</ele>
        <time>2018-10-17T11:36:54Z</time>
      </trkpt>
      <trkpt lat="45.80302" lon="6.42443">
        <ele>2246</ele>
        <time>2018-10-17T11:36:55Z</time>
      </trkpt>
      <trkpt lat="45.80302" lon="6.42443">
        <ele>2246</ele>
        <time>2018-10-17T11:36:56Z</time>
      </trkpt>
      <trkpt lat="45.80302" lon="6.42443">
        <ele>2247</ele>
        <time>2018-10-17T11:36:57Z</time>
      </trkpt>
      <trkpt lat="45.80302" lon="6.42443">
        <ele>2247</ele>
        <time>2018-10-17T11:36:58Z</time>
      </trkpt>
      <trkpt lat="45.803" lon="6.42442">
        <ele>2247</ele>
        <time>2018-10-17T11:36:59Z</time>
      </trkpt>
      <trkpt lat="45.803" lon="6.42442">
        <ele>2247</ele>
        <time>2018-10-17T11:37:00Z</time>
      </trkpt>
      <trkpt lat="45.803" lon="6.42442">
        <ele>2248</ele>
        <time>2018-10-17T11:37:01Z</time>
      </trkpt>
      <trkpt lat="45.803" lon="6.42442">
        <ele>2248</ele>
        <time>2018-10-17T11:37:02Z</time>
      </trkpt>
      <trkpt lat="45.803" lon="6.42442">
        <ele>2248</ele>
        <time>2018-10-17T11:37:03Z</time>
      </trkpt>
      <trkpt lat="45.803" lon="6.42442">
        <ele>2248</ele>
        <time>2018-10-17T11:37:04Z</time>
      </trkpt>
      <trkpt lat="45.803" lon="6.42442">
        <ele>2248</ele>
        <time>2018-10-17T11:37:05Z</time>
      </trkpt>
      <trkpt lat="45.803" lon="6.42442">
        <ele>2249</ele>
        <time>2018-10-17T11:37:06Z</time>
      </trkpt>
      <trkpt lat="45.80299" lon="6.4244">
        <ele>2249</ele>
        <time>2018-10-17T11:37:07Z</time>
      </trkpt>
      <trkpt lat="45.80299" lon="6.4244">
        <ele>2249</ele>
        <time>2018-10-17T11:37:08Z</time>
      </trkpt>
      <trkpt lat="45.80299" lon="6.4244">
        <ele>2250</ele>
        <time>2018-10-17T11:37:09Z</time>
      </trkpt>
      <trkpt lat="45.80299" lon="6.4244">
        <ele>2250</ele>
        <time>2018-10-17T11:37:10Z</time>
      </trkpt>
      <trkpt lat="45.80299" lon="6.4244">
        <ele>2250</ele>
        <time>2018-10-17T11:37:11Z</time>
      </trkpt>
      <trkpt lat="45.80299" lon="6.4244">
        <ele>2250</ele>
        <time>2018-10-17T11:37:12Z</time>
      </trkpt>
      <trkpt lat="45.80299" lon="6.4244">
        <ele>2250</ele>
        <time>2018-10-17T11:37:13Z</time>
      </trkpt>
      <trkpt lat="45.80299" lon="6.4244">
        <ele>2250</ele>
        <time>2018-10-17T11:37:14Z</time>
      </trkpt>
      <trkpt lat="45.80299" lon="6.4244">
        <ele>2250</ele>
        <time>2018-10-17T11:37:15Z</time>
      </trkpt>
      <trkpt lat="45.80299" lon="6.4244">
        <ele>2250</ele>
        <time>2018-10-17T11:37:16Z</time>
      </trkpt>
      <trkpt lat="45.80299" lon="6.4244">
        <ele>2251</ele>
        <time>2018-10-17T11:37:17Z</time>
      </trkpt>
      <trkpt lat="45.80299" lon="6.4244">
        <ele>2251</ele>
        <time>2018-10-17T11:37:18Z</time>
      </trkpt>
      <trkpt lat="45.80299" lon="6.4244">
        <ele>2251</ele>
        <time>2018-10-17T11:37:19Z</time>
      </trkpt>
      <trkpt lat="45.80299" lon="6.4244">
        <ele>2251</ele>
        <time>2018-10-17T11:37:20Z</time>
      </trkpt>
      <trkpt lat="45.80299" lon="6.4244">
        <ele>2251</ele>
        <time>2018-10-17T11:37:21Z</time>
      </trkpt>
      <trkpt lat="45.80299" lon="6.4244">
        <ele>2251</ele>
        <time>2018-10-17T11:37:22Z</time>
      </trkpt>
      <trkpt lat="45.80299" lon="6.4244">
        <ele>2251</ele>
        <time>2018-10-17T11:37:23Z</time>
      </trkpt>
      <trkpt lat="45.80299" lon="6.4244">
        <ele>2251</ele>
        <time>2018-10-17T11:37:24Z</time>
      </trkpt>
      <trkpt lat="45.80299" lon="6.4244">
        <ele>2251</ele>
        <time>2018-10-17T11:37:25Z</time>
      </trkpt>
      <trkpt lat="45.80299" lon="6.4244">
        <ele>2251</ele>
        <time>2018-10-17T11:37:26Z</time>
      </trkpt>
      <trkpt lat="45.80299" lon="6.4244">
        <ele>2251</ele>
        <time>2018-10-17T11:37:27Z</time>
      </trkpt>
      <trkpt lat="45.80299" lon="6.4244">
        <ele>2251</ele>
        <time>2018-10-17T11:37:28Z</time>
      </trkpt>
      <trkpt lat="45.80299" lon="6.4244">
        <ele>2251</ele>
        <time>2018-10-17T11:37:29Z</time>
      </trkpt>
      <trkpt lat="45.80299" lon="6.4244">
        <ele>2251</ele>
        <time>2018-10-17T11:37:30Z</time>
      </trkpt>
      <trkpt lat="45.80299" lon="6.4244">
        <ele>2251</ele>
        <time>2018-10-17T11:37:31Z</time>
      </trkpt>
      <trkpt lat="45.80299" lon="6.4244">
        <ele>2251</ele>
        <time>2018-10-17T11:37:32Z</time>
      </trkpt>
      <trkpt lat="45.80297" lon="6.42438">
        <ele>2251</ele>
        <time>2018-10-17T11:37:33Z</time>
      </trkpt>
      <trkpt lat="45.80297" lon="6.42438">
        <ele>2251</ele>
        <time>2018-10-17T11:37:34Z</time>
      </trkpt>
      <trkpt lat="45.80297" lon="6.42438">
        <ele>2252</ele>
        <time>2018-10-17T11:37:35Z</time>
      </trkpt>
      <trkpt lat="45.80297" lon="6.42438">
        <ele>2252</ele>
        <time>2018-10-17T11:37:36Z</time>
      </trkpt>
      <trkpt lat="45.80297" lon="6.42438">
        <ele>2252</ele>
        <time>2018-10-17T11:37:37Z</time>
      </trkpt>
      <trkpt lat="45.80297" lon="6.42438">
        <ele>2252</ele>
        <time>2018-10-17T11:37:38Z</time>
      </trkpt>
      <trkpt lat="45.80297" lon="6.42438">
        <ele>2252</ele>
        <time>2018-10-17T11:37:39Z</time>
      </trkpt>
      <trkpt lat="45.80297" lon="6.42438">
        <ele>2252</ele>
        <time>2018-10-17T11:37:40Z</time>
      </trkpt>
      <trkpt lat="45.80297" lon="6.42438">
        <ele>2252</ele>
        <time>2018-10-17T11:37:41Z</time>
      </trkpt>
      <trkpt lat="45.80297" lon="6.42438">
        <ele>2252</ele>
        <time>2018-10-17T11:37:42Z</time>
      </trkpt>
      <trkpt lat="45.80297" lon="6.42438">
        <ele>2252</ele>
        <time>2018-10-17T11:37:43Z</time>
      </trkpt>
      <trkpt lat="45.80297" lon="6.42438">
        <ele>2253</ele>
        <time>2018-10-17T11:37:44Z</time>
      </trkpt>
      <trkpt lat="45.80297" lon="6.42438">
        <ele>2253</ele>
        <time>2018-10-17T11:37:45Z</time>
      </trkpt>
      <trkpt lat="45.80297" lon="6.42435">
        <ele>2253</ele>
        <time>2018-10-17T11:37:46Z</time>
      </trkpt>
      <trkpt lat="45.80297" lon="6.42435">
        <ele>2253</ele>
        <time>2018-10-17T11:37:47Z</time>
      </trkpt>
      <trkpt lat="45.80297" lon="6.42435">
        <ele>2253</ele>
        <time>2018-10-17T11:37:48Z</time>
      </trkpt>
      <trkpt lat="45.80297" lon="6.42435">
        <ele>2253</ele>
        <time>2018-10-17T11:37:49Z</time>
      </trkpt>
      <trkpt lat="45.80297" lon="6.42435">
        <ele>2253</ele>
        <time>2018-10-17T11:37:50Z</time>
      </trkpt>
      <trkpt lat="45.80297" lon="6.42435">
        <ele>2253</ele>
        <time>2018-10-17T11:37:51Z</time>
      </trkpt>
      <trkpt lat="45.80297" lon="6.42435">
        <ele>2253</ele>
        <time>2018-10-17T11:37:52Z</time>
      </trkpt>
      <trkpt lat="45.80297" lon="6.42435">
        <ele>2253</ele>
        <time>2018-10-17T11:37:53Z</time>
      </trkpt>
      <trkpt lat="45.80297" lon="6.42435">
        <ele>2253</ele>
        <time>2018-10-17T11:37:54Z</time>
      </trkpt>
      <trkpt lat="45.80297" lon="6.42435">
        <ele>2254</ele>
        <time>2018-10-17T11:37:55Z</time>
      </trkpt>
      <trkpt lat="45.80297" lon="6.42435">
        <ele>2254</ele>
        <time>2018-10-17T11:37:56Z</time>
      </trkpt>
      <trkpt lat="45.80297" lon="6.42435">
        <ele>2255</ele>
        <time>2018-10-17T11:37:57Z</time>
      </trkpt>
      <trkpt lat="45.80297" lon="6.42435">
        <ele>2255</ele>
        <time>2018-10-17T11:37:58Z</time>
      </trkpt>
      <trkpt lat="45.80295" lon="6.42433">
        <ele>2255</ele>
        <time>2018-10-17T11:37:59Z</time>
      </trkpt>
      <trkpt lat="45.80295" lon="6.42433">
        <ele>2256</ele>
        <time>2018-10-17T11:38:00Z</time>
      </trkpt>
      <trkpt lat="45.80295" lon="6.42433">
        <ele>2256</ele>
        <time>2018-10-17T11:38:01Z</time>
      </trkpt>
      <trkpt lat="45.80295" lon="6.42433">
        <ele>2256</ele>
        <time>2018-10-17T11:38:02Z</time>
      </trkpt>
      <trkpt lat="45.80295" lon="6.42433">
        <ele>2257</ele>
        <time>2018-10-17T11:38:03Z</time>
      </trkpt>
      <trkpt lat="45.80295" lon="6.42431">
        <ele>2257</ele>
        <time>2018-10-17T11:38:04Z</time>
      </trkpt>
      <trkpt lat="45.80295" lon="6.42431">
        <ele>2257</ele>
        <time>2018-10-17T11:38:05Z</time>
      </trkpt>
      <trkpt lat="45.80295" lon="6.42431">
        <ele>2257</ele>
        <time>2018-10-17T11:38:06Z</time>
      </trkpt>
      <trkpt lat="45.80295" lon="6.42431">
        <ele>2257</ele>
        <time>2018-10-17T11:38:07Z</time>
      </trkpt>
      <trkpt lat="45.80295" lon="6.42431">
        <ele>2258</ele>
        <time>2018-10-17T11:38:08Z</time>
      </trkpt>
      <trkpt lat="45.80295" lon="6.42431">
        <ele>2258</ele>
        <time>2018-10-17T11:38:09Z</time>
      </trkpt>
      <trkpt lat="45.80295" lon="6.42431">
        <ele>2258</ele>
        <time>2018-10-17T11:38:10Z</time>
      </trkpt>
      <trkpt lat="45.80295" lon="6.42431">
        <ele>2258</ele>
        <time>2018-10-17T11:38:11Z</time>
      </trkpt>
      <trkpt lat="45.80295" lon="6.42431">
        <ele>2258</ele>
        <time>2018-10-17T11:38:12Z</time>
      </trkpt>
      <trkpt lat="45.80295" lon="6.42431">
        <ele>2258</ele>
        <time>2018-10-17T11:38:13Z</time>
      </trkpt>
      <trkpt lat="45.80295" lon="6.42431">
        <ele>2258</ele>
        <time>2018-10-17T11:38:14Z</time>
      </trkpt>
      <trkpt lat="45.80295" lon="6.42431">
        <ele>2258</ele>
        <time>2018-10-17T11:38:15Z</time>
      </trkpt>
      <trkpt lat="45.80295" lon="6.42431">
        <ele>2258</ele>
        <time>2018-10-17T11:38:16Z</time>
      </trkpt>
      <trkpt lat="45.80295" lon="6.42431">
        <ele>2258</ele>
        <time>2018-10-17T11:38:17Z</time>
      </trkpt>
      <trkpt lat="45.80295" lon="6.42431">
        <ele>2258</ele>
        <time>2018-10-17T11:38:18Z</time>
      </trkpt>
      <trkpt lat="45.80295" lon="6.42431">
        <ele>2258</ele>
        <time>2018-10-17T11:38:19Z</time>
      </trkpt>
      <trkpt lat="45.80295" lon="6.42431">
        <ele>2258</ele>
        <time>2018-10-17T11:38:20Z</time>
      </trkpt>
      <trkpt lat="45.80295" lon="6.42431">
        <ele>2258</ele>
        <time>2018-10-17T11:38:21Z</time>
      </trkpt>
      <trkpt lat="45.80295" lon="6.42431">
        <ele>2259</ele>
        <time>2018-10-17T11:38:22Z</time>
      </trkpt>
      <trkpt lat="45.80295" lon="6.42431">
        <ele>2259</ele>
        <time>2018-10-17T11:38:23Z</time>
      </trkpt>
      <trkpt lat="45.80294" lon="6.42428">
        <ele>2259</ele>
        <time>2018-10-17T11:38:24Z</time>
      </trkpt>
      <trkpt lat="45.80294" lon="6.42428">
        <ele>2260</ele>
        <time>2018-10-17T11:38:25Z</time>
      </trkpt>
      <trkpt lat="45.80294" lon="6.42428">
        <ele>2260</ele>
        <time>2018-10-17T11:38:26Z</time>
      </trkpt>
      <trkpt lat="45.80294" lon="6.42428">
        <ele>2260</ele>
        <time>2018-10-17T11:38:27Z</time>
      </trkpt>
      <trkpt lat="45.80294" lon="6.42428">
        <ele>2260</ele>
        <time>2018-10-17T11:38:28Z</time>
      </trkpt>
      <trkpt lat="45.80294" lon="6.42428">
        <ele>2260</ele>
        <time>2018-10-17T11:38:29Z</time>
      </trkpt>
      <trkpt lat="45.80294" lon="6.42428">
        <ele>2260</ele>
        <time>2018-10-17T11:38:30Z</time>
      </trkpt>
      <trkpt lat="45.80294" lon="6.42428">
        <ele>2260</ele>
        <time>2018-10-17T11:38:31Z</time>
      </trkpt>
      <trkpt lat="45.80294" lon="6.42428">
        <ele>2260</ele>
        <time>2018-10-17T11:38:32Z</time>
      </trkpt>
      <trkpt lat="45.80294" lon="6.42428">
        <ele>2260</ele>
        <time>2018-10-17T11:38:33Z</time>
      </trkpt>
      <trkpt lat="45.80294" lon="6.42428">
        <ele>2260</ele>
        <time>2018-10-17T11:38:34Z</time>
      </trkpt>
      <trkpt lat="45.80294" lon="6.42428">
        <ele>2261</ele>
        <time>2018-10-17T11:38:35Z</time>
      </trkpt>
      <trkpt lat="45.80294" lon="6.42428">
        <ele>2261</ele>
        <time>2018-10-17T11:38:36Z</time>
      </trkpt>
      <trkpt lat="45.80294" lon="6.42428">
        <ele>2261</ele>
        <time>2018-10-17T11:38:37Z</time>
      </trkpt>
      <trkpt lat="45.80294" lon="6.42428">
        <ele>2261</ele>
        <time>2018-10-17T11:38:38Z</time>
      </trkpt>
      <trkpt lat="45.80294" lon="6.42428">
        <ele>2262</ele>
        <time>2018-10-17T11:38:39Z</time>
      </trkpt>
      <trkpt lat="45.80294" lon="6.42428">
        <ele>2262</ele>
        <time>2018-10-17T11:38:40Z</time>
      </trkpt>
      <trkpt lat="45.80294" lon="6.42428">
        <ele>2262</ele>
        <time>2018-10-17T11:38:41Z</time>
      </trkpt>
      <trkpt lat="45.80294" lon="6.42428">
        <ele>2262</ele>
        <time>2018-10-17T11:38:42Z</time>
      </trkpt>
      <trkpt lat="45.80294" lon="6.42428">
        <ele>2262</ele>
        <time>2018-10-17T11:38:43Z</time>
      </trkpt>
      <trkpt lat="45.80293" lon="6.42425">
        <ele>2262</ele>
        <time>2018-10-17T11:38:44Z</time>
      </trkpt>
      <trkpt lat="45.80293" lon="6.42425">
        <ele>2262</ele>
        <time>2018-10-17T11:38:45Z</time>
      </trkpt>
      <trkpt lat="45.80293" lon="6.42425">
        <ele>2262</ele>
        <time>2018-10-17T11:38:46Z</time>
      </trkpt>
      <trkpt lat="45.80293" lon="6.42425">
        <ele>2262</ele>
        <time>2018-10-17T11:38:47Z</time>
      </trkpt>
      <trkpt lat="45.80293" lon="6.42425">
        <ele>2262</ele>
        <time>2018-10-17T11:38:48Z</time>
      </trkpt>
      <trkpt lat="45.80293" lon="6.42425">
        <ele>2262</ele>
        <time>2018-10-17T11:38:49Z</time>
      </trkpt>
      <trkpt lat="45.80293" lon="6.42423">
        <ele>2262</ele>
        <time>2018-10-17T11:38:50Z</time>
      </trkpt>
      <trkpt lat="45.80293" lon="6.42423">
        <ele>2262</ele>
        <time>2018-10-17T11:38:51Z</time>
      </trkpt>
      <trkpt lat="45.80293" lon="6.42423">
        <ele>2262</ele>
        <time>2018-10-17T11:38:52Z</time>
      </trkpt>
      <trkpt lat="45.80293" lon="6.42423">
        <ele>2262</ele>
        <time>2018-10-17T11:38:53Z</time>
      </trkpt>
      <trkpt lat="45.80293" lon="6.42423">
        <ele>2262</ele>
        <time>2018-10-17T11:38:54Z</time>
      </trkpt>
      <trkpt lat="45.80293" lon="6.42423">
        <ele>2262</ele>
        <time>2018-10-17T11:38:55Z</time>
      </trkpt>
      <trkpt lat="45.80293" lon="6.42423">
        <ele>2262</ele>
        <time>2018-10-17T11:38:56Z</time>
      </trkpt>
      <trkpt lat="45.80293" lon="6.42423">
        <ele>2262</ele>
        <time>2018-10-17T11:38:57Z</time>
      </trkpt>
      <trkpt lat="45.80293" lon="6.42423">
        <ele>2262</ele>
        <time>2018-10-17T11:38:58Z</time>
      </trkpt>
      <trkpt lat="45.80293" lon="6.42423">
        <ele>2262</ele>
        <time>2018-10-17T11:38:59Z</time>
      </trkpt>
      <trkpt lat="45.80293" lon="6.42423">
        <ele>2262</ele>
        <time>2018-10-17T11:39:00Z</time>
      </trkpt>
      <trkpt lat="45.80293" lon="6.42423">
        <ele>2262</ele>
        <time>2018-10-17T11:39:01Z</time>
      </trkpt>
      <trkpt lat="45.80293" lon="6.42423">
        <ele>2262</ele>
        <time>2018-10-17T11:39:02Z</time>
      </trkpt>
      <trkpt lat="45.80293" lon="6.42423">
        <ele>2262</ele>
        <time>2018-10-17T11:39:03Z</time>
      </trkpt>
      <trkpt lat="45.80293" lon="6.42423">
        <ele>2262</ele>
        <time>2018-10-17T11:39:04Z</time>
      </trkpt>
      <trkpt lat="45.80293" lon="6.42423">
        <ele>2262</ele>
        <time>2018-10-17T11:39:05Z</time>
      </trkpt>
      <trkpt lat="45.80293" lon="6.42423">
        <ele>2262</ele>
        <time>2018-10-17T11:39:06Z</time>
      </trkpt>
      <trkpt lat="45.80293" lon="6.42423">
        <ele>2262</ele>
        <time>2018-10-17T11:39:07Z</time>
      </trkpt>
      <trkpt lat="45.80293" lon="6.42423">
        <ele>2262</ele>
        <time>2018-10-17T11:39:08Z</time>
      </trkpt>
      <trkpt lat="45.80293" lon="6.42423">
        <ele>2262</ele>
        <time>2018-10-17T11:39:09Z</time>
      </trkpt>
      <trkpt lat="45.80293" lon="6.42423">
        <ele>2262</ele>
        <time>2018-10-17T11:39:10Z</time>
      </trkpt>
      <trkpt lat="45.80293" lon="6.42423">
        <ele>2262</ele>
        <time>2018-10-17T11:39:11Z</time>
      </trkpt>
      <trkpt lat="45.80293" lon="6.42423">
        <ele>2262</ele>
        <time>2018-10-17T11:39:12Z</time>
      </trkpt>
      <trkpt lat="45.80293" lon="6.42423">
        <ele>2262</ele>
        <time>2018-10-17T11:39:13Z</time>
      </trkpt>
      <trkpt lat="45.80293" lon="6.42423">
        <ele>2262</ele>
        <time>2018-10-17T11:39:14Z</time>
      </trkpt>
      <trkpt lat="45.80293" lon="6.42423">
        <ele>2262</ele>
        <time>2018-10-17T11:39:15Z</time>
      </trkpt>
      <trkpt lat="45.80293" lon="6.42423">
        <ele>2261</ele>
        <time>2018-10-17T11:39:16Z</time>
      </trkpt>
      <trkpt lat="45.80293" lon="6.42423">
        <ele>2261</ele>
        <time>2018-10-17T11:39:17Z</time>
      </trkpt>
      <trkpt lat="45.80293" lon="6.42423">
        <ele>2261</ele>
        <time>2018-10-17T11:39:18Z</time>
      </trkpt>
      <trkpt lat="45.80293" lon="6.42423">
        <ele>2261</ele>
        <time>2018-10-17T11:39:19Z</time>
      </trkpt>
      <trkpt lat="45.80293" lon="6.42423">
        <ele>2261</ele>
        <time>2018-10-17T11:39:20Z</time>
      </trkpt>
      <trkpt lat="45.80293" lon="6.42423">
        <ele>2261</ele>
        <time>2018-10-17T11:39:21Z</time>
      </trkpt>
      <trkpt lat="45.80293" lon="6.42423">
        <ele>2261</ele>
        <time>2018-10-17T11:39:22Z</time>
      </trkpt>
      <trkpt lat="45.80293" lon="6.42423">
        <ele>2261</ele>
        <time>2018-10-17T11:39:23Z</time>
      </trkpt>
      <trkpt lat="45.80293" lon="6.42423">
        <ele>2261</ele>
        <time>2018-10-17T11:39:24Z</time>
      </trkpt>
      <trkpt lat="45.80293" lon="6.42423">
        <ele>2261</ele>
        <time>2018-10-17T11:39:25Z</time>
      </trkpt>
      <trkpt lat="45.80293" lon="6.42423">
        <ele>2262</ele>
        <time>2018-10-17T11:39:26Z</time>
      </trkpt>
      <trkpt lat="45.80293" lon="6.42423">
        <ele>2262</ele>
        <time>2018-10-17T11:39:27Z</time>
      </trkpt>
      <trkpt lat="45.80293" lon="6.42423">
        <ele>2262</ele>
        <time>2018-10-17T11:39:28Z</time>
      </trkpt>
      <trkpt lat="45.80293" lon="6.42423">
        <ele>2262</ele>
        <time>2018-10-17T11:39:29Z</time>
      </trkpt>
      <trkpt lat="45.80293" lon="6.42423">
        <ele>2263</ele>
        <time>2018-10-17T11:39:30Z</time>
      </trkpt>
      <trkpt lat="45.80293" lon="6.42423">
        <ele>2263</ele>
        <time>2018-10-17T11:39:31Z</time>
      </trkpt>
      <trkpt lat="45.80293" lon="6.42423">
        <ele>2263</ele>
        <time>2018-10-17T11:39:32Z</time>
      </trkpt>
      <trkpt lat="45.80293" lon="6.42423">
        <ele>2263</ele>
        <time>2018-10-17T11:39:33Z</time>
      </trkpt>
      <trkpt lat="45.80293" lon="6.42423">
        <ele>2263</ele>
        <time>2018-10-17T11:39:34Z</time>
      </trkpt>
      <trkpt lat="45.80293" lon="6.42423">
        <ele>2263</ele>
        <time>2018-10-17T11:39:35Z</time>
      </trkpt>
      <trkpt lat="45.80293" lon="6.42423">
        <ele>2263</ele>
        <time>2018-10-17T11:39:36Z</time>
      </trkpt>
      <trkpt lat="45.80291" lon="6.42421">
        <ele>2263</ele>
        <time>2018-10-17T11:39:37Z</time>
      </trkpt>
      <trkpt lat="45.80291" lon="6.42421">
        <ele>2264</ele>
        <time>2018-10-17T11:39:38Z</time>
      </trkpt>
      <trkpt lat="45.80291" lon="6.42421">
        <ele>2264</ele>
        <time>2018-10-17T11:39:39Z</time>
      </trkpt>
      <trkpt lat="45.8029" lon="6.42419">
        <ele>2264</ele>
        <time>2018-10-17T11:39:40Z</time>
      </trkpt>
      <trkpt lat="45.8029" lon="6.42419">
        <ele>2264</ele>
        <time>2018-10-17T11:39:41Z</time>
      </trkpt>
      <trkpt lat="45.8029" lon="6.42419">
        <ele>2264</ele>
        <time>2018-10-17T11:39:42Z</time>
      </trkpt>
      <trkpt lat="45.8029" lon="6.42419">
        <ele>2264</ele>
        <time>2018-10-17T11:39:43Z</time>
      </trkpt>
      <trkpt lat="45.8029" lon="6.42419">
        <ele>2264</ele>
        <time>2018-10-17T11:39:44Z</time>
      </trkpt>
      <trkpt lat="45.8029" lon="6.42419">
        <ele>2265</ele>
        <time>2018-10-17T11:39:45Z</time>
      </trkpt>
      <trkpt lat="45.8029" lon="6.42419">
        <ele>2265</ele>
        <time>2018-10-17T11:39:46Z</time>
      </trkpt>
      <trkpt lat="45.80289" lon="6.42417">
        <ele>2265</ele>
        <time>2018-10-17T11:39:47Z</time>
      </trkpt>
      <trkpt lat="45.80289" lon="6.42417">
        <ele>2265</ele>
        <time>2018-10-17T11:39:48Z</time>
      </trkpt>
      <trkpt lat="45.80289" lon="6.42417">
        <ele>2265</ele>
        <time>2018-10-17T11:39:49Z</time>
      </trkpt>
      <trkpt lat="45.80289" lon="6.42417">
        <ele>2265</ele>
        <time>2018-10-17T11:39:50Z</time>
      </trkpt>
      <trkpt lat="45.80289" lon="6.42417">
        <ele>2265</ele>
        <time>2018-10-17T11:39:51Z</time>
      </trkpt>
      <trkpt lat="45.80289" lon="6.42417">
        <ele>2266</ele>
        <time>2018-10-17T11:39:52Z</time>
      </trkpt>
      <trkpt lat="45.80289" lon="6.42417">
        <ele>2266</ele>
        <time>2018-10-17T11:39:53Z</time>
      </trkpt>
      <trkpt lat="45.80289" lon="6.42417">
        <ele>2266</ele>
        <time>2018-10-17T11:39:54Z</time>
      </trkpt>
      <trkpt lat="45.80289" lon="6.42417">
        <ele>2266</ele>
        <time>2018-10-17T11:39:55Z</time>
      </trkpt>
      <trkpt lat="45.80289" lon="6.42417">
        <ele>2266</ele>
        <time>2018-10-17T11:39:56Z</time>
      </trkpt>
      <trkpt lat="45.80289" lon="6.42417">
        <ele>2266</ele>
        <time>2018-10-17T11:39:57Z</time>
      </trkpt>
      <trkpt lat="45.80289" lon="6.42417">
        <ele>2266</ele>
        <time>2018-10-17T11:39:58Z</time>
      </trkpt>
      <trkpt lat="45.80287" lon="6.42415">
        <ele>2266</ele>
        <time>2018-10-17T11:39:59Z</time>
      </trkpt>
      <trkpt lat="45.80287" lon="6.42415">
        <ele>2266</ele>
        <time>2018-10-17T11:40:00Z</time>
      </trkpt>
      <trkpt lat="45.80287" lon="6.42415">
        <ele>2266</ele>
        <time>2018-10-17T11:40:01Z</time>
      </trkpt>
      <trkpt lat="45.80287" lon="6.42415">
        <ele>2267</ele>
        <time>2018-10-17T11:40:02Z</time>
      </trkpt>
      <trkpt lat="45.80287" lon="6.42415">
        <ele>2267</ele>
        <time>2018-10-17T11:40:03Z</time>
      </trkpt>
      <trkpt lat="45.80287" lon="6.42415">
        <ele>2267</ele>
        <time>2018-10-17T11:40:04Z</time>
      </trkpt>
      <trkpt lat="45.80287" lon="6.42415">
        <ele>2267</ele>
        <time>2018-10-17T11:40:05Z</time>
      </trkpt>
      <trkpt lat="45.80287" lon="6.42415">
        <ele>2267</ele>
        <time>2018-10-17T11:40:06Z</time>
      </trkpt>
      <trkpt lat="45.80287" lon="6.42415">
        <ele>2268</ele>
        <time>2018-10-17T11:40:07Z</time>
      </trkpt>
      <trkpt lat="45.80287" lon="6.42415">
        <ele>2268</ele>
        <time>2018-10-17T11:40:08Z</time>
      </trkpt>
      <trkpt lat="45.80287" lon="6.42415">
        <ele>2268</ele>
        <time>2018-10-17T11:40:09Z</time>
      </trkpt>
      <trkpt lat="45.80285" lon="6.42414">
        <ele>2268</ele>
        <time>2018-10-17T11:40:10Z</time>
      </trkpt>
      <trkpt lat="45.80285" lon="6.42414">
        <ele>2268</ele>
        <time>2018-10-17T11:40:11Z</time>
      </trkpt>
      <trkpt lat="45.80285" lon="6.42414">
        <ele>2268</ele>
        <time>2018-10-17T11:40:12Z</time>
      </trkpt>
      <trkpt lat="45.80285" lon="6.42414">
        <ele>2268</ele>
        <time>2018-10-17T11:40:13Z</time>
      </trkpt>
      <trkpt lat="45.80285" lon="6.42414">
        <ele>2268</ele>
        <time>2018-10-17T11:40:14Z</time>
      </trkpt>
      <trkpt lat="45.80285" lon="6.42414">
        <ele>2268</ele>
        <time>2018-10-17T11:40:15Z</time>
      </trkpt>
      <trkpt lat="45.80285" lon="6.42414">
        <ele>2268</ele>
        <time>2018-10-17T11:40:16Z</time>
      </trkpt>
      <trkpt lat="45.80285" lon="6.42414">
        <ele>2268</ele>
        <time>2018-10-17T11:40:17Z</time>
      </trkpt>
      <trkpt lat="45.80285" lon="6.42414">
        <ele>2269</ele>
        <time>2018-10-17T11:40:18Z</time>
      </trkpt>
      <trkpt lat="45.80285" lon="6.42414">
        <ele>2269</ele>
        <time>2018-10-17T11:40:19Z</time>
      </trkpt>
      <trkpt lat="45.80285" lon="6.42414">
        <ele>2269</ele>
        <time>2018-10-17T11:40:20Z</time>
      </trkpt>
      <trkpt lat="45.80285" lon="6.42414">
        <ele>2269</ele>
        <time>2018-10-17T11:40:21Z</time>
      </trkpt>
      <trkpt lat="45.80285" lon="6.42414">
        <ele>2269</ele>
        <time>2018-10-17T11:40:22Z</time>
      </trkpt>
      <trkpt lat="45.80285" lon="6.42414">
        <ele>2269</ele>
        <time>2018-10-17T11:40:23Z</time>
      </trkpt>
      <trkpt lat="45.80285" lon="6.42414">
        <ele>2269</ele>
        <time>2018-10-17T11:40:24Z</time>
      </trkpt>
      <trkpt lat="45.80285" lon="6.42414">
        <ele>2270</ele>
        <time>2018-10-17T11:40:25Z</time>
      </trkpt>
      <trkpt lat="45.80285" lon="6.42414">
        <ele>2270</ele>
        <time>2018-10-17T11:40:26Z</time>
      </trkpt>
      <trkpt lat="45.80285" lon="6.42414">
        <ele>2270</ele>
        <time>2018-10-17T11:40:27Z</time>
      </trkpt>
      <trkpt lat="45.80285" lon="6.42414">
        <ele>2270</ele>
        <time>2018-10-17T11:40:28Z</time>
      </trkpt>
      <trkpt lat="45.80285" lon="6.42414">
        <ele>2270</ele>
        <time>2018-10-17T11:40:29Z</time>
      </trkpt>
      <trkpt lat="45.80285" lon="6.42414">
        <ele>2271</ele>
        <time>2018-10-17T11:40:30Z</time>
      </trkpt>
      <trkpt lat="45.80285" lon="6.42414">
        <ele>2271</ele>
        <time>2018-10-17T11:40:31Z</time>
      </trkpt>
      <trkpt lat="45.80285" lon="6.42414">
        <ele>2271</ele>
        <time>2018-10-17T11:40:32Z</time>
      </trkpt>
      <trkpt lat="45.80285" lon="6.42414">
        <ele>2271</ele>
        <time>2018-10-17T11:40:33Z</time>
      </trkpt>
      <trkpt lat="45.80285" lon="6.42412">
        <ele>2271</ele>
        <time>2018-10-17T11:40:34Z</time>
      </trkpt>
      <trkpt lat="45.80285" lon="6.42412">
        <ele>2271</ele>
        <time>2018-10-17T11:40:35Z</time>
      </trkpt>
      <trkpt lat="45.80285" lon="6.42412">
        <ele>2271</ele>
        <time>2018-10-17T11:40:36Z</time>
      </trkpt>
      <trkpt lat="45.80285" lon="6.42412">
        <ele>2271</ele>
        <time>2018-10-17T11:40:37Z</time>
      </trkpt>
      <trkpt lat="45.80285" lon="6.42412">
        <ele>2271</ele>
        <time>2018-10-17T11:40:38Z</time>
      </trkpt>
      <trkpt lat="45.80285" lon="6.42412">
        <ele>2272</ele>
        <time>2018-10-17T11:40:39Z</time>
      </trkpt>
      <trkpt lat="45.80285" lon="6.42412">
        <ele>2272</ele>
        <time>2018-10-17T11:40:40Z</time>
      </trkpt>
      <trkpt lat="45.80285" lon="6.42412">
        <ele>2272</ele>
        <time>2018-10-17T11:40:41Z</time>
      </trkpt>
      <trkpt lat="45.80284" lon="6.42409">
        <ele>2272</ele>
        <time>2018-10-17T11:40:42Z</time>
      </trkpt>
      <trkpt lat="45.80284" lon="6.42409">
        <ele>2272</ele>
        <time>2018-10-17T11:40:43Z</time>
      </trkpt>
      <trkpt lat="45.80284" lon="6.42409">
        <ele>2273</ele>
        <time>2018-10-17T11:40:44Z</time>
      </trkpt>
      <trkpt lat="45.80284" lon="6.42409">
        <ele>2273</ele>
        <time>2018-10-17T11:40:45Z</time>
      </trkpt>
      <trkpt lat="45.80284" lon="6.42409">
        <ele>2273</ele>
        <time>2018-10-17T11:40:46Z</time>
      </trkpt>
      <trkpt lat="45.80284" lon="6.42409">
        <ele>2273</ele>
        <time>2018-10-17T11:40:47Z</time>
      </trkpt>
      <trkpt lat="45.80284" lon="6.42409">
        <ele>2273</ele>
        <time>2018-10-17T11:40:48Z</time>
      </trkpt>
      <trkpt lat="45.80284" lon="6.42409">
        <ele>2273</ele>
        <time>2018-10-17T11:40:49Z</time>
      </trkpt>
      <trkpt lat="45.80284" lon="6.42409">
        <ele>2273</ele>
        <time>2018-10-17T11:40:50Z</time>
      </trkpt>
      <trkpt lat="45.80284" lon="6.42409">
        <ele>2273</ele>
        <time>2018-10-17T11:40:51Z</time>
      </trkpt>
      <trkpt lat="45.80284" lon="6.42409">
        <ele>2274</ele>
        <time>2018-10-17T11:40:52Z</time>
      </trkpt>
      <trkpt lat="45.80284" lon="6.42409">
        <ele>2274</ele>
        <time>2018-10-17T11:40:53Z</time>
      </trkpt>
      <trkpt lat="45.80284" lon="6.42409">
        <ele>2274</ele>
        <time>2018-10-17T11:40:54Z</time>
      </trkpt>
      <trkpt lat="45.80284" lon="6.42409">
        <ele>2274</ele>
        <time>2018-10-17T11:40:55Z</time>
      </trkpt>
      <trkpt lat="45.80284" lon="6.42409">
        <ele>2274</ele>
        <time>2018-10-17T11:40:56Z</time>
      </trkpt>
      <trkpt lat="45.80284" lon="6.42409">
        <ele>2274</ele>
        <time>2018-10-17T11:40:57Z</time>
      </trkpt>
      <trkpt lat="45.80284" lon="6.42409">
        <ele>2274</ele>
        <time>2018-10-17T11:40:58Z</time>
      </trkpt>
      <trkpt lat="45.80284" lon="6.42409">
        <ele>2274</ele>
        <time>2018-10-17T11:40:59Z</time>
      </trkpt>
      <trkpt lat="45.80284" lon="6.42409">
        <ele>2274</ele>
        <time>2018-10-17T11:41:00Z</time>
      </trkpt>
      <trkpt lat="45.80284" lon="6.42409">
        <ele>2274</ele>
        <time>2018-10-17T11:41:01Z</time>
      </trkpt>
      <trkpt lat="45.80284" lon="6.42409">
        <ele>2274</ele>
        <time>2018-10-17T11:41:02Z</time>
      </trkpt>
      <trkpt lat="45.80284" lon="6.42409">
        <ele>2274</ele>
        <time>2018-10-17T11:41:03Z</time>
      </trkpt>
      <trkpt lat="45.80284" lon="6.42409">
        <ele>2274</ele>
        <time>2018-10-17T11:41:04Z</time>
      </trkpt>
      <trkpt lat="45.80284" lon="6.42409">
        <ele>2274</ele>
        <time>2018-10-17T11:41:05Z</time>
      </trkpt>
      <trkpt lat="45.80284" lon="6.42409">
        <ele>2274</ele>
        <time>2018-10-17T11:41:06Z</time>
      </trkpt>
      <trkpt lat="45.80284" lon="6.42409">
        <ele>2274</ele>
        <time>2018-10-17T11:41:07Z</time>
      </trkpt>
      <trkpt lat="45.80282" lon="6.42408">
        <ele>2275</ele>
        <time>2018-10-17T11:41:08Z</time>
      </trkpt>
      <trkpt lat="45.80282" lon="6.42408">
        <ele>2275</ele>
        <time>2018-10-17T11:41:09Z</time>
      </trkpt>
      <trkpt lat="45.80282" lon="6.42408">
        <ele>2275</ele>
        <time>2018-10-17T11:41:10Z</time>
      </trkpt>
      <trkpt lat="45.80282" lon="6.42408">
        <ele>2275</ele>
        <time>2018-10-17T11:41:11Z</time>
      </trkpt>
      <trkpt lat="45.80282" lon="6.42408">
        <ele>2275</ele>
        <time>2018-10-17T11:41:12Z</time>
      </trkpt>
      <trkpt lat="45.80282" lon="6.42408">
        <ele>2275</ele>
        <time>2018-10-17T11:41:13Z</time>
      </trkpt>
      <trkpt lat="45.80282" lon="6.42408">
        <ele>2276</ele>
        <time>2018-10-17T11:41:14Z</time>
      </trkpt>
      <trkpt lat="45.80282" lon="6.42408">
        <ele>2276</ele>
        <time>2018-10-17T11:41:15Z</time>
      </trkpt>
      <trkpt lat="45.80282" lon="6.42408">
        <ele>2276</ele>
        <time>2018-10-17T11:41:16Z</time>
      </trkpt>
      <trkpt lat="45.80282" lon="6.42408">
        <ele>2277</ele>
        <time>2018-10-17T11:41:17Z</time>
      </trkpt>
      <trkpt lat="45.80281" lon="6.42405">
        <ele>2277</ele>
        <time>2018-10-17T11:41:18Z</time>
      </trkpt>
      <trkpt lat="45.80281" lon="6.42405">
        <ele>2277</ele>
        <time>2018-10-17T11:41:19Z</time>
      </trkpt>
      <trkpt lat="45.80281" lon="6.42405">
        <ele>2277</ele>
        <time>2018-10-17T11:41:20Z</time>
      </trkpt>
      <trkpt lat="45.80281" lon="6.42405">
        <ele>2277</ele>
        <time>2018-10-17T11:41:21Z</time>
      </trkpt>
      <trkpt lat="45.80281" lon="6.42405">
        <ele>2277</ele>
        <time>2018-10-17T11:41:22Z</time>
      </trkpt>
      <trkpt lat="45.80281" lon="6.42405">
        <ele>2277</ele>
        <time>2018-10-17T11:41:23Z</time>
      </trkpt>
      <trkpt lat="45.80281" lon="6.42405">
        <ele>2277</ele>
        <time>2018-10-17T11:41:24Z</time>
      </trkpt>
      <trkpt lat="45.80281" lon="6.42402">
        <ele>2278</ele>
        <time>2018-10-17T11:41:25Z</time>
      </trkpt>
      <trkpt lat="45.80281" lon="6.42402">
        <ele>2279</ele>
        <time>2018-10-17T11:41:26Z</time>
      </trkpt>
      <trkpt lat="45.80281" lon="6.42402">
        <ele>2279</ele>
        <time>2018-10-17T11:41:27Z</time>
      </trkpt>
      <trkpt lat="45.80281" lon="6.42402">
        <ele>2279</ele>
        <time>2018-10-17T11:41:28Z</time>
      </trkpt>
      <trkpt lat="45.80281" lon="6.42402">
        <ele>2279</ele>
        <time>2018-10-17T11:41:29Z</time>
      </trkpt>
      <trkpt lat="45.80281" lon="6.42402">
        <ele>2280</ele>
        <time>2018-10-17T11:41:30Z</time>
      </trkpt>
      <trkpt lat="45.80281" lon="6.42402">
        <ele>2280</ele>
        <time>2018-10-17T11:41:31Z</time>
      </trkpt>
      <trkpt lat="45.80281" lon="6.42402">
        <ele>2280</ele>
        <time>2018-10-17T11:41:32Z</time>
      </trkpt>
      <trkpt lat="45.80279" lon="6.42402">
        <ele>2280</ele>
        <time>2018-10-17T11:41:33Z</time>
      </trkpt>
      <trkpt lat="45.80279" lon="6.42402">
        <ele>2280</ele>
        <time>2018-10-17T11:41:34Z</time>
      </trkpt>
      <trkpt lat="45.80279" lon="6.42402">
        <ele>2280</ele>
        <time>2018-10-17T11:41:35Z</time>
      </trkpt>
      <trkpt lat="45.80279" lon="6.42402">
        <ele>2280</ele>
        <time>2018-10-17T11:41:36Z</time>
      </trkpt>
      <trkpt lat="45.80277" lon="6.42401">
        <ele>2280</ele>
        <time>2018-10-17T11:41:37Z</time>
      </trkpt>
      <trkpt lat="45.80277" lon="6.42401">
        <ele>2281</ele>
        <time>2018-10-17T11:41:38Z</time>
      </trkpt>
      <trkpt lat="45.80277" lon="6.42401">
        <ele>2281</ele>
        <time>2018-10-17T11:41:39Z</time>
      </trkpt>
      <trkpt lat="45.80275" lon="6.42401">
        <ele>2281</ele>
        <time>2018-10-17T11:41:40Z</time>
      </trkpt>
      <trkpt lat="45.80275" lon="6.42401">
        <ele>2281</ele>
        <time>2018-10-17T11:41:41Z</time>
      </trkpt>
      <trkpt lat="45.80275" lon="6.42401">
        <ele>2282</ele>
        <time>2018-10-17T11:41:42Z</time>
      </trkpt>
      <trkpt lat="45.80275" lon="6.42401">
        <ele>2282</ele>
        <time>2018-10-17T11:41:43Z</time>
      </trkpt>
      <trkpt lat="45.80273" lon="6.42399">
        <ele>2282</ele>
        <time>2018-10-17T11:41:44Z</time>
      </trkpt>
      <trkpt lat="45.80273" lon="6.42399">
        <ele>2282</ele>
        <time>2018-10-17T11:41:45Z</time>
      </trkpt>
      <trkpt lat="45.80273" lon="6.42399">
        <ele>2282</ele>
        <time>2018-10-17T11:41:46Z</time>
      </trkpt>
      <trkpt lat="45.80272" lon="6.42397">
        <ele>2282</ele>
        <time>2018-10-17T11:41:47Z</time>
      </trkpt>
      <trkpt lat="45.80272" lon="6.42397">
        <ele>2283</ele>
        <time>2018-10-17T11:41:48Z</time>
      </trkpt>
      <trkpt lat="45.80272" lon="6.42397">
        <ele>2283</ele>
        <time>2018-10-17T11:41:49Z</time>
      </trkpt>
      <trkpt lat="45.80271" lon="6.42395">
        <ele>2283</ele>
        <time>2018-10-17T11:41:50Z</time>
      </trkpt>
      <trkpt lat="45.80271" lon="6.42395">
        <ele>2283</ele>
        <time>2018-10-17T11:41:51Z</time>
      </trkpt>
      <trkpt lat="45.80271" lon="6.42395">
        <ele>2283</ele>
        <time>2018-10-17T11:41:52Z</time>
      </trkpt>
      <trkpt lat="45.8027" lon="6.42392">
        <ele>2283</ele>
        <time>2018-10-17T11:41:53Z</time>
      </trkpt>
      <trkpt lat="45.8027" lon="6.42392">
        <ele>2283</ele>
        <time>2018-10-17T11:41:54Z</time>
      </trkpt>
      <trkpt lat="45.8027" lon="6.42392">
        <ele>2283</ele>
        <time>2018-10-17T11:41:55Z</time>
      </trkpt>
      <trkpt lat="45.8027" lon="6.42392">
        <ele>2283</ele>
        <time>2018-10-17T11:41:56Z</time>
      </trkpt>
      <trkpt lat="45.8027" lon="6.42392">
        <ele>2283</ele>
        <time>2018-10-17T11:41:57Z</time>
      </trkpt>
      <trkpt lat="45.8027" lon="6.42392">
        <ele>2283</ele>
        <time>2018-10-17T11:41:58Z</time>
      </trkpt>
      <trkpt lat="45.8027" lon="6.42392">
        <ele>2283</ele>
        <time>2018-10-17T11:41:59Z</time>
      </trkpt>
      <trkpt lat="45.8027" lon="6.42392">
        <ele>2283</ele>
        <time>2018-10-17T11:42:00Z</time>
      </trkpt>
      <trkpt lat="45.8027" lon="6.42392">
        <ele>2283</ele>
        <time>2018-10-17T11:42:01Z</time>
      </trkpt>
      <trkpt lat="45.8027" lon="6.42392">
        <ele>2283</ele>
        <time>2018-10-17T11:42:02Z</time>
      </trkpt>
      <trkpt lat="45.8027" lon="6.42392">
        <ele>2284</ele>
        <time>2018-10-17T11:42:03Z</time>
      </trkpt>
      <trkpt lat="45.8027" lon="6.42392">
        <ele>2284</ele>
        <time>2018-10-17T11:42:04Z</time>
      </trkpt>
      <trkpt lat="45.8027" lon="6.42392">
        <ele>2284</ele>
        <time>2018-10-17T11:42:05Z</time>
      </trkpt>
      <trkpt lat="45.8027" lon="6.42392">
        <ele>2284</ele>
        <time>2018-10-17T11:42:06Z</time>
      </trkpt>
      <trkpt lat="45.8027" lon="6.42392">
        <ele>2284</ele>
        <time>2018-10-17T11:42:07Z</time>
      </trkpt>
      <trkpt lat="45.8027" lon="6.42392">
        <ele>2284</ele>
        <time>2018-10-17T11:42:08Z</time>
      </trkpt>
      <trkpt lat="45.8027" lon="6.42392">
        <ele>2284</ele>
        <time>2018-10-17T11:42:09Z</time>
      </trkpt>
      <trkpt lat="45.8027" lon="6.42392">
        <ele>2284</ele>
        <time>2018-10-17T11:42:10Z</time>
      </trkpt>
      <trkpt lat="45.8027" lon="6.42392">
        <ele>2284</ele>
        <time>2018-10-17T11:42:11Z</time>
      </trkpt>
      <trkpt lat="45.8027" lon="6.42392">
        <ele>2284</ele>
        <time>2018-10-17T11:42:12Z</time>
      </trkpt>
      <trkpt lat="45.8027" lon="6.42392">
        <ele>2284</ele>
        <time>2018-10-17T11:42:13Z</time>
      </trkpt>
      <trkpt lat="45.8027" lon="6.42392">
        <ele>2284</ele>
        <time>2018-10-17T11:42:14Z</time>
      </trkpt>
      <trkpt lat="45.8027" lon="6.42392">
        <ele>2283</ele>
        <time>2018-10-17T11:42:15Z</time>
      </trkpt>
      <trkpt lat="45.8027" lon="6.42392">
        <ele>2283</ele>
        <time>2018-10-17T11:42:16Z</time>
      </trkpt>
      <trkpt lat="45.8027" lon="6.42392">
        <ele>2283</ele>
        <time>2018-10-17T11:42:17Z</time>
      </trkpt>
      <trkpt lat="45.8027" lon="6.42392">
        <ele>2283</ele>
        <time>2018-10-17T11:42:18Z</time>
      </trkpt>
      <trkpt lat="45.8027" lon="6.42392">
        <ele>2283</ele>
        <time>2018-10-17T11:42:19Z</time>
      </trkpt>
      <trkpt lat="45.8027" lon="6.42392">
        <ele>2283</ele>
        <time>2018-10-17T11:42:20Z</time>
      </trkpt>
      <trkpt lat="45.8027" lon="6.42392">
        <ele>2283</ele>
        <time>2018-10-17T11:42:21Z</time>
      </trkpt>
      <trkpt lat="45.8027" lon="6.42392">
        <ele>2283</ele>
        <time>2018-10-17T11:42:22Z</time>
      </trkpt>
      <trkpt lat="45.8027" lon="6.42392">
        <ele>2283</ele>
        <time>2018-10-17T11:42:23Z</time>
      </trkpt>
      <trkpt lat="45.8027" lon="6.42392">
        <ele>2283</ele>
        <time>2018-10-17T11:42:24Z</time>
      </trkpt>
      <trkpt lat="45.8027" lon="6.42392">
        <ele>2283</ele>
        <time>2018-10-17T11:42:25Z</time>
      </trkpt>
      <trkpt lat="45.8027" lon="6.42392">
        <ele>2283</ele>
        <time>2018-10-17T11:42:26Z</time>
      </trkpt>
      <trkpt lat="45.8027" lon="6.42392">
        <ele>2283</ele>
        <time>2018-10-17T11:42:27Z</time>
      </trkpt>
      <trkpt lat="45.8027" lon="6.42392">
        <ele>2283</ele>
        <time>2018-10-17T11:42:28Z</time>
      </trkpt>
      <trkpt lat="45.8027" lon="6.42392">
        <ele>2283</ele>
        <time>2018-10-17T11:42:29Z</time>
      </trkpt>
      <trkpt lat="45.8027" lon="6.42392">
        <ele>2283</ele>
        <time>2018-10-17T11:42:30Z</time>
      </trkpt>
      <trkpt lat="45.8027" lon="6.42392">
        <ele>2283</ele>
        <time>2018-10-17T11:42:31Z</time>
      </trkpt>
      <trkpt lat="45.8027" lon="6.42392">
        <ele>2283</ele>
        <time>2018-10-17T11:42:32Z</time>
      </trkpt>
      <trkpt lat="45.8027" lon="6.42392">
        <ele>2283</ele>
        <time>2018-10-17T11:42:33Z</time>
      </trkpt>
      <trkpt lat="45.8027" lon="6.42392">
        <ele>2283</ele>
        <time>2018-10-17T11:42:34Z</time>
      </trkpt>
      <trkpt lat="45.8027" lon="6.42392">
        <ele>2283</ele>
        <time>2018-10-17T11:42:35Z</time>
      </trkpt>
      <trkpt lat="45.8027" lon="6.42392">
        <ele>2283</ele>
        <time>2018-10-17T11:42:36Z</time>
      </trkpt>
      <trkpt lat="45.8027" lon="6.42392">
        <ele>2284</ele>
        <time>2018-10-17T11:42:37Z</time>
      </trkpt>
      <trkpt lat="45.8027" lon="6.42392">
        <ele>2284</ele>
        <time>2018-10-17T11:42:38Z</time>
      </trkpt>
      <trkpt lat="45.8027" lon="6.42392">
        <ele>2284</ele>
        <time>2018-10-17T11:42:39Z</time>
      </trkpt>
      <trkpt lat="45.8027" lon="6.42392">
        <ele>2285</ele>
        <time>2018-10-17T11:42:40Z</time>
      </trkpt>
      <trkpt lat="45.8027" lon="6.42392">
        <ele>2285</ele>
        <time>2018-10-17T11:42:41Z</time>
      </trkpt>
      <trkpt lat="45.8027" lon="6.42392">
        <ele>2285</ele>
        <time>2018-10-17T11:42:42Z</time>
      </trkpt>
      <trkpt lat="45.8027" lon="6.42392">
        <ele>2285</ele>
        <time>2018-10-17T11:42:43Z</time>
      </trkpt>
      <trkpt lat="45.80269" lon="6.4239">
        <ele>2286</ele>
        <time>2018-10-17T11:42:44Z</time>
      </trkpt>
      <trkpt lat="45.80269" lon="6.4239">
        <ele>2287</ele>
        <time>2018-10-17T11:42:45Z</time>
      </trkpt>
      <trkpt lat="45.80267" lon="6.42388">
        <ele>2287</ele>
        <time>2018-10-17T11:42:46Z</time>
      </trkpt>
      <trkpt lat="45.80267" lon="6.42388">
        <ele>2287</ele>
        <time>2018-10-17T11:42:47Z</time>
      </trkpt>
      <trkpt lat="45.80266" lon="6.42386">
        <ele>2287</ele>
        <time>2018-10-17T11:42:48Z</time>
      </trkpt>
      <trkpt lat="45.80266" lon="6.42386">
        <ele>2287</ele>
        <time>2018-10-17T11:42:49Z</time>
      </trkpt>
      <trkpt lat="45.80264" lon="6.42383">
        <ele>2287</ele>
        <time>2018-10-17T11:42:50Z</time>
      </trkpt>
      <trkpt lat="45.80264" lon="6.42383">
        <ele>2287</ele>
        <time>2018-10-17T11:42:51Z</time>
      </trkpt>
      <trkpt lat="45.80262" lon="6.42379">
        <ele>2287</ele>
        <time>2018-10-17T11:42:52Z</time>
      </trkpt>
      <trkpt lat="45.80262" lon="6.42379">
        <ele>2287</ele>
        <time>2018-10-17T11:42:53Z</time>
      </trkpt>
      <trkpt lat="45.80261" lon="6.42376">
        <ele>2287</ele>
        <time>2018-10-17T11:42:54Z</time>
      </trkpt>
      <trkpt lat="45.80261" lon="6.42376">
        <ele>2287</ele>
        <time>2018-10-17T11:42:55Z</time>
      </trkpt>
      <trkpt lat="45.80259" lon="6.42373">
        <ele>2287</ele>
        <time>2018-10-17T11:42:56Z</time>
      </trkpt>
      <trkpt lat="45.80259" lon="6.42373">
        <ele>2287</ele>
        <time>2018-10-17T11:42:57Z</time>
      </trkpt>
      <trkpt lat="45.80257" lon="6.42371">
        <ele>2288</ele>
        <time>2018-10-17T11:42:58Z</time>
      </trkpt>
      <trkpt lat="45.80257" lon="6.42371">
        <ele>2288</ele>
        <time>2018-10-17T11:42:59Z</time>
      </trkpt>
      <trkpt lat="45.80255" lon="6.42369">
        <ele>2288</ele>
        <time>2018-10-17T11:43:00Z</time>
      </trkpt>
      <trkpt lat="45.80255" lon="6.42369">
        <ele>2288</ele>
        <time>2018-10-17T11:43:01Z</time>
      </trkpt>
      <trkpt lat="45.80253" lon="6.42368">
        <ele>2288</ele>
        <time>2018-10-17T11:43:02Z</time>
      </trkpt>
      <trkpt lat="45.80253" lon="6.42368">
        <ele>2289</ele>
        <time>2018-10-17T11:43:03Z</time>
      </trkpt>
      <trkpt lat="45.80251" lon="6.42366">
        <ele>2289</ele>
        <time>2018-10-17T11:43:04Z</time>
      </trkpt>
      <trkpt lat="45.80251" lon="6.42366">
        <ele>2289</ele>
        <time>2018-10-17T11:43:05Z</time>
      </trkpt>
      <trkpt lat="45.80251" lon="6.42366">
        <ele>2289</ele>
        <time>2018-10-17T11:43:06Z</time>
      </trkpt>
      <trkpt lat="45.8025" lon="6.42363">
        <ele>2289</ele>
        <time>2018-10-17T11:43:07Z</time>
      </trkpt>
      <trkpt lat="45.8025" lon="6.42363">
        <ele>2289</ele>
        <time>2018-10-17T11:43:08Z</time>
      </trkpt>
      <trkpt lat="45.8025" lon="6.42363">
        <ele>2290</ele>
        <time>2018-10-17T11:43:09Z</time>
      </trkpt>
      <trkpt lat="45.8025" lon="6.42363">
        <ele>2290</ele>
        <time>2018-10-17T11:43:10Z</time>
      </trkpt>
      <trkpt lat="45.80248" lon="6.42363">
        <ele>2291</ele>
        <time>2018-10-17T11:43:11Z</time>
      </trkpt>
      <trkpt lat="45.80248" lon="6.42363">
        <ele>2291</ele>
        <time>2018-10-17T11:43:12Z</time>
      </trkpt>
      <trkpt lat="45.80248" lon="6.42363">
        <ele>2291</ele>
        <time>2018-10-17T11:43:13Z</time>
      </trkpt>
      <trkpt lat="45.80248" lon="6.42363">
        <ele>2291</ele>
        <time>2018-10-17T11:43:14Z</time>
      </trkpt>
      <trkpt lat="45.80246" lon="6.42361">
        <ele>2292</ele>
        <time>2018-10-17T11:43:15Z</time>
      </trkpt>
      <trkpt lat="45.80246" lon="6.42361">
        <ele>2293</ele>
        <time>2018-10-17T11:43:16Z</time>
      </trkpt>
      <trkpt lat="45.80246" lon="6.42361">
        <ele>2293</ele>
        <time>2018-10-17T11:43:17Z</time>
      </trkpt>
      <trkpt lat="45.80246" lon="6.42361">
        <ele>2293</ele>
        <time>2018-10-17T11:43:18Z</time>
      </trkpt>
      <trkpt lat="45.80245" lon="6.42359">
        <ele>2294</ele>
        <time>2018-10-17T11:43:19Z</time>
      </trkpt>
      <trkpt lat="45.80245" lon="6.42359">
        <ele>2294</ele>
        <time>2018-10-17T11:43:20Z</time>
      </trkpt>
      <trkpt lat="45.80245" lon="6.42359">
        <ele>2294</ele>
        <time>2018-10-17T11:43:21Z</time>
      </trkpt>
      <trkpt lat="45.80245" lon="6.42359">
        <ele>2294</ele>
        <time>2018-10-17T11:43:22Z</time>
      </trkpt>
      <trkpt lat="45.80242" lon="6.42358">
        <ele>2295</ele>
        <time>2018-10-17T11:43:23Z</time>
      </trkpt>
      <trkpt lat="45.80242" lon="6.42358">
        <ele>2295</ele>
        <time>2018-10-17T11:43:24Z</time>
      </trkpt>
      <trkpt lat="45.80242" lon="6.42358">
        <ele>2295</ele>
        <time>2018-10-17T11:43:25Z</time>
      </trkpt>
      <trkpt lat="45.80242" lon="6.42358">
        <ele>2295</ele>
        <time>2018-10-17T11:43:26Z</time>
      </trkpt>
      <trkpt lat="45.80242" lon="6.42358">
        <ele>2295</ele>
        <time>2018-10-17T11:43:27Z</time>
      </trkpt>
      <trkpt lat="45.8024" lon="6.42357">
        <ele>2295</ele>
        <time>2018-10-17T11:43:28Z</time>
      </trkpt>
      <trkpt lat="45.8024" lon="6.42357">
        <ele>2295</ele>
        <time>2018-10-17T11:43:29Z</time>
      </trkpt>
      <trkpt lat="45.8024" lon="6.42357">
        <ele>2296</ele>
        <time>2018-10-17T11:43:30Z</time>
      </trkpt>
      <trkpt lat="45.80238" lon="6.42355">
        <ele>2296</ele>
        <time>2018-10-17T11:43:31Z</time>
      </trkpt>
      <trkpt lat="45.80238" lon="6.42355">
        <ele>2297</ele>
        <time>2018-10-17T11:43:32Z</time>
      </trkpt>
      <trkpt lat="45.80238" lon="6.42355">
        <ele>2297</ele>
        <time>2018-10-17T11:43:33Z</time>
      </trkpt>
      <trkpt lat="45.80238" lon="6.42355">
        <ele>2297</ele>
        <time>2018-10-17T11:43:34Z</time>
      </trkpt>
      <trkpt lat="45.80238" lon="6.42355">
        <ele>2297</ele>
        <time>2018-10-17T11:43:35Z</time>
      </trkpt>
      <trkpt lat="45.80238" lon="6.42355">
        <ele>2297</ele>
        <time>2018-10-17T11:43:36Z</time>
      </trkpt>
      <trkpt lat="45.80237" lon="6.42353">
        <ele>2297</ele>
        <time>2018-10-17T11:43:37Z</time>
      </trkpt>
      <trkpt lat="45.80237" lon="6.42353">
        <ele>2298</ele>
        <time>2018-10-17T11:43:38Z</time>
      </trkpt>
      <trkpt lat="45.80237" lon="6.42353">
        <ele>2298</ele>
        <time>2018-10-17T11:43:39Z</time>
      </trkpt>
      <trkpt lat="45.80237" lon="6.42353">
        <ele>2299</ele>
        <time>2018-10-17T11:43:40Z</time>
      </trkpt>
      <trkpt lat="45.80236" lon="6.42351">
        <ele>2299</ele>
        <time>2018-10-17T11:43:41Z</time>
      </trkpt>
      <trkpt lat="45.80236" lon="6.42351">
        <ele>2299</ele>
        <time>2018-10-17T11:43:42Z</time>
      </trkpt>
      <trkpt lat="45.80236" lon="6.42351">
        <ele>2299</ele>
        <time>2018-10-17T11:43:43Z</time>
      </trkpt>
      <trkpt lat="45.80236" lon="6.42351">
        <ele>2299</ele>
        <time>2018-10-17T11:43:44Z</time>
      </trkpt>
      <trkpt lat="45.80236" lon="6.42351">
        <ele>2300</ele>
        <time>2018-10-17T11:43:45Z</time>
      </trkpt>
      <trkpt lat="45.80235" lon="6.42348">
        <ele>2300</ele>
        <time>2018-10-17T11:43:46Z</time>
      </trkpt>
      <trkpt lat="45.80235" lon="6.42348">
        <ele>2300</ele>
        <time>2018-10-17T11:43:47Z</time>
      </trkpt>
      <trkpt lat="45.80235" lon="6.42348">
        <ele>2300</ele>
        <time>2018-10-17T11:43:48Z</time>
      </trkpt>
      <trkpt lat="45.80235" lon="6.42348">
        <ele>2300</ele>
        <time>2018-10-17T11:43:49Z</time>
      </trkpt>
      <trkpt lat="45.80235" lon="6.42345">
        <ele>2301</ele>
        <time>2018-10-17T11:43:50Z</time>
      </trkpt>
      <trkpt lat="45.80235" lon="6.42345">
        <ele>2301</ele>
        <time>2018-10-17T11:43:51Z</time>
      </trkpt>
      <trkpt lat="45.80235" lon="6.42345">
        <ele>2301</ele>
        <time>2018-10-17T11:43:52Z</time>
      </trkpt>
      <trkpt lat="45.80234" lon="6.42341">
        <ele>2302</ele>
        <time>2018-10-17T11:43:53Z</time>
      </trkpt>
      <trkpt lat="45.80234" lon="6.42341">
        <ele>2302</ele>
        <time>2018-10-17T11:43:54Z</time>
      </trkpt>
      <trkpt lat="45.80234" lon="6.42341">
        <ele>2302</ele>
        <time>2018-10-17T11:43:55Z</time>
      </trkpt>
      <trkpt lat="45.80233" lon="6.42339">
        <ele>2302</ele>
        <time>2018-10-17T11:43:56Z</time>
      </trkpt>
      <trkpt lat="45.80233" lon="6.42339">
        <ele>2302</ele>
        <time>2018-10-17T11:43:57Z</time>
      </trkpt>
      <trkpt lat="45.80233" lon="6.42339">
        <ele>2302</ele>
        <time>2018-10-17T11:43:58Z</time>
      </trkpt>
      <trkpt lat="45.80233" lon="6.42339">
        <ele>2302</ele>
        <time>2018-10-17T11:43:59Z</time>
      </trkpt>
      <trkpt lat="45.80233" lon="6.42339">
        <ele>2302</ele>
        <time>2018-10-17T11:44:00Z</time>
      </trkpt>
      <trkpt lat="45.80231" lon="6.42337">
        <ele>2303</ele>
        <time>2018-10-17T11:44:01Z</time>
      </trkpt>
      <trkpt lat="45.80231" lon="6.42337">
        <ele>2303</ele>
        <time>2018-10-17T11:44:02Z</time>
      </trkpt>
      <trkpt lat="45.80231" lon="6.42337">
        <ele>2303</ele>
        <time>2018-10-17T11:44:03Z</time>
      </trkpt>
      <trkpt lat="45.80231" lon="6.42337">
        <ele>2304</ele>
        <time>2018-10-17T11:44:04Z</time>
      </trkpt>
      <trkpt lat="45.80231" lon="6.42337">
        <ele>2304</ele>
        <time>2018-10-17T11:44:05Z</time>
      </trkpt>
      <trkpt lat="45.8023" lon="6.42336">
        <ele>2304</ele>
        <time>2018-10-17T11:44:06Z</time>
      </trkpt>
      <trkpt lat="45.8023" lon="6.42336">
        <ele>2304</ele>
        <time>2018-10-17T11:44:07Z</time>
      </trkpt>
      <trkpt lat="45.8023" lon="6.42336">
        <ele>2304</ele>
        <time>2018-10-17T11:44:08Z</time>
      </trkpt>
      <trkpt lat="45.8023" lon="6.42336">
        <ele>2304</ele>
        <time>2018-10-17T11:44:09Z</time>
      </trkpt>
      <trkpt lat="45.8023" lon="6.42336">
        <ele>2304</ele>
        <time>2018-10-17T11:44:10Z</time>
      </trkpt>
      <trkpt lat="45.80228" lon="6.42334">
        <ele>2305</ele>
        <time>2018-10-17T11:44:11Z</time>
      </trkpt>
      <trkpt lat="45.80228" lon="6.42334">
        <ele>2305</ele>
        <time>2018-10-17T11:44:12Z</time>
      </trkpt>
      <trkpt lat="45.80228" lon="6.42334">
        <ele>2306</ele>
        <time>2018-10-17T11:44:13Z</time>
      </trkpt>
      <trkpt lat="45.80228" lon="6.42334">
        <ele>2306</ele>
        <time>2018-10-17T11:44:14Z</time>
      </trkpt>
      <trkpt lat="45.80227" lon="6.42332">
        <ele>2306</ele>
        <time>2018-10-17T11:44:15Z</time>
      </trkpt>
      <trkpt lat="45.80227" lon="6.42332">
        <ele>2306</ele>
        <time>2018-10-17T11:44:16Z</time>
      </trkpt>
      <trkpt lat="45.80227" lon="6.42332">
        <ele>2306</ele>
        <time>2018-10-17T11:44:17Z</time>
      </trkpt>
      <trkpt lat="45.80227" lon="6.42332">
        <ele>2307</ele>
        <time>2018-10-17T11:44:18Z</time>
      </trkpt>
      <trkpt lat="45.80226" lon="6.4233">
        <ele>2307</ele>
        <time>2018-10-17T11:44:19Z</time>
      </trkpt>
      <trkpt lat="45.80226" lon="6.4233">
        <ele>2307</ele>
        <time>2018-10-17T11:44:20Z</time>
      </trkpt>
      <trkpt lat="45.80226" lon="6.4233">
        <ele>2307</ele>
        <time>2018-10-17T11:44:21Z</time>
      </trkpt>
      <trkpt lat="45.80225" lon="6.42327">
        <ele>2307</ele>
        <time>2018-10-17T11:44:22Z</time>
      </trkpt>
      <trkpt lat="45.80225" lon="6.42327">
        <ele>2307</ele>
        <time>2018-10-17T11:44:23Z</time>
      </trkpt>
      <trkpt lat="45.80225" lon="6.42327">
        <ele>2307</ele>
        <time>2018-10-17T11:44:24Z</time>
      </trkpt>
      <trkpt lat="45.80225" lon="6.42327">
        <ele>2307</ele>
        <time>2018-10-17T11:44:25Z</time>
      </trkpt>
      <trkpt lat="45.80225" lon="6.42327">
        <ele>2308</ele>
        <time>2018-10-17T11:44:26Z</time>
      </trkpt>
      <trkpt lat="45.80225" lon="6.42324">
        <ele>2308</ele>
        <time>2018-10-17T11:44:27Z</time>
      </trkpt>
      <trkpt lat="45.80225" lon="6.42324">
        <ele>2309</ele>
        <time>2018-10-17T11:44:28Z</time>
      </trkpt>
      <trkpt lat="45.80225" lon="6.42324">
        <ele>2309</ele>
        <time>2018-10-17T11:44:29Z</time>
      </trkpt>
      <trkpt lat="45.80225" lon="6.42324">
        <ele>2309</ele>
        <time>2018-10-17T11:44:30Z</time>
      </trkpt>
      <trkpt lat="45.80223" lon="6.42322">
        <ele>2309</ele>
        <time>2018-10-17T11:44:31Z</time>
      </trkpt>
      <trkpt lat="45.80223" lon="6.42322">
        <ele>2309</ele>
        <time>2018-10-17T11:44:32Z</time>
      </trkpt>
      <trkpt lat="45.80223" lon="6.42322">
        <ele>2309</ele>
        <time>2018-10-17T11:44:33Z</time>
      </trkpt>
      <trkpt lat="45.80223" lon="6.42322">
        <ele>2309</ele>
        <time>2018-10-17T11:44:34Z</time>
      </trkpt>
      <trkpt lat="45.80223" lon="6.42322">
        <ele>2309</ele>
        <time>2018-10-17T11:44:35Z</time>
      </trkpt>
      <trkpt lat="45.80223" lon="6.42322">
        <ele>2309</ele>
        <time>2018-10-17T11:44:36Z</time>
      </trkpt>
      <trkpt lat="45.80222" lon="6.4232">
        <ele>2309</ele>
        <time>2018-10-17T11:44:37Z</time>
      </trkpt>
      <trkpt lat="45.80222" lon="6.4232">
        <ele>2309</ele>
        <time>2018-10-17T11:44:38Z</time>
      </trkpt>
      <trkpt lat="45.80222" lon="6.4232">
        <ele>2311</ele>
        <time>2018-10-17T11:44:39Z</time>
      </trkpt>
      <trkpt lat="45.80222" lon="6.4232">
        <ele>2312</ele>
        <time>2018-10-17T11:44:40Z</time>
      </trkpt>
      <trkpt lat="45.80222" lon="6.4232">
        <ele>2312</ele>
        <time>2018-10-17T11:44:41Z</time>
      </trkpt>
      <trkpt lat="45.80222" lon="6.4232">
        <ele>2312</ele>
        <time>2018-10-17T11:44:42Z</time>
      </trkpt>
      <trkpt lat="45.80222" lon="6.4232">
        <ele>2313</ele>
        <time>2018-10-17T11:44:43Z</time>
      </trkpt>
      <trkpt lat="45.80222" lon="6.4232">
        <ele>2313</ele>
        <time>2018-10-17T11:44:44Z</time>
      </trkpt>
      <trkpt lat="45.80223" lon="6.42317">
        <ele>2313</ele>
        <time>2018-10-17T11:44:45Z</time>
      </trkpt>
      <trkpt lat="45.80223" lon="6.42317">
        <ele>2313</ele>
        <time>2018-10-17T11:44:46Z</time>
      </trkpt>
      <trkpt lat="45.80223" lon="6.42317">
        <ele>2313</ele>
        <time>2018-10-17T11:44:47Z</time>
      </trkpt>
      <trkpt lat="45.80223" lon="6.42314">
        <ele>2313</ele>
        <time>2018-10-17T11:44:48Z</time>
      </trkpt>
      <trkpt lat="45.80223" lon="6.42314">
        <ele>2314</ele>
        <time>2018-10-17T11:44:49Z</time>
      </trkpt>
      <trkpt lat="45.80223" lon="6.42314">
        <ele>2314</ele>
        <time>2018-10-17T11:44:50Z</time>
      </trkpt>
      <trkpt lat="45.80223" lon="6.42314">
        <ele>2314</ele>
        <time>2018-10-17T11:44:51Z</time>
      </trkpt>
      <trkpt lat="45.80223" lon="6.42314">
        <ele>2314</ele>
        <time>2018-10-17T11:44:52Z</time>
      </trkpt>
      <trkpt lat="45.80223" lon="6.42314">
        <ele>2315</ele>
        <time>2018-10-17T11:44:53Z</time>
      </trkpt>
      <trkpt lat="45.80223" lon="6.42314">
        <ele>2315</ele>
        <time>2018-10-17T11:44:54Z</time>
      </trkpt>
      <trkpt lat="45.80224" lon="6.42312">
        <ele>2315</ele>
        <time>2018-10-17T11:44:55Z</time>
      </trkpt>
      <trkpt lat="45.80224" lon="6.42312">
        <ele>2315</ele>
        <time>2018-10-17T11:44:56Z</time>
      </trkpt>
      <trkpt lat="45.80224" lon="6.42312">
        <ele>2315</ele>
        <time>2018-10-17T11:44:57Z</time>
      </trkpt>
      <trkpt lat="45.80224" lon="6.42312">
        <ele>2315</ele>
        <time>2018-10-17T11:44:58Z</time>
      </trkpt>
      <trkpt lat="45.80224" lon="6.42308">
        <ele>2315</ele>
        <time>2018-10-17T11:44:59Z</time>
      </trkpt>
      <trkpt lat="45.80224" lon="6.42308">
        <ele>2315</ele>
        <time>2018-10-17T11:45:00Z</time>
      </trkpt>
      <trkpt lat="45.80224" lon="6.42308">
        <ele>2315</ele>
        <time>2018-10-17T11:45:01Z</time>
      </trkpt>
      <trkpt lat="45.80225" lon="6.42305">
        <ele>2315</ele>
        <time>2018-10-17T11:45:02Z</time>
      </trkpt>
      <trkpt lat="45.80225" lon="6.42305">
        <ele>2315</ele>
        <time>2018-10-17T11:45:03Z</time>
      </trkpt>
      <trkpt lat="45.80225" lon="6.42305">
        <ele>2315</ele>
        <time>2018-10-17T11:45:04Z</time>
      </trkpt>
      <trkpt lat="45.80226" lon="6.42301">
        <ele>2315</ele>
        <time>2018-10-17T11:45:05Z</time>
      </trkpt>
      <trkpt lat="45.80226" lon="6.42301">
        <ele>2315</ele>
        <time>2018-10-17T11:45:06Z</time>
      </trkpt>
      <trkpt lat="45.80226" lon="6.42301">
        <ele>2315</ele>
        <time>2018-10-17T11:45:07Z</time>
      </trkpt>
      <trkpt lat="45.80225" lon="6.42298">
        <ele>2315</ele>
        <time>2018-10-17T11:45:08Z</time>
      </trkpt>
      <trkpt lat="45.80225" lon="6.42298">
        <ele>2315</ele>
        <time>2018-10-17T11:45:09Z</time>
      </trkpt>
      <trkpt lat="45.80225" lon="6.42298">
        <ele>2316</ele>
        <time>2018-10-17T11:45:10Z</time>
      </trkpt>
      <trkpt lat="45.80224" lon="6.42295">
        <ele>2316</ele>
        <time>2018-10-17T11:45:11Z</time>
      </trkpt>
      <trkpt lat="45.80224" lon="6.42295">
        <ele>2316</ele>
        <time>2018-10-17T11:45:12Z</time>
      </trkpt>
      <trkpt lat="45.80224" lon="6.42293">
        <ele>2316</ele>
        <time>2018-10-17T11:45:13Z</time>
      </trkpt>
      <trkpt lat="45.80224" lon="6.42293">
        <ele>2317</ele>
        <time>2018-10-17T11:45:14Z</time>
      </trkpt>
      <trkpt lat="45.80224" lon="6.4229">
        <ele>2317</ele>
        <time>2018-10-17T11:45:15Z</time>
      </trkpt>
      <trkpt lat="45.80224" lon="6.4229">
        <ele>2317</ele>
        <time>2018-10-17T11:45:16Z</time>
      </trkpt>
      <trkpt lat="45.80224" lon="6.42287">
        <ele>2317</ele>
        <time>2018-10-17T11:45:17Z</time>
      </trkpt>
      <trkpt lat="45.80224" lon="6.42287">
        <ele>2317</ele>
        <time>2018-10-17T11:45:18Z</time>
      </trkpt>
      <trkpt lat="45.80224" lon="6.42284">
        <ele>2317</ele>
        <time>2018-10-17T11:45:19Z</time>
      </trkpt>
      <trkpt lat="45.80224" lon="6.42284">
        <ele>2317</ele>
        <time>2018-10-17T11:45:20Z</time>
      </trkpt>
      <trkpt lat="45.80223" lon="6.42281">
        <ele>2318</ele>
        <time>2018-10-17T11:45:21Z</time>
      </trkpt>
      <trkpt lat="45.80223" lon="6.42281">
        <ele>2318</ele>
        <time>2018-10-17T11:45:22Z</time>
      </trkpt>
      <trkpt lat="45.80223" lon="6.42281">
        <ele>2318</ele>
        <time>2018-10-17T11:45:23Z</time>
      </trkpt>
      <trkpt lat="45.80223" lon="6.42278">
        <ele>2318</ele>
        <time>2018-10-17T11:45:24Z</time>
      </trkpt>
      <trkpt lat="45.80223" lon="6.42278">
        <ele>2319</ele>
        <time>2018-10-17T11:45:25Z</time>
      </trkpt>
      <trkpt lat="45.80223" lon="6.42275">
        <ele>2319</ele>
        <time>2018-10-17T11:45:26Z</time>
      </trkpt>
      <trkpt lat="45.80223" lon="6.42275">
        <ele>2319</ele>
        <time>2018-10-17T11:45:27Z</time>
      </trkpt>
      <trkpt lat="45.80223" lon="6.42272">
        <ele>2319</ele>
        <time>2018-10-17T11:45:28Z</time>
      </trkpt>
      <trkpt lat="45.80223" lon="6.42272">
        <ele>2319</ele>
        <time>2018-10-17T11:45:29Z</time>
      </trkpt>
      <trkpt lat="45.80224" lon="6.42268">
        <ele>2319</ele>
        <time>2018-10-17T11:45:30Z</time>
      </trkpt>
      <trkpt lat="45.80224" lon="6.42268">
        <ele>2319</ele>
        <time>2018-10-17T11:45:31Z</time>
      </trkpt>
      <trkpt lat="45.80224" lon="6.42265">
        <ele>2319</ele>
        <time>2018-10-17T11:45:32Z</time>
      </trkpt>
      <trkpt lat="45.80224" lon="6.42265">
        <ele>2319</ele>
        <time>2018-10-17T11:45:33Z</time>
      </trkpt>
      <trkpt lat="45.80223" lon="6.42262">
        <ele>2319</ele>
        <time>2018-10-17T11:45:34Z</time>
      </trkpt>
      <trkpt lat="45.80223" lon="6.42262">
        <ele>2319</ele>
        <time>2018-10-17T11:45:35Z</time>
      </trkpt>
      <trkpt lat="45.80223" lon="6.42262">
        <ele>2319</ele>
        <time>2018-10-17T11:45:36Z</time>
      </trkpt>
      <trkpt lat="45.80224" lon="6.42259">
        <ele>2319</ele>
        <time>2018-10-17T11:45:37Z</time>
      </trkpt>
      <trkpt lat="45.80224" lon="6.42259">
        <ele>2319</ele>
        <time>2018-10-17T11:45:38Z</time>
      </trkpt>
      <trkpt lat="45.80224" lon="6.42256">
        <ele>2319</ele>
        <time>2018-10-17T11:45:39Z</time>
      </trkpt>
      <trkpt lat="45.80224" lon="6.42256">
        <ele>2319</ele>
        <time>2018-10-17T11:45:40Z</time>
      </trkpt>
      <trkpt lat="45.80224" lon="6.42256">
        <ele>2319</ele>
        <time>2018-10-17T11:45:41Z</time>
      </trkpt>
      <trkpt lat="45.80224" lon="6.42256">
        <ele>2320</ele>
        <time>2018-10-17T11:45:42Z</time>
      </trkpt>
      <trkpt lat="45.80224" lon="6.42256">
        <ele>2320</ele>
        <time>2018-10-17T11:45:43Z</time>
      </trkpt>
      <trkpt lat="45.80224" lon="6.42252">
        <ele>2320</ele>
        <time>2018-10-17T11:45:44Z</time>
      </trkpt>
      <trkpt lat="45.80224" lon="6.42252">
        <ele>2320</ele>
        <time>2018-10-17T11:45:45Z</time>
      </trkpt>
      <trkpt lat="45.80224" lon="6.42252">
        <ele>2320</ele>
        <time>2018-10-17T11:45:46Z</time>
      </trkpt>
      <trkpt lat="45.80224" lon="6.42249">
        <ele>2320</ele>
        <time>2018-10-17T11:45:47Z</time>
      </trkpt>
      <trkpt lat="45.80224" lon="6.42249">
        <ele>2320</ele>
        <time>2018-10-17T11:45:48Z</time>
      </trkpt>
      <trkpt lat="45.80224" lon="6.42249">
        <ele>2321</ele>
        <time>2018-10-17T11:45:49Z</time>
      </trkpt>
      <trkpt lat="45.80224" lon="6.42249">
        <ele>2321</ele>
        <time>2018-10-17T11:45:50Z</time>
      </trkpt>
      <trkpt lat="45.80224" lon="6.42247">
        <ele>2321</ele>
        <time>2018-10-17T11:45:51Z</time>
      </trkpt>
      <trkpt lat="45.80224" lon="6.42247">
        <ele>2321</ele>
        <time>2018-10-17T11:45:52Z</time>
      </trkpt>
      <trkpt lat="45.80224" lon="6.42247">
        <ele>2321</ele>
        <time>2018-10-17T11:45:53Z</time>
      </trkpt>
      <trkpt lat="45.80224" lon="6.42247">
        <ele>2321</ele>
        <time>2018-10-17T11:45:54Z</time>
      </trkpt>
      <trkpt lat="45.80224" lon="6.42247">
        <ele>2321</ele>
        <time>2018-10-17T11:45:55Z</time>
      </trkpt>
      <trkpt lat="45.80224" lon="6.42247">
        <ele>2321</ele>
        <time>2018-10-17T11:45:56Z</time>
      </trkpt>
      <trkpt lat="45.80224" lon="6.42247">
        <ele>2321</ele>
        <time>2018-10-17T11:45:57Z</time>
      </trkpt>
      <trkpt lat="45.80224" lon="6.42247">
        <ele>2321</ele>
        <time>2018-10-17T11:45:58Z</time>
      </trkpt>
      <trkpt lat="45.80224" lon="6.42247">
        <ele>2321</ele>
        <time>2018-10-17T11:45:59Z</time>
      </trkpt>
      <trkpt lat="45.80223" lon="6.42244">
        <ele>2321</ele>
        <time>2018-10-17T11:46:00Z</time>
      </trkpt>
      <trkpt lat="45.80223" lon="6.42244">
        <ele>2322</ele>
        <time>2018-10-17T11:46:01Z</time>
      </trkpt>
      <trkpt lat="45.80223" lon="6.42244">
        <ele>2322</ele>
        <time>2018-10-17T11:46:02Z</time>
      </trkpt>
      <trkpt lat="45.80223" lon="6.42244">
        <ele>2323</ele>
        <time>2018-10-17T11:46:03Z</time>
      </trkpt>
      <trkpt lat="45.80223" lon="6.42244">
        <ele>2323</ele>
        <time>2018-10-17T11:46:04Z</time>
      </trkpt>
      <trkpt lat="45.80223" lon="6.42241">
        <ele>2323</ele>
        <time>2018-10-17T11:46:05Z</time>
      </trkpt>
      <trkpt lat="45.80223" lon="6.42241">
        <ele>2323</ele>
        <time>2018-10-17T11:46:06Z</time>
      </trkpt>
      <trkpt lat="45.80223" lon="6.42241">
        <ele>2323</ele>
        <time>2018-10-17T11:46:07Z</time>
      </trkpt>
      <trkpt lat="45.80223" lon="6.42241">
        <ele>2323</ele>
        <time>2018-10-17T11:46:08Z</time>
      </trkpt>
      <trkpt lat="45.80223" lon="6.42241">
        <ele>2323</ele>
        <time>2018-10-17T11:46:09Z</time>
      </trkpt>
      <trkpt lat="45.80223" lon="6.42241">
        <ele>2323</ele>
        <time>2018-10-17T11:46:10Z</time>
      </trkpt>
      <trkpt lat="45.80223" lon="6.42241">
        <ele>2323</ele>
        <time>2018-10-17T11:46:11Z</time>
      </trkpt>
      <trkpt lat="45.80223" lon="6.42241">
        <ele>2323</ele>
        <time>2018-10-17T11:46:12Z</time>
      </trkpt>
      <trkpt lat="45.80223" lon="6.42241">
        <ele>2324</ele>
        <time>2018-10-17T11:46:13Z</time>
      </trkpt>
      <trkpt lat="45.80223" lon="6.42241">
        <ele>2324</ele>
        <time>2018-10-17T11:46:14Z</time>
      </trkpt>
      <trkpt lat="45.80223" lon="6.42241">
        <ele>2324</ele>
        <time>2018-10-17T11:46:15Z</time>
      </trkpt>
      <trkpt lat="45.80221" lon="6.4224">
        <ele>2324</ele>
        <time>2018-10-17T11:46:16Z</time>
      </trkpt>
      <trkpt lat="45.80221" lon="6.4224">
        <ele>2324</ele>
        <time>2018-10-17T11:46:17Z</time>
      </trkpt>
      <trkpt lat="45.80221" lon="6.4224">
        <ele>2325</ele>
        <time>2018-10-17T11:46:18Z</time>
      </trkpt>
      <trkpt lat="45.80221" lon="6.4224">
        <ele>2325</ele>
        <time>2018-10-17T11:46:19Z</time>
      </trkpt>
      <trkpt lat="45.80221" lon="6.4224">
        <ele>2325</ele>
        <time>2018-10-17T11:46:20Z</time>
      </trkpt>
      <trkpt lat="45.80221" lon="6.42237">
        <ele>2325</ele>
        <time>2018-10-17T11:46:21Z</time>
      </trkpt>
      <trkpt lat="45.80221" lon="6.42237">
        <ele>2325</ele>
        <time>2018-10-17T11:46:22Z</time>
      </trkpt>
      <trkpt lat="45.80221" lon="6.42237">
        <ele>2326</ele>
        <time>2018-10-17T11:46:23Z</time>
      </trkpt>
      <trkpt lat="45.80221" lon="6.42237">
        <ele>2326</ele>
        <time>2018-10-17T11:46:24Z</time>
      </trkpt>
      <trkpt lat="45.80221" lon="6.42237">
        <ele>2326</ele>
        <time>2018-10-17T11:46:25Z</time>
      </trkpt>
      <trkpt lat="45.80222" lon="6.42234">
        <ele>2327</ele>
        <time>2018-10-17T11:46:26Z</time>
      </trkpt>
      <trkpt lat="45.80222" lon="6.42234">
        <ele>2328</ele>
        <time>2018-10-17T11:46:27Z</time>
      </trkpt>
      <trkpt lat="45.80222" lon="6.42234">
        <ele>2328</ele>
        <time>2018-10-17T11:46:28Z</time>
      </trkpt>
      <trkpt lat="45.80222" lon="6.42234">
        <ele>2328</ele>
        <time>2018-10-17T11:46:29Z</time>
      </trkpt>
      <trkpt lat="45.80222" lon="6.42234">
        <ele>2327</ele>
        <time>2018-10-17T11:46:30Z</time>
      </trkpt>
      <trkpt lat="45.80222" lon="6.42234">
        <ele>2328</ele>
        <time>2018-10-17T11:46:31Z</time>
      </trkpt>
      <trkpt lat="45.80222" lon="6.42234">
        <ele>2328</ele>
        <time>2018-10-17T11:46:32Z</time>
      </trkpt>
      <trkpt lat="45.80222" lon="6.42234">
        <ele>2328</ele>
        <time>2018-10-17T11:46:33Z</time>
      </trkpt>
      <trkpt lat="45.80222" lon="6.42234">
        <ele>2329</ele>
        <time>2018-10-17T11:46:34Z</time>
      </trkpt>
      <trkpt lat="45.80222" lon="6.42234">
        <ele>2329</ele>
        <time>2018-10-17T11:46:35Z</time>
      </trkpt>
      <trkpt lat="45.80222" lon="6.42234">
        <ele>2329</ele>
        <time>2018-10-17T11:46:36Z</time>
      </trkpt>
      <trkpt lat="45.80222" lon="6.42234">
        <ele>2329</ele>
        <time>2018-10-17T11:46:37Z</time>
      </trkpt>
      <trkpt lat="45.80222" lon="6.42234">
        <ele>2329</ele>
        <time>2018-10-17T11:46:38Z</time>
      </trkpt>
      <trkpt lat="45.80222" lon="6.42234">
        <ele>2329</ele>
        <time>2018-10-17T11:46:39Z</time>
      </trkpt>
      <trkpt lat="45.80222" lon="6.42234">
        <ele>2329</ele>
        <time>2018-10-17T11:46:40Z</time>
      </trkpt>
      <trkpt lat="45.80222" lon="6.42234">
        <ele>2329</ele>
        <time>2018-10-17T11:46:41Z</time>
      </trkpt>
      <trkpt lat="45.80222" lon="6.42234">
        <ele>2329</ele>
        <time>2018-10-17T11:46:42Z</time>
      </trkpt>
      <trkpt lat="45.80222" lon="6.42234">
        <ele>2329</ele>
        <time>2018-10-17T11:46:43Z</time>
      </trkpt>
      <trkpt lat="45.80222" lon="6.42234">
        <ele>2329</ele>
        <time>2018-10-17T11:46:44Z</time>
      </trkpt>
      <trkpt lat="45.80222" lon="6.42234">
        <ele>2329</ele>
        <time>2018-10-17T11:46:45Z</time>
      </trkpt>
      <trkpt lat="45.80222" lon="6.42234">
        <ele>2329</ele>
        <time>2018-10-17T11:46:46Z</time>
      </trkpt>
      <trkpt lat="45.80222" lon="6.42234">
        <ele>2330</ele>
        <time>2018-10-17T11:46:47Z</time>
      </trkpt>
      <trkpt lat="45.80222" lon="6.42234">
        <ele>2330</ele>
        <time>2018-10-17T11:46:48Z</time>
      </trkpt>
      <trkpt lat="45.80222" lon="6.42234">
        <ele>2330</ele>
        <time>2018-10-17T11:46:49Z</time>
      </trkpt>
      <trkpt lat="45.80222" lon="6.42234">
        <ele>2329</ele>
        <time>2018-10-17T11:46:50Z</time>
      </trkpt>
      <trkpt lat="45.80222" lon="6.42234">
        <ele>2330</ele>
        <time>2018-10-17T11:46:51Z</time>
      </trkpt>
      <trkpt lat="45.80222" lon="6.42234">
        <ele>2330</ele>
        <time>2018-10-17T11:46:52Z</time>
      </trkpt>
      <trkpt lat="45.80222" lon="6.42234">
        <ele>2330</ele>
        <time>2018-10-17T11:46:53Z</time>
      </trkpt>
      <trkpt lat="45.80222" lon="6.42234">
        <ele>2330</ele>
        <time>2018-10-17T11:46:54Z</time>
      </trkpt>
      <trkpt lat="45.80222" lon="6.42234">
        <ele>2330</ele>
        <time>2018-10-17T11:46:55Z</time>
      </trkpt>
      <trkpt lat="45.80222" lon="6.42234">
        <ele>2330</ele>
        <time>2018-10-17T11:46:56Z</time>
      </trkpt>
      <trkpt lat="45.80222" lon="6.42234">
        <ele>2330</ele>
        <time>2018-10-17T11:46:57Z</time>
      </trkpt>
      <trkpt lat="45.80222" lon="6.42234">
        <ele>2330</ele>
        <time>2018-10-17T11:46:58Z</time>
      </trkpt>
      <trkpt lat="45.80222" lon="6.42234">
        <ele>2330</ele>
        <time>2018-10-17T11:46:59Z</time>
      </trkpt>
      <trkpt lat="45.80222" lon="6.42234">
        <ele>2330</ele>
        <time>2018-10-17T11:47:00Z</time>
      </trkpt>
      <trkpt lat="45.80222" lon="6.42234">
        <ele>2330</ele>
        <time>2018-10-17T11:47:01Z</time>
      </trkpt>
      <trkpt lat="45.80222" lon="6.42232">
        <ele>2330</ele>
        <time>2018-10-17T11:47:02Z</time>
      </trkpt>
      <trkpt lat="45.80222" lon="6.42232">
        <ele>2329</ele>
        <time>2018-10-17T11:47:03Z</time>
      </trkpt>
      <trkpt lat="45.80222" lon="6.42232">
        <ele>2329</ele>
        <time>2018-10-17T11:47:04Z</time>
      </trkpt>
      <trkpt lat="45.80222" lon="6.42232">
        <ele>2329</ele>
        <time>2018-10-17T11:47:05Z</time>
      </trkpt>
      <trkpt lat="45.80222" lon="6.42232">
        <ele>2329</ele>
        <time>2018-10-17T11:47:06Z</time>
      </trkpt>
      <trkpt lat="45.80222" lon="6.42232">
        <ele>2329</ele>
        <time>2018-10-17T11:47:07Z</time>
      </trkpt>
      <trkpt lat="45.80222" lon="6.42232">
        <ele>2330</ele>
        <time>2018-10-17T11:47:08Z</time>
      </trkpt>
      <trkpt lat="45.80222" lon="6.42232">
        <ele>2330</ele>
        <time>2018-10-17T11:47:09Z</time>
      </trkpt>
      <trkpt lat="45.80222" lon="6.42232">
        <ele>2330</ele>
        <time>2018-10-17T11:47:10Z</time>
      </trkpt>
      <trkpt lat="45.80222" lon="6.42232">
        <ele>2329</ele>
        <time>2018-10-17T11:47:11Z</time>
      </trkpt>
      <trkpt lat="45.80222" lon="6.42232">
        <ele>2329</ele>
        <time>2018-10-17T11:47:12Z</time>
      </trkpt>
      <trkpt lat="45.80222" lon="6.42232">
        <ele>2329</ele>
        <time>2018-10-17T11:47:13Z</time>
      </trkpt>
      <trkpt lat="45.80222" lon="6.42232">
        <ele>2329</ele>
        <time>2018-10-17T11:47:14Z</time>
      </trkpt>
      <trkpt lat="45.80222" lon="6.42232">
        <ele>2329</ele>
        <time>2018-10-17T11:47:15Z</time>
      </trkpt>
      <trkpt lat="45.80222" lon="6.42232">
        <ele>2329</ele>
        <time>2018-10-17T11:47:16Z</time>
      </trkpt>
      <trkpt lat="45.80222" lon="6.42232">
        <ele>2329</ele>
        <time>2018-10-17T11:47:17Z</time>
      </trkpt>
      <trkpt lat="45.80222" lon="6.42232">
        <ele>2329</ele>
        <time>2018-10-17T11:47:18Z</time>
      </trkpt>
      <trkpt lat="45.80222" lon="6.42229">
        <ele>2329</ele>
        <time>2018-10-17T11:47:19Z</time>
      </trkpt>
      <trkpt lat="45.80222" lon="6.42229">
        <ele>2329</ele>
        <time>2018-10-17T11:47:20Z</time>
      </trkpt>
      <trkpt lat="45.80222" lon="6.42229">
        <ele>2329</ele>
        <time>2018-10-17T11:47:21Z</time>
      </trkpt>
      <trkpt lat="45.80222" lon="6.42229">
        <ele>2329</ele>
        <time>2018-10-17T11:47:22Z</time>
      </trkpt>
      <trkpt lat="45.80222" lon="6.42229">
        <ele>2329</ele>
        <time>2018-10-17T11:47:23Z</time>
      </trkpt>
      <trkpt lat="45.80222" lon="6.42226">
        <ele>2330</ele>
        <time>2018-10-17T11:47:24Z</time>
      </trkpt>
      <trkpt lat="45.80222" lon="6.42226">
        <ele>2330</ele>
        <time>2018-10-17T11:47:25Z</time>
      </trkpt>
      <trkpt lat="45.80222" lon="6.42226">
        <ele>2330</ele>
        <time>2018-10-17T11:47:26Z</time>
      </trkpt>
      <trkpt lat="45.80222" lon="6.42226">
        <ele>2332</ele>
        <time>2018-10-17T11:47:27Z</time>
      </trkpt>
      <trkpt lat="45.80222" lon="6.42226">
        <ele>2332</ele>
        <time>2018-10-17T11:47:28Z</time>
      </trkpt>
      <trkpt lat="45.80222" lon="6.42226">
        <ele>2332</ele>
        <time>2018-10-17T11:47:29Z</time>
      </trkpt>
      <trkpt lat="45.80224" lon="6.42226">
        <ele>2332</ele>
        <time>2018-10-17T11:47:30Z</time>
      </trkpt>
      <trkpt lat="45.80224" lon="6.42226">
        <ele>2332</ele>
        <time>2018-10-17T11:47:31Z</time>
      </trkpt>
      <trkpt lat="45.80224" lon="6.42226">
        <ele>2332</ele>
        <time>2018-10-17T11:47:32Z</time>
      </trkpt>
      <trkpt lat="45.80224" lon="6.42226">
        <ele>2332</ele>
        <time>2018-10-17T11:47:33Z</time>
      </trkpt>
      <trkpt lat="45.80224" lon="6.42226">
        <ele>2332</ele>
        <time>2018-10-17T11:47:34Z</time>
      </trkpt>
      <trkpt lat="45.80224" lon="6.42226">
        <ele>2332</ele>
        <time>2018-10-17T11:47:35Z</time>
      </trkpt>
      <trkpt lat="45.80224" lon="6.42226">
        <ele>2332</ele>
        <time>2018-10-17T11:47:36Z</time>
      </trkpt>
      <trkpt lat="45.80224" lon="6.42226">
        <ele>2332</ele>
        <time>2018-10-17T11:47:37Z</time>
      </trkpt>
      <trkpt lat="45.80224" lon="6.42226">
        <ele>2332</ele>
        <time>2018-10-17T11:47:38Z</time>
      </trkpt>
      <trkpt lat="45.80224" lon="6.42224">
        <ele>2332</ele>
        <time>2018-10-17T11:47:39Z</time>
      </trkpt>
      <trkpt lat="45.80224" lon="6.42224">
        <ele>2332</ele>
        <time>2018-10-17T11:47:40Z</time>
      </trkpt>
      <trkpt lat="45.80224" lon="6.42224">
        <ele>2333</ele>
        <time>2018-10-17T11:47:41Z</time>
      </trkpt>
      <trkpt lat="45.80224" lon="6.42224">
        <ele>2334</ele>
        <time>2018-10-17T11:47:42Z</time>
      </trkpt>
      <trkpt lat="45.80224" lon="6.42224">
        <ele>2334</ele>
        <time>2018-10-17T11:47:43Z</time>
      </trkpt>
      <trkpt lat="45.80224" lon="6.42224">
        <ele>2334</ele>
        <time>2018-10-17T11:47:44Z</time>
      </trkpt>
      <trkpt lat="45.80223" lon="6.42221">
        <ele>2334</ele>
        <time>2018-10-17T11:47:45Z</time>
      </trkpt>
      <trkpt lat="45.80223" lon="6.42221">
        <ele>2334</ele>
        <time>2018-10-17T11:47:46Z</time>
      </trkpt>
      <trkpt lat="45.80223" lon="6.42221">
        <ele>2334</ele>
        <time>2018-10-17T11:47:47Z</time>
      </trkpt>
      <trkpt lat="45.80223" lon="6.42221">
        <ele>2334</ele>
        <time>2018-10-17T11:47:48Z</time>
      </trkpt>
      <trkpt lat="45.80223" lon="6.42221">
        <ele>2334</ele>
        <time>2018-10-17T11:47:49Z</time>
      </trkpt>
      <trkpt lat="45.80222" lon="6.42219">
        <ele>2334</ele>
        <time>2018-10-17T11:47:50Z</time>
      </trkpt>
      <trkpt lat="45.80222" lon="6.42219">
        <ele>2334</ele>
        <time>2018-10-17T11:47:51Z</time>
      </trkpt>
      <trkpt lat="45.80222" lon="6.42219">
        <ele>2334</ele>
        <time>2018-10-17T11:47:52Z</time>
      </trkpt>
      <trkpt lat="45.80222" lon="6.42219">
        <ele>2335</ele>
        <time>2018-10-17T11:47:53Z</time>
      </trkpt>
      <trkpt lat="45.80222" lon="6.42219">
        <ele>2335</ele>
        <time>2018-10-17T11:47:54Z</time>
      </trkpt>
      <trkpt lat="45.80222" lon="6.42219">
        <ele>2335</ele>
        <time>2018-10-17T11:47:55Z</time>
      </trkpt>
      <trkpt lat="45.80221" lon="6.42216">
        <ele>2335</ele>
        <time>2018-10-17T11:47:56Z</time>
      </trkpt>
      <trkpt lat="45.80221" lon="6.42216">
        <ele>2335</ele>
        <time>2018-10-17T11:47:57Z</time>
      </trkpt>
      <trkpt lat="45.80221" lon="6.42216">
        <ele>2336</ele>
        <time>2018-10-17T11:47:58Z</time>
      </trkpt>
      <trkpt lat="45.80221" lon="6.42216">
        <ele>2336</ele>
        <time>2018-10-17T11:47:59Z</time>
      </trkpt>
      <trkpt lat="45.80221" lon="6.42216">
        <ele>2337</ele>
        <time>2018-10-17T11:48:00Z</time>
      </trkpt>
      <trkpt lat="45.80221" lon="6.42216">
        <ele>2337</ele>
        <time>2018-10-17T11:48:01Z</time>
      </trkpt>
      <trkpt lat="45.80221" lon="6.42216">
        <ele>2337</ele>
        <time>2018-10-17T11:48:02Z</time>
      </trkpt>
      <trkpt lat="45.80221" lon="6.42216">
        <ele>2337</ele>
        <time>2018-10-17T11:48:03Z</time>
      </trkpt>
      <trkpt lat="45.80221" lon="6.42213">
        <ele>2337</ele>
        <time>2018-10-17T11:48:04Z</time>
      </trkpt>
      <trkpt lat="45.80221" lon="6.42213">
        <ele>2337</ele>
        <time>2018-10-17T11:48:05Z</time>
      </trkpt>
      <trkpt lat="45.80221" lon="6.42213">
        <ele>2337</ele>
        <time>2018-10-17T11:48:06Z</time>
      </trkpt>
      <trkpt lat="45.80221" lon="6.42213">
        <ele>2337</ele>
        <time>2018-10-17T11:48:07Z</time>
      </trkpt>
      <trkpt lat="45.80221" lon="6.4221">
        <ele>2337</ele>
        <time>2018-10-17T11:48:08Z</time>
      </trkpt>
      <trkpt lat="45.80221" lon="6.4221">
        <ele>2338</ele>
        <time>2018-10-17T11:48:09Z</time>
      </trkpt>
      <trkpt lat="45.80221" lon="6.4221">
        <ele>2338</ele>
        <time>2018-10-17T11:48:10Z</time>
      </trkpt>
      <trkpt lat="45.80221" lon="6.4221">
        <ele>2339</ele>
        <time>2018-10-17T11:48:11Z</time>
      </trkpt>
      <trkpt lat="45.80221" lon="6.4221">
        <ele>2339</ele>
        <time>2018-10-17T11:48:12Z</time>
      </trkpt>
      <trkpt lat="45.80221" lon="6.4221">
        <ele>2339</ele>
        <time>2018-10-17T11:48:13Z</time>
      </trkpt>
      <trkpt lat="45.80221" lon="6.4221">
        <ele>2339</ele>
        <time>2018-10-17T11:48:14Z</time>
      </trkpt>
      <trkpt lat="45.80221" lon="6.4221">
        <ele>2340</ele>
        <time>2018-10-17T11:48:15Z</time>
      </trkpt>
      <trkpt lat="45.80221" lon="6.4221">
        <ele>2340</ele>
        <time>2018-10-17T11:48:16Z</time>
      </trkpt>
      <trkpt lat="45.80221" lon="6.42208">
        <ele>2339</ele>
        <time>2018-10-17T11:48:17Z</time>
      </trkpt>
      <trkpt lat="45.80221" lon="6.42208">
        <ele>2339</ele>
        <time>2018-10-17T11:48:18Z</time>
      </trkpt>
      <trkpt lat="45.80221" lon="6.42208">
        <ele>2339</ele>
        <time>2018-10-17T11:48:19Z</time>
      </trkpt>
      <trkpt lat="45.80221" lon="6.42208">
        <ele>2339</ele>
        <time>2018-10-17T11:48:20Z</time>
      </trkpt>
      <trkpt lat="45.80221" lon="6.42208">
        <ele>2339</ele>
        <time>2018-10-17T11:48:21Z</time>
      </trkpt>
      <trkpt lat="45.80221" lon="6.42208">
        <ele>2340</ele>
        <time>2018-10-17T11:48:22Z</time>
      </trkpt>
      <trkpt lat="45.80221" lon="6.42208">
        <ele>2340</ele>
        <time>2018-10-17T11:48:23Z</time>
      </trkpt>
      <trkpt lat="45.80221" lon="6.42208">
        <ele>2339</ele>
        <time>2018-10-17T11:48:24Z</time>
      </trkpt>
      <trkpt lat="45.80221" lon="6.42208">
        <ele>2339</ele>
        <time>2018-10-17T11:48:25Z</time>
      </trkpt>
      <trkpt lat="45.80221" lon="6.42208">
        <ele>2339</ele>
        <time>2018-10-17T11:48:26Z</time>
      </trkpt>
      <trkpt lat="45.80221" lon="6.42208">
        <ele>2340</ele>
        <time>2018-10-17T11:48:27Z</time>
      </trkpt>
      <trkpt lat="45.80221" lon="6.42208">
        <ele>2341</ele>
        <time>2018-10-17T11:48:28Z</time>
      </trkpt>
      <trkpt lat="45.8022" lon="6.42206">
        <ele>2341</ele>
        <time>2018-10-17T11:48:29Z</time>
      </trkpt>
      <trkpt lat="45.8022" lon="6.42206">
        <ele>2341</ele>
        <time>2018-10-17T11:48:30Z</time>
      </trkpt>
      <trkpt lat="45.8022" lon="6.42206">
        <ele>2341</ele>
        <time>2018-10-17T11:48:31Z</time>
      </trkpt>
      <trkpt lat="45.8022" lon="6.42206">
        <ele>2341</ele>
        <time>2018-10-17T11:48:32Z</time>
      </trkpt>
      <trkpt lat="45.8022" lon="6.42206">
        <ele>2342</ele>
        <time>2018-10-17T11:48:33Z</time>
      </trkpt>
      <trkpt lat="45.8022" lon="6.42206">
        <ele>2342</ele>
        <time>2018-10-17T11:48:34Z</time>
      </trkpt>
      <trkpt lat="45.8022" lon="6.42206">
        <ele>2342</ele>
        <time>2018-10-17T11:48:35Z</time>
      </trkpt>
      <trkpt lat="45.8022" lon="6.42206">
        <ele>2342</ele>
        <time>2018-10-17T11:48:36Z</time>
      </trkpt>
      <trkpt lat="45.8022" lon="6.42206">
        <ele>2342</ele>
        <time>2018-10-17T11:48:37Z</time>
      </trkpt>
      <trkpt lat="45.8022" lon="6.42206">
        <ele>2342</ele>
        <time>2018-10-17T11:48:38Z</time>
      </trkpt>
      <trkpt lat="45.8022" lon="6.42206">
        <ele>2342</ele>
        <time>2018-10-17T11:48:39Z</time>
      </trkpt>
      <trkpt lat="45.80219" lon="6.42203">
        <ele>2343</ele>
        <time>2018-10-17T11:48:40Z</time>
      </trkpt>
      <trkpt lat="45.80219" lon="6.42203">
        <ele>2343</ele>
        <time>2018-10-17T11:48:41Z</time>
      </trkpt>
      <trkpt lat="45.80219" lon="6.42203">
        <ele>2344</ele>
        <time>2018-10-17T11:48:42Z</time>
      </trkpt>
      <trkpt lat="45.80219" lon="6.42203">
        <ele>2344</ele>
        <time>2018-10-17T11:48:43Z</time>
      </trkpt>
      <trkpt lat="45.80219" lon="6.42203">
        <ele>2343</ele>
        <time>2018-10-17T11:48:44Z</time>
      </trkpt>
      <trkpt lat="45.80219" lon="6.42203">
        <ele>2343</ele>
        <time>2018-10-17T11:48:45Z</time>
      </trkpt>
      <trkpt lat="45.80219" lon="6.42203">
        <ele>2344</ele>
        <time>2018-10-17T11:48:46Z</time>
      </trkpt>
      <trkpt lat="45.80219" lon="6.42203">
        <ele>2345</ele>
        <time>2018-10-17T11:48:47Z</time>
      </trkpt>
      <trkpt lat="45.80219" lon="6.42203">
        <ele>2345</ele>
        <time>2018-10-17T11:48:48Z</time>
      </trkpt>
      <trkpt lat="45.80219" lon="6.42203">
        <ele>2345</ele>
        <time>2018-10-17T11:48:49Z</time>
      </trkpt>
      <trkpt lat="45.80219" lon="6.42203">
        <ele>2345</ele>
        <time>2018-10-17T11:48:50Z</time>
      </trkpt>
      <trkpt lat="45.80219" lon="6.42203">
        <ele>2345</ele>
        <time>2018-10-17T11:48:51Z</time>
      </trkpt>
      <trkpt lat="45.80219" lon="6.42203">
        <ele>2346</ele>
        <time>2018-10-17T11:48:52Z</time>
      </trkpt>
      <trkpt lat="45.80219" lon="6.42203">
        <ele>2346</ele>
        <time>2018-10-17T11:48:53Z</time>
      </trkpt>
      <trkpt lat="45.80219" lon="6.42203">
        <ele>2346</ele>
        <time>2018-10-17T11:48:54Z</time>
      </trkpt>
      <trkpt lat="45.80219" lon="6.422">
        <ele>2346</ele>
        <time>2018-10-17T11:48:55Z</time>
      </trkpt>
      <trkpt lat="45.80219" lon="6.422">
        <ele>2346</ele>
        <time>2018-10-17T11:48:56Z</time>
      </trkpt>
      <trkpt lat="45.80219" lon="6.422">
        <ele>2346</ele>
        <time>2018-10-17T11:48:57Z</time>
      </trkpt>
      <trkpt lat="45.80219" lon="6.422">
        <ele>2346</ele>
        <time>2018-10-17T11:48:58Z</time>
      </trkpt>
      <trkpt lat="45.80219" lon="6.422">
        <ele>2346</ele>
        <time>2018-10-17T11:48:59Z</time>
      </trkpt>
      <trkpt lat="45.80219" lon="6.422">
        <ele>2347</ele>
        <time>2018-10-17T11:49:00Z</time>
      </trkpt>
      <trkpt lat="45.80219" lon="6.422">
        <ele>2347</ele>
        <time>2018-10-17T11:49:01Z</time>
      </trkpt>
      <trkpt lat="45.80218" lon="6.42197">
        <ele>2347</ele>
        <time>2018-10-17T11:49:02Z</time>
      </trkpt>
      <trkpt lat="45.80218" lon="6.42197">
        <ele>2347</ele>
        <time>2018-10-17T11:49:03Z</time>
      </trkpt>
      <trkpt lat="45.80218" lon="6.42197">
        <ele>2347</ele>
        <time>2018-10-17T11:49:04Z</time>
      </trkpt>
      <trkpt lat="45.80218" lon="6.42197">
        <ele>2347</ele>
        <time>2018-10-17T11:49:05Z</time>
      </trkpt>
      <trkpt lat="45.80218" lon="6.42197">
        <ele>2347</ele>
        <time>2018-10-17T11:49:06Z</time>
      </trkpt>
      <trkpt lat="45.80218" lon="6.42197">
        <ele>2347</ele>
        <time>2018-10-17T11:49:07Z</time>
      </trkpt>
      <trkpt lat="45.80218" lon="6.42195">
        <ele>2347</ele>
        <time>2018-10-17T11:49:08Z</time>
      </trkpt>
      <trkpt lat="45.80218" lon="6.42195">
        <ele>2348</ele>
        <time>2018-10-17T11:49:09Z</time>
      </trkpt>
      <trkpt lat="45.80218" lon="6.42195">
        <ele>2348</ele>
        <time>2018-10-17T11:49:10Z</time>
      </trkpt>
      <trkpt lat="45.80218" lon="6.42195">
        <ele>2348</ele>
        <time>2018-10-17T11:49:11Z</time>
      </trkpt>
      <trkpt lat="45.80218" lon="6.42195">
        <ele>2349</ele>
        <time>2018-10-17T11:49:12Z</time>
      </trkpt>
      <trkpt lat="45.80218" lon="6.42195">
        <ele>2350</ele>
        <time>2018-10-17T11:49:13Z</time>
      </trkpt>
      <trkpt lat="45.80218" lon="6.42192">
        <ele>2350</ele>
        <time>2018-10-17T11:49:14Z</time>
      </trkpt>
      <trkpt lat="45.80218" lon="6.42192">
        <ele>2350</ele>
        <time>2018-10-17T11:49:15Z</time>
      </trkpt>
      <trkpt lat="45.80218" lon="6.42192">
        <ele>2349</ele>
        <time>2018-10-17T11:49:16Z</time>
      </trkpt>
      <trkpt lat="45.80218" lon="6.42192">
        <ele>2350</ele>
        <time>2018-10-17T11:49:17Z</time>
      </trkpt>
      <trkpt lat="45.80218" lon="6.42192">
        <ele>2351</ele>
        <time>2018-10-17T11:49:18Z</time>
      </trkpt>
      <trkpt lat="45.80218" lon="6.42192">
        <ele>2351</ele>
        <time>2018-10-17T11:49:19Z</time>
      </trkpt>
      <trkpt lat="45.80218" lon="6.42192">
        <ele>2351</ele>
        <time>2018-10-17T11:49:20Z</time>
      </trkpt>
      <trkpt lat="45.80218" lon="6.42192">
        <ele>2351</ele>
        <time>2018-10-17T11:49:21Z</time>
      </trkpt>
      <trkpt lat="45.80218" lon="6.42192">
        <ele>2351</ele>
        <time>2018-10-17T11:49:22Z</time>
      </trkpt>
      <trkpt lat="45.80218" lon="6.42192">
        <ele>2351</ele>
        <time>2018-10-17T11:49:23Z</time>
      </trkpt>
      <trkpt lat="45.80218" lon="6.42192">
        <ele>2351</ele>
        <time>2018-10-17T11:49:24Z</time>
      </trkpt>
      <trkpt lat="45.80218" lon="6.42192">
        <ele>2351</ele>
        <time>2018-10-17T11:49:25Z</time>
      </trkpt>
      <trkpt lat="45.80218" lon="6.42192">
        <ele>2351</ele>
        <time>2018-10-17T11:49:26Z</time>
      </trkpt>
      <trkpt lat="45.80218" lon="6.42192">
        <ele>2351</ele>
        <time>2018-10-17T11:49:27Z</time>
      </trkpt>
      <trkpt lat="45.80218" lon="6.42192">
        <ele>2351</ele>
        <time>2018-10-17T11:49:28Z</time>
      </trkpt>
      <trkpt lat="45.80218" lon="6.42192">
        <ele>2351</ele>
        <time>2018-10-17T11:49:29Z</time>
      </trkpt>
      <trkpt lat="45.80218" lon="6.42192">
        <ele>2351</ele>
        <time>2018-10-17T11:49:30Z</time>
      </trkpt>
      <trkpt lat="45.80218" lon="6.42192">
        <ele>2351</ele>
        <time>2018-10-17T11:49:31Z</time>
      </trkpt>
      <trkpt lat="45.80218" lon="6.4219">
        <ele>2352</ele>
        <time>2018-10-17T11:49:32Z</time>
      </trkpt>
      <trkpt lat="45.80218" lon="6.4219">
        <ele>2352</ele>
        <time>2018-10-17T11:49:33Z</time>
      </trkpt>
      <trkpt lat="45.80218" lon="6.4219">
        <ele>2352</ele>
        <time>2018-10-17T11:49:34Z</time>
      </trkpt>
      <trkpt lat="45.80218" lon="6.4219">
        <ele>2352</ele>
        <time>2018-10-17T11:49:35Z</time>
      </trkpt>
      <trkpt lat="45.80218" lon="6.4219">
        <ele>2352</ele>
        <time>2018-10-17T11:49:36Z</time>
      </trkpt>
      <trkpt lat="45.80218" lon="6.4219">
        <ele>2352</ele>
        <time>2018-10-17T11:49:37Z</time>
      </trkpt>
      <trkpt lat="45.80218" lon="6.4219">
        <ele>2352</ele>
        <time>2018-10-17T11:49:38Z</time>
      </trkpt>
      <trkpt lat="45.80218" lon="6.4219">
        <ele>2352</ele>
        <time>2018-10-17T11:49:39Z</time>
      </trkpt>
      <trkpt lat="45.80218" lon="6.4219">
        <ele>2352</ele>
        <time>2018-10-17T11:49:40Z</time>
      </trkpt>
      <trkpt lat="45.80218" lon="6.42187">
        <ele>2352</ele>
        <time>2018-10-17T11:49:41Z</time>
      </trkpt>
      <trkpt lat="45.80218" lon="6.42187">
        <ele>2353</ele>
        <time>2018-10-17T11:49:42Z</time>
      </trkpt>
      <trkpt lat="45.80218" lon="6.42187">
        <ele>2353</ele>
        <time>2018-10-17T11:49:43Z</time>
      </trkpt>
      <trkpt lat="45.80218" lon="6.42187">
        <ele>2353</ele>
        <time>2018-10-17T11:49:44Z</time>
      </trkpt>
      <trkpt lat="45.80218" lon="6.42187">
        <ele>2353</ele>
        <time>2018-10-17T11:49:45Z</time>
      </trkpt>
      <trkpt lat="45.80218" lon="6.42187">
        <ele>2352</ele>
        <time>2018-10-17T11:49:46Z</time>
      </trkpt>
      <trkpt lat="45.80218" lon="6.42187">
        <ele>2352</ele>
        <time>2018-10-17T11:49:47Z</time>
      </trkpt>
      <trkpt lat="45.80218" lon="6.42187">
        <ele>2353</ele>
        <time>2018-10-17T11:49:48Z</time>
      </trkpt>
      <trkpt lat="45.80218" lon="6.42187">
        <ele>2353</ele>
        <time>2018-10-17T11:49:49Z</time>
      </trkpt>
      <trkpt lat="45.80218" lon="6.42184">
        <ele>2355</ele>
        <time>2018-10-17T11:49:50Z</time>
      </trkpt>
      <trkpt lat="45.80218" lon="6.42184">
        <ele>2356</ele>
        <time>2018-10-17T11:49:51Z</time>
      </trkpt>
      <trkpt lat="45.80218" lon="6.42184">
        <ele>2356</ele>
        <time>2018-10-17T11:49:52Z</time>
      </trkpt>
      <trkpt lat="45.80218" lon="6.42184">
        <ele>2356</ele>
        <time>2018-10-17T11:49:53Z</time>
      </trkpt>
      <trkpt lat="45.80218" lon="6.42184">
        <ele>2355</ele>
        <time>2018-10-17T11:49:54Z</time>
      </trkpt>
      <trkpt lat="45.80218" lon="6.42184">
        <ele>2355</ele>
        <time>2018-10-17T11:49:55Z</time>
      </trkpt>
      <trkpt lat="45.80218" lon="6.42184">
        <ele>2355</ele>
        <time>2018-10-17T11:49:56Z</time>
      </trkpt>
      <trkpt lat="45.80218" lon="6.42184">
        <ele>2356</ele>
        <time>2018-10-17T11:49:57Z</time>
      </trkpt>
      <trkpt lat="45.80218" lon="6.42184">
        <ele>2356</ele>
        <time>2018-10-17T11:49:58Z</time>
      </trkpt>
      <trkpt lat="45.80218" lon="6.42184">
        <ele>2356</ele>
        <time>2018-10-17T11:49:59Z</time>
      </trkpt>
      <trkpt lat="45.80218" lon="6.42184">
        <ele>2356</ele>
        <time>2018-10-17T11:50:00Z</time>
      </trkpt>
      <trkpt lat="45.80218" lon="6.42184">
        <ele>2357</ele>
        <time>2018-10-17T11:50:01Z</time>
      </trkpt>
      <trkpt lat="45.80218" lon="6.42184">
        <ele>2357</ele>
        <time>2018-10-17T11:50:02Z</time>
      </trkpt>
      <trkpt lat="45.80218" lon="6.42184">
        <ele>2357</ele>
        <time>2018-10-17T11:50:03Z</time>
      </trkpt>
      <trkpt lat="45.80218" lon="6.42184">
        <ele>2357</ele>
        <time>2018-10-17T11:50:04Z</time>
      </trkpt>
      <trkpt lat="45.80218" lon="6.42184">
        <ele>2357</ele>
        <time>2018-10-17T11:50:05Z</time>
      </trkpt>
      <trkpt lat="45.80218" lon="6.42184">
        <ele>2357</ele>
        <time>2018-10-17T11:50:06Z</time>
      </trkpt>
      <trkpt lat="45.8022" lon="6.42184">
        <ele>2357</ele>
        <time>2018-10-17T11:50:07Z</time>
      </trkpt>
      <trkpt lat="45.8022" lon="6.42184">
        <ele>2357</ele>
        <time>2018-10-17T11:50:08Z</time>
      </trkpt>
      <trkpt lat="45.8022" lon="6.42184">
        <ele>2357</ele>
        <time>2018-10-17T11:50:09Z</time>
      </trkpt>
      <trkpt lat="45.8022" lon="6.42184">
        <ele>2357</ele>
        <time>2018-10-17T11:50:10Z</time>
      </trkpt>
      <trkpt lat="45.8022" lon="6.42184">
        <ele>2357</ele>
        <time>2018-10-17T11:50:11Z</time>
      </trkpt>
      <trkpt lat="45.8022" lon="6.42184">
        <ele>2357</ele>
        <time>2018-10-17T11:50:12Z</time>
      </trkpt>
      <trkpt lat="45.8022" lon="6.42184">
        <ele>2357</ele>
        <time>2018-10-17T11:50:13Z</time>
      </trkpt>
      <trkpt lat="45.8022" lon="6.42184">
        <ele>2357</ele>
        <time>2018-10-17T11:50:14Z</time>
      </trkpt>
      <trkpt lat="45.8022" lon="6.42184">
        <ele>2357</ele>
        <time>2018-10-17T11:50:15Z</time>
      </trkpt>
      <trkpt lat="45.8022" lon="6.42184">
        <ele>2357</ele>
        <time>2018-10-17T11:50:16Z</time>
      </trkpt>
      <trkpt lat="45.8022" lon="6.42184">
        <ele>2357</ele>
        <time>2018-10-17T11:50:17Z</time>
      </trkpt>
      <trkpt lat="45.8022" lon="6.42184">
        <ele>2357</ele>
        <time>2018-10-17T11:50:18Z</time>
      </trkpt>
      <trkpt lat="45.80219" lon="6.42181">
        <ele>2357</ele>
        <time>2018-10-17T11:50:19Z</time>
      </trkpt>
      <trkpt lat="45.80219" lon="6.42181">
        <ele>2357</ele>
        <time>2018-10-17T11:50:20Z</time>
      </trkpt>
      <trkpt lat="45.80219" lon="6.42181">
        <ele>2357</ele>
        <time>2018-10-17T11:50:21Z</time>
      </trkpt>
      <trkpt lat="45.80219" lon="6.42181">
        <ele>2357</ele>
        <time>2018-10-17T11:50:22Z</time>
      </trkpt>
      <trkpt lat="45.80219" lon="6.42181">
        <ele>2357</ele>
        <time>2018-10-17T11:50:23Z</time>
      </trkpt>
      <trkpt lat="45.80219" lon="6.42181">
        <ele>2358</ele>
        <time>2018-10-17T11:50:24Z</time>
      </trkpt>
      <trkpt lat="45.80219" lon="6.42181">
        <ele>2359</ele>
        <time>2018-10-17T11:50:25Z</time>
      </trkpt>
      <trkpt lat="45.80219" lon="6.42181">
        <ele>2359</ele>
        <time>2018-10-17T11:50:26Z</time>
      </trkpt>
      <trkpt lat="45.80219" lon="6.42181">
        <ele>2359</ele>
        <time>2018-10-17T11:50:27Z</time>
      </trkpt>
      <trkpt lat="45.80219" lon="6.42181">
        <ele>2359</ele>
        <time>2018-10-17T11:50:28Z</time>
      </trkpt>
      <trkpt lat="45.80219" lon="6.42181">
        <ele>2359</ele>
        <time>2018-10-17T11:50:29Z</time>
      </trkpt>
      <trkpt lat="45.80219" lon="6.42181">
        <ele>2360</ele>
        <time>2018-10-17T11:50:30Z</time>
      </trkpt>
      <trkpt lat="45.80219" lon="6.42181">
        <ele>2360</ele>
        <time>2018-10-17T11:50:31Z</time>
      </trkpt>
      <trkpt lat="45.80219" lon="6.42181">
        <ele>2360</ele>
        <time>2018-10-17T11:50:32Z</time>
      </trkpt>
      <trkpt lat="45.80219" lon="6.42181">
        <ele>2360</ele>
        <time>2018-10-17T11:50:33Z</time>
      </trkpt>
      <trkpt lat="45.8022" lon="6.42177">
        <ele>2360</ele>
        <time>2018-10-17T11:50:34Z</time>
      </trkpt>
      <trkpt lat="45.8022" lon="6.42177">
        <ele>2360</ele>
        <time>2018-10-17T11:50:35Z</time>
      </trkpt>
      <trkpt lat="45.8022" lon="6.42177">
        <ele>2360</ele>
        <time>2018-10-17T11:50:36Z</time>
      </trkpt>
      <trkpt lat="45.8022" lon="6.42177">
        <ele>2360</ele>
        <time>2018-10-17T11:50:37Z</time>
      </trkpt>
      <trkpt lat="45.8022" lon="6.42177">
        <ele>2361</ele>
        <time>2018-10-17T11:50:38Z</time>
      </trkpt>
      <trkpt lat="45.8022" lon="6.42177">
        <ele>2361</ele>
        <time>2018-10-17T11:50:39Z</time>
      </trkpt>
      <trkpt lat="45.8022" lon="6.42175">
        <ele>2361</ele>
        <time>2018-10-17T11:50:40Z</time>
      </trkpt>
      <trkpt lat="45.8022" lon="6.42175">
        <ele>2361</ele>
        <time>2018-10-17T11:50:41Z</time>
      </trkpt>
      <trkpt lat="45.8022" lon="6.42175">
        <ele>2361</ele>
        <time>2018-10-17T11:50:42Z</time>
      </trkpt>
      <trkpt lat="45.8022" lon="6.42175">
        <ele>2361</ele>
        <time>2018-10-17T11:50:43Z</time>
      </trkpt>
      <trkpt lat="45.8022" lon="6.42175">
        <ele>2362</ele>
        <time>2018-10-17T11:50:44Z</time>
      </trkpt>
      <trkpt lat="45.8022" lon="6.42175">
        <ele>2362</ele>
        <time>2018-10-17T11:50:45Z</time>
      </trkpt>
      <trkpt lat="45.8022" lon="6.42175">
        <ele>2362</ele>
        <time>2018-10-17T11:50:46Z</time>
      </trkpt>
      <trkpt lat="45.80221" lon="6.42173">
        <ele>2362</ele>
        <time>2018-10-17T11:50:47Z</time>
      </trkpt>
      <trkpt lat="45.80221" lon="6.42173">
        <ele>2362</ele>
        <time>2018-10-17T11:50:48Z</time>
      </trkpt>
      <trkpt lat="45.80221" lon="6.42173">
        <ele>2362</ele>
        <time>2018-10-17T11:50:49Z</time>
      </trkpt>
      <trkpt lat="45.80221" lon="6.42173">
        <ele>2362</ele>
        <time>2018-10-17T11:50:50Z</time>
      </trkpt>
      <trkpt lat="45.80221" lon="6.42173">
        <ele>2363</ele>
        <time>2018-10-17T11:50:51Z</time>
      </trkpt>
      <trkpt lat="45.80221" lon="6.42173">
        <ele>2363</ele>
        <time>2018-10-17T11:50:52Z</time>
      </trkpt>
      <trkpt lat="45.80221" lon="6.42173">
        <ele>2363</ele>
        <time>2018-10-17T11:50:53Z</time>
      </trkpt>
      <trkpt lat="45.80223" lon="6.4217">
        <ele>2363</ele>
        <time>2018-10-17T11:50:54Z</time>
      </trkpt>
      <trkpt lat="45.80223" lon="6.4217">
        <ele>2364</ele>
        <time>2018-10-17T11:50:55Z</time>
      </trkpt>
      <trkpt lat="45.80223" lon="6.4217">
        <ele>2364</ele>
        <time>2018-10-17T11:50:56Z</time>
      </trkpt>
      <trkpt lat="45.80223" lon="6.4217">
        <ele>2364</ele>
        <time>2018-10-17T11:50:57Z</time>
      </trkpt>
      <trkpt lat="45.80223" lon="6.4217">
        <ele>2364</ele>
        <time>2018-10-17T11:50:58Z</time>
      </trkpt>
      <trkpt lat="45.80223" lon="6.4217">
        <ele>2364</ele>
        <time>2018-10-17T11:50:59Z</time>
      </trkpt>
      <trkpt lat="45.80223" lon="6.4217">
        <ele>2364</ele>
        <time>2018-10-17T11:51:00Z</time>
      </trkpt>
      <trkpt lat="45.80224" lon="6.42168">
        <ele>2364</ele>
        <time>2018-10-17T11:51:01Z</time>
      </trkpt>
      <trkpt lat="45.80224" lon="6.42168">
        <ele>2365</ele>
        <time>2018-10-17T11:51:02Z</time>
      </trkpt>
      <trkpt lat="45.80224" lon="6.42168">
        <ele>2365</ele>
        <time>2018-10-17T11:51:03Z</time>
      </trkpt>
      <trkpt lat="45.80224" lon="6.42168">
        <ele>2366</ele>
        <time>2018-10-17T11:51:04Z</time>
      </trkpt>
      <trkpt lat="45.80224" lon="6.42168">
        <ele>2366</ele>
        <time>2018-10-17T11:51:05Z</time>
      </trkpt>
      <trkpt lat="45.80224" lon="6.42168">
        <ele>2366</ele>
        <time>2018-10-17T11:51:06Z</time>
      </trkpt>
      <trkpt lat="45.80224" lon="6.42168">
        <ele>2367</ele>
        <time>2018-10-17T11:51:07Z</time>
      </trkpt>
      <trkpt lat="45.80224" lon="6.42168">
        <ele>2367</ele>
        <time>2018-10-17T11:51:08Z</time>
      </trkpt>
      <trkpt lat="45.80223" lon="6.42165">
        <ele>2367</ele>
        <time>2018-10-17T11:51:09Z</time>
      </trkpt>
      <trkpt lat="45.80223" lon="6.42165">
        <ele>2367</ele>
        <time>2018-10-17T11:51:10Z</time>
      </trkpt>
      <trkpt lat="45.80223" lon="6.42165">
        <ele>2367</ele>
        <time>2018-10-17T11:51:11Z</time>
      </trkpt>
      <trkpt lat="45.80223" lon="6.42165">
        <ele>2368</ele>
        <time>2018-10-17T11:51:12Z</time>
      </trkpt>
      <trkpt lat="45.80223" lon="6.42165">
        <ele>2368</ele>
        <time>2018-10-17T11:51:13Z</time>
      </trkpt>
      <trkpt lat="45.80223" lon="6.42165">
        <ele>2368</ele>
        <time>2018-10-17T11:51:14Z</time>
      </trkpt>
      <trkpt lat="45.80223" lon="6.42165">
        <ele>2368</ele>
        <time>2018-10-17T11:51:15Z</time>
      </trkpt>
      <trkpt lat="45.80223" lon="6.42165">
        <ele>2368</ele>
        <time>2018-10-17T11:51:16Z</time>
      </trkpt>
      <trkpt lat="45.80224" lon="6.42162">
        <ele>2369</ele>
        <time>2018-10-17T11:51:17Z</time>
      </trkpt>
      <trkpt lat="45.80224" lon="6.42162">
        <ele>2369</ele>
        <time>2018-10-17T11:51:18Z</time>
      </trkpt>
      <trkpt lat="45.80224" lon="6.42162">
        <ele>2369</ele>
        <time>2018-10-17T11:51:19Z</time>
      </trkpt>
      <trkpt lat="45.80224" lon="6.42162">
        <ele>2369</ele>
        <time>2018-10-17T11:51:20Z</time>
      </trkpt>
      <trkpt lat="45.80224" lon="6.42162">
        <ele>2370</ele>
        <time>2018-10-17T11:51:21Z</time>
      </trkpt>
      <trkpt lat="45.80224" lon="6.42162">
        <ele>2370</ele>
        <time>2018-10-17T11:51:22Z</time>
      </trkpt>
      <trkpt lat="45.80224" lon="6.42159">
        <ele>2371</ele>
        <time>2018-10-17T11:51:23Z</time>
      </trkpt>
      <trkpt lat="45.80224" lon="6.42159">
        <ele>2371</ele>
        <time>2018-10-17T11:51:24Z</time>
      </trkpt>
      <trkpt lat="45.80224" lon="6.42159">
        <ele>2371</ele>
        <time>2018-10-17T11:51:25Z</time>
      </trkpt>
      <trkpt lat="45.80224" lon="6.42157">
        <ele>2371</ele>
        <time>2018-10-17T11:51:26Z</time>
      </trkpt>
      <trkpt lat="45.80224" lon="6.42157">
        <ele>2371</ele>
        <time>2018-10-17T11:51:27Z</time>
      </trkpt>
      <trkpt lat="45.80224" lon="6.42157">
        <ele>2371</ele>
        <time>2018-10-17T11:51:28Z</time>
      </trkpt>
      <trkpt lat="45.80224" lon="6.42157">
        <ele>2373</ele>
        <time>2018-10-17T11:51:29Z</time>
      </trkpt>
      <trkpt lat="45.80224" lon="6.42154">
        <ele>2373</ele>
        <time>2018-10-17T11:51:30Z</time>
      </trkpt>
      <trkpt lat="45.80224" lon="6.42154">
        <ele>2373</ele>
        <time>2018-10-17T11:51:31Z</time>
      </trkpt>
      <trkpt lat="45.80224" lon="6.42154">
        <ele>2373</ele>
        <time>2018-10-17T11:51:32Z</time>
      </trkpt>
      <trkpt lat="45.80224" lon="6.42154">
        <ele>2373</ele>
        <time>2018-10-17T11:51:33Z</time>
      </trkpt>
      <trkpt lat="45.80224" lon="6.42154">
        <ele>2373</ele>
        <time>2018-10-17T11:51:34Z</time>
      </trkpt>
      <trkpt lat="45.80224" lon="6.42154">
        <ele>2373</ele>
        <time>2018-10-17T11:51:35Z</time>
      </trkpt>
      <trkpt lat="45.80224" lon="6.42154">
        <ele>2373</ele>
        <time>2018-10-17T11:51:36Z</time>
      </trkpt>
      <trkpt lat="45.80224" lon="6.42154">
        <ele>2373</ele>
        <time>2018-10-17T11:51:37Z</time>
      </trkpt>
      <trkpt lat="45.80224" lon="6.42154">
        <ele>2374</ele>
        <time>2018-10-17T11:51:38Z</time>
      </trkpt>
      <trkpt lat="45.80224" lon="6.42154">
        <ele>2374</ele>
        <time>2018-10-17T11:51:39Z</time>
      </trkpt>
      <trkpt lat="45.80223" lon="6.42151">
        <ele>2374</ele>
        <time>2018-10-17T11:51:40Z</time>
      </trkpt>
      <trkpt lat="45.80223" lon="6.42151">
        <ele>2374</ele>
        <time>2018-10-17T11:51:41Z</time>
      </trkpt>
      <trkpt lat="45.80223" lon="6.42151">
        <ele>2374</ele>
        <time>2018-10-17T11:51:42Z</time>
      </trkpt>
      <trkpt lat="45.80223" lon="6.42151">
        <ele>2375</ele>
        <time>2018-10-17T11:51:43Z</time>
      </trkpt>
      <trkpt lat="45.80223" lon="6.42151">
        <ele>2375</ele>
        <time>2018-10-17T11:51:44Z</time>
      </trkpt>
      <trkpt lat="45.80223" lon="6.42148">
        <ele>2376</ele>
        <time>2018-10-17T11:51:45Z</time>
      </trkpt>
      <trkpt lat="45.80223" lon="6.42148">
        <ele>2376</ele>
        <time>2018-10-17T11:51:46Z</time>
      </trkpt>
      <trkpt lat="45.80223" lon="6.42148">
        <ele>2377</ele>
        <time>2018-10-17T11:51:47Z</time>
      </trkpt>
      <trkpt lat="45.80223" lon="6.42148">
        <ele>2377</ele>
        <time>2018-10-17T11:51:48Z</time>
      </trkpt>
      <trkpt lat="45.80223" lon="6.42148">
        <ele>2377</ele>
        <time>2018-10-17T11:51:49Z</time>
      </trkpt>
      <trkpt lat="45.80223" lon="6.42148">
        <ele>2377</ele>
        <time>2018-10-17T11:51:50Z</time>
      </trkpt>
      <trkpt lat="45.80223" lon="6.42148">
        <ele>2377</ele>
        <time>2018-10-17T11:51:51Z</time>
      </trkpt>
      <trkpt lat="45.80223" lon="6.42148">
        <ele>2377</ele>
        <time>2018-10-17T11:51:52Z</time>
      </trkpt>
      <trkpt lat="45.80224" lon="6.42145">
        <ele>2378</ele>
        <time>2018-10-17T11:51:53Z</time>
      </trkpt>
      <trkpt lat="45.80224" lon="6.42145">
        <ele>2378</ele>
        <time>2018-10-17T11:51:54Z</time>
      </trkpt>
      <trkpt lat="45.80224" lon="6.42145">
        <ele>2378</ele>
        <time>2018-10-17T11:51:55Z</time>
      </trkpt>
      <trkpt lat="45.80224" lon="6.42145">
        <ele>2378</ele>
        <time>2018-10-17T11:51:56Z</time>
      </trkpt>
      <trkpt lat="45.80224" lon="6.42145">
        <ele>2378</ele>
        <time>2018-10-17T11:51:57Z</time>
      </trkpt>
      <trkpt lat="45.80224" lon="6.42142">
        <ele>2378</ele>
        <time>2018-10-17T11:51:58Z</time>
      </trkpt>
      <trkpt lat="45.80224" lon="6.42142">
        <ele>2378</ele>
        <time>2018-10-17T11:51:59Z</time>
      </trkpt>
      <trkpt lat="45.80224" lon="6.42142">
        <ele>2379</ele>
        <time>2018-10-17T11:52:00Z</time>
      </trkpt>
      <trkpt lat="45.80224" lon="6.42142">
        <ele>2379</ele>
        <time>2018-10-17T11:52:01Z</time>
      </trkpt>
      <trkpt lat="45.80225" lon="6.42139">
        <ele>2380</ele>
        <time>2018-10-17T11:52:02Z</time>
      </trkpt>
      <trkpt lat="45.80225" lon="6.42139">
        <ele>2380</ele>
        <time>2018-10-17T11:52:03Z</time>
      </trkpt>
      <trkpt lat="45.80225" lon="6.42139">
        <ele>2380</ele>
        <time>2018-10-17T11:52:04Z</time>
      </trkpt>
      <trkpt lat="45.80225" lon="6.42139">
        <ele>2380</ele>
        <time>2018-10-17T11:52:05Z</time>
      </trkpt>
      <trkpt lat="45.80225" lon="6.42136">
        <ele>2380</ele>
        <time>2018-10-17T11:52:06Z</time>
      </trkpt>
      <trkpt lat="45.80225" lon="6.42136">
        <ele>2380</ele>
        <time>2018-10-17T11:52:07Z</time>
      </trkpt>
      <trkpt lat="45.80225" lon="6.42136">
        <ele>2380</ele>
        <time>2018-10-17T11:52:08Z</time>
      </trkpt>
      <trkpt lat="45.80225" lon="6.42136">
        <ele>2380</ele>
        <time>2018-10-17T11:52:09Z</time>
      </trkpt>
      <trkpt lat="45.80225" lon="6.42133">
        <ele>2380</ele>
        <time>2018-10-17T11:52:10Z</time>
      </trkpt>
      <trkpt lat="45.80225" lon="6.42133">
        <ele>2381</ele>
        <time>2018-10-17T11:52:11Z</time>
      </trkpt>
      <trkpt lat="45.80225" lon="6.42133">
        <ele>2381</ele>
        <time>2018-10-17T11:52:12Z</time>
      </trkpt>
      <trkpt lat="45.80225" lon="6.42133">
        <ele>2381</ele>
        <time>2018-10-17T11:52:13Z</time>
      </trkpt>
      <trkpt lat="45.80226" lon="6.42131">
        <ele>2382</ele>
        <time>2018-10-17T11:52:14Z</time>
      </trkpt>
      <trkpt lat="45.80226" lon="6.42131">
        <ele>2382</ele>
        <time>2018-10-17T11:52:15Z</time>
      </trkpt>
      <trkpt lat="45.80226" lon="6.42131">
        <ele>2382</ele>
        <time>2018-10-17T11:52:16Z</time>
      </trkpt>
      <trkpt lat="45.80225" lon="6.42128">
        <ele>2382</ele>
        <time>2018-10-17T11:52:17Z</time>
      </trkpt>
      <trkpt lat="45.80225" lon="6.42128">
        <ele>2382</ele>
        <time>2018-10-17T11:52:18Z</time>
      </trkpt>
      <trkpt lat="45.80225" lon="6.42128">
        <ele>2382</ele>
        <time>2018-10-17T11:52:19Z</time>
      </trkpt>
      <trkpt lat="45.80225" lon="6.42124">
        <ele>2382</ele>
        <time>2018-10-17T11:52:20Z</time>
      </trkpt>
      <trkpt lat="45.80225" lon="6.42124">
        <ele>2382</ele>
        <time>2018-10-17T11:52:21Z</time>
      </trkpt>
      <trkpt lat="45.80225" lon="6.42122">
        <ele>2383</ele>
        <time>2018-10-17T11:52:22Z</time>
      </trkpt>
      <trkpt lat="45.80225" lon="6.42122">
        <ele>2383</ele>
        <time>2018-10-17T11:52:23Z</time>
      </trkpt>
      <trkpt lat="45.80225" lon="6.42122">
        <ele>2384</ele>
        <time>2018-10-17T11:52:24Z</time>
      </trkpt>
      <trkpt lat="45.80225" lon="6.42118">
        <ele>2384</ele>
        <time>2018-10-17T11:52:25Z</time>
      </trkpt>
      <trkpt lat="45.80225" lon="6.42118">
        <ele>2385</ele>
        <time>2018-10-17T11:52:26Z</time>
      </trkpt>
      <trkpt lat="45.80225" lon="6.42115">
        <ele>2385</ele>
        <time>2018-10-17T11:52:27Z</time>
      </trkpt>
      <trkpt lat="45.80225" lon="6.42115">
        <ele>2385</ele>
        <time>2018-10-17T11:52:28Z</time>
      </trkpt>
      <trkpt lat="45.80225" lon="6.42115">
        <ele>2385</ele>
        <time>2018-10-17T11:52:29Z</time>
      </trkpt>
      <trkpt lat="45.80225" lon="6.42112">
        <ele>2385</ele>
        <time>2018-10-17T11:52:30Z</time>
      </trkpt>
      <trkpt lat="45.80225" lon="6.42112">
        <ele>2385</ele>
        <time>2018-10-17T11:52:31Z</time>
      </trkpt>
      <trkpt lat="45.80225" lon="6.42112">
        <ele>2385</ele>
        <time>2018-10-17T11:52:32Z</time>
      </trkpt>
      <trkpt lat="45.80225" lon="6.42108">
        <ele>2386</ele>
        <time>2018-10-17T11:52:33Z</time>
      </trkpt>
      <trkpt lat="45.80225" lon="6.42108">
        <ele>2386</ele>
        <time>2018-10-17T11:52:34Z</time>
      </trkpt>
      <trkpt lat="45.80225" lon="6.42106">
        <ele>2386</ele>
        <time>2018-10-17T11:52:35Z</time>
      </trkpt>
      <trkpt lat="45.80225" lon="6.42106">
        <ele>2386</ele>
        <time>2018-10-17T11:52:36Z</time>
      </trkpt>
      <trkpt lat="45.80225" lon="6.42106">
        <ele>2386</ele>
        <time>2018-10-17T11:52:37Z</time>
      </trkpt>
      <trkpt lat="45.80226" lon="6.42102">
        <ele>2386</ele>
        <time>2018-10-17T11:52:38Z</time>
      </trkpt>
      <trkpt lat="45.80226" lon="6.42102">
        <ele>2387</ele>
        <time>2018-10-17T11:52:39Z</time>
      </trkpt>
      <trkpt lat="45.80226" lon="6.42102">
        <ele>2387</ele>
        <time>2018-10-17T11:52:40Z</time>
      </trkpt>
      <trkpt lat="45.80226" lon="6.42099">
        <ele>2387</ele>
        <time>2018-10-17T11:52:41Z</time>
      </trkpt>
      <trkpt lat="45.80226" lon="6.42099">
        <ele>2387</ele>
        <time>2018-10-17T11:52:42Z</time>
      </trkpt>
      <trkpt lat="45.80226" lon="6.42099">
        <ele>2386</ele>
        <time>2018-10-17T11:52:43Z</time>
      </trkpt>
      <trkpt lat="45.80226" lon="6.42095">
        <ele>2386</ele>
        <time>2018-10-17T11:52:44Z</time>
      </trkpt>
      <trkpt lat="45.80226" lon="6.42095">
        <ele>2387</ele>
        <time>2018-10-17T11:52:45Z</time>
      </trkpt>
      <trkpt lat="45.80226" lon="6.42095">
        <ele>2387</ele>
        <time>2018-10-17T11:52:46Z</time>
      </trkpt>
      <trkpt lat="45.80227" lon="6.42092">
        <ele>2387</ele>
        <time>2018-10-17T11:52:47Z</time>
      </trkpt>
      <trkpt lat="45.80227" lon="6.42092">
        <ele>2387</ele>
        <time>2018-10-17T11:52:48Z</time>
      </trkpt>
      <trkpt lat="45.80227" lon="6.42092">
        <ele>2387</ele>
        <time>2018-10-17T11:52:49Z</time>
      </trkpt>
      <trkpt lat="45.80228" lon="6.4209">
        <ele>2388</ele>
        <time>2018-10-17T11:52:50Z</time>
      </trkpt>
      <trkpt lat="45.80228" lon="6.4209">
        <ele>2388</ele>
        <time>2018-10-17T11:52:51Z</time>
      </trkpt>
      <trkpt lat="45.80228" lon="6.4209">
        <ele>2388</ele>
        <time>2018-10-17T11:52:52Z</time>
      </trkpt>
      <trkpt lat="45.80229" lon="6.42086">
        <ele>2388</ele>
        <time>2018-10-17T11:52:53Z</time>
      </trkpt>
      <trkpt lat="45.80229" lon="6.42086">
        <ele>2389</ele>
        <time>2018-10-17T11:52:54Z</time>
      </trkpt>
      <trkpt lat="45.80229" lon="6.42086">
        <ele>2389</ele>
        <time>2018-10-17T11:52:55Z</time>
      </trkpt>
      <trkpt lat="45.8023" lon="6.42083">
        <ele>2389</ele>
        <time>2018-10-17T11:52:56Z</time>
      </trkpt>
      <trkpt lat="45.8023" lon="6.42083">
        <ele>2389</ele>
        <time>2018-10-17T11:52:57Z</time>
      </trkpt>
      <trkpt lat="45.8023" lon="6.42083">
        <ele>2390</ele>
        <time>2018-10-17T11:52:58Z</time>
      </trkpt>
      <trkpt lat="45.8023" lon="6.4208">
        <ele>2390</ele>
        <time>2018-10-17T11:52:59Z</time>
      </trkpt>
      <trkpt lat="45.8023" lon="6.4208">
        <ele>2390</ele>
        <time>2018-10-17T11:53:00Z</time>
      </trkpt>
      <trkpt lat="45.8023" lon="6.4208">
        <ele>2390</ele>
        <time>2018-10-17T11:53:01Z</time>
      </trkpt>
      <trkpt lat="45.8023" lon="6.4208">
        <ele>2390</ele>
        <time>2018-10-17T11:53:02Z</time>
      </trkpt>
      <trkpt lat="45.8023" lon="6.42078">
        <ele>2391</ele>
        <time>2018-10-17T11:53:03Z</time>
      </trkpt>
      <trkpt lat="45.8023" lon="6.42078">
        <ele>2392</ele>
        <time>2018-10-17T11:53:04Z</time>
      </trkpt>
      <trkpt lat="45.8023" lon="6.42078">
        <ele>2392</ele>
        <time>2018-10-17T11:53:05Z</time>
      </trkpt>
      <trkpt lat="45.80232" lon="6.42076">
        <ele>2392</ele>
        <time>2018-10-17T11:53:06Z</time>
      </trkpt>
      <trkpt lat="45.80232" lon="6.42076">
        <ele>2392</ele>
        <time>2018-10-17T11:53:07Z</time>
      </trkpt>
      <trkpt lat="45.80232" lon="6.42076">
        <ele>2392</ele>
        <time>2018-10-17T11:53:08Z</time>
      </trkpt>
      <trkpt lat="45.80232" lon="6.42076">
        <ele>2392</ele>
        <time>2018-10-17T11:53:09Z</time>
      </trkpt>
      <trkpt lat="45.80232" lon="6.42076">
        <ele>2392</ele>
        <time>2018-10-17T11:53:10Z</time>
      </trkpt>
      <trkpt lat="45.80233" lon="6.42073">
        <ele>2392</ele>
        <time>2018-10-17T11:53:11Z</time>
      </trkpt>
      <trkpt lat="45.80233" lon="6.42073">
        <ele>2392</ele>
        <time>2018-10-17T11:53:12Z</time>
      </trkpt>
      <trkpt lat="45.80233" lon="6.42073">
        <ele>2392</ele>
        <time>2018-10-17T11:53:13Z</time>
      </trkpt>
      <trkpt lat="45.80233" lon="6.4207">
        <ele>2392</ele>
        <time>2018-10-17T11:53:14Z</time>
      </trkpt>
      <trkpt lat="45.80233" lon="6.4207">
        <ele>2392</ele>
        <time>2018-10-17T11:53:15Z</time>
      </trkpt>
      <trkpt lat="45.80233" lon="6.4207">
        <ele>2392</ele>
        <time>2018-10-17T11:53:16Z</time>
      </trkpt>
      <trkpt lat="45.80232" lon="6.42067">
        <ele>2392</ele>
        <time>2018-10-17T11:53:17Z</time>
      </trkpt>
      <trkpt lat="45.80232" lon="6.42067">
        <ele>2393</ele>
        <time>2018-10-17T11:53:18Z</time>
      </trkpt>
      <trkpt lat="45.80232" lon="6.42067">
        <ele>2393</ele>
        <time>2018-10-17T11:53:19Z</time>
      </trkpt>
      <trkpt lat="45.80232" lon="6.42067">
        <ele>2393</ele>
        <time>2018-10-17T11:53:20Z</time>
      </trkpt>
      <trkpt lat="45.80232" lon="6.42067">
        <ele>2393</ele>
        <time>2018-10-17T11:53:21Z</time>
      </trkpt>
      <trkpt lat="45.80232" lon="6.42067">
        <ele>2393</ele>
        <time>2018-10-17T11:53:22Z</time>
      </trkpt>
      <trkpt lat="45.80232" lon="6.42067">
        <ele>2393</ele>
        <time>2018-10-17T11:53:23Z</time>
      </trkpt>
      <trkpt lat="45.80232" lon="6.42067">
        <ele>2393</ele>
        <time>2018-10-17T11:53:24Z</time>
      </trkpt>
      <trkpt lat="45.80232" lon="6.42067">
        <ele>2393</ele>
        <time>2018-10-17T11:53:25Z</time>
      </trkpt>
      <trkpt lat="45.80233" lon="6.42064">
        <ele>2394</ele>
        <time>2018-10-17T11:53:26Z</time>
      </trkpt>
      <trkpt lat="45.80233" lon="6.42064">
        <ele>2394</ele>
        <time>2018-10-17T11:53:27Z</time>
      </trkpt>
      <trkpt lat="45.80233" lon="6.42064">
        <ele>2394</ele>
        <time>2018-10-17T11:53:28Z</time>
      </trkpt>
      <trkpt lat="45.80233" lon="6.42064">
        <ele>2395</ele>
        <time>2018-10-17T11:53:29Z</time>
      </trkpt>
      <trkpt lat="45.80233" lon="6.42061">
        <ele>2395</ele>
        <time>2018-10-17T11:53:30Z</time>
      </trkpt>
      <trkpt lat="45.80233" lon="6.42061">
        <ele>2395</ele>
        <time>2018-10-17T11:53:31Z</time>
      </trkpt>
      <trkpt lat="45.80233" lon="6.42061">
        <ele>2396</ele>
        <time>2018-10-17T11:53:32Z</time>
      </trkpt>
      <trkpt lat="45.80233" lon="6.42059">
        <ele>2396</ele>
        <time>2018-10-17T11:53:33Z</time>
      </trkpt>
      <trkpt lat="45.80233" lon="6.42059">
        <ele>2396</ele>
        <time>2018-10-17T11:53:34Z</time>
      </trkpt>
      <trkpt lat="45.80233" lon="6.42059">
        <ele>2396</ele>
        <time>2018-10-17T11:53:35Z</time>
      </trkpt>
      <trkpt lat="45.80234" lon="6.42056">
        <ele>2396</ele>
        <time>2018-10-17T11:53:36Z</time>
      </trkpt>
      <trkpt lat="45.80234" lon="6.42056">
        <ele>2397</ele>
        <time>2018-10-17T11:53:37Z</time>
      </trkpt>
      <trkpt lat="45.80234" lon="6.42056">
        <ele>2397</ele>
        <time>2018-10-17T11:53:38Z</time>
      </trkpt>
      <trkpt lat="45.80233" lon="6.42053">
        <ele>2398</ele>
        <time>2018-10-17T11:53:39Z</time>
      </trkpt>
      <trkpt lat="45.80233" lon="6.42053">
        <ele>2398</ele>
        <time>2018-10-17T11:53:40Z</time>
      </trkpt>
      <trkpt lat="45.80233" lon="6.42053">
        <ele>2398</ele>
        <time>2018-10-17T11:53:41Z</time>
      </trkpt>
      <trkpt lat="45.80234" lon="6.4205">
        <ele>2398</ele>
        <time>2018-10-17T11:53:42Z</time>
      </trkpt>
      <trkpt lat="45.80234" lon="6.4205">
        <ele>2398</ele>
        <time>2018-10-17T11:53:43Z</time>
      </trkpt>
      <trkpt lat="45.80234" lon="6.4205">
        <ele>2399</ele>
        <time>2018-10-17T11:53:44Z</time>
      </trkpt>
      <trkpt lat="45.80234" lon="6.42046">
        <ele>2399</ele>
        <time>2018-10-17T11:53:45Z</time>
      </trkpt>
      <trkpt lat="45.80234" lon="6.42046">
        <ele>2400</ele>
        <time>2018-10-17T11:53:46Z</time>
      </trkpt>
      <trkpt lat="45.80234" lon="6.42046">
        <ele>2400</ele>
        <time>2018-10-17T11:53:47Z</time>
      </trkpt>
      <trkpt lat="45.80233" lon="6.42043">
        <ele>2400</ele>
        <time>2018-10-17T11:53:48Z</time>
      </trkpt>
      <trkpt lat="45.80233" lon="6.42043">
        <ele>2400</ele>
        <time>2018-10-17T11:53:49Z</time>
      </trkpt>
      <trkpt lat="45.80233" lon="6.42043">
        <ele>2400</ele>
        <time>2018-10-17T11:53:50Z</time>
      </trkpt>
      <trkpt lat="45.80233" lon="6.42039">
        <ele>2400</ele>
        <time>2018-10-17T11:53:51Z</time>
      </trkpt>
      <trkpt lat="45.80233" lon="6.42039">
        <ele>2400</ele>
        <time>2018-10-17T11:53:52Z</time>
      </trkpt>
      <trkpt lat="45.80234" lon="6.42036">
        <ele>2401</ele>
        <time>2018-10-17T11:53:53Z</time>
      </trkpt>
      <trkpt lat="45.80234" lon="6.42036">
        <ele>2401</ele>
        <time>2018-10-17T11:53:54Z</time>
      </trkpt>
      <trkpt lat="45.80234" lon="6.42036">
        <ele>2401</ele>
        <time>2018-10-17T11:53:55Z</time>
      </trkpt>
      <trkpt lat="45.80235" lon="6.42033">
        <ele>2401</ele>
        <time>2018-10-17T11:53:56Z</time>
      </trkpt>
      <trkpt lat="45.80235" lon="6.42033">
        <ele>2401</ele>
        <time>2018-10-17T11:53:57Z</time>
      </trkpt>
      <trkpt lat="45.80235" lon="6.42033">
        <ele>2401</ele>
        <time>2018-10-17T11:53:58Z</time>
      </trkpt>
      <trkpt lat="45.80236" lon="6.42031">
        <ele>2402</ele>
        <time>2018-10-17T11:53:59Z</time>
      </trkpt>
      <trkpt lat="45.80236" lon="6.42031">
        <ele>2402</ele>
        <time>2018-10-17T11:54:00Z</time>
      </trkpt>
      <trkpt lat="45.80236" lon="6.42031">
        <ele>2402</ele>
        <time>2018-10-17T11:54:01Z</time>
      </trkpt>
      <trkpt lat="45.80236" lon="6.42031">
        <ele>2402</ele>
        <time>2018-10-17T11:54:02Z</time>
      </trkpt>
      <trkpt lat="45.80236" lon="6.42031">
        <ele>2402</ele>
        <time>2018-10-17T11:54:03Z</time>
      </trkpt>
      <trkpt lat="45.80236" lon="6.42031">
        <ele>2402</ele>
        <time>2018-10-17T11:54:04Z</time>
      </trkpt>
      <trkpt lat="45.80236" lon="6.42031">
        <ele>2402</ele>
        <time>2018-10-17T11:54:05Z</time>
      </trkpt>
      <trkpt lat="45.80236" lon="6.42031">
        <ele>2402</ele>
        <time>2018-10-17T11:54:06Z</time>
      </trkpt>
      <trkpt lat="45.80236" lon="6.42031">
        <ele>2402</ele>
        <time>2018-10-17T11:54:07Z</time>
      </trkpt>
      <trkpt lat="45.80236" lon="6.42031">
        <ele>2402</ele>
        <time>2018-10-17T11:54:08Z</time>
      </trkpt>
      <trkpt lat="45.80236" lon="6.42028">
        <ele>2402</ele>
        <time>2018-10-17T11:54:09Z</time>
      </trkpt>
      <trkpt lat="45.80236" lon="6.42028">
        <ele>2403</ele>
        <time>2018-10-17T11:54:10Z</time>
      </trkpt>
      <trkpt lat="45.80237" lon="6.42026">
        <ele>2403</ele>
        <time>2018-10-17T11:54:11Z</time>
      </trkpt>
      <trkpt lat="45.80237" lon="6.42026">
        <ele>2404</ele>
        <time>2018-10-17T11:54:12Z</time>
      </trkpt>
      <trkpt lat="45.80237" lon="6.42026">
        <ele>2404</ele>
        <time>2018-10-17T11:54:13Z</time>
      </trkpt>
      <trkpt lat="45.80238" lon="6.42023">
        <ele>2405</ele>
        <time>2018-10-17T11:54:14Z</time>
      </trkpt>
      <trkpt lat="45.80238" lon="6.42023">
        <ele>2405</ele>
        <time>2018-10-17T11:54:15Z</time>
      </trkpt>
      <trkpt lat="45.80238" lon="6.42023">
        <ele>2404</ele>
        <time>2018-10-17T11:54:16Z</time>
      </trkpt>
      <trkpt lat="45.80238" lon="6.42023">
        <ele>2404</ele>
        <time>2018-10-17T11:54:17Z</time>
      </trkpt>
      <trkpt lat="45.80236" lon="6.42021">
        <ele>2404</ele>
        <time>2018-10-17T11:54:18Z</time>
      </trkpt>
      <trkpt lat="45.80236" lon="6.42021">
        <ele>2404</ele>
        <time>2018-10-17T11:54:19Z</time>
      </trkpt>
      <trkpt lat="45.80236" lon="6.42021">
        <ele>2404</ele>
        <time>2018-10-17T11:54:20Z</time>
      </trkpt>
      <trkpt lat="45.80236" lon="6.42021">
        <ele>2405</ele>
        <time>2018-10-17T11:54:21Z</time>
      </trkpt>
      <trkpt lat="45.80236" lon="6.42021">
        <ele>2405</ele>
        <time>2018-10-17T11:54:22Z</time>
      </trkpt>
      <trkpt lat="45.80236" lon="6.42021">
        <ele>2405</ele>
        <time>2018-10-17T11:54:23Z</time>
      </trkpt>
      <trkpt lat="45.80238" lon="6.42022">
        <ele>2405</ele>
        <time>2018-10-17T11:54:24Z</time>
      </trkpt>
      <trkpt lat="45.80238" lon="6.42022">
        <ele>2405</ele>
        <time>2018-10-17T11:54:25Z</time>
      </trkpt>
      <trkpt lat="45.80238" lon="6.42022">
        <ele>2405</ele>
        <time>2018-10-17T11:54:26Z</time>
      </trkpt>
      <trkpt lat="45.80238" lon="6.42022">
        <ele>2405</ele>
        <time>2018-10-17T11:54:27Z</time>
      </trkpt>
      <trkpt lat="45.80238" lon="6.42022">
        <ele>2405</ele>
        <time>2018-10-17T11:54:28Z</time>
      </trkpt>
      <trkpt lat="45.80238" lon="6.42022">
        <ele>2406</ele>
        <time>2018-10-17T11:54:29Z</time>
      </trkpt>
      <trkpt lat="45.80238" lon="6.42022">
        <ele>2406</ele>
        <time>2018-10-17T11:54:30Z</time>
      </trkpt>
      <trkpt lat="45.80238" lon="6.42022">
        <ele>2406</ele>
        <time>2018-10-17T11:54:31Z</time>
      </trkpt>
      <trkpt lat="45.80238" lon="6.42022">
        <ele>2406</ele>
        <time>2018-10-17T11:54:32Z</time>
      </trkpt>
      <trkpt lat="45.80238" lon="6.42022">
        <ele>2406</ele>
        <time>2018-10-17T11:54:33Z</time>
      </trkpt>
      <trkpt lat="45.80238" lon="6.42022">
        <ele>2405</ele>
        <time>2018-10-17T11:54:34Z</time>
      </trkpt>
      <trkpt lat="45.80238" lon="6.42022">
        <ele>2403</ele>
        <time>2018-10-17T11:54:35Z</time>
      </trkpt>
      <trkpt lat="45.80238" lon="6.42022">
        <ele>2405</ele>
        <time>2018-10-17T11:54:36Z</time>
      </trkpt>
      <trkpt lat="45.80238" lon="6.42022">
        <ele>2405</ele>
        <time>2018-10-17T11:54:37Z</time>
      </trkpt>
      <trkpt lat="45.80238" lon="6.42022">
        <ele>2405</ele>
        <time>2018-10-17T11:54:38Z</time>
      </trkpt>
      <trkpt lat="45.80238" lon="6.42022">
        <ele>2405</ele>
        <time>2018-10-17T11:54:39Z</time>
      </trkpt>
      <trkpt lat="45.80238" lon="6.42022">
        <ele>2405</ele>
        <time>2018-10-17T11:54:40Z</time>
      </trkpt>
      <trkpt lat="45.80238" lon="6.42022">
        <ele>2405</ele>
        <time>2018-10-17T11:54:41Z</time>
      </trkpt>
      <trkpt lat="45.80238" lon="6.42022">
        <ele>2405</ele>
        <time>2018-10-17T11:54:42Z</time>
      </trkpt>
      <trkpt lat="45.80238" lon="6.42022">
        <ele>2405</ele>
        <time>2018-10-17T11:54:43Z</time>
      </trkpt>
      <trkpt lat="45.80238" lon="6.42022">
        <ele>2405</ele>
        <time>2018-10-17T11:54:44Z</time>
      </trkpt>
      <trkpt lat="45.80238" lon="6.42022">
        <ele>2405</ele>
        <time>2018-10-17T11:54:45Z</time>
      </trkpt>
      <trkpt lat="45.80238" lon="6.42022">
        <ele>2405</ele>
        <time>2018-10-17T11:54:46Z</time>
      </trkpt>
      <trkpt lat="45.80238" lon="6.42022">
        <ele>2405</ele>
        <time>2018-10-17T11:54:47Z</time>
      </trkpt>
      <trkpt lat="45.80238" lon="6.42022">
        <ele>2405</ele>
        <time>2018-10-17T11:54:48Z</time>
      </trkpt>
      <trkpt lat="45.80238" lon="6.42022">
        <ele>2405</ele>
        <time>2018-10-17T11:54:49Z</time>
      </trkpt>
      <trkpt lat="45.80238" lon="6.42022">
        <ele>2405</ele>
        <time>2018-10-17T11:54:50Z</time>
      </trkpt>
      <trkpt lat="45.80238" lon="6.42022">
        <ele>2405</ele>
        <time>2018-10-17T11:54:51Z</time>
      </trkpt>
      <trkpt lat="45.80238" lon="6.42022">
        <ele>2405</ele>
        <time>2018-10-17T11:54:52Z</time>
      </trkpt>
      <trkpt lat="45.80238" lon="6.42022">
        <ele>2405</ele>
        <time>2018-10-17T11:54:53Z</time>
      </trkpt>
      <trkpt lat="45.80238" lon="6.42022">
        <ele>2405</ele>
        <time>2018-10-17T11:54:54Z</time>
      </trkpt>
      <trkpt lat="45.80238" lon="6.42022">
        <ele>2405</ele>
        <time>2018-10-17T11:54:55Z</time>
      </trkpt>
      <trkpt lat="45.80238" lon="6.42022">
        <ele>2405</ele>
        <time>2018-10-17T11:54:56Z</time>
      </trkpt>
      <trkpt lat="45.80238" lon="6.42022">
        <ele>2405</ele>
        <time>2018-10-17T11:54:57Z</time>
      </trkpt>
      <trkpt lat="45.80238" lon="6.42022">
        <ele>2405</ele>
        <time>2018-10-17T11:54:58Z</time>
      </trkpt>
      <trkpt lat="45.80238" lon="6.42022">
        <ele>2405</ele>
        <time>2018-10-17T11:54:59Z</time>
      </trkpt>
      <trkpt lat="45.80238" lon="6.42022">
        <ele>2405</ele>
        <time>2018-10-17T11:55:00Z</time>
      </trkpt>
      <trkpt lat="45.80238" lon="6.42022">
        <ele>2405</ele>
        <time>2018-10-17T11:55:01Z</time>
      </trkpt>
      <trkpt lat="45.80238" lon="6.42022">
        <ele>2405</ele>
        <time>2018-10-17T11:55:02Z</time>
      </trkpt>
      <trkpt lat="45.80238" lon="6.42022">
        <ele>2405</ele>
        <time>2018-10-17T11:55:03Z</time>
      </trkpt>
      <trkpt lat="45.80238" lon="6.42022">
        <ele>2405</ele>
        <time>2018-10-17T11:55:04Z</time>
      </trkpt>
      <trkpt lat="45.80238" lon="6.42022">
        <ele>2405</ele>
        <time>2018-10-17T11:55:05Z</time>
      </trkpt>
      <trkpt lat="45.80238" lon="6.42022">
        <ele>2405</ele>
        <time>2018-10-17T11:55:06Z</time>
      </trkpt>
      <trkpt lat="45.80238" lon="6.42022">
        <ele>2404</ele>
        <time>2018-10-17T11:55:07Z</time>
      </trkpt>
      <trkpt lat="45.80238" lon="6.42022">
        <ele>2404</ele>
        <time>2018-10-17T11:55:08Z</time>
      </trkpt>
      <trkpt lat="45.80238" lon="6.42022">
        <ele>2404</ele>
        <time>2018-10-17T11:55:09Z</time>
      </trkpt>
      <trkpt lat="45.80238" lon="6.42022">
        <ele>2404</ele>
        <time>2018-10-17T11:55:10Z</time>
      </trkpt>
      <trkpt lat="45.80238" lon="6.42022">
        <ele>2404</ele>
        <time>2018-10-17T11:55:11Z</time>
      </trkpt>
      <trkpt lat="45.80238" lon="6.42022">
        <ele>2404</ele>
        <time>2018-10-17T11:55:12Z</time>
      </trkpt>
      <trkpt lat="45.80238" lon="6.42022">
        <ele>2404</ele>
        <time>2018-10-17T11:55:13Z</time>
      </trkpt>
      <trkpt lat="45.80238" lon="6.42022">
        <ele>2405</ele>
        <time>2018-10-17T11:55:14Z</time>
      </trkpt>
      <trkpt lat="45.80238" lon="6.42022">
        <ele>2405</ele>
        <time>2018-10-17T11:55:15Z</time>
      </trkpt>
      <trkpt lat="45.80236" lon="6.4202">
        <ele>2405</ele>
        <time>2018-10-17T11:55:16Z</time>
      </trkpt>
      <trkpt lat="45.80236" lon="6.4202">
        <ele>2405</ele>
        <time>2018-10-17T11:55:17Z</time>
      </trkpt>
      <trkpt lat="45.80236" lon="6.4202">
        <ele>2405</ele>
        <time>2018-10-17T11:55:18Z</time>
      </trkpt>
      <trkpt lat="45.80236" lon="6.4202">
        <ele>2405</ele>
        <time>2018-10-17T11:55:19Z</time>
      </trkpt>
      <trkpt lat="45.80236" lon="6.4202">
        <ele>2405</ele>
        <time>2018-10-17T11:55:20Z</time>
      </trkpt>
      <trkpt lat="45.80236" lon="6.4202">
        <ele>2405</ele>
        <time>2018-10-17T11:55:21Z</time>
      </trkpt>
      <trkpt lat="45.80236" lon="6.4202">
        <ele>2405</ele>
        <time>2018-10-17T11:55:22Z</time>
      </trkpt>
      <trkpt lat="45.80236" lon="6.4202">
        <ele>2404</ele>
        <time>2018-10-17T11:55:23Z</time>
      </trkpt>
      <trkpt lat="45.80236" lon="6.42017">
        <ele>2404</ele>
        <time>2018-10-17T11:55:24Z</time>
      </trkpt>
      <trkpt lat="45.80236" lon="6.42017">
        <ele>2404</ele>
        <time>2018-10-17T11:55:25Z</time>
      </trkpt>
      <trkpt lat="45.80236" lon="6.42017">
        <ele>2404</ele>
        <time>2018-10-17T11:55:26Z</time>
      </trkpt>
      <trkpt lat="45.80236" lon="6.42014">
        <ele>2404</ele>
        <time>2018-10-17T11:55:27Z</time>
      </trkpt>
      <trkpt lat="45.80236" lon="6.42014">
        <ele>2404</ele>
        <time>2018-10-17T11:55:28Z</time>
      </trkpt>
      <trkpt lat="45.80236" lon="6.42014">
        <ele>2404</ele>
        <time>2018-10-17T11:55:29Z</time>
      </trkpt>
      <trkpt lat="45.80236" lon="6.42014">
        <ele>2404</ele>
        <time>2018-10-17T11:55:30Z</time>
      </trkpt>
      <trkpt lat="45.80236" lon="6.42014">
        <ele>2404</ele>
        <time>2018-10-17T11:55:31Z</time>
      </trkpt>
      <trkpt lat="45.80236" lon="6.42014">
        <ele>2404</ele>
        <time>2018-10-17T11:55:32Z</time>
      </trkpt>
      <trkpt lat="45.80236" lon="6.42014">
        <ele>2404</ele>
        <time>2018-10-17T11:55:33Z</time>
      </trkpt>
      <trkpt lat="45.80236" lon="6.42014">
        <ele>2404</ele>
        <time>2018-10-17T11:55:34Z</time>
      </trkpt>
      <trkpt lat="45.80236" lon="6.42014">
        <ele>2405</ele>
        <time>2018-10-17T11:55:35Z</time>
      </trkpt>
      <trkpt lat="45.80236" lon="6.42014">
        <ele>2405</ele>
        <time>2018-10-17T11:55:36Z</time>
      </trkpt>
      <trkpt lat="45.80236" lon="6.42014">
        <ele>2405</ele>
        <time>2018-10-17T11:55:37Z</time>
      </trkpt>
      <trkpt lat="45.80236" lon="6.42014">
        <ele>2405</ele>
        <time>2018-10-17T11:55:38Z</time>
      </trkpt>
      <trkpt lat="45.80236" lon="6.42014">
        <ele>2405</ele>
        <time>2018-10-17T11:55:39Z</time>
      </trkpt>
      <trkpt lat="45.80236" lon="6.42014">
        <ele>2405</ele>
        <time>2018-10-17T11:55:40Z</time>
      </trkpt>
      <trkpt lat="45.80236" lon="6.42014">
        <ele>2405</ele>
        <time>2018-10-17T11:55:41Z</time>
      </trkpt>
      <trkpt lat="45.80236" lon="6.42014">
        <ele>2405</ele>
        <time>2018-10-17T11:55:42Z</time>
      </trkpt>
      <trkpt lat="45.80236" lon="6.42014">
        <ele>2405</ele>
        <time>2018-10-17T11:55:43Z</time>
      </trkpt>
      <trkpt lat="45.80236" lon="6.42014">
        <ele>2405</ele>
        <time>2018-10-17T11:55:44Z</time>
      </trkpt>
      <trkpt lat="45.80236" lon="6.42014">
        <ele>2405</ele>
        <time>2018-10-17T11:55:45Z</time>
      </trkpt>
      <trkpt lat="45.80236" lon="6.42014">
        <ele>2405</ele>
        <time>2018-10-17T11:55:46Z</time>
      </trkpt>
      <trkpt lat="45.80236" lon="6.42014">
        <ele>2405</ele>
        <time>2018-10-17T11:55:47Z</time>
      </trkpt>
      <trkpt lat="45.80236" lon="6.42014">
        <ele>2405</ele>
        <time>2018-10-17T11:55:48Z</time>
      </trkpt>
      <trkpt lat="45.80236" lon="6.42014">
        <ele>2405</ele>
        <time>2018-10-17T11:55:49Z</time>
      </trkpt>
      <trkpt lat="45.80236" lon="6.42014">
        <ele>2405</ele>
        <time>2018-10-17T11:55:50Z</time>
      </trkpt>
      <trkpt lat="45.80236" lon="6.42014">
        <ele>2405</ele>
        <time>2018-10-17T11:55:51Z</time>
      </trkpt>
      <trkpt lat="45.80236" lon="6.42014">
        <ele>2405</ele>
        <time>2018-10-17T11:55:52Z</time>
      </trkpt>
      <trkpt lat="45.80236" lon="6.42014">
        <ele>2405</ele>
        <time>2018-10-17T11:55:53Z</time>
      </trkpt>
      <trkpt lat="45.80236" lon="6.42014">
        <ele>2405</ele>
        <time>2018-10-17T11:55:54Z</time>
      </trkpt>
      <trkpt lat="45.80236" lon="6.42014">
        <ele>2405</ele>
        <time>2018-10-17T11:55:55Z</time>
      </trkpt>
      <trkpt lat="45.80236" lon="6.42014">
        <ele>2405</ele>
        <time>2018-10-17T11:55:56Z</time>
      </trkpt>
      <trkpt lat="45.80236" lon="6.42014">
        <ele>2405</ele>
        <time>2018-10-17T11:55:57Z</time>
      </trkpt>
      <trkpt lat="45.80236" lon="6.42014">
        <ele>2405</ele>
        <time>2018-10-17T11:55:58Z</time>
      </trkpt>
      <trkpt lat="45.80236" lon="6.42014">
        <ele>2405</ele>
        <time>2018-10-17T11:55:59Z</time>
      </trkpt>
      <trkpt lat="45.80236" lon="6.42014">
        <ele>2405</ele>
        <time>2018-10-17T11:56:00Z</time>
      </trkpt>
      <trkpt lat="45.80236" lon="6.42014">
        <ele>2405</ele>
        <time>2018-10-17T11:56:01Z</time>
      </trkpt>
      <trkpt lat="45.80236" lon="6.42014">
        <ele>2405</ele>
        <time>2018-10-17T11:56:02Z</time>
      </trkpt>
      <trkpt lat="45.80236" lon="6.42014">
        <ele>2405</ele>
        <time>2018-10-17T11:56:03Z</time>
      </trkpt>
      <trkpt lat="45.80236" lon="6.42014">
        <ele>2405</ele>
        <time>2018-10-17T11:56:04Z</time>
      </trkpt>
      <trkpt lat="45.80236" lon="6.42014">
        <ele>2405</ele>
        <time>2018-10-17T11:56:05Z</time>
      </trkpt>
      <trkpt lat="45.80236" lon="6.42014">
        <ele>2405</ele>
        <time>2018-10-17T11:56:06Z</time>
      </trkpt>
      <trkpt lat="45.80236" lon="6.42014">
        <ele>2405</ele>
        <time>2018-10-17T11:56:07Z</time>
      </trkpt>
      <trkpt lat="45.80236" lon="6.42014">
        <ele>2405</ele>
        <time>2018-10-17T11:56:08Z</time>
      </trkpt>
      <trkpt lat="45.80236" lon="6.42014">
        <ele>2405</ele>
        <time>2018-10-17T11:56:09Z</time>
      </trkpt>
      <trkpt lat="45.80236" lon="6.42014">
        <ele>2405</ele>
        <time>2018-10-17T11:56:10Z</time>
      </trkpt>
      <trkpt lat="45.80236" lon="6.42014">
        <ele>2405</ele>
        <time>2018-10-17T11:56:11Z</time>
      </trkpt>
      <trkpt lat="45.80236" lon="6.42014">
        <ele>2405</ele>
        <time>2018-10-17T11:56:12Z</time>
      </trkpt>
      <trkpt lat="45.80236" lon="6.42014">
        <ele>2406</ele>
        <time>2018-10-17T11:56:13Z</time>
      </trkpt>
      <trkpt lat="45.80236" lon="6.42014">
        <ele>2406</ele>
        <time>2018-10-17T11:56:14Z</time>
      </trkpt>
      <trkpt lat="45.80236" lon="6.42014">
        <ele>2406</ele>
        <time>2018-10-17T11:56:15Z</time>
      </trkpt>
      <trkpt lat="45.80236" lon="6.42014">
        <ele>2406</ele>
        <time>2018-10-17T11:56:16Z</time>
      </trkpt>
      <trkpt lat="45.80236" lon="6.42014">
        <ele>2406</ele>
        <time>2018-10-17T11:56:17Z</time>
      </trkpt>
      <trkpt lat="45.80236" lon="6.42014">
        <ele>2406</ele>
        <time>2018-10-17T11:56:18Z</time>
      </trkpt>
      <trkpt lat="45.80236" lon="6.42014">
        <ele>2406</ele>
        <time>2018-10-17T11:56:19Z</time>
      </trkpt>
      <trkpt lat="45.80236" lon="6.42014">
        <ele>2406</ele>
        <time>2018-10-17T11:56:20Z</time>
      </trkpt>
      <trkpt lat="45.80236" lon="6.42014">
        <ele>2406</ele>
        <time>2018-10-17T11:56:21Z</time>
      </trkpt>
      <trkpt lat="45.80236" lon="6.42014">
        <ele>2406</ele>
        <time>2018-10-17T11:56:22Z</time>
      </trkpt>
      <trkpt lat="45.80236" lon="6.42014">
        <ele>2406</ele>
        <time>2018-10-17T11:56:23Z</time>
      </trkpt>
      <trkpt lat="45.80236" lon="6.42014">
        <ele>2406</ele>
        <time>2018-10-17T11:56:24Z</time>
      </trkpt>
      <trkpt lat="45.80236" lon="6.42014">
        <ele>2406</ele>
        <time>2018-10-17T11:56:25Z</time>
      </trkpt>
      <trkpt lat="45.80236" lon="6.42014">
        <ele>2406</ele>
        <time>2018-10-17T11:56:26Z</time>
      </trkpt>
      <trkpt lat="45.80236" lon="6.42014">
        <ele>2406</ele>
        <time>2018-10-17T11:56:27Z</time>
      </trkpt>
      <trkpt lat="45.80236" lon="6.42014">
        <ele>2406</ele>
        <time>2018-10-17T11:56:28Z</time>
      </trkpt>
      <trkpt lat="45.80236" lon="6.42014">
        <ele>2406</ele>
        <time>2018-10-17T11:56:29Z</time>
      </trkpt>
      <trkpt lat="45.80236" lon="6.42014">
        <ele>2406</ele>
        <time>2018-10-17T11:56:30Z</time>
      </trkpt>
      <trkpt lat="45.80236" lon="6.42014">
        <ele>2406</ele>
        <time>2018-10-17T11:56:31Z</time>
      </trkpt>
      <trkpt lat="45.80236" lon="6.42014">
        <ele>2406</ele>
        <time>2018-10-17T11:56:32Z</time>
      </trkpt>
      <trkpt lat="45.80236" lon="6.42014">
        <ele>2406</ele>
        <time>2018-10-17T11:56:33Z</time>
      </trkpt>
      <trkpt lat="45.80236" lon="6.42014">
        <ele>2406</ele>
        <time>2018-10-17T11:56:34Z</time>
      </trkpt>
      <trkpt lat="45.80236" lon="6.42014">
        <ele>2406</ele>
        <time>2018-10-17T11:56:35Z</time>
      </trkpt>
      <trkpt lat="45.80236" lon="6.42014">
        <ele>2406</ele>
        <time>2018-10-17T11:56:36Z</time>
      </trkpt>
      <trkpt lat="45.80236" lon="6.42014">
        <ele>2406</ele>
        <time>2018-10-17T11:56:37Z</time>
      </trkpt>
      <trkpt lat="45.80236" lon="6.42014">
        <ele>2406</ele>
        <time>2018-10-17T11:56:38Z</time>
      </trkpt>
      <trkpt lat="45.80236" lon="6.42014">
        <ele>2406</ele>
        <time>2018-10-17T11:56:39Z</time>
      </trkpt>
      <trkpt lat="45.80236" lon="6.42014">
        <ele>2406</ele>
        <time>2018-10-17T11:56:40Z</time>
      </trkpt>
      <trkpt lat="45.80236" lon="6.42014">
        <ele>2405</ele>
        <time>2018-10-17T11:56:41Z</time>
      </trkpt>
      <trkpt lat="45.80236" lon="6.42014">
        <ele>2405</ele>
        <time>2018-10-17T11:56:42Z</time>
      </trkpt>
      <trkpt lat="45.80236" lon="6.42014">
        <ele>2405</ele>
        <time>2018-10-17T11:56:43Z</time>
      </trkpt>
      <trkpt lat="45.80236" lon="6.42014">
        <ele>2405</ele>
        <time>2018-10-17T11:56:44Z</time>
      </trkpt>
      <trkpt lat="45.80236" lon="6.42014">
        <ele>2405</ele>
        <time>2018-10-17T11:56:45Z</time>
      </trkpt>
      <trkpt lat="45.80236" lon="6.42014">
        <ele>2405</ele>
        <time>2018-10-17T11:56:46Z</time>
      </trkpt>
      <trkpt lat="45.80236" lon="6.42014">
        <ele>2405</ele>
        <time>2018-10-17T11:56:47Z</time>
      </trkpt>
      <trkpt lat="45.80236" lon="6.42014">
        <ele>2404</ele>
        <time>2018-10-17T11:56:48Z</time>
      </trkpt>
      <trkpt lat="45.80236" lon="6.42014">
        <ele>2405</ele>
        <time>2018-10-17T11:56:49Z</time>
      </trkpt>
      <trkpt lat="45.80236" lon="6.42014">
        <ele>2405</ele>
        <time>2018-10-17T11:56:50Z</time>
      </trkpt>
      <trkpt lat="45.80236" lon="6.42014">
        <ele>2405</ele>
        <time>2018-10-17T11:56:51Z</time>
      </trkpt>
      <trkpt lat="45.80236" lon="6.42014">
        <ele>2405</ele>
        <time>2018-10-17T11:56:52Z</time>
      </trkpt>
      <trkpt lat="45.80236" lon="6.42014">
        <ele>2406</ele>
        <time>2018-10-17T11:56:53Z</time>
      </trkpt>
      <trkpt lat="45.80236" lon="6.42014">
        <ele>2406</ele>
        <time>2018-10-17T11:56:54Z</time>
      </trkpt>
      <trkpt lat="45.80236" lon="6.42014">
        <ele>2406</ele>
        <time>2018-10-17T11:56:55Z</time>
      </trkpt>
      <trkpt lat="45.80236" lon="6.42014">
        <ele>2406</ele>
        <time>2018-10-17T11:56:56Z</time>
      </trkpt>
      <trkpt lat="45.80236" lon="6.42014">
        <ele>2406</ele>
        <time>2018-10-17T11:56:57Z</time>
      </trkpt>
      <trkpt lat="45.80236" lon="6.42014">
        <ele>2406</ele>
        <time>2018-10-17T11:56:58Z</time>
      </trkpt>
      <trkpt lat="45.80236" lon="6.42014">
        <ele>2405</ele>
        <time>2018-10-17T11:56:59Z</time>
      </trkpt>
      <trkpt lat="45.80236" lon="6.42014">
        <ele>2405</ele>
        <time>2018-10-17T11:57:00Z</time>
      </trkpt>
      <trkpt lat="45.80236" lon="6.42014">
        <ele>2405</ele>
        <time>2018-10-17T11:57:01Z</time>
      </trkpt>
      <trkpt lat="45.80236" lon="6.42014">
        <ele>2405</ele>
        <time>2018-10-17T11:57:02Z</time>
      </trkpt>
      <trkpt lat="45.80236" lon="6.42014">
        <ele>2405</ele>
        <time>2018-10-17T11:57:03Z</time>
      </trkpt>
      <trkpt lat="45.80236" lon="6.42014">
        <ele>2405</ele>
        <time>2018-10-17T11:57:04Z</time>
      </trkpt>
      <trkpt lat="45.80236" lon="6.42014">
        <ele>2405</ele>
        <time>2018-10-17T11:57:05Z</time>
      </trkpt>
      <trkpt lat="45.80236" lon="6.42014">
        <ele>2405</ele>
        <time>2018-10-17T11:57:06Z</time>
      </trkpt>
      <trkpt lat="45.80236" lon="6.42014">
        <ele>2405</ele>
        <time>2018-10-17T11:57:07Z</time>
      </trkpt>
      <trkpt lat="45.80236" lon="6.42014">
        <ele>2405</ele>
        <time>2018-10-17T11:57:08Z</time>
      </trkpt>
      <trkpt lat="45.80236" lon="6.42014">
        <ele>2405</ele>
        <time>2018-10-17T11:57:09Z</time>
      </trkpt>
      <trkpt lat="45.80236" lon="6.42014">
        <ele>2405</ele>
        <time>2018-10-17T11:57:10Z</time>
      </trkpt>
      <trkpt lat="45.80236" lon="6.42014">
        <ele>2405</ele>
        <time>2018-10-17T11:57:11Z</time>
      </trkpt>
      <trkpt lat="45.80236" lon="6.42014">
        <ele>2406</ele>
        <time>2018-10-17T11:57:12Z</time>
      </trkpt>
      <trkpt lat="45.80236" lon="6.42014">
        <ele>2406</ele>
        <time>2018-10-17T11:57:13Z</time>
      </trkpt>
      <trkpt lat="45.80236" lon="6.42014">
        <ele>2406</ele>
        <time>2018-10-17T11:57:14Z</time>
      </trkpt>
      <trkpt lat="45.80236" lon="6.42014">
        <ele>2406</ele>
        <time>2018-10-17T11:57:15Z</time>
      </trkpt>
      <trkpt lat="45.80236" lon="6.42014">
        <ele>2406</ele>
        <time>2018-10-17T11:57:16Z</time>
      </trkpt>
      <trkpt lat="45.80236" lon="6.42014">
        <ele>2406</ele>
        <time>2018-10-17T11:57:17Z</time>
      </trkpt>
      <trkpt lat="45.80236" lon="6.42014">
        <ele>2406</ele>
        <time>2018-10-17T11:57:18Z</time>
      </trkpt>
      <trkpt lat="45.80236" lon="6.42014">
        <ele>2406</ele>
        <time>2018-10-17T11:57:19Z</time>
      </trkpt>
      <trkpt lat="45.80236" lon="6.42014">
        <ele>2406</ele>
        <time>2018-10-17T11:57:20Z</time>
      </trkpt>
      <trkpt lat="45.80236" lon="6.42014">
        <ele>2406</ele>
        <time>2018-10-17T11:57:21Z</time>
      </trkpt>
      <trkpt lat="45.80236" lon="6.42014">
        <ele>2406</ele>
        <time>2018-10-17T11:57:22Z</time>
      </trkpt>
      <trkpt lat="45.80236" lon="6.42014">
        <ele>2406</ele>
        <time>2018-10-17T11:57:23Z</time>
      </trkpt>
      <trkpt lat="45.80236" lon="6.42014">
        <ele>2406</ele>
        <time>2018-10-17T11:57:24Z</time>
      </trkpt>
      <trkpt lat="45.80236" lon="6.42014">
        <ele>2406</ele>
        <time>2018-10-17T11:57:25Z</time>
      </trkpt>
      <trkpt lat="45.80236" lon="6.42014">
        <ele>2406</ele>
        <time>2018-10-17T11:57:26Z</time>
      </trkpt>
      <trkpt lat="45.80236" lon="6.42014">
        <ele>2405</ele>
        <time>2018-10-17T11:57:27Z</time>
      </trkpt>
      <trkpt lat="45.80236" lon="6.42014">
        <ele>2405</ele>
        <time>2018-10-17T11:57:28Z</time>
      </trkpt>
      <trkpt lat="45.80236" lon="6.42014">
        <ele>2404</ele>
        <time>2018-10-17T11:57:29Z</time>
      </trkpt>
      <trkpt lat="45.80236" lon="6.42014">
        <ele>2404</ele>
        <time>2018-10-17T11:57:30Z</time>
      </trkpt>
      <trkpt lat="45.80236" lon="6.42014">
        <ele>2404</ele>
        <time>2018-10-17T11:57:31Z</time>
      </trkpt>
      <trkpt lat="45.80236" lon="6.42014">
        <ele>2404</ele>
        <time>2018-10-17T11:57:32Z</time>
      </trkpt>
      <trkpt lat="45.80236" lon="6.42014">
        <ele>2404</ele>
        <time>2018-10-17T11:57:33Z</time>
      </trkpt>
      <trkpt lat="45.80236" lon="6.42014">
        <ele>2404</ele>
        <time>2018-10-17T11:57:34Z</time>
      </trkpt>
      <trkpt lat="45.80236" lon="6.42014">
        <ele>2404</ele>
        <time>2018-10-17T11:57:35Z</time>
      </trkpt>
      <trkpt lat="45.80236" lon="6.42014">
        <ele>2404</ele>
        <time>2018-10-17T11:57:36Z</time>
      </trkpt>
      <trkpt lat="45.80236" lon="6.42014">
        <ele>2405</ele>
        <time>2018-10-17T11:57:37Z</time>
      </trkpt>
      <trkpt lat="45.80236" lon="6.42014">
        <ele>2405</ele>
        <time>2018-10-17T11:57:38Z</time>
      </trkpt>
      <trkpt lat="45.80236" lon="6.42014">
        <ele>2406</ele>
        <time>2018-10-17T11:57:39Z</time>
      </trkpt>
      <trkpt lat="45.80236" lon="6.42014">
        <ele>2406</ele>
        <time>2018-10-17T11:57:40Z</time>
      </trkpt>
      <trkpt lat="45.80236" lon="6.42014">
        <ele>2406</ele>
        <time>2018-10-17T11:57:41Z</time>
      </trkpt>
      <trkpt lat="45.80236" lon="6.42014">
        <ele>2406</ele>
        <time>2018-10-17T11:57:42Z</time>
      </trkpt>
      <trkpt lat="45.80236" lon="6.42014">
        <ele>2405</ele>
        <time>2018-10-17T11:57:43Z</time>
      </trkpt>
      <trkpt lat="45.80236" lon="6.42014">
        <ele>2405</ele>
        <time>2018-10-17T11:57:44Z</time>
      </trkpt>
      <trkpt lat="45.80236" lon="6.42014">
        <ele>2405</ele>
        <time>2018-10-17T11:57:45Z</time>
      </trkpt>
      <trkpt lat="45.80236" lon="6.42014">
        <ele>2405</ele>
        <time>2018-10-17T11:57:46Z</time>
      </trkpt>
      <trkpt lat="45.80236" lon="6.42014">
        <ele>2405</ele>
        <time>2018-10-17T11:57:47Z</time>
      </trkpt>
      <trkpt lat="45.80236" lon="6.42014">
        <ele>2405</ele>
        <time>2018-10-17T11:57:48Z</time>
      </trkpt>
      <trkpt lat="45.80236" lon="6.42014">
        <ele>2405</ele>
        <time>2018-10-17T11:57:49Z</time>
      </trkpt>
      <trkpt lat="45.80236" lon="6.42014">
        <ele>2405</ele>
        <time>2018-10-17T11:57:50Z</time>
      </trkpt>
      <trkpt lat="45.80236" lon="6.42014">
        <ele>2405</ele>
        <time>2018-10-17T11:57:51Z</time>
      </trkpt>
      <trkpt lat="45.80236" lon="6.42014">
        <ele>2405</ele>
        <time>2018-10-17T11:57:52Z</time>
      </trkpt>
      <trkpt lat="45.80236" lon="6.42014">
        <ele>2405</ele>
        <time>2018-10-17T11:57:53Z</time>
      </trkpt>
      <trkpt lat="45.80236" lon="6.42014">
        <ele>2405</ele>
        <time>2018-10-17T11:57:54Z</time>
      </trkpt>
      <trkpt lat="45.80236" lon="6.42014">
        <ele>2405</ele>
        <time>2018-10-17T11:57:55Z</time>
      </trkpt>
      <trkpt lat="45.80236" lon="6.42014">
        <ele>2405</ele>
        <time>2018-10-17T11:57:56Z</time>
      </trkpt>
      <trkpt lat="45.80236" lon="6.42014">
        <ele>2406</ele>
        <time>2018-10-17T11:57:57Z</time>
      </trkpt>
      <trkpt lat="45.80236" lon="6.42014">
        <ele>2406</ele>
        <time>2018-10-17T11:57:58Z</time>
      </trkpt>
      <trkpt lat="45.80236" lon="6.42014">
        <ele>2406</ele>
        <time>2018-10-17T11:57:59Z</time>
      </trkpt>
      <trkpt lat="45.80236" lon="6.42014">
        <ele>2406</ele>
        <time>2018-10-17T11:58:00Z</time>
      </trkpt>
      <trkpt lat="45.80236" lon="6.42014">
        <ele>2405</ele>
        <time>2018-10-17T11:58:01Z</time>
      </trkpt>
      <trkpt lat="45.80236" lon="6.42014">
        <ele>2405</ele>
        <time>2018-10-17T11:58:02Z</time>
      </trkpt>
      <trkpt lat="45.80236" lon="6.42014">
        <ele>2405</ele>
        <time>2018-10-17T11:58:03Z</time>
      </trkpt>
      <trkpt lat="45.80236" lon="6.42014">
        <ele>2406</ele>
        <time>2018-10-17T11:58:04Z</time>
      </trkpt>
      <trkpt lat="45.80236" lon="6.42014">
        <ele>2406</ele>
        <time>2018-10-17T11:58:05Z</time>
      </trkpt>
      <trkpt lat="45.80236" lon="6.42014">
        <ele>2406</ele>
        <time>2018-10-17T11:58:06Z</time>
      </trkpt>
      <trkpt lat="45.80236" lon="6.42014">
        <ele>2406</ele>
        <time>2018-10-17T11:58:07Z</time>
      </trkpt>
      <trkpt lat="45.80236" lon="6.42014">
        <ele>2406</ele>
        <time>2018-10-17T11:58:08Z</time>
      </trkpt>
      <trkpt lat="45.80236" lon="6.42014">
        <ele>2406</ele>
        <time>2018-10-17T11:58:09Z</time>
      </trkpt>
      <trkpt lat="45.80236" lon="6.42014">
        <ele>2407</ele>
        <time>2018-10-17T11:58:10Z</time>
      </trkpt>
      <trkpt lat="45.80236" lon="6.42014">
        <ele>2407</ele>
        <time>2018-10-17T11:58:11Z</time>
      </trkpt>
      <trkpt lat="45.80236" lon="6.42014">
        <ele>2407</ele>
        <time>2018-10-17T11:58:12Z</time>
      </trkpt>
      <trkpt lat="45.80236" lon="6.42014">
        <ele>2406</ele>
        <time>2018-10-17T11:58:13Z</time>
      </trkpt>
      <trkpt lat="45.80236" lon="6.42014">
        <ele>2405</ele>
        <time>2018-10-17T11:58:14Z</time>
      </trkpt>
      <trkpt lat="45.80236" lon="6.42014">
        <ele>2406</ele>
        <time>2018-10-17T11:58:15Z</time>
      </trkpt>
      <trkpt lat="45.80236" lon="6.42014">
        <ele>2406</ele>
        <time>2018-10-17T11:58:16Z</time>
      </trkpt>
      <trkpt lat="45.80236" lon="6.42014">
        <ele>2406</ele>
        <time>2018-10-17T11:58:17Z</time>
      </trkpt>
      <trkpt lat="45.80236" lon="6.42014">
        <ele>2406</ele>
        <time>2018-10-17T11:58:18Z</time>
      </trkpt>
      <trkpt lat="45.80236" lon="6.42014">
        <ele>2406</ele>
        <time>2018-10-17T11:58:19Z</time>
      </trkpt>
      <trkpt lat="45.80236" lon="6.42014">
        <ele>2406</ele>
        <time>2018-10-17T11:58:20Z</time>
      </trkpt>
      <trkpt lat="45.80236" lon="6.42014">
        <ele>2406</ele>
        <time>2018-10-17T11:58:21Z</time>
      </trkpt>
      <trkpt lat="45.80236" lon="6.42014">
        <ele>2406</ele>
        <time>2018-10-17T11:58:22Z</time>
      </trkpt>
      <trkpt lat="45.80236" lon="6.42014">
        <ele>2406</ele>
        <time>2018-10-17T11:58:23Z</time>
      </trkpt>
      <trkpt lat="45.80236" lon="6.42014">
        <ele>2406</ele>
        <time>2018-10-17T11:58:24Z</time>
      </trkpt>
      <trkpt lat="45.80236" lon="6.42014">
        <ele>2406</ele>
        <time>2018-10-17T11:58:25Z</time>
      </trkpt>
      <trkpt lat="45.80236" lon="6.42014">
        <ele>2406</ele>
        <time>2018-10-17T11:58:26Z</time>
      </trkpt>
      <trkpt lat="45.80236" lon="6.42014">
        <ele>2406</ele>
        <time>2018-10-17T11:58:27Z</time>
      </trkpt>
      <trkpt lat="45.80236" lon="6.42014">
        <ele>2406</ele>
        <time>2018-10-17T11:58:28Z</time>
      </trkpt>
      <trkpt lat="45.80236" lon="6.42014">
        <ele>2406</ele>
        <time>2018-10-17T11:58:29Z</time>
      </trkpt>
      <trkpt lat="45.80236" lon="6.42014">
        <ele>2406</ele>
        <time>2018-10-17T11:58:30Z</time>
      </trkpt>
      <trkpt lat="45.80236" lon="6.42014">
        <ele>2406</ele>
        <time>2018-10-17T11:58:31Z</time>
      </trkpt>
      <trkpt lat="45.80236" lon="6.42014">
        <ele>2406</ele>
        <time>2018-10-17T11:58:32Z</time>
      </trkpt>
      <trkpt lat="45.80236" lon="6.42014">
        <ele>2406</ele>
        <time>2018-10-17T11:58:33Z</time>
      </trkpt>
      <trkpt lat="45.80236" lon="6.42014">
        <ele>2406</ele>
        <time>2018-10-17T11:58:34Z</time>
      </trkpt>
      <trkpt lat="45.80236" lon="6.42014">
        <ele>2406</ele>
        <time>2018-10-17T11:58:35Z</time>
      </trkpt>
      <trkpt lat="45.80236" lon="6.42014">
        <ele>2406</ele>
        <time>2018-10-17T11:58:36Z</time>
      </trkpt>
      <trkpt lat="45.80236" lon="6.42014">
        <ele>2406</ele>
        <time>2018-10-17T11:58:37Z</time>
      </trkpt>
      <trkpt lat="45.80236" lon="6.42014">
        <ele>2406</ele>
        <time>2018-10-17T11:58:38Z</time>
      </trkpt>
      <trkpt lat="45.80236" lon="6.42014">
        <ele>2406</ele>
        <time>2018-10-17T11:58:39Z</time>
      </trkpt>
      <trkpt lat="45.80236" lon="6.42014">
        <ele>2406</ele>
        <time>2018-10-17T11:58:40Z</time>
      </trkpt>
      <trkpt lat="45.80236" lon="6.42014">
        <ele>2406</ele>
        <time>2018-10-17T11:58:41Z</time>
      </trkpt>
      <trkpt lat="45.80236" lon="6.42014">
        <ele>2406</ele>
        <time>2018-10-17T11:58:42Z</time>
      </trkpt>
      <trkpt lat="45.80236" lon="6.42014">
        <ele>2406</ele>
        <time>2018-10-17T11:58:43Z</time>
      </trkpt>
      <trkpt lat="45.80236" lon="6.42014">
        <ele>2406</ele>
        <time>2018-10-17T11:58:44Z</time>
      </trkpt>
      <trkpt lat="45.80236" lon="6.42014">
        <ele>2406</ele>
        <time>2018-10-17T11:58:45Z</time>
      </trkpt>
      <trkpt lat="45.80236" lon="6.42014">
        <ele>2406</ele>
        <time>2018-10-17T11:58:46Z</time>
      </trkpt>
      <trkpt lat="45.80236" lon="6.42014">
        <ele>2406</ele>
        <time>2018-10-17T11:58:47Z</time>
      </trkpt>
      <trkpt lat="45.80236" lon="6.42014">
        <ele>2406</ele>
        <time>2018-10-17T11:58:48Z</time>
      </trkpt>
      <trkpt lat="45.80238" lon="6.42017">
        <ele>2406</ele>
        <time>2018-10-17T11:58:49Z</time>
      </trkpt>
      <trkpt lat="45.80238" lon="6.42017">
        <ele>2406</ele>
        <time>2018-10-17T11:58:50Z</time>
      </trkpt>
      <trkpt lat="45.80238" lon="6.42017">
        <ele>2406</ele>
        <time>2018-10-17T11:58:51Z</time>
      </trkpt>
      <trkpt lat="45.80238" lon="6.42017">
        <ele>2406</ele>
        <time>2018-10-17T11:58:52Z</time>
      </trkpt>
      <trkpt lat="45.80238" lon="6.42017">
        <ele>2406</ele>
        <time>2018-10-17T11:58:53Z</time>
      </trkpt>
      <trkpt lat="45.80238" lon="6.42017">
        <ele>2406</ele>
        <time>2018-10-17T11:58:54Z</time>
      </trkpt>
      <trkpt lat="45.80238" lon="6.42017">
        <ele>2406</ele>
        <time>2018-10-17T11:58:55Z</time>
      </trkpt>
      <trkpt lat="45.80238" lon="6.42017">
        <ele>2406</ele>
        <time>2018-10-17T11:58:56Z</time>
      </trkpt>
      <trkpt lat="45.80238" lon="6.42017">
        <ele>2406</ele>
        <time>2018-10-17T11:58:57Z</time>
      </trkpt>
      <trkpt lat="45.80238" lon="6.42017">
        <ele>2406</ele>
        <time>2018-10-17T11:58:58Z</time>
      </trkpt>
      <trkpt lat="45.80238" lon="6.42017">
        <ele>2406</ele>
        <time>2018-10-17T11:58:59Z</time>
      </trkpt>
      <trkpt lat="45.80238" lon="6.42017">
        <ele>2406</ele>
        <time>2018-10-17T11:59:00Z</time>
      </trkpt>
      <trkpt lat="45.80238" lon="6.42017">
        <ele>2406</ele>
        <time>2018-10-17T11:59:01Z</time>
      </trkpt>
      <trkpt lat="45.80238" lon="6.42017">
        <ele>2406</ele>
        <time>2018-10-17T11:59:02Z</time>
      </trkpt>
      <trkpt lat="45.80238" lon="6.42017">
        <ele>2406</ele>
        <time>2018-10-17T11:59:03Z</time>
      </trkpt>
      <trkpt lat="45.80238" lon="6.42017">
        <ele>2406</ele>
        <time>2018-10-17T11:59:04Z</time>
      </trkpt>
      <trkpt lat="45.80238" lon="6.42017">
        <ele>2406</ele>
        <time>2018-10-17T11:59:05Z</time>
      </trkpt>
      <trkpt lat="45.80238" lon="6.42017">
        <ele>2406</ele>
        <time>2018-10-17T11:59:06Z</time>
      </trkpt>
      <trkpt lat="45.80238" lon="6.42017">
        <ele>2406</ele>
        <time>2018-10-17T11:59:07Z</time>
      </trkpt>
      <trkpt lat="45.80238" lon="6.42017">
        <ele>2406</ele>
        <time>2018-10-17T11:59:08Z</time>
      </trkpt>
      <trkpt lat="45.80238" lon="6.42017">
        <ele>2406</ele>
        <time>2018-10-17T11:59:09Z</time>
      </trkpt>
      <trkpt lat="45.80238" lon="6.42017">
        <ele>2406</ele>
        <time>2018-10-17T11:59:10Z</time>
      </trkpt>
      <trkpt lat="45.80238" lon="6.42017">
        <ele>2405</ele>
        <time>2018-10-17T11:59:11Z</time>
      </trkpt>
      <trkpt lat="45.80238" lon="6.42017">
        <ele>2405</ele>
        <time>2018-10-17T11:59:12Z</time>
      </trkpt>
      <trkpt lat="45.80238" lon="6.42017">
        <ele>2405</ele>
        <time>2018-10-17T11:59:13Z</time>
      </trkpt>
      <trkpt lat="45.80238" lon="6.42017">
        <ele>2405</ele>
        <time>2018-10-17T11:59:14Z</time>
      </trkpt>
      <trkpt lat="45.80238" lon="6.42017">
        <ele>2405</ele>
        <time>2018-10-17T11:59:15Z</time>
      </trkpt>
      <trkpt lat="45.80238" lon="6.42017">
        <ele>2405</ele>
        <time>2018-10-17T11:59:16Z</time>
      </trkpt>
      <trkpt lat="45.80238" lon="6.42017">
        <ele>2405</ele>
        <time>2018-10-17T11:59:17Z</time>
      </trkpt>
      <trkpt lat="45.80238" lon="6.42017">
        <ele>2405</ele>
        <time>2018-10-17T11:59:18Z</time>
      </trkpt>
      <trkpt lat="45.80238" lon="6.42017">
        <ele>2405</ele>
        <time>2018-10-17T11:59:19Z</time>
      </trkpt>
      <trkpt lat="45.80238" lon="6.42017">
        <ele>2405</ele>
        <time>2018-10-17T11:59:20Z</time>
      </trkpt>
      <trkpt lat="45.80238" lon="6.42017">
        <ele>2405</ele>
        <time>2018-10-17T11:59:21Z</time>
      </trkpt>
      <trkpt lat="45.80238" lon="6.42017">
        <ele>2405</ele>
        <time>2018-10-17T11:59:22Z</time>
      </trkpt>
      <trkpt lat="45.80238" lon="6.42017">
        <ele>2405</ele>
        <time>2018-10-17T11:59:23Z</time>
      </trkpt>
      <trkpt lat="45.80238" lon="6.42017">
        <ele>2405</ele>
        <time>2018-10-17T11:59:24Z</time>
      </trkpt>
      <trkpt lat="45.80238" lon="6.42017">
        <ele>2405</ele>
        <time>2018-10-17T11:59:25Z</time>
      </trkpt>
      <trkpt lat="45.80238" lon="6.42017">
        <ele>2406</ele>
        <time>2018-10-17T11:59:26Z</time>
      </trkpt>
      <trkpt lat="45.80238" lon="6.42017">
        <ele>2406</ele>
        <time>2018-10-17T11:59:27Z</time>
      </trkpt>
      <trkpt lat="45.80238" lon="6.42017">
        <ele>2406</ele>
        <time>2018-10-17T11:59:28Z</time>
      </trkpt>
      <trkpt lat="45.80238" lon="6.42017">
        <ele>2406</ele>
        <time>2018-10-17T11:59:29Z</time>
      </trkpt>
      <trkpt lat="45.80238" lon="6.42017">
        <ele>2405</ele>
        <time>2018-10-17T11:59:30Z</time>
      </trkpt>
      <trkpt lat="45.80238" lon="6.42017">
        <ele>2405</ele>
        <time>2018-10-17T11:59:31Z</time>
      </trkpt>
      <trkpt lat="45.80238" lon="6.42017">
        <ele>2405</ele>
        <time>2018-10-17T11:59:32Z</time>
      </trkpt>
      <trkpt lat="45.80238" lon="6.42017">
        <ele>2405</ele>
        <time>2018-10-17T11:59:33Z</time>
      </trkpt>
      <trkpt lat="45.80238" lon="6.42017">
        <ele>2405</ele>
        <time>2018-10-17T11:59:34Z</time>
      </trkpt>
      <trkpt lat="45.80238" lon="6.42017">
        <ele>2405</ele>
        <time>2018-10-17T11:59:35Z</time>
      </trkpt>
      <trkpt lat="45.80238" lon="6.42017">
        <ele>2405</ele>
        <time>2018-10-17T11:59:36Z</time>
      </trkpt>
      <trkpt lat="45.80238" lon="6.42017">
        <ele>2405</ele>
        <time>2018-10-17T11:59:37Z</time>
      </trkpt>
      <trkpt lat="45.80238" lon="6.42017">
        <ele>2405</ele>
        <time>2018-10-17T11:59:38Z</time>
      </trkpt>
      <trkpt lat="45.80238" lon="6.42017">
        <ele>2405</ele>
        <time>2018-10-17T11:59:39Z</time>
      </trkpt>
      <trkpt lat="45.80238" lon="6.42017">
        <ele>2405</ele>
        <time>2018-10-17T11:59:40Z</time>
      </trkpt>
      <trkpt lat="45.80238" lon="6.42017">
        <ele>2404</ele>
        <time>2018-10-17T11:59:41Z</time>
      </trkpt>
      <trkpt lat="45.80238" lon="6.42017">
        <ele>2404</ele>
        <time>2018-10-17T11:59:42Z</time>
      </trkpt>
      <trkpt lat="45.80238" lon="6.42017">
        <ele>2404</ele>
        <time>2018-10-17T11:59:43Z</time>
      </trkpt>
      <trkpt lat="45.80238" lon="6.42017">
        <ele>2406</ele>
        <time>2018-10-17T11:59:44Z</time>
      </trkpt>
      <trkpt lat="45.80238" lon="6.42017">
        <ele>2406</ele>
        <time>2018-10-17T11:59:45Z</time>
      </trkpt>
      <trkpt lat="45.80238" lon="6.42017">
        <ele>2406</ele>
        <time>2018-10-17T11:59:46Z</time>
      </trkpt>
      <trkpt lat="45.80238" lon="6.42017">
        <ele>2406</ele>
        <time>2018-10-17T11:59:47Z</time>
      </trkpt>
      <trkpt lat="45.80238" lon="6.42017">
        <ele>2406</ele>
        <time>2018-10-17T11:59:48Z</time>
      </trkpt>
      <trkpt lat="45.80238" lon="6.42017">
        <ele>2406</ele>
        <time>2018-10-17T11:59:49Z</time>
      </trkpt>
      <trkpt lat="45.80238" lon="6.42017">
        <ele>2406</ele>
        <time>2018-10-17T11:59:50Z</time>
      </trkpt>
      <trkpt lat="45.80238" lon="6.42017">
        <ele>2406</ele>
        <time>2018-10-17T11:59:51Z</time>
      </trkpt>
      <trkpt lat="45.80238" lon="6.42017">
        <ele>2406</ele>
        <time>2018-10-17T11:59:52Z</time>
      </trkpt>
      <trkpt lat="45.80238" lon="6.42017">
        <ele>2406</ele>
        <time>2018-10-17T11:59:53Z</time>
      </trkpt>
      <trkpt lat="45.80238" lon="6.42017">
        <ele>2406</ele>
        <time>2018-10-17T11:59:54Z</time>
      </trkpt>
      <trkpt lat="45.80238" lon="6.42017">
        <ele>2405</ele>
        <time>2018-10-17T11:59:55Z</time>
      </trkpt>
      <trkpt lat="45.80238" lon="6.42017">
        <ele>2406</ele>
        <time>2018-10-17T11:59:56Z</time>
      </trkpt>
      <trkpt lat="45.80238" lon="6.42017">
        <ele>2406</ele>
        <time>2018-10-17T11:59:57Z</time>
      </trkpt>
      <trkpt lat="45.80238" lon="6.42017">
        <ele>2406</ele>
        <time>2018-10-17T11:59:58Z</time>
      </trkpt>
      <trkpt lat="45.80238" lon="6.42017">
        <ele>2406</ele>
        <time>2018-10-17T11:59:59Z</time>
      </trkpt>
      <trkpt lat="45.80238" lon="6.42017">
        <ele>2406</ele>
        <time>2018-10-17T12:00:00Z</time>
      </trkpt>
      <trkpt lat="45.80238" lon="6.42017">
        <ele>2406</ele>
        <time>2018-10-17T12:00:01Z</time>
      </trkpt>
      <trkpt lat="45.80238" lon="6.42017">
        <ele>2406</ele>
        <time>2018-10-17T12:00:02Z</time>
      </trkpt>
      <trkpt lat="45.80238" lon="6.42017">
        <ele>2405</ele>
        <time>2018-10-17T12:00:03Z</time>
      </trkpt>
      <trkpt lat="45.80238" lon="6.42017">
        <ele>2405</ele>
        <time>2018-10-17T12:00:04Z</time>
      </trkpt>
      <trkpt lat="45.80238" lon="6.42017">
        <ele>2405</ele>
        <time>2018-10-17T12:00:05Z</time>
      </trkpt>
      <trkpt lat="45.80238" lon="6.42017">
        <ele>2405</ele>
        <time>2018-10-17T12:00:06Z</time>
      </trkpt>
      <trkpt lat="45.80238" lon="6.42017">
        <ele>2405</ele>
        <time>2018-10-17T12:00:07Z</time>
      </trkpt>
      <trkpt lat="45.80238" lon="6.42017">
        <ele>2405</ele>
        <time>2018-10-17T12:00:08Z</time>
      </trkpt>
      <trkpt lat="45.80238" lon="6.42017">
        <ele>2405</ele>
        <time>2018-10-17T12:00:09Z</time>
      </trkpt>
      <trkpt lat="45.80238" lon="6.42017">
        <ele>2405</ele>
        <time>2018-10-17T12:00:10Z</time>
      </trkpt>
      <trkpt lat="45.80238" lon="6.42017">
        <ele>2405</ele>
        <time>2018-10-17T12:00:11Z</time>
      </trkpt>
      <trkpt lat="45.80238" lon="6.42017">
        <ele>2405</ele>
        <time>2018-10-17T12:00:12Z</time>
      </trkpt>
      <trkpt lat="45.80237" lon="6.42019">
        <ele>2405</ele>
        <time>2018-10-17T12:00:13Z</time>
      </trkpt>
      <trkpt lat="45.80237" lon="6.42019">
        <ele>2406</ele>
        <time>2018-10-17T12:00:14Z</time>
      </trkpt>
      <trkpt lat="45.80237" lon="6.42019">
        <ele>2406</ele>
        <time>2018-10-17T12:00:15Z</time>
      </trkpt>
      <trkpt lat="45.80237" lon="6.42019">
        <ele>2406</ele>
        <time>2018-10-17T12:00:16Z</time>
      </trkpt>
      <trkpt lat="45.80237" lon="6.42019">
        <ele>2406</ele>
        <time>2018-10-17T12:00:17Z</time>
      </trkpt>
      <trkpt lat="45.80237" lon="6.42019">
        <ele>2406</ele>
        <time>2018-10-17T12:00:18Z</time>
      </trkpt>
      <trkpt lat="45.80237" lon="6.42019">
        <ele>2406</ele>
        <time>2018-10-17T12:00:19Z</time>
      </trkpt>
      <trkpt lat="45.80237" lon="6.42019">
        <ele>2406</ele>
        <time>2018-10-17T12:00:20Z</time>
      </trkpt>
      <trkpt lat="45.80237" lon="6.42019">
        <ele>2406</ele>
        <time>2018-10-17T12:00:21Z</time>
      </trkpt>
      <trkpt lat="45.80237" lon="6.42019">
        <ele>2405</ele>
        <time>2018-10-17T12:00:22Z</time>
      </trkpt>
      <trkpt lat="45.80237" lon="6.42019">
        <ele>2406</ele>
        <time>2018-10-17T12:00:23Z</time>
      </trkpt>
      <trkpt lat="45.80237" lon="6.42019">
        <ele>2406</ele>
        <time>2018-10-17T12:00:24Z</time>
      </trkpt>
      <trkpt lat="45.80237" lon="6.42019">
        <ele>2406</ele>
        <time>2018-10-17T12:00:25Z</time>
      </trkpt>
      <trkpt lat="45.80237" lon="6.42019">
        <ele>2406</ele>
        <time>2018-10-17T12:00:26Z</time>
      </trkpt>
      <trkpt lat="45.80237" lon="6.42019">
        <ele>2406</ele>
        <time>2018-10-17T12:00:27Z</time>
      </trkpt>
      <trkpt lat="45.80237" lon="6.42019">
        <ele>2406</ele>
        <time>2018-10-17T12:00:28Z</time>
      </trkpt>
      <trkpt lat="45.80237" lon="6.42019">
        <ele>2406</ele>
        <time>2018-10-17T12:00:29Z</time>
      </trkpt>
      <trkpt lat="45.80237" lon="6.42019">
        <ele>2406</ele>
        <time>2018-10-17T12:00:30Z</time>
      </trkpt>
      <trkpt lat="45.80237" lon="6.42019">
        <ele>2405</ele>
        <time>2018-10-17T12:00:31Z</time>
      </trkpt>
      <trkpt lat="45.80237" lon="6.42019">
        <ele>2405</ele>
        <time>2018-10-17T12:00:32Z</time>
      </trkpt>
      <trkpt lat="45.80237" lon="6.42019">
        <ele>2405</ele>
        <time>2018-10-17T12:00:33Z</time>
      </trkpt>
      <trkpt lat="45.80237" lon="6.42019">
        <ele>2405</ele>
        <time>2018-10-17T12:00:34Z</time>
      </trkpt>
      <trkpt lat="45.80237" lon="6.42019">
        <ele>2405</ele>
        <time>2018-10-17T12:00:35Z</time>
      </trkpt>
      <trkpt lat="45.80237" lon="6.42019">
        <ele>2405</ele>
        <time>2018-10-17T12:00:36Z</time>
      </trkpt>
      <trkpt lat="45.80237" lon="6.42019">
        <ele>2405</ele>
        <time>2018-10-17T12:00:37Z</time>
      </trkpt>
      <trkpt lat="45.80237" lon="6.42019">
        <ele>2405</ele>
        <time>2018-10-17T12:00:38Z</time>
      </trkpt>
      <trkpt lat="45.80237" lon="6.42019">
        <ele>2405</ele>
        <time>2018-10-17T12:00:39Z</time>
      </trkpt>
      <trkpt lat="45.80237" lon="6.42019">
        <ele>2406</ele>
        <time>2018-10-17T12:00:40Z</time>
      </trkpt>
      <trkpt lat="45.80237" lon="6.42019">
        <ele>2406</ele>
        <time>2018-10-17T12:00:41Z</time>
      </trkpt>
      <trkpt lat="45.80237" lon="6.42019">
        <ele>2406</ele>
        <time>2018-10-17T12:00:42Z</time>
      </trkpt>
      <trkpt lat="45.80237" lon="6.42019">
        <ele>2406</ele>
        <time>2018-10-17T12:00:43Z</time>
      </trkpt>
      <trkpt lat="45.80237" lon="6.42019">
        <ele>2406</ele>
        <time>2018-10-17T12:00:44Z</time>
      </trkpt>
      <trkpt lat="45.80237" lon="6.42019">
        <ele>2406</ele>
        <time>2018-10-17T12:00:45Z</time>
      </trkpt>
      <trkpt lat="45.80237" lon="6.42019">
        <ele>2406</ele>
        <time>2018-10-17T12:00:46Z</time>
      </trkpt>
      <trkpt lat="45.80237" lon="6.42019">
        <ele>2406</ele>
        <time>2018-10-17T12:00:47Z</time>
      </trkpt>
      <trkpt lat="45.80237" lon="6.42019">
        <ele>2406</ele>
        <time>2018-10-17T12:00:48Z</time>
      </trkpt>
      <trkpt lat="45.80237" lon="6.42019">
        <ele>2405</ele>
        <time>2018-10-17T12:00:49Z</time>
      </trkpt>
      <trkpt lat="45.80237" lon="6.42019">
        <ele>2405</ele>
        <time>2018-10-17T12:00:50Z</time>
      </trkpt>
      <trkpt lat="45.80237" lon="6.42019">
        <ele>2405</ele>
        <time>2018-10-17T12:00:51Z</time>
      </trkpt>
      <trkpt lat="45.80237" lon="6.42019">
        <ele>2405</ele>
        <time>2018-10-17T12:00:52Z</time>
      </trkpt>
      <trkpt lat="45.80237" lon="6.42019">
        <ele>2405</ele>
        <time>2018-10-17T12:00:53Z</time>
      </trkpt>
      <trkpt lat="45.80237" lon="6.42019">
        <ele>2405</ele>
        <time>2018-10-17T12:00:54Z</time>
      </trkpt>
      <trkpt lat="45.80237" lon="6.42019">
        <ele>2405</ele>
        <time>2018-10-17T12:00:55Z</time>
      </trkpt>
      <trkpt lat="45.80237" lon="6.42019">
        <ele>2405</ele>
        <time>2018-10-17T12:00:56Z</time>
      </trkpt>
      <trkpt lat="45.80237" lon="6.42019">
        <ele>2405</ele>
        <time>2018-10-17T12:00:57Z</time>
      </trkpt>
      <trkpt lat="45.80237" lon="6.42019">
        <ele>2405</ele>
        <time>2018-10-17T12:00:58Z</time>
      </trkpt>
      <trkpt lat="45.80237" lon="6.42019">
        <ele>2405</ele>
        <time>2018-10-17T12:00:59Z</time>
      </trkpt>
      <trkpt lat="45.80236" lon="6.42017">
        <ele>2405</ele>
        <time>2018-10-17T12:01:00Z</time>
      </trkpt>
      <trkpt lat="45.80236" lon="6.42017">
        <ele>2405</ele>
        <time>2018-10-17T12:01:01Z</time>
      </trkpt>
      <trkpt lat="45.80236" lon="6.42017">
        <ele>2405</ele>
        <time>2018-10-17T12:01:02Z</time>
      </trkpt>
      <trkpt lat="45.80236" lon="6.42017">
        <ele>2405</ele>
        <time>2018-10-17T12:01:03Z</time>
      </trkpt>
      <trkpt lat="45.80236" lon="6.42017">
        <ele>2405</ele>
        <time>2018-10-17T12:01:04Z</time>
      </trkpt>
      <trkpt lat="45.80236" lon="6.42017">
        <ele>2405</ele>
        <time>2018-10-17T12:01:05Z</time>
      </trkpt>
      <trkpt lat="45.80236" lon="6.42017">
        <ele>2405</ele>
        <time>2018-10-17T12:01:06Z</time>
      </trkpt>
      <trkpt lat="45.80236" lon="6.42017">
        <ele>2405</ele>
        <time>2018-10-17T12:01:07Z</time>
      </trkpt>
      <trkpt lat="45.80236" lon="6.42017">
        <ele>2405</ele>
        <time>2018-10-17T12:01:08Z</time>
      </trkpt>
      <trkpt lat="45.80236" lon="6.42017">
        <ele>2405</ele>
        <time>2018-10-17T12:01:09Z</time>
      </trkpt>
      <trkpt lat="45.80236" lon="6.42017">
        <ele>2405</ele>
        <time>2018-10-17T12:01:10Z</time>
      </trkpt>
      <trkpt lat="45.80236" lon="6.42017">
        <ele>2405</ele>
        <time>2018-10-17T12:01:11Z</time>
      </trkpt>
      <trkpt lat="45.80236" lon="6.42017">
        <ele>2405</ele>
        <time>2018-10-17T12:01:12Z</time>
      </trkpt>
      <trkpt lat="45.80236" lon="6.42017">
        <ele>2405</ele>
        <time>2018-10-17T12:01:13Z</time>
      </trkpt>
      <trkpt lat="45.80236" lon="6.42017">
        <ele>2405</ele>
        <time>2018-10-17T12:01:14Z</time>
      </trkpt>
      <trkpt lat="45.80236" lon="6.42017">
        <ele>2405</ele>
        <time>2018-10-17T12:01:15Z</time>
      </trkpt>
      <trkpt lat="45.80236" lon="6.42017">
        <ele>2405</ele>
        <time>2018-10-17T12:01:16Z</time>
      </trkpt>
      <trkpt lat="45.80236" lon="6.42017">
        <ele>2405</ele>
        <time>2018-10-17T12:01:17Z</time>
      </trkpt>
      <trkpt lat="45.80236" lon="6.42017">
        <ele>2405</ele>
        <time>2018-10-17T12:01:18Z</time>
      </trkpt>
      <trkpt lat="45.80236" lon="6.42017">
        <ele>2405</ele>
        <time>2018-10-17T12:01:19Z</time>
      </trkpt>
      <trkpt lat="45.80236" lon="6.42017">
        <ele>2405</ele>
        <time>2018-10-17T12:01:20Z</time>
      </trkpt>
      <trkpt lat="45.80236" lon="6.42017">
        <ele>2405</ele>
        <time>2018-10-17T12:01:21Z</time>
      </trkpt>
      <trkpt lat="45.80236" lon="6.42017">
        <ele>2404</ele>
        <time>2018-10-17T12:01:22Z</time>
      </trkpt>
      <trkpt lat="45.80236" lon="6.42017">
        <ele>2404</ele>
        <time>2018-10-17T12:01:23Z</time>
      </trkpt>
      <trkpt lat="45.80236" lon="6.42017">
        <ele>2404</ele>
        <time>2018-10-17T12:01:24Z</time>
      </trkpt>
      <trkpt lat="45.80236" lon="6.42017">
        <ele>2404</ele>
        <time>2018-10-17T12:01:25Z</time>
      </trkpt>
      <trkpt lat="45.80236" lon="6.42017">
        <ele>2404</ele>
        <time>2018-10-17T12:01:26Z</time>
      </trkpt>
      <trkpt lat="45.80236" lon="6.42017">
        <ele>2404</ele>
        <time>2018-10-17T12:01:27Z</time>
      </trkpt>
      <trkpt lat="45.80236" lon="6.42017">
        <ele>2404</ele>
        <time>2018-10-17T12:01:28Z</time>
      </trkpt>
      <trkpt lat="45.80236" lon="6.42017">
        <ele>2405</ele>
        <time>2018-10-17T12:01:29Z</time>
      </trkpt>
      <trkpt lat="45.80236" lon="6.42017">
        <ele>2405</ele>
        <time>2018-10-17T12:01:30Z</time>
      </trkpt>
      <trkpt lat="45.80236" lon="6.42017">
        <ele>2405</ele>
        <time>2018-10-17T12:01:31Z</time>
      </trkpt>
      <trkpt lat="45.80236" lon="6.42017">
        <ele>2405</ele>
        <time>2018-10-17T12:01:32Z</time>
      </trkpt>
      <trkpt lat="45.80236" lon="6.42017">
        <ele>2405</ele>
        <time>2018-10-17T12:01:33Z</time>
      </trkpt>
      <trkpt lat="45.80236" lon="6.42017">
        <ele>2405</ele>
        <time>2018-10-17T12:01:34Z</time>
      </trkpt>
      <trkpt lat="45.80236" lon="6.42017">
        <ele>2405</ele>
        <time>2018-10-17T12:01:35Z</time>
      </trkpt>
      <trkpt lat="45.80236" lon="6.42017">
        <ele>2405</ele>
        <time>2018-10-17T12:01:36Z</time>
      </trkpt>
      <trkpt lat="45.80236" lon="6.42017">
        <ele>2405</ele>
        <time>2018-10-17T12:01:37Z</time>
      </trkpt>
      <trkpt lat="45.80236" lon="6.42017">
        <ele>2405</ele>
        <time>2018-10-17T12:01:38Z</time>
      </trkpt>
      <trkpt lat="45.80236" lon="6.42017">
        <ele>2405</ele>
        <time>2018-10-17T12:01:39Z</time>
      </trkpt>
      <trkpt lat="45.80236" lon="6.42017">
        <ele>2405</ele>
        <time>2018-10-17T12:01:40Z</time>
      </trkpt>
      <trkpt lat="45.80236" lon="6.42017">
        <ele>2405</ele>
        <time>2018-10-17T12:01:41Z</time>
      </trkpt>
      <trkpt lat="45.80236" lon="6.42017">
        <ele>2405</ele>
        <time>2018-10-17T12:01:42Z</time>
      </trkpt>
      <trkpt lat="45.80236" lon="6.42017">
        <ele>2405</ele>
        <time>2018-10-17T12:01:43Z</time>
      </trkpt>
      <trkpt lat="45.80236" lon="6.42017">
        <ele>2405</ele>
        <time>2018-10-17T12:01:44Z</time>
      </trkpt>
      <trkpt lat="45.80236" lon="6.42017">
        <ele>2405</ele>
        <time>2018-10-17T12:01:45Z</time>
      </trkpt>
      <trkpt lat="45.80236" lon="6.42017">
        <ele>2405</ele>
        <time>2018-10-17T12:01:46Z</time>
      </trkpt>
      <trkpt lat="45.80236" lon="6.42017">
        <ele>2405</ele>
        <time>2018-10-17T12:01:47Z</time>
      </trkpt>
      <trkpt lat="45.80236" lon="6.42017">
        <ele>2405</ele>
        <time>2018-10-17T12:01:48Z</time>
      </trkpt>
      <trkpt lat="45.80236" lon="6.42017">
        <ele>2405</ele>
        <time>2018-10-17T12:01:49Z</time>
      </trkpt>
      <trkpt lat="45.80236" lon="6.42017">
        <ele>2405</ele>
        <time>2018-10-17T12:01:50Z</time>
      </trkpt>
      <trkpt lat="45.80236" lon="6.42017">
        <ele>2404</ele>
        <time>2018-10-17T12:01:51Z</time>
      </trkpt>
      <trkpt lat="45.80236" lon="6.42017">
        <ele>2404</ele>
        <time>2018-10-17T12:01:52Z</time>
      </trkpt>
      <trkpt lat="45.80236" lon="6.42017">
        <ele>2404</ele>
        <time>2018-10-17T12:01:53Z</time>
      </trkpt>
      <trkpt lat="45.80236" lon="6.42017">
        <ele>2404</ele>
        <time>2018-10-17T12:01:54Z</time>
      </trkpt>
      <trkpt lat="45.80236" lon="6.42017">
        <ele>2404</ele>
        <time>2018-10-17T12:01:55Z</time>
      </trkpt>
      <trkpt lat="45.80236" lon="6.42017">
        <ele>2404</ele>
        <time>2018-10-17T12:01:56Z</time>
      </trkpt>
      <trkpt lat="45.80237" lon="6.42014">
        <ele>2404</ele>
        <time>2018-10-17T12:01:57Z</time>
      </trkpt>
      <trkpt lat="45.80237" lon="6.42014">
        <ele>2404</ele>
        <time>2018-10-17T12:01:58Z</time>
      </trkpt>
      <trkpt lat="45.80237" lon="6.42014">
        <ele>2404</ele>
        <time>2018-10-17T12:01:59Z</time>
      </trkpt>
      <trkpt lat="45.80238" lon="6.42012">
        <ele>2405</ele>
        <time>2018-10-17T12:02:00Z</time>
      </trkpt>
      <trkpt lat="45.80238" lon="6.42012">
        <ele>2404</ele>
        <time>2018-10-17T12:02:01Z</time>
      </trkpt>
      <trkpt lat="45.80239" lon="6.42009">
        <ele>2404</ele>
        <time>2018-10-17T12:02:02Z</time>
      </trkpt>
      <trkpt lat="45.80239" lon="6.42009">
        <ele>2404</ele>
        <time>2018-10-17T12:02:03Z</time>
      </trkpt>
      <trkpt lat="45.80242" lon="6.42006">
        <ele>2403</ele>
        <time>2018-10-17T12:02:04Z</time>
      </trkpt>
      <trkpt lat="45.80242" lon="6.42006">
        <ele>2403</ele>
        <time>2018-10-17T12:02:05Z</time>
      </trkpt>
      <trkpt lat="45.80244" lon="6.42002">
        <ele>2403</ele>
        <time>2018-10-17T12:02:06Z</time>
      </trkpt>
      <trkpt lat="45.80245" lon="6.41999">
        <ele>2401</ele>
        <time>2018-10-17T12:02:07Z</time>
      </trkpt>
      <trkpt lat="45.80246" lon="6.41998">
        <ele>2400</ele>
        <time>2018-10-17T12:02:08Z</time>
      </trkpt>
      <trkpt lat="45.80248" lon="6.41995">
        <ele>2399</ele>
        <time>2018-10-17T12:02:09Z</time>
      </trkpt>
      <trkpt lat="45.80249" lon="6.41993">
        <ele>2399</ele>
        <time>2018-10-17T12:02:10Z</time>
      </trkpt>
      <trkpt lat="45.80251" lon="6.41991">
        <ele>2398</ele>
        <time>2018-10-17T12:02:11Z</time>
      </trkpt>
      <trkpt lat="45.80252" lon="6.41989">
        <ele>2397</ele>
        <time>2018-10-17T12:02:12Z</time>
      </trkpt>
      <trkpt lat="45.80254" lon="6.41987">
        <ele>2397</ele>
        <time>2018-10-17T12:02:13Z</time>
      </trkpt>
      <trkpt lat="45.80254" lon="6.41987">
        <ele>2396</ele>
        <time>2018-10-17T12:02:14Z</time>
      </trkpt>
      <trkpt lat="45.80256" lon="6.41985">
        <ele>2396</ele>
        <time>2018-10-17T12:02:15Z</time>
      </trkpt>
      <trkpt lat="45.80256" lon="6.41985">
        <ele>2396</ele>
        <time>2018-10-17T12:02:16Z</time>
      </trkpt>
      <trkpt lat="45.80259" lon="6.41983">
        <ele>2395</ele>
        <time>2018-10-17T12:02:17Z</time>
      </trkpt>
      <trkpt lat="45.80259" lon="6.41983">
        <ele>2394</ele>
        <time>2018-10-17T12:02:18Z</time>
      </trkpt>
      <trkpt lat="45.80261" lon="6.4198">
        <ele>2393</ele>
        <time>2018-10-17T12:02:19Z</time>
      </trkpt>
      <trkpt lat="45.80261" lon="6.4198">
        <ele>2393</ele>
        <time>2018-10-17T12:02:20Z</time>
      </trkpt>
      <trkpt lat="45.80263" lon="6.41978">
        <ele>2393</ele>
        <time>2018-10-17T12:02:21Z</time>
      </trkpt>
      <trkpt lat="45.80263" lon="6.41978">
        <ele>2393</ele>
        <time>2018-10-17T12:02:22Z</time>
      </trkpt>
      <trkpt lat="45.80265" lon="6.41975">
        <ele>2392</ele>
        <time>2018-10-17T12:02:23Z</time>
      </trkpt>
      <trkpt lat="45.80265" lon="6.41975">
        <ele>2391</ele>
        <time>2018-10-17T12:02:24Z</time>
      </trkpt>
      <trkpt lat="45.80266" lon="6.41973">
        <ele>2391</ele>
        <time>2018-10-17T12:02:25Z</time>
      </trkpt>
      <trkpt lat="45.80266" lon="6.41973">
        <ele>2391</ele>
        <time>2018-10-17T12:02:26Z</time>
      </trkpt>
      <trkpt lat="45.80268" lon="6.41974">
        <ele>2391</ele>
        <time>2018-10-17T12:02:27Z</time>
      </trkpt>
      <trkpt lat="45.80268" lon="6.41974">
        <ele>2391</ele>
        <time>2018-10-17T12:02:28Z</time>
      </trkpt>
      <trkpt lat="45.80268" lon="6.41974">
        <ele>2390</ele>
        <time>2018-10-17T12:02:29Z</time>
      </trkpt>
      <trkpt lat="45.80268" lon="6.41974">
        <ele>2390</ele>
        <time>2018-10-17T12:02:30Z</time>
      </trkpt>
      <trkpt lat="45.80268" lon="6.41974">
        <ele>2390</ele>
        <time>2018-10-17T12:02:31Z</time>
      </trkpt>
      <trkpt lat="45.80268" lon="6.41974">
        <ele>2390</ele>
        <time>2018-10-17T12:02:32Z</time>
      </trkpt>
      <trkpt lat="45.80268" lon="6.41974">
        <ele>2390</ele>
        <time>2018-10-17T12:02:33Z</time>
      </trkpt>
      <trkpt lat="45.80268" lon="6.41974">
        <ele>2390</ele>
        <time>2018-10-17T12:02:34Z</time>
      </trkpt>
      <trkpt lat="45.80268" lon="6.41974">
        <ele>2390</ele>
        <time>2018-10-17T12:02:35Z</time>
      </trkpt>
      <trkpt lat="45.80268" lon="6.41974">
        <ele>2390</ele>
        <time>2018-10-17T12:02:36Z</time>
      </trkpt>
      <trkpt lat="45.80268" lon="6.41974">
        <ele>2390</ele>
        <time>2018-10-17T12:02:37Z</time>
      </trkpt>
      <trkpt lat="45.80268" lon="6.41974">
        <ele>2390</ele>
        <time>2018-10-17T12:02:38Z</time>
      </trkpt>
      <trkpt lat="45.80268" lon="6.41974">
        <ele>2390</ele>
        <time>2018-10-17T12:02:39Z</time>
      </trkpt>
      <trkpt lat="45.8027" lon="6.41972">
        <ele>2390</ele>
        <time>2018-10-17T12:02:40Z</time>
      </trkpt>
      <trkpt lat="45.8027" lon="6.41972">
        <ele>2390</ele>
        <time>2018-10-17T12:02:41Z</time>
      </trkpt>
      <trkpt lat="45.8027" lon="6.41972">
        <ele>2389</ele>
        <time>2018-10-17T12:02:42Z</time>
      </trkpt>
      <trkpt lat="45.80272" lon="6.4197">
        <ele>2388</ele>
        <time>2018-10-17T12:02:43Z</time>
      </trkpt>
      <trkpt lat="45.80272" lon="6.4197">
        <ele>2388</ele>
        <time>2018-10-17T12:02:44Z</time>
      </trkpt>
      <trkpt lat="45.80272" lon="6.4197">
        <ele>2388</ele>
        <time>2018-10-17T12:02:45Z</time>
      </trkpt>
      <trkpt lat="45.80274" lon="6.4197">
        <ele>2387</ele>
        <time>2018-10-17T12:02:46Z</time>
      </trkpt>
      <trkpt lat="45.80274" lon="6.4197">
        <ele>2387</ele>
        <time>2018-10-17T12:02:47Z</time>
      </trkpt>
      <trkpt lat="45.80274" lon="6.4197">
        <ele>2387</ele>
        <time>2018-10-17T12:02:48Z</time>
      </trkpt>
      <trkpt lat="45.80276" lon="6.41968">
        <ele>2387</ele>
        <time>2018-10-17T12:02:49Z</time>
      </trkpt>
      <trkpt lat="45.80276" lon="6.41968">
        <ele>2386</ele>
        <time>2018-10-17T12:02:50Z</time>
      </trkpt>
      <trkpt lat="45.80276" lon="6.41968">
        <ele>2386</ele>
        <time>2018-10-17T12:02:51Z</time>
      </trkpt>
      <trkpt lat="45.80278" lon="6.41966">
        <ele>2386</ele>
        <time>2018-10-17T12:02:52Z</time>
      </trkpt>
      <trkpt lat="45.80278" lon="6.41966">
        <ele>2386</ele>
        <time>2018-10-17T12:02:53Z</time>
      </trkpt>
      <trkpt lat="45.80278" lon="6.41966">
        <ele>2385</ele>
        <time>2018-10-17T12:02:54Z</time>
      </trkpt>
      <trkpt lat="45.8028" lon="6.41966">
        <ele>2384</ele>
        <time>2018-10-17T12:02:55Z</time>
      </trkpt>
      <trkpt lat="45.8028" lon="6.41966">
        <ele>2384</ele>
        <time>2018-10-17T12:02:56Z</time>
      </trkpt>
      <trkpt lat="45.8028" lon="6.41966">
        <ele>2384</ele>
        <time>2018-10-17T12:02:57Z</time>
      </trkpt>
      <trkpt lat="45.80281" lon="6.41964">
        <ele>2384</ele>
        <time>2018-10-17T12:02:58Z</time>
      </trkpt>
      <trkpt lat="45.80281" lon="6.41964">
        <ele>2383</ele>
        <time>2018-10-17T12:02:59Z</time>
      </trkpt>
      <trkpt lat="45.80281" lon="6.41964">
        <ele>2382</ele>
        <time>2018-10-17T12:03:00Z</time>
      </trkpt>
      <trkpt lat="45.80284" lon="6.41964">
        <ele>2382</ele>
        <time>2018-10-17T12:03:01Z</time>
      </trkpt>
      <trkpt lat="45.80284" lon="6.41964">
        <ele>2382</ele>
        <time>2018-10-17T12:03:02Z</time>
      </trkpt>
      <trkpt lat="45.80284" lon="6.41964">
        <ele>2382</ele>
        <time>2018-10-17T12:03:03Z</time>
      </trkpt>
      <trkpt lat="45.80285" lon="6.41961">
        <ele>2382</ele>
        <time>2018-10-17T12:03:04Z</time>
      </trkpt>
      <trkpt lat="45.80285" lon="6.41961">
        <ele>2381</ele>
        <time>2018-10-17T12:03:05Z</time>
      </trkpt>
      <trkpt lat="45.80287" lon="6.41962">
        <ele>2381</ele>
        <time>2018-10-17T12:03:06Z</time>
      </trkpt>
      <trkpt lat="45.80287" lon="6.41962">
        <ele>2380</ele>
        <time>2018-10-17T12:03:07Z</time>
      </trkpt>
      <trkpt lat="45.80287" lon="6.41962">
        <ele>2380</ele>
        <time>2018-10-17T12:03:08Z</time>
      </trkpt>
      <trkpt lat="45.80287" lon="6.41962">
        <ele>2380</ele>
        <time>2018-10-17T12:03:09Z</time>
      </trkpt>
      <trkpt lat="45.80287" lon="6.41962">
        <ele>2379</ele>
        <time>2018-10-17T12:03:10Z</time>
      </trkpt>
      <trkpt lat="45.80288" lon="6.4196">
        <ele>2379</ele>
        <time>2018-10-17T12:03:11Z</time>
      </trkpt>
      <trkpt lat="45.80288" lon="6.4196">
        <ele>2379</ele>
        <time>2018-10-17T12:03:12Z</time>
      </trkpt>
      <trkpt lat="45.80288" lon="6.4196">
        <ele>2378</ele>
        <time>2018-10-17T12:03:13Z</time>
      </trkpt>
      <trkpt lat="45.80291" lon="6.41958">
        <ele>2378</ele>
        <time>2018-10-17T12:03:14Z</time>
      </trkpt>
      <trkpt lat="45.80291" lon="6.41958">
        <ele>2378</ele>
        <time>2018-10-17T12:03:15Z</time>
      </trkpt>
      <trkpt lat="45.80293" lon="6.41958">
        <ele>2378</ele>
        <time>2018-10-17T12:03:16Z</time>
      </trkpt>
      <trkpt lat="45.80293" lon="6.41958">
        <ele>2377</ele>
        <time>2018-10-17T12:03:17Z</time>
      </trkpt>
      <trkpt lat="45.80297" lon="6.41957">
        <ele>2376</ele>
        <time>2018-10-17T12:03:18Z</time>
      </trkpt>
      <trkpt lat="45.80298" lon="6.41956">
        <ele>2376</ele>
        <time>2018-10-17T12:03:19Z</time>
      </trkpt>
      <trkpt lat="45.80298" lon="6.41956">
        <ele>2375</ele>
        <time>2018-10-17T12:03:20Z</time>
      </trkpt>
      <trkpt lat="45.80301" lon="6.41955">
        <ele>2374</ele>
        <time>2018-10-17T12:03:21Z</time>
      </trkpt>
      <trkpt lat="45.80301" lon="6.41955">
        <ele>2374</ele>
        <time>2018-10-17T12:03:22Z</time>
      </trkpt>
      <trkpt lat="45.80304" lon="6.41953">
        <ele>2373</ele>
        <time>2018-10-17T12:03:23Z</time>
      </trkpt>
      <trkpt lat="45.80304" lon="6.41953">
        <ele>2372</ele>
        <time>2018-10-17T12:03:24Z</time>
      </trkpt>
      <trkpt lat="45.80307" lon="6.41953">
        <ele>2371</ele>
        <time>2018-10-17T12:03:25Z</time>
      </trkpt>
      <trkpt lat="45.80307" lon="6.41953">
        <ele>2371</ele>
        <time>2018-10-17T12:03:26Z</time>
      </trkpt>
      <trkpt lat="45.80309" lon="6.41951">
        <ele>2371</ele>
        <time>2018-10-17T12:03:27Z</time>
      </trkpt>
      <trkpt lat="45.80309" lon="6.41951">
        <ele>2370</ele>
        <time>2018-10-17T12:03:28Z</time>
      </trkpt>
      <trkpt lat="45.80312" lon="6.41949">
        <ele>2370</ele>
        <time>2018-10-17T12:03:29Z</time>
      </trkpt>
      <trkpt lat="45.80312" lon="6.41949">
        <ele>2369</ele>
        <time>2018-10-17T12:03:30Z</time>
      </trkpt>
      <trkpt lat="45.80312" lon="6.41949">
        <ele>2369</ele>
        <time>2018-10-17T12:03:31Z</time>
      </trkpt>
      <trkpt lat="45.80314" lon="6.41947">
        <ele>2368</ele>
        <time>2018-10-17T12:03:32Z</time>
      </trkpt>
      <trkpt lat="45.80314" lon="6.41947">
        <ele>2367</ele>
        <time>2018-10-17T12:03:33Z</time>
      </trkpt>
      <trkpt lat="45.80314" lon="6.41947">
        <ele>2367</ele>
        <time>2018-10-17T12:03:34Z</time>
      </trkpt>
      <trkpt lat="45.80314" lon="6.41947">
        <ele>2367</ele>
        <time>2018-10-17T12:03:35Z</time>
      </trkpt>
      <trkpt lat="45.80314" lon="6.41947">
        <ele>2367</ele>
        <time>2018-10-17T12:03:36Z</time>
      </trkpt>
      <trkpt lat="45.80314" lon="6.41947">
        <ele>2367</ele>
        <time>2018-10-17T12:03:37Z</time>
      </trkpt>
      <trkpt lat="45.80314" lon="6.41947">
        <ele>2367</ele>
        <time>2018-10-17T12:03:38Z</time>
      </trkpt>
      <trkpt lat="45.80314" lon="6.41947">
        <ele>2367</ele>
        <time>2018-10-17T12:03:39Z</time>
      </trkpt>
      <trkpt lat="45.80314" lon="6.41947">
        <ele>2367</ele>
        <time>2018-10-17T12:03:40Z</time>
      </trkpt>
      <trkpt lat="45.80314" lon="6.41947">
        <ele>2367</ele>
        <time>2018-10-17T12:03:41Z</time>
      </trkpt>
      <trkpt lat="45.80314" lon="6.41947">
        <ele>2367</ele>
        <time>2018-10-17T12:03:42Z</time>
      </trkpt>
      <trkpt lat="45.80314" lon="6.41947">
        <ele>2367</ele>
        <time>2018-10-17T12:03:43Z</time>
      </trkpt>
      <trkpt lat="45.80314" lon="6.41947">
        <ele>2367</ele>
        <time>2018-10-17T12:03:44Z</time>
      </trkpt>
      <trkpt lat="45.80314" lon="6.41947">
        <ele>2367</ele>
        <time>2018-10-17T12:03:45Z</time>
      </trkpt>
      <trkpt lat="45.80314" lon="6.41947">
        <ele>2367</ele>
        <time>2018-10-17T12:03:46Z</time>
      </trkpt>
      <trkpt lat="45.80315" lon="6.41944">
        <ele>2368</ele>
        <time>2018-10-17T12:03:47Z</time>
      </trkpt>
      <trkpt lat="45.80315" lon="6.41944">
        <ele>2368</ele>
        <time>2018-10-17T12:03:48Z</time>
      </trkpt>
      <trkpt lat="45.80315" lon="6.41944">
        <ele>2368</ele>
        <time>2018-10-17T12:03:49Z</time>
      </trkpt>
      <trkpt lat="45.80315" lon="6.41944">
        <ele>2368</ele>
        <time>2018-10-17T12:03:50Z</time>
      </trkpt>
      <trkpt lat="45.80314" lon="6.41941">
        <ele>2367</ele>
        <time>2018-10-17T12:03:51Z</time>
      </trkpt>
      <trkpt lat="45.80314" lon="6.41941">
        <ele>2366</ele>
        <time>2018-10-17T12:03:52Z</time>
      </trkpt>
      <trkpt lat="45.80312" lon="6.41939">
        <ele>2366</ele>
        <time>2018-10-17T12:03:53Z</time>
      </trkpt>
      <trkpt lat="45.80312" lon="6.41939">
        <ele>2365</ele>
        <time>2018-10-17T12:03:54Z</time>
      </trkpt>
      <trkpt lat="45.80312" lon="6.41939">
        <ele>2365</ele>
        <time>2018-10-17T12:03:55Z</time>
      </trkpt>
      <trkpt lat="45.80314" lon="6.41937">
        <ele>2365</ele>
        <time>2018-10-17T12:03:56Z</time>
      </trkpt>
      <trkpt lat="45.80314" lon="6.41937">
        <ele>2364</ele>
        <time>2018-10-17T12:03:57Z</time>
      </trkpt>
      <trkpt lat="45.80316" lon="6.41937">
        <ele>2364</ele>
        <time>2018-10-17T12:03:58Z</time>
      </trkpt>
      <trkpt lat="45.80316" lon="6.41937">
        <ele>2363</ele>
        <time>2018-10-17T12:03:59Z</time>
      </trkpt>
      <trkpt lat="45.80316" lon="6.41937">
        <ele>2363</ele>
        <time>2018-10-17T12:04:00Z</time>
      </trkpt>
      <trkpt lat="45.80318" lon="6.41935">
        <ele>2362</ele>
        <time>2018-10-17T12:04:01Z</time>
      </trkpt>
      <trkpt lat="45.80318" lon="6.41935">
        <ele>2362</ele>
        <time>2018-10-17T12:04:02Z</time>
      </trkpt>
      <trkpt lat="45.80321" lon="6.41934">
        <ele>2362</ele>
        <time>2018-10-17T12:04:03Z</time>
      </trkpt>
      <trkpt lat="45.80321" lon="6.41934">
        <ele>2362</ele>
        <time>2018-10-17T12:04:04Z</time>
      </trkpt>
      <trkpt lat="45.80323" lon="6.41933">
        <ele>2361</ele>
        <time>2018-10-17T12:04:05Z</time>
      </trkpt>
      <trkpt lat="45.80323" lon="6.41933">
        <ele>2360</ele>
        <time>2018-10-17T12:04:06Z</time>
      </trkpt>
      <trkpt lat="45.80325" lon="6.41931">
        <ele>2359</ele>
        <time>2018-10-17T12:04:07Z</time>
      </trkpt>
      <trkpt lat="45.80325" lon="6.41931">
        <ele>2359</ele>
        <time>2018-10-17T12:04:08Z</time>
      </trkpt>
      <trkpt lat="45.80327" lon="6.4193">
        <ele>2359</ele>
        <time>2018-10-17T12:04:09Z</time>
      </trkpt>
      <trkpt lat="45.80327" lon="6.4193">
        <ele>2358</ele>
        <time>2018-10-17T12:04:10Z</time>
      </trkpt>
      <trkpt lat="45.80329" lon="6.41928">
        <ele>2357</ele>
        <time>2018-10-17T12:04:11Z</time>
      </trkpt>
      <trkpt lat="45.80329" lon="6.41928">
        <ele>2357</ele>
        <time>2018-10-17T12:04:12Z</time>
      </trkpt>
      <trkpt lat="45.80332" lon="6.41927">
        <ele>2357</ele>
        <time>2018-10-17T12:04:13Z</time>
      </trkpt>
      <trkpt lat="45.80332" lon="6.41927">
        <ele>2357</ele>
        <time>2018-10-17T12:04:14Z</time>
      </trkpt>
      <trkpt lat="45.80334" lon="6.41925">
        <ele>2356</ele>
        <time>2018-10-17T12:04:15Z</time>
      </trkpt>
      <trkpt lat="45.80334" lon="6.41925">
        <ele>2355</ele>
        <time>2018-10-17T12:04:16Z</time>
      </trkpt>
      <trkpt lat="45.80336" lon="6.41922">
        <ele>2355</ele>
        <time>2018-10-17T12:04:17Z</time>
      </trkpt>
      <trkpt lat="45.80336" lon="6.41922">
        <ele>2355</ele>
        <time>2018-10-17T12:04:18Z</time>
      </trkpt>
      <trkpt lat="45.80338" lon="6.41919">
        <ele>2355</ele>
        <time>2018-10-17T12:04:19Z</time>
      </trkpt>
      <trkpt lat="45.80338" lon="6.41919">
        <ele>2354</ele>
        <time>2018-10-17T12:04:20Z</time>
      </trkpt>
      <trkpt lat="45.80341" lon="6.41917">
        <ele>2354</ele>
        <time>2018-10-17T12:04:21Z</time>
      </trkpt>
      <trkpt lat="45.80341" lon="6.41917">
        <ele>2353</ele>
        <time>2018-10-17T12:04:22Z</time>
      </trkpt>
      <trkpt lat="45.80343" lon="6.41915">
        <ele>2352</ele>
        <time>2018-10-17T12:04:23Z</time>
      </trkpt>
      <trkpt lat="45.80343" lon="6.41915">
        <ele>2351</ele>
        <time>2018-10-17T12:04:24Z</time>
      </trkpt>
      <trkpt lat="45.80345" lon="6.41914">
        <ele>2351</ele>
        <time>2018-10-17T12:04:25Z</time>
      </trkpt>
      <trkpt lat="45.80345" lon="6.41914">
        <ele>2350</ele>
        <time>2018-10-17T12:04:26Z</time>
      </trkpt>
      <trkpt lat="45.80345" lon="6.41914">
        <ele>2350</ele>
        <time>2018-10-17T12:04:27Z</time>
      </trkpt>
      <trkpt lat="45.80347" lon="6.41912">
        <ele>2350</ele>
        <time>2018-10-17T12:04:28Z</time>
      </trkpt>
      <trkpt lat="45.80347" lon="6.41912">
        <ele>2349</ele>
        <time>2018-10-17T12:04:29Z</time>
      </trkpt>
      <trkpt lat="45.80349" lon="6.4191">
        <ele>2348</ele>
        <time>2018-10-17T12:04:30Z</time>
      </trkpt>
      <trkpt lat="45.80349" lon="6.4191">
        <ele>2348</ele>
        <time>2018-10-17T12:04:31Z</time>
      </trkpt>
      <trkpt lat="45.80351" lon="6.41908">
        <ele>2348</ele>
        <time>2018-10-17T12:04:32Z</time>
      </trkpt>
      <trkpt lat="45.80351" lon="6.41908">
        <ele>2347</ele>
        <time>2018-10-17T12:04:33Z</time>
      </trkpt>
      <trkpt lat="45.80353" lon="6.41906">
        <ele>2347</ele>
        <time>2018-10-17T12:04:34Z</time>
      </trkpt>
      <trkpt lat="45.80353" lon="6.41906">
        <ele>2347</ele>
        <time>2018-10-17T12:04:35Z</time>
      </trkpt>
      <trkpt lat="45.80356" lon="6.41904">
        <ele>2346</ele>
        <time>2018-10-17T12:04:36Z</time>
      </trkpt>
      <trkpt lat="45.80356" lon="6.41904">
        <ele>2346</ele>
        <time>2018-10-17T12:04:37Z</time>
      </trkpt>
      <trkpt lat="45.80358" lon="6.41903">
        <ele>2346</ele>
        <time>2018-10-17T12:04:38Z</time>
      </trkpt>
      <trkpt lat="45.80358" lon="6.41903">
        <ele>2344</ele>
        <time>2018-10-17T12:04:39Z</time>
      </trkpt>
      <trkpt lat="45.80361" lon="6.41902">
        <ele>2343</ele>
        <time>2018-10-17T12:04:40Z</time>
      </trkpt>
      <trkpt lat="45.80361" lon="6.41902">
        <ele>2342</ele>
        <time>2018-10-17T12:04:41Z</time>
      </trkpt>
      <trkpt lat="45.80364" lon="6.41901">
        <ele>2342</ele>
        <time>2018-10-17T12:04:42Z</time>
      </trkpt>
      <trkpt lat="45.80364" lon="6.41901">
        <ele>2341</ele>
        <time>2018-10-17T12:04:43Z</time>
      </trkpt>
      <trkpt lat="45.80366" lon="6.419">
        <ele>2341</ele>
        <time>2018-10-17T12:04:44Z</time>
      </trkpt>
      <trkpt lat="45.80366" lon="6.419">
        <ele>2341</ele>
        <time>2018-10-17T12:04:45Z</time>
      </trkpt>
      <trkpt lat="45.80368" lon="6.41898">
        <ele>2340</ele>
        <time>2018-10-17T12:04:46Z</time>
      </trkpt>
      <trkpt lat="45.80368" lon="6.41898">
        <ele>2340</ele>
        <time>2018-10-17T12:04:47Z</time>
      </trkpt>
      <trkpt lat="45.8037" lon="6.41896">
        <ele>2340</ele>
        <time>2018-10-17T12:04:48Z</time>
      </trkpt>
      <trkpt lat="45.8037" lon="6.41896">
        <ele>2340</ele>
        <time>2018-10-17T12:04:49Z</time>
      </trkpt>
      <trkpt lat="45.8037" lon="6.41896">
        <ele>2340</ele>
        <time>2018-10-17T12:04:50Z</time>
      </trkpt>
      <trkpt lat="45.80371" lon="6.41894">
        <ele>2340</ele>
        <time>2018-10-17T12:04:51Z</time>
      </trkpt>
      <trkpt lat="45.80371" lon="6.41894">
        <ele>2340</ele>
        <time>2018-10-17T12:04:52Z</time>
      </trkpt>
      <trkpt lat="45.80371" lon="6.41894">
        <ele>2339</ele>
        <time>2018-10-17T12:04:53Z</time>
      </trkpt>
      <trkpt lat="45.80373" lon="6.41893">
        <ele>2338</ele>
        <time>2018-10-17T12:04:54Z</time>
      </trkpt>
      <trkpt lat="45.80373" lon="6.41893">
        <ele>2338</ele>
        <time>2018-10-17T12:04:55Z</time>
      </trkpt>
      <trkpt lat="45.80373" lon="6.41893">
        <ele>2339</ele>
        <time>2018-10-17T12:04:56Z</time>
      </trkpt>
      <trkpt lat="45.80373" lon="6.41893">
        <ele>2339</ele>
        <time>2018-10-17T12:04:57Z</time>
      </trkpt>
      <trkpt lat="45.80373" lon="6.41893">
        <ele>2340</ele>
        <time>2018-10-17T12:04:58Z</time>
      </trkpt>
      <trkpt lat="45.80373" lon="6.41893">
        <ele>2340</ele>
        <time>2018-10-17T12:04:59Z</time>
      </trkpt>
      <trkpt lat="45.80373" lon="6.41893">
        <ele>2340</ele>
        <time>2018-10-17T12:05:00Z</time>
      </trkpt>
      <trkpt lat="45.80373" lon="6.41893">
        <ele>2340</ele>
        <time>2018-10-17T12:05:01Z</time>
      </trkpt>
      <trkpt lat="45.80373" lon="6.41893">
        <ele>2340</ele>
        <time>2018-10-17T12:05:02Z</time>
      </trkpt>
      <trkpt lat="45.80373" lon="6.41893">
        <ele>2340</ele>
        <time>2018-10-17T12:05:03Z</time>
      </trkpt>
      <trkpt lat="45.80373" lon="6.41893">
        <ele>2340</ele>
        <time>2018-10-17T12:05:04Z</time>
      </trkpt>
      <trkpt lat="45.80373" lon="6.41893">
        <ele>2340</ele>
        <time>2018-10-17T12:05:05Z</time>
      </trkpt>
      <trkpt lat="45.80373" lon="6.41893">
        <ele>2340</ele>
        <time>2018-10-17T12:05:06Z</time>
      </trkpt>
      <trkpt lat="45.80373" lon="6.41893">
        <ele>2340</ele>
        <time>2018-10-17T12:05:07Z</time>
      </trkpt>
      <trkpt lat="45.80373" lon="6.41893">
        <ele>2340</ele>
        <time>2018-10-17T12:05:08Z</time>
      </trkpt>
      <trkpt lat="45.80373" lon="6.41893">
        <ele>2340</ele>
        <time>2018-10-17T12:05:09Z</time>
      </trkpt>
      <trkpt lat="45.80373" lon="6.41893">
        <ele>2340</ele>
        <time>2018-10-17T12:05:10Z</time>
      </trkpt>
      <trkpt lat="45.80373" lon="6.41893">
        <ele>2340</ele>
        <time>2018-10-17T12:05:11Z</time>
      </trkpt>
      <trkpt lat="45.80373" lon="6.41893">
        <ele>2340</ele>
        <time>2018-10-17T12:05:12Z</time>
      </trkpt>
      <trkpt lat="45.80373" lon="6.41893">
        <ele>2340</ele>
        <time>2018-10-17T12:05:13Z</time>
      </trkpt>
      <trkpt lat="45.80373" lon="6.41893">
        <ele>2339</ele>
        <time>2018-10-17T12:05:14Z</time>
      </trkpt>
      <trkpt lat="45.80373" lon="6.41893">
        <ele>2339</ele>
        <time>2018-10-17T12:05:15Z</time>
      </trkpt>
      <trkpt lat="45.80375" lon="6.41891">
        <ele>2339</ele>
        <time>2018-10-17T12:05:16Z</time>
      </trkpt>
      <trkpt lat="45.80375" lon="6.41891">
        <ele>2339</ele>
        <time>2018-10-17T12:05:17Z</time>
      </trkpt>
      <trkpt lat="45.80375" lon="6.41891">
        <ele>2339</ele>
        <time>2018-10-17T12:05:18Z</time>
      </trkpt>
      <trkpt lat="45.80377" lon="6.4189">
        <ele>2339</ele>
        <time>2018-10-17T12:05:19Z</time>
      </trkpt>
      <trkpt lat="45.80377" lon="6.4189">
        <ele>2338</ele>
        <time>2018-10-17T12:05:20Z</time>
      </trkpt>
      <trkpt lat="45.80377" lon="6.4189">
        <ele>2338</ele>
        <time>2018-10-17T12:05:21Z</time>
      </trkpt>
      <trkpt lat="45.80379" lon="6.41889">
        <ele>2338</ele>
        <time>2018-10-17T12:05:22Z</time>
      </trkpt>
      <trkpt lat="45.80379" lon="6.41889">
        <ele>2338</ele>
        <time>2018-10-17T12:05:23Z</time>
      </trkpt>
      <trkpt lat="45.80381" lon="6.41888">
        <ele>2338</ele>
        <time>2018-10-17T12:05:24Z</time>
      </trkpt>
      <trkpt lat="45.80381" lon="6.41888">
        <ele>2337</ele>
        <time>2018-10-17T12:05:25Z</time>
      </trkpt>
      <trkpt lat="45.80381" lon="6.41888">
        <ele>2337</ele>
        <time>2018-10-17T12:05:26Z</time>
      </trkpt>
      <trkpt lat="45.80383" lon="6.41886">
        <ele>2337</ele>
        <time>2018-10-17T12:05:27Z</time>
      </trkpt>
      <trkpt lat="45.80383" lon="6.41886">
        <ele>2336</ele>
        <time>2018-10-17T12:05:28Z</time>
      </trkpt>
      <trkpt lat="45.80384" lon="6.41884">
        <ele>2336</ele>
        <time>2018-10-17T12:05:29Z</time>
      </trkpt>
      <trkpt lat="45.80384" lon="6.41884">
        <ele>2335</ele>
        <time>2018-10-17T12:05:30Z</time>
      </trkpt>
      <trkpt lat="45.80384" lon="6.41884">
        <ele>2335</ele>
        <time>2018-10-17T12:05:31Z</time>
      </trkpt>
      <trkpt lat="45.80386" lon="6.41883">
        <ele>2334</ele>
        <time>2018-10-17T12:05:32Z</time>
      </trkpt>
      <trkpt lat="45.80386" lon="6.41883">
        <ele>2334</ele>
        <time>2018-10-17T12:05:33Z</time>
      </trkpt>
      <trkpt lat="45.80386" lon="6.41883">
        <ele>2335</ele>
        <time>2018-10-17T12:05:34Z</time>
      </trkpt>
      <trkpt lat="45.80386" lon="6.41883">
        <ele>2335</ele>
        <time>2018-10-17T12:05:35Z</time>
      </trkpt>
      <trkpt lat="45.80386" lon="6.41883">
        <ele>2335</ele>
        <time>2018-10-17T12:05:36Z</time>
      </trkpt>
      <trkpt lat="45.80386" lon="6.41883">
        <ele>2335</ele>
        <time>2018-10-17T12:05:37Z</time>
      </trkpt>
      <trkpt lat="45.80386" lon="6.41883">
        <ele>2335</ele>
        <time>2018-10-17T12:05:38Z</time>
      </trkpt>
      <trkpt lat="45.80386" lon="6.41883">
        <ele>2335</ele>
        <time>2018-10-17T12:05:39Z</time>
      </trkpt>
      <trkpt lat="45.80386" lon="6.41883">
        <ele>2335</ele>
        <time>2018-10-17T12:05:40Z</time>
      </trkpt>
      <trkpt lat="45.80386" lon="6.41883">
        <ele>2334</ele>
        <time>2018-10-17T12:05:41Z</time>
      </trkpt>
      <trkpt lat="45.80386" lon="6.41883">
        <ele>2334</ele>
        <time>2018-10-17T12:05:42Z</time>
      </trkpt>
      <trkpt lat="45.80386" lon="6.41883">
        <ele>2334</ele>
        <time>2018-10-17T12:05:43Z</time>
      </trkpt>
      <trkpt lat="45.80386" lon="6.41883">
        <ele>2334</ele>
        <time>2018-10-17T12:05:44Z</time>
      </trkpt>
      <trkpt lat="45.80386" lon="6.41883">
        <ele>2334</ele>
        <time>2018-10-17T12:05:45Z</time>
      </trkpt>
      <trkpt lat="45.80386" lon="6.41883">
        <ele>2334</ele>
        <time>2018-10-17T12:05:46Z</time>
      </trkpt>
      <trkpt lat="45.80386" lon="6.41883">
        <ele>2334</ele>
        <time>2018-10-17T12:05:47Z</time>
      </trkpt>
      <trkpt lat="45.80386" lon="6.41883">
        <ele>2334</ele>
        <time>2018-10-17T12:05:48Z</time>
      </trkpt>
      <trkpt lat="45.80386" lon="6.41883">
        <ele>2334</ele>
        <time>2018-10-17T12:05:49Z</time>
      </trkpt>
      <trkpt lat="45.80386" lon="6.41883">
        <ele>2334</ele>
        <time>2018-10-17T12:05:50Z</time>
      </trkpt>
      <trkpt lat="45.80389" lon="6.41883">
        <ele>2334</ele>
        <time>2018-10-17T12:05:51Z</time>
      </trkpt>
      <trkpt lat="45.80389" lon="6.41883">
        <ele>2334</ele>
        <time>2018-10-17T12:05:52Z</time>
      </trkpt>
      <trkpt lat="45.80389" lon="6.41883">
        <ele>2334</ele>
        <time>2018-10-17T12:05:53Z</time>
      </trkpt>
      <trkpt lat="45.80389" lon="6.41883">
        <ele>2334</ele>
        <time>2018-10-17T12:05:54Z</time>
      </trkpt>
      <trkpt lat="45.80389" lon="6.41883">
        <ele>2333</ele>
        <time>2018-10-17T12:05:55Z</time>
      </trkpt>
      <trkpt lat="45.80389" lon="6.41883">
        <ele>2333</ele>
        <time>2018-10-17T12:05:56Z</time>
      </trkpt>
      <trkpt lat="45.8039" lon="6.41882">
        <ele>2333</ele>
        <time>2018-10-17T12:05:57Z</time>
      </trkpt>
      <trkpt lat="45.8039" lon="6.41882">
        <ele>2333</ele>
        <time>2018-10-17T12:05:58Z</time>
      </trkpt>
      <trkpt lat="45.8039" lon="6.41882">
        <ele>2333</ele>
        <time>2018-10-17T12:05:59Z</time>
      </trkpt>
      <trkpt lat="45.8039" lon="6.41882">
        <ele>2333</ele>
        <time>2018-10-17T12:06:00Z</time>
      </trkpt>
      <trkpt lat="45.8039" lon="6.41882">
        <ele>2333</ele>
        <time>2018-10-17T12:06:01Z</time>
      </trkpt>
      <trkpt lat="45.8039" lon="6.41882">
        <ele>2333</ele>
        <time>2018-10-17T12:06:02Z</time>
      </trkpt>
      <trkpt lat="45.8039" lon="6.41882">
        <ele>2333</ele>
        <time>2018-10-17T12:06:03Z</time>
      </trkpt>
      <trkpt lat="45.8039" lon="6.41882">
        <ele>2334</ele>
        <time>2018-10-17T12:06:04Z</time>
      </trkpt>
      <trkpt lat="45.8039" lon="6.41882">
        <ele>2334</ele>
        <time>2018-10-17T12:06:05Z</time>
      </trkpt>
      <trkpt lat="45.8039" lon="6.41882">
        <ele>2334</ele>
        <time>2018-10-17T12:06:06Z</time>
      </trkpt>
      <trkpt lat="45.8039" lon="6.41882">
        <ele>2333</ele>
        <time>2018-10-17T12:06:07Z</time>
      </trkpt>
      <trkpt lat="45.8039" lon="6.41882">
        <ele>2333</ele>
        <time>2018-10-17T12:06:08Z</time>
      </trkpt>
      <trkpt lat="45.8039" lon="6.41882">
        <ele>2333</ele>
        <time>2018-10-17T12:06:09Z</time>
      </trkpt>
      <trkpt lat="45.8039" lon="6.41882">
        <ele>2333</ele>
        <time>2018-10-17T12:06:10Z</time>
      </trkpt>
      <trkpt lat="45.80392" lon="6.41881">
        <ele>2333</ele>
        <time>2018-10-17T12:06:11Z</time>
      </trkpt>
      <trkpt lat="45.80392" lon="6.41881">
        <ele>2332</ele>
        <time>2018-10-17T12:06:12Z</time>
      </trkpt>
      <trkpt lat="45.80392" lon="6.41881">
        <ele>2332</ele>
        <time>2018-10-17T12:06:13Z</time>
      </trkpt>
      <trkpt lat="45.80394" lon="6.41879">
        <ele>2333</ele>
        <time>2018-10-17T12:06:14Z</time>
      </trkpt>
      <trkpt lat="45.80394" lon="6.41879">
        <ele>2333</ele>
        <time>2018-10-17T12:06:15Z</time>
      </trkpt>
      <trkpt lat="45.80396" lon="6.41877">
        <ele>2333</ele>
        <time>2018-10-17T12:06:16Z</time>
      </trkpt>
      <trkpt lat="45.80396" lon="6.41877">
        <ele>2333</ele>
        <time>2018-10-17T12:06:17Z</time>
      </trkpt>
      <trkpt lat="45.80397" lon="6.41876">
        <ele>2333</ele>
        <time>2018-10-17T12:06:18Z</time>
      </trkpt>
      <trkpt lat="45.80397" lon="6.41876">
        <ele>2333</ele>
        <time>2018-10-17T12:06:19Z</time>
      </trkpt>
      <trkpt lat="45.80397" lon="6.41876">
        <ele>2333</ele>
        <time>2018-10-17T12:06:20Z</time>
      </trkpt>
      <trkpt lat="45.804" lon="6.41874">
        <ele>2333</ele>
        <time>2018-10-17T12:06:21Z</time>
      </trkpt>
      <trkpt lat="45.804" lon="6.41874">
        <ele>2332</ele>
        <time>2018-10-17T12:06:22Z</time>
      </trkpt>
      <trkpt lat="45.80401" lon="6.41873">
        <ele>2332</ele>
        <time>2018-10-17T12:06:23Z</time>
      </trkpt>
      <trkpt lat="45.80401" lon="6.41873">
        <ele>2332</ele>
        <time>2018-10-17T12:06:24Z</time>
      </trkpt>
      <trkpt lat="45.80401" lon="6.41873">
        <ele>2332</ele>
        <time>2018-10-17T12:06:25Z</time>
      </trkpt>
      <trkpt lat="45.80404" lon="6.4187">
        <ele>2332</ele>
        <time>2018-10-17T12:06:26Z</time>
      </trkpt>
      <trkpt lat="45.80404" lon="6.4187">
        <ele>2332</ele>
        <time>2018-10-17T12:06:27Z</time>
      </trkpt>
      <trkpt lat="45.80404" lon="6.4187">
        <ele>2332</ele>
        <time>2018-10-17T12:06:28Z</time>
      </trkpt>
      <trkpt lat="45.80406" lon="6.41869">
        <ele>2332</ele>
        <time>2018-10-17T12:06:29Z</time>
      </trkpt>
      <trkpt lat="45.80406" lon="6.41869">
        <ele>2332</ele>
        <time>2018-10-17T12:06:30Z</time>
      </trkpt>
      <trkpt lat="45.80407" lon="6.41868">
        <ele>2332</ele>
        <time>2018-10-17T12:06:31Z</time>
      </trkpt>
      <trkpt lat="45.80407" lon="6.41868">
        <ele>2332</ele>
        <time>2018-10-17T12:06:32Z</time>
      </trkpt>
      <trkpt lat="45.80407" lon="6.41868">
        <ele>2331</ele>
        <time>2018-10-17T12:06:33Z</time>
      </trkpt>
      <trkpt lat="45.8041" lon="6.41866">
        <ele>2330</ele>
        <time>2018-10-17T12:06:34Z</time>
      </trkpt>
      <trkpt lat="45.80412" lon="6.41866">
        <ele>2330</ele>
        <time>2018-10-17T12:06:35Z</time>
      </trkpt>
      <trkpt lat="45.80414" lon="6.41864">
        <ele>2330</ele>
        <time>2018-10-17T12:06:36Z</time>
      </trkpt>
      <trkpt lat="45.80417" lon="6.41863">
        <ele>2330</ele>
        <time>2018-10-17T12:06:37Z</time>
      </trkpt>
      <trkpt lat="45.80419" lon="6.41861">
        <ele>2330</ele>
        <time>2018-10-17T12:06:38Z</time>
      </trkpt>
      <trkpt lat="45.80422" lon="6.41859">
        <ele>2330</ele>
        <time>2018-10-17T12:06:39Z</time>
      </trkpt>
      <trkpt lat="45.80424" lon="6.41857">
        <ele>2329</ele>
        <time>2018-10-17T12:06:40Z</time>
      </trkpt>
      <trkpt lat="45.80426" lon="6.41855">
        <ele>2329</ele>
        <time>2018-10-17T12:06:41Z</time>
      </trkpt>
      <trkpt lat="45.8043" lon="6.41853">
        <ele>2329</ele>
        <time>2018-10-17T12:06:42Z</time>
      </trkpt>
      <trkpt lat="45.80431" lon="6.41853">
        <ele>2329</ele>
        <time>2018-10-17T12:06:43Z</time>
      </trkpt>
      <trkpt lat="45.80433" lon="6.41851">
        <ele>2328</ele>
        <time>2018-10-17T12:06:44Z</time>
      </trkpt>
      <trkpt lat="45.80436" lon="6.4185">
        <ele>2328</ele>
        <time>2018-10-17T12:06:45Z</time>
      </trkpt>
      <trkpt lat="45.80438" lon="6.41848">
        <ele>2328</ele>
        <time>2018-10-17T12:06:46Z</time>
      </trkpt>
      <trkpt lat="45.8044" lon="6.41847">
        <ele>2328</ele>
        <time>2018-10-17T12:06:47Z</time>
      </trkpt>
      <trkpt lat="45.80443" lon="6.41845">
        <ele>2328</ele>
        <time>2018-10-17T12:06:48Z</time>
      </trkpt>
      <trkpt lat="45.80445" lon="6.41844">
        <ele>2328</ele>
        <time>2018-10-17T12:06:49Z</time>
      </trkpt>
      <trkpt lat="45.80447" lon="6.41843">
        <ele>2328</ele>
        <time>2018-10-17T12:06:50Z</time>
      </trkpt>
      <trkpt lat="45.80449" lon="6.41842">
        <ele>2328</ele>
        <time>2018-10-17T12:06:51Z</time>
      </trkpt>
      <trkpt lat="45.80452" lon="6.4184">
        <ele>2329</ele>
        <time>2018-10-17T12:06:52Z</time>
      </trkpt>
      <trkpt lat="45.80453" lon="6.41839">
        <ele>2327</ele>
        <time>2018-10-17T12:06:53Z</time>
      </trkpt>
      <trkpt lat="45.80455" lon="6.41837">
        <ele>2327</ele>
        <time>2018-10-17T12:06:54Z</time>
      </trkpt>
      <trkpt lat="45.80457" lon="6.41835">
        <ele>2327</ele>
        <time>2018-10-17T12:06:55Z</time>
      </trkpt>
      <trkpt lat="45.80459" lon="6.41833">
        <ele>2328</ele>
        <time>2018-10-17T12:06:56Z</time>
      </trkpt>
      <trkpt lat="45.80461" lon="6.41832">
        <ele>2328</ele>
        <time>2018-10-17T12:06:57Z</time>
      </trkpt>
      <trkpt lat="45.80462" lon="6.41831">
        <ele>2328</ele>
        <time>2018-10-17T12:06:58Z</time>
      </trkpt>
      <trkpt lat="45.80464" lon="6.41829">
        <ele>2328</ele>
        <time>2018-10-17T12:06:59Z</time>
      </trkpt>
      <trkpt lat="45.80466" lon="6.41828">
        <ele>2328</ele>
        <time>2018-10-17T12:07:00Z</time>
      </trkpt>
      <trkpt lat="45.80466" lon="6.41828">
        <ele>2327</ele>
        <time>2018-10-17T12:07:01Z</time>
      </trkpt>
      <trkpt lat="45.80468" lon="6.41825">
        <ele>2327</ele>
        <time>2018-10-17T12:07:02Z</time>
      </trkpt>
      <trkpt lat="45.80468" lon="6.41825">
        <ele>2327</ele>
        <time>2018-10-17T12:07:03Z</time>
      </trkpt>
      <trkpt lat="45.80471" lon="6.41822">
        <ele>2327</ele>
        <time>2018-10-17T12:07:04Z</time>
      </trkpt>
      <trkpt lat="45.80471" lon="6.41822">
        <ele>2327</ele>
        <time>2018-10-17T12:07:05Z</time>
      </trkpt>
      <trkpt lat="45.80474" lon="6.41821">
        <ele>2327</ele>
        <time>2018-10-17T12:07:06Z</time>
      </trkpt>
      <trkpt lat="45.80474" lon="6.41821">
        <ele>2326</ele>
        <time>2018-10-17T12:07:07Z</time>
      </trkpt>
      <trkpt lat="45.80474" lon="6.41821">
        <ele>2325</ele>
        <time>2018-10-17T12:07:08Z</time>
      </trkpt>
      <trkpt lat="45.80474" lon="6.41821">
        <ele>2325</ele>
        <time>2018-10-17T12:07:09Z</time>
      </trkpt>
      <trkpt lat="45.80474" lon="6.41821">
        <ele>2325</ele>
        <time>2018-10-17T12:07:10Z</time>
      </trkpt>
      <trkpt lat="45.80474" lon="6.41821">
        <ele>2325</ele>
        <time>2018-10-17T12:07:11Z</time>
      </trkpt>
      <trkpt lat="45.80474" lon="6.41821">
        <ele>2325</ele>
        <time>2018-10-17T12:07:12Z</time>
      </trkpt>
      <trkpt lat="45.80474" lon="6.41821">
        <ele>2325</ele>
        <time>2018-10-17T12:07:13Z</time>
      </trkpt>
      <trkpt lat="45.80474" lon="6.41821">
        <ele>2325</ele>
        <time>2018-10-17T12:07:14Z</time>
      </trkpt>
      <trkpt lat="45.80474" lon="6.41821">
        <ele>2325</ele>
        <time>2018-10-17T12:07:15Z</time>
      </trkpt>
      <trkpt lat="45.80474" lon="6.41821">
        <ele>2325</ele>
        <time>2018-10-17T12:07:16Z</time>
      </trkpt>
      <trkpt lat="45.80474" lon="6.41821">
        <ele>2325</ele>
        <time>2018-10-17T12:07:17Z</time>
      </trkpt>
      <trkpt lat="45.80474" lon="6.41821">
        <ele>2325</ele>
        <time>2018-10-17T12:07:18Z</time>
      </trkpt>
      <trkpt lat="45.80474" lon="6.41821">
        <ele>2325</ele>
        <time>2018-10-17T12:07:19Z</time>
      </trkpt>
      <trkpt lat="45.80474" lon="6.41821">
        <ele>2325</ele>
        <time>2018-10-17T12:07:20Z</time>
      </trkpt>
      <trkpt lat="45.80474" lon="6.41821">
        <ele>2325</ele>
        <time>2018-10-17T12:07:21Z</time>
      </trkpt>
      <trkpt lat="45.80474" lon="6.41821">
        <ele>2325</ele>
        <time>2018-10-17T12:07:22Z</time>
      </trkpt>
      <trkpt lat="45.80474" lon="6.41821">
        <ele>2325</ele>
        <time>2018-10-17T12:07:23Z</time>
      </trkpt>
      <trkpt lat="45.80474" lon="6.41821">
        <ele>2325</ele>
        <time>2018-10-17T12:07:24Z</time>
      </trkpt>
      <trkpt lat="45.80474" lon="6.41821">
        <ele>2325</ele>
        <time>2018-10-17T12:07:25Z</time>
      </trkpt>
      <trkpt lat="45.80474" lon="6.41821">
        <ele>2325</ele>
        <time>2018-10-17T12:07:26Z</time>
      </trkpt>
      <trkpt lat="45.80474" lon="6.41821">
        <ele>2325</ele>
        <time>2018-10-17T12:07:27Z</time>
      </trkpt>
      <trkpt lat="45.80474" lon="6.41821">
        <ele>2325</ele>
        <time>2018-10-17T12:07:28Z</time>
      </trkpt>
      <trkpt lat="45.80474" lon="6.41821">
        <ele>2325</ele>
        <time>2018-10-17T12:07:29Z</time>
      </trkpt>
      <trkpt lat="45.80474" lon="6.41821">
        <ele>2325</ele>
        <time>2018-10-17T12:07:30Z</time>
      </trkpt>
      <trkpt lat="45.80474" lon="6.41821">
        <ele>2325</ele>
        <time>2018-10-17T12:07:31Z</time>
      </trkpt>
      <trkpt lat="45.80474" lon="6.41821">
        <ele>2325</ele>
        <time>2018-10-17T12:07:32Z</time>
      </trkpt>
      <trkpt lat="45.80474" lon="6.41821">
        <ele>2325</ele>
        <time>2018-10-17T12:07:33Z</time>
      </trkpt>
      <trkpt lat="45.80474" lon="6.41821">
        <ele>2325</ele>
        <time>2018-10-17T12:07:34Z</time>
      </trkpt>
      <trkpt lat="45.80473" lon="6.41818">
        <ele>2325</ele>
        <time>2018-10-17T12:07:35Z</time>
      </trkpt>
      <trkpt lat="45.80473" lon="6.41818">
        <ele>2325</ele>
        <time>2018-10-17T12:07:36Z</time>
      </trkpt>
      <trkpt lat="45.80471" lon="6.41818">
        <ele>2325</ele>
        <time>2018-10-17T12:07:37Z</time>
      </trkpt>
      <trkpt lat="45.80471" lon="6.41818">
        <ele>2325</ele>
        <time>2018-10-17T12:07:38Z</time>
      </trkpt>
      <trkpt lat="45.80471" lon="6.41818">
        <ele>2325</ele>
        <time>2018-10-17T12:07:39Z</time>
      </trkpt>
      <trkpt lat="45.80469" lon="6.41818">
        <ele>2325</ele>
        <time>2018-10-17T12:07:40Z</time>
      </trkpt>
      <trkpt lat="45.80469" lon="6.41818">
        <ele>2325</ele>
        <time>2018-10-17T12:07:41Z</time>
      </trkpt>
      <trkpt lat="45.80469" lon="6.41818">
        <ele>2325</ele>
        <time>2018-10-17T12:07:42Z</time>
      </trkpt>
      <trkpt lat="45.80467" lon="6.41818">
        <ele>2325</ele>
        <time>2018-10-17T12:07:43Z</time>
      </trkpt>
      <trkpt lat="45.80467" lon="6.41818">
        <ele>2325</ele>
        <time>2018-10-17T12:07:44Z</time>
      </trkpt>
      <trkpt lat="45.80467" lon="6.41818">
        <ele>2325</ele>
        <time>2018-10-17T12:07:45Z</time>
      </trkpt>
      <trkpt lat="45.80464" lon="6.41818">
        <ele>2325</ele>
        <time>2018-10-17T12:07:46Z</time>
      </trkpt>
      <trkpt lat="45.80464" lon="6.41818">
        <ele>2324</ele>
        <time>2018-10-17T12:07:47Z</time>
      </trkpt>
      <trkpt lat="45.80464" lon="6.41818">
        <ele>2324</ele>
        <time>2018-10-17T12:07:48Z</time>
      </trkpt>
      <trkpt lat="45.80461" lon="6.41818">
        <ele>2323</ele>
        <time>2018-10-17T12:07:49Z</time>
      </trkpt>
      <trkpt lat="45.80461" lon="6.41818">
        <ele>2323</ele>
        <time>2018-10-17T12:07:50Z</time>
      </trkpt>
      <trkpt lat="45.80459" lon="6.41818">
        <ele>2322</ele>
        <time>2018-10-17T12:07:51Z</time>
      </trkpt>
      <trkpt lat="45.80459" lon="6.41818">
        <ele>2322</ele>
        <time>2018-10-17T12:07:52Z</time>
      </trkpt>
      <trkpt lat="45.80457" lon="6.41818">
        <ele>2322</ele>
        <time>2018-10-17T12:07:53Z</time>
      </trkpt>
      <trkpt lat="45.80457" lon="6.41818">
        <ele>2322</ele>
        <time>2018-10-17T12:07:54Z</time>
      </trkpt>
      <trkpt lat="45.80455" lon="6.41818">
        <ele>2322</ele>
        <time>2018-10-17T12:07:55Z</time>
      </trkpt>
      <trkpt lat="45.80455" lon="6.41818">
        <ele>2322</ele>
        <time>2018-10-17T12:07:56Z</time>
      </trkpt>
      <trkpt lat="45.80452" lon="6.41819">
        <ele>2321</ele>
        <time>2018-10-17T12:07:57Z</time>
      </trkpt>
      <trkpt lat="45.80451" lon="6.41819">
        <ele>2320</ele>
        <time>2018-10-17T12:07:58Z</time>
      </trkpt>
      <trkpt lat="45.8045" lon="6.41819">
        <ele>2320</ele>
        <time>2018-10-17T12:07:59Z</time>
      </trkpt>
      <trkpt lat="45.80448" lon="6.41819">
        <ele>2320</ele>
        <time>2018-10-17T12:08:00Z</time>
      </trkpt>
      <trkpt lat="45.80444" lon="6.4182">
        <ele>2319</ele>
        <time>2018-10-17T12:08:01Z</time>
      </trkpt>
      <trkpt lat="45.80443" lon="6.4182">
        <ele>2319</ele>
        <time>2018-10-17T12:08:02Z</time>
      </trkpt>
      <trkpt lat="45.80441" lon="6.41821">
        <ele>2318</ele>
        <time>2018-10-17T12:08:03Z</time>
      </trkpt>
      <trkpt lat="45.80438" lon="6.41821">
        <ele>2318</ele>
        <time>2018-10-17T12:08:04Z</time>
      </trkpt>
      <trkpt lat="45.80435" lon="6.41821">
        <ele>2318</ele>
        <time>2018-10-17T12:08:05Z</time>
      </trkpt>
      <trkpt lat="45.80433" lon="6.41822">
        <ele>2318</ele>
        <time>2018-10-17T12:08:06Z</time>
      </trkpt>
      <trkpt lat="45.80429" lon="6.41823">
        <ele>2318</ele>
        <time>2018-10-17T12:08:07Z</time>
      </trkpt>
      <trkpt lat="45.80427" lon="6.41823">
        <ele>2317</ele>
        <time>2018-10-17T12:08:08Z</time>
      </trkpt>
      <trkpt lat="45.80424" lon="6.41824">
        <ele>2316</ele>
        <time>2018-10-17T12:08:09Z</time>
      </trkpt>
      <trkpt lat="45.80423" lon="6.41825">
        <ele>2315</ele>
        <time>2018-10-17T12:08:10Z</time>
      </trkpt>
      <trkpt lat="45.8042" lon="6.41825">
        <ele>2314</ele>
        <time>2018-10-17T12:08:11Z</time>
      </trkpt>
      <trkpt lat="45.80417" lon="6.41824">
        <ele>2314</ele>
        <time>2018-10-17T12:08:12Z</time>
      </trkpt>
      <trkpt lat="45.80417" lon="6.41823">
        <ele>2314</ele>
        <time>2018-10-17T12:08:13Z</time>
      </trkpt>
      <trkpt lat="45.80416" lon="6.41823">
        <ele>2313</ele>
        <time>2018-10-17T12:08:14Z</time>
      </trkpt>
      <trkpt lat="45.80417" lon="6.41821">
        <ele>2313</ele>
        <time>2018-10-17T12:08:15Z</time>
      </trkpt>
      <trkpt lat="45.8042" lon="6.41819">
        <ele>2312</ele>
        <time>2018-10-17T12:08:16Z</time>
      </trkpt>
      <trkpt lat="45.80421" lon="6.41818">
        <ele>2311</ele>
        <time>2018-10-17T12:08:17Z</time>
      </trkpt>
      <trkpt lat="45.80423" lon="6.41815">
        <ele>2311</ele>
        <time>2018-10-17T12:08:18Z</time>
      </trkpt>
      <trkpt lat="45.80424" lon="6.41813">
        <ele>2311</ele>
        <time>2018-10-17T12:08:19Z</time>
      </trkpt>
      <trkpt lat="45.80425" lon="6.41811">
        <ele>2310</ele>
        <time>2018-10-17T12:08:20Z</time>
      </trkpt>
      <trkpt lat="45.80426" lon="6.41809">
        <ele>2309</ele>
        <time>2018-10-17T12:08:21Z</time>
      </trkpt>
      <trkpt lat="45.80428" lon="6.41806">
        <ele>2309</ele>
        <time>2018-10-17T12:08:22Z</time>
      </trkpt>
      <trkpt lat="45.80429" lon="6.41804">
        <ele>2309</ele>
        <time>2018-10-17T12:08:23Z</time>
      </trkpt>
      <trkpt lat="45.80429" lon="6.41804">
        <ele>2308</ele>
        <time>2018-10-17T12:08:24Z</time>
      </trkpt>
      <trkpt lat="45.80432" lon="6.418">
        <ele>2308</ele>
        <time>2018-10-17T12:08:25Z</time>
      </trkpt>
      <trkpt lat="45.80433" lon="6.41798">
        <ele>2308</ele>
        <time>2018-10-17T12:08:26Z</time>
      </trkpt>
      <trkpt lat="45.80434" lon="6.41796">
        <ele>2308</ele>
        <time>2018-10-17T12:08:27Z</time>
      </trkpt>
      <trkpt lat="45.80436" lon="6.41793">
        <ele>2307</ele>
        <time>2018-10-17T12:08:28Z</time>
      </trkpt>
      <trkpt lat="45.80438" lon="6.41791">
        <ele>2306</ele>
        <time>2018-10-17T12:08:29Z</time>
      </trkpt>
      <trkpt lat="45.8044" lon="6.41788">
        <ele>2304</ele>
        <time>2018-10-17T12:08:30Z</time>
      </trkpt>
      <trkpt lat="45.80442" lon="6.41785">
        <ele>2303</ele>
        <time>2018-10-17T12:08:31Z</time>
      </trkpt>
      <trkpt lat="45.80443" lon="6.41782">
        <ele>2303</ele>
        <time>2018-10-17T12:08:32Z</time>
      </trkpt>
      <trkpt lat="45.80445" lon="6.41779">
        <ele>2303</ele>
        <time>2018-10-17T12:08:33Z</time>
      </trkpt>
      <trkpt lat="45.80446" lon="6.41776">
        <ele>2302</ele>
        <time>2018-10-17T12:08:34Z</time>
      </trkpt>
      <trkpt lat="45.80448" lon="6.41774">
        <ele>2301</ele>
        <time>2018-10-17T12:08:35Z</time>
      </trkpt>
      <trkpt lat="45.80449" lon="6.41772">
        <ele>2300</ele>
        <time>2018-10-17T12:08:36Z</time>
      </trkpt>
      <trkpt lat="45.8045" lon="6.41769">
        <ele>2299</ele>
        <time>2018-10-17T12:08:37Z</time>
      </trkpt>
      <trkpt lat="45.80452" lon="6.41767">
        <ele>2299</ele>
        <time>2018-10-17T12:08:38Z</time>
      </trkpt>
      <trkpt lat="45.80453" lon="6.41765">
        <ele>2298</ele>
        <time>2018-10-17T12:08:39Z</time>
      </trkpt>
      <trkpt lat="45.80453" lon="6.41765">
        <ele>2297</ele>
        <time>2018-10-17T12:08:40Z</time>
      </trkpt>
      <trkpt lat="45.80455" lon="6.41761">
        <ele>2297</ele>
        <time>2018-10-17T12:08:41Z</time>
      </trkpt>
      <trkpt lat="45.80456" lon="6.41759">
        <ele>2297</ele>
        <time>2018-10-17T12:08:42Z</time>
      </trkpt>
      <trkpt lat="45.80459" lon="6.41756">
        <ele>2296</ele>
        <time>2018-10-17T12:08:44Z</time>
      </trkpt>
      <trkpt lat="45.80459" lon="6.41756">
        <ele>2295</ele>
        <time>2018-10-17T12:08:45Z</time>
      </trkpt>
      <trkpt lat="45.80459" lon="6.41756">
        <ele>2294</ele>
        <time>2018-10-17T12:08:46Z</time>
      </trkpt>
      <trkpt lat="45.80459" lon="6.41756">
        <ele>2294</ele>
        <time>2018-10-17T12:08:47Z</time>
      </trkpt>
      <trkpt lat="45.80459" lon="6.41756">
        <ele>2294</ele>
        <time>2018-10-17T12:08:48Z</time>
      </trkpt>
      <trkpt lat="45.80455" lon="6.41757">
        <ele>2294</ele>
        <time>2018-10-17T12:08:49Z</time>
      </trkpt>
      <trkpt lat="45.80453" lon="6.41758">
        <ele>2293</ele>
        <time>2018-10-17T12:08:50Z</time>
      </trkpt>
      <trkpt lat="45.8045" lon="6.41759">
        <ele>2293</ele>
        <time>2018-10-17T12:08:51Z</time>
      </trkpt>
      <trkpt lat="45.80448" lon="6.41759">
        <ele>2293</ele>
        <time>2018-10-17T12:08:52Z</time>
      </trkpt>
      <trkpt lat="45.80446" lon="6.4176">
        <ele>2292</ele>
        <time>2018-10-17T12:08:53Z</time>
      </trkpt>
      <trkpt lat="45.80446" lon="6.4176">
        <ele>2292</ele>
        <time>2018-10-17T12:08:54Z</time>
      </trkpt>
      <trkpt lat="45.80443" lon="6.41762">
        <ele>2292</ele>
        <time>2018-10-17T12:08:55Z</time>
      </trkpt>
      <trkpt lat="45.80443" lon="6.41762">
        <ele>2291</ele>
        <time>2018-10-17T12:08:56Z</time>
      </trkpt>
      <trkpt lat="45.8044" lon="6.41762">
        <ele>2290</ele>
        <time>2018-10-17T12:08:57Z</time>
      </trkpt>
      <trkpt lat="45.80438" lon="6.41762">
        <ele>2290</ele>
        <time>2018-10-17T12:08:58Z</time>
      </trkpt>
      <trkpt lat="45.80436" lon="6.41762">
        <ele>2289</ele>
        <time>2018-10-17T12:08:59Z</time>
      </trkpt>
      <trkpt lat="45.80434" lon="6.41763">
        <ele>2289</ele>
        <time>2018-10-17T12:09:00Z</time>
      </trkpt>
      <trkpt lat="45.80432" lon="6.41763">
        <ele>2288</ele>
        <time>2018-10-17T12:09:01Z</time>
      </trkpt>
      <trkpt lat="45.8043" lon="6.41762">
        <ele>2288</ele>
        <time>2018-10-17T12:09:02Z</time>
      </trkpt>
      <trkpt lat="45.8043" lon="6.41762">
        <ele>2288</ele>
        <time>2018-10-17T12:09:03Z</time>
      </trkpt>
      <trkpt lat="45.80426" lon="6.41762">
        <ele>2286</ele>
        <time>2018-10-17T12:09:04Z</time>
      </trkpt>
      <trkpt lat="45.80424" lon="6.41763">
        <ele>2285</ele>
        <time>2018-10-17T12:09:05Z</time>
      </trkpt>
      <trkpt lat="45.80422" lon="6.41763">
        <ele>2285</ele>
        <time>2018-10-17T12:09:06Z</time>
      </trkpt>
      <trkpt lat="45.80422" lon="6.41763">
        <ele>2285</ele>
        <time>2018-10-17T12:09:07Z</time>
      </trkpt>
      <trkpt lat="45.80419" lon="6.41765">
        <ele>2285</ele>
        <time>2018-10-17T12:09:08Z</time>
      </trkpt>
      <trkpt lat="45.80417" lon="6.41766">
        <ele>2284</ele>
        <time>2018-10-17T12:09:09Z</time>
      </trkpt>
      <trkpt lat="45.80417" lon="6.41766">
        <ele>2284</ele>
        <time>2018-10-17T12:09:10Z</time>
      </trkpt>
      <trkpt lat="45.80414" lon="6.41767">
        <ele>2283</ele>
        <time>2018-10-17T12:09:11Z</time>
      </trkpt>
      <trkpt lat="45.80414" lon="6.41767">
        <ele>2283</ele>
        <time>2018-10-17T12:09:12Z</time>
      </trkpt>
      <trkpt lat="45.80411" lon="6.41768">
        <ele>2282</ele>
        <time>2018-10-17T12:09:13Z</time>
      </trkpt>
      <trkpt lat="45.80411" lon="6.41768">
        <ele>2281</ele>
        <time>2018-10-17T12:09:14Z</time>
      </trkpt>
      <trkpt lat="45.80408" lon="6.41769">
        <ele>2281</ele>
        <time>2018-10-17T12:09:15Z</time>
      </trkpt>
      <trkpt lat="45.80408" lon="6.41769">
        <ele>2281</ele>
        <time>2018-10-17T12:09:16Z</time>
      </trkpt>
      <trkpt lat="45.80408" lon="6.41769">
        <ele>2281</ele>
        <time>2018-10-17T12:09:17Z</time>
      </trkpt>
      <trkpt lat="45.80408" lon="6.41769">
        <ele>2281</ele>
        <time>2018-10-17T12:09:18Z</time>
      </trkpt>
      <trkpt lat="45.80407" lon="6.4177">
        <ele>2281</ele>
        <time>2018-10-17T12:09:19Z</time>
      </trkpt>
      <trkpt lat="45.80407" lon="6.4177">
        <ele>2281</ele>
        <time>2018-10-17T12:09:20Z</time>
      </trkpt>
      <trkpt lat="45.80407" lon="6.4177">
        <ele>2281</ele>
        <time>2018-10-17T12:09:21Z</time>
      </trkpt>
      <trkpt lat="45.80406" lon="6.41767">
        <ele>2280</ele>
        <time>2018-10-17T12:09:22Z</time>
      </trkpt>
      <trkpt lat="45.80406" lon="6.41767">
        <ele>2280</ele>
        <time>2018-10-17T12:09:23Z</time>
      </trkpt>
      <trkpt lat="45.80406" lon="6.41767">
        <ele>2280</ele>
        <time>2018-10-17T12:09:24Z</time>
      </trkpt>
      <trkpt lat="45.80407" lon="6.41764">
        <ele>2280</ele>
        <time>2018-10-17T12:09:25Z</time>
      </trkpt>
      <trkpt lat="45.80407" lon="6.41764">
        <ele>2279</ele>
        <time>2018-10-17T12:09:26Z</time>
      </trkpt>
      <trkpt lat="45.80407" lon="6.41764">
        <ele>2278</ele>
        <time>2018-10-17T12:09:27Z</time>
      </trkpt>
      <trkpt lat="45.80408" lon="6.41761">
        <ele>2278</ele>
        <time>2018-10-17T12:09:28Z</time>
      </trkpt>
      <trkpt lat="45.80408" lon="6.41761">
        <ele>2277</ele>
        <time>2018-10-17T12:09:29Z</time>
      </trkpt>
      <trkpt lat="45.8041" lon="6.41757">
        <ele>2277</ele>
        <time>2018-10-17T12:09:30Z</time>
      </trkpt>
      <trkpt lat="45.80411" lon="6.41755">
        <ele>2276</ele>
        <time>2018-10-17T12:09:31Z</time>
      </trkpt>
      <trkpt lat="45.80413" lon="6.41753">
        <ele>2276</ele>
        <time>2018-10-17T12:09:32Z</time>
      </trkpt>
      <trkpt lat="45.80414" lon="6.41751">
        <ele>2276</ele>
        <time>2018-10-17T12:09:33Z</time>
      </trkpt>
      <trkpt lat="45.80415" lon="6.41748">
        <ele>2275</ele>
        <time>2018-10-17T12:09:34Z</time>
      </trkpt>
      <trkpt lat="45.80416" lon="6.41746">
        <ele>2275</ele>
        <time>2018-10-17T12:09:35Z</time>
      </trkpt>
      <trkpt lat="45.80416" lon="6.41746">
        <ele>2274</ele>
        <time>2018-10-17T12:09:36Z</time>
      </trkpt>
      <trkpt lat="45.80418" lon="6.41743">
        <ele>2272</ele>
        <time>2018-10-17T12:09:37Z</time>
      </trkpt>
      <trkpt lat="45.80418" lon="6.41743">
        <ele>2271</ele>
        <time>2018-10-17T12:09:38Z</time>
      </trkpt>
      <trkpt lat="45.80419" lon="6.41739">
        <ele>2271</ele>
        <time>2018-10-17T12:09:39Z</time>
      </trkpt>
      <trkpt lat="45.80419" lon="6.41739">
        <ele>2270</ele>
        <time>2018-10-17T12:09:40Z</time>
      </trkpt>
      <trkpt lat="45.80422" lon="6.41736">
        <ele>2270</ele>
        <time>2018-10-17T12:09:41Z</time>
      </trkpt>
      <trkpt lat="45.80422" lon="6.41736">
        <ele>2270</ele>
        <time>2018-10-17T12:09:42Z</time>
      </trkpt>
      <trkpt lat="45.80424" lon="6.41732">
        <ele>2270</ele>
        <time>2018-10-17T12:09:43Z</time>
      </trkpt>
      <trkpt lat="45.80424" lon="6.41732">
        <ele>2268</ele>
        <time>2018-10-17T12:09:44Z</time>
      </trkpt>
      <trkpt lat="45.80426" lon="6.41729">
        <ele>2267</ele>
        <time>2018-10-17T12:09:45Z</time>
      </trkpt>
      <trkpt lat="45.80426" lon="6.41729">
        <ele>2267</ele>
        <time>2018-10-17T12:09:46Z</time>
      </trkpt>
      <trkpt lat="45.80428" lon="6.41725">
        <ele>2267</ele>
        <time>2018-10-17T12:09:47Z</time>
      </trkpt>
      <trkpt lat="45.80428" lon="6.41725">
        <ele>2266</ele>
        <time>2018-10-17T12:09:48Z</time>
      </trkpt>
      <trkpt lat="45.8043" lon="6.41721">
        <ele>2265</ele>
        <time>2018-10-17T12:09:49Z</time>
      </trkpt>
      <trkpt lat="45.80431" lon="6.41719">
        <ele>2264</ele>
        <time>2018-10-17T12:09:51Z</time>
      </trkpt>
      <trkpt lat="45.80431" lon="6.41719">
        <ele>2264</ele>
        <time>2018-10-17T12:09:52Z</time>
      </trkpt>
      <trkpt lat="45.80431" lon="6.41719">
        <ele>2263</ele>
        <time>2018-10-17T12:09:53Z</time>
      </trkpt>
      <trkpt lat="45.80431" lon="6.41719">
        <ele>2262</ele>
        <time>2018-10-17T12:09:54Z</time>
      </trkpt>
      <trkpt lat="45.80432" lon="6.41716">
        <ele>2262</ele>
        <time>2018-10-17T12:09:55Z</time>
      </trkpt>
      <trkpt lat="45.80432" lon="6.41716">
        <ele>2261</ele>
        <time>2018-10-17T12:09:56Z</time>
      </trkpt>
      <trkpt lat="45.80432" lon="6.41716">
        <ele>2262</ele>
        <time>2018-10-17T12:09:57Z</time>
      </trkpt>
      <trkpt lat="45.80431" lon="6.41719">
        <ele>2262</ele>
        <time>2018-10-17T12:09:58Z</time>
      </trkpt>
      <trkpt lat="45.80431" lon="6.41719">
        <ele>2261</ele>
        <time>2018-10-17T12:09:59Z</time>
      </trkpt>
      <trkpt lat="45.80431" lon="6.41719">
        <ele>2261</ele>
        <time>2018-10-17T12:10:00Z</time>
      </trkpt>
      <trkpt lat="45.80429" lon="6.4172">
        <ele>2261</ele>
        <time>2018-10-17T12:10:01Z</time>
      </trkpt>
      <trkpt lat="45.80429" lon="6.4172">
        <ele>2261</ele>
        <time>2018-10-17T12:10:02Z</time>
      </trkpt>
      <trkpt lat="45.80429" lon="6.4172">
        <ele>2260</ele>
        <time>2018-10-17T12:10:03Z</time>
      </trkpt>
      <trkpt lat="45.80429" lon="6.4172">
        <ele>2260</ele>
        <time>2018-10-17T12:10:04Z</time>
      </trkpt>
      <trkpt lat="45.80427" lon="6.4172">
        <ele>2260</ele>
        <time>2018-10-17T12:10:05Z</time>
      </trkpt>
      <trkpt lat="45.80427" lon="6.4172">
        <ele>2259</ele>
        <time>2018-10-17T12:10:06Z</time>
      </trkpt>
      <trkpt lat="45.80427" lon="6.4172">
        <ele>2259</ele>
        <time>2018-10-17T12:10:07Z</time>
      </trkpt>
      <trkpt lat="45.80424" lon="6.41718">
        <ele>2258</ele>
        <time>2018-10-17T12:10:08Z</time>
      </trkpt>
      <trkpt lat="45.80424" lon="6.41718">
        <ele>2258</ele>
        <time>2018-10-17T12:10:09Z</time>
      </trkpt>
      <trkpt lat="45.80421" lon="6.41718">
        <ele>2258</ele>
        <time>2018-10-17T12:10:10Z</time>
      </trkpt>
      <trkpt lat="45.80421" lon="6.41718">
        <ele>2257</ele>
        <time>2018-10-17T12:10:11Z</time>
      </trkpt>
      <trkpt lat="45.80418" lon="6.41718">
        <ele>2257</ele>
        <time>2018-10-17T12:10:12Z</time>
      </trkpt>
      <trkpt lat="45.80416" lon="6.41719">
        <ele>2256</ele>
        <time>2018-10-17T12:10:13Z</time>
      </trkpt>
      <trkpt lat="45.80414" lon="6.41719">
        <ele>2255</ele>
        <time>2018-10-17T12:10:14Z</time>
      </trkpt>
      <trkpt lat="45.80412" lon="6.41719">
        <ele>2254</ele>
        <time>2018-10-17T12:10:15Z</time>
      </trkpt>
      <trkpt lat="45.8041" lon="6.41719">
        <ele>2254</ele>
        <time>2018-10-17T12:10:16Z</time>
      </trkpt>
      <trkpt lat="45.80408" lon="6.4172">
        <ele>2253</ele>
        <time>2018-10-17T12:10:17Z</time>
      </trkpt>
      <trkpt lat="45.80406" lon="6.4172">
        <ele>2253</ele>
        <time>2018-10-17T12:10:18Z</time>
      </trkpt>
      <trkpt lat="45.80406" lon="6.4172">
        <ele>2253</ele>
        <time>2018-10-17T12:10:19Z</time>
      </trkpt>
      <trkpt lat="45.80404" lon="6.41722">
        <ele>2252</ele>
        <time>2018-10-17T12:10:20Z</time>
      </trkpt>
      <trkpt lat="45.80404" lon="6.41722">
        <ele>2252</ele>
        <time>2018-10-17T12:10:21Z</time>
      </trkpt>
      <trkpt lat="45.80404" lon="6.41722">
        <ele>2251</ele>
        <time>2018-10-17T12:10:22Z</time>
      </trkpt>
      <trkpt lat="45.80404" lon="6.41722">
        <ele>2251</ele>
        <time>2018-10-17T12:10:23Z</time>
      </trkpt>
      <trkpt lat="45.80404" lon="6.41722">
        <ele>2251</ele>
        <time>2018-10-17T12:10:24Z</time>
      </trkpt>
      <trkpt lat="45.80402" lon="6.41719">
        <ele>2250</ele>
        <time>2018-10-17T12:10:25Z</time>
      </trkpt>
      <trkpt lat="45.80402" lon="6.41719">
        <ele>2249</ele>
        <time>2018-10-17T12:10:26Z</time>
      </trkpt>
      <trkpt lat="45.80402" lon="6.41719">
        <ele>2249</ele>
        <time>2018-10-17T12:10:27Z</time>
      </trkpt>
      <trkpt lat="45.80402" lon="6.41719">
        <ele>2249</ele>
        <time>2018-10-17T12:10:28Z</time>
      </trkpt>
      <trkpt lat="45.80401" lon="6.41717">
        <ele>2249</ele>
        <time>2018-10-17T12:10:29Z</time>
      </trkpt>
      <trkpt lat="45.80401" lon="6.41717">
        <ele>2249</ele>
        <time>2018-10-17T12:10:30Z</time>
      </trkpt>
      <trkpt lat="45.80401" lon="6.41717">
        <ele>2248</ele>
        <time>2018-10-17T12:10:31Z</time>
      </trkpt>
      <trkpt lat="45.80401" lon="6.41715">
        <ele>2248</ele>
        <time>2018-10-17T12:10:32Z</time>
      </trkpt>
      <trkpt lat="45.80401" lon="6.41715">
        <ele>2246</ele>
        <time>2018-10-17T12:10:33Z</time>
      </trkpt>
      <trkpt lat="45.80401" lon="6.41715">
        <ele>2245</ele>
        <time>2018-10-17T12:10:34Z</time>
      </trkpt>
      <trkpt lat="45.80401" lon="6.41715">
        <ele>2244</ele>
        <time>2018-10-17T12:10:35Z</time>
      </trkpt>
      <trkpt lat="45.80401" lon="6.41715">
        <ele>2244</ele>
        <time>2018-10-17T12:10:36Z</time>
      </trkpt>
      <trkpt lat="45.80401" lon="6.41715">
        <ele>2244</ele>
        <time>2018-10-17T12:10:37Z</time>
      </trkpt>
      <trkpt lat="45.80401" lon="6.41715">
        <ele>2244</ele>
        <time>2018-10-17T12:10:38Z</time>
      </trkpt>
      <trkpt lat="45.80399" lon="6.41715">
        <ele>2244</ele>
        <time>2018-10-17T12:10:39Z</time>
      </trkpt>
      <trkpt lat="45.80399" lon="6.41715">
        <ele>2244</ele>
        <time>2018-10-17T12:10:40Z</time>
      </trkpt>
      <trkpt lat="45.80399" lon="6.41715">
        <ele>2244</ele>
        <time>2018-10-17T12:10:41Z</time>
      </trkpt>
      <trkpt lat="45.80399" lon="6.41715">
        <ele>2244</ele>
        <time>2018-10-17T12:10:42Z</time>
      </trkpt>
      <trkpt lat="45.80399" lon="6.41711">
        <ele>2243</ele>
        <time>2018-10-17T12:10:43Z</time>
      </trkpt>
      <trkpt lat="45.80399" lon="6.41711">
        <ele>2242</ele>
        <time>2018-10-17T12:10:44Z</time>
      </trkpt>
      <trkpt lat="45.804" lon="6.41709">
        <ele>2241</ele>
        <time>2018-10-17T12:10:45Z</time>
      </trkpt>
      <trkpt lat="45.804" lon="6.41709">
        <ele>2241</ele>
        <time>2018-10-17T12:10:46Z</time>
      </trkpt>
      <trkpt lat="45.80401" lon="6.41707">
        <ele>2241</ele>
        <time>2018-10-17T12:10:47Z</time>
      </trkpt>
      <trkpt lat="45.80401" lon="6.41707">
        <ele>2241</ele>
        <time>2018-10-17T12:10:48Z</time>
      </trkpt>
      <trkpt lat="45.80401" lon="6.41707">
        <ele>2240</ele>
        <time>2018-10-17T12:10:49Z</time>
      </trkpt>
      <trkpt lat="45.80403" lon="6.41704">
        <ele>2240</ele>
        <time>2018-10-17T12:10:50Z</time>
      </trkpt>
      <trkpt lat="45.80403" lon="6.41704">
        <ele>2240</ele>
        <time>2018-10-17T12:10:51Z</time>
      </trkpt>
      <trkpt lat="45.80403" lon="6.41704">
        <ele>2239</ele>
        <time>2018-10-17T12:10:52Z</time>
      </trkpt>
      <trkpt lat="45.80403" lon="6.41701">
        <ele>2239</ele>
        <time>2018-10-17T12:10:53Z</time>
      </trkpt>
      <trkpt lat="45.80403" lon="6.41701">
        <ele>2239</ele>
        <time>2018-10-17T12:10:54Z</time>
      </trkpt>
      <trkpt lat="45.80403" lon="6.41701">
        <ele>2238</ele>
        <time>2018-10-17T12:10:55Z</time>
      </trkpt>
      <trkpt lat="45.80403" lon="6.41701">
        <ele>2238</ele>
        <time>2018-10-17T12:10:56Z</time>
      </trkpt>
      <trkpt lat="45.80403" lon="6.41697">
        <ele>2238</ele>
        <time>2018-10-17T12:10:57Z</time>
      </trkpt>
      <trkpt lat="45.80403" lon="6.41697">
        <ele>2238</ele>
        <time>2018-10-17T12:10:58Z</time>
      </trkpt>
      <trkpt lat="45.80403" lon="6.41697">
        <ele>2237</ele>
        <time>2018-10-17T12:10:59Z</time>
      </trkpt>
      <trkpt lat="45.80404" lon="6.41693">
        <ele>2236</ele>
        <time>2018-10-17T12:11:00Z</time>
      </trkpt>
      <trkpt lat="45.80404" lon="6.41693">
        <ele>2235</ele>
        <time>2018-10-17T12:11:01Z</time>
      </trkpt>
      <trkpt lat="45.80405" lon="6.41689">
        <ele>2235</ele>
        <time>2018-10-17T12:11:02Z</time>
      </trkpt>
      <trkpt lat="45.80405" lon="6.41689">
        <ele>2234</ele>
        <time>2018-10-17T12:11:03Z</time>
      </trkpt>
      <trkpt lat="45.80407" lon="6.41685">
        <ele>2233</ele>
        <time>2018-10-17T12:11:04Z</time>
      </trkpt>
      <trkpt lat="45.80407" lon="6.41685">
        <ele>2232</ele>
        <time>2018-10-17T12:11:05Z</time>
      </trkpt>
      <trkpt lat="45.80408" lon="6.41683">
        <ele>2232</ele>
        <time>2018-10-17T12:11:06Z</time>
      </trkpt>
      <trkpt lat="45.80408" lon="6.41683">
        <ele>2232</ele>
        <time>2018-10-17T12:11:07Z</time>
      </trkpt>
      <trkpt lat="45.80408" lon="6.41683">
        <ele>2232</ele>
        <time>2018-10-17T12:11:08Z</time>
      </trkpt>
      <trkpt lat="45.80409" lon="6.4168">
        <ele>2232</ele>
        <time>2018-10-17T12:11:09Z</time>
      </trkpt>
      <trkpt lat="45.80409" lon="6.4168">
        <ele>2231</ele>
        <time>2018-10-17T12:11:10Z</time>
      </trkpt>
      <trkpt lat="45.80409" lon="6.4168">
        <ele>2230</ele>
        <time>2018-10-17T12:11:11Z</time>
      </trkpt>
      <trkpt lat="45.80409" lon="6.4168">
        <ele>2230</ele>
        <time>2018-10-17T12:11:12Z</time>
      </trkpt>
      <trkpt lat="45.80409" lon="6.4168">
        <ele>2230</ele>
        <time>2018-10-17T12:11:13Z</time>
      </trkpt>
      <trkpt lat="45.80409" lon="6.4168">
        <ele>2230</ele>
        <time>2018-10-17T12:11:14Z</time>
      </trkpt>
      <trkpt lat="45.80409" lon="6.41677">
        <ele>2230</ele>
        <time>2018-10-17T12:11:15Z</time>
      </trkpt>
      <trkpt lat="45.80409" lon="6.41677">
        <ele>2230</ele>
        <time>2018-10-17T12:11:16Z</time>
      </trkpt>
      <trkpt lat="45.80409" lon="6.41677">
        <ele>2230</ele>
        <time>2018-10-17T12:11:17Z</time>
      </trkpt>
      <trkpt lat="45.80409" lon="6.41677">
        <ele>2230</ele>
        <time>2018-10-17T12:11:18Z</time>
      </trkpt>
      <trkpt lat="45.80406" lon="6.41678">
        <ele>2229</ele>
        <time>2018-10-17T12:11:19Z</time>
      </trkpt>
      <trkpt lat="45.80406" lon="6.41678">
        <ele>2228</ele>
        <time>2018-10-17T12:11:20Z</time>
      </trkpt>
      <trkpt lat="45.80404" lon="6.41679">
        <ele>2228</ele>
        <time>2018-10-17T12:11:21Z</time>
      </trkpt>
      <trkpt lat="45.80404" lon="6.41679">
        <ele>2228</ele>
        <time>2018-10-17T12:11:22Z</time>
      </trkpt>
      <trkpt lat="45.80403" lon="6.4168">
        <ele>2227</ele>
        <time>2018-10-17T12:11:23Z</time>
      </trkpt>
      <trkpt lat="45.80403" lon="6.4168">
        <ele>2227</ele>
        <time>2018-10-17T12:11:24Z</time>
      </trkpt>
      <trkpt lat="45.80401" lon="6.41681">
        <ele>2227</ele>
        <time>2018-10-17T12:11:25Z</time>
      </trkpt>
      <trkpt lat="45.80401" lon="6.41681">
        <ele>2227</ele>
        <time>2018-10-17T12:11:26Z</time>
      </trkpt>
      <trkpt lat="45.80401" lon="6.41681">
        <ele>2226</ele>
        <time>2018-10-17T12:11:27Z</time>
      </trkpt>
      <trkpt lat="45.80398" lon="6.41682">
        <ele>2225</ele>
        <time>2018-10-17T12:11:28Z</time>
      </trkpt>
      <trkpt lat="45.80398" lon="6.41682">
        <ele>2225</ele>
        <time>2018-10-17T12:11:29Z</time>
      </trkpt>
      <trkpt lat="45.80398" lon="6.41682">
        <ele>2225</ele>
        <time>2018-10-17T12:11:30Z</time>
      </trkpt>
      <trkpt lat="45.80395" lon="6.41683">
        <ele>2225</ele>
        <time>2018-10-17T12:11:31Z</time>
      </trkpt>
      <trkpt lat="45.80394" lon="6.41683">
        <ele>2224</ele>
        <time>2018-10-17T12:11:32Z</time>
      </trkpt>
      <trkpt lat="45.80393" lon="6.41683">
        <ele>2224</ele>
        <time>2018-10-17T12:11:33Z</time>
      </trkpt>
      <trkpt lat="45.80391" lon="6.41683">
        <ele>2223</ele>
        <time>2018-10-17T12:11:34Z</time>
      </trkpt>
      <trkpt lat="45.80391" lon="6.41683">
        <ele>2223</ele>
        <time>2018-10-17T12:11:35Z</time>
      </trkpt>
      <trkpt lat="45.80388" lon="6.41683">
        <ele>2223</ele>
        <time>2018-10-17T12:11:36Z</time>
      </trkpt>
      <trkpt lat="45.80388" lon="6.41683">
        <ele>2222</ele>
        <time>2018-10-17T12:11:37Z</time>
      </trkpt>
      <trkpt lat="45.80385" lon="6.41685">
        <ele>2220</ele>
        <time>2018-10-17T12:11:38Z</time>
      </trkpt>
      <trkpt lat="45.80385" lon="6.41685">
        <ele>2219</ele>
        <time>2018-10-17T12:11:39Z</time>
      </trkpt>
      <trkpt lat="45.80382" lon="6.41686">
        <ele>2219</ele>
        <time>2018-10-17T12:11:40Z</time>
      </trkpt>
      <trkpt lat="45.80382" lon="6.41686">
        <ele>2219</ele>
        <time>2018-10-17T12:11:41Z</time>
      </trkpt>
      <trkpt lat="45.8038" lon="6.41687">
        <ele>2218</ele>
        <time>2018-10-17T12:11:42Z</time>
      </trkpt>
      <trkpt lat="45.8038" lon="6.41687">
        <ele>2218</ele>
        <time>2018-10-17T12:11:43Z</time>
      </trkpt>
      <trkpt lat="45.80378" lon="6.41687">
        <ele>2217</ele>
        <time>2018-10-17T12:11:44Z</time>
      </trkpt>
      <trkpt lat="45.80378" lon="6.41687">
        <ele>2217</ele>
        <time>2018-10-17T12:11:45Z</time>
      </trkpt>
      <trkpt lat="45.80376" lon="6.41688">
        <ele>2216</ele>
        <time>2018-10-17T12:11:46Z</time>
      </trkpt>
      <trkpt lat="45.80376" lon="6.41688">
        <ele>2216</ele>
        <time>2018-10-17T12:11:47Z</time>
      </trkpt>
      <trkpt lat="45.80376" lon="6.41688">
        <ele>2216</ele>
        <time>2018-10-17T12:11:48Z</time>
      </trkpt>
      <trkpt lat="45.80376" lon="6.41688">
        <ele>2215</ele>
        <time>2018-10-17T12:11:49Z</time>
      </trkpt>
      <trkpt lat="45.80374" lon="6.41689">
        <ele>2215</ele>
        <time>2018-10-17T12:11:50Z</time>
      </trkpt>
      <trkpt lat="45.80374" lon="6.41689">
        <ele>2215</ele>
        <time>2018-10-17T12:11:51Z</time>
      </trkpt>
      <trkpt lat="45.80374" lon="6.41689">
        <ele>2215</ele>
        <time>2018-10-17T12:11:52Z</time>
      </trkpt>
      <trkpt lat="45.80371" lon="6.4169">
        <ele>2215</ele>
        <time>2018-10-17T12:11:53Z</time>
      </trkpt>
      <trkpt lat="45.80371" lon="6.4169">
        <ele>2215</ele>
        <time>2018-10-17T12:11:54Z</time>
      </trkpt>
      <trkpt lat="45.80369" lon="6.4169">
        <ele>2215</ele>
        <time>2018-10-17T12:11:55Z</time>
      </trkpt>
      <trkpt lat="45.80369" lon="6.4169">
        <ele>2214</ele>
        <time>2018-10-17T12:11:56Z</time>
      </trkpt>
      <trkpt lat="45.80369" lon="6.4169">
        <ele>2213</ele>
        <time>2018-10-17T12:11:57Z</time>
      </trkpt>
      <trkpt lat="45.80366" lon="6.41691">
        <ele>2213</ele>
        <time>2018-10-17T12:11:58Z</time>
      </trkpt>
      <trkpt lat="45.80366" lon="6.41691">
        <ele>2213</ele>
        <time>2018-10-17T12:11:59Z</time>
      </trkpt>
      <trkpt lat="45.80366" lon="6.41691">
        <ele>2213</ele>
        <time>2018-10-17T12:12:00Z</time>
      </trkpt>
      <trkpt lat="45.80366" lon="6.41691">
        <ele>2213</ele>
        <time>2018-10-17T12:12:01Z</time>
      </trkpt>
      <trkpt lat="45.80366" lon="6.41691">
        <ele>2213</ele>
        <time>2018-10-17T12:12:02Z</time>
      </trkpt>
      <trkpt lat="45.80366" lon="6.41691">
        <ele>2213</ele>
        <time>2018-10-17T12:12:03Z</time>
      </trkpt>
      <trkpt lat="45.80366" lon="6.41691">
        <ele>2213</ele>
        <time>2018-10-17T12:12:04Z</time>
      </trkpt>
      <trkpt lat="45.80366" lon="6.41691">
        <ele>2212</ele>
        <time>2018-10-17T12:12:05Z</time>
      </trkpt>
      <trkpt lat="45.80366" lon="6.41691">
        <ele>2212</ele>
        <time>2018-10-17T12:12:06Z</time>
      </trkpt>
      <trkpt lat="45.80366" lon="6.41691">
        <ele>2212</ele>
        <time>2018-10-17T12:12:07Z</time>
      </trkpt>
      <trkpt lat="45.80364" lon="6.41691">
        <ele>2212</ele>
        <time>2018-10-17T12:12:08Z</time>
      </trkpt>
      <trkpt lat="45.80364" lon="6.41691">
        <ele>2212</ele>
        <time>2018-10-17T12:12:09Z</time>
      </trkpt>
      <trkpt lat="45.80362" lon="6.4169">
        <ele>2211</ele>
        <time>2018-10-17T12:12:10Z</time>
      </trkpt>
      <trkpt lat="45.80362" lon="6.4169">
        <ele>2211</ele>
        <time>2018-10-17T12:12:11Z</time>
      </trkpt>
      <trkpt lat="45.8036" lon="6.41689">
        <ele>2211</ele>
        <time>2018-10-17T12:12:12Z</time>
      </trkpt>
      <trkpt lat="45.8036" lon="6.41689">
        <ele>2210</ele>
        <time>2018-10-17T12:12:13Z</time>
      </trkpt>
      <trkpt lat="45.8036" lon="6.41689">
        <ele>2210</ele>
        <time>2018-10-17T12:12:14Z</time>
      </trkpt>
      <trkpt lat="45.80358" lon="6.41689">
        <ele>2209</ele>
        <time>2018-10-17T12:12:15Z</time>
      </trkpt>
      <trkpt lat="45.80358" lon="6.41689">
        <ele>2209</ele>
        <time>2018-10-17T12:12:16Z</time>
      </trkpt>
      <trkpt lat="45.80355" lon="6.41686">
        <ele>2209</ele>
        <time>2018-10-17T12:12:17Z</time>
      </trkpt>
      <trkpt lat="45.80355" lon="6.41686">
        <ele>2209</ele>
        <time>2018-10-17T12:12:18Z</time>
      </trkpt>
      <trkpt lat="45.80352" lon="6.41685">
        <ele>2208</ele>
        <time>2018-10-17T12:12:19Z</time>
      </trkpt>
      <trkpt lat="45.80352" lon="6.41685">
        <ele>2208</ele>
        <time>2018-10-17T12:12:20Z</time>
      </trkpt>
      <trkpt lat="45.80351" lon="6.41682">
        <ele>2207</ele>
        <time>2018-10-17T12:12:21Z</time>
      </trkpt>
      <trkpt lat="45.80351" lon="6.41682">
        <ele>2206</ele>
        <time>2018-10-17T12:12:22Z</time>
      </trkpt>
      <trkpt lat="45.80349" lon="6.4168">
        <ele>2205</ele>
        <time>2018-10-17T12:12:23Z</time>
      </trkpt>
      <trkpt lat="45.80349" lon="6.4168">
        <ele>2204</ele>
        <time>2018-10-17T12:12:24Z</time>
      </trkpt>
      <trkpt lat="45.80346" lon="6.41678">
        <ele>2204</ele>
        <time>2018-10-17T12:12:25Z</time>
      </trkpt>
      <trkpt lat="45.80346" lon="6.41678">
        <ele>2203</ele>
        <time>2018-10-17T12:12:26Z</time>
      </trkpt>
      <trkpt lat="45.80342" lon="6.41676">
        <ele>2202</ele>
        <time>2018-10-17T12:12:27Z</time>
      </trkpt>
      <trkpt lat="45.80342" lon="6.41676">
        <ele>2201</ele>
        <time>2018-10-17T12:12:28Z</time>
      </trkpt>
      <trkpt lat="45.80339" lon="6.41674">
        <ele>2201</ele>
        <time>2018-10-17T12:12:29Z</time>
      </trkpt>
      <trkpt lat="45.80338" lon="6.41674">
        <ele>2200</ele>
        <time>2018-10-17T12:12:30Z</time>
      </trkpt>
      <trkpt lat="45.80336" lon="6.41673">
        <ele>2200</ele>
        <time>2018-10-17T12:12:31Z</time>
      </trkpt>
      <trkpt lat="45.80334" lon="6.41672">
        <ele>2199</ele>
        <time>2018-10-17T12:12:32Z</time>
      </trkpt>
      <trkpt lat="45.80332" lon="6.41671">
        <ele>2199</ele>
        <time>2018-10-17T12:12:33Z</time>
      </trkpt>
      <trkpt lat="45.8033" lon="6.41671">
        <ele>2197</ele>
        <time>2018-10-17T12:12:34Z</time>
      </trkpt>
      <trkpt lat="45.8033" lon="6.41671">
        <ele>2196</ele>
        <time>2018-10-17T12:12:35Z</time>
      </trkpt>
      <trkpt lat="45.80327" lon="6.41669">
        <ele>2196</ele>
        <time>2018-10-17T12:12:36Z</time>
      </trkpt>
      <trkpt lat="45.80327" lon="6.41669">
        <ele>2196</ele>
        <time>2018-10-17T12:12:37Z</time>
      </trkpt>
      <trkpt lat="45.80328" lon="6.41666">
        <ele>2196</ele>
        <time>2018-10-17T12:12:38Z</time>
      </trkpt>
      <trkpt lat="45.80328" lon="6.41666">
        <ele>2194</ele>
        <time>2018-10-17T12:12:39Z</time>
      </trkpt>
      <trkpt lat="45.80329" lon="6.41665">
        <ele>2194</ele>
        <time>2018-10-17T12:12:40Z</time>
      </trkpt>
      <trkpt lat="45.80329" lon="6.41665">
        <ele>2194</ele>
        <time>2018-10-17T12:12:41Z</time>
      </trkpt>
      <trkpt lat="45.80332" lon="6.41665">
        <ele>2194</ele>
        <time>2018-10-17T12:12:42Z</time>
      </trkpt>
      <trkpt lat="45.80332" lon="6.41665">
        <ele>2193</ele>
        <time>2018-10-17T12:12:43Z</time>
      </trkpt>
      <trkpt lat="45.80334" lon="6.41665">
        <ele>2193</ele>
        <time>2018-10-17T12:12:44Z</time>
      </trkpt>
      <trkpt lat="45.80334" lon="6.41665">
        <ele>2193</ele>
        <time>2018-10-17T12:12:45Z</time>
      </trkpt>
      <trkpt lat="45.80337" lon="6.41663">
        <ele>2192</ele>
        <time>2018-10-17T12:12:46Z</time>
      </trkpt>
      <trkpt lat="45.80337" lon="6.41663">
        <ele>2192</ele>
        <time>2018-10-17T12:12:47Z</time>
      </trkpt>
      <trkpt lat="45.80336" lon="6.4166">
        <ele>2192</ele>
        <time>2018-10-17T12:12:48Z</time>
      </trkpt>
      <trkpt lat="45.80336" lon="6.4166">
        <ele>2191</ele>
        <time>2018-10-17T12:12:49Z</time>
      </trkpt>
      <trkpt lat="45.80334" lon="6.41655">
        <ele>2190</ele>
        <time>2018-10-17T12:12:50Z</time>
      </trkpt>
      <trkpt lat="45.80334" lon="6.41655">
        <ele>2190</ele>
        <time>2018-10-17T12:12:51Z</time>
      </trkpt>
      <trkpt lat="45.80331" lon="6.41652">
        <ele>2190</ele>
        <time>2018-10-17T12:12:52Z</time>
      </trkpt>
      <trkpt lat="45.80331" lon="6.41652">
        <ele>2189</ele>
        <time>2018-10-17T12:12:53Z</time>
      </trkpt>
      <trkpt lat="45.80328" lon="6.41652">
        <ele>2188</ele>
        <time>2018-10-17T12:12:54Z</time>
      </trkpt>
      <trkpt lat="45.80328" lon="6.41652">
        <ele>2187</ele>
        <time>2018-10-17T12:12:55Z</time>
      </trkpt>
      <trkpt lat="45.80325" lon="6.41652">
        <ele>2187</ele>
        <time>2018-10-17T12:12:56Z</time>
      </trkpt>
      <trkpt lat="45.80325" lon="6.41652">
        <ele>2187</ele>
        <time>2018-10-17T12:12:57Z</time>
      </trkpt>
      <trkpt lat="45.80323" lon="6.41651">
        <ele>2186</ele>
        <time>2018-10-17T12:12:58Z</time>
      </trkpt>
      <trkpt lat="45.80323" lon="6.41651">
        <ele>2186</ele>
        <time>2018-10-17T12:12:59Z</time>
      </trkpt>
      <trkpt lat="45.80322" lon="6.41647">
        <ele>2186</ele>
        <time>2018-10-17T12:13:00Z</time>
      </trkpt>
      <trkpt lat="45.80322" lon="6.41647">
        <ele>2185</ele>
        <time>2018-10-17T12:13:01Z</time>
      </trkpt>
      <trkpt lat="45.80323" lon="6.41644">
        <ele>2185</ele>
        <time>2018-10-17T12:13:02Z</time>
      </trkpt>
      <trkpt lat="45.80323" lon="6.41644">
        <ele>2185</ele>
        <time>2018-10-17T12:13:03Z</time>
      </trkpt>
      <trkpt lat="45.80325" lon="6.4164">
        <ele>2184</ele>
        <time>2018-10-17T12:13:04Z</time>
      </trkpt>
      <trkpt lat="45.80325" lon="6.4164">
        <ele>2183</ele>
        <time>2018-10-17T12:13:05Z</time>
      </trkpt>
      <trkpt lat="45.80327" lon="6.41637">
        <ele>2183</ele>
        <time>2018-10-17T12:13:06Z</time>
      </trkpt>
      <trkpt lat="45.80327" lon="6.41637">
        <ele>2182</ele>
        <time>2018-10-17T12:13:07Z</time>
      </trkpt>
      <trkpt lat="45.8033" lon="6.41634">
        <ele>2181</ele>
        <time>2018-10-17T12:13:08Z</time>
      </trkpt>
      <trkpt lat="45.8033" lon="6.41634">
        <ele>2181</ele>
        <time>2018-10-17T12:13:09Z</time>
      </trkpt>
      <trkpt lat="45.80333" lon="6.41632">
        <ele>2181</ele>
        <time>2018-10-17T12:13:10Z</time>
      </trkpt>
      <trkpt lat="45.80333" lon="6.41632">
        <ele>2181</ele>
        <time>2018-10-17T12:13:11Z</time>
      </trkpt>
      <trkpt lat="45.80335" lon="6.41629">
        <ele>2180</ele>
        <time>2018-10-17T12:13:12Z</time>
      </trkpt>
      <trkpt lat="45.80335" lon="6.41629">
        <ele>2179</ele>
        <time>2018-10-17T12:13:13Z</time>
      </trkpt>
      <trkpt lat="45.80335" lon="6.41629">
        <ele>2179</ele>
        <time>2018-10-17T12:13:14Z</time>
      </trkpt>
      <trkpt lat="45.80332" lon="6.41628">
        <ele>2179</ele>
        <time>2018-10-17T12:13:15Z</time>
      </trkpt>
      <trkpt lat="45.80332" lon="6.41628">
        <ele>2179</ele>
        <time>2018-10-17T12:13:16Z</time>
      </trkpt>
      <trkpt lat="45.80329" lon="6.41628">
        <ele>2179</ele>
        <time>2018-10-17T12:13:17Z</time>
      </trkpt>
      <trkpt lat="45.80329" lon="6.41628">
        <ele>2178</ele>
        <time>2018-10-17T12:13:18Z</time>
      </trkpt>
      <trkpt lat="45.80326" lon="6.41627">
        <ele>2178</ele>
        <time>2018-10-17T12:13:19Z</time>
      </trkpt>
      <trkpt lat="45.80326" lon="6.41627">
        <ele>2178</ele>
        <time>2018-10-17T12:13:20Z</time>
      </trkpt>
      <trkpt lat="45.80323" lon="6.41626">
        <ele>2178</ele>
        <time>2018-10-17T12:13:21Z</time>
      </trkpt>
      <trkpt lat="45.80323" lon="6.41626">
        <ele>2177</ele>
        <time>2018-10-17T12:13:22Z</time>
      </trkpt>
      <trkpt lat="45.8032" lon="6.41627">
        <ele>2176</ele>
        <time>2018-10-17T12:13:23Z</time>
      </trkpt>
      <trkpt lat="45.8032" lon="6.41627">
        <ele>2176</ele>
        <time>2018-10-17T12:13:24Z</time>
      </trkpt>
      <trkpt lat="45.80319" lon="6.41624">
        <ele>2176</ele>
        <time>2018-10-17T12:13:25Z</time>
      </trkpt>
      <trkpt lat="45.80319" lon="6.41624">
        <ele>2175</ele>
        <time>2018-10-17T12:13:26Z</time>
      </trkpt>
      <trkpt lat="45.80322" lon="6.41621">
        <ele>2175</ele>
        <time>2018-10-17T12:13:27Z</time>
      </trkpt>
      <trkpt lat="45.80323" lon="6.41621">
        <ele>2174</ele>
        <time>2018-10-17T12:13:28Z</time>
      </trkpt>
      <trkpt lat="45.80323" lon="6.41621">
        <ele>2173</ele>
        <time>2018-10-17T12:13:29Z</time>
      </trkpt>
      <trkpt lat="45.80326" lon="6.4162">
        <ele>2173</ele>
        <time>2018-10-17T12:13:30Z</time>
      </trkpt>
      <trkpt lat="45.80326" lon="6.4162">
        <ele>2173</ele>
        <time>2018-10-17T12:13:31Z</time>
      </trkpt>
      <trkpt lat="45.80329" lon="6.41617">
        <ele>2172</ele>
        <time>2018-10-17T12:13:32Z</time>
      </trkpt>
      <trkpt lat="45.80329" lon="6.41617">
        <ele>2172</ele>
        <time>2018-10-17T12:13:33Z</time>
      </trkpt>
      <trkpt lat="45.80331" lon="6.41614">
        <ele>2172</ele>
        <time>2018-10-17T12:13:34Z</time>
      </trkpt>
      <trkpt lat="45.80331" lon="6.41614">
        <ele>2171</ele>
        <time>2018-10-17T12:13:35Z</time>
      </trkpt>
      <trkpt lat="45.80333" lon="6.41611">
        <ele>2171</ele>
        <time>2018-10-17T12:13:36Z</time>
      </trkpt>
      <trkpt lat="45.80333" lon="6.41611">
        <ele>2170</ele>
        <time>2018-10-17T12:13:37Z</time>
      </trkpt>
      <trkpt lat="45.80335" lon="6.41608">
        <ele>2170</ele>
        <time>2018-10-17T12:13:38Z</time>
      </trkpt>
      <trkpt lat="45.80335" lon="6.41608">
        <ele>2170</ele>
        <time>2018-10-17T12:13:39Z</time>
      </trkpt>
      <trkpt lat="45.80336" lon="6.41606">
        <ele>2168</ele>
        <time>2018-10-17T12:13:40Z</time>
      </trkpt>
      <trkpt lat="45.80336" lon="6.41606">
        <ele>2167</ele>
        <time>2018-10-17T12:13:41Z</time>
      </trkpt>
      <trkpt lat="45.80337" lon="6.41603">
        <ele>2167</ele>
        <time>2018-10-17T12:13:42Z</time>
      </trkpt>
      <trkpt lat="45.80337" lon="6.41603">
        <ele>2167</ele>
        <time>2018-10-17T12:13:43Z</time>
      </trkpt>
      <trkpt lat="45.8034" lon="6.41601">
        <ele>2166</ele>
        <time>2018-10-17T12:13:44Z</time>
      </trkpt>
      <trkpt lat="45.8034" lon="6.41601">
        <ele>2165</ele>
        <time>2018-10-17T12:13:45Z</time>
      </trkpt>
      <trkpt lat="45.80343" lon="6.416">
        <ele>2165</ele>
        <time>2018-10-17T12:13:46Z</time>
      </trkpt>
      <trkpt lat="45.80343" lon="6.416">
        <ele>2164</ele>
        <time>2018-10-17T12:13:47Z</time>
      </trkpt>
      <trkpt lat="45.80346" lon="6.41599">
        <ele>2164</ele>
        <time>2018-10-17T12:13:48Z</time>
      </trkpt>
      <trkpt lat="45.80346" lon="6.41599">
        <ele>2164</ele>
        <time>2018-10-17T12:13:49Z</time>
      </trkpt>
      <trkpt lat="45.80349" lon="6.41598">
        <ele>2163</ele>
        <time>2018-10-17T12:13:50Z</time>
      </trkpt>
      <trkpt lat="45.80349" lon="6.41598">
        <ele>2162</ele>
        <time>2018-10-17T12:13:51Z</time>
      </trkpt>
      <trkpt lat="45.80351" lon="6.41596">
        <ele>2162</ele>
        <time>2018-10-17T12:13:52Z</time>
      </trkpt>
      <trkpt lat="45.80351" lon="6.41596">
        <ele>2162</ele>
        <time>2018-10-17T12:13:53Z</time>
      </trkpt>
      <trkpt lat="45.80354" lon="6.41594">
        <ele>2161</ele>
        <time>2018-10-17T12:13:54Z</time>
      </trkpt>
      <trkpt lat="45.80354" lon="6.41594">
        <ele>2161</ele>
        <time>2018-10-17T12:13:55Z</time>
      </trkpt>
      <trkpt lat="45.80356" lon="6.41592">
        <ele>2160</ele>
        <time>2018-10-17T12:13:56Z</time>
      </trkpt>
      <trkpt lat="45.80356" lon="6.41592">
        <ele>2160</ele>
        <time>2018-10-17T12:13:57Z</time>
      </trkpt>
      <trkpt lat="45.80356" lon="6.41592">
        <ele>2160</ele>
        <time>2018-10-17T12:13:58Z</time>
      </trkpt>
      <trkpt lat="45.80358" lon="6.41589">
        <ele>2160</ele>
        <time>2018-10-17T12:13:59Z</time>
      </trkpt>
      <trkpt lat="45.80358" lon="6.41589">
        <ele>2160</ele>
        <time>2018-10-17T12:14:00Z</time>
      </trkpt>
      <trkpt lat="45.80358" lon="6.41589">
        <ele>2158</ele>
        <time>2018-10-17T12:14:01Z</time>
      </trkpt>
      <trkpt lat="45.80358" lon="6.41586">
        <ele>2158</ele>
        <time>2018-10-17T12:14:02Z</time>
      </trkpt>
      <trkpt lat="45.80358" lon="6.41586">
        <ele>2158</ele>
        <time>2018-10-17T12:14:03Z</time>
      </trkpt>
      <trkpt lat="45.80357" lon="6.41583">
        <ele>2158</ele>
        <time>2018-10-17T12:14:04Z</time>
      </trkpt>
      <trkpt lat="45.80357" lon="6.41583">
        <ele>2157</ele>
        <time>2018-10-17T12:14:05Z</time>
      </trkpt>
      <trkpt lat="45.80357" lon="6.41583">
        <ele>2157</ele>
        <time>2018-10-17T12:14:06Z</time>
      </trkpt>
      <trkpt lat="45.80357" lon="6.4158">
        <ele>2157</ele>
        <time>2018-10-17T12:14:07Z</time>
      </trkpt>
      <trkpt lat="45.80357" lon="6.4158">
        <ele>2157</ele>
        <time>2018-10-17T12:14:08Z</time>
      </trkpt>
      <trkpt lat="45.80356" lon="6.41578">
        <ele>2157</ele>
        <time>2018-10-17T12:14:09Z</time>
      </trkpt>
      <trkpt lat="45.80356" lon="6.41578">
        <ele>2156</ele>
        <time>2018-10-17T12:14:10Z</time>
      </trkpt>
      <trkpt lat="45.80356" lon="6.41575">
        <ele>2155</ele>
        <time>2018-10-17T12:14:11Z</time>
      </trkpt>
      <trkpt lat="45.80356" lon="6.41575">
        <ele>2155</ele>
        <time>2018-10-17T12:14:12Z</time>
      </trkpt>
      <trkpt lat="45.80356" lon="6.41575">
        <ele>2155</ele>
        <time>2018-10-17T12:14:13Z</time>
      </trkpt>
      <trkpt lat="45.80356" lon="6.41575">
        <ele>2155</ele>
        <time>2018-10-17T12:14:14Z</time>
      </trkpt>
      <trkpt lat="45.80356" lon="6.41575">
        <ele>2155</ele>
        <time>2018-10-17T12:14:15Z</time>
      </trkpt>
      <trkpt lat="45.80356" lon="6.41575">
        <ele>2155</ele>
        <time>2018-10-17T12:14:16Z</time>
      </trkpt>
      <trkpt lat="45.80356" lon="6.41575">
        <ele>2155</ele>
        <time>2018-10-17T12:14:17Z</time>
      </trkpt>
      <trkpt lat="45.80357" lon="6.41573">
        <ele>2154</ele>
        <time>2018-10-17T12:14:18Z</time>
      </trkpt>
      <trkpt lat="45.80357" lon="6.41573">
        <ele>2153</ele>
        <time>2018-10-17T12:14:19Z</time>
      </trkpt>
      <trkpt lat="45.80357" lon="6.41573">
        <ele>2152</ele>
        <time>2018-10-17T12:14:20Z</time>
      </trkpt>
      <trkpt lat="45.80359" lon="6.41571">
        <ele>2152</ele>
        <time>2018-10-17T12:14:21Z</time>
      </trkpt>
      <trkpt lat="45.80359" lon="6.41571">
        <ele>2151</ele>
        <time>2018-10-17T12:14:22Z</time>
      </trkpt>
      <trkpt lat="45.80359" lon="6.41571">
        <ele>2151</ele>
        <time>2018-10-17T12:14:23Z</time>
      </trkpt>
      <trkpt lat="45.8036" lon="6.41568">
        <ele>2151</ele>
        <time>2018-10-17T12:14:24Z</time>
      </trkpt>
      <trkpt lat="45.8036" lon="6.41568">
        <ele>2151</ele>
        <time>2018-10-17T12:14:25Z</time>
      </trkpt>
      <trkpt lat="45.80361" lon="6.41566">
        <ele>2150</ele>
        <time>2018-10-17T12:14:26Z</time>
      </trkpt>
      <trkpt lat="45.80361" lon="6.41566">
        <ele>2150</ele>
        <time>2018-10-17T12:14:27Z</time>
      </trkpt>
      <trkpt lat="45.80361" lon="6.41564">
        <ele>2150</ele>
        <time>2018-10-17T12:14:28Z</time>
      </trkpt>
      <trkpt lat="45.80361" lon="6.41564">
        <ele>2149</ele>
        <time>2018-10-17T12:14:29Z</time>
      </trkpt>
      <trkpt lat="45.80361" lon="6.41564">
        <ele>2148</ele>
        <time>2018-10-17T12:14:30Z</time>
      </trkpt>
      <trkpt lat="45.80361" lon="6.41564">
        <ele>2148</ele>
        <time>2018-10-17T12:14:31Z</time>
      </trkpt>
      <trkpt lat="45.80361" lon="6.41564">
        <ele>2147</ele>
        <time>2018-10-17T12:14:32Z</time>
      </trkpt>
      <trkpt lat="45.8036" lon="6.41561">
        <ele>2147</ele>
        <time>2018-10-17T12:14:33Z</time>
      </trkpt>
      <trkpt lat="45.8036" lon="6.41561">
        <ele>2147</ele>
        <time>2018-10-17T12:14:34Z</time>
      </trkpt>
      <trkpt lat="45.8036" lon="6.41561">
        <ele>2147</ele>
        <time>2018-10-17T12:14:35Z</time>
      </trkpt>
      <trkpt lat="45.8036" lon="6.41561">
        <ele>2146</ele>
        <time>2018-10-17T12:14:36Z</time>
      </trkpt>
      <trkpt lat="45.80358" lon="6.41559">
        <ele>2146</ele>
        <time>2018-10-17T12:14:37Z</time>
      </trkpt>
      <trkpt lat="45.80358" lon="6.41559">
        <ele>2145</ele>
        <time>2018-10-17T12:14:38Z</time>
      </trkpt>
      <trkpt lat="45.80356" lon="6.41559">
        <ele>2145</ele>
        <time>2018-10-17T12:14:39Z</time>
      </trkpt>
      <trkpt lat="45.80356" lon="6.41559">
        <ele>2145</ele>
        <time>2018-10-17T12:14:40Z</time>
      </trkpt>
      <trkpt lat="45.80353" lon="6.41559">
        <ele>2145</ele>
        <time>2018-10-17T12:14:41Z</time>
      </trkpt>
      <trkpt lat="45.80351" lon="6.4156">
        <ele>2144</ele>
        <time>2018-10-17T12:14:42Z</time>
      </trkpt>
      <trkpt lat="45.80349" lon="6.41561">
        <ele>2144</ele>
        <time>2018-10-17T12:14:43Z</time>
      </trkpt>
      <trkpt lat="45.80347" lon="6.41561">
        <ele>2144</ele>
        <time>2018-10-17T12:14:44Z</time>
      </trkpt>
      <trkpt lat="45.80347" lon="6.41561">
        <ele>2144</ele>
        <time>2018-10-17T12:14:45Z</time>
      </trkpt>
      <trkpt lat="45.80344" lon="6.4156">
        <ele>2144</ele>
        <time>2018-10-17T12:14:46Z</time>
      </trkpt>
      <trkpt lat="45.80344" lon="6.4156">
        <ele>2144</ele>
        <time>2018-10-17T12:14:47Z</time>
      </trkpt>
      <trkpt lat="45.80341" lon="6.41558">
        <ele>2142</ele>
        <time>2018-10-17T12:14:48Z</time>
      </trkpt>
      <trkpt lat="45.80341" lon="6.41558">
        <ele>2141</ele>
        <time>2018-10-17T12:14:49Z</time>
      </trkpt>
      <trkpt lat="45.80338" lon="6.41558">
        <ele>2140</ele>
        <time>2018-10-17T12:14:50Z</time>
      </trkpt>
      <trkpt lat="45.80338" lon="6.41558">
        <ele>2140</ele>
        <time>2018-10-17T12:14:51Z</time>
      </trkpt>
      <trkpt lat="45.80336" lon="6.41559">
        <ele>2140</ele>
        <time>2018-10-17T12:14:52Z</time>
      </trkpt>
      <trkpt lat="45.80336" lon="6.41559">
        <ele>2140</ele>
        <time>2018-10-17T12:14:53Z</time>
      </trkpt>
      <trkpt lat="45.80334" lon="6.41556">
        <ele>2139</ele>
        <time>2018-10-17T12:14:54Z</time>
      </trkpt>
      <trkpt lat="45.80334" lon="6.41556">
        <ele>2138</ele>
        <time>2018-10-17T12:14:55Z</time>
      </trkpt>
      <trkpt lat="45.80335" lon="6.41553">
        <ele>2138</ele>
        <time>2018-10-17T12:14:56Z</time>
      </trkpt>
      <trkpt lat="45.80335" lon="6.41553">
        <ele>2138</ele>
        <time>2018-10-17T12:14:57Z</time>
      </trkpt>
      <trkpt lat="45.80337" lon="6.41551">
        <ele>2138</ele>
        <time>2018-10-17T12:14:58Z</time>
      </trkpt>
      <trkpt lat="45.80337" lon="6.41551">
        <ele>2137</ele>
        <time>2018-10-17T12:14:59Z</time>
      </trkpt>
      <trkpt lat="45.80338" lon="6.41548">
        <ele>2136</ele>
        <time>2018-10-17T12:15:00Z</time>
      </trkpt>
      <trkpt lat="45.80338" lon="6.41548">
        <ele>2136</ele>
        <time>2018-10-17T12:15:01Z</time>
      </trkpt>
      <trkpt lat="45.80338" lon="6.41544">
        <ele>2135</ele>
        <time>2018-10-17T12:15:02Z</time>
      </trkpt>
      <trkpt lat="45.80338" lon="6.41544">
        <ele>2134</ele>
        <time>2018-10-17T12:15:03Z</time>
      </trkpt>
      <trkpt lat="45.80337" lon="6.41541">
        <ele>2134</ele>
        <time>2018-10-17T12:15:04Z</time>
      </trkpt>
      <trkpt lat="45.80337" lon="6.41541">
        <ele>2134</ele>
        <time>2018-10-17T12:15:05Z</time>
      </trkpt>
      <trkpt lat="45.80338" lon="6.41538">
        <ele>2133</ele>
        <time>2018-10-17T12:15:06Z</time>
      </trkpt>
      <trkpt lat="45.80338" lon="6.41538">
        <ele>2133</ele>
        <time>2018-10-17T12:15:07Z</time>
      </trkpt>
      <trkpt lat="45.80338" lon="6.41538">
        <ele>2132</ele>
        <time>2018-10-17T12:15:08Z</time>
      </trkpt>
      <trkpt lat="45.80338" lon="6.41538">
        <ele>2132</ele>
        <time>2018-10-17T12:15:09Z</time>
      </trkpt>
      <trkpt lat="45.80336" lon="6.41536">
        <ele>2131</ele>
        <time>2018-10-17T12:15:10Z</time>
      </trkpt>
      <trkpt lat="45.80336" lon="6.41536">
        <ele>2131</ele>
        <time>2018-10-17T12:15:11Z</time>
      </trkpt>
      <trkpt lat="45.80334" lon="6.41535">
        <ele>2131</ele>
        <time>2018-10-17T12:15:12Z</time>
      </trkpt>
      <trkpt lat="45.80334" lon="6.41535">
        <ele>2130</ele>
        <time>2018-10-17T12:15:13Z</time>
      </trkpt>
      <trkpt lat="45.80332" lon="6.41534">
        <ele>2130</ele>
        <time>2018-10-17T12:15:14Z</time>
      </trkpt>
      <trkpt lat="45.80332" lon="6.41534">
        <ele>2130</ele>
        <time>2018-10-17T12:15:15Z</time>
      </trkpt>
      <trkpt lat="45.8033" lon="6.41533">
        <ele>2129</ele>
        <time>2018-10-17T12:15:16Z</time>
      </trkpt>
      <trkpt lat="45.8033" lon="6.41533">
        <ele>2129</ele>
        <time>2018-10-17T12:15:17Z</time>
      </trkpt>
      <trkpt lat="45.80327" lon="6.41533">
        <ele>2128</ele>
        <time>2018-10-17T12:15:18Z</time>
      </trkpt>
      <trkpt lat="45.80327" lon="6.41533">
        <ele>2128</ele>
        <time>2018-10-17T12:15:19Z</time>
      </trkpt>
      <trkpt lat="45.80324" lon="6.41532">
        <ele>2127</ele>
        <time>2018-10-17T12:15:20Z</time>
      </trkpt>
      <trkpt lat="45.80324" lon="6.41532">
        <ele>2127</ele>
        <time>2018-10-17T12:15:21Z</time>
      </trkpt>
      <trkpt lat="45.80323" lon="6.4153">
        <ele>2127</ele>
        <time>2018-10-17T12:15:22Z</time>
      </trkpt>
      <trkpt lat="45.80323" lon="6.4153">
        <ele>2127</ele>
        <time>2018-10-17T12:15:23Z</time>
      </trkpt>
      <trkpt lat="45.80323" lon="6.41526">
        <ele>2127</ele>
        <time>2018-10-17T12:15:24Z</time>
      </trkpt>
      <trkpt lat="45.80323" lon="6.41526">
        <ele>2126</ele>
        <time>2018-10-17T12:15:25Z</time>
      </trkpt>
      <trkpt lat="45.80322" lon="6.41523">
        <ele>2125</ele>
        <time>2018-10-17T12:15:26Z</time>
      </trkpt>
      <trkpt lat="45.80322" lon="6.41523">
        <ele>2125</ele>
        <time>2018-10-17T12:15:27Z</time>
      </trkpt>
      <trkpt lat="45.80319" lon="6.41521">
        <ele>2125</ele>
        <time>2018-10-17T12:15:28Z</time>
      </trkpt>
      <trkpt lat="45.80319" lon="6.41521">
        <ele>2125</ele>
        <time>2018-10-17T12:15:29Z</time>
      </trkpt>
      <trkpt lat="45.80319" lon="6.41517">
        <ele>2124</ele>
        <time>2018-10-17T12:15:30Z</time>
      </trkpt>
      <trkpt lat="45.80319" lon="6.41517">
        <ele>2123</ele>
        <time>2018-10-17T12:15:31Z</time>
      </trkpt>
      <trkpt lat="45.80317" lon="6.41516">
        <ele>2122</ele>
        <time>2018-10-17T12:15:32Z</time>
      </trkpt>
      <trkpt lat="45.80317" lon="6.41516">
        <ele>2122</ele>
        <time>2018-10-17T12:15:33Z</time>
      </trkpt>
      <trkpt lat="45.80316" lon="6.41513">
        <ele>2121</ele>
        <time>2018-10-17T12:15:34Z</time>
      </trkpt>
      <trkpt lat="45.80316" lon="6.41513">
        <ele>2121</ele>
        <time>2018-10-17T12:15:35Z</time>
      </trkpt>
      <trkpt lat="45.80317" lon="6.4151">
        <ele>2120</ele>
        <time>2018-10-17T12:15:36Z</time>
      </trkpt>
      <trkpt lat="45.80317" lon="6.4151">
        <ele>2120</ele>
        <time>2018-10-17T12:15:37Z</time>
      </trkpt>
      <trkpt lat="45.80319" lon="6.41508">
        <ele>2119</ele>
        <time>2018-10-17T12:15:38Z</time>
      </trkpt>
      <trkpt lat="45.80319" lon="6.41508">
        <ele>2119</ele>
        <time>2018-10-17T12:15:39Z</time>
      </trkpt>
      <trkpt lat="45.80319" lon="6.41508">
        <ele>2119</ele>
        <time>2018-10-17T12:15:40Z</time>
      </trkpt>
      <trkpt lat="45.80317" lon="6.41506">
        <ele>2119</ele>
        <time>2018-10-17T12:15:41Z</time>
      </trkpt>
      <trkpt lat="45.80317" lon="6.41506">
        <ele>2118</ele>
        <time>2018-10-17T12:15:42Z</time>
      </trkpt>
      <trkpt lat="45.80315" lon="6.41502">
        <ele>2118</ele>
        <time>2018-10-17T12:15:43Z</time>
      </trkpt>
      <trkpt lat="45.80315" lon="6.41502">
        <ele>2115</ele>
        <time>2018-10-17T12:15:44Z</time>
      </trkpt>
      <trkpt lat="45.80314" lon="6.41498">
        <ele>2114</ele>
        <time>2018-10-17T12:15:45Z</time>
      </trkpt>
      <trkpt lat="45.80314" lon="6.41498">
        <ele>2114</ele>
        <time>2018-10-17T12:15:46Z</time>
      </trkpt>
      <trkpt lat="45.80313" lon="6.41495">
        <ele>2114</ele>
        <time>2018-10-17T12:15:47Z</time>
      </trkpt>
      <trkpt lat="45.80313" lon="6.41495">
        <ele>2113</ele>
        <time>2018-10-17T12:15:48Z</time>
      </trkpt>
      <trkpt lat="45.80314" lon="6.41492">
        <ele>2112</ele>
        <time>2018-10-17T12:15:49Z</time>
      </trkpt>
      <trkpt lat="45.80314" lon="6.41492">
        <ele>2111</ele>
        <time>2018-10-17T12:15:50Z</time>
      </trkpt>
      <trkpt lat="45.80317" lon="6.4149">
        <ele>2110</ele>
        <time>2018-10-17T12:15:51Z</time>
      </trkpt>
      <trkpt lat="45.80317" lon="6.4149">
        <ele>2110</ele>
        <time>2018-10-17T12:15:52Z</time>
      </trkpt>
      <trkpt lat="45.80319" lon="6.41488">
        <ele>2109</ele>
        <time>2018-10-17T12:15:53Z</time>
      </trkpt>
      <trkpt lat="45.80319" lon="6.41488">
        <ele>2108</ele>
        <time>2018-10-17T12:15:54Z</time>
      </trkpt>
      <trkpt lat="45.80319" lon="6.41488">
        <ele>2108</ele>
        <time>2018-10-17T12:15:55Z</time>
      </trkpt>
      <trkpt lat="45.80318" lon="6.41485">
        <ele>2108</ele>
        <time>2018-10-17T12:15:56Z</time>
      </trkpt>
      <trkpt lat="45.80318" lon="6.41485">
        <ele>2108</ele>
        <time>2018-10-17T12:15:57Z</time>
      </trkpt>
      <trkpt lat="45.80317" lon="6.41482">
        <ele>2108</ele>
        <time>2018-10-17T12:15:58Z</time>
      </trkpt>
      <trkpt lat="45.80317" lon="6.41482">
        <ele>2107</ele>
        <time>2018-10-17T12:15:59Z</time>
      </trkpt>
      <trkpt lat="45.80317" lon="6.41478">
        <ele>2106</ele>
        <time>2018-10-17T12:16:00Z</time>
      </trkpt>
      <trkpt lat="45.80317" lon="6.41478">
        <ele>2105</ele>
        <time>2018-10-17T12:16:01Z</time>
      </trkpt>
      <trkpt lat="45.8032" lon="6.41476">
        <ele>2105</ele>
        <time>2018-10-17T12:16:02Z</time>
      </trkpt>
      <trkpt lat="45.8032" lon="6.41476">
        <ele>2105</ele>
        <time>2018-10-17T12:16:03Z</time>
      </trkpt>
      <trkpt lat="45.80322" lon="6.41475">
        <ele>2104</ele>
        <time>2018-10-17T12:16:04Z</time>
      </trkpt>
      <trkpt lat="45.80322" lon="6.41475">
        <ele>2103</ele>
        <time>2018-10-17T12:16:05Z</time>
      </trkpt>
      <trkpt lat="45.80323" lon="6.41472">
        <ele>2102</ele>
        <time>2018-10-17T12:16:06Z</time>
      </trkpt>
      <trkpt lat="45.80323" lon="6.41472">
        <ele>2102</ele>
        <time>2018-10-17T12:16:07Z</time>
      </trkpt>
      <trkpt lat="45.80321" lon="6.4147">
        <ele>2102</ele>
        <time>2018-10-17T12:16:08Z</time>
      </trkpt>
      <trkpt lat="45.80321" lon="6.4147">
        <ele>2102</ele>
        <time>2018-10-17T12:16:09Z</time>
      </trkpt>
      <trkpt lat="45.80319" lon="6.41468">
        <ele>2101</ele>
        <time>2018-10-17T12:16:10Z</time>
      </trkpt>
      <trkpt lat="45.80319" lon="6.41468">
        <ele>2100</ele>
        <time>2018-10-17T12:16:11Z</time>
      </trkpt>
      <trkpt lat="45.80317" lon="6.41464">
        <ele>2100</ele>
        <time>2018-10-17T12:16:12Z</time>
      </trkpt>
      <trkpt lat="45.80317" lon="6.41464">
        <ele>2100</ele>
        <time>2018-10-17T12:16:13Z</time>
      </trkpt>
      <trkpt lat="45.80315" lon="6.41461">
        <ele>2098</ele>
        <time>2018-10-17T12:16:14Z</time>
      </trkpt>
      <trkpt lat="45.80315" lon="6.41461">
        <ele>2097</ele>
        <time>2018-10-17T12:16:15Z</time>
      </trkpt>
      <trkpt lat="45.80315" lon="6.41458">
        <ele>2097</ele>
        <time>2018-10-17T12:16:16Z</time>
      </trkpt>
      <trkpt lat="45.80315" lon="6.41458">
        <ele>2096</ele>
        <time>2018-10-17T12:16:17Z</time>
      </trkpt>
      <trkpt lat="45.80318" lon="6.41455">
        <ele>2096</ele>
        <time>2018-10-17T12:16:18Z</time>
      </trkpt>
      <trkpt lat="45.80318" lon="6.41455">
        <ele>2096</ele>
        <time>2018-10-17T12:16:19Z</time>
      </trkpt>
      <trkpt lat="45.80318" lon="6.41455">
        <ele>2095</ele>
        <time>2018-10-17T12:16:20Z</time>
      </trkpt>
      <trkpt lat="45.80316" lon="6.41452">
        <ele>2095</ele>
        <time>2018-10-17T12:16:21Z</time>
      </trkpt>
      <trkpt lat="45.80316" lon="6.41452">
        <ele>2095</ele>
        <time>2018-10-17T12:16:22Z</time>
      </trkpt>
      <trkpt lat="45.80314" lon="6.41449">
        <ele>2095</ele>
        <time>2018-10-17T12:16:23Z</time>
      </trkpt>
      <trkpt lat="45.80314" lon="6.41449">
        <ele>2094</ele>
        <time>2018-10-17T12:16:24Z</time>
      </trkpt>
      <trkpt lat="45.80314" lon="6.41446">
        <ele>2093</ele>
        <time>2018-10-17T12:16:25Z</time>
      </trkpt>
      <trkpt lat="45.80314" lon="6.41446">
        <ele>2092</ele>
        <time>2018-10-17T12:16:26Z</time>
      </trkpt>
      <trkpt lat="45.80317" lon="6.41444">
        <ele>2092</ele>
        <time>2018-10-17T12:16:27Z</time>
      </trkpt>
      <trkpt lat="45.80317" lon="6.41444">
        <ele>2092</ele>
        <time>2018-10-17T12:16:28Z</time>
      </trkpt>
      <trkpt lat="45.8032" lon="6.41442">
        <ele>2090</ele>
        <time>2018-10-17T12:16:29Z</time>
      </trkpt>
      <trkpt lat="45.8032" lon="6.41442">
        <ele>2089</ele>
        <time>2018-10-17T12:16:30Z</time>
      </trkpt>
      <trkpt lat="45.80318" lon="6.41439">
        <ele>2089</ele>
        <time>2018-10-17T12:16:31Z</time>
      </trkpt>
      <trkpt lat="45.80318" lon="6.41439">
        <ele>2089</ele>
        <time>2018-10-17T12:16:32Z</time>
      </trkpt>
      <trkpt lat="45.80316" lon="6.41435">
        <ele>2088</ele>
        <time>2018-10-17T12:16:33Z</time>
      </trkpt>
      <trkpt lat="45.80316" lon="6.41435">
        <ele>2088</ele>
        <time>2018-10-17T12:16:34Z</time>
      </trkpt>
      <trkpt lat="45.80317" lon="6.41433">
        <ele>2087</ele>
        <time>2018-10-17T12:16:35Z</time>
      </trkpt>
      <trkpt lat="45.80317" lon="6.41433">
        <ele>2087</ele>
        <time>2018-10-17T12:16:36Z</time>
      </trkpt>
      <trkpt lat="45.8032" lon="6.41432">
        <ele>2086</ele>
        <time>2018-10-17T12:16:37Z</time>
      </trkpt>
      <trkpt lat="45.8032" lon="6.41432">
        <ele>2085</ele>
        <time>2018-10-17T12:16:38Z</time>
      </trkpt>
      <trkpt lat="45.80323" lon="6.41431">
        <ele>2084</ele>
        <time>2018-10-17T12:16:39Z</time>
      </trkpt>
      <trkpt lat="45.80323" lon="6.41431">
        <ele>2084</ele>
        <time>2018-10-17T12:16:40Z</time>
      </trkpt>
      <trkpt lat="45.80323" lon="6.41431">
        <ele>2084</ele>
        <time>2018-10-17T12:16:41Z</time>
      </trkpt>
      <trkpt lat="45.80322" lon="6.41428">
        <ele>2083</ele>
        <time>2018-10-17T12:16:42Z</time>
      </trkpt>
      <trkpt lat="45.80322" lon="6.41428">
        <ele>2083</ele>
        <time>2018-10-17T12:16:43Z</time>
      </trkpt>
      <trkpt lat="45.8032" lon="6.41425">
        <ele>2083</ele>
        <time>2018-10-17T12:16:44Z</time>
      </trkpt>
      <trkpt lat="45.8032" lon="6.41425">
        <ele>2082</ele>
        <time>2018-10-17T12:16:45Z</time>
      </trkpt>
      <trkpt lat="45.80322" lon="6.41422">
        <ele>2081</ele>
        <time>2018-10-17T12:16:46Z</time>
      </trkpt>
      <trkpt lat="45.80322" lon="6.41422">
        <ele>2081</ele>
        <time>2018-10-17T12:16:47Z</time>
      </trkpt>
      <trkpt lat="45.80324" lon="6.4142">
        <ele>2080</ele>
        <time>2018-10-17T12:16:48Z</time>
      </trkpt>
      <trkpt lat="45.80324" lon="6.4142">
        <ele>2080</ele>
        <time>2018-10-17T12:16:49Z</time>
      </trkpt>
      <trkpt lat="45.80324" lon="6.41416">
        <ele>2080</ele>
        <time>2018-10-17T12:16:50Z</time>
      </trkpt>
      <trkpt lat="45.80324" lon="6.41416">
        <ele>2079</ele>
        <time>2018-10-17T12:16:51Z</time>
      </trkpt>
      <trkpt lat="45.80326" lon="6.41414">
        <ele>2078</ele>
        <time>2018-10-17T12:16:52Z</time>
      </trkpt>
      <trkpt lat="45.80326" lon="6.41414">
        <ele>2078</ele>
        <time>2018-10-17T12:16:53Z</time>
      </trkpt>
      <trkpt lat="45.80326" lon="6.4141">
        <ele>2078</ele>
        <time>2018-10-17T12:16:54Z</time>
      </trkpt>
      <trkpt lat="45.80326" lon="6.4141">
        <ele>2077</ele>
        <time>2018-10-17T12:16:55Z</time>
      </trkpt>
      <trkpt lat="45.80325" lon="6.41406">
        <ele>2077</ele>
        <time>2018-10-17T12:16:56Z</time>
      </trkpt>
      <trkpt lat="45.80325" lon="6.41406">
        <ele>2076</ele>
        <time>2018-10-17T12:16:57Z</time>
      </trkpt>
      <trkpt lat="45.80323" lon="6.41404">
        <ele>2075</ele>
        <time>2018-10-17T12:16:58Z</time>
      </trkpt>
      <trkpt lat="45.80323" lon="6.41404">
        <ele>2075</ele>
        <time>2018-10-17T12:16:59Z</time>
      </trkpt>
      <trkpt lat="45.80323" lon="6.41401">
        <ele>2075</ele>
        <time>2018-10-17T12:17:00Z</time>
      </trkpt>
      <trkpt lat="45.80323" lon="6.41401">
        <ele>2073</ele>
        <time>2018-10-17T12:17:01Z</time>
      </trkpt>
      <trkpt lat="45.80325" lon="6.41399">
        <ele>2073</ele>
        <time>2018-10-17T12:17:02Z</time>
      </trkpt>
      <trkpt lat="45.80325" lon="6.41399">
        <ele>2073</ele>
        <time>2018-10-17T12:17:03Z</time>
      </trkpt>
      <trkpt lat="45.80326" lon="6.41396">
        <ele>2072</ele>
        <time>2018-10-17T12:17:04Z</time>
      </trkpt>
      <trkpt lat="45.80326" lon="6.41396">
        <ele>2072</ele>
        <time>2018-10-17T12:17:05Z</time>
      </trkpt>
      <trkpt lat="45.80327" lon="6.41393">
        <ele>2072</ele>
        <time>2018-10-17T12:17:06Z</time>
      </trkpt>
      <trkpt lat="45.80327" lon="6.41393">
        <ele>2071</ele>
        <time>2018-10-17T12:17:07Z</time>
      </trkpt>
      <trkpt lat="45.80326" lon="6.4139">
        <ele>2070</ele>
        <time>2018-10-17T12:17:08Z</time>
      </trkpt>
      <trkpt lat="45.80326" lon="6.4139">
        <ele>2070</ele>
        <time>2018-10-17T12:17:09Z</time>
      </trkpt>
      <trkpt lat="45.80324" lon="6.41387">
        <ele>2069</ele>
        <time>2018-10-17T12:17:10Z</time>
      </trkpt>
      <trkpt lat="45.80324" lon="6.41387">
        <ele>2068</ele>
        <time>2018-10-17T12:17:11Z</time>
      </trkpt>
      <trkpt lat="45.80322" lon="6.41384">
        <ele>2068</ele>
        <time>2018-10-17T12:17:12Z</time>
      </trkpt>
      <trkpt lat="45.80322" lon="6.41384">
        <ele>2067</ele>
        <time>2018-10-17T12:17:13Z</time>
      </trkpt>
      <trkpt lat="45.80321" lon="6.41381">
        <ele>2066</ele>
        <time>2018-10-17T12:17:14Z</time>
      </trkpt>
      <trkpt lat="45.80321" lon="6.41381">
        <ele>2066</ele>
        <time>2018-10-17T12:17:15Z</time>
      </trkpt>
      <trkpt lat="45.80319" lon="6.4138">
        <ele>2066</ele>
        <time>2018-10-17T12:17:16Z</time>
      </trkpt>
      <trkpt lat="45.80319" lon="6.4138">
        <ele>2064</ele>
        <time>2018-10-17T12:17:17Z</time>
      </trkpt>
      <trkpt lat="45.80318" lon="6.41377">
        <ele>2064</ele>
        <time>2018-10-17T12:17:18Z</time>
      </trkpt>
      <trkpt lat="45.80318" lon="6.41377">
        <ele>2063</ele>
        <time>2018-10-17T12:17:19Z</time>
      </trkpt>
      <trkpt lat="45.8032" lon="6.41375">
        <ele>2063</ele>
        <time>2018-10-17T12:17:20Z</time>
      </trkpt>
      <trkpt lat="45.8032" lon="6.41375">
        <ele>2062</ele>
        <time>2018-10-17T12:17:21Z</time>
      </trkpt>
      <trkpt lat="45.8032" lon="6.41375">
        <ele>2062</ele>
        <time>2018-10-17T12:17:22Z</time>
      </trkpt>
      <trkpt lat="45.80319" lon="6.41373">
        <ele>2061</ele>
        <time>2018-10-17T12:17:23Z</time>
      </trkpt>
      <trkpt lat="45.80319" lon="6.41373">
        <ele>2061</ele>
        <time>2018-10-17T12:17:24Z</time>
      </trkpt>
      <trkpt lat="45.80318" lon="6.4137">
        <ele>2061</ele>
        <time>2018-10-17T12:17:25Z</time>
      </trkpt>
      <trkpt lat="45.80318" lon="6.4137">
        <ele>2061</ele>
        <time>2018-10-17T12:17:26Z</time>
      </trkpt>
      <trkpt lat="45.8032" lon="6.41367">
        <ele>2060</ele>
        <time>2018-10-17T12:17:27Z</time>
      </trkpt>
      <trkpt lat="45.8032" lon="6.41367">
        <ele>2059</ele>
        <time>2018-10-17T12:17:28Z</time>
      </trkpt>
      <trkpt lat="45.80321" lon="6.41364">
        <ele>2059</ele>
        <time>2018-10-17T12:17:29Z</time>
      </trkpt>
      <trkpt lat="45.80321" lon="6.41364">
        <ele>2058</ele>
        <time>2018-10-17T12:17:30Z</time>
      </trkpt>
      <trkpt lat="45.80324" lon="6.41363">
        <ele>2057</ele>
        <time>2018-10-17T12:17:31Z</time>
      </trkpt>
      <trkpt lat="45.80324" lon="6.41363">
        <ele>2056</ele>
        <time>2018-10-17T12:17:32Z</time>
      </trkpt>
      <trkpt lat="45.80324" lon="6.41363">
        <ele>2056</ele>
        <time>2018-10-17T12:17:33Z</time>
      </trkpt>
      <trkpt lat="45.80323" lon="6.4136">
        <ele>2056</ele>
        <time>2018-10-17T12:17:34Z</time>
      </trkpt>
      <trkpt lat="45.80323" lon="6.4136">
        <ele>2056</ele>
        <time>2018-10-17T12:17:35Z</time>
      </trkpt>
      <trkpt lat="45.80325" lon="6.41358">
        <ele>2055</ele>
        <time>2018-10-17T12:17:36Z</time>
      </trkpt>
      <trkpt lat="45.80325" lon="6.41358">
        <ele>2055</ele>
        <time>2018-10-17T12:17:37Z</time>
      </trkpt>
      <trkpt lat="45.80328" lon="6.41357">
        <ele>2055</ele>
        <time>2018-10-17T12:17:38Z</time>
      </trkpt>
      <trkpt lat="45.80328" lon="6.41357">
        <ele>2054</ele>
        <time>2018-10-17T12:17:39Z</time>
      </trkpt>
      <trkpt lat="45.8033" lon="6.41355">
        <ele>2054</ele>
        <time>2018-10-17T12:17:40Z</time>
      </trkpt>
      <trkpt lat="45.8033" lon="6.41355">
        <ele>2053</ele>
        <time>2018-10-17T12:17:41Z</time>
      </trkpt>
      <trkpt lat="45.80332" lon="6.41352">
        <ele>2052</ele>
        <time>2018-10-17T12:17:42Z</time>
      </trkpt>
      <trkpt lat="45.80332" lon="6.41352">
        <ele>2052</ele>
        <time>2018-10-17T12:17:43Z</time>
      </trkpt>
      <trkpt lat="45.80332" lon="6.41352">
        <ele>2051</ele>
        <time>2018-10-17T12:17:44Z</time>
      </trkpt>
      <trkpt lat="45.80331" lon="6.4135">
        <ele>2051</ele>
        <time>2018-10-17T12:17:45Z</time>
      </trkpt>
      <trkpt lat="45.80331" lon="6.4135">
        <ele>2050</ele>
        <time>2018-10-17T12:17:46Z</time>
      </trkpt>
      <trkpt lat="45.80331" lon="6.4135">
        <ele>2050</ele>
        <time>2018-10-17T12:17:47Z</time>
      </trkpt>
      <trkpt lat="45.8033" lon="6.41347">
        <ele>2049</ele>
        <time>2018-10-17T12:17:48Z</time>
      </trkpt>
      <trkpt lat="45.8033" lon="6.41347">
        <ele>2048</ele>
        <time>2018-10-17T12:17:49Z</time>
      </trkpt>
      <trkpt lat="45.80332" lon="6.41345">
        <ele>2048</ele>
        <time>2018-10-17T12:17:50Z</time>
      </trkpt>
      <trkpt lat="45.80332" lon="6.41345">
        <ele>2048</ele>
        <time>2018-10-17T12:17:51Z</time>
      </trkpt>
      <trkpt lat="45.80334" lon="6.41343">
        <ele>2047</ele>
        <time>2018-10-17T12:17:52Z</time>
      </trkpt>
      <trkpt lat="45.80334" lon="6.41343">
        <ele>2047</ele>
        <time>2018-10-17T12:17:53Z</time>
      </trkpt>
      <trkpt lat="45.80334" lon="6.41343">
        <ele>2047</ele>
        <time>2018-10-17T12:17:54Z</time>
      </trkpt>
      <trkpt lat="45.80336" lon="6.41342">
        <ele>2047</ele>
        <time>2018-10-17T12:17:55Z</time>
      </trkpt>
      <trkpt lat="45.80336" lon="6.41342">
        <ele>2047</ele>
        <time>2018-10-17T12:17:56Z</time>
      </trkpt>
      <trkpt lat="45.80336" lon="6.41342">
        <ele>2046</ele>
        <time>2018-10-17T12:17:57Z</time>
      </trkpt>
      <trkpt lat="45.80337" lon="6.41339">
        <ele>2046</ele>
        <time>2018-10-17T12:17:58Z</time>
      </trkpt>
      <trkpt lat="45.80337" lon="6.41339">
        <ele>2046</ele>
        <time>2018-10-17T12:17:59Z</time>
      </trkpt>
      <trkpt lat="45.80337" lon="6.41336">
        <ele>2045</ele>
        <time>2018-10-17T12:18:00Z</time>
      </trkpt>
      <trkpt lat="45.80337" lon="6.41336">
        <ele>2044</ele>
        <time>2018-10-17T12:18:01Z</time>
      </trkpt>
      <trkpt lat="45.80338" lon="6.41333">
        <ele>2044</ele>
        <time>2018-10-17T12:18:02Z</time>
      </trkpt>
      <trkpt lat="45.80338" lon="6.41333">
        <ele>2043</ele>
        <time>2018-10-17T12:18:03Z</time>
      </trkpt>
      <trkpt lat="45.8034" lon="6.4133">
        <ele>2043</ele>
        <time>2018-10-17T12:18:04Z</time>
      </trkpt>
      <trkpt lat="45.8034" lon="6.4133">
        <ele>2042</ele>
        <time>2018-10-17T12:18:05Z</time>
      </trkpt>
      <trkpt lat="45.80341" lon="6.41326">
        <ele>2041</ele>
        <time>2018-10-17T12:18:06Z</time>
      </trkpt>
      <trkpt lat="45.80341" lon="6.41326">
        <ele>2041</ele>
        <time>2018-10-17T12:18:07Z</time>
      </trkpt>
      <trkpt lat="45.80342" lon="6.41323">
        <ele>2041</ele>
        <time>2018-10-17T12:18:08Z</time>
      </trkpt>
      <trkpt lat="45.80342" lon="6.41323">
        <ele>2040</ele>
        <time>2018-10-17T12:18:09Z</time>
      </trkpt>
      <trkpt lat="45.80344" lon="6.41319">
        <ele>2040</ele>
        <time>2018-10-17T12:18:10Z</time>
      </trkpt>
      <trkpt lat="45.80344" lon="6.41319">
        <ele>2040</ele>
        <time>2018-10-17T12:18:11Z</time>
      </trkpt>
      <trkpt lat="45.80346" lon="6.41316">
        <ele>2038</ele>
        <time>2018-10-17T12:18:12Z</time>
      </trkpt>
      <trkpt lat="45.80346" lon="6.41316">
        <ele>2037</ele>
        <time>2018-10-17T12:18:13Z</time>
      </trkpt>
      <trkpt lat="45.80348" lon="6.41314">
        <ele>2037</ele>
        <time>2018-10-17T12:18:14Z</time>
      </trkpt>
      <trkpt lat="45.80348" lon="6.41314">
        <ele>2037</ele>
        <time>2018-10-17T12:18:15Z</time>
      </trkpt>
      <trkpt lat="45.80349" lon="6.41312">
        <ele>2036</ele>
        <time>2018-10-17T12:18:16Z</time>
      </trkpt>
      <trkpt lat="45.80349" lon="6.41312">
        <ele>2035</ele>
        <time>2018-10-17T12:18:17Z</time>
      </trkpt>
      <trkpt lat="45.80349" lon="6.41312">
        <ele>2034</ele>
        <time>2018-10-17T12:18:18Z</time>
      </trkpt>
      <trkpt lat="45.80347" lon="6.41311">
        <ele>2033</ele>
        <time>2018-10-17T12:18:19Z</time>
      </trkpt>
      <trkpt lat="45.80347" lon="6.41311">
        <ele>2033</ele>
        <time>2018-10-17T12:18:20Z</time>
      </trkpt>
      <trkpt lat="45.80344" lon="6.41312">
        <ele>2033</ele>
        <time>2018-10-17T12:18:21Z</time>
      </trkpt>
      <trkpt lat="45.80344" lon="6.41312">
        <ele>2033</ele>
        <time>2018-10-17T12:18:22Z</time>
      </trkpt>
      <trkpt lat="45.80342" lon="6.41311">
        <ele>2032</ele>
        <time>2018-10-17T12:18:23Z</time>
      </trkpt>
      <trkpt lat="45.80342" lon="6.41311">
        <ele>2032</ele>
        <time>2018-10-17T12:18:24Z</time>
      </trkpt>
      <trkpt lat="45.80343" lon="6.41308">
        <ele>2032</ele>
        <time>2018-10-17T12:18:25Z</time>
      </trkpt>
      <trkpt lat="45.80343" lon="6.41308">
        <ele>2031</ele>
        <time>2018-10-17T12:18:26Z</time>
      </trkpt>
      <trkpt lat="45.80345" lon="6.41306">
        <ele>2030</ele>
        <time>2018-10-17T12:18:27Z</time>
      </trkpt>
      <trkpt lat="45.80345" lon="6.41306">
        <ele>2030</ele>
        <time>2018-10-17T12:18:28Z</time>
      </trkpt>
      <trkpt lat="45.80346" lon="6.41303">
        <ele>2030</ele>
        <time>2018-10-17T12:18:29Z</time>
      </trkpt>
      <trkpt lat="45.80346" lon="6.41303">
        <ele>2030</ele>
        <time>2018-10-17T12:18:30Z</time>
      </trkpt>
      <trkpt lat="45.80347" lon="6.41301">
        <ele>2029</ele>
        <time>2018-10-17T12:18:31Z</time>
      </trkpt>
      <trkpt lat="45.80347" lon="6.41301">
        <ele>2028</ele>
        <time>2018-10-17T12:18:32Z</time>
      </trkpt>
      <trkpt lat="45.80349" lon="6.41298">
        <ele>2027</ele>
        <time>2018-10-17T12:18:33Z</time>
      </trkpt>
      <trkpt lat="45.80349" lon="6.41298">
        <ele>2027</ele>
        <time>2018-10-17T12:18:34Z</time>
      </trkpt>
      <trkpt lat="45.80351" lon="6.41295">
        <ele>2027</ele>
        <time>2018-10-17T12:18:35Z</time>
      </trkpt>
      <trkpt lat="45.80351" lon="6.41295">
        <ele>2027</ele>
        <time>2018-10-17T12:18:36Z</time>
      </trkpt>
      <trkpt lat="45.80352" lon="6.41293">
        <ele>2026</ele>
        <time>2018-10-17T12:18:37Z</time>
      </trkpt>
      <trkpt lat="45.80352" lon="6.41293">
        <ele>2025</ele>
        <time>2018-10-17T12:18:38Z</time>
      </trkpt>
      <trkpt lat="45.80354" lon="6.41291">
        <ele>2025</ele>
        <time>2018-10-17T12:18:39Z</time>
      </trkpt>
      <trkpt lat="45.80354" lon="6.41291">
        <ele>2025</ele>
        <time>2018-10-17T12:18:40Z</time>
      </trkpt>
      <trkpt lat="45.80354" lon="6.41287">
        <ele>2024</ele>
        <time>2018-10-17T12:18:41Z</time>
      </trkpt>
      <trkpt lat="45.80354" lon="6.41287">
        <ele>2024</ele>
        <time>2018-10-17T12:18:42Z</time>
      </trkpt>
      <trkpt lat="45.80355" lon="6.41283">
        <ele>2023</ele>
        <time>2018-10-17T12:18:43Z</time>
      </trkpt>
      <trkpt lat="45.80355" lon="6.41283">
        <ele>2023</ele>
        <time>2018-10-17T12:18:44Z</time>
      </trkpt>
      <trkpt lat="45.80357" lon="6.41279">
        <ele>2023</ele>
        <time>2018-10-17T12:18:45Z</time>
      </trkpt>
      <trkpt lat="45.80357" lon="6.41279">
        <ele>2022</ele>
        <time>2018-10-17T12:18:46Z</time>
      </trkpt>
      <trkpt lat="45.80359" lon="6.41277">
        <ele>2021</ele>
        <time>2018-10-17T12:18:47Z</time>
      </trkpt>
      <trkpt lat="45.80359" lon="6.41277">
        <ele>2020</ele>
        <time>2018-10-17T12:18:48Z</time>
      </trkpt>
      <trkpt lat="45.80361" lon="6.41274">
        <ele>2020</ele>
        <time>2018-10-17T12:18:49Z</time>
      </trkpt>
      <trkpt lat="45.80361" lon="6.41274">
        <ele>2019</ele>
        <time>2018-10-17T12:18:50Z</time>
      </trkpt>
      <trkpt lat="45.80364" lon="6.41272">
        <ele>2018</ele>
        <time>2018-10-17T12:18:51Z</time>
      </trkpt>
      <trkpt lat="45.80364" lon="6.41272">
        <ele>2017</ele>
        <time>2018-10-17T12:18:52Z</time>
      </trkpt>
      <trkpt lat="45.80367" lon="6.41269">
        <ele>2017</ele>
        <time>2018-10-17T12:18:53Z</time>
      </trkpt>
      <trkpt lat="45.80367" lon="6.41269">
        <ele>2017</ele>
        <time>2018-10-17T12:18:54Z</time>
      </trkpt>
      <trkpt lat="45.80368" lon="6.41264">
        <ele>2017</ele>
        <time>2018-10-17T12:18:55Z</time>
      </trkpt>
      <trkpt lat="45.80368" lon="6.41264">
        <ele>2016</ele>
        <time>2018-10-17T12:18:56Z</time>
      </trkpt>
      <trkpt lat="45.8037" lon="6.4126">
        <ele>2016</ele>
        <time>2018-10-17T12:18:57Z</time>
      </trkpt>
      <trkpt lat="45.8037" lon="6.4126">
        <ele>2015</ele>
        <time>2018-10-17T12:18:58Z</time>
      </trkpt>
      <trkpt lat="45.80372" lon="6.41257">
        <ele>2014</ele>
        <time>2018-10-17T12:18:59Z</time>
      </trkpt>
      <trkpt lat="45.80372" lon="6.41257">
        <ele>2014</ele>
        <time>2018-10-17T12:19:00Z</time>
      </trkpt>
      <trkpt lat="45.80374" lon="6.41254">
        <ele>2014</ele>
        <time>2018-10-17T12:19:01Z</time>
      </trkpt>
      <trkpt lat="45.80374" lon="6.41254">
        <ele>2012</ele>
        <time>2018-10-17T12:19:02Z</time>
      </trkpt>
      <trkpt lat="45.80375" lon="6.4125">
        <ele>2011</ele>
        <time>2018-10-17T12:19:03Z</time>
      </trkpt>
      <trkpt lat="45.80377" lon="6.41248">
        <ele>2010</ele>
        <time>2018-10-17T12:19:04Z</time>
      </trkpt>
      <trkpt lat="45.80378" lon="6.41246">
        <ele>2009</ele>
        <time>2018-10-17T12:19:05Z</time>
      </trkpt>
      <trkpt lat="45.80378" lon="6.41246">
        <ele>2008</ele>
        <time>2018-10-17T12:19:06Z</time>
      </trkpt>
      <trkpt lat="45.80379" lon="6.41242">
        <ele>2007</ele>
        <time>2018-10-17T12:19:07Z</time>
      </trkpt>
      <trkpt lat="45.80379" lon="6.41242">
        <ele>2007</ele>
        <time>2018-10-17T12:19:08Z</time>
      </trkpt>
      <trkpt lat="45.8038" lon="6.41239">
        <ele>2007</ele>
        <time>2018-10-17T12:19:09Z</time>
      </trkpt>
      <trkpt lat="45.8038" lon="6.41239">
        <ele>2006</ele>
        <time>2018-10-17T12:19:10Z</time>
      </trkpt>
      <trkpt lat="45.80382" lon="6.41236">
        <ele>2005</ele>
        <time>2018-10-17T12:19:11Z</time>
      </trkpt>
      <trkpt lat="45.80382" lon="6.41236">
        <ele>2005</ele>
        <time>2018-10-17T12:19:12Z</time>
      </trkpt>
      <trkpt lat="45.80384" lon="6.41235">
        <ele>2005</ele>
        <time>2018-10-17T12:19:13Z</time>
      </trkpt>
      <trkpt lat="45.80384" lon="6.41235">
        <ele>2004</ele>
        <time>2018-10-17T12:19:14Z</time>
      </trkpt>
      <trkpt lat="45.80387" lon="6.41235">
        <ele>2004</ele>
        <time>2018-10-17T12:19:15Z</time>
      </trkpt>
      <trkpt lat="45.80387" lon="6.41235">
        <ele>2003</ele>
        <time>2018-10-17T12:19:16Z</time>
      </trkpt>
      <trkpt lat="45.80387" lon="6.41235">
        <ele>2003</ele>
        <time>2018-10-17T12:19:17Z</time>
      </trkpt>
      <trkpt lat="45.80387" lon="6.41235">
        <ele>2002</ele>
        <time>2018-10-17T12:19:18Z</time>
      </trkpt>
      <trkpt lat="45.80387" lon="6.41235">
        <ele>2002</ele>
        <time>2018-10-17T12:19:19Z</time>
      </trkpt>
      <trkpt lat="45.80387" lon="6.41235">
        <ele>2002</ele>
        <time>2018-10-17T12:19:20Z</time>
      </trkpt>
      <trkpt lat="45.80384" lon="6.41233">
        <ele>2001</ele>
        <time>2018-10-17T12:19:21Z</time>
      </trkpt>
      <trkpt lat="45.80384" lon="6.41233">
        <ele>2001</ele>
        <time>2018-10-17T12:19:22Z</time>
      </trkpt>
      <trkpt lat="45.80382" lon="6.41233">
        <ele>2001</ele>
        <time>2018-10-17T12:19:23Z</time>
      </trkpt>
      <trkpt lat="45.80382" lon="6.41233">
        <ele>2000</ele>
        <time>2018-10-17T12:19:24Z</time>
      </trkpt>
      <trkpt lat="45.80382" lon="6.41233">
        <ele>1999</ele>
        <time>2018-10-17T12:19:25Z</time>
      </trkpt>
      <trkpt lat="45.80382" lon="6.41233">
        <ele>1999</ele>
        <time>2018-10-17T12:19:26Z</time>
      </trkpt>
      <trkpt lat="45.80382" lon="6.41233">
        <ele>1999</ele>
        <time>2018-10-17T12:19:27Z</time>
      </trkpt>
      <trkpt lat="45.80382" lon="6.41233">
        <ele>1999</ele>
        <time>2018-10-17T12:19:28Z</time>
      </trkpt>
      <trkpt lat="45.80382" lon="6.41231">
        <ele>1999</ele>
        <time>2018-10-17T12:19:29Z</time>
      </trkpt>
      <trkpt lat="45.80382" lon="6.41231">
        <ele>1998</ele>
        <time>2018-10-17T12:19:30Z</time>
      </trkpt>
      <trkpt lat="45.80382" lon="6.41231">
        <ele>1998</ele>
        <time>2018-10-17T12:19:31Z</time>
      </trkpt>
      <trkpt lat="45.80382" lon="6.41231">
        <ele>1998</ele>
        <time>2018-10-17T12:19:32Z</time>
      </trkpt>
      <trkpt lat="45.80382" lon="6.41231">
        <ele>1998</ele>
        <time>2018-10-17T12:19:33Z</time>
      </trkpt>
      <trkpt lat="45.80382" lon="6.41231">
        <ele>1998</ele>
        <time>2018-10-17T12:19:34Z</time>
      </trkpt>
      <trkpt lat="45.80382" lon="6.41231">
        <ele>1998</ele>
        <time>2018-10-17T12:19:35Z</time>
      </trkpt>
      <trkpt lat="45.80382" lon="6.41231">
        <ele>1997</ele>
        <time>2018-10-17T12:19:36Z</time>
      </trkpt>
      <trkpt lat="45.80382" lon="6.41231">
        <ele>1997</ele>
        <time>2018-10-17T12:19:37Z</time>
      </trkpt>
      <trkpt lat="45.80382" lon="6.41231">
        <ele>1997</ele>
        <time>2018-10-17T12:19:38Z</time>
      </trkpt>
      <trkpt lat="45.80382" lon="6.41231">
        <ele>1997</ele>
        <time>2018-10-17T12:19:39Z</time>
      </trkpt>
      <trkpt lat="45.80382" lon="6.41231">
        <ele>1998</ele>
        <time>2018-10-17T12:19:40Z</time>
      </trkpt>
      <trkpt lat="45.80382" lon="6.41231">
        <ele>1998</ele>
        <time>2018-10-17T12:19:41Z</time>
      </trkpt>
      <trkpt lat="45.80382" lon="6.41231">
        <ele>1998</ele>
        <time>2018-10-17T12:19:42Z</time>
      </trkpt>
      <trkpt lat="45.80382" lon="6.41231">
        <ele>1998</ele>
        <time>2018-10-17T12:19:43Z</time>
      </trkpt>
      <trkpt lat="45.80382" lon="6.41231">
        <ele>1998</ele>
        <time>2018-10-17T12:19:44Z</time>
      </trkpt>
      <trkpt lat="45.80382" lon="6.41231">
        <ele>1998</ele>
        <time>2018-10-17T12:19:45Z</time>
      </trkpt>
      <trkpt lat="45.80382" lon="6.41231">
        <ele>1997</ele>
        <time>2018-10-17T12:19:46Z</time>
      </trkpt>
      <trkpt lat="45.80382" lon="6.41231">
        <ele>1997</ele>
        <time>2018-10-17T12:19:47Z</time>
      </trkpt>
      <trkpt lat="45.80382" lon="6.41231">
        <ele>1997</ele>
        <time>2018-10-17T12:19:48Z</time>
      </trkpt>
      <trkpt lat="45.80383" lon="6.41227">
        <ele>1997</ele>
        <time>2018-10-17T12:19:49Z</time>
      </trkpt>
      <trkpt lat="45.80383" lon="6.41227">
        <ele>1997</ele>
        <time>2018-10-17T12:19:50Z</time>
      </trkpt>
      <trkpt lat="45.80384" lon="6.41226">
        <ele>1997</ele>
        <time>2018-10-17T12:19:51Z</time>
      </trkpt>
      <trkpt lat="45.80384" lon="6.41226">
        <ele>1997</ele>
        <time>2018-10-17T12:19:52Z</time>
      </trkpt>
      <trkpt lat="45.80384" lon="6.41226">
        <ele>1997</ele>
        <time>2018-10-17T12:19:53Z</time>
      </trkpt>
      <trkpt lat="45.80384" lon="6.41226">
        <ele>1997</ele>
        <time>2018-10-17T12:19:54Z</time>
      </trkpt>
      <trkpt lat="45.80386" lon="6.41224">
        <ele>1996</ele>
        <time>2018-10-17T12:19:55Z</time>
      </trkpt>
      <trkpt lat="45.80386" lon="6.41224">
        <ele>1996</ele>
        <time>2018-10-17T12:19:56Z</time>
      </trkpt>
      <trkpt lat="45.80385" lon="6.41222">
        <ele>1995</ele>
        <time>2018-10-17T12:19:57Z</time>
      </trkpt>
      <trkpt lat="45.80385" lon="6.41222">
        <ele>1995</ele>
        <time>2018-10-17T12:19:58Z</time>
      </trkpt>
      <trkpt lat="45.80382" lon="6.41221">
        <ele>1994</ele>
        <time>2018-10-17T12:19:59Z</time>
      </trkpt>
      <trkpt lat="45.80382" lon="6.41221">
        <ele>1993</ele>
        <time>2018-10-17T12:20:00Z</time>
      </trkpt>
      <trkpt lat="45.8038" lon="6.41219">
        <ele>1992</ele>
        <time>2018-10-17T12:20:01Z</time>
      </trkpt>
      <trkpt lat="45.8038" lon="6.41219">
        <ele>1992</ele>
        <time>2018-10-17T12:20:02Z</time>
      </trkpt>
      <trkpt lat="45.80381" lon="6.41215">
        <ele>1991</ele>
        <time>2018-10-17T12:20:03Z</time>
      </trkpt>
      <trkpt lat="45.80381" lon="6.41215">
        <ele>1991</ele>
        <time>2018-10-17T12:20:04Z</time>
      </trkpt>
      <trkpt lat="45.80384" lon="6.41212">
        <ele>1991</ele>
        <time>2018-10-17T12:20:05Z</time>
      </trkpt>
      <trkpt lat="45.80384" lon="6.41212">
        <ele>1991</ele>
        <time>2018-10-17T12:20:06Z</time>
      </trkpt>
      <trkpt lat="45.80387" lon="6.4121">
        <ele>1990</ele>
        <time>2018-10-17T12:20:07Z</time>
      </trkpt>
      <trkpt lat="45.80387" lon="6.4121">
        <ele>1990</ele>
        <time>2018-10-17T12:20:08Z</time>
      </trkpt>
      <trkpt lat="45.80388" lon="6.41207">
        <ele>1990</ele>
        <time>2018-10-17T12:20:09Z</time>
      </trkpt>
      <trkpt lat="45.80388" lon="6.41207">
        <ele>1989</ele>
        <time>2018-10-17T12:20:10Z</time>
      </trkpt>
      <trkpt lat="45.80389" lon="6.41204">
        <ele>1988</ele>
        <time>2018-10-17T12:20:11Z</time>
      </trkpt>
      <trkpt lat="45.80389" lon="6.41204">
        <ele>1986</ele>
        <time>2018-10-17T12:20:12Z</time>
      </trkpt>
      <trkpt lat="45.80387" lon="6.41204">
        <ele>1986</ele>
        <time>2018-10-17T12:20:13Z</time>
      </trkpt>
      <trkpt lat="45.80387" lon="6.41204">
        <ele>1985</ele>
        <time>2018-10-17T12:20:14Z</time>
      </trkpt>
      <trkpt lat="45.80387" lon="6.41204">
        <ele>1985</ele>
        <time>2018-10-17T12:20:15Z</time>
      </trkpt>
      <trkpt lat="45.80385" lon="6.41201">
        <ele>1984</ele>
        <time>2018-10-17T12:20:16Z</time>
      </trkpt>
      <trkpt lat="45.80385" lon="6.41201">
        <ele>1983</ele>
        <time>2018-10-17T12:20:17Z</time>
      </trkpt>
      <trkpt lat="45.80384" lon="6.41198">
        <ele>1982</ele>
        <time>2018-10-17T12:20:18Z</time>
      </trkpt>
      <trkpt lat="45.80384" lon="6.41198">
        <ele>1982</ele>
        <time>2018-10-17T12:20:19Z</time>
      </trkpt>
      <trkpt lat="45.80386" lon="6.41195">
        <ele>1982</ele>
        <time>2018-10-17T12:20:20Z</time>
      </trkpt>
      <trkpt lat="45.80386" lon="6.41195">
        <ele>1981</ele>
        <time>2018-10-17T12:20:21Z</time>
      </trkpt>
      <trkpt lat="45.80386" lon="6.41195">
        <ele>1981</ele>
        <time>2018-10-17T12:20:22Z</time>
      </trkpt>
      <trkpt lat="45.80386" lon="6.41195">
        <ele>1980</ele>
        <time>2018-10-17T12:20:23Z</time>
      </trkpt>
      <trkpt lat="45.80385" lon="6.41192">
        <ele>1980</ele>
        <time>2018-10-17T12:20:24Z</time>
      </trkpt>
      <trkpt lat="45.80385" lon="6.41192">
        <ele>1980</ele>
        <time>2018-10-17T12:20:25Z</time>
      </trkpt>
      <trkpt lat="45.80386" lon="6.41189">
        <ele>1980</ele>
        <time>2018-10-17T12:20:26Z</time>
      </trkpt>
      <trkpt lat="45.80386" lon="6.41189">
        <ele>1979</ele>
        <time>2018-10-17T12:20:27Z</time>
      </trkpt>
      <trkpt lat="45.80388" lon="6.41187">
        <ele>1979</ele>
        <time>2018-10-17T12:20:28Z</time>
      </trkpt>
      <trkpt lat="45.80388" lon="6.41187">
        <ele>1979</ele>
        <time>2018-10-17T12:20:29Z</time>
      </trkpt>
      <trkpt lat="45.80388" lon="6.41187">
        <ele>1978</ele>
        <time>2018-10-17T12:20:30Z</time>
      </trkpt>
      <trkpt lat="45.80389" lon="6.41184">
        <ele>1978</ele>
        <time>2018-10-17T12:20:31Z</time>
      </trkpt>
      <trkpt lat="45.80389" lon="6.41184">
        <ele>1977</ele>
        <time>2018-10-17T12:20:32Z</time>
      </trkpt>
      <trkpt lat="45.8039" lon="6.41182">
        <ele>1977</ele>
        <time>2018-10-17T12:20:33Z</time>
      </trkpt>
      <trkpt lat="45.8039" lon="6.41182">
        <ele>1977</ele>
        <time>2018-10-17T12:20:34Z</time>
      </trkpt>
      <trkpt lat="45.80392" lon="6.4118">
        <ele>1976</ele>
        <time>2018-10-17T12:20:35Z</time>
      </trkpt>
      <trkpt lat="45.80392" lon="6.4118">
        <ele>1975</ele>
        <time>2018-10-17T12:20:36Z</time>
      </trkpt>
      <trkpt lat="45.80393" lon="6.41178">
        <ele>1975</ele>
        <time>2018-10-17T12:20:37Z</time>
      </trkpt>
      <trkpt lat="45.80393" lon="6.41178">
        <ele>1975</ele>
        <time>2018-10-17T12:20:38Z</time>
      </trkpt>
      <trkpt lat="45.80394" lon="6.41174">
        <ele>1975</ele>
        <time>2018-10-17T12:20:39Z</time>
      </trkpt>
      <trkpt lat="45.80394" lon="6.41174">
        <ele>1974</ele>
        <time>2018-10-17T12:20:40Z</time>
      </trkpt>
      <trkpt lat="45.80394" lon="6.41174">
        <ele>1973</ele>
        <time>2018-10-17T12:20:41Z</time>
      </trkpt>
      <trkpt lat="45.80393" lon="6.41172">
        <ele>1973</ele>
        <time>2018-10-17T12:20:42Z</time>
      </trkpt>
      <trkpt lat="45.80393" lon="6.41172">
        <ele>1973</ele>
        <time>2018-10-17T12:20:43Z</time>
      </trkpt>
      <trkpt lat="45.8039" lon="6.41171">
        <ele>1972</ele>
        <time>2018-10-17T12:20:44Z</time>
      </trkpt>
      <trkpt lat="45.8039" lon="6.41171">
        <ele>1972</ele>
        <time>2018-10-17T12:20:45Z</time>
      </trkpt>
      <trkpt lat="45.80389" lon="6.41168">
        <ele>1971</ele>
        <time>2018-10-17T12:20:46Z</time>
      </trkpt>
      <trkpt lat="45.80389" lon="6.41168">
        <ele>1971</ele>
        <time>2018-10-17T12:20:47Z</time>
      </trkpt>
      <trkpt lat="45.80389" lon="6.41164">
        <ele>1970</ele>
        <time>2018-10-17T12:20:48Z</time>
      </trkpt>
      <trkpt lat="45.80389" lon="6.41164">
        <ele>1969</ele>
        <time>2018-10-17T12:20:49Z</time>
      </trkpt>
      <trkpt lat="45.80389" lon="6.41164">
        <ele>1969</ele>
        <time>2018-10-17T12:20:50Z</time>
      </trkpt>
      <trkpt lat="45.80387" lon="6.41162">
        <ele>1969</ele>
        <time>2018-10-17T12:20:51Z</time>
      </trkpt>
      <trkpt lat="45.80385" lon="6.41163">
        <ele>1968</ele>
        <time>2018-10-17T12:20:52Z</time>
      </trkpt>
      <trkpt lat="45.80382" lon="6.41162">
        <ele>1967</ele>
        <time>2018-10-17T12:20:53Z</time>
      </trkpt>
      <trkpt lat="45.80381" lon="6.41161">
        <ele>1966</ele>
        <time>2018-10-17T12:20:54Z</time>
      </trkpt>
      <trkpt lat="45.8038" lon="6.4116">
        <ele>1966</ele>
        <time>2018-10-17T12:20:55Z</time>
      </trkpt>
      <trkpt lat="45.80379" lon="6.41158">
        <ele>1966</ele>
        <time>2018-10-17T12:20:56Z</time>
      </trkpt>
      <trkpt lat="45.80379" lon="6.41158">
        <ele>1965</ele>
        <time>2018-10-17T12:20:57Z</time>
      </trkpt>
      <trkpt lat="45.80377" lon="6.41155">
        <ele>1964</ele>
        <time>2018-10-17T12:20:58Z</time>
      </trkpt>
      <trkpt lat="45.80377" lon="6.41155">
        <ele>1964</ele>
        <time>2018-10-17T12:20:59Z</time>
      </trkpt>
      <trkpt lat="45.80375" lon="6.41153">
        <ele>1963</ele>
        <time>2018-10-17T12:21:00Z</time>
      </trkpt>
      <trkpt lat="45.80375" lon="6.41153">
        <ele>1962</ele>
        <time>2018-10-17T12:21:01Z</time>
      </trkpt>
      <trkpt lat="45.80372" lon="6.41152">
        <ele>1962</ele>
        <time>2018-10-17T12:21:02Z</time>
      </trkpt>
      <trkpt lat="45.80372" lon="6.41152">
        <ele>1960</ele>
        <time>2018-10-17T12:21:03Z</time>
      </trkpt>
      <trkpt lat="45.8037" lon="6.41151">
        <ele>1960</ele>
        <time>2018-10-17T12:21:04Z</time>
      </trkpt>
      <trkpt lat="45.8037" lon="6.41151">
        <ele>1959</ele>
        <time>2018-10-17T12:21:05Z</time>
      </trkpt>
      <trkpt lat="45.80368" lon="6.41151">
        <ele>1959</ele>
        <time>2018-10-17T12:21:06Z</time>
      </trkpt>
      <trkpt lat="45.80368" lon="6.41151">
        <ele>1959</ele>
        <time>2018-10-17T12:21:07Z</time>
      </trkpt>
      <trkpt lat="45.80365" lon="6.4115">
        <ele>1958</ele>
        <time>2018-10-17T12:21:08Z</time>
      </trkpt>
      <trkpt lat="45.80365" lon="6.4115">
        <ele>1958</ele>
        <time>2018-10-17T12:21:09Z</time>
      </trkpt>
      <trkpt lat="45.80363" lon="6.41147">
        <ele>1957</ele>
        <time>2018-10-17T12:21:10Z</time>
      </trkpt>
      <trkpt lat="45.80363" lon="6.41145">
        <ele>1956</ele>
        <time>2018-10-17T12:21:11Z</time>
      </trkpt>
      <trkpt lat="45.80362" lon="6.41144">
        <ele>1956</ele>
        <time>2018-10-17T12:21:12Z</time>
      </trkpt>
      <trkpt lat="45.80362" lon="6.41141">
        <ele>1955</ele>
        <time>2018-10-17T12:21:13Z</time>
      </trkpt>
      <trkpt lat="45.80362" lon="6.41141">
        <ele>1954</ele>
        <time>2018-10-17T12:21:14Z</time>
      </trkpt>
      <trkpt lat="45.80362" lon="6.41137">
        <ele>1954</ele>
        <time>2018-10-17T12:21:15Z</time>
      </trkpt>
      <trkpt lat="45.80362" lon="6.41135">
        <ele>1953</ele>
        <time>2018-10-17T12:21:16Z</time>
      </trkpt>
      <trkpt lat="45.80361" lon="6.41132">
        <ele>1953</ele>
        <time>2018-10-17T12:21:17Z</time>
      </trkpt>
      <trkpt lat="45.80361" lon="6.41129">
        <ele>1952</ele>
        <time>2018-10-17T12:21:18Z</time>
      </trkpt>
      <trkpt lat="45.80361" lon="6.41126">
        <ele>1951</ele>
        <time>2018-10-17T12:21:19Z</time>
      </trkpt>
      <trkpt lat="45.80361" lon="6.41124">
        <ele>1950</ele>
        <time>2018-10-17T12:21:20Z</time>
      </trkpt>
      <trkpt lat="45.8036" lon="6.41121">
        <ele>1950</ele>
        <time>2018-10-17T12:21:21Z</time>
      </trkpt>
      <trkpt lat="45.80359" lon="6.41116">
        <ele>1949</ele>
        <time>2018-10-17T12:21:22Z</time>
      </trkpt>
      <trkpt lat="45.80359" lon="6.41114">
        <ele>1948</ele>
        <time>2018-10-17T12:21:23Z</time>
      </trkpt>
      <trkpt lat="45.80359" lon="6.41111">
        <ele>1948</ele>
        <time>2018-10-17T12:21:24Z</time>
      </trkpt>
      <trkpt lat="45.80359" lon="6.41111">
        <ele>1948</ele>
        <time>2018-10-17T12:21:25Z</time>
      </trkpt>
      <trkpt lat="45.80358" lon="6.41107">
        <ele>1947</ele>
        <time>2018-10-17T12:21:26Z</time>
      </trkpt>
      <trkpt lat="45.80358" lon="6.41107">
        <ele>1946</ele>
        <time>2018-10-17T12:21:27Z</time>
      </trkpt>
      <trkpt lat="45.80357" lon="6.41103">
        <ele>1945</ele>
        <time>2018-10-17T12:21:28Z</time>
      </trkpt>
      <trkpt lat="45.80357" lon="6.41103">
        <ele>1945</ele>
        <time>2018-10-17T12:21:29Z</time>
      </trkpt>
      <trkpt lat="45.80356" lon="6.41099">
        <ele>1945</ele>
        <time>2018-10-17T12:21:30Z</time>
      </trkpt>
      <trkpt lat="45.80356" lon="6.41099">
        <ele>1945</ele>
        <time>2018-10-17T12:21:31Z</time>
      </trkpt>
      <trkpt lat="45.80356" lon="6.41096">
        <ele>1944</ele>
        <time>2018-10-17T12:21:32Z</time>
      </trkpt>
      <trkpt lat="45.80356" lon="6.41096">
        <ele>1944</ele>
        <time>2018-10-17T12:21:33Z</time>
      </trkpt>
      <trkpt lat="45.80356" lon="6.41093">
        <ele>1943</ele>
        <time>2018-10-17T12:21:34Z</time>
      </trkpt>
      <trkpt lat="45.80356" lon="6.41093">
        <ele>1942</ele>
        <time>2018-10-17T12:21:35Z</time>
      </trkpt>
      <trkpt lat="45.80356" lon="6.4109">
        <ele>1942</ele>
        <time>2018-10-17T12:21:36Z</time>
      </trkpt>
      <trkpt lat="45.80356" lon="6.4109">
        <ele>1942</ele>
        <time>2018-10-17T12:21:37Z</time>
      </trkpt>
      <trkpt lat="45.80356" lon="6.4109">
        <ele>1941</ele>
        <time>2018-10-17T12:21:38Z</time>
      </trkpt>
      <trkpt lat="45.80358" lon="6.41088">
        <ele>1941</ele>
        <time>2018-10-17T12:21:39Z</time>
      </trkpt>
      <trkpt lat="45.80358" lon="6.41088">
        <ele>1940</ele>
        <time>2018-10-17T12:21:40Z</time>
      </trkpt>
      <trkpt lat="45.8036" lon="6.41089">
        <ele>1939</ele>
        <time>2018-10-17T12:21:41Z</time>
      </trkpt>
      <trkpt lat="45.8036" lon="6.41089">
        <ele>1939</ele>
        <time>2018-10-17T12:21:42Z</time>
      </trkpt>
      <trkpt lat="45.8036" lon="6.41089">
        <ele>1939</ele>
        <time>2018-10-17T12:21:43Z</time>
      </trkpt>
      <trkpt lat="45.80361" lon="6.41086">
        <ele>1939</ele>
        <time>2018-10-17T12:21:44Z</time>
      </trkpt>
      <trkpt lat="45.80361" lon="6.41086">
        <ele>1939</ele>
        <time>2018-10-17T12:21:45Z</time>
      </trkpt>
      <trkpt lat="45.80359" lon="6.41084">
        <ele>1939</ele>
        <time>2018-10-17T12:21:46Z</time>
      </trkpt>
      <trkpt lat="45.80359" lon="6.41084">
        <ele>1938</ele>
        <time>2018-10-17T12:21:47Z</time>
      </trkpt>
      <trkpt lat="45.80358" lon="6.41082">
        <ele>1937</ele>
        <time>2018-10-17T12:21:48Z</time>
      </trkpt>
      <trkpt lat="45.80358" lon="6.41082">
        <ele>1936</ele>
        <time>2018-10-17T12:21:49Z</time>
      </trkpt>
      <trkpt lat="45.80358" lon="6.41082">
        <ele>1935</ele>
        <time>2018-10-17T12:21:50Z</time>
      </trkpt>
      <trkpt lat="45.80359" lon="6.41079">
        <ele>1935</ele>
        <time>2018-10-17T12:21:51Z</time>
      </trkpt>
      <trkpt lat="45.80359" lon="6.41079">
        <ele>1935</ele>
        <time>2018-10-17T12:21:52Z</time>
      </trkpt>
      <trkpt lat="45.80358" lon="6.41075">
        <ele>1935</ele>
        <time>2018-10-17T12:21:53Z</time>
      </trkpt>
      <trkpt lat="45.80358" lon="6.41075">
        <ele>1934</ele>
        <time>2018-10-17T12:21:54Z</time>
      </trkpt>
      <trkpt lat="45.80356" lon="6.41072">
        <ele>1934</ele>
        <time>2018-10-17T12:21:55Z</time>
      </trkpt>
      <trkpt lat="45.80356" lon="6.41072">
        <ele>1934</ele>
        <time>2018-10-17T12:21:56Z</time>
      </trkpt>
      <trkpt lat="45.80355" lon="6.41069">
        <ele>1933</ele>
        <time>2018-10-17T12:21:57Z</time>
      </trkpt>
      <trkpt lat="45.80355" lon="6.41069">
        <ele>1932</ele>
        <time>2018-10-17T12:21:58Z</time>
      </trkpt>
      <trkpt lat="45.80353" lon="6.41066">
        <ele>1932</ele>
        <time>2018-10-17T12:21:59Z</time>
      </trkpt>
      <trkpt lat="45.80353" lon="6.41066">
        <ele>1931</ele>
        <time>2018-10-17T12:22:00Z</time>
      </trkpt>
      <trkpt lat="45.80354" lon="6.41063">
        <ele>1931</ele>
        <time>2018-10-17T12:22:01Z</time>
      </trkpt>
      <trkpt lat="45.80354" lon="6.41063">
        <ele>1931</ele>
        <time>2018-10-17T12:22:02Z</time>
      </trkpt>
      <trkpt lat="45.80357" lon="6.41063">
        <ele>1929</ele>
        <time>2018-10-17T12:22:03Z</time>
      </trkpt>
      <trkpt lat="45.80357" lon="6.41063">
        <ele>1928</ele>
        <time>2018-10-17T12:22:04Z</time>
      </trkpt>
      <trkpt lat="45.80359" lon="6.41065">
        <ele>1928</ele>
        <time>2018-10-17T12:22:05Z</time>
      </trkpt>
      <trkpt lat="45.80359" lon="6.41065">
        <ele>1928</ele>
        <time>2018-10-17T12:22:06Z</time>
      </trkpt>
      <trkpt lat="45.80363" lon="6.41067">
        <ele>1928</ele>
        <time>2018-10-17T12:22:07Z</time>
      </trkpt>
      <trkpt lat="45.80364" lon="6.41068">
        <ele>1928</ele>
        <time>2018-10-17T12:22:08Z</time>
      </trkpt>
      <trkpt lat="45.80364" lon="6.41068">
        <ele>1927</ele>
        <time>2018-10-17T12:22:09Z</time>
      </trkpt>
      <trkpt lat="45.80367" lon="6.4107">
        <ele>1927</ele>
        <time>2018-10-17T12:22:10Z</time>
      </trkpt>
      <trkpt lat="45.80367" lon="6.4107">
        <ele>1926</ele>
        <time>2018-10-17T12:22:11Z</time>
      </trkpt>
      <trkpt lat="45.80369" lon="6.41072">
        <ele>1926</ele>
        <time>2018-10-17T12:22:12Z</time>
      </trkpt>
      <trkpt lat="45.80369" lon="6.41072">
        <ele>1926</ele>
        <time>2018-10-17T12:22:13Z</time>
      </trkpt>
      <trkpt lat="45.80369" lon="6.41072">
        <ele>1926</ele>
        <time>2018-10-17T12:22:14Z</time>
      </trkpt>
      <trkpt lat="45.80369" lon="6.41072">
        <ele>1926</ele>
        <time>2018-10-17T12:22:15Z</time>
      </trkpt>
      <trkpt lat="45.80369" lon="6.41072">
        <ele>1926</ele>
        <time>2018-10-17T12:22:16Z</time>
      </trkpt>
      <trkpt lat="45.80369" lon="6.41072">
        <ele>1926</ele>
        <time>2018-10-17T12:22:17Z</time>
      </trkpt>
      <trkpt lat="45.80369" lon="6.41072">
        <ele>1926</ele>
        <time>2018-10-17T12:22:18Z</time>
      </trkpt>
      <trkpt lat="45.80369" lon="6.41072">
        <ele>1926</ele>
        <time>2018-10-17T12:22:19Z</time>
      </trkpt>
      <trkpt lat="45.80369" lon="6.41072">
        <ele>1926</ele>
        <time>2018-10-17T12:22:20Z</time>
      </trkpt>
      <trkpt lat="45.80369" lon="6.41072">
        <ele>1926</ele>
        <time>2018-10-17T12:22:21Z</time>
      </trkpt>
      <trkpt lat="45.80369" lon="6.41075">
        <ele>1926</ele>
        <time>2018-10-17T12:22:22Z</time>
      </trkpt>
      <trkpt lat="45.80369" lon="6.41075">
        <ele>1926</ele>
        <time>2018-10-17T12:22:23Z</time>
      </trkpt>
      <trkpt lat="45.80369" lon="6.41075">
        <ele>1926</ele>
        <time>2018-10-17T12:22:24Z</time>
      </trkpt>
      <trkpt lat="45.80369" lon="6.41075">
        <ele>1926</ele>
        <time>2018-10-17T12:22:25Z</time>
      </trkpt>
      <trkpt lat="45.80369" lon="6.41075">
        <ele>1926</ele>
        <time>2018-10-17T12:22:26Z</time>
      </trkpt>
      <trkpt lat="45.80369" lon="6.41075">
        <ele>1926</ele>
        <time>2018-10-17T12:22:27Z</time>
      </trkpt>
      <trkpt lat="45.80369" lon="6.41075">
        <ele>1926</ele>
        <time>2018-10-17T12:22:28Z</time>
      </trkpt>
      <trkpt lat="45.80369" lon="6.41075">
        <ele>1926</ele>
        <time>2018-10-17T12:22:29Z</time>
      </trkpt>
      <trkpt lat="45.80369" lon="6.41075">
        <ele>1926</ele>
        <time>2018-10-17T12:22:30Z</time>
      </trkpt>
      <trkpt lat="45.80369" lon="6.41075">
        <ele>1926</ele>
        <time>2018-10-17T12:22:31Z</time>
      </trkpt>
      <trkpt lat="45.80369" lon="6.41075">
        <ele>1926</ele>
        <time>2018-10-17T12:22:32Z</time>
      </trkpt>
      <trkpt lat="45.80369" lon="6.41075">
        <ele>1926</ele>
        <time>2018-10-17T12:22:33Z</time>
      </trkpt>
      <trkpt lat="45.80369" lon="6.41075">
        <ele>1926</ele>
        <time>2018-10-17T12:22:34Z</time>
      </trkpt>
      <trkpt lat="45.80369" lon="6.41075">
        <ele>1926</ele>
        <time>2018-10-17T12:22:35Z</time>
      </trkpt>
      <trkpt lat="45.80369" lon="6.41075">
        <ele>1926</ele>
        <time>2018-10-17T12:22:36Z</time>
      </trkpt>
      <trkpt lat="45.80369" lon="6.41075">
        <ele>1926</ele>
        <time>2018-10-17T12:22:37Z</time>
      </trkpt>
      <trkpt lat="45.80369" lon="6.41075">
        <ele>1926</ele>
        <time>2018-10-17T12:22:38Z</time>
      </trkpt>
      <trkpt lat="45.80369" lon="6.41075">
        <ele>1926</ele>
        <time>2018-10-17T12:22:39Z</time>
      </trkpt>
      <trkpt lat="45.80369" lon="6.41075">
        <ele>1926</ele>
        <time>2018-10-17T12:22:40Z</time>
      </trkpt>
      <trkpt lat="45.80369" lon="6.41075">
        <ele>1926</ele>
        <time>2018-10-17T12:22:41Z</time>
      </trkpt>
      <trkpt lat="45.80369" lon="6.41075">
        <ele>1926</ele>
        <time>2018-10-17T12:22:42Z</time>
      </trkpt>
      <trkpt lat="45.80369" lon="6.41075">
        <ele>1926</ele>
        <time>2018-10-17T12:22:43Z</time>
      </trkpt>
      <trkpt lat="45.80369" lon="6.41075">
        <ele>1926</ele>
        <time>2018-10-17T12:22:44Z</time>
      </trkpt>
      <trkpt lat="45.80369" lon="6.41075">
        <ele>1926</ele>
        <time>2018-10-17T12:22:45Z</time>
      </trkpt>
      <trkpt lat="45.80369" lon="6.41075">
        <ele>1926</ele>
        <time>2018-10-17T12:22:46Z</time>
      </trkpt>
      <trkpt lat="45.80369" lon="6.41075">
        <ele>1926</ele>
        <time>2018-10-17T12:22:47Z</time>
      </trkpt>
      <trkpt lat="45.80369" lon="6.41075">
        <ele>1926</ele>
        <time>2018-10-17T12:22:48Z</time>
      </trkpt>
      <trkpt lat="45.80369" lon="6.41075">
        <ele>1926</ele>
        <time>2018-10-17T12:22:49Z</time>
      </trkpt>
      <trkpt lat="45.80369" lon="6.41075">
        <ele>1927</ele>
        <time>2018-10-17T12:22:50Z</time>
      </trkpt>
      <trkpt lat="45.80369" lon="6.41075">
        <ele>1927</ele>
        <time>2018-10-17T12:22:51Z</time>
      </trkpt>
      <trkpt lat="45.80369" lon="6.41075">
        <ele>1927</ele>
        <time>2018-10-17T12:22:52Z</time>
      </trkpt>
      <trkpt lat="45.80369" lon="6.41075">
        <ele>1927</ele>
        <time>2018-10-17T12:22:53Z</time>
      </trkpt>
      <trkpt lat="45.80369" lon="6.41075">
        <ele>1927</ele>
        <time>2018-10-17T12:22:54Z</time>
      </trkpt>
      <trkpt lat="45.80369" lon="6.41075">
        <ele>1927</ele>
        <time>2018-10-17T12:22:55Z</time>
      </trkpt>
      <trkpt lat="45.80369" lon="6.41075">
        <ele>1927</ele>
        <time>2018-10-17T12:22:56Z</time>
      </trkpt>
      <trkpt lat="45.80369" lon="6.41075">
        <ele>1927</ele>
        <time>2018-10-17T12:22:57Z</time>
      </trkpt>
      <trkpt lat="45.80369" lon="6.41075">
        <ele>1927</ele>
        <time>2018-10-17T12:22:58Z</time>
      </trkpt>
      <trkpt lat="45.80369" lon="6.41075">
        <ele>1927</ele>
        <time>2018-10-17T12:22:59Z</time>
      </trkpt>
      <trkpt lat="45.80369" lon="6.41075">
        <ele>1927</ele>
        <time>2018-10-17T12:23:00Z</time>
      </trkpt>
      <trkpt lat="45.80369" lon="6.41075">
        <ele>1927</ele>
        <time>2018-10-17T12:23:01Z</time>
      </trkpt>
      <trkpt lat="45.80369" lon="6.41075">
        <ele>1927</ele>
        <time>2018-10-17T12:23:02Z</time>
      </trkpt>
      <trkpt lat="45.80369" lon="6.41075">
        <ele>1927</ele>
        <time>2018-10-17T12:23:03Z</time>
      </trkpt>
      <trkpt lat="45.80369" lon="6.41075">
        <ele>1927</ele>
        <time>2018-10-17T12:23:04Z</time>
      </trkpt>
      <trkpt lat="45.80369" lon="6.41075">
        <ele>1927</ele>
        <time>2018-10-17T12:23:05Z</time>
      </trkpt>
      <trkpt lat="45.80369" lon="6.41075">
        <ele>1926</ele>
        <time>2018-10-17T12:23:06Z</time>
      </trkpt>
      <trkpt lat="45.80369" lon="6.41075">
        <ele>1926</ele>
        <time>2018-10-17T12:23:07Z</time>
      </trkpt>
      <trkpt lat="45.80369" lon="6.41075">
        <ele>1926</ele>
        <time>2018-10-17T12:23:08Z</time>
      </trkpt>
      <trkpt lat="45.80369" lon="6.41075">
        <ele>1926</ele>
        <time>2018-10-17T12:23:09Z</time>
      </trkpt>
      <trkpt lat="45.80369" lon="6.41075">
        <ele>1926</ele>
        <time>2018-10-17T12:23:10Z</time>
      </trkpt>
      <trkpt lat="45.80369" lon="6.41075">
        <ele>1926</ele>
        <time>2018-10-17T12:23:11Z</time>
      </trkpt>
      <trkpt lat="45.80369" lon="6.41075">
        <ele>1926</ele>
        <time>2018-10-17T12:23:12Z</time>
      </trkpt>
      <trkpt lat="45.80369" lon="6.41075">
        <ele>1925</ele>
        <time>2018-10-17T12:23:13Z</time>
      </trkpt>
      <trkpt lat="45.80369" lon="6.41075">
        <ele>1925</ele>
        <time>2018-10-17T12:23:14Z</time>
      </trkpt>
      <trkpt lat="45.80369" lon="6.41075">
        <ele>1925</ele>
        <time>2018-10-17T12:23:15Z</time>
      </trkpt>
      <trkpt lat="45.80369" lon="6.41075">
        <ele>1925</ele>
        <time>2018-10-17T12:23:16Z</time>
      </trkpt>
      <trkpt lat="45.80369" lon="6.41075">
        <ele>1925</ele>
        <time>2018-10-17T12:23:17Z</time>
      </trkpt>
      <trkpt lat="45.80369" lon="6.41075">
        <ele>1925</ele>
        <time>2018-10-17T12:23:18Z</time>
      </trkpt>
      <trkpt lat="45.80369" lon="6.41075">
        <ele>1925</ele>
        <time>2018-10-17T12:23:19Z</time>
      </trkpt>
      <trkpt lat="45.80368" lon="6.41078">
        <ele>1926</ele>
        <time>2018-10-17T12:23:20Z</time>
      </trkpt>
      <trkpt lat="45.80368" lon="6.41078">
        <ele>1926</ele>
        <time>2018-10-17T12:23:21Z</time>
      </trkpt>
      <trkpt lat="45.80368" lon="6.41078">
        <ele>1926</ele>
        <time>2018-10-17T12:23:22Z</time>
      </trkpt>
      <trkpt lat="45.80368" lon="6.41078">
        <ele>1926</ele>
        <time>2018-10-17T12:23:23Z</time>
      </trkpt>
      <trkpt lat="45.80368" lon="6.41078">
        <ele>1926</ele>
        <time>2018-10-17T12:23:24Z</time>
      </trkpt>
      <trkpt lat="45.80368" lon="6.41078">
        <ele>1926</ele>
        <time>2018-10-17T12:23:25Z</time>
      </trkpt>
      <trkpt lat="45.80368" lon="6.41078">
        <ele>1926</ele>
        <time>2018-10-17T12:23:26Z</time>
      </trkpt>
      <trkpt lat="45.80368" lon="6.41078">
        <ele>1926</ele>
        <time>2018-10-17T12:23:27Z</time>
      </trkpt>
      <trkpt lat="45.80368" lon="6.41078">
        <ele>1926</ele>
        <time>2018-10-17T12:23:28Z</time>
      </trkpt>
      <trkpt lat="45.80368" lon="6.41078">
        <ele>1925</ele>
        <time>2018-10-17T12:23:29Z</time>
      </trkpt>
      <trkpt lat="45.80368" lon="6.41078">
        <ele>1926</ele>
        <time>2018-10-17T12:23:30Z</time>
      </trkpt>
      <trkpt lat="45.8037" lon="6.41076">
        <ele>1926</ele>
        <time>2018-10-17T12:23:31Z</time>
      </trkpt>
      <trkpt lat="45.8037" lon="6.41076">
        <ele>1926</ele>
        <time>2018-10-17T12:23:32Z</time>
      </trkpt>
      <trkpt lat="45.80372" lon="6.41076">
        <ele>1925</ele>
        <time>2018-10-17T12:23:33Z</time>
      </trkpt>
      <trkpt lat="45.80372" lon="6.41076">
        <ele>1925</ele>
        <time>2018-10-17T12:23:34Z</time>
      </trkpt>
      <trkpt lat="45.80374" lon="6.41075">
        <ele>1925</ele>
        <time>2018-10-17T12:23:35Z</time>
      </trkpt>
      <trkpt lat="45.80374" lon="6.41075">
        <ele>1925</ele>
        <time>2018-10-17T12:23:36Z</time>
      </trkpt>
      <trkpt lat="45.80377" lon="6.41074">
        <ele>1924</ele>
        <time>2018-10-17T12:23:37Z</time>
      </trkpt>
      <trkpt lat="45.80377" lon="6.41074">
        <ele>1924</ele>
        <time>2018-10-17T12:23:38Z</time>
      </trkpt>
      <trkpt lat="45.80379" lon="6.41073">
        <ele>1924</ele>
        <time>2018-10-17T12:23:39Z</time>
      </trkpt>
      <trkpt lat="45.80379" lon="6.41073">
        <ele>1923</ele>
        <time>2018-10-17T12:23:40Z</time>
      </trkpt>
      <trkpt lat="45.80379" lon="6.41073">
        <ele>1923</ele>
        <time>2018-10-17T12:23:41Z</time>
      </trkpt>
      <trkpt lat="45.80381" lon="6.41072">
        <ele>1922</ele>
        <time>2018-10-17T12:23:42Z</time>
      </trkpt>
      <trkpt lat="45.80381" lon="6.41072">
        <ele>1922</ele>
        <time>2018-10-17T12:23:43Z</time>
      </trkpt>
      <trkpt lat="45.80381" lon="6.41072">
        <ele>1921</ele>
        <time>2018-10-17T12:23:44Z</time>
      </trkpt>
      <trkpt lat="45.80381" lon="6.41068">
        <ele>1921</ele>
        <time>2018-10-17T12:23:45Z</time>
      </trkpt>
      <trkpt lat="45.80381" lon="6.41068">
        <ele>1921</ele>
        <time>2018-10-17T12:23:46Z</time>
      </trkpt>
      <trkpt lat="45.80383" lon="6.41066">
        <ele>1920</ele>
        <time>2018-10-17T12:23:47Z</time>
      </trkpt>
      <trkpt lat="45.80383" lon="6.41066">
        <ele>1920</ele>
        <time>2018-10-17T12:23:48Z</time>
      </trkpt>
      <trkpt lat="45.80383" lon="6.41066">
        <ele>1919</ele>
        <time>2018-10-17T12:23:49Z</time>
      </trkpt>
      <trkpt lat="45.80386" lon="6.41065">
        <ele>1919</ele>
        <time>2018-10-17T12:23:50Z</time>
      </trkpt>
      <trkpt lat="45.80386" lon="6.41065">
        <ele>1919</ele>
        <time>2018-10-17T12:23:51Z</time>
      </trkpt>
      <trkpt lat="45.80387" lon="6.41064">
        <ele>1919</ele>
        <time>2018-10-17T12:23:52Z</time>
      </trkpt>
      <trkpt lat="45.80387" lon="6.41064">
        <ele>1919</ele>
        <time>2018-10-17T12:23:53Z</time>
      </trkpt>
      <trkpt lat="45.80387" lon="6.41064">
        <ele>1918</ele>
        <time>2018-10-17T12:23:54Z</time>
      </trkpt>
      <trkpt lat="45.80387" lon="6.41064">
        <ele>1918</ele>
        <time>2018-10-17T12:23:55Z</time>
      </trkpt>
      <trkpt lat="45.80387" lon="6.41064">
        <ele>1918</ele>
        <time>2018-10-17T12:23:56Z</time>
      </trkpt>
      <trkpt lat="45.80387" lon="6.41064">
        <ele>1918</ele>
        <time>2018-10-17T12:23:57Z</time>
      </trkpt>
      <trkpt lat="45.80387" lon="6.41064">
        <ele>1918</ele>
        <time>2018-10-17T12:23:58Z</time>
      </trkpt>
      <trkpt lat="45.80387" lon="6.41064">
        <ele>1917</ele>
        <time>2018-10-17T12:23:59Z</time>
      </trkpt>
      <trkpt lat="45.80387" lon="6.41064">
        <ele>1917</ele>
        <time>2018-10-17T12:24:00Z</time>
      </trkpt>
      <trkpt lat="45.80387" lon="6.41064">
        <ele>1917</ele>
        <time>2018-10-17T12:24:01Z</time>
      </trkpt>
      <trkpt lat="45.80387" lon="6.41064">
        <ele>1917</ele>
        <time>2018-10-17T12:24:02Z</time>
      </trkpt>
      <trkpt lat="45.80389" lon="6.41064">
        <ele>1918</ele>
        <time>2018-10-17T12:24:03Z</time>
      </trkpt>
      <trkpt lat="45.80389" lon="6.41064">
        <ele>1918</ele>
        <time>2018-10-17T12:24:04Z</time>
      </trkpt>
      <trkpt lat="45.80391" lon="6.41063">
        <ele>1918</ele>
        <time>2018-10-17T12:24:05Z</time>
      </trkpt>
      <trkpt lat="45.80391" lon="6.41063">
        <ele>1917</ele>
        <time>2018-10-17T12:24:06Z</time>
      </trkpt>
      <trkpt lat="45.80393" lon="6.41063">
        <ele>1917</ele>
        <time>2018-10-17T12:24:07Z</time>
      </trkpt>
      <trkpt lat="45.80393" lon="6.41063">
        <ele>1917</ele>
        <time>2018-10-17T12:24:08Z</time>
      </trkpt>
      <trkpt lat="45.80395" lon="6.41062">
        <ele>1917</ele>
        <time>2018-10-17T12:24:09Z</time>
      </trkpt>
      <trkpt lat="45.80395" lon="6.41062">
        <ele>1917</ele>
        <time>2018-10-17T12:24:10Z</time>
      </trkpt>
      <trkpt lat="45.80397" lon="6.4106">
        <ele>1916</ele>
        <time>2018-10-17T12:24:11Z</time>
      </trkpt>
      <trkpt lat="45.80397" lon="6.4106">
        <ele>1916</ele>
        <time>2018-10-17T12:24:12Z</time>
      </trkpt>
      <trkpt lat="45.804" lon="6.41059">
        <ele>1916</ele>
        <time>2018-10-17T12:24:13Z</time>
      </trkpt>
      <trkpt lat="45.804" lon="6.41059">
        <ele>1916</ele>
        <time>2018-10-17T12:24:14Z</time>
      </trkpt>
      <trkpt lat="45.80402" lon="6.41059">
        <ele>1916</ele>
        <time>2018-10-17T12:24:15Z</time>
      </trkpt>
      <trkpt lat="45.80402" lon="6.41059">
        <ele>1916</ele>
        <time>2018-10-17T12:24:16Z</time>
      </trkpt>
      <trkpt lat="45.80404" lon="6.41058">
        <ele>1916</ele>
        <time>2018-10-17T12:24:17Z</time>
      </trkpt>
      <trkpt lat="45.80404" lon="6.41058">
        <ele>1915</ele>
        <time>2018-10-17T12:24:18Z</time>
      </trkpt>
      <trkpt lat="45.80407" lon="6.41058">
        <ele>1915</ele>
        <time>2018-10-17T12:24:19Z</time>
      </trkpt>
      <trkpt lat="45.80407" lon="6.41058">
        <ele>1914</ele>
        <time>2018-10-17T12:24:20Z</time>
      </trkpt>
      <trkpt lat="45.80408" lon="6.41058">
        <ele>1914</ele>
        <time>2018-10-17T12:24:21Z</time>
      </trkpt>
      <trkpt lat="45.80408" lon="6.41058">
        <ele>1914</ele>
        <time>2018-10-17T12:24:22Z</time>
      </trkpt>
      <trkpt lat="45.80408" lon="6.41058">
        <ele>1914</ele>
        <time>2018-10-17T12:24:23Z</time>
      </trkpt>
      <trkpt lat="45.80408" lon="6.41058">
        <ele>1914</ele>
        <time>2018-10-17T12:24:24Z</time>
      </trkpt>
      <trkpt lat="45.80408" lon="6.41058">
        <ele>1914</ele>
        <time>2018-10-17T12:24:25Z</time>
      </trkpt>
      <trkpt lat="45.80408" lon="6.41058">
        <ele>1914</ele>
        <time>2018-10-17T12:24:26Z</time>
      </trkpt>
      <trkpt lat="45.80408" lon="6.41058">
        <ele>1914</ele>
        <time>2018-10-17T12:24:27Z</time>
      </trkpt>
      <trkpt lat="45.80408" lon="6.41058">
        <ele>1914</ele>
        <time>2018-10-17T12:24:28Z</time>
      </trkpt>
      <trkpt lat="45.80408" lon="6.41058">
        <ele>1914</ele>
        <time>2018-10-17T12:24:29Z</time>
      </trkpt>
      <trkpt lat="45.80408" lon="6.41058">
        <ele>1914</ele>
        <time>2018-10-17T12:24:30Z</time>
      </trkpt>
      <trkpt lat="45.80408" lon="6.41058">
        <ele>1914</ele>
        <time>2018-10-17T12:24:31Z</time>
      </trkpt>
      <trkpt lat="45.80408" lon="6.41058">
        <ele>1914</ele>
        <time>2018-10-17T12:24:32Z</time>
      </trkpt>
      <trkpt lat="45.8041" lon="6.4106">
        <ele>1914</ele>
        <time>2018-10-17T12:24:33Z</time>
      </trkpt>
      <trkpt lat="45.8041" lon="6.4106">
        <ele>1914</ele>
        <time>2018-10-17T12:24:34Z</time>
      </trkpt>
      <trkpt lat="45.80412" lon="6.4106">
        <ele>1914</ele>
        <time>2018-10-17T12:24:35Z</time>
      </trkpt>
      <trkpt lat="45.80412" lon="6.4106">
        <ele>1914</ele>
        <time>2018-10-17T12:24:36Z</time>
      </trkpt>
      <trkpt lat="45.80414" lon="6.41061">
        <ele>1914</ele>
        <time>2018-10-17T12:24:37Z</time>
      </trkpt>
      <trkpt lat="45.80414" lon="6.41061">
        <ele>1913</ele>
        <time>2018-10-17T12:24:38Z</time>
      </trkpt>
      <trkpt lat="45.80416" lon="6.41062">
        <ele>1913</ele>
        <time>2018-10-17T12:24:39Z</time>
      </trkpt>
      <trkpt lat="45.80416" lon="6.41062">
        <ele>1912</ele>
        <time>2018-10-17T12:24:40Z</time>
      </trkpt>
      <trkpt lat="45.80418" lon="6.41063">
        <ele>1912</ele>
        <time>2018-10-17T12:24:41Z</time>
      </trkpt>
      <trkpt lat="45.80418" lon="6.41063">
        <ele>1912</ele>
        <time>2018-10-17T12:24:42Z</time>
      </trkpt>
      <trkpt lat="45.8042" lon="6.41065">
        <ele>1912</ele>
        <time>2018-10-17T12:24:43Z</time>
      </trkpt>
      <trkpt lat="45.8042" lon="6.41065">
        <ele>1911</ele>
        <time>2018-10-17T12:24:44Z</time>
      </trkpt>
      <trkpt lat="45.80422" lon="6.41067">
        <ele>1911</ele>
        <time>2018-10-17T12:24:45Z</time>
      </trkpt>
      <trkpt lat="45.80422" lon="6.41067">
        <ele>1911</ele>
        <time>2018-10-17T12:24:46Z</time>
      </trkpt>
      <trkpt lat="45.80422" lon="6.41067">
        <ele>1911</ele>
        <time>2018-10-17T12:24:47Z</time>
      </trkpt>
      <trkpt lat="45.80422" lon="6.41067">
        <ele>1911</ele>
        <time>2018-10-17T12:24:48Z</time>
      </trkpt>
      <trkpt lat="45.80422" lon="6.41067">
        <ele>1911</ele>
        <time>2018-10-17T12:24:49Z</time>
      </trkpt>
      <trkpt lat="45.80422" lon="6.41067">
        <ele>1911</ele>
        <time>2018-10-17T12:24:50Z</time>
      </trkpt>
      <trkpt lat="45.80422" lon="6.41067">
        <ele>1911</ele>
        <time>2018-10-17T12:24:51Z</time>
      </trkpt>
      <trkpt lat="45.80422" lon="6.41067">
        <ele>1911</ele>
        <time>2018-10-17T12:24:52Z</time>
      </trkpt>
      <trkpt lat="45.80422" lon="6.41067">
        <ele>1911</ele>
        <time>2018-10-17T12:24:53Z</time>
      </trkpt>
      <trkpt lat="45.80422" lon="6.41067">
        <ele>1911</ele>
        <time>2018-10-17T12:24:54Z</time>
      </trkpt>
      <trkpt lat="45.80422" lon="6.41067">
        <ele>1911</ele>
        <time>2018-10-17T12:24:55Z</time>
      </trkpt>
      <trkpt lat="45.80421" lon="6.4107">
        <ele>1911</ele>
        <time>2018-10-17T12:24:56Z</time>
      </trkpt>
      <trkpt lat="45.80421" lon="6.4107">
        <ele>1911</ele>
        <time>2018-10-17T12:24:57Z</time>
      </trkpt>
      <trkpt lat="45.80421" lon="6.4107">
        <ele>1911</ele>
        <time>2018-10-17T12:24:58Z</time>
      </trkpt>
      <trkpt lat="45.80421" lon="6.4107">
        <ele>1911</ele>
        <time>2018-10-17T12:24:59Z</time>
      </trkpt>
      <trkpt lat="45.80421" lon="6.4107">
        <ele>1911</ele>
        <time>2018-10-17T12:25:00Z</time>
      </trkpt>
      <trkpt lat="45.80421" lon="6.4107">
        <ele>1910</ele>
        <time>2018-10-17T12:25:01Z</time>
      </trkpt>
      <trkpt lat="45.80421" lon="6.4107">
        <ele>1910</ele>
        <time>2018-10-17T12:25:02Z</time>
      </trkpt>
      <trkpt lat="45.80421" lon="6.4107">
        <ele>1910</ele>
        <time>2018-10-17T12:25:03Z</time>
      </trkpt>
      <trkpt lat="45.80421" lon="6.4107">
        <ele>1910</ele>
        <time>2018-10-17T12:25:04Z</time>
      </trkpt>
      <trkpt lat="45.80421" lon="6.4107">
        <ele>1910</ele>
        <time>2018-10-17T12:25:05Z</time>
      </trkpt>
      <trkpt lat="45.80421" lon="6.4107">
        <ele>1910</ele>
        <time>2018-10-17T12:25:06Z</time>
      </trkpt>
      <trkpt lat="45.80421" lon="6.4107">
        <ele>1910</ele>
        <time>2018-10-17T12:25:07Z</time>
      </trkpt>
      <trkpt lat="45.80421" lon="6.4107">
        <ele>1910</ele>
        <time>2018-10-17T12:25:08Z</time>
      </trkpt>
      <trkpt lat="45.80421" lon="6.4107">
        <ele>1910</ele>
        <time>2018-10-17T12:25:09Z</time>
      </trkpt>
      <trkpt lat="45.80421" lon="6.4107">
        <ele>1910</ele>
        <time>2018-10-17T12:25:10Z</time>
      </trkpt>
      <trkpt lat="45.80421" lon="6.4107">
        <ele>1910</ele>
        <time>2018-10-17T12:25:11Z</time>
      </trkpt>
      <trkpt lat="45.80421" lon="6.4107">
        <ele>1910</ele>
        <time>2018-10-17T12:25:12Z</time>
      </trkpt>
      <trkpt lat="45.80421" lon="6.4107">
        <ele>1910</ele>
        <time>2018-10-17T12:25:13Z</time>
      </trkpt>
      <trkpt lat="45.80421" lon="6.4107">
        <ele>1911</ele>
        <time>2018-10-17T12:25:14Z</time>
      </trkpt>
      <trkpt lat="45.80421" lon="6.4107">
        <ele>1911</ele>
        <time>2018-10-17T12:25:15Z</time>
      </trkpt>
      <trkpt lat="45.80421" lon="6.4107">
        <ele>1911</ele>
        <time>2018-10-17T12:25:16Z</time>
      </trkpt>
      <trkpt lat="45.80421" lon="6.4107">
        <ele>1911</ele>
        <time>2018-10-17T12:25:17Z</time>
      </trkpt>
      <trkpt lat="45.80421" lon="6.4107">
        <ele>1911</ele>
        <time>2018-10-17T12:25:18Z</time>
      </trkpt>
      <trkpt lat="45.80421" lon="6.4107">
        <ele>1911</ele>
        <time>2018-10-17T12:25:19Z</time>
      </trkpt>
      <trkpt lat="45.80421" lon="6.4107">
        <ele>1911</ele>
        <time>2018-10-17T12:25:20Z</time>
      </trkpt>
      <trkpt lat="45.80421" lon="6.4107">
        <ele>1911</ele>
        <time>2018-10-17T12:25:21Z</time>
      </trkpt>
      <trkpt lat="45.80421" lon="6.4107">
        <ele>1911</ele>
        <time>2018-10-17T12:25:22Z</time>
      </trkpt>
      <trkpt lat="45.80421" lon="6.4107">
        <ele>1911</ele>
        <time>2018-10-17T12:25:23Z</time>
      </trkpt>
      <trkpt lat="45.80422" lon="6.41072">
        <ele>1911</ele>
        <time>2018-10-17T12:25:24Z</time>
      </trkpt>
      <trkpt lat="45.80422" lon="6.41072">
        <ele>1911</ele>
        <time>2018-10-17T12:25:25Z</time>
      </trkpt>
      <trkpt lat="45.80422" lon="6.41072">
        <ele>1911</ele>
        <time>2018-10-17T12:25:26Z</time>
      </trkpt>
      <trkpt lat="45.80422" lon="6.41072">
        <ele>1911</ele>
        <time>2018-10-17T12:25:27Z</time>
      </trkpt>
      <trkpt lat="45.80422" lon="6.41072">
        <ele>1911</ele>
        <time>2018-10-17T12:25:28Z</time>
      </trkpt>
      <trkpt lat="45.80422" lon="6.41072">
        <ele>1911</ele>
        <time>2018-10-17T12:25:29Z</time>
      </trkpt>
      <trkpt lat="45.80422" lon="6.41072">
        <ele>1911</ele>
        <time>2018-10-17T12:25:30Z</time>
      </trkpt>
      <trkpt lat="45.80422" lon="6.41072">
        <ele>1911</ele>
        <time>2018-10-17T12:25:31Z</time>
      </trkpt>
      <trkpt lat="45.80422" lon="6.41072">
        <ele>1911</ele>
        <time>2018-10-17T12:25:32Z</time>
      </trkpt>
      <trkpt lat="45.80422" lon="6.41072">
        <ele>1911</ele>
        <time>2018-10-17T12:25:33Z</time>
      </trkpt>
      <trkpt lat="45.80422" lon="6.41072">
        <ele>1911</ele>
        <time>2018-10-17T12:25:34Z</time>
      </trkpt>
      <trkpt lat="45.80422" lon="6.41072">
        <ele>1911</ele>
        <time>2018-10-17T12:25:35Z</time>
      </trkpt>
      <trkpt lat="45.80422" lon="6.41072">
        <ele>1911</ele>
        <time>2018-10-17T12:25:36Z</time>
      </trkpt>
      <trkpt lat="45.80422" lon="6.41072">
        <ele>1911</ele>
        <time>2018-10-17T12:25:37Z</time>
      </trkpt>
      <trkpt lat="45.80422" lon="6.41072">
        <ele>1911</ele>
        <time>2018-10-17T12:25:38Z</time>
      </trkpt>
      <trkpt lat="45.80422" lon="6.41072">
        <ele>1911</ele>
        <time>2018-10-17T12:25:39Z</time>
      </trkpt>
      <trkpt lat="45.80422" lon="6.41072">
        <ele>1911</ele>
        <time>2018-10-17T12:25:40Z</time>
      </trkpt>
      <trkpt lat="45.80422" lon="6.41072">
        <ele>1911</ele>
        <time>2018-10-17T12:25:41Z</time>
      </trkpt>
      <trkpt lat="45.80422" lon="6.41072">
        <ele>1911</ele>
        <time>2018-10-17T12:25:42Z</time>
      </trkpt>
      <trkpt lat="45.80422" lon="6.41072">
        <ele>1911</ele>
        <time>2018-10-17T12:25:43Z</time>
      </trkpt>
      <trkpt lat="45.80422" lon="6.41072">
        <ele>1911</ele>
        <time>2018-10-17T12:25:44Z</time>
      </trkpt>
      <trkpt lat="45.80422" lon="6.41072">
        <ele>1911</ele>
        <time>2018-10-17T12:25:45Z</time>
      </trkpt>
      <trkpt lat="45.80422" lon="6.41072">
        <ele>1911</ele>
        <time>2018-10-17T12:25:46Z</time>
      </trkpt>
      <trkpt lat="45.80422" lon="6.41072">
        <ele>1911</ele>
        <time>2018-10-17T12:25:47Z</time>
      </trkpt>
      <trkpt lat="45.80422" lon="6.41072">
        <ele>1911</ele>
        <time>2018-10-17T12:25:48Z</time>
      </trkpt>
      <trkpt lat="45.80422" lon="6.41072">
        <ele>1911</ele>
        <time>2018-10-17T12:25:49Z</time>
      </trkpt>
      <trkpt lat="45.80422" lon="6.41072">
        <ele>1911</ele>
        <time>2018-10-17T12:25:50Z</time>
      </trkpt>
      <trkpt lat="45.80422" lon="6.41072">
        <ele>1911</ele>
        <time>2018-10-17T12:25:51Z</time>
      </trkpt>
      <trkpt lat="45.80422" lon="6.41072">
        <ele>1911</ele>
        <time>2018-10-17T12:25:52Z</time>
      </trkpt>
      <trkpt lat="45.80422" lon="6.41072">
        <ele>1911</ele>
        <time>2018-10-17T12:25:53Z</time>
      </trkpt>
      <trkpt lat="45.80422" lon="6.41072">
        <ele>1911</ele>
        <time>2018-10-17T12:25:54Z</time>
      </trkpt>
      <trkpt lat="45.80422" lon="6.41072">
        <ele>1911</ele>
        <time>2018-10-17T12:25:55Z</time>
      </trkpt>
      <trkpt lat="45.80422" lon="6.41072">
        <ele>1911</ele>
        <time>2018-10-17T12:25:56Z</time>
      </trkpt>
      <trkpt lat="45.80422" lon="6.41072">
        <ele>1911</ele>
        <time>2018-10-17T12:25:57Z</time>
      </trkpt>
      <trkpt lat="45.80422" lon="6.41072">
        <ele>1911</ele>
        <time>2018-10-17T12:25:58Z</time>
      </trkpt>
      <trkpt lat="45.80422" lon="6.41072">
        <ele>1911</ele>
        <time>2018-10-17T12:25:59Z</time>
      </trkpt>
      <trkpt lat="45.80422" lon="6.41072">
        <ele>1911</ele>
        <time>2018-10-17T12:26:00Z</time>
      </trkpt>
      <trkpt lat="45.80422" lon="6.41072">
        <ele>1910</ele>
        <time>2018-10-17T12:26:01Z</time>
      </trkpt>
      <trkpt lat="45.80422" lon="6.41072">
        <ele>1910</ele>
        <time>2018-10-17T12:26:02Z</time>
      </trkpt>
      <trkpt lat="45.80422" lon="6.41072">
        <ele>1910</ele>
        <time>2018-10-17T12:26:03Z</time>
      </trkpt>
      <trkpt lat="45.80422" lon="6.41072">
        <ele>1910</ele>
        <time>2018-10-17T12:26:04Z</time>
      </trkpt>
      <trkpt lat="45.80422" lon="6.41072">
        <ele>1910</ele>
        <time>2018-10-17T12:26:05Z</time>
      </trkpt>
      <trkpt lat="45.80422" lon="6.41072">
        <ele>1910</ele>
        <time>2018-10-17T12:26:06Z</time>
      </trkpt>
      <trkpt lat="45.80422" lon="6.41072">
        <ele>1910</ele>
        <time>2018-10-17T12:26:07Z</time>
      </trkpt>
      <trkpt lat="45.80422" lon="6.41072">
        <ele>1910</ele>
        <time>2018-10-17T12:26:08Z</time>
      </trkpt>
      <trkpt lat="45.80422" lon="6.41072">
        <ele>1910</ele>
        <time>2018-10-17T12:26:09Z</time>
      </trkpt>
      <trkpt lat="45.80422" lon="6.41072">
        <ele>1910</ele>
        <time>2018-10-17T12:26:10Z</time>
      </trkpt>
      <trkpt lat="45.80422" lon="6.41072">
        <ele>1910</ele>
        <time>2018-10-17T12:26:11Z</time>
      </trkpt>
      <trkpt lat="45.80422" lon="6.41072">
        <ele>1911</ele>
        <time>2018-10-17T12:26:12Z</time>
      </trkpt>
      <trkpt lat="45.80422" lon="6.41072">
        <ele>1911</ele>
        <time>2018-10-17T12:26:13Z</time>
      </trkpt>
      <trkpt lat="45.80422" lon="6.41072">
        <ele>1911</ele>
        <time>2018-10-17T12:26:14Z</time>
      </trkpt>
      <trkpt lat="45.80422" lon="6.41072">
        <ele>1910</ele>
        <time>2018-10-17T12:26:15Z</time>
      </trkpt>
      <trkpt lat="45.80422" lon="6.41072">
        <ele>1910</ele>
        <time>2018-10-17T12:26:16Z</time>
      </trkpt>
      <trkpt lat="45.80422" lon="6.41072">
        <ele>1910</ele>
        <time>2018-10-17T12:26:17Z</time>
      </trkpt>
      <trkpt lat="45.80422" lon="6.41072">
        <ele>1910</ele>
        <time>2018-10-17T12:26:18Z</time>
      </trkpt>
      <trkpt lat="45.80422" lon="6.41072">
        <ele>1910</ele>
        <time>2018-10-17T12:26:19Z</time>
      </trkpt>
      <trkpt lat="45.80422" lon="6.41072">
        <ele>1910</ele>
        <time>2018-10-17T12:26:20Z</time>
      </trkpt>
      <trkpt lat="45.80422" lon="6.41072">
        <ele>1910</ele>
        <time>2018-10-17T12:26:21Z</time>
      </trkpt>
      <trkpt lat="45.80422" lon="6.41072">
        <ele>1910</ele>
        <time>2018-10-17T12:26:22Z</time>
      </trkpt>
      <trkpt lat="45.80422" lon="6.41072">
        <ele>1910</ele>
        <time>2018-10-17T12:26:23Z</time>
      </trkpt>
      <trkpt lat="45.80422" lon="6.41072">
        <ele>1910</ele>
        <time>2018-10-17T12:26:24Z</time>
      </trkpt>
      <trkpt lat="45.80422" lon="6.41072">
        <ele>1910</ele>
        <time>2018-10-17T12:26:25Z</time>
      </trkpt>
      <trkpt lat="45.80422" lon="6.41072">
        <ele>1910</ele>
        <time>2018-10-17T12:26:26Z</time>
      </trkpt>
      <trkpt lat="45.80422" lon="6.41072">
        <ele>1910</ele>
        <time>2018-10-17T12:26:27Z</time>
      </trkpt>
      <trkpt lat="45.80422" lon="6.41072">
        <ele>1910</ele>
        <time>2018-10-17T12:26:28Z</time>
      </trkpt>
      <trkpt lat="45.80422" lon="6.41072">
        <ele>1910</ele>
        <time>2018-10-17T12:26:29Z</time>
      </trkpt>
      <trkpt lat="45.80422" lon="6.41072">
        <ele>1911</ele>
        <time>2018-10-17T12:26:30Z</time>
      </trkpt>
      <trkpt lat="45.80422" lon="6.41072">
        <ele>1911</ele>
        <time>2018-10-17T12:26:31Z</time>
      </trkpt>
      <trkpt lat="45.80422" lon="6.41072">
        <ele>1911</ele>
        <time>2018-10-17T12:26:32Z</time>
      </trkpt>
      <trkpt lat="45.80422" lon="6.41072">
        <ele>1911</ele>
        <time>2018-10-17T12:26:33Z</time>
      </trkpt>
      <trkpt lat="45.80422" lon="6.41072">
        <ele>1910</ele>
        <time>2018-10-17T12:26:34Z</time>
      </trkpt>
      <trkpt lat="45.80422" lon="6.41072">
        <ele>1910</ele>
        <time>2018-10-17T12:26:35Z</time>
      </trkpt>
      <trkpt lat="45.80422" lon="6.41072">
        <ele>1910</ele>
        <time>2018-10-17T12:26:36Z</time>
      </trkpt>
      <trkpt lat="45.80422" lon="6.41072">
        <ele>1910</ele>
        <time>2018-10-17T12:26:37Z</time>
      </trkpt>
      <trkpt lat="45.80422" lon="6.41072">
        <ele>1910</ele>
        <time>2018-10-17T12:26:38Z</time>
      </trkpt>
      <trkpt lat="45.80422" lon="6.41072">
        <ele>1910</ele>
        <time>2018-10-17T12:26:39Z</time>
      </trkpt>
      <trkpt lat="45.80422" lon="6.41072">
        <ele>1910</ele>
        <time>2018-10-17T12:26:40Z</time>
      </trkpt>
      <trkpt lat="45.80422" lon="6.41072">
        <ele>1910</ele>
        <time>2018-10-17T12:26:41Z</time>
      </trkpt>
      <trkpt lat="45.80422" lon="6.41072">
        <ele>1910</ele>
        <time>2018-10-17T12:26:42Z</time>
      </trkpt>
      <trkpt lat="45.80422" lon="6.41072">
        <ele>1909</ele>
        <time>2018-10-17T12:26:43Z</time>
      </trkpt>
      <trkpt lat="45.80422" lon="6.41072">
        <ele>1910</ele>
        <time>2018-10-17T12:26:44Z</time>
      </trkpt>
      <trkpt lat="45.80422" lon="6.41072">
        <ele>1910</ele>
        <time>2018-10-17T12:26:45Z</time>
      </trkpt>
      <trkpt lat="45.80422" lon="6.41072">
        <ele>1910</ele>
        <time>2018-10-17T12:26:46Z</time>
      </trkpt>
      <trkpt lat="45.80422" lon="6.41072">
        <ele>1910</ele>
        <time>2018-10-17T12:26:47Z</time>
      </trkpt>
      <trkpt lat="45.80422" lon="6.41072">
        <ele>1910</ele>
        <time>2018-10-17T12:26:48Z</time>
      </trkpt>
      <trkpt lat="45.80422" lon="6.41072">
        <ele>1910</ele>
        <time>2018-10-17T12:26:49Z</time>
      </trkpt>
      <trkpt lat="45.80422" lon="6.41072">
        <ele>1910</ele>
        <time>2018-10-17T12:26:50Z</time>
      </trkpt>
      <trkpt lat="45.80422" lon="6.41072">
        <ele>1910</ele>
        <time>2018-10-17T12:26:51Z</time>
      </trkpt>
      <trkpt lat="45.80422" lon="6.41072">
        <ele>1910</ele>
        <time>2018-10-17T12:26:52Z</time>
      </trkpt>
      <trkpt lat="45.80422" lon="6.41072">
        <ele>1910</ele>
        <time>2018-10-17T12:26:53Z</time>
      </trkpt>
      <trkpt lat="45.80422" lon="6.41072">
        <ele>1910</ele>
        <time>2018-10-17T12:26:54Z</time>
      </trkpt>
      <trkpt lat="45.80422" lon="6.41072">
        <ele>1910</ele>
        <time>2018-10-17T12:26:55Z</time>
      </trkpt>
      <trkpt lat="45.80422" lon="6.41072">
        <ele>1910</ele>
        <time>2018-10-17T12:26:56Z</time>
      </trkpt>
      <trkpt lat="45.80422" lon="6.41072">
        <ele>1910</ele>
        <time>2018-10-17T12:26:57Z</time>
      </trkpt>
      <trkpt lat="45.80422" lon="6.41072">
        <ele>1910</ele>
        <time>2018-10-17T12:26:58Z</time>
      </trkpt>
      <trkpt lat="45.80422" lon="6.41072">
        <ele>1910</ele>
        <time>2018-10-17T12:26:59Z</time>
      </trkpt>
      <trkpt lat="45.80422" lon="6.41072">
        <ele>1910</ele>
        <time>2018-10-17T12:27:00Z</time>
      </trkpt>
      <trkpt lat="45.80422" lon="6.41072">
        <ele>1910</ele>
        <time>2018-10-17T12:27:01Z</time>
      </trkpt>
      <trkpt lat="45.80422" lon="6.41072">
        <ele>1910</ele>
        <time>2018-10-17T12:27:02Z</time>
      </trkpt>
      <trkpt lat="45.80422" lon="6.41072">
        <ele>1910</ele>
        <time>2018-10-17T12:27:03Z</time>
      </trkpt>
      <trkpt lat="45.80422" lon="6.41075">
        <ele>1910</ele>
        <time>2018-10-17T12:27:04Z</time>
      </trkpt>
      <trkpt lat="45.80422" lon="6.41075">
        <ele>1910</ele>
        <time>2018-10-17T12:27:05Z</time>
      </trkpt>
      <trkpt lat="45.80422" lon="6.41075">
        <ele>1910</ele>
        <time>2018-10-17T12:27:06Z</time>
      </trkpt>
      <trkpt lat="45.80422" lon="6.41075">
        <ele>1910</ele>
        <time>2018-10-17T12:27:07Z</time>
      </trkpt>
      <trkpt lat="45.80422" lon="6.41075">
        <ele>1910</ele>
        <time>2018-10-17T12:27:08Z</time>
      </trkpt>
      <trkpt lat="45.80422" lon="6.41075">
        <ele>1910</ele>
        <time>2018-10-17T12:27:09Z</time>
      </trkpt>
      <trkpt lat="45.80422" lon="6.41075">
        <ele>1910</ele>
        <time>2018-10-17T12:27:10Z</time>
      </trkpt>
      <trkpt lat="45.80422" lon="6.41075">
        <ele>1910</ele>
        <time>2018-10-17T12:27:11Z</time>
      </trkpt>
      <trkpt lat="45.80422" lon="6.41075">
        <ele>1910</ele>
        <time>2018-10-17T12:27:12Z</time>
      </trkpt>
      <trkpt lat="45.80422" lon="6.41075">
        <ele>1910</ele>
        <time>2018-10-17T12:27:13Z</time>
      </trkpt>
      <trkpt lat="45.80422" lon="6.41075">
        <ele>1910</ele>
        <time>2018-10-17T12:27:14Z</time>
      </trkpt>
      <trkpt lat="45.80422" lon="6.41075">
        <ele>1910</ele>
        <time>2018-10-17T12:27:15Z</time>
      </trkpt>
      <trkpt lat="45.80422" lon="6.41075">
        <ele>1910</ele>
        <time>2018-10-17T12:27:16Z</time>
      </trkpt>
      <trkpt lat="45.80422" lon="6.41075">
        <ele>1910</ele>
        <time>2018-10-17T12:27:17Z</time>
      </trkpt>
      <trkpt lat="45.80422" lon="6.41075">
        <ele>1910</ele>
        <time>2018-10-17T12:27:18Z</time>
      </trkpt>
      <trkpt lat="45.80422" lon="6.41075">
        <ele>1910</ele>
        <time>2018-10-17T12:27:19Z</time>
      </trkpt>
      <trkpt lat="45.80422" lon="6.41075">
        <ele>1910</ele>
        <time>2018-10-17T12:27:20Z</time>
      </trkpt>
      <trkpt lat="45.80422" lon="6.41075">
        <ele>1910</ele>
        <time>2018-10-17T12:27:21Z</time>
      </trkpt>
      <trkpt lat="45.80422" lon="6.41075">
        <ele>1910</ele>
        <time>2018-10-17T12:27:22Z</time>
      </trkpt>
      <trkpt lat="45.80422" lon="6.41075">
        <ele>1910</ele>
        <time>2018-10-17T12:27:23Z</time>
      </trkpt>
      <trkpt lat="45.80422" lon="6.41075">
        <ele>1910</ele>
        <time>2018-10-17T12:27:24Z</time>
      </trkpt>
      <trkpt lat="45.80422" lon="6.41075">
        <ele>1910</ele>
        <time>2018-10-17T12:27:25Z</time>
      </trkpt>
      <trkpt lat="45.80422" lon="6.41075">
        <ele>1910</ele>
        <time>2018-10-17T12:27:26Z</time>
      </trkpt>
      <trkpt lat="45.80422" lon="6.41075">
        <ele>1910</ele>
        <time>2018-10-17T12:27:27Z</time>
      </trkpt>
      <trkpt lat="45.80422" lon="6.41075">
        <ele>1910</ele>
        <time>2018-10-17T12:27:28Z</time>
      </trkpt>
      <trkpt lat="45.80422" lon="6.41075">
        <ele>1910</ele>
        <time>2018-10-17T12:27:29Z</time>
      </trkpt>
      <trkpt lat="45.80422" lon="6.41075">
        <ele>1910</ele>
        <time>2018-10-17T12:27:30Z</time>
      </trkpt>
      <trkpt lat="45.80422" lon="6.41075">
        <ele>1910</ele>
        <time>2018-10-17T12:27:31Z</time>
      </trkpt>
      <trkpt lat="45.80422" lon="6.41075">
        <ele>1910</ele>
        <time>2018-10-17T12:27:32Z</time>
      </trkpt>
      <trkpt lat="45.80422" lon="6.41075">
        <ele>1910</ele>
        <time>2018-10-17T12:27:33Z</time>
      </trkpt>
      <trkpt lat="45.80422" lon="6.41075">
        <ele>1910</ele>
        <time>2018-10-17T12:27:34Z</time>
      </trkpt>
      <trkpt lat="45.80422" lon="6.41075">
        <ele>1910</ele>
        <time>2018-10-17T12:27:35Z</time>
      </trkpt>
      <trkpt lat="45.80422" lon="6.41075">
        <ele>1910</ele>
        <time>2018-10-17T12:27:36Z</time>
      </trkpt>
      <trkpt lat="45.80422" lon="6.41075">
        <ele>1910</ele>
        <time>2018-10-17T12:27:37Z</time>
      </trkpt>
      <trkpt lat="45.80422" lon="6.41075">
        <ele>1909</ele>
        <time>2018-10-17T12:27:38Z</time>
      </trkpt>
      <trkpt lat="45.80422" lon="6.41075">
        <ele>1909</ele>
        <time>2018-10-17T12:27:39Z</time>
      </trkpt>
      <trkpt lat="45.80422" lon="6.41075">
        <ele>1909</ele>
        <time>2018-10-17T12:27:40Z</time>
      </trkpt>
      <trkpt lat="45.80422" lon="6.41075">
        <ele>1909</ele>
        <time>2018-10-17T12:27:41Z</time>
      </trkpt>
      <trkpt lat="45.80422" lon="6.41075">
        <ele>1909</ele>
        <time>2018-10-17T12:27:42Z</time>
      </trkpt>
      <trkpt lat="45.80422" lon="6.41075">
        <ele>1909</ele>
        <time>2018-10-17T12:27:43Z</time>
      </trkpt>
      <trkpt lat="45.80422" lon="6.41075">
        <ele>1910</ele>
        <time>2018-10-17T12:27:44Z</time>
      </trkpt>
      <trkpt lat="45.80422" lon="6.41075">
        <ele>1910</ele>
        <time>2018-10-17T12:27:45Z</time>
      </trkpt>
      <trkpt lat="45.80422" lon="6.41075">
        <ele>1910</ele>
        <time>2018-10-17T12:27:46Z</time>
      </trkpt>
      <trkpt lat="45.80422" lon="6.41075">
        <ele>1910</ele>
        <time>2018-10-17T12:27:47Z</time>
      </trkpt>
      <trkpt lat="45.80422" lon="6.41075">
        <ele>1910</ele>
        <time>2018-10-17T12:27:48Z</time>
      </trkpt>
      <trkpt lat="45.80422" lon="6.41075">
        <ele>1910</ele>
        <time>2018-10-17T12:27:49Z</time>
      </trkpt>
      <trkpt lat="45.80422" lon="6.41075">
        <ele>1910</ele>
        <time>2018-10-17T12:27:50Z</time>
      </trkpt>
      <trkpt lat="45.80422" lon="6.41075">
        <ele>1910</ele>
        <time>2018-10-17T12:27:51Z</time>
      </trkpt>
      <trkpt lat="45.80422" lon="6.41075">
        <ele>1910</ele>
        <time>2018-10-17T12:27:52Z</time>
      </trkpt>
      <trkpt lat="45.80422" lon="6.41075">
        <ele>1910</ele>
        <time>2018-10-17T12:27:53Z</time>
      </trkpt>
      <trkpt lat="45.80422" lon="6.41075">
        <ele>1910</ele>
        <time>2018-10-17T12:27:54Z</time>
      </trkpt>
      <trkpt lat="45.80422" lon="6.41075">
        <ele>1910</ele>
        <time>2018-10-17T12:27:55Z</time>
      </trkpt>
      <trkpt lat="45.80422" lon="6.41075">
        <ele>1910</ele>
        <time>2018-10-17T12:27:56Z</time>
      </trkpt>
      <trkpt lat="45.80422" lon="6.41075">
        <ele>1910</ele>
        <time>2018-10-17T12:27:57Z</time>
      </trkpt>
      <trkpt lat="45.80422" lon="6.41075">
        <ele>1910</ele>
        <time>2018-10-17T12:27:58Z</time>
      </trkpt>
      <trkpt lat="45.80422" lon="6.41075">
        <ele>1910</ele>
        <time>2018-10-17T12:27:59Z</time>
      </trkpt>
      <trkpt lat="45.80422" lon="6.41075">
        <ele>1910</ele>
        <time>2018-10-17T12:28:00Z</time>
      </trkpt>
      <trkpt lat="45.80422" lon="6.41075">
        <ele>1910</ele>
        <time>2018-10-17T12:28:01Z</time>
      </trkpt>
      <trkpt lat="45.80422" lon="6.41075">
        <ele>1910</ele>
        <time>2018-10-17T12:28:02Z</time>
      </trkpt>
      <trkpt lat="45.80422" lon="6.41075">
        <ele>1910</ele>
        <time>2018-10-17T12:28:03Z</time>
      </trkpt>
      <trkpt lat="45.80422" lon="6.41075">
        <ele>1910</ele>
        <time>2018-10-17T12:28:04Z</time>
      </trkpt>
      <trkpt lat="45.80422" lon="6.41075">
        <ele>1910</ele>
        <time>2018-10-17T12:28:05Z</time>
      </trkpt>
      <trkpt lat="45.80422" lon="6.41075">
        <ele>1910</ele>
        <time>2018-10-17T12:28:06Z</time>
      </trkpt>
      <trkpt lat="45.80422" lon="6.41075">
        <ele>1910</ele>
        <time>2018-10-17T12:28:07Z</time>
      </trkpt>
      <trkpt lat="45.80422" lon="6.41075">
        <ele>1910</ele>
        <time>2018-10-17T12:28:08Z</time>
      </trkpt>
      <trkpt lat="45.80422" lon="6.41075">
        <ele>1910</ele>
        <time>2018-10-17T12:28:09Z</time>
      </trkpt>
      <trkpt lat="45.80422" lon="6.41075">
        <ele>1910</ele>
        <time>2018-10-17T12:28:10Z</time>
      </trkpt>
      <trkpt lat="45.80422" lon="6.41075">
        <ele>1910</ele>
        <time>2018-10-17T12:28:11Z</time>
      </trkpt>
      <trkpt lat="45.80422" lon="6.41075">
        <ele>1910</ele>
        <time>2018-10-17T12:28:12Z</time>
      </trkpt>
      <trkpt lat="45.80422" lon="6.41075">
        <ele>1910</ele>
        <time>2018-10-17T12:28:13Z</time>
      </trkpt>
      <trkpt lat="45.80422" lon="6.41075">
        <ele>1910</ele>
        <time>2018-10-17T12:28:14Z</time>
      </trkpt>
      <trkpt lat="45.80422" lon="6.41075">
        <ele>1910</ele>
        <time>2018-10-17T12:28:15Z</time>
      </trkpt>
      <trkpt lat="45.80422" lon="6.41075">
        <ele>1910</ele>
        <time>2018-10-17T12:28:16Z</time>
      </trkpt>
      <trkpt lat="45.80422" lon="6.41075">
        <ele>1910</ele>
        <time>2018-10-17T12:28:17Z</time>
      </trkpt>
      <trkpt lat="45.80422" lon="6.41075">
        <ele>1910</ele>
        <time>2018-10-17T12:28:18Z</time>
      </trkpt>
      <trkpt lat="45.80422" lon="6.41075">
        <ele>1910</ele>
        <time>2018-10-17T12:28:19Z</time>
      </trkpt>
      <trkpt lat="45.80422" lon="6.41075">
        <ele>1910</ele>
        <time>2018-10-17T12:28:20Z</time>
      </trkpt>
      <trkpt lat="45.80422" lon="6.41075">
        <ele>1910</ele>
        <time>2018-10-17T12:28:21Z</time>
      </trkpt>
      <trkpt lat="45.80422" lon="6.41075">
        <ele>1910</ele>
        <time>2018-10-17T12:28:22Z</time>
      </trkpt>
      <trkpt lat="45.80422" lon="6.41075">
        <ele>1910</ele>
        <time>2018-10-17T12:28:23Z</time>
      </trkpt>
      <trkpt lat="45.80422" lon="6.41075">
        <ele>1910</ele>
        <time>2018-10-17T12:28:24Z</time>
      </trkpt>
      <trkpt lat="45.80422" lon="6.41075">
        <ele>1910</ele>
        <time>2018-10-17T12:28:25Z</time>
      </trkpt>
      <trkpt lat="45.80422" lon="6.41075">
        <ele>1910</ele>
        <time>2018-10-17T12:28:26Z</time>
      </trkpt>
      <trkpt lat="45.80422" lon="6.41075">
        <ele>1910</ele>
        <time>2018-10-17T12:28:27Z</time>
      </trkpt>
      <trkpt lat="45.80422" lon="6.41075">
        <ele>1910</ele>
        <time>2018-10-17T12:28:28Z</time>
      </trkpt>
      <trkpt lat="45.80422" lon="6.41075">
        <ele>1910</ele>
        <time>2018-10-17T12:28:29Z</time>
      </trkpt>
      <trkpt lat="45.80422" lon="6.41075">
        <ele>1910</ele>
        <time>2018-10-17T12:28:30Z</time>
      </trkpt>
      <trkpt lat="45.80422" lon="6.41075">
        <ele>1910</ele>
        <time>2018-10-17T12:28:31Z</time>
      </trkpt>
      <trkpt lat="45.80422" lon="6.41075">
        <ele>1910</ele>
        <time>2018-10-17T12:28:32Z</time>
      </trkpt>
      <trkpt lat="45.80422" lon="6.41075">
        <ele>1910</ele>
        <time>2018-10-17T12:28:33Z</time>
      </trkpt>
      <trkpt lat="45.80422" lon="6.41075">
        <ele>1910</ele>
        <time>2018-10-17T12:28:34Z</time>
      </trkpt>
      <trkpt lat="45.80422" lon="6.41075">
        <ele>1910</ele>
        <time>2018-10-17T12:28:35Z</time>
      </trkpt>
      <trkpt lat="45.80422" lon="6.41075">
        <ele>1910</ele>
        <time>2018-10-17T12:28:36Z</time>
      </trkpt>
      <trkpt lat="45.80422" lon="6.41075">
        <ele>1910</ele>
        <time>2018-10-17T12:28:37Z</time>
      </trkpt>
      <trkpt lat="45.80422" lon="6.41075">
        <ele>1910</ele>
        <time>2018-10-17T12:28:38Z</time>
      </trkpt>
      <trkpt lat="45.80422" lon="6.41075">
        <ele>1910</ele>
        <time>2018-10-17T12:28:39Z</time>
      </trkpt>
      <trkpt lat="45.80422" lon="6.41075">
        <ele>1910</ele>
        <time>2018-10-17T12:28:40Z</time>
      </trkpt>
      <trkpt lat="45.80422" lon="6.41075">
        <ele>1910</ele>
        <time>2018-10-17T12:28:41Z</time>
      </trkpt>
      <trkpt lat="45.80422" lon="6.41075">
        <ele>1910</ele>
        <time>2018-10-17T12:28:42Z</time>
      </trkpt>
      <trkpt lat="45.80422" lon="6.41075">
        <ele>1910</ele>
        <time>2018-10-17T12:28:43Z</time>
      </trkpt>
      <trkpt lat="45.80422" lon="6.41075">
        <ele>1910</ele>
        <time>2018-10-17T12:28:44Z</time>
      </trkpt>
      <trkpt lat="45.80422" lon="6.41075">
        <ele>1910</ele>
        <time>2018-10-17T12:28:45Z</time>
      </trkpt>
      <trkpt lat="45.80422" lon="6.41075">
        <ele>1910</ele>
        <time>2018-10-17T12:28:46Z</time>
      </trkpt>
      <trkpt lat="45.80422" lon="6.41075">
        <ele>1910</ele>
        <time>2018-10-17T12:28:47Z</time>
      </trkpt>
      <trkpt lat="45.80422" lon="6.41075">
        <ele>1909</ele>
        <time>2018-10-17T12:28:48Z</time>
      </trkpt>
      <trkpt lat="45.80425" lon="6.41077">
        <ele>1910</ele>
        <time>2018-10-17T12:28:49Z</time>
      </trkpt>
      <trkpt lat="45.80425" lon="6.41077">
        <ele>1910</ele>
        <time>2018-10-17T12:28:50Z</time>
      </trkpt>
      <trkpt lat="45.80425" lon="6.41077">
        <ele>1910</ele>
        <time>2018-10-17T12:28:51Z</time>
      </trkpt>
      <trkpt lat="45.80427" lon="6.41078">
        <ele>1910</ele>
        <time>2018-10-17T12:28:52Z</time>
      </trkpt>
      <trkpt lat="45.80427" lon="6.41078">
        <ele>1910</ele>
        <time>2018-10-17T12:28:53Z</time>
      </trkpt>
      <trkpt lat="45.80427" lon="6.41078">
        <ele>1910</ele>
        <time>2018-10-17T12:28:54Z</time>
      </trkpt>
      <trkpt lat="45.80429" lon="6.41076">
        <ele>1909</ele>
        <time>2018-10-17T12:28:55Z</time>
      </trkpt>
      <trkpt lat="45.80429" lon="6.41076">
        <ele>1909</ele>
        <time>2018-10-17T12:28:56Z</time>
      </trkpt>
      <trkpt lat="45.8043" lon="6.41074">
        <ele>1909</ele>
        <time>2018-10-17T12:28:57Z</time>
      </trkpt>
      <trkpt lat="45.8043" lon="6.41074">
        <ele>1908</ele>
        <time>2018-10-17T12:28:58Z</time>
      </trkpt>
      <trkpt lat="45.80432" lon="6.41073">
        <ele>1908</ele>
        <time>2018-10-17T12:28:59Z</time>
      </trkpt>
      <trkpt lat="45.80432" lon="6.41073">
        <ele>1908</ele>
        <time>2018-10-17T12:29:00Z</time>
      </trkpt>
      <trkpt lat="45.80435" lon="6.41073">
        <ele>1908</ele>
        <time>2018-10-17T12:29:01Z</time>
      </trkpt>
      <trkpt lat="45.80435" lon="6.41073">
        <ele>1908</ele>
        <time>2018-10-17T12:29:02Z</time>
      </trkpt>
      <trkpt lat="45.80435" lon="6.41073">
        <ele>1908</ele>
        <time>2018-10-17T12:29:03Z</time>
      </trkpt>
      <trkpt lat="45.80437" lon="6.41073">
        <ele>1908</ele>
        <time>2018-10-17T12:29:04Z</time>
      </trkpt>
      <trkpt lat="45.80437" lon="6.41073">
        <ele>1907</ele>
        <time>2018-10-17T12:29:05Z</time>
      </trkpt>
      <trkpt lat="45.8044" lon="6.41074">
        <ele>1907</ele>
        <time>2018-10-17T12:29:06Z</time>
      </trkpt>
      <trkpt lat="45.8044" lon="6.41074">
        <ele>1907</ele>
        <time>2018-10-17T12:29:07Z</time>
      </trkpt>
      <trkpt lat="45.80443" lon="6.41075">
        <ele>1907</ele>
        <time>2018-10-17T12:29:08Z</time>
      </trkpt>
      <trkpt lat="45.80443" lon="6.41075">
        <ele>1906</ele>
        <time>2018-10-17T12:29:09Z</time>
      </trkpt>
      <trkpt lat="45.80445" lon="6.41076">
        <ele>1906</ele>
        <time>2018-10-17T12:29:10Z</time>
      </trkpt>
      <trkpt lat="45.80445" lon="6.41076">
        <ele>1906</ele>
        <time>2018-10-17T12:29:11Z</time>
      </trkpt>
      <trkpt lat="45.80445" lon="6.41076">
        <ele>1906</ele>
        <time>2018-10-17T12:29:12Z</time>
      </trkpt>
      <trkpt lat="45.80447" lon="6.41077">
        <ele>1906</ele>
        <time>2018-10-17T12:29:13Z</time>
      </trkpt>
      <trkpt lat="45.80447" lon="6.41077">
        <ele>1906</ele>
        <time>2018-10-17T12:29:14Z</time>
      </trkpt>
      <trkpt lat="45.80449" lon="6.41078">
        <ele>1906</ele>
        <time>2018-10-17T12:29:15Z</time>
      </trkpt>
      <trkpt lat="45.80449" lon="6.41078">
        <ele>1906</ele>
        <time>2018-10-17T12:29:16Z</time>
      </trkpt>
      <trkpt lat="45.80451" lon="6.4108">
        <ele>1906</ele>
        <time>2018-10-17T12:29:17Z</time>
      </trkpt>
      <trkpt lat="45.80451" lon="6.4108">
        <ele>1906</ele>
        <time>2018-10-17T12:29:18Z</time>
      </trkpt>
      <trkpt lat="45.80453" lon="6.41082">
        <ele>1906</ele>
        <time>2018-10-17T12:29:19Z</time>
      </trkpt>
      <trkpt lat="45.80453" lon="6.41082">
        <ele>1906</ele>
        <time>2018-10-17T12:29:20Z</time>
      </trkpt>
      <trkpt lat="45.80454" lon="6.41085">
        <ele>1906</ele>
        <time>2018-10-17T12:29:21Z</time>
      </trkpt>
      <trkpt lat="45.80454" lon="6.41085">
        <ele>1906</ele>
        <time>2018-10-17T12:29:22Z</time>
      </trkpt>
      <trkpt lat="45.80455" lon="6.41087">
        <ele>1907</ele>
        <time>2018-10-17T12:29:23Z</time>
      </trkpt>
      <trkpt lat="45.80455" lon="6.41087">
        <ele>1907</ele>
        <time>2018-10-17T12:29:24Z</time>
      </trkpt>
      <trkpt lat="45.80457" lon="6.41089">
        <ele>1907</ele>
        <time>2018-10-17T12:29:25Z</time>
      </trkpt>
      <trkpt lat="45.80457" lon="6.41089">
        <ele>1907</ele>
        <time>2018-10-17T12:29:26Z</time>
      </trkpt>
      <trkpt lat="45.80459" lon="6.4109">
        <ele>1906</ele>
        <time>2018-10-17T12:29:27Z</time>
      </trkpt>
      <trkpt lat="45.80459" lon="6.4109">
        <ele>1906</ele>
        <time>2018-10-17T12:29:28Z</time>
      </trkpt>
      <trkpt lat="45.80461" lon="6.41092">
        <ele>1905</ele>
        <time>2018-10-17T12:29:29Z</time>
      </trkpt>
      <trkpt lat="45.80461" lon="6.41092">
        <ele>1905</ele>
        <time>2018-10-17T12:29:30Z</time>
      </trkpt>
      <trkpt lat="45.80463" lon="6.41095">
        <ele>1905</ele>
        <time>2018-10-17T12:29:31Z</time>
      </trkpt>
      <trkpt lat="45.80463" lon="6.41095">
        <ele>1905</ele>
        <time>2018-10-17T12:29:32Z</time>
      </trkpt>
      <trkpt lat="45.80465" lon="6.41095">
        <ele>1905</ele>
        <time>2018-10-17T12:29:33Z</time>
      </trkpt>
      <trkpt lat="45.80465" lon="6.41095">
        <ele>1905</ele>
        <time>2018-10-17T12:29:34Z</time>
      </trkpt>
      <trkpt lat="45.80465" lon="6.41095">
        <ele>1904</ele>
        <time>2018-10-17T12:29:35Z</time>
      </trkpt>
      <trkpt lat="45.80467" lon="6.41096">
        <ele>1904</ele>
        <time>2018-10-17T12:29:36Z</time>
      </trkpt>
      <trkpt lat="45.80467" lon="6.41096">
        <ele>1904</ele>
        <time>2018-10-17T12:29:37Z</time>
      </trkpt>
      <trkpt lat="45.80469" lon="6.41096">
        <ele>1904</ele>
        <time>2018-10-17T12:29:38Z</time>
      </trkpt>
      <trkpt lat="45.80469" lon="6.41096">
        <ele>1904</ele>
        <time>2018-10-17T12:29:39Z</time>
      </trkpt>
      <trkpt lat="45.80471" lon="6.41098">
        <ele>1904</ele>
        <time>2018-10-17T12:29:40Z</time>
      </trkpt>
      <trkpt lat="45.80471" lon="6.41098">
        <ele>1904</ele>
        <time>2018-10-17T12:29:41Z</time>
      </trkpt>
      <trkpt lat="45.80471" lon="6.41098">
        <ele>1904</ele>
        <time>2018-10-17T12:29:42Z</time>
      </trkpt>
      <trkpt lat="45.80473" lon="6.41099">
        <ele>1903</ele>
        <time>2018-10-17T12:29:43Z</time>
      </trkpt>
      <trkpt lat="45.80473" lon="6.41099">
        <ele>1903</ele>
        <time>2018-10-17T12:29:44Z</time>
      </trkpt>
      <trkpt lat="45.80475" lon="6.411">
        <ele>1903</ele>
        <time>2018-10-17T12:29:45Z</time>
      </trkpt>
      <trkpt lat="45.80475" lon="6.411">
        <ele>1903</ele>
        <time>2018-10-17T12:29:46Z</time>
      </trkpt>
      <trkpt lat="45.80475" lon="6.411">
        <ele>1903</ele>
        <time>2018-10-17T12:29:47Z</time>
      </trkpt>
      <trkpt lat="45.80478" lon="6.41101">
        <ele>1903</ele>
        <time>2018-10-17T12:29:48Z</time>
      </trkpt>
      <trkpt lat="45.80478" lon="6.41101">
        <ele>1903</ele>
        <time>2018-10-17T12:29:49Z</time>
      </trkpt>
      <trkpt lat="45.8048" lon="6.41102">
        <ele>1903</ele>
        <time>2018-10-17T12:29:50Z</time>
      </trkpt>
      <trkpt lat="45.8048" lon="6.41102">
        <ele>1903</ele>
        <time>2018-10-17T12:29:51Z</time>
      </trkpt>
      <trkpt lat="45.80481" lon="6.41104">
        <ele>1903</ele>
        <time>2018-10-17T12:29:52Z</time>
      </trkpt>
      <trkpt lat="45.80481" lon="6.41104">
        <ele>1903</ele>
        <time>2018-10-17T12:29:53Z</time>
      </trkpt>
      <trkpt lat="45.80481" lon="6.41104">
        <ele>1903</ele>
        <time>2018-10-17T12:29:54Z</time>
      </trkpt>
      <trkpt lat="45.80483" lon="6.41106">
        <ele>1903</ele>
        <time>2018-10-17T12:29:55Z</time>
      </trkpt>
      <trkpt lat="45.80483" lon="6.41106">
        <ele>1903</ele>
        <time>2018-10-17T12:29:56Z</time>
      </trkpt>
      <trkpt lat="45.80485" lon="6.41108">
        <ele>1903</ele>
        <time>2018-10-17T12:29:57Z</time>
      </trkpt>
      <trkpt lat="45.80485" lon="6.41108">
        <ele>1903</ele>
        <time>2018-10-17T12:29:58Z</time>
      </trkpt>
      <trkpt lat="45.80485" lon="6.41108">
        <ele>1903</ele>
        <time>2018-10-17T12:29:59Z</time>
      </trkpt>
      <trkpt lat="45.80487" lon="6.4111">
        <ele>1903</ele>
        <time>2018-10-17T12:30:00Z</time>
      </trkpt>
      <trkpt lat="45.80487" lon="6.4111">
        <ele>1903</ele>
        <time>2018-10-17T12:30:01Z</time>
      </trkpt>
      <trkpt lat="45.80487" lon="6.4111">
        <ele>1904</ele>
        <time>2018-10-17T12:30:02Z</time>
      </trkpt>
      <trkpt lat="45.80489" lon="6.41112">
        <ele>1904</ele>
        <time>2018-10-17T12:30:03Z</time>
      </trkpt>
      <trkpt lat="45.80489" lon="6.41112">
        <ele>1904</ele>
        <time>2018-10-17T12:30:04Z</time>
      </trkpt>
      <trkpt lat="45.80491" lon="6.41115">
        <ele>1904</ele>
        <time>2018-10-17T12:30:05Z</time>
      </trkpt>
      <trkpt lat="45.80491" lon="6.41115">
        <ele>1904</ele>
        <time>2018-10-17T12:30:06Z</time>
      </trkpt>
      <trkpt lat="45.80492" lon="6.41116">
        <ele>1904</ele>
        <time>2018-10-17T12:30:07Z</time>
      </trkpt>
      <trkpt lat="45.80492" lon="6.41116">
        <ele>1904</ele>
        <time>2018-10-17T12:30:08Z</time>
      </trkpt>
      <trkpt lat="45.80495" lon="6.41116">
        <ele>1904</ele>
        <time>2018-10-17T12:30:09Z</time>
      </trkpt>
      <trkpt lat="45.80495" lon="6.41116">
        <ele>1904</ele>
        <time>2018-10-17T12:30:10Z</time>
      </trkpt>
      <trkpt lat="45.80498" lon="6.41116">
        <ele>1904</ele>
        <time>2018-10-17T12:30:11Z</time>
      </trkpt>
      <trkpt lat="45.80498" lon="6.41116">
        <ele>1904</ele>
        <time>2018-10-17T12:30:12Z</time>
      </trkpt>
      <trkpt lat="45.805" lon="6.41116">
        <ele>1904</ele>
        <time>2018-10-17T12:30:13Z</time>
      </trkpt>
      <trkpt lat="45.805" lon="6.41116">
        <ele>1904</ele>
        <time>2018-10-17T12:30:14Z</time>
      </trkpt>
      <trkpt lat="45.80502" lon="6.41116">
        <ele>1904</ele>
        <time>2018-10-17T12:30:15Z</time>
      </trkpt>
      <trkpt lat="45.80502" lon="6.41116">
        <ele>1904</ele>
        <time>2018-10-17T12:30:16Z</time>
      </trkpt>
      <trkpt lat="45.80505" lon="6.41115">
        <ele>1904</ele>
        <time>2018-10-17T12:30:17Z</time>
      </trkpt>
      <trkpt lat="45.80505" lon="6.41115">
        <ele>1904</ele>
        <time>2018-10-17T12:30:18Z</time>
      </trkpt>
      <trkpt lat="45.80508" lon="6.41116">
        <ele>1904</ele>
        <time>2018-10-17T12:30:19Z</time>
      </trkpt>
      <trkpt lat="45.80508" lon="6.41116">
        <ele>1904</ele>
        <time>2018-10-17T12:30:20Z</time>
      </trkpt>
      <trkpt lat="45.8051" lon="6.41117">
        <ele>1904</ele>
        <time>2018-10-17T12:30:21Z</time>
      </trkpt>
      <trkpt lat="45.8051" lon="6.41117">
        <ele>1904</ele>
        <time>2018-10-17T12:30:22Z</time>
      </trkpt>
      <trkpt lat="45.80512" lon="6.41118">
        <ele>1904</ele>
        <time>2018-10-17T12:30:23Z</time>
      </trkpt>
      <trkpt lat="45.80512" lon="6.41118">
        <ele>1904</ele>
        <time>2018-10-17T12:30:24Z</time>
      </trkpt>
      <trkpt lat="45.80514" lon="6.41119">
        <ele>1904</ele>
        <time>2018-10-17T12:30:25Z</time>
      </trkpt>
      <trkpt lat="45.80514" lon="6.41119">
        <ele>1905</ele>
        <time>2018-10-17T12:30:26Z</time>
      </trkpt>
      <trkpt lat="45.80516" lon="6.4112">
        <ele>1905</ele>
        <time>2018-10-17T12:30:27Z</time>
      </trkpt>
      <trkpt lat="45.80516" lon="6.4112">
        <ele>1905</ele>
        <time>2018-10-17T12:30:28Z</time>
      </trkpt>
      <trkpt lat="45.80518" lon="6.41121">
        <ele>1905</ele>
        <time>2018-10-17T12:30:29Z</time>
      </trkpt>
      <trkpt lat="45.80518" lon="6.41121">
        <ele>1905</ele>
        <time>2018-10-17T12:30:30Z</time>
      </trkpt>
      <trkpt lat="45.8052" lon="6.41123">
        <ele>1905</ele>
        <time>2018-10-17T12:30:31Z</time>
      </trkpt>
      <trkpt lat="45.8052" lon="6.41123">
        <ele>1905</ele>
        <time>2018-10-17T12:30:32Z</time>
      </trkpt>
      <trkpt lat="45.8052" lon="6.41123">
        <ele>1905</ele>
        <time>2018-10-17T12:30:33Z</time>
      </trkpt>
      <trkpt lat="45.80521" lon="6.41126">
        <ele>1905</ele>
        <time>2018-10-17T12:30:34Z</time>
      </trkpt>
      <trkpt lat="45.80521" lon="6.41126">
        <ele>1905</ele>
        <time>2018-10-17T12:30:35Z</time>
      </trkpt>
      <trkpt lat="45.80521" lon="6.41126">
        <ele>1905</ele>
        <time>2018-10-17T12:30:36Z</time>
      </trkpt>
      <trkpt lat="45.80523" lon="6.41129">
        <ele>1905</ele>
        <time>2018-10-17T12:30:37Z</time>
      </trkpt>
      <trkpt lat="45.80523" lon="6.41129">
        <ele>1906</ele>
        <time>2018-10-17T12:30:38Z</time>
      </trkpt>
      <trkpt lat="45.80523" lon="6.41129">
        <ele>1906</ele>
        <time>2018-10-17T12:30:39Z</time>
      </trkpt>
      <trkpt lat="45.80524" lon="6.41132">
        <ele>1907</ele>
        <time>2018-10-17T12:30:40Z</time>
      </trkpt>
      <trkpt lat="45.80524" lon="6.41132">
        <ele>1907</ele>
        <time>2018-10-17T12:30:41Z</time>
      </trkpt>
      <trkpt lat="45.80524" lon="6.41132">
        <ele>1907</ele>
        <time>2018-10-17T12:30:42Z</time>
      </trkpt>
      <trkpt lat="45.80524" lon="6.41132">
        <ele>1907</ele>
        <time>2018-10-17T12:30:43Z</time>
      </trkpt>
      <trkpt lat="45.80524" lon="6.41132">
        <ele>1907</ele>
        <time>2018-10-17T12:30:44Z</time>
      </trkpt>
      <trkpt lat="45.80524" lon="6.41135">
        <ele>1908</ele>
        <time>2018-10-17T12:30:45Z</time>
      </trkpt>
      <trkpt lat="45.80524" lon="6.41135">
        <ele>1908</ele>
        <time>2018-10-17T12:30:46Z</time>
      </trkpt>
      <trkpt lat="45.80524" lon="6.41135">
        <ele>1908</ele>
        <time>2018-10-17T12:30:47Z</time>
      </trkpt>
      <trkpt lat="45.80525" lon="6.41138">
        <ele>1908</ele>
        <time>2018-10-17T12:30:48Z</time>
      </trkpt>
      <trkpt lat="45.80525" lon="6.41138">
        <ele>1908</ele>
        <time>2018-10-17T12:30:49Z</time>
      </trkpt>
      <trkpt lat="45.80526" lon="6.4114">
        <ele>1908</ele>
        <time>2018-10-17T12:30:50Z</time>
      </trkpt>
      <trkpt lat="45.80526" lon="6.4114">
        <ele>1909</ele>
        <time>2018-10-17T12:30:51Z</time>
      </trkpt>
      <trkpt lat="45.80526" lon="6.4114">
        <ele>1909</ele>
        <time>2018-10-17T12:30:52Z</time>
      </trkpt>
      <trkpt lat="45.80528" lon="6.41143">
        <ele>1910</ele>
        <time>2018-10-17T12:30:53Z</time>
      </trkpt>
      <trkpt lat="45.80528" lon="6.41143">
        <ele>1910</ele>
        <time>2018-10-17T12:30:54Z</time>
      </trkpt>
      <trkpt lat="45.80528" lon="6.41143">
        <ele>1910</ele>
        <time>2018-10-17T12:30:55Z</time>
      </trkpt>
      <trkpt lat="45.80532" lon="6.41144">
        <ele>1910</ele>
        <time>2018-10-17T12:30:56Z</time>
      </trkpt>
      <trkpt lat="45.80532" lon="6.41144">
        <ele>1911</ele>
        <time>2018-10-17T12:30:57Z</time>
      </trkpt>
      <trkpt lat="45.80534" lon="6.41144">
        <ele>1911</ele>
        <time>2018-10-17T12:30:58Z</time>
      </trkpt>
      <trkpt lat="45.80534" lon="6.41144">
        <ele>1911</ele>
        <time>2018-10-17T12:30:59Z</time>
      </trkpt>
      <trkpt lat="45.80536" lon="6.41144">
        <ele>1911</ele>
        <time>2018-10-17T12:31:00Z</time>
      </trkpt>
      <trkpt lat="45.80536" lon="6.41144">
        <ele>1911</ele>
        <time>2018-10-17T12:31:01Z</time>
      </trkpt>
      <trkpt lat="45.80536" lon="6.41144">
        <ele>1911</ele>
        <time>2018-10-17T12:31:02Z</time>
      </trkpt>
      <trkpt lat="45.80539" lon="6.41144">
        <ele>1911</ele>
        <time>2018-10-17T12:31:03Z</time>
      </trkpt>
      <trkpt lat="45.80539" lon="6.41144">
        <ele>1911</ele>
        <time>2018-10-17T12:31:04Z</time>
      </trkpt>
      <trkpt lat="45.80539" lon="6.41144">
        <ele>1912</ele>
        <time>2018-10-17T12:31:05Z</time>
      </trkpt>
      <trkpt lat="45.80541" lon="6.41145">
        <ele>1912</ele>
        <time>2018-10-17T12:31:06Z</time>
      </trkpt>
      <trkpt lat="45.80541" lon="6.41145">
        <ele>1912</ele>
        <time>2018-10-17T12:31:07Z</time>
      </trkpt>
      <trkpt lat="45.80541" lon="6.41145">
        <ele>1912</ele>
        <time>2018-10-17T12:31:08Z</time>
      </trkpt>
      <trkpt lat="45.80543" lon="6.41146">
        <ele>1912</ele>
        <time>2018-10-17T12:31:09Z</time>
      </trkpt>
      <trkpt lat="45.80543" lon="6.41146">
        <ele>1912</ele>
        <time>2018-10-17T12:31:10Z</time>
      </trkpt>
      <trkpt lat="45.80543" lon="6.41146">
        <ele>1912</ele>
        <time>2018-10-17T12:31:11Z</time>
      </trkpt>
      <trkpt lat="45.80545" lon="6.41147">
        <ele>1913</ele>
        <time>2018-10-17T12:31:12Z</time>
      </trkpt>
      <trkpt lat="45.80545" lon="6.41147">
        <ele>1913</ele>
        <time>2018-10-17T12:31:13Z</time>
      </trkpt>
      <trkpt lat="45.80545" lon="6.41147">
        <ele>1913</ele>
        <time>2018-10-17T12:31:14Z</time>
      </trkpt>
      <trkpt lat="45.80547" lon="6.41149">
        <ele>1913</ele>
        <time>2018-10-17T12:31:15Z</time>
      </trkpt>
      <trkpt lat="45.80547" lon="6.41149">
        <ele>1913</ele>
        <time>2018-10-17T12:31:16Z</time>
      </trkpt>
      <trkpt lat="45.80547" lon="6.41149">
        <ele>1914</ele>
        <time>2018-10-17T12:31:17Z</time>
      </trkpt>
      <trkpt lat="45.80548" lon="6.41152">
        <ele>1914</ele>
        <time>2018-10-17T12:31:18Z</time>
      </trkpt>
      <trkpt lat="45.80548" lon="6.41152">
        <ele>1914</ele>
        <time>2018-10-17T12:31:19Z</time>
      </trkpt>
      <trkpt lat="45.80548" lon="6.41152">
        <ele>1914</ele>
        <time>2018-10-17T12:31:20Z</time>
      </trkpt>
      <trkpt lat="45.80548" lon="6.41152">
        <ele>1914</ele>
        <time>2018-10-17T12:31:21Z</time>
      </trkpt>
      <trkpt lat="45.8055" lon="6.41153">
        <ele>1914</ele>
        <time>2018-10-17T12:31:22Z</time>
      </trkpt>
      <trkpt lat="45.8055" lon="6.41153">
        <ele>1915</ele>
        <time>2018-10-17T12:31:23Z</time>
      </trkpt>
      <trkpt lat="45.8055" lon="6.41153">
        <ele>1915</ele>
        <time>2018-10-17T12:31:24Z</time>
      </trkpt>
      <trkpt lat="45.80552" lon="6.41154">
        <ele>1915</ele>
        <time>2018-10-17T12:31:25Z</time>
      </trkpt>
      <trkpt lat="45.80552" lon="6.41154">
        <ele>1916</ele>
        <time>2018-10-17T12:31:26Z</time>
      </trkpt>
      <trkpt lat="45.80554" lon="6.41155">
        <ele>1916</ele>
        <time>2018-10-17T12:31:27Z</time>
      </trkpt>
      <trkpt lat="45.80554" lon="6.41155">
        <ele>1916</ele>
        <time>2018-10-17T12:31:28Z</time>
      </trkpt>
      <trkpt lat="45.80554" lon="6.41155">
        <ele>1916</ele>
        <time>2018-10-17T12:31:29Z</time>
      </trkpt>
      <trkpt lat="45.80556" lon="6.41157">
        <ele>1916</ele>
        <time>2018-10-17T12:31:30Z</time>
      </trkpt>
      <trkpt lat="45.80556" lon="6.41157">
        <ele>1916</ele>
        <time>2018-10-17T12:31:31Z</time>
      </trkpt>
      <trkpt lat="45.80556" lon="6.41157">
        <ele>1916</ele>
        <time>2018-10-17T12:31:32Z</time>
      </trkpt>
      <trkpt lat="45.80556" lon="6.41157">
        <ele>1916</ele>
        <time>2018-10-17T12:31:33Z</time>
      </trkpt>
      <trkpt lat="45.80556" lon="6.41157">
        <ele>1916</ele>
        <time>2018-10-17T12:31:34Z</time>
      </trkpt>
      <trkpt lat="45.80558" lon="6.41158">
        <ele>1917</ele>
        <time>2018-10-17T12:31:35Z</time>
      </trkpt>
      <trkpt lat="45.80558" lon="6.41158">
        <ele>1918</ele>
        <time>2018-10-17T12:31:36Z</time>
      </trkpt>
      <trkpt lat="45.80558" lon="6.41158">
        <ele>1918</ele>
        <time>2018-10-17T12:31:37Z</time>
      </trkpt>
      <trkpt lat="45.8056" lon="6.4116">
        <ele>1918</ele>
        <time>2018-10-17T12:31:38Z</time>
      </trkpt>
      <trkpt lat="45.8056" lon="6.4116">
        <ele>1918</ele>
        <time>2018-10-17T12:31:39Z</time>
      </trkpt>
      <trkpt lat="45.80561" lon="6.41162">
        <ele>1918</ele>
        <time>2018-10-17T12:31:40Z</time>
      </trkpt>
      <trkpt lat="45.80561" lon="6.41162">
        <ele>1918</ele>
        <time>2018-10-17T12:31:41Z</time>
      </trkpt>
      <trkpt lat="45.80562" lon="6.41164">
        <ele>1918</ele>
        <time>2018-10-17T12:31:42Z</time>
      </trkpt>
      <trkpt lat="45.80562" lon="6.41164">
        <ele>1919</ele>
        <time>2018-10-17T12:31:43Z</time>
      </trkpt>
      <trkpt lat="45.80564" lon="6.41165">
        <ele>1919</ele>
        <time>2018-10-17T12:31:44Z</time>
      </trkpt>
      <trkpt lat="45.80564" lon="6.41165">
        <ele>1919</ele>
        <time>2018-10-17T12:31:45Z</time>
      </trkpt>
      <trkpt lat="45.80564" lon="6.41165">
        <ele>1920</ele>
        <time>2018-10-17T12:31:46Z</time>
      </trkpt>
      <trkpt lat="45.80566" lon="6.41167">
        <ele>1920</ele>
        <time>2018-10-17T12:31:47Z</time>
      </trkpt>
      <trkpt lat="45.80566" lon="6.41167">
        <ele>1920</ele>
        <time>2018-10-17T12:31:48Z</time>
      </trkpt>
      <trkpt lat="45.80566" lon="6.41167">
        <ele>1921</ele>
        <time>2018-10-17T12:31:49Z</time>
      </trkpt>
      <trkpt lat="45.80568" lon="6.41167">
        <ele>1921</ele>
        <time>2018-10-17T12:31:50Z</time>
      </trkpt>
      <trkpt lat="45.80568" lon="6.41167">
        <ele>1921</ele>
        <time>2018-10-17T12:31:51Z</time>
      </trkpt>
      <trkpt lat="45.80568" lon="6.41167">
        <ele>1921</ele>
        <time>2018-10-17T12:31:52Z</time>
      </trkpt>
      <trkpt lat="45.8057" lon="6.41168">
        <ele>1921</ele>
        <time>2018-10-17T12:31:53Z</time>
      </trkpt>
      <trkpt lat="45.8057" lon="6.41168">
        <ele>1921</ele>
        <time>2018-10-17T12:31:54Z</time>
      </trkpt>
      <trkpt lat="45.8057" lon="6.41168">
        <ele>1922</ele>
        <time>2018-10-17T12:31:55Z</time>
      </trkpt>
      <trkpt lat="45.80572" lon="6.4117">
        <ele>1922</ele>
        <time>2018-10-17T12:31:56Z</time>
      </trkpt>
      <trkpt lat="45.80572" lon="6.4117">
        <ele>1922</ele>
        <time>2018-10-17T12:31:57Z</time>
      </trkpt>
      <trkpt lat="45.80572" lon="6.4117">
        <ele>1923</ele>
        <time>2018-10-17T12:31:58Z</time>
      </trkpt>
      <trkpt lat="45.80573" lon="6.41172">
        <ele>1923</ele>
        <time>2018-10-17T12:31:59Z</time>
      </trkpt>
      <trkpt lat="45.80573" lon="6.41172">
        <ele>1923</ele>
        <time>2018-10-17T12:32:00Z</time>
      </trkpt>
      <trkpt lat="45.80573" lon="6.41172">
        <ele>1923</ele>
        <time>2018-10-17T12:32:01Z</time>
      </trkpt>
      <trkpt lat="45.80576" lon="6.41172">
        <ele>1923</ele>
        <time>2018-10-17T12:32:02Z</time>
      </trkpt>
      <trkpt lat="45.80576" lon="6.41172">
        <ele>1924</ele>
        <time>2018-10-17T12:32:03Z</time>
      </trkpt>
      <trkpt lat="45.80576" lon="6.41172">
        <ele>1924</ele>
        <time>2018-10-17T12:32:04Z</time>
      </trkpt>
      <trkpt lat="45.80578" lon="6.41172">
        <ele>1924</ele>
        <time>2018-10-17T12:32:05Z</time>
      </trkpt>
      <trkpt lat="45.80578" lon="6.41172">
        <ele>1924</ele>
        <time>2018-10-17T12:32:06Z</time>
      </trkpt>
      <trkpt lat="45.80578" lon="6.41172">
        <ele>1924</ele>
        <time>2018-10-17T12:32:07Z</time>
      </trkpt>
      <trkpt lat="45.8058" lon="6.41172">
        <ele>1925</ele>
        <time>2018-10-17T12:32:08Z</time>
      </trkpt>
      <trkpt lat="45.8058" lon="6.41172">
        <ele>1925</ele>
        <time>2018-10-17T12:32:09Z</time>
      </trkpt>
      <trkpt lat="45.8058" lon="6.41172">
        <ele>1925</ele>
        <time>2018-10-17T12:32:10Z</time>
      </trkpt>
      <trkpt lat="45.80582" lon="6.41172">
        <ele>1925</ele>
        <time>2018-10-17T12:32:11Z</time>
      </trkpt>
      <trkpt lat="45.80582" lon="6.41172">
        <ele>1925</ele>
        <time>2018-10-17T12:32:12Z</time>
      </trkpt>
      <trkpt lat="45.80582" lon="6.41172">
        <ele>1926</ele>
        <time>2018-10-17T12:32:13Z</time>
      </trkpt>
      <trkpt lat="45.80584" lon="6.41171">
        <ele>1927</ele>
        <time>2018-10-17T12:32:14Z</time>
      </trkpt>
      <trkpt lat="45.80584" lon="6.41171">
        <ele>1926</ele>
        <time>2018-10-17T12:32:15Z</time>
      </trkpt>
      <trkpt lat="45.80584" lon="6.41171">
        <ele>1926</ele>
        <time>2018-10-17T12:32:16Z</time>
      </trkpt>
      <trkpt lat="45.80587" lon="6.41171">
        <ele>1926</ele>
        <time>2018-10-17T12:32:17Z</time>
      </trkpt>
      <trkpt lat="45.80587" lon="6.41171">
        <ele>1927</ele>
        <time>2018-10-17T12:32:18Z</time>
      </trkpt>
      <trkpt lat="45.80587" lon="6.41171">
        <ele>1927</ele>
        <time>2018-10-17T12:32:19Z</time>
      </trkpt>
      <trkpt lat="45.80589" lon="6.41171">
        <ele>1927</ele>
        <time>2018-10-17T12:32:20Z</time>
      </trkpt>
      <trkpt lat="45.80589" lon="6.41171">
        <ele>1927</ele>
        <time>2018-10-17T12:32:21Z</time>
      </trkpt>
      <trkpt lat="45.80589" lon="6.41171">
        <ele>1927</ele>
        <time>2018-10-17T12:32:22Z</time>
      </trkpt>
      <trkpt lat="45.80591" lon="6.41171">
        <ele>1927</ele>
        <time>2018-10-17T12:32:23Z</time>
      </trkpt>
      <trkpt lat="45.80591" lon="6.41171">
        <ele>1928</ele>
        <time>2018-10-17T12:32:24Z</time>
      </trkpt>
      <trkpt lat="45.80591" lon="6.41171">
        <ele>1928</ele>
        <time>2018-10-17T12:32:25Z</time>
      </trkpt>
      <trkpt lat="45.80593" lon="6.4117">
        <ele>1928</ele>
        <time>2018-10-17T12:32:26Z</time>
      </trkpt>
      <trkpt lat="45.80593" lon="6.4117">
        <ele>1928</ele>
        <time>2018-10-17T12:32:27Z</time>
      </trkpt>
      <trkpt lat="45.80593" lon="6.4117">
        <ele>1928</ele>
        <time>2018-10-17T12:32:28Z</time>
      </trkpt>
      <trkpt lat="45.80595" lon="6.4117">
        <ele>1929</ele>
        <time>2018-10-17T12:32:29Z</time>
      </trkpt>
      <trkpt lat="45.80595" lon="6.4117">
        <ele>1929</ele>
        <time>2018-10-17T12:32:30Z</time>
      </trkpt>
      <trkpt lat="45.80595" lon="6.4117">
        <ele>1929</ele>
        <time>2018-10-17T12:32:31Z</time>
      </trkpt>
      <trkpt lat="45.80598" lon="6.41169">
        <ele>1929</ele>
        <time>2018-10-17T12:32:32Z</time>
      </trkpt>
      <trkpt lat="45.80598" lon="6.41169">
        <ele>1930</ele>
        <time>2018-10-17T12:32:33Z</time>
      </trkpt>
      <trkpt lat="45.80598" lon="6.41169">
        <ele>1930</ele>
        <time>2018-10-17T12:32:34Z</time>
      </trkpt>
      <trkpt lat="45.80599" lon="6.41168">
        <ele>1930</ele>
        <time>2018-10-17T12:32:35Z</time>
      </trkpt>
      <trkpt lat="45.80599" lon="6.41168">
        <ele>1931</ele>
        <time>2018-10-17T12:32:36Z</time>
      </trkpt>
      <trkpt lat="45.80599" lon="6.41168">
        <ele>1931</ele>
        <time>2018-10-17T12:32:37Z</time>
      </trkpt>
      <trkpt lat="45.80601" lon="6.41167">
        <ele>1931</ele>
        <time>2018-10-17T12:32:38Z</time>
      </trkpt>
      <trkpt lat="45.80601" lon="6.41167">
        <ele>1932</ele>
        <time>2018-10-17T12:32:39Z</time>
      </trkpt>
      <trkpt lat="45.80601" lon="6.41167">
        <ele>1932</ele>
        <time>2018-10-17T12:32:40Z</time>
      </trkpt>
      <trkpt lat="45.80603" lon="6.41167">
        <ele>1932</ele>
        <time>2018-10-17T12:32:41Z</time>
      </trkpt>
      <trkpt lat="45.80603" lon="6.41167">
        <ele>1932</ele>
        <time>2018-10-17T12:32:42Z</time>
      </trkpt>
      <trkpt lat="45.80603" lon="6.41167">
        <ele>1933</ele>
        <time>2018-10-17T12:32:43Z</time>
      </trkpt>
      <trkpt lat="45.80605" lon="6.41166">
        <ele>1933</ele>
        <time>2018-10-17T12:32:44Z</time>
      </trkpt>
      <trkpt lat="45.80605" lon="6.41166">
        <ele>1933</ele>
        <time>2018-10-17T12:32:45Z</time>
      </trkpt>
      <trkpt lat="45.80607" lon="6.41166">
        <ele>1933</ele>
        <time>2018-10-17T12:32:46Z</time>
      </trkpt>
      <trkpt lat="45.80607" lon="6.41166">
        <ele>1933</ele>
        <time>2018-10-17T12:32:47Z</time>
      </trkpt>
      <trkpt lat="45.80609" lon="6.41166">
        <ele>1934</ele>
        <time>2018-10-17T12:32:48Z</time>
      </trkpt>
      <trkpt lat="45.80609" lon="6.41166">
        <ele>1934</ele>
        <time>2018-10-17T12:32:49Z</time>
      </trkpt>
      <trkpt lat="45.80611" lon="6.41166">
        <ele>1934</ele>
        <time>2018-10-17T12:32:50Z</time>
      </trkpt>
      <trkpt lat="45.80611" lon="6.41166">
        <ele>1934</ele>
        <time>2018-10-17T12:32:51Z</time>
      </trkpt>
      <trkpt lat="45.80614" lon="6.41166">
        <ele>1934</ele>
        <time>2018-10-17T12:32:52Z</time>
      </trkpt>
      <trkpt lat="45.80614" lon="6.41166">
        <ele>1934</ele>
        <time>2018-10-17T12:32:53Z</time>
      </trkpt>
      <trkpt lat="45.80616" lon="6.41165">
        <ele>1934</ele>
        <time>2018-10-17T12:32:54Z</time>
      </trkpt>
      <trkpt lat="45.80616" lon="6.41165">
        <ele>1934</ele>
        <time>2018-10-17T12:32:55Z</time>
      </trkpt>
      <trkpt lat="45.80619" lon="6.41165">
        <ele>1934</ele>
        <time>2018-10-17T12:32:56Z</time>
      </trkpt>
      <trkpt lat="45.80619" lon="6.41165">
        <ele>1935</ele>
        <time>2018-10-17T12:32:57Z</time>
      </trkpt>
      <trkpt lat="45.80621" lon="6.41164">
        <ele>1935</ele>
        <time>2018-10-17T12:32:58Z</time>
      </trkpt>
      <trkpt lat="45.80621" lon="6.41164">
        <ele>1935</ele>
        <time>2018-10-17T12:32:59Z</time>
      </trkpt>
      <trkpt lat="45.80623" lon="6.41163">
        <ele>1935</ele>
        <time>2018-10-17T12:33:00Z</time>
      </trkpt>
      <trkpt lat="45.80623" lon="6.41163">
        <ele>1935</ele>
        <time>2018-10-17T12:33:01Z</time>
      </trkpt>
      <trkpt lat="45.80626" lon="6.41163">
        <ele>1935</ele>
        <time>2018-10-17T12:33:02Z</time>
      </trkpt>
      <trkpt lat="45.80626" lon="6.41163">
        <ele>1935</ele>
        <time>2018-10-17T12:33:03Z</time>
      </trkpt>
      <trkpt lat="45.80628" lon="6.41162">
        <ele>1936</ele>
        <time>2018-10-17T12:33:04Z</time>
      </trkpt>
      <trkpt lat="45.80628" lon="6.41162">
        <ele>1936</ele>
        <time>2018-10-17T12:33:05Z</time>
      </trkpt>
      <trkpt lat="45.8063" lon="6.4116">
        <ele>1936</ele>
        <time>2018-10-17T12:33:06Z</time>
      </trkpt>
      <trkpt lat="45.8063" lon="6.4116">
        <ele>1936</ele>
        <time>2018-10-17T12:33:07Z</time>
      </trkpt>
      <trkpt lat="45.80632" lon="6.4116">
        <ele>1936</ele>
        <time>2018-10-17T12:33:08Z</time>
      </trkpt>
      <trkpt lat="45.80632" lon="6.4116">
        <ele>1937</ele>
        <time>2018-10-17T12:33:09Z</time>
      </trkpt>
      <trkpt lat="45.80635" lon="6.41159">
        <ele>1937</ele>
        <time>2018-10-17T12:33:10Z</time>
      </trkpt>
      <trkpt lat="45.80635" lon="6.41159">
        <ele>1937</ele>
        <time>2018-10-17T12:33:11Z</time>
      </trkpt>
      <trkpt lat="45.80636" lon="6.41157">
        <ele>1938</ele>
        <time>2018-10-17T12:33:12Z</time>
      </trkpt>
      <trkpt lat="45.80636" lon="6.41157">
        <ele>1938</ele>
        <time>2018-10-17T12:33:13Z</time>
      </trkpt>
      <trkpt lat="45.80637" lon="6.41154">
        <ele>1938</ele>
        <time>2018-10-17T12:33:14Z</time>
      </trkpt>
      <trkpt lat="45.80637" lon="6.41154">
        <ele>1938</ele>
        <time>2018-10-17T12:33:15Z</time>
      </trkpt>
      <trkpt lat="45.80639" lon="6.41152">
        <ele>1937</ele>
        <time>2018-10-17T12:33:16Z</time>
      </trkpt>
      <trkpt lat="45.80639" lon="6.41152">
        <ele>1937</ele>
        <time>2018-10-17T12:33:17Z</time>
      </trkpt>
      <trkpt lat="45.8064" lon="6.41149">
        <ele>1938</ele>
        <time>2018-10-17T12:33:18Z</time>
      </trkpt>
      <trkpt lat="45.8064" lon="6.41149">
        <ele>1938</ele>
        <time>2018-10-17T12:33:19Z</time>
      </trkpt>
      <trkpt lat="45.80642" lon="6.41147">
        <ele>1939</ele>
        <time>2018-10-17T12:33:20Z</time>
      </trkpt>
      <trkpt lat="45.80642" lon="6.41147">
        <ele>1939</ele>
        <time>2018-10-17T12:33:21Z</time>
      </trkpt>
      <trkpt lat="45.80643" lon="6.41145">
        <ele>1939</ele>
        <time>2018-10-17T12:33:22Z</time>
      </trkpt>
      <trkpt lat="45.80643" lon="6.41145">
        <ele>1939</ele>
        <time>2018-10-17T12:33:23Z</time>
      </trkpt>
      <trkpt lat="45.80643" lon="6.41145">
        <ele>1940</ele>
        <time>2018-10-17T12:33:24Z</time>
      </trkpt>
      <trkpt lat="45.80645" lon="6.41142">
        <ele>1940</ele>
        <time>2018-10-17T12:33:25Z</time>
      </trkpt>
      <trkpt lat="45.80645" lon="6.41142">
        <ele>1940</ele>
        <time>2018-10-17T12:33:26Z</time>
      </trkpt>
      <trkpt lat="45.80645" lon="6.41142">
        <ele>1940</ele>
        <time>2018-10-17T12:33:27Z</time>
      </trkpt>
      <trkpt lat="45.80646" lon="6.41139">
        <ele>1940</ele>
        <time>2018-10-17T12:33:28Z</time>
      </trkpt>
      <trkpt lat="45.80646" lon="6.41139">
        <ele>1941</ele>
        <time>2018-10-17T12:33:29Z</time>
      </trkpt>
      <trkpt lat="45.80646" lon="6.41139">
        <ele>1941</ele>
        <time>2018-10-17T12:33:30Z</time>
      </trkpt>
      <trkpt lat="45.80648" lon="6.41136">
        <ele>1941</ele>
        <time>2018-10-17T12:33:31Z</time>
      </trkpt>
      <trkpt lat="45.80648" lon="6.41136">
        <ele>1942</ele>
        <time>2018-10-17T12:33:32Z</time>
      </trkpt>
      <trkpt lat="45.80648" lon="6.41136">
        <ele>1942</ele>
        <time>2018-10-17T12:33:33Z</time>
      </trkpt>
      <trkpt lat="45.80648" lon="6.41133">
        <ele>1942</ele>
        <time>2018-10-17T12:33:34Z</time>
      </trkpt>
      <trkpt lat="45.80648" lon="6.41133">
        <ele>1943</ele>
        <time>2018-10-17T12:33:35Z</time>
      </trkpt>
      <trkpt lat="45.80648" lon="6.41133">
        <ele>1943</ele>
        <time>2018-10-17T12:33:36Z</time>
      </trkpt>
      <trkpt lat="45.80649" lon="6.4113">
        <ele>1943</ele>
        <time>2018-10-17T12:33:37Z</time>
      </trkpt>
      <trkpt lat="45.80649" lon="6.4113">
        <ele>1943</ele>
        <time>2018-10-17T12:33:38Z</time>
      </trkpt>
      <trkpt lat="45.80649" lon="6.41127">
        <ele>1943</ele>
        <time>2018-10-17T12:33:39Z</time>
      </trkpt>
      <trkpt lat="45.80649" lon="6.41127">
        <ele>1944</ele>
        <time>2018-10-17T12:33:40Z</time>
      </trkpt>
      <trkpt lat="45.8065" lon="6.41125">
        <ele>1944</ele>
        <time>2018-10-17T12:33:41Z</time>
      </trkpt>
      <trkpt lat="45.8065" lon="6.41125">
        <ele>1945</ele>
        <time>2018-10-17T12:33:42Z</time>
      </trkpt>
      <trkpt lat="45.80651" lon="6.41122">
        <ele>1945</ele>
        <time>2018-10-17T12:33:43Z</time>
      </trkpt>
      <trkpt lat="45.80651" lon="6.41122">
        <ele>1945</ele>
        <time>2018-10-17T12:33:44Z</time>
      </trkpt>
      <trkpt lat="45.80651" lon="6.4112">
        <ele>1945</ele>
        <time>2018-10-17T12:33:45Z</time>
      </trkpt>
      <trkpt lat="45.80651" lon="6.4112">
        <ele>1945</ele>
        <time>2018-10-17T12:33:46Z</time>
      </trkpt>
      <trkpt lat="45.80652" lon="6.41117">
        <ele>1945</ele>
        <time>2018-10-17T12:33:47Z</time>
      </trkpt>
      <trkpt lat="45.80652" lon="6.41117">
        <ele>1945</ele>
        <time>2018-10-17T12:33:48Z</time>
      </trkpt>
      <trkpt lat="45.80652" lon="6.41117">
        <ele>1946</ele>
        <time>2018-10-17T12:33:49Z</time>
      </trkpt>
      <trkpt lat="45.80653" lon="6.41114">
        <ele>1946</ele>
        <time>2018-10-17T12:33:50Z</time>
      </trkpt>
      <trkpt lat="45.80653" lon="6.41114">
        <ele>1946</ele>
        <time>2018-10-17T12:33:51Z</time>
      </trkpt>
      <trkpt lat="45.80653" lon="6.41112">
        <ele>1947</ele>
        <time>2018-10-17T12:33:52Z</time>
      </trkpt>
      <trkpt lat="45.80653" lon="6.41112">
        <ele>1947</ele>
        <time>2018-10-17T12:33:53Z</time>
      </trkpt>
      <trkpt lat="45.80653" lon="6.41112">
        <ele>1947</ele>
        <time>2018-10-17T12:33:54Z</time>
      </trkpt>
      <trkpt lat="45.80655" lon="6.41108">
        <ele>1947</ele>
        <time>2018-10-17T12:33:55Z</time>
      </trkpt>
      <trkpt lat="45.80655" lon="6.41108">
        <ele>1948</ele>
        <time>2018-10-17T12:33:56Z</time>
      </trkpt>
      <trkpt lat="45.80655" lon="6.41108">
        <ele>1948</ele>
        <time>2018-10-17T12:33:57Z</time>
      </trkpt>
      <trkpt lat="45.80657" lon="6.41108">
        <ele>1948</ele>
        <time>2018-10-17T12:33:58Z</time>
      </trkpt>
      <trkpt lat="45.80657" lon="6.41108">
        <ele>1948</ele>
        <time>2018-10-17T12:33:59Z</time>
      </trkpt>
      <trkpt lat="45.80657" lon="6.41108">
        <ele>1948</ele>
        <time>2018-10-17T12:34:00Z</time>
      </trkpt>
      <trkpt lat="45.80657" lon="6.41108">
        <ele>1948</ele>
        <time>2018-10-17T12:34:01Z</time>
      </trkpt>
      <trkpt lat="45.80657" lon="6.41108">
        <ele>1948</ele>
        <time>2018-10-17T12:34:02Z</time>
      </trkpt>
      <trkpt lat="45.80657" lon="6.41108">
        <ele>1949</ele>
        <time>2018-10-17T12:34:03Z</time>
      </trkpt>
      <trkpt lat="45.80657" lon="6.41108">
        <ele>1949</ele>
        <time>2018-10-17T12:34:04Z</time>
      </trkpt>
      <trkpt lat="45.80657" lon="6.41108">
        <ele>1949</ele>
        <time>2018-10-17T12:34:05Z</time>
      </trkpt>
      <trkpt lat="45.80657" lon="6.41108">
        <ele>1949</ele>
        <time>2018-10-17T12:34:06Z</time>
      </trkpt>
      <trkpt lat="45.80657" lon="6.41108">
        <ele>1949</ele>
        <time>2018-10-17T12:34:07Z</time>
      </trkpt>
      <trkpt lat="45.80657" lon="6.41108">
        <ele>1949</ele>
        <time>2018-10-17T12:34:08Z</time>
      </trkpt>
      <trkpt lat="45.80657" lon="6.41108">
        <ele>1949</ele>
        <time>2018-10-17T12:34:09Z</time>
      </trkpt>
      <trkpt lat="45.80657" lon="6.41108">
        <ele>1949</ele>
        <time>2018-10-17T12:34:10Z</time>
      </trkpt>
      <trkpt lat="45.80657" lon="6.41108">
        <ele>1949</ele>
        <time>2018-10-17T12:34:11Z</time>
      </trkpt>
      <trkpt lat="45.80657" lon="6.41108">
        <ele>1949</ele>
        <time>2018-10-17T12:34:12Z</time>
      </trkpt>
      <trkpt lat="45.80657" lon="6.41108">
        <ele>1949</ele>
        <time>2018-10-17T12:34:13Z</time>
      </trkpt>
      <trkpt lat="45.80657" lon="6.41108">
        <ele>1949</ele>
        <time>2018-10-17T12:34:14Z</time>
      </trkpt>
      <trkpt lat="45.80657" lon="6.41108">
        <ele>1949</ele>
        <time>2018-10-17T12:34:15Z</time>
      </trkpt>
      <trkpt lat="45.80657" lon="6.41108">
        <ele>1949</ele>
        <time>2018-10-17T12:34:16Z</time>
      </trkpt>
      <trkpt lat="45.80657" lon="6.41108">
        <ele>1949</ele>
        <time>2018-10-17T12:34:17Z</time>
      </trkpt>
      <trkpt lat="45.80658" lon="6.41111">
        <ele>1950</ele>
        <time>2018-10-17T12:34:18Z</time>
      </trkpt>
      <trkpt lat="45.80658" lon="6.41111">
        <ele>1950</ele>
        <time>2018-10-17T12:34:19Z</time>
      </trkpt>
      <trkpt lat="45.80658" lon="6.41111">
        <ele>1950</ele>
        <time>2018-10-17T12:34:20Z</time>
      </trkpt>
      <trkpt lat="45.80658" lon="6.41111">
        <ele>1950</ele>
        <time>2018-10-17T12:34:21Z</time>
      </trkpt>
      <trkpt lat="45.80658" lon="6.41111">
        <ele>1950</ele>
        <time>2018-10-17T12:34:22Z</time>
      </trkpt>
      <trkpt lat="45.80658" lon="6.41111">
        <ele>1949</ele>
        <time>2018-10-17T12:34:23Z</time>
      </trkpt>
      <trkpt lat="45.80658" lon="6.41111">
        <ele>1949</ele>
        <time>2018-10-17T12:34:24Z</time>
      </trkpt>
      <trkpt lat="45.80658" lon="6.41111">
        <ele>1949</ele>
        <time>2018-10-17T12:34:25Z</time>
      </trkpt>
      <trkpt lat="45.80658" lon="6.41111">
        <ele>1949</ele>
        <time>2018-10-17T12:34:26Z</time>
      </trkpt>
      <trkpt lat="45.80658" lon="6.41111">
        <ele>1949</ele>
        <time>2018-10-17T12:34:27Z</time>
      </trkpt>
      <trkpt lat="45.80658" lon="6.41111">
        <ele>1949</ele>
        <time>2018-10-17T12:34:28Z</time>
      </trkpt>
      <trkpt lat="45.80658" lon="6.41111">
        <ele>1949</ele>
        <time>2018-10-17T12:34:29Z</time>
      </trkpt>
      <trkpt lat="45.80658" lon="6.41111">
        <ele>1949</ele>
        <time>2018-10-17T12:34:30Z</time>
      </trkpt>
      <trkpt lat="45.80658" lon="6.41111">
        <ele>1950</ele>
        <time>2018-10-17T12:34:31Z</time>
      </trkpt>
      <trkpt lat="45.80658" lon="6.41111">
        <ele>1950</ele>
        <time>2018-10-17T12:34:32Z</time>
      </trkpt>
      <trkpt lat="45.80658" lon="6.41111">
        <ele>1950</ele>
        <time>2018-10-17T12:34:33Z</time>
      </trkpt>
      <trkpt lat="45.80659" lon="6.41114">
        <ele>1950</ele>
        <time>2018-10-17T12:34:34Z</time>
      </trkpt>
      <trkpt lat="45.80659" lon="6.41114">
        <ele>1951</ele>
        <time>2018-10-17T12:34:35Z</time>
      </trkpt>
      <trkpt lat="45.80659" lon="6.41114">
        <ele>1951</ele>
        <time>2018-10-17T12:34:36Z</time>
      </trkpt>
      <trkpt lat="45.8066" lon="6.41116">
        <ele>1951</ele>
        <time>2018-10-17T12:34:37Z</time>
      </trkpt>
      <trkpt lat="45.8066" lon="6.41116">
        <ele>1951</ele>
        <time>2018-10-17T12:34:38Z</time>
      </trkpt>
      <trkpt lat="45.8066" lon="6.41116">
        <ele>1951</ele>
        <time>2018-10-17T12:34:39Z</time>
      </trkpt>
      <trkpt lat="45.8066" lon="6.41116">
        <ele>1951</ele>
        <time>2018-10-17T12:34:40Z</time>
      </trkpt>
      <trkpt lat="45.8066" lon="6.41116">
        <ele>1951</ele>
        <time>2018-10-17T12:34:41Z</time>
      </trkpt>
      <trkpt lat="45.8066" lon="6.41116">
        <ele>1951</ele>
        <time>2018-10-17T12:34:42Z</time>
      </trkpt>
      <trkpt lat="45.80661" lon="6.41118">
        <ele>1951</ele>
        <time>2018-10-17T12:34:43Z</time>
      </trkpt>
      <trkpt lat="45.80661" lon="6.41118">
        <ele>1951</ele>
        <time>2018-10-17T12:34:44Z</time>
      </trkpt>
      <trkpt lat="45.80661" lon="6.41118">
        <ele>1952</ele>
        <time>2018-10-17T12:34:45Z</time>
      </trkpt>
      <trkpt lat="45.80661" lon="6.41118">
        <ele>1952</ele>
        <time>2018-10-17T12:34:46Z</time>
      </trkpt>
      <trkpt lat="45.80661" lon="6.41118">
        <ele>1952</ele>
        <time>2018-10-17T12:34:47Z</time>
      </trkpt>
      <trkpt lat="45.80661" lon="6.41118">
        <ele>1952</ele>
        <time>2018-10-17T12:34:48Z</time>
      </trkpt>
      <trkpt lat="45.80661" lon="6.41118">
        <ele>1953</ele>
        <time>2018-10-17T12:34:49Z</time>
      </trkpt>
      <trkpt lat="45.80661" lon="6.41118">
        <ele>1953</ele>
        <time>2018-10-17T12:34:50Z</time>
      </trkpt>
      <trkpt lat="45.80661" lon="6.41118">
        <ele>1953</ele>
        <time>2018-10-17T12:34:51Z</time>
      </trkpt>
      <trkpt lat="45.80661" lon="6.41118">
        <ele>1953</ele>
        <time>2018-10-17T12:34:52Z</time>
      </trkpt>
      <trkpt lat="45.80661" lon="6.41118">
        <ele>1953</ele>
        <time>2018-10-17T12:34:53Z</time>
      </trkpt>
      <trkpt lat="45.80663" lon="6.41119">
        <ele>1953</ele>
        <time>2018-10-17T12:34:54Z</time>
      </trkpt>
      <trkpt lat="45.80663" lon="6.41119">
        <ele>1953</ele>
        <time>2018-10-17T12:34:55Z</time>
      </trkpt>
      <trkpt lat="45.80663" lon="6.41119">
        <ele>1953</ele>
        <time>2018-10-17T12:34:56Z</time>
      </trkpt>
      <trkpt lat="45.80664" lon="6.41122">
        <ele>1953</ele>
        <time>2018-10-17T12:34:57Z</time>
      </trkpt>
      <trkpt lat="45.80664" lon="6.41122">
        <ele>1954</ele>
        <time>2018-10-17T12:34:58Z</time>
      </trkpt>
      <trkpt lat="45.80664" lon="6.41122">
        <ele>1954</ele>
        <time>2018-10-17T12:34:59Z</time>
      </trkpt>
      <trkpt lat="45.80664" lon="6.41122">
        <ele>1954</ele>
        <time>2018-10-17T12:35:00Z</time>
      </trkpt>
      <trkpt lat="45.80664" lon="6.41122">
        <ele>1954</ele>
        <time>2018-10-17T12:35:01Z</time>
      </trkpt>
      <trkpt lat="45.80666" lon="6.41121">
        <ele>1954</ele>
        <time>2018-10-17T12:35:02Z</time>
      </trkpt>
      <trkpt lat="45.80666" lon="6.41121">
        <ele>1953</ele>
        <time>2018-10-17T12:35:03Z</time>
      </trkpt>
      <trkpt lat="45.80666" lon="6.41121">
        <ele>1955</ele>
        <time>2018-10-17T12:35:04Z</time>
      </trkpt>
      <trkpt lat="45.80666" lon="6.41121">
        <ele>1956</ele>
        <time>2018-10-17T12:35:05Z</time>
      </trkpt>
      <trkpt lat="45.80668" lon="6.41122">
        <ele>1957</ele>
        <time>2018-10-17T12:35:06Z</time>
      </trkpt>
      <trkpt lat="45.80668" lon="6.41122">
        <ele>1957</ele>
        <time>2018-10-17T12:35:07Z</time>
      </trkpt>
      <trkpt lat="45.80668" lon="6.41122">
        <ele>1957</ele>
        <time>2018-10-17T12:35:08Z</time>
      </trkpt>
      <trkpt lat="45.80668" lon="6.41122">
        <ele>1957</ele>
        <time>2018-10-17T12:35:09Z</time>
      </trkpt>
      <trkpt lat="45.80668" lon="6.41122">
        <ele>1957</ele>
        <time>2018-10-17T12:35:10Z</time>
      </trkpt>
      <trkpt lat="45.80668" lon="6.41122">
        <ele>1957</ele>
        <time>2018-10-17T12:35:11Z</time>
      </trkpt>
      <trkpt lat="45.80668" lon="6.41122">
        <ele>1957</ele>
        <time>2018-10-17T12:35:12Z</time>
      </trkpt>
      <trkpt lat="45.80668" lon="6.41122">
        <ele>1957</ele>
        <time>2018-10-17T12:35:13Z</time>
      </trkpt>
      <trkpt lat="45.80668" lon="6.41122">
        <ele>1957</ele>
        <time>2018-10-17T12:35:14Z</time>
      </trkpt>
      <trkpt lat="45.80668" lon="6.41122">
        <ele>1956</ele>
        <time>2018-10-17T12:35:15Z</time>
      </trkpt>
      <trkpt lat="45.80668" lon="6.41122">
        <ele>1956</ele>
        <time>2018-10-17T12:35:16Z</time>
      </trkpt>
      <trkpt lat="45.80668" lon="6.41122">
        <ele>1958</ele>
        <time>2018-10-17T12:35:17Z</time>
      </trkpt>
      <trkpt lat="45.80668" lon="6.41122">
        <ele>1958</ele>
        <time>2018-10-17T12:35:18Z</time>
      </trkpt>
      <trkpt lat="45.80668" lon="6.41122">
        <ele>1957</ele>
        <time>2018-10-17T12:35:19Z</time>
      </trkpt>
      <trkpt lat="45.80668" lon="6.41122">
        <ele>1957</ele>
        <time>2018-10-17T12:35:20Z</time>
      </trkpt>
      <trkpt lat="45.80668" lon="6.41122">
        <ele>1957</ele>
        <time>2018-10-17T12:35:21Z</time>
      </trkpt>
      <trkpt lat="45.80668" lon="6.41122">
        <ele>1959</ele>
        <time>2018-10-17T12:35:22Z</time>
      </trkpt>
      <trkpt lat="45.80668" lon="6.41122">
        <ele>1958</ele>
        <time>2018-10-17T12:35:23Z</time>
      </trkpt>
      <trkpt lat="45.80668" lon="6.41122">
        <ele>1958</ele>
        <time>2018-10-17T12:35:24Z</time>
      </trkpt>
      <trkpt lat="45.80668" lon="6.41122">
        <ele>1958</ele>
        <time>2018-10-17T12:35:25Z</time>
      </trkpt>
      <trkpt lat="45.80668" lon="6.41122">
        <ele>1958</ele>
        <time>2018-10-17T12:35:26Z</time>
      </trkpt>
      <trkpt lat="45.80669" lon="6.4112">
        <ele>1958</ele>
        <time>2018-10-17T12:35:27Z</time>
      </trkpt>
      <trkpt lat="45.80669" lon="6.4112">
        <ele>1958</ele>
        <time>2018-10-17T12:35:28Z</time>
      </trkpt>
      <trkpt lat="45.80669" lon="6.4112">
        <ele>1957</ele>
        <time>2018-10-17T12:35:29Z</time>
      </trkpt>
      <trkpt lat="45.80669" lon="6.4112">
        <ele>1957</ele>
        <time>2018-10-17T12:35:30Z</time>
      </trkpt>
      <trkpt lat="45.80669" lon="6.4112">
        <ele>1957</ele>
        <time>2018-10-17T12:35:31Z</time>
      </trkpt>
      <trkpt lat="45.80669" lon="6.4112">
        <ele>1956</ele>
        <time>2018-10-17T12:35:32Z</time>
      </trkpt>
      <trkpt lat="45.80669" lon="6.4112">
        <ele>1956</ele>
        <time>2018-10-17T12:35:33Z</time>
      </trkpt>
      <trkpt lat="45.80669" lon="6.4112">
        <ele>1956</ele>
        <time>2018-10-17T12:35:34Z</time>
      </trkpt>
      <trkpt lat="45.80669" lon="6.4112">
        <ele>1956</ele>
        <time>2018-10-17T12:35:35Z</time>
      </trkpt>
      <trkpt lat="45.80669" lon="6.4112">
        <ele>1957</ele>
        <time>2018-10-17T12:35:36Z</time>
      </trkpt>
      <trkpt lat="45.80669" lon="6.4112">
        <ele>1957</ele>
        <time>2018-10-17T12:35:37Z</time>
      </trkpt>
      <trkpt lat="45.80669" lon="6.4112">
        <ele>1958</ele>
        <time>2018-10-17T12:35:38Z</time>
      </trkpt>
      <trkpt lat="45.80668" lon="6.41118">
        <ele>1958</ele>
        <time>2018-10-17T12:35:39Z</time>
      </trkpt>
      <trkpt lat="45.80668" lon="6.41118">
        <ele>1958</ele>
        <time>2018-10-17T12:35:40Z</time>
      </trkpt>
      <trkpt lat="45.80668" lon="6.41118">
        <ele>1957</ele>
        <time>2018-10-17T12:35:41Z</time>
      </trkpt>
      <trkpt lat="45.80668" lon="6.41118">
        <ele>1957</ele>
        <time>2018-10-17T12:35:42Z</time>
      </trkpt>
      <trkpt lat="45.80668" lon="6.41118">
        <ele>1957</ele>
        <time>2018-10-17T12:35:43Z</time>
      </trkpt>
      <trkpt lat="45.80668" lon="6.41118">
        <ele>1957</ele>
        <time>2018-10-17T12:35:44Z</time>
      </trkpt>
      <trkpt lat="45.80668" lon="6.41118">
        <ele>1957</ele>
        <time>2018-10-17T12:35:45Z</time>
      </trkpt>
      <trkpt lat="45.80668" lon="6.41118">
        <ele>1957</ele>
        <time>2018-10-17T12:35:46Z</time>
      </trkpt>
      <trkpt lat="45.80668" lon="6.41118">
        <ele>1957</ele>
        <time>2018-10-17T12:35:47Z</time>
      </trkpt>
      <trkpt lat="45.80668" lon="6.41118">
        <ele>1957</ele>
        <time>2018-10-17T12:35:48Z</time>
      </trkpt>
      <trkpt lat="45.80668" lon="6.41118">
        <ele>1957</ele>
        <time>2018-10-17T12:35:49Z</time>
      </trkpt>
      <trkpt lat="45.80668" lon="6.41118">
        <ele>1957</ele>
        <time>2018-10-17T12:35:50Z</time>
      </trkpt>
      <trkpt lat="45.80668" lon="6.41118">
        <ele>1957</ele>
        <time>2018-10-17T12:35:51Z</time>
      </trkpt>
      <trkpt lat="45.80668" lon="6.41118">
        <ele>1957</ele>
        <time>2018-10-17T12:35:52Z</time>
      </trkpt>
      <trkpt lat="45.80668" lon="6.41118">
        <ele>1957</ele>
        <time>2018-10-17T12:35:53Z</time>
      </trkpt>
      <trkpt lat="45.80668" lon="6.41118">
        <ele>1957</ele>
        <time>2018-10-17T12:35:54Z</time>
      </trkpt>
      <trkpt lat="45.80667" lon="6.41115">
        <ele>1957</ele>
        <time>2018-10-17T12:35:55Z</time>
      </trkpt>
      <trkpt lat="45.80667" lon="6.41115">
        <ele>1957</ele>
        <time>2018-10-17T12:35:56Z</time>
      </trkpt>
      <trkpt lat="45.80667" lon="6.41115">
        <ele>1957</ele>
        <time>2018-10-17T12:35:57Z</time>
      </trkpt>
      <trkpt lat="45.80667" lon="6.41115">
        <ele>1957</ele>
        <time>2018-10-17T12:35:58Z</time>
      </trkpt>
      <trkpt lat="45.80669" lon="6.41113">
        <ele>1957</ele>
        <time>2018-10-17T12:35:59Z</time>
      </trkpt>
      <trkpt lat="45.80669" lon="6.41113">
        <ele>1957</ele>
        <time>2018-10-17T12:36:00Z</time>
      </trkpt>
      <trkpt lat="45.80669" lon="6.41113">
        <ele>1957</ele>
        <time>2018-10-17T12:36:01Z</time>
      </trkpt>
      <trkpt lat="45.80669" lon="6.41113">
        <ele>1957</ele>
        <time>2018-10-17T12:36:02Z</time>
      </trkpt>
      <trkpt lat="45.80671" lon="6.41113">
        <ele>1956</ele>
        <time>2018-10-17T12:36:03Z</time>
      </trkpt>
      <trkpt lat="45.80671" lon="6.41113">
        <ele>1956</ele>
        <time>2018-10-17T12:36:04Z</time>
      </trkpt>
      <trkpt lat="45.80673" lon="6.41112">
        <ele>1956</ele>
        <time>2018-10-17T12:36:05Z</time>
      </trkpt>
      <trkpt lat="45.80673" lon="6.41112">
        <ele>1955</ele>
        <time>2018-10-17T12:36:06Z</time>
      </trkpt>
      <trkpt lat="45.80674" lon="6.41112">
        <ele>1954</ele>
        <time>2018-10-17T12:36:07Z</time>
      </trkpt>
      <trkpt lat="45.80674" lon="6.41112">
        <ele>1954</ele>
        <time>2018-10-17T12:36:08Z</time>
      </trkpt>
      <trkpt lat="45.80677" lon="6.41113">
        <ele>1954</ele>
        <time>2018-10-17T12:36:09Z</time>
      </trkpt>
      <trkpt lat="45.80677" lon="6.41113">
        <ele>1954</ele>
        <time>2018-10-17T12:36:10Z</time>
      </trkpt>
      <trkpt lat="45.80679" lon="6.41114">
        <ele>1954</ele>
        <time>2018-10-17T12:36:11Z</time>
      </trkpt>
      <trkpt lat="45.80679" lon="6.41114">
        <ele>1953</ele>
        <time>2018-10-17T12:36:12Z</time>
      </trkpt>
      <trkpt lat="45.80681" lon="6.41116">
        <ele>1953</ele>
        <time>2018-10-17T12:36:13Z</time>
      </trkpt>
      <trkpt lat="45.80681" lon="6.41116">
        <ele>1953</ele>
        <time>2018-10-17T12:36:14Z</time>
      </trkpt>
      <trkpt lat="45.80681" lon="6.41116">
        <ele>1952</ele>
        <time>2018-10-17T12:36:15Z</time>
      </trkpt>
      <trkpt lat="45.80683" lon="6.41117">
        <ele>1952</ele>
        <time>2018-10-17T12:36:16Z</time>
      </trkpt>
      <trkpt lat="45.80683" lon="6.41117">
        <ele>1952</ele>
        <time>2018-10-17T12:36:17Z</time>
      </trkpt>
      <trkpt lat="45.80686" lon="6.41118">
        <ele>1952</ele>
        <time>2018-10-17T12:36:18Z</time>
      </trkpt>
      <trkpt lat="45.80686" lon="6.41118">
        <ele>1951</ele>
        <time>2018-10-17T12:36:19Z</time>
      </trkpt>
      <trkpt lat="45.80688" lon="6.41119">
        <ele>1951</ele>
        <time>2018-10-17T12:36:20Z</time>
      </trkpt>
      <trkpt lat="45.80688" lon="6.41119">
        <ele>1951</ele>
        <time>2018-10-17T12:36:21Z</time>
      </trkpt>
      <trkpt lat="45.80688" lon="6.41119">
        <ele>1950</ele>
        <time>2018-10-17T12:36:22Z</time>
      </trkpt>
      <trkpt lat="45.80688" lon="6.41119">
        <ele>1950</ele>
        <time>2018-10-17T12:36:23Z</time>
      </trkpt>
      <trkpt lat="45.80688" lon="6.41119">
        <ele>1950</ele>
        <time>2018-10-17T12:36:24Z</time>
      </trkpt>
      <trkpt lat="45.8069" lon="6.41119">
        <ele>1950</ele>
        <time>2018-10-17T12:36:25Z</time>
      </trkpt>
      <trkpt lat="45.80692" lon="6.4112">
        <ele>1950</ele>
        <time>2018-10-17T12:36:26Z</time>
      </trkpt>
      <trkpt lat="45.80693" lon="6.4112">
        <ele>1950</ele>
        <time>2018-10-17T12:36:27Z</time>
      </trkpt>
      <trkpt lat="45.80696" lon="6.41122">
        <ele>1950</ele>
        <time>2018-10-17T12:36:28Z</time>
      </trkpt>
      <trkpt lat="45.80699" lon="6.41124">
        <ele>1950</ele>
        <time>2018-10-17T12:36:29Z</time>
      </trkpt>
      <trkpt lat="45.80702" lon="6.41125">
        <ele>1949</ele>
        <time>2018-10-17T12:36:30Z</time>
      </trkpt>
      <trkpt lat="45.80702" lon="6.41125">
        <ele>1949</ele>
        <time>2018-10-17T12:36:31Z</time>
      </trkpt>
      <trkpt lat="45.80702" lon="6.41125">
        <ele>1949</ele>
        <time>2018-10-17T12:36:32Z</time>
      </trkpt>
      <trkpt lat="45.80705" lon="6.41126">
        <ele>1949</ele>
        <time>2018-10-17T12:36:33Z</time>
      </trkpt>
      <trkpt lat="45.80705" lon="6.41126">
        <ele>1949</ele>
        <time>2018-10-17T12:36:34Z</time>
      </trkpt>
      <trkpt lat="45.80707" lon="6.41128">
        <ele>1949</ele>
        <time>2018-10-17T12:36:35Z</time>
      </trkpt>
      <trkpt lat="45.80707" lon="6.41128">
        <ele>1949</ele>
        <time>2018-10-17T12:36:36Z</time>
      </trkpt>
      <trkpt lat="45.80709" lon="6.41128">
        <ele>1949</ele>
        <time>2018-10-17T12:36:37Z</time>
      </trkpt>
      <trkpt lat="45.80709" lon="6.41128">
        <ele>1949</ele>
        <time>2018-10-17T12:36:38Z</time>
      </trkpt>
      <trkpt lat="45.80711" lon="6.41128">
        <ele>1948</ele>
        <time>2018-10-17T12:36:39Z</time>
      </trkpt>
      <trkpt lat="45.80711" lon="6.41128">
        <ele>1947</ele>
        <time>2018-10-17T12:36:40Z</time>
      </trkpt>
      <trkpt lat="45.80714" lon="6.41128">
        <ele>1947</ele>
        <time>2018-10-17T12:36:41Z</time>
      </trkpt>
      <trkpt lat="45.80714" lon="6.41128">
        <ele>1947</ele>
        <time>2018-10-17T12:36:42Z</time>
      </trkpt>
      <trkpt lat="45.80717" lon="6.4113">
        <ele>1946</ele>
        <time>2018-10-17T12:36:43Z</time>
      </trkpt>
      <trkpt lat="45.80717" lon="6.4113">
        <ele>1946</ele>
        <time>2018-10-17T12:36:44Z</time>
      </trkpt>
      <trkpt lat="45.80719" lon="6.41132">
        <ele>1946</ele>
        <time>2018-10-17T12:36:45Z</time>
      </trkpt>
      <trkpt lat="45.80719" lon="6.41132">
        <ele>1946</ele>
        <time>2018-10-17T12:36:46Z</time>
      </trkpt>
      <trkpt lat="45.80722" lon="6.41134">
        <ele>1945</ele>
        <time>2018-10-17T12:36:47Z</time>
      </trkpt>
      <trkpt lat="45.80722" lon="6.41134">
        <ele>1945</ele>
        <time>2018-10-17T12:36:48Z</time>
      </trkpt>
      <trkpt lat="45.80725" lon="6.41134">
        <ele>1944</ele>
        <time>2018-10-17T12:36:49Z</time>
      </trkpt>
      <trkpt lat="45.80725" lon="6.41134">
        <ele>1944</ele>
        <time>2018-10-17T12:36:50Z</time>
      </trkpt>
      <trkpt lat="45.80728" lon="6.41134">
        <ele>1944</ele>
        <time>2018-10-17T12:36:51Z</time>
      </trkpt>
      <trkpt lat="45.80728" lon="6.41134">
        <ele>1944</ele>
        <time>2018-10-17T12:36:52Z</time>
      </trkpt>
      <trkpt lat="45.80731" lon="6.41135">
        <ele>1943</ele>
        <time>2018-10-17T12:36:53Z</time>
      </trkpt>
      <trkpt lat="45.80731" lon="6.41135">
        <ele>1942</ele>
        <time>2018-10-17T12:36:54Z</time>
      </trkpt>
      <trkpt lat="45.80734" lon="6.41136">
        <ele>1942</ele>
        <time>2018-10-17T12:36:55Z</time>
      </trkpt>
      <trkpt lat="45.80734" lon="6.41136">
        <ele>1942</ele>
        <time>2018-10-17T12:36:56Z</time>
      </trkpt>
      <trkpt lat="45.80737" lon="6.41137">
        <ele>1941</ele>
        <time>2018-10-17T12:36:57Z</time>
      </trkpt>
      <trkpt lat="45.80737" lon="6.41137">
        <ele>1941</ele>
        <time>2018-10-17T12:36:58Z</time>
      </trkpt>
      <trkpt lat="45.8074" lon="6.41138">
        <ele>1940</ele>
        <time>2018-10-17T12:36:59Z</time>
      </trkpt>
      <trkpt lat="45.8074" lon="6.41138">
        <ele>1940</ele>
        <time>2018-10-17T12:37:00Z</time>
      </trkpt>
      <trkpt lat="45.80743" lon="6.41137">
        <ele>1939</ele>
        <time>2018-10-17T12:37:01Z</time>
      </trkpt>
      <trkpt lat="45.80743" lon="6.41137">
        <ele>1939</ele>
        <time>2018-10-17T12:37:02Z</time>
      </trkpt>
      <trkpt lat="45.80746" lon="6.41136">
        <ele>1939</ele>
        <time>2018-10-17T12:37:03Z</time>
      </trkpt>
      <trkpt lat="45.80746" lon="6.41136">
        <ele>1939</ele>
        <time>2018-10-17T12:37:04Z</time>
      </trkpt>
      <trkpt lat="45.80746" lon="6.41136">
        <ele>1938</ele>
        <time>2018-10-17T12:37:05Z</time>
      </trkpt>
      <trkpt lat="45.80746" lon="6.41136">
        <ele>1938</ele>
        <time>2018-10-17T12:37:06Z</time>
      </trkpt>
      <trkpt lat="45.80746" lon="6.41136">
        <ele>1938</ele>
        <time>2018-10-17T12:37:07Z</time>
      </trkpt>
      <trkpt lat="45.80746" lon="6.41136">
        <ele>1938</ele>
        <time>2018-10-17T12:37:08Z</time>
      </trkpt>
      <trkpt lat="45.80746" lon="6.41136">
        <ele>1938</ele>
        <time>2018-10-17T12:37:09Z</time>
      </trkpt>
      <trkpt lat="45.80746" lon="6.41136">
        <ele>1938</ele>
        <time>2018-10-17T12:37:10Z</time>
      </trkpt>
      <trkpt lat="45.80746" lon="6.41136">
        <ele>1937</ele>
        <time>2018-10-17T12:37:11Z</time>
      </trkpt>
      <trkpt lat="45.80746" lon="6.41136">
        <ele>1937</ele>
        <time>2018-10-17T12:37:12Z</time>
      </trkpt>
      <trkpt lat="45.80746" lon="6.41136">
        <ele>1937</ele>
        <time>2018-10-17T12:37:13Z</time>
      </trkpt>
      <trkpt lat="45.80746" lon="6.41136">
        <ele>1937</ele>
        <time>2018-10-17T12:37:14Z</time>
      </trkpt>
      <trkpt lat="45.80746" lon="6.41136">
        <ele>1938</ele>
        <time>2018-10-17T12:37:15Z</time>
      </trkpt>
      <trkpt lat="45.80746" lon="6.41136">
        <ele>1938</ele>
        <time>2018-10-17T12:37:16Z</time>
      </trkpt>
      <trkpt lat="45.80749" lon="6.41135">
        <ele>1938</ele>
        <time>2018-10-17T12:37:17Z</time>
      </trkpt>
      <trkpt lat="45.80749" lon="6.41135">
        <ele>1938</ele>
        <time>2018-10-17T12:37:18Z</time>
      </trkpt>
      <trkpt lat="45.8075" lon="6.41133">
        <ele>1937</ele>
        <time>2018-10-17T12:37:19Z</time>
      </trkpt>
      <trkpt lat="45.8075" lon="6.41133">
        <ele>1937</ele>
        <time>2018-10-17T12:37:20Z</time>
      </trkpt>
      <trkpt lat="45.80752" lon="6.41131">
        <ele>1936</ele>
        <time>2018-10-17T12:37:21Z</time>
      </trkpt>
      <trkpt lat="45.80752" lon="6.41131">
        <ele>1936</ele>
        <time>2018-10-17T12:37:22Z</time>
      </trkpt>
      <trkpt lat="45.80754" lon="6.41129">
        <ele>1936</ele>
        <time>2018-10-17T12:37:23Z</time>
      </trkpt>
      <trkpt lat="45.80754" lon="6.41129">
        <ele>1935</ele>
        <time>2018-10-17T12:37:24Z</time>
      </trkpt>
      <trkpt lat="45.80755" lon="6.41128">
        <ele>1934</ele>
        <time>2018-10-17T12:37:25Z</time>
      </trkpt>
      <trkpt lat="45.80755" lon="6.41128">
        <ele>1934</ele>
        <time>2018-10-17T12:37:26Z</time>
      </trkpt>
      <trkpt lat="45.80755" lon="6.41128">
        <ele>1934</ele>
        <time>2018-10-17T12:37:27Z</time>
      </trkpt>
      <trkpt lat="45.80758" lon="6.41126">
        <ele>1934</ele>
        <time>2018-10-17T12:37:28Z</time>
      </trkpt>
      <trkpt lat="45.80758" lon="6.41126">
        <ele>1934</ele>
        <time>2018-10-17T12:37:29Z</time>
      </trkpt>
      <trkpt lat="45.80759" lon="6.41124">
        <ele>1934</ele>
        <time>2018-10-17T12:37:30Z</time>
      </trkpt>
      <trkpt lat="45.80759" lon="6.41124">
        <ele>1934</ele>
        <time>2018-10-17T12:37:31Z</time>
      </trkpt>
      <trkpt lat="45.8076" lon="6.41121">
        <ele>1933</ele>
        <time>2018-10-17T12:37:32Z</time>
      </trkpt>
      <trkpt lat="45.8076" lon="6.41121">
        <ele>1933</ele>
        <time>2018-10-17T12:37:33Z</time>
      </trkpt>
      <trkpt lat="45.8076" lon="6.41118">
        <ele>1933</ele>
        <time>2018-10-17T12:37:34Z</time>
      </trkpt>
      <trkpt lat="45.8076" lon="6.41118">
        <ele>1933</ele>
        <time>2018-10-17T12:37:35Z</time>
      </trkpt>
      <trkpt lat="45.8076" lon="6.41115">
        <ele>1932</ele>
        <time>2018-10-17T12:37:36Z</time>
      </trkpt>
      <trkpt lat="45.8076" lon="6.41115">
        <ele>1931</ele>
        <time>2018-10-17T12:37:37Z</time>
      </trkpt>
      <trkpt lat="45.8076" lon="6.41112">
        <ele>1931</ele>
        <time>2018-10-17T12:37:38Z</time>
      </trkpt>
      <trkpt lat="45.8076" lon="6.41112">
        <ele>1931</ele>
        <time>2018-10-17T12:37:39Z</time>
      </trkpt>
      <trkpt lat="45.80759" lon="6.41108">
        <ele>1930</ele>
        <time>2018-10-17T12:37:40Z</time>
      </trkpt>
      <trkpt lat="45.80759" lon="6.41108">
        <ele>1930</ele>
        <time>2018-10-17T12:37:41Z</time>
      </trkpt>
      <trkpt lat="45.80759" lon="6.41104">
        <ele>1929</ele>
        <time>2018-10-17T12:37:42Z</time>
      </trkpt>
      <trkpt lat="45.80759" lon="6.41104">
        <ele>1929</ele>
        <time>2018-10-17T12:37:43Z</time>
      </trkpt>
      <trkpt lat="45.80759" lon="6.41101">
        <ele>1928</ele>
        <time>2018-10-17T12:37:44Z</time>
      </trkpt>
      <trkpt lat="45.80759" lon="6.41101">
        <ele>1928</ele>
        <time>2018-10-17T12:37:45Z</time>
      </trkpt>
      <trkpt lat="45.80759" lon="6.41097">
        <ele>1927</ele>
        <time>2018-10-17T12:37:46Z</time>
      </trkpt>
      <trkpt lat="45.80759" lon="6.41097">
        <ele>1926</ele>
        <time>2018-10-17T12:37:47Z</time>
      </trkpt>
      <trkpt lat="45.80759" lon="6.41093">
        <ele>1926</ele>
        <time>2018-10-17T12:37:48Z</time>
      </trkpt>
      <trkpt lat="45.80759" lon="6.41093">
        <ele>1925</ele>
        <time>2018-10-17T12:37:49Z</time>
      </trkpt>
      <trkpt lat="45.8076" lon="6.41089">
        <ele>1924</ele>
        <time>2018-10-17T12:37:50Z</time>
      </trkpt>
      <trkpt lat="45.8076" lon="6.41089">
        <ele>1924</ele>
        <time>2018-10-17T12:37:51Z</time>
      </trkpt>
      <trkpt lat="45.80761" lon="6.41085">
        <ele>1923</ele>
        <time>2018-10-17T12:37:52Z</time>
      </trkpt>
      <trkpt lat="45.80761" lon="6.41085">
        <ele>1923</ele>
        <time>2018-10-17T12:37:53Z</time>
      </trkpt>
      <trkpt lat="45.80762" lon="6.41083">
        <ele>1923</ele>
        <time>2018-10-17T12:37:54Z</time>
      </trkpt>
      <trkpt lat="45.80762" lon="6.41083">
        <ele>1922</ele>
        <time>2018-10-17T12:37:55Z</time>
      </trkpt>
      <trkpt lat="45.80763" lon="6.4108">
        <ele>1921</ele>
        <time>2018-10-17T12:37:56Z</time>
      </trkpt>
      <trkpt lat="45.80763" lon="6.4108">
        <ele>1921</ele>
        <time>2018-10-17T12:37:57Z</time>
      </trkpt>
      <trkpt lat="45.80763" lon="6.41076">
        <ele>1921</ele>
        <time>2018-10-17T12:37:58Z</time>
      </trkpt>
      <trkpt lat="45.80763" lon="6.41076">
        <ele>1920</ele>
        <time>2018-10-17T12:37:59Z</time>
      </trkpt>
      <trkpt lat="45.80763" lon="6.41073">
        <ele>1920</ele>
        <time>2018-10-17T12:38:00Z</time>
      </trkpt>
      <trkpt lat="45.80763" lon="6.41073">
        <ele>1918</ele>
        <time>2018-10-17T12:38:01Z</time>
      </trkpt>
      <trkpt lat="45.80765" lon="6.4107">
        <ele>1918</ele>
        <time>2018-10-17T12:38:02Z</time>
      </trkpt>
      <trkpt lat="45.80765" lon="6.4107">
        <ele>1917</ele>
        <time>2018-10-17T12:38:03Z</time>
      </trkpt>
      <trkpt lat="45.80766" lon="6.41067">
        <ele>1916</ele>
        <time>2018-10-17T12:38:04Z</time>
      </trkpt>
      <trkpt lat="45.80766" lon="6.41067">
        <ele>1916</ele>
        <time>2018-10-17T12:38:05Z</time>
      </trkpt>
      <trkpt lat="45.80767" lon="6.41064">
        <ele>1916</ele>
        <time>2018-10-17T12:38:06Z</time>
      </trkpt>
      <trkpt lat="45.80767" lon="6.41064">
        <ele>1915</ele>
        <time>2018-10-17T12:38:07Z</time>
      </trkpt>
      <trkpt lat="45.80768" lon="6.41061">
        <ele>1915</ele>
        <time>2018-10-17T12:38:08Z</time>
      </trkpt>
      <trkpt lat="45.80768" lon="6.41061">
        <ele>1915</ele>
        <time>2018-10-17T12:38:09Z</time>
      </trkpt>
      <trkpt lat="45.8077" lon="6.41058">
        <ele>1914</ele>
        <time>2018-10-17T12:38:10Z</time>
      </trkpt>
      <trkpt lat="45.8077" lon="6.41058">
        <ele>1914</ele>
        <time>2018-10-17T12:38:11Z</time>
      </trkpt>
      <trkpt lat="45.80772" lon="6.41056">
        <ele>1914</ele>
        <time>2018-10-17T12:38:12Z</time>
      </trkpt>
      <trkpt lat="45.80772" lon="6.41056">
        <ele>1913</ele>
        <time>2018-10-17T12:38:13Z</time>
      </trkpt>
      <trkpt lat="45.80773" lon="6.41053">
        <ele>1912</ele>
        <time>2018-10-17T12:38:14Z</time>
      </trkpt>
      <trkpt lat="45.80773" lon="6.41053">
        <ele>1912</ele>
        <time>2018-10-17T12:38:15Z</time>
      </trkpt>
      <trkpt lat="45.80774" lon="6.41051">
        <ele>1912</ele>
        <time>2018-10-17T12:38:16Z</time>
      </trkpt>
      <trkpt lat="45.80774" lon="6.41051">
        <ele>1911</ele>
        <time>2018-10-17T12:38:17Z</time>
      </trkpt>
      <trkpt lat="45.80774" lon="6.41048">
        <ele>1911</ele>
        <time>2018-10-17T12:38:18Z</time>
      </trkpt>
      <trkpt lat="45.80774" lon="6.41048">
        <ele>1910</ele>
        <time>2018-10-17T12:38:19Z</time>
      </trkpt>
      <trkpt lat="45.80775" lon="6.41044">
        <ele>1910</ele>
        <time>2018-10-17T12:38:20Z</time>
      </trkpt>
      <trkpt lat="45.80775" lon="6.41044">
        <ele>1909</ele>
        <time>2018-10-17T12:38:21Z</time>
      </trkpt>
      <trkpt lat="45.80776" lon="6.41041">
        <ele>1909</ele>
        <time>2018-10-17T12:38:22Z</time>
      </trkpt>
      <trkpt lat="45.80776" lon="6.41041">
        <ele>1908</ele>
        <time>2018-10-17T12:38:23Z</time>
      </trkpt>
      <trkpt lat="45.80778" lon="6.41039">
        <ele>1908</ele>
        <time>2018-10-17T12:38:24Z</time>
      </trkpt>
      <trkpt lat="45.80778" lon="6.41039">
        <ele>1907</ele>
        <time>2018-10-17T12:38:25Z</time>
      </trkpt>
      <trkpt lat="45.80779" lon="6.41035">
        <ele>1906</ele>
        <time>2018-10-17T12:38:26Z</time>
      </trkpt>
      <trkpt lat="45.80779" lon="6.41035">
        <ele>1905</ele>
        <time>2018-10-17T12:38:27Z</time>
      </trkpt>
      <trkpt lat="45.80781" lon="6.41033">
        <ele>1905</ele>
        <time>2018-10-17T12:38:28Z</time>
      </trkpt>
      <trkpt lat="45.80781" lon="6.41033">
        <ele>1905</ele>
        <time>2018-10-17T12:38:29Z</time>
      </trkpt>
      <trkpt lat="45.80783" lon="6.41031">
        <ele>1905</ele>
        <time>2018-10-17T12:38:30Z</time>
      </trkpt>
      <trkpt lat="45.80783" lon="6.41031">
        <ele>1905</ele>
        <time>2018-10-17T12:38:31Z</time>
      </trkpt>
      <trkpt lat="45.80785" lon="6.41029">
        <ele>1904</ele>
        <time>2018-10-17T12:38:32Z</time>
      </trkpt>
      <trkpt lat="45.80785" lon="6.41029">
        <ele>1903</ele>
        <time>2018-10-17T12:38:33Z</time>
      </trkpt>
      <trkpt lat="45.80787" lon="6.41027">
        <ele>1903</ele>
        <time>2018-10-17T12:38:34Z</time>
      </trkpt>
      <trkpt lat="45.80787" lon="6.41027">
        <ele>1903</ele>
        <time>2018-10-17T12:38:35Z</time>
      </trkpt>
      <trkpt lat="45.80788" lon="6.41024">
        <ele>1902</ele>
        <time>2018-10-17T12:38:36Z</time>
      </trkpt>
      <trkpt lat="45.80788" lon="6.41024">
        <ele>1901</ele>
        <time>2018-10-17T12:38:37Z</time>
      </trkpt>
      <trkpt lat="45.8079" lon="6.41021">
        <ele>1901</ele>
        <time>2018-10-17T12:38:38Z</time>
      </trkpt>
      <trkpt lat="45.8079" lon="6.41021">
        <ele>1901</ele>
        <time>2018-10-17T12:38:39Z</time>
      </trkpt>
      <trkpt lat="45.80791" lon="6.41018">
        <ele>1901</ele>
        <time>2018-10-17T12:38:40Z</time>
      </trkpt>
      <trkpt lat="45.80791" lon="6.41018">
        <ele>1901</ele>
        <time>2018-10-17T12:38:41Z</time>
      </trkpt>
      <trkpt lat="45.80791" lon="6.41018">
        <ele>1900</ele>
        <time>2018-10-17T12:38:42Z</time>
      </trkpt>
      <trkpt lat="45.8079" lon="6.41014">
        <ele>1900</ele>
        <time>2018-10-17T12:38:43Z</time>
      </trkpt>
      <trkpt lat="45.8079" lon="6.41014">
        <ele>1899</ele>
        <time>2018-10-17T12:38:44Z</time>
      </trkpt>
      <trkpt lat="45.8079" lon="6.41011">
        <ele>1898</ele>
        <time>2018-10-17T12:38:45Z</time>
      </trkpt>
      <trkpt lat="45.8079" lon="6.41011">
        <ele>1897</ele>
        <time>2018-10-17T12:38:46Z</time>
      </trkpt>
      <trkpt lat="45.80792" lon="6.41007">
        <ele>1897</ele>
        <time>2018-10-17T12:38:47Z</time>
      </trkpt>
      <trkpt lat="45.80792" lon="6.41007">
        <ele>1897</ele>
        <time>2018-10-17T12:38:48Z</time>
      </trkpt>
      <trkpt lat="45.80793" lon="6.41003">
        <ele>1897</ele>
        <time>2018-10-17T12:38:49Z</time>
      </trkpt>
      <trkpt lat="45.80794" lon="6.41">
        <ele>1897</ele>
        <time>2018-10-17T12:38:50Z</time>
      </trkpt>
      <trkpt lat="45.80795" lon="6.40998">
        <ele>1896</ele>
        <time>2018-10-17T12:38:51Z</time>
      </trkpt>
      <trkpt lat="45.80796" lon="6.40996">
        <ele>1896</ele>
        <time>2018-10-17T12:38:52Z</time>
      </trkpt>
      <trkpt lat="45.80797" lon="6.40993">
        <ele>1895</ele>
        <time>2018-10-17T12:38:53Z</time>
      </trkpt>
      <trkpt lat="45.80797" lon="6.40993">
        <ele>1895</ele>
        <time>2018-10-17T12:38:54Z</time>
      </trkpt>
      <trkpt lat="45.80798" lon="6.4099">
        <ele>1894</ele>
        <time>2018-10-17T12:38:55Z</time>
      </trkpt>
      <trkpt lat="45.80798" lon="6.4099">
        <ele>1893</ele>
        <time>2018-10-17T12:38:56Z</time>
      </trkpt>
      <trkpt lat="45.80799" lon="6.40986">
        <ele>1892</ele>
        <time>2018-10-17T12:38:57Z</time>
      </trkpt>
      <trkpt lat="45.80799" lon="6.40986">
        <ele>1891</ele>
        <time>2018-10-17T12:38:58Z</time>
      </trkpt>
      <trkpt lat="45.808" lon="6.40983">
        <ele>1891</ele>
        <time>2018-10-17T12:38:59Z</time>
      </trkpt>
      <trkpt lat="45.808" lon="6.40983">
        <ele>1890</ele>
        <time>2018-10-17T12:39:00Z</time>
      </trkpt>
      <trkpt lat="45.80801" lon="6.40979">
        <ele>1889</ele>
        <time>2018-10-17T12:39:01Z</time>
      </trkpt>
      <trkpt lat="45.80801" lon="6.40979">
        <ele>1889</ele>
        <time>2018-10-17T12:39:02Z</time>
      </trkpt>
      <trkpt lat="45.80803" lon="6.40976">
        <ele>1888</ele>
        <time>2018-10-17T12:39:03Z</time>
      </trkpt>
      <trkpt lat="45.80803" lon="6.40976">
        <ele>1888</ele>
        <time>2018-10-17T12:39:04Z</time>
      </trkpt>
      <trkpt lat="45.80805" lon="6.40973">
        <ele>1888</ele>
        <time>2018-10-17T12:39:05Z</time>
      </trkpt>
      <trkpt lat="45.80805" lon="6.40973">
        <ele>1887</ele>
        <time>2018-10-17T12:39:06Z</time>
      </trkpt>
      <trkpt lat="45.80806" lon="6.4097">
        <ele>1887</ele>
        <time>2018-10-17T12:39:07Z</time>
      </trkpt>
      <trkpt lat="45.80806" lon="6.4097">
        <ele>1887</ele>
        <time>2018-10-17T12:39:08Z</time>
      </trkpt>
      <trkpt lat="45.80808" lon="6.40967">
        <ele>1887</ele>
        <time>2018-10-17T12:39:09Z</time>
      </trkpt>
      <trkpt lat="45.80808" lon="6.40967">
        <ele>1886</ele>
        <time>2018-10-17T12:39:10Z</time>
      </trkpt>
      <trkpt lat="45.80809" lon="6.40965">
        <ele>1885</ele>
        <time>2018-10-17T12:39:11Z</time>
      </trkpt>
      <trkpt lat="45.80809" lon="6.40965">
        <ele>1885</ele>
        <time>2018-10-17T12:39:12Z</time>
      </trkpt>
      <trkpt lat="45.80811" lon="6.40962">
        <ele>1885</ele>
        <time>2018-10-17T12:39:13Z</time>
      </trkpt>
      <trkpt lat="45.80811" lon="6.40962">
        <ele>1885</ele>
        <time>2018-10-17T12:39:14Z</time>
      </trkpt>
      <trkpt lat="45.80811" lon="6.40962">
        <ele>1884</ele>
        <time>2018-10-17T12:39:15Z</time>
      </trkpt>
      <trkpt lat="45.80813" lon="6.40961">
        <ele>1884</ele>
        <time>2018-10-17T12:39:16Z</time>
      </trkpt>
      <trkpt lat="45.80813" lon="6.40961">
        <ele>1883</ele>
        <time>2018-10-17T12:39:17Z</time>
      </trkpt>
      <trkpt lat="45.80813" lon="6.40961">
        <ele>1883</ele>
        <time>2018-10-17T12:39:18Z</time>
      </trkpt>
      <trkpt lat="45.80813" lon="6.40961">
        <ele>1883</ele>
        <time>2018-10-17T12:39:19Z</time>
      </trkpt>
      <trkpt lat="45.80813" lon="6.40961">
        <ele>1882</ele>
        <time>2018-10-17T12:39:20Z</time>
      </trkpt>
      <trkpt lat="45.80813" lon="6.40961">
        <ele>1882</ele>
        <time>2018-10-17T12:39:21Z</time>
      </trkpt>
      <trkpt lat="45.80813" lon="6.40961">
        <ele>1883</ele>
        <time>2018-10-17T12:39:22Z</time>
      </trkpt>
      <trkpt lat="45.80815" lon="6.40961">
        <ele>1883</ele>
        <time>2018-10-17T12:39:23Z</time>
      </trkpt>
      <trkpt lat="45.80815" lon="6.40961">
        <ele>1883</ele>
        <time>2018-10-17T12:39:24Z</time>
      </trkpt>
      <trkpt lat="45.80815" lon="6.40961">
        <ele>1883</ele>
        <time>2018-10-17T12:39:25Z</time>
      </trkpt>
      <trkpt lat="45.80815" lon="6.40961">
        <ele>1883</ele>
        <time>2018-10-17T12:39:26Z</time>
      </trkpt>
      <trkpt lat="45.80815" lon="6.40961">
        <ele>1883</ele>
        <time>2018-10-17T12:39:27Z</time>
      </trkpt>
      <trkpt lat="45.80815" lon="6.40961">
        <ele>1883</ele>
        <time>2018-10-17T12:39:28Z</time>
      </trkpt>
      <trkpt lat="45.80815" lon="6.40961">
        <ele>1884</ele>
        <time>2018-10-17T12:39:29Z</time>
      </trkpt>
      <trkpt lat="45.80815" lon="6.40961">
        <ele>1884</ele>
        <time>2018-10-17T12:39:30Z</time>
      </trkpt>
      <trkpt lat="45.80815" lon="6.40961">
        <ele>1883</ele>
        <time>2018-10-17T12:39:31Z</time>
      </trkpt>
      <trkpt lat="45.80815" lon="6.40961">
        <ele>1883</ele>
        <time>2018-10-17T12:39:32Z</time>
      </trkpt>
      <trkpt lat="45.80815" lon="6.40961">
        <ele>1883</ele>
        <time>2018-10-17T12:39:33Z</time>
      </trkpt>
      <trkpt lat="45.80815" lon="6.40961">
        <ele>1883</ele>
        <time>2018-10-17T12:39:34Z</time>
      </trkpt>
      <trkpt lat="45.80815" lon="6.40961">
        <ele>1883</ele>
        <time>2018-10-17T12:39:35Z</time>
      </trkpt>
      <trkpt lat="45.80815" lon="6.40961">
        <ele>1883</ele>
        <time>2018-10-17T12:39:36Z</time>
      </trkpt>
      <trkpt lat="45.80815" lon="6.40961">
        <ele>1883</ele>
        <time>2018-10-17T12:39:37Z</time>
      </trkpt>
      <trkpt lat="45.80815" lon="6.40961">
        <ele>1883</ele>
        <time>2018-10-17T12:39:38Z</time>
      </trkpt>
      <trkpt lat="45.80815" lon="6.40961">
        <ele>1883</ele>
        <time>2018-10-17T12:39:39Z</time>
      </trkpt>
      <trkpt lat="45.80815" lon="6.40961">
        <ele>1883</ele>
        <time>2018-10-17T12:39:40Z</time>
      </trkpt>
      <trkpt lat="45.80815" lon="6.40961">
        <ele>1883</ele>
        <time>2018-10-17T12:39:41Z</time>
      </trkpt>
      <trkpt lat="45.80815" lon="6.40961">
        <ele>1883</ele>
        <time>2018-10-17T12:39:42Z</time>
      </trkpt>
      <trkpt lat="45.80815" lon="6.40961">
        <ele>1883</ele>
        <time>2018-10-17T12:39:43Z</time>
      </trkpt>
      <trkpt lat="45.80815" lon="6.40961">
        <ele>1883</ele>
        <time>2018-10-17T12:39:44Z</time>
      </trkpt>
      <trkpt lat="45.80815" lon="6.40961">
        <ele>1883</ele>
        <time>2018-10-17T12:39:45Z</time>
      </trkpt>
      <trkpt lat="45.80815" lon="6.40961">
        <ele>1883</ele>
        <time>2018-10-17T12:39:46Z</time>
      </trkpt>
      <trkpt lat="45.80817" lon="6.40962">
        <ele>1883</ele>
        <time>2018-10-17T12:39:47Z</time>
      </trkpt>
      <trkpt lat="45.80817" lon="6.40962">
        <ele>1882</ele>
        <time>2018-10-17T12:39:48Z</time>
      </trkpt>
      <trkpt lat="45.80819" lon="6.40962">
        <ele>1882</ele>
        <time>2018-10-17T12:39:49Z</time>
      </trkpt>
      <trkpt lat="45.80819" lon="6.40962">
        <ele>1881</ele>
        <time>2018-10-17T12:39:50Z</time>
      </trkpt>
      <trkpt lat="45.80819" lon="6.40962">
        <ele>1881</ele>
        <time>2018-10-17T12:39:51Z</time>
      </trkpt>
      <trkpt lat="45.8082" lon="6.40961">
        <ele>1881</ele>
        <time>2018-10-17T12:39:52Z</time>
      </trkpt>
      <trkpt lat="45.8082" lon="6.40961">
        <ele>1881</ele>
        <time>2018-10-17T12:39:53Z</time>
      </trkpt>
      <trkpt lat="45.8082" lon="6.40961">
        <ele>1880</ele>
        <time>2018-10-17T12:39:54Z</time>
      </trkpt>
      <trkpt lat="45.80823" lon="6.40961">
        <ele>1880</ele>
        <time>2018-10-17T12:39:55Z</time>
      </trkpt>
      <trkpt lat="45.80823" lon="6.40961">
        <ele>1880</ele>
        <time>2018-10-17T12:39:56Z</time>
      </trkpt>
      <trkpt lat="45.80823" lon="6.40961">
        <ele>1879</ele>
        <time>2018-10-17T12:39:57Z</time>
      </trkpt>
      <trkpt lat="45.80823" lon="6.40961">
        <ele>1879</ele>
        <time>2018-10-17T12:39:58Z</time>
      </trkpt>
      <trkpt lat="45.80823" lon="6.40961">
        <ele>1879</ele>
        <time>2018-10-17T12:39:59Z</time>
      </trkpt>
      <trkpt lat="45.80825" lon="6.40961">
        <ele>1879</ele>
        <time>2018-10-17T12:40:00Z</time>
      </trkpt>
      <trkpt lat="45.80825" lon="6.40961">
        <ele>1879</ele>
        <time>2018-10-17T12:40:01Z</time>
      </trkpt>
      <trkpt lat="45.80825" lon="6.40961">
        <ele>1879</ele>
        <time>2018-10-17T12:40:02Z</time>
      </trkpt>
      <trkpt lat="45.80828" lon="6.40962">
        <ele>1878</ele>
        <time>2018-10-17T12:40:03Z</time>
      </trkpt>
      <trkpt lat="45.80828" lon="6.40962">
        <ele>1878</ele>
        <time>2018-10-17T12:40:04Z</time>
      </trkpt>
      <trkpt lat="45.8083" lon="6.40962">
        <ele>1878</ele>
        <time>2018-10-17T12:40:05Z</time>
      </trkpt>
      <trkpt lat="45.8083" lon="6.40962">
        <ele>1878</ele>
        <time>2018-10-17T12:40:06Z</time>
      </trkpt>
      <trkpt lat="45.80832" lon="6.40962">
        <ele>1877</ele>
        <time>2018-10-17T12:40:07Z</time>
      </trkpt>
      <trkpt lat="45.80832" lon="6.40962">
        <ele>1877</ele>
        <time>2018-10-17T12:40:08Z</time>
      </trkpt>
      <trkpt lat="45.80834" lon="6.40962">
        <ele>1877</ele>
        <time>2018-10-17T12:40:09Z</time>
      </trkpt>
      <trkpt lat="45.80834" lon="6.40962">
        <ele>1877</ele>
        <time>2018-10-17T12:40:10Z</time>
      </trkpt>
      <trkpt lat="45.80836" lon="6.40963">
        <ele>1877</ele>
        <time>2018-10-17T12:40:11Z</time>
      </trkpt>
      <trkpt lat="45.80836" lon="6.40963">
        <ele>1877</ele>
        <time>2018-10-17T12:40:12Z</time>
      </trkpt>
      <trkpt lat="45.80838" lon="6.40963">
        <ele>1877</ele>
        <time>2018-10-17T12:40:13Z</time>
      </trkpt>
      <trkpt lat="45.80838" lon="6.40963">
        <ele>1877</ele>
        <time>2018-10-17T12:40:14Z</time>
      </trkpt>
      <trkpt lat="45.8084" lon="6.40963">
        <ele>1877</ele>
        <time>2018-10-17T12:40:15Z</time>
      </trkpt>
      <trkpt lat="45.8084" lon="6.40963">
        <ele>1876</ele>
        <time>2018-10-17T12:40:16Z</time>
      </trkpt>
      <trkpt lat="45.8084" lon="6.40963">
        <ele>1875</ele>
        <time>2018-10-17T12:40:17Z</time>
      </trkpt>
      <trkpt lat="45.80842" lon="6.40962">
        <ele>1875</ele>
        <time>2018-10-17T12:40:18Z</time>
      </trkpt>
      <trkpt lat="45.80842" lon="6.40962">
        <ele>1874</ele>
        <time>2018-10-17T12:40:19Z</time>
      </trkpt>
      <trkpt lat="45.80844" lon="6.40961">
        <ele>1874</ele>
        <time>2018-10-17T12:40:20Z</time>
      </trkpt>
      <trkpt lat="45.80844" lon="6.40961">
        <ele>1874</ele>
        <time>2018-10-17T12:40:21Z</time>
      </trkpt>
      <trkpt lat="45.80844" lon="6.40961">
        <ele>1874</ele>
        <time>2018-10-17T12:40:22Z</time>
      </trkpt>
      <trkpt lat="45.80847" lon="6.4096">
        <ele>1874</ele>
        <time>2018-10-17T12:40:23Z</time>
      </trkpt>
      <trkpt lat="45.80847" lon="6.4096">
        <ele>1874</ele>
        <time>2018-10-17T12:40:24Z</time>
      </trkpt>
      <trkpt lat="45.80849" lon="6.4096">
        <ele>1874</ele>
        <time>2018-10-17T12:40:25Z</time>
      </trkpt>
      <trkpt lat="45.80849" lon="6.4096">
        <ele>1874</ele>
        <time>2018-10-17T12:40:26Z</time>
      </trkpt>
      <trkpt lat="45.80851" lon="6.4096">
        <ele>1874</ele>
        <time>2018-10-17T12:40:27Z</time>
      </trkpt>
      <trkpt lat="45.80851" lon="6.4096">
        <ele>1873</ele>
        <time>2018-10-17T12:40:28Z</time>
      </trkpt>
      <trkpt lat="45.80853" lon="6.40962">
        <ele>1873</ele>
        <time>2018-10-17T12:40:29Z</time>
      </trkpt>
      <trkpt lat="45.80853" lon="6.40962">
        <ele>1873</ele>
        <time>2018-10-17T12:40:30Z</time>
      </trkpt>
      <trkpt lat="45.80855" lon="6.40962">
        <ele>1873</ele>
        <time>2018-10-17T12:40:31Z</time>
      </trkpt>
      <trkpt lat="45.80855" lon="6.40962">
        <ele>1873</ele>
        <time>2018-10-17T12:40:32Z</time>
      </trkpt>
      <trkpt lat="45.80855" lon="6.40962">
        <ele>1873</ele>
        <time>2018-10-17T12:40:33Z</time>
      </trkpt>
      <trkpt lat="45.80858" lon="6.40962">
        <ele>1872</ele>
        <time>2018-10-17T12:40:34Z</time>
      </trkpt>
      <trkpt lat="45.80858" lon="6.40962">
        <ele>1872</ele>
        <time>2018-10-17T12:40:35Z</time>
      </trkpt>
      <trkpt lat="45.8086" lon="6.40962">
        <ele>1872</ele>
        <time>2018-10-17T12:40:36Z</time>
      </trkpt>
      <trkpt lat="45.8086" lon="6.40962">
        <ele>1872</ele>
        <time>2018-10-17T12:40:37Z</time>
      </trkpt>
      <trkpt lat="45.80862" lon="6.40963">
        <ele>1871</ele>
        <time>2018-10-17T12:40:38Z</time>
      </trkpt>
      <trkpt lat="45.80862" lon="6.40963">
        <ele>1871</ele>
        <time>2018-10-17T12:40:39Z</time>
      </trkpt>
      <trkpt lat="45.80864" lon="6.40963">
        <ele>1871</ele>
        <time>2018-10-17T12:40:40Z</time>
      </trkpt>
      <trkpt lat="45.80864" lon="6.40963">
        <ele>1871</ele>
        <time>2018-10-17T12:40:41Z</time>
      </trkpt>
      <trkpt lat="45.80864" lon="6.40963">
        <ele>1871</ele>
        <time>2018-10-17T12:40:42Z</time>
      </trkpt>
      <trkpt lat="45.80867" lon="6.40964">
        <ele>1871</ele>
        <time>2018-10-17T12:40:43Z</time>
      </trkpt>
      <trkpt lat="45.80867" lon="6.40964">
        <ele>1871</ele>
        <time>2018-10-17T12:40:44Z</time>
      </trkpt>
      <trkpt lat="45.80869" lon="6.40964">
        <ele>1871</ele>
        <time>2018-10-17T12:40:45Z</time>
      </trkpt>
      <trkpt lat="45.80869" lon="6.40964">
        <ele>1871</ele>
        <time>2018-10-17T12:40:46Z</time>
      </trkpt>
      <trkpt lat="45.80869" lon="6.40964">
        <ele>1870</ele>
        <time>2018-10-17T12:40:47Z</time>
      </trkpt>
      <trkpt lat="45.8087" lon="6.40966">
        <ele>1871</ele>
        <time>2018-10-17T12:40:48Z</time>
      </trkpt>
      <trkpt lat="45.8087" lon="6.40966">
        <ele>1872</ele>
        <time>2018-10-17T12:40:49Z</time>
      </trkpt>
      <trkpt lat="45.80872" lon="6.40967">
        <ele>1872</ele>
        <time>2018-10-17T12:40:50Z</time>
      </trkpt>
      <trkpt lat="45.80872" lon="6.40967">
        <ele>1872</ele>
        <time>2018-10-17T12:40:51Z</time>
      </trkpt>
      <trkpt lat="45.80874" lon="6.40968">
        <ele>1872</ele>
        <time>2018-10-17T12:40:52Z</time>
      </trkpt>
      <trkpt lat="45.80874" lon="6.40968">
        <ele>1872</ele>
        <time>2018-10-17T12:40:53Z</time>
      </trkpt>
      <trkpt lat="45.80876" lon="6.40969">
        <ele>1872</ele>
        <time>2018-10-17T12:40:54Z</time>
      </trkpt>
      <trkpt lat="45.80876" lon="6.40969">
        <ele>1872</ele>
        <time>2018-10-17T12:40:55Z</time>
      </trkpt>
      <trkpt lat="45.80878" lon="6.4097">
        <ele>1872</ele>
        <time>2018-10-17T12:40:56Z</time>
      </trkpt>
      <trkpt lat="45.80878" lon="6.4097">
        <ele>1872</ele>
        <time>2018-10-17T12:40:57Z</time>
      </trkpt>
      <trkpt lat="45.80878" lon="6.4097">
        <ele>1872</ele>
        <time>2018-10-17T12:40:58Z</time>
      </trkpt>
      <trkpt lat="45.80878" lon="6.4097">
        <ele>1872</ele>
        <time>2018-10-17T12:40:59Z</time>
      </trkpt>
      <trkpt lat="45.80878" lon="6.4097">
        <ele>1872</ele>
        <time>2018-10-17T12:41:00Z</time>
      </trkpt>
      <trkpt lat="45.80878" lon="6.4097">
        <ele>1872</ele>
        <time>2018-10-17T12:41:01Z</time>
      </trkpt>
      <trkpt lat="45.80878" lon="6.4097">
        <ele>1872</ele>
        <time>2018-10-17T12:41:02Z</time>
      </trkpt>
      <trkpt lat="45.80878" lon="6.4097">
        <ele>1872</ele>
        <time>2018-10-17T12:41:03Z</time>
      </trkpt>
      <trkpt lat="45.80878" lon="6.4097">
        <ele>1872</ele>
        <time>2018-10-17T12:41:04Z</time>
      </trkpt>
      <trkpt lat="45.80878" lon="6.4097">
        <ele>1871</ele>
        <time>2018-10-17T12:41:05Z</time>
      </trkpt>
      <trkpt lat="45.80878" lon="6.4097">
        <ele>1871</ele>
        <time>2018-10-17T12:41:06Z</time>
      </trkpt>
      <trkpt lat="45.80878" lon="6.4097">
        <ele>1871</ele>
        <time>2018-10-17T12:41:07Z</time>
      </trkpt>
      <trkpt lat="45.8088" lon="6.40971">
        <ele>1871</ele>
        <time>2018-10-17T12:41:08Z</time>
      </trkpt>
      <trkpt lat="45.8088" lon="6.40971">
        <ele>1871</ele>
        <time>2018-10-17T12:41:09Z</time>
      </trkpt>
      <trkpt lat="45.80881" lon="6.40973">
        <ele>1871</ele>
        <time>2018-10-17T12:41:10Z</time>
      </trkpt>
      <trkpt lat="45.80881" lon="6.40973">
        <ele>1870</ele>
        <time>2018-10-17T12:41:11Z</time>
      </trkpt>
      <trkpt lat="45.80883" lon="6.40975">
        <ele>1870</ele>
        <time>2018-10-17T12:41:12Z</time>
      </trkpt>
      <trkpt lat="45.80883" lon="6.40975">
        <ele>1871</ele>
        <time>2018-10-17T12:41:13Z</time>
      </trkpt>
      <trkpt lat="45.80883" lon="6.40975">
        <ele>1871</ele>
        <time>2018-10-17T12:41:14Z</time>
      </trkpt>
      <trkpt lat="45.80885" lon="6.40977">
        <ele>1871</ele>
        <time>2018-10-17T12:41:15Z</time>
      </trkpt>
      <trkpt lat="45.80885" lon="6.40977">
        <ele>1871</ele>
        <time>2018-10-17T12:41:16Z</time>
      </trkpt>
      <trkpt lat="45.80885" lon="6.40977">
        <ele>1871</ele>
        <time>2018-10-17T12:41:17Z</time>
      </trkpt>
      <trkpt lat="45.80885" lon="6.40977">
        <ele>1871</ele>
        <time>2018-10-17T12:41:18Z</time>
      </trkpt>
      <trkpt lat="45.80885" lon="6.40977">
        <ele>1871</ele>
        <time>2018-10-17T12:41:19Z</time>
      </trkpt>
      <trkpt lat="45.80885" lon="6.40977">
        <ele>1871</ele>
        <time>2018-10-17T12:41:20Z</time>
      </trkpt>
      <trkpt lat="45.80885" lon="6.40977">
        <ele>1871</ele>
        <time>2018-10-17T12:41:21Z</time>
      </trkpt>
      <trkpt lat="45.80885" lon="6.40977">
        <ele>1871</ele>
        <time>2018-10-17T12:41:22Z</time>
      </trkpt>
      <trkpt lat="45.80885" lon="6.40977">
        <ele>1871</ele>
        <time>2018-10-17T12:41:23Z</time>
      </trkpt>
      <trkpt lat="45.80885" lon="6.40977">
        <ele>1871</ele>
        <time>2018-10-17T12:41:24Z</time>
      </trkpt>
      <trkpt lat="45.80885" lon="6.40977">
        <ele>1871</ele>
        <time>2018-10-17T12:41:25Z</time>
      </trkpt>
      <trkpt lat="45.80885" lon="6.40977">
        <ele>1871</ele>
        <time>2018-10-17T12:41:26Z</time>
      </trkpt>
      <trkpt lat="45.80885" lon="6.40977">
        <ele>1871</ele>
        <time>2018-10-17T12:41:27Z</time>
      </trkpt>
      <trkpt lat="45.80885" lon="6.40977">
        <ele>1871</ele>
        <time>2018-10-17T12:41:28Z</time>
      </trkpt>
      <trkpt lat="45.80885" lon="6.40977">
        <ele>1871</ele>
        <time>2018-10-17T12:41:29Z</time>
      </trkpt>
      <trkpt lat="45.80885" lon="6.40977">
        <ele>1871</ele>
        <time>2018-10-17T12:41:30Z</time>
      </trkpt>
      <trkpt lat="45.80885" lon="6.40977">
        <ele>1871</ele>
        <time>2018-10-17T12:41:31Z</time>
      </trkpt>
      <trkpt lat="45.80885" lon="6.40977">
        <ele>1871</ele>
        <time>2018-10-17T12:41:32Z</time>
      </trkpt>
      <trkpt lat="45.80887" lon="6.40979">
        <ele>1871</ele>
        <time>2018-10-17T12:41:33Z</time>
      </trkpt>
      <trkpt lat="45.80887" lon="6.40979">
        <ele>1871</ele>
        <time>2018-10-17T12:41:34Z</time>
      </trkpt>
      <trkpt lat="45.80887" lon="6.40979">
        <ele>1871</ele>
        <time>2018-10-17T12:41:35Z</time>
      </trkpt>
      <trkpt lat="45.80889" lon="6.4098">
        <ele>1871</ele>
        <time>2018-10-17T12:41:36Z</time>
      </trkpt>
      <trkpt lat="45.80889" lon="6.4098">
        <ele>1871</ele>
        <time>2018-10-17T12:41:37Z</time>
      </trkpt>
      <trkpt lat="45.80891" lon="6.40981">
        <ele>1870</ele>
        <time>2018-10-17T12:41:38Z</time>
      </trkpt>
      <trkpt lat="45.80891" lon="6.40981">
        <ele>1870</ele>
        <time>2018-10-17T12:41:39Z</time>
      </trkpt>
      <trkpt lat="45.80891" lon="6.40981">
        <ele>1870</ele>
        <time>2018-10-17T12:41:40Z</time>
      </trkpt>
      <trkpt lat="45.80891" lon="6.40981">
        <ele>1870</ele>
        <time>2018-10-17T12:41:41Z</time>
      </trkpt>
      <trkpt lat="45.80891" lon="6.40981">
        <ele>1870</ele>
        <time>2018-10-17T12:41:42Z</time>
      </trkpt>
      <trkpt lat="45.80893" lon="6.40982">
        <ele>1870</ele>
        <time>2018-10-17T12:41:43Z</time>
      </trkpt>
      <trkpt lat="45.80893" lon="6.40982">
        <ele>1870</ele>
        <time>2018-10-17T12:41:44Z</time>
      </trkpt>
      <trkpt lat="45.80895" lon="6.40981">
        <ele>1870</ele>
        <time>2018-10-17T12:41:45Z</time>
      </trkpt>
      <trkpt lat="45.80895" lon="6.40981">
        <ele>1869</ele>
        <time>2018-10-17T12:41:46Z</time>
      </trkpt>
      <trkpt lat="45.80897" lon="6.40982">
        <ele>1869</ele>
        <time>2018-10-17T12:41:47Z</time>
      </trkpt>
      <trkpt lat="45.80897" lon="6.40982">
        <ele>1869</ele>
        <time>2018-10-17T12:41:48Z</time>
      </trkpt>
      <trkpt lat="45.80899" lon="6.40981">
        <ele>1869</ele>
        <time>2018-10-17T12:41:49Z</time>
      </trkpt>
      <trkpt lat="45.80899" lon="6.40981">
        <ele>1868</ele>
        <time>2018-10-17T12:41:50Z</time>
      </trkpt>
      <trkpt lat="45.80901" lon="6.40981">
        <ele>1868</ele>
        <time>2018-10-17T12:41:51Z</time>
      </trkpt>
      <trkpt lat="45.80901" lon="6.40981">
        <ele>1868</ele>
        <time>2018-10-17T12:41:52Z</time>
      </trkpt>
      <trkpt lat="45.80903" lon="6.40979">
        <ele>1867</ele>
        <time>2018-10-17T12:41:53Z</time>
      </trkpt>
      <trkpt lat="45.80903" lon="6.40979">
        <ele>1866</ele>
        <time>2018-10-17T12:41:54Z</time>
      </trkpt>
      <trkpt lat="45.80904" lon="6.40977">
        <ele>1866</ele>
        <time>2018-10-17T12:41:55Z</time>
      </trkpt>
      <trkpt lat="45.80904" lon="6.40977">
        <ele>1865</ele>
        <time>2018-10-17T12:41:56Z</time>
      </trkpt>
      <trkpt lat="45.80906" lon="6.40975">
        <ele>1865</ele>
        <time>2018-10-17T12:41:57Z</time>
      </trkpt>
      <trkpt lat="45.80906" lon="6.40975">
        <ele>1865</ele>
        <time>2018-10-17T12:41:58Z</time>
      </trkpt>
      <trkpt lat="45.80906" lon="6.40975">
        <ele>1864</ele>
        <time>2018-10-17T12:41:59Z</time>
      </trkpt>
      <trkpt lat="45.8091" lon="6.40972">
        <ele>1864</ele>
        <time>2018-10-17T12:42:00Z</time>
      </trkpt>
      <trkpt lat="45.8091" lon="6.40972">
        <ele>1863</ele>
        <time>2018-10-17T12:42:01Z</time>
      </trkpt>
      <trkpt lat="45.80912" lon="6.40968">
        <ele>1863</ele>
        <time>2018-10-17T12:42:02Z</time>
      </trkpt>
      <trkpt lat="45.80912" lon="6.40968">
        <ele>1863</ele>
        <time>2018-10-17T12:42:03Z</time>
      </trkpt>
      <trkpt lat="45.80914" lon="6.40965">
        <ele>1863</ele>
        <time>2018-10-17T12:42:04Z</time>
      </trkpt>
      <trkpt lat="45.80914" lon="6.40965">
        <ele>1862</ele>
        <time>2018-10-17T12:42:05Z</time>
      </trkpt>
      <trkpt lat="45.80912" lon="6.40961">
        <ele>1861</ele>
        <time>2018-10-17T12:42:06Z</time>
      </trkpt>
      <trkpt lat="45.80912" lon="6.40961">
        <ele>1861</ele>
        <time>2018-10-17T12:42:07Z</time>
      </trkpt>
      <trkpt lat="45.80912" lon="6.40961">
        <ele>1860</ele>
        <time>2018-10-17T12:42:08Z</time>
      </trkpt>
      <trkpt lat="45.8091" lon="6.4096">
        <ele>1859</ele>
        <time>2018-10-17T12:42:09Z</time>
      </trkpt>
      <trkpt lat="45.8091" lon="6.4096">
        <ele>1859</ele>
        <time>2018-10-17T12:42:10Z</time>
      </trkpt>
      <trkpt lat="45.8091" lon="6.4096">
        <ele>1859</ele>
        <time>2018-10-17T12:42:11Z</time>
      </trkpt>
      <trkpt lat="45.80911" lon="6.40957">
        <ele>1859</ele>
        <time>2018-10-17T12:42:12Z</time>
      </trkpt>
      <trkpt lat="45.80911" lon="6.40957">
        <ele>1859</ele>
        <time>2018-10-17T12:42:13Z</time>
      </trkpt>
      <trkpt lat="45.80911" lon="6.40954">
        <ele>1858</ele>
        <time>2018-10-17T12:42:14Z</time>
      </trkpt>
      <trkpt lat="45.80911" lon="6.4095">
        <ele>1857</ele>
        <time>2018-10-17T12:42:15Z</time>
      </trkpt>
      <trkpt lat="45.80911" lon="6.4095">
        <ele>1857</ele>
        <time>2018-10-17T12:42:16Z</time>
      </trkpt>
      <trkpt lat="45.80911" lon="6.40947">
        <ele>1856</ele>
        <time>2018-10-17T12:42:17Z</time>
      </trkpt>
      <trkpt lat="45.80911" lon="6.40947">
        <ele>1855</ele>
        <time>2018-10-17T12:42:18Z</time>
      </trkpt>
      <trkpt lat="45.8091" lon="6.40943">
        <ele>1855</ele>
        <time>2018-10-17T12:42:19Z</time>
      </trkpt>
      <trkpt lat="45.8091" lon="6.40943">
        <ele>1854</ele>
        <time>2018-10-17T12:42:20Z</time>
      </trkpt>
      <trkpt lat="45.80911" lon="6.40939">
        <ele>1853</ele>
        <time>2018-10-17T12:42:21Z</time>
      </trkpt>
      <trkpt lat="45.80911" lon="6.40939">
        <ele>1852</ele>
        <time>2018-10-17T12:42:22Z</time>
      </trkpt>
      <trkpt lat="45.80913" lon="6.40939">
        <ele>1851</ele>
        <time>2018-10-17T12:42:23Z</time>
      </trkpt>
      <trkpt lat="45.80913" lon="6.40939">
        <ele>1851</ele>
        <time>2018-10-17T12:42:24Z</time>
      </trkpt>
      <trkpt lat="45.80916" lon="6.40937">
        <ele>1850</ele>
        <time>2018-10-17T12:42:25Z</time>
      </trkpt>
      <trkpt lat="45.80916" lon="6.40937">
        <ele>1850</ele>
        <time>2018-10-17T12:42:26Z</time>
      </trkpt>
      <trkpt lat="45.80918" lon="6.40935">
        <ele>1850</ele>
        <time>2018-10-17T12:42:27Z</time>
      </trkpt>
      <trkpt lat="45.80918" lon="6.40935">
        <ele>1850</ele>
        <time>2018-10-17T12:42:28Z</time>
      </trkpt>
      <trkpt lat="45.80918" lon="6.40935">
        <ele>1850</ele>
        <time>2018-10-17T12:42:29Z</time>
      </trkpt>
      <trkpt lat="45.80921" lon="6.40935">
        <ele>1849</ele>
        <time>2018-10-17T12:42:30Z</time>
      </trkpt>
      <trkpt lat="45.80921" lon="6.40935">
        <ele>1849</ele>
        <time>2018-10-17T12:42:31Z</time>
      </trkpt>
      <trkpt lat="45.80921" lon="6.40935">
        <ele>1849</ele>
        <time>2018-10-17T12:42:32Z</time>
      </trkpt>
      <trkpt lat="45.80921" lon="6.40935">
        <ele>1849</ele>
        <time>2018-10-17T12:42:33Z</time>
      </trkpt>
      <trkpt lat="45.80921" lon="6.40935">
        <ele>1849</ele>
        <time>2018-10-17T12:42:34Z</time>
      </trkpt>
      <trkpt lat="45.80921" lon="6.40935">
        <ele>1849</ele>
        <time>2018-10-17T12:42:35Z</time>
      </trkpt>
      <trkpt lat="45.80921" lon="6.40935">
        <ele>1849</ele>
        <time>2018-10-17T12:42:36Z</time>
      </trkpt>
      <trkpt lat="45.80921" lon="6.40935">
        <ele>1849</ele>
        <time>2018-10-17T12:42:37Z</time>
      </trkpt>
      <trkpt lat="45.80921" lon="6.40935">
        <ele>1849</ele>
        <time>2018-10-17T12:42:38Z</time>
      </trkpt>
      <trkpt lat="45.80921" lon="6.40935">
        <ele>1849</ele>
        <time>2018-10-17T12:42:39Z</time>
      </trkpt>
      <trkpt lat="45.80921" lon="6.40935">
        <ele>1849</ele>
        <time>2018-10-17T12:42:40Z</time>
      </trkpt>
      <trkpt lat="45.80921" lon="6.40935">
        <ele>1849</ele>
        <time>2018-10-17T12:42:41Z</time>
      </trkpt>
      <trkpt lat="45.80921" lon="6.40935">
        <ele>1849</ele>
        <time>2018-10-17T12:42:42Z</time>
      </trkpt>
      <trkpt lat="45.80921" lon="6.40935">
        <ele>1849</ele>
        <time>2018-10-17T12:42:43Z</time>
      </trkpt>
      <trkpt lat="45.80921" lon="6.40935">
        <ele>1849</ele>
        <time>2018-10-17T12:42:44Z</time>
      </trkpt>
      <trkpt lat="45.80921" lon="6.40935">
        <ele>1849</ele>
        <time>2018-10-17T12:42:45Z</time>
      </trkpt>
      <trkpt lat="45.80921" lon="6.40935">
        <ele>1848</ele>
        <time>2018-10-17T12:42:46Z</time>
      </trkpt>
      <trkpt lat="45.80921" lon="6.40935">
        <ele>1848</ele>
        <time>2018-10-17T12:42:47Z</time>
      </trkpt>
      <trkpt lat="45.80921" lon="6.40935">
        <ele>1848</ele>
        <time>2018-10-17T12:42:48Z</time>
      </trkpt>
      <trkpt lat="45.80921" lon="6.40935">
        <ele>1848</ele>
        <time>2018-10-17T12:42:49Z</time>
      </trkpt>
      <trkpt lat="45.80921" lon="6.40935">
        <ele>1848</ele>
        <time>2018-10-17T12:42:50Z</time>
      </trkpt>
      <trkpt lat="45.80921" lon="6.40935">
        <ele>1848</ele>
        <time>2018-10-17T12:42:51Z</time>
      </trkpt>
      <trkpt lat="45.80921" lon="6.40935">
        <ele>1848</ele>
        <time>2018-10-17T12:42:52Z</time>
      </trkpt>
      <trkpt lat="45.80921" lon="6.40935">
        <ele>1848</ele>
        <time>2018-10-17T12:42:53Z</time>
      </trkpt>
      <trkpt lat="45.80921" lon="6.40935">
        <ele>1848</ele>
        <time>2018-10-17T12:42:54Z</time>
      </trkpt>
      <trkpt lat="45.80921" lon="6.40935">
        <ele>1848</ele>
        <time>2018-10-17T12:42:55Z</time>
      </trkpt>
      <trkpt lat="45.80921" lon="6.40935">
        <ele>1848</ele>
        <time>2018-10-17T12:42:56Z</time>
      </trkpt>
      <trkpt lat="45.80921" lon="6.40935">
        <ele>1848</ele>
        <time>2018-10-17T12:42:57Z</time>
      </trkpt>
      <trkpt lat="45.80921" lon="6.40935">
        <ele>1848</ele>
        <time>2018-10-17T12:42:58Z</time>
      </trkpt>
      <trkpt lat="45.80921" lon="6.40935">
        <ele>1848</ele>
        <time>2018-10-17T12:42:59Z</time>
      </trkpt>
      <trkpt lat="45.80921" lon="6.40935">
        <ele>1848</ele>
        <time>2018-10-17T12:43:00Z</time>
      </trkpt>
      <trkpt lat="45.80921" lon="6.40935">
        <ele>1848</ele>
        <time>2018-10-17T12:43:01Z</time>
      </trkpt>
      <trkpt lat="45.80921" lon="6.40935">
        <ele>1848</ele>
        <time>2018-10-17T12:43:02Z</time>
      </trkpt>
      <trkpt lat="45.80923" lon="6.40934">
        <ele>1848</ele>
        <time>2018-10-17T12:43:03Z</time>
      </trkpt>
      <trkpt lat="45.80923" lon="6.40934">
        <ele>1848</ele>
        <time>2018-10-17T12:43:04Z</time>
      </trkpt>
      <trkpt lat="45.80923" lon="6.40934">
        <ele>1848</ele>
        <time>2018-10-17T12:43:05Z</time>
      </trkpt>
      <trkpt lat="45.80925" lon="6.40933">
        <ele>1847</ele>
        <time>2018-10-17T12:43:06Z</time>
      </trkpt>
      <trkpt lat="45.80925" lon="6.40933">
        <ele>1847</ele>
        <time>2018-10-17T12:43:07Z</time>
      </trkpt>
      <trkpt lat="45.80925" lon="6.40933">
        <ele>1847</ele>
        <time>2018-10-17T12:43:08Z</time>
      </trkpt>
      <trkpt lat="45.80927" lon="6.40933">
        <ele>1847</ele>
        <time>2018-10-17T12:43:09Z</time>
      </trkpt>
      <trkpt lat="45.80927" lon="6.40933">
        <ele>1846</ele>
        <time>2018-10-17T12:43:10Z</time>
      </trkpt>
      <trkpt lat="45.80927" lon="6.40933">
        <ele>1846</ele>
        <time>2018-10-17T12:43:11Z</time>
      </trkpt>
      <trkpt lat="45.80929" lon="6.40931">
        <ele>1846</ele>
        <time>2018-10-17T12:43:12Z</time>
      </trkpt>
      <trkpt lat="45.80929" lon="6.40931">
        <ele>1846</ele>
        <time>2018-10-17T12:43:13Z</time>
      </trkpt>
      <trkpt lat="45.80929" lon="6.40931">
        <ele>1846</ele>
        <time>2018-10-17T12:43:14Z</time>
      </trkpt>
      <trkpt lat="45.80932" lon="6.40931">
        <ele>1845</ele>
        <time>2018-10-17T12:43:15Z</time>
      </trkpt>
      <trkpt lat="45.80932" lon="6.40931">
        <ele>1845</ele>
        <time>2018-10-17T12:43:16Z</time>
      </trkpt>
      <trkpt lat="45.80934" lon="6.4093">
        <ele>1844</ele>
        <time>2018-10-17T12:43:17Z</time>
      </trkpt>
      <trkpt lat="45.80934" lon="6.4093">
        <ele>1844</ele>
        <time>2018-10-17T12:43:18Z</time>
      </trkpt>
      <trkpt lat="45.80936" lon="6.40929">
        <ele>1844</ele>
        <time>2018-10-17T12:43:19Z</time>
      </trkpt>
      <trkpt lat="45.80936" lon="6.40929">
        <ele>1844</ele>
        <time>2018-10-17T12:43:20Z</time>
      </trkpt>
      <trkpt lat="45.80937" lon="6.40928">
        <ele>1844</ele>
        <time>2018-10-17T12:43:21Z</time>
      </trkpt>
      <trkpt lat="45.80937" lon="6.40928">
        <ele>1843</ele>
        <time>2018-10-17T12:43:22Z</time>
      </trkpt>
      <trkpt lat="45.80939" lon="6.40926">
        <ele>1843</ele>
        <time>2018-10-17T12:43:23Z</time>
      </trkpt>
      <trkpt lat="45.80939" lon="6.40926">
        <ele>1843</ele>
        <time>2018-10-17T12:43:24Z</time>
      </trkpt>
      <trkpt lat="45.80941" lon="6.40924">
        <ele>1843</ele>
        <time>2018-10-17T12:43:25Z</time>
      </trkpt>
      <trkpt lat="45.80941" lon="6.40924">
        <ele>1843</ele>
        <time>2018-10-17T12:43:26Z</time>
      </trkpt>
      <trkpt lat="45.80943" lon="6.40923">
        <ele>1843</ele>
        <time>2018-10-17T12:43:27Z</time>
      </trkpt>
      <trkpt lat="45.80943" lon="6.40923">
        <ele>1843</ele>
        <time>2018-10-17T12:43:28Z</time>
      </trkpt>
      <trkpt lat="45.80943" lon="6.40923">
        <ele>1842</ele>
        <time>2018-10-17T12:43:29Z</time>
      </trkpt>
      <trkpt lat="45.80945" lon="6.40921">
        <ele>1842</ele>
        <time>2018-10-17T12:43:30Z</time>
      </trkpt>
      <trkpt lat="45.80945" lon="6.40921">
        <ele>1842</ele>
        <time>2018-10-17T12:43:31Z</time>
      </trkpt>
      <trkpt lat="45.80947" lon="6.40921">
        <ele>1842</ele>
        <time>2018-10-17T12:43:32Z</time>
      </trkpt>
      <trkpt lat="45.80947" lon="6.40921">
        <ele>1842</ele>
        <time>2018-10-17T12:43:33Z</time>
      </trkpt>
      <trkpt lat="45.80949" lon="6.4092">
        <ele>1842</ele>
        <time>2018-10-17T12:43:34Z</time>
      </trkpt>
      <trkpt lat="45.80949" lon="6.4092">
        <ele>1842</ele>
        <time>2018-10-17T12:43:35Z</time>
      </trkpt>
      <trkpt lat="45.80952" lon="6.40918">
        <ele>1842</ele>
        <time>2018-10-17T12:43:36Z</time>
      </trkpt>
      <trkpt lat="45.80952" lon="6.40918">
        <ele>1842</ele>
        <time>2018-10-17T12:43:37Z</time>
      </trkpt>
      <trkpt lat="45.80953" lon="6.40916">
        <ele>1842</ele>
        <time>2018-10-17T12:43:38Z</time>
      </trkpt>
      <trkpt lat="45.80953" lon="6.40916">
        <ele>1842</ele>
        <time>2018-10-17T12:43:39Z</time>
      </trkpt>
      <trkpt lat="45.80955" lon="6.40914">
        <ele>1841</ele>
        <time>2018-10-17T12:43:40Z</time>
      </trkpt>
      <trkpt lat="45.80955" lon="6.40914">
        <ele>1841</ele>
        <time>2018-10-17T12:43:41Z</time>
      </trkpt>
      <trkpt lat="45.80956" lon="6.40912">
        <ele>1841</ele>
        <time>2018-10-17T12:43:42Z</time>
      </trkpt>
      <trkpt lat="45.80956" lon="6.40912">
        <ele>1840</ele>
        <time>2018-10-17T12:43:43Z</time>
      </trkpt>
      <trkpt lat="45.80958" lon="6.40911">
        <ele>1840</ele>
        <time>2018-10-17T12:43:44Z</time>
      </trkpt>
      <trkpt lat="45.80958" lon="6.40911">
        <ele>1840</ele>
        <time>2018-10-17T12:43:45Z</time>
      </trkpt>
      <trkpt lat="45.80961" lon="6.40909">
        <ele>1840</ele>
        <time>2018-10-17T12:43:46Z</time>
      </trkpt>
      <trkpt lat="45.80961" lon="6.40909">
        <ele>1840</ele>
        <time>2018-10-17T12:43:47Z</time>
      </trkpt>
      <trkpt lat="45.80963" lon="6.40907">
        <ele>1840</ele>
        <time>2018-10-17T12:43:48Z</time>
      </trkpt>
      <trkpt lat="45.80963" lon="6.40907">
        <ele>1839</ele>
        <time>2018-10-17T12:43:49Z</time>
      </trkpt>
      <trkpt lat="45.80964" lon="6.40905">
        <ele>1838</ele>
        <time>2018-10-17T12:43:50Z</time>
      </trkpt>
      <trkpt lat="45.80964" lon="6.40905">
        <ele>1838</ele>
        <time>2018-10-17T12:43:51Z</time>
      </trkpt>
      <trkpt lat="45.80966" lon="6.40903">
        <ele>1838</ele>
        <time>2018-10-17T12:43:52Z</time>
      </trkpt>
      <trkpt lat="45.80966" lon="6.40903">
        <ele>1837</ele>
        <time>2018-10-17T12:43:53Z</time>
      </trkpt>
      <trkpt lat="45.80969" lon="6.40901">
        <ele>1837</ele>
        <time>2018-10-17T12:43:54Z</time>
      </trkpt>
      <trkpt lat="45.80969" lon="6.40901">
        <ele>1837</ele>
        <time>2018-10-17T12:43:55Z</time>
      </trkpt>
      <trkpt lat="45.80971" lon="6.409">
        <ele>1837</ele>
        <time>2018-10-17T12:43:56Z</time>
      </trkpt>
      <trkpt lat="45.80971" lon="6.409">
        <ele>1837</ele>
        <time>2018-10-17T12:43:57Z</time>
      </trkpt>
      <trkpt lat="45.80973" lon="6.40898">
        <ele>1837</ele>
        <time>2018-10-17T12:43:58Z</time>
      </trkpt>
      <trkpt lat="45.80973" lon="6.40898">
        <ele>1837</ele>
        <time>2018-10-17T12:43:59Z</time>
      </trkpt>
      <trkpt lat="45.80976" lon="6.40897">
        <ele>1836</ele>
        <time>2018-10-17T12:44:00Z</time>
      </trkpt>
      <trkpt lat="45.80976" lon="6.40897">
        <ele>1836</ele>
        <time>2018-10-17T12:44:01Z</time>
      </trkpt>
      <trkpt lat="45.80978" lon="6.40895">
        <ele>1836</ele>
        <time>2018-10-17T12:44:02Z</time>
      </trkpt>
      <trkpt lat="45.80978" lon="6.40895">
        <ele>1836</ele>
        <time>2018-10-17T12:44:03Z</time>
      </trkpt>
      <trkpt lat="45.8098" lon="6.40893">
        <ele>1836</ele>
        <time>2018-10-17T12:44:04Z</time>
      </trkpt>
      <trkpt lat="45.8098" lon="6.40893">
        <ele>1836</ele>
        <time>2018-10-17T12:44:05Z</time>
      </trkpt>
      <trkpt lat="45.80982" lon="6.40892">
        <ele>1835</ele>
        <time>2018-10-17T12:44:06Z</time>
      </trkpt>
      <trkpt lat="45.80982" lon="6.40892">
        <ele>1835</ele>
        <time>2018-10-17T12:44:07Z</time>
      </trkpt>
      <trkpt lat="45.80985" lon="6.40891">
        <ele>1835</ele>
        <time>2018-10-17T12:44:08Z</time>
      </trkpt>
      <trkpt lat="45.80985" lon="6.40891">
        <ele>1835</ele>
        <time>2018-10-17T12:44:09Z</time>
      </trkpt>
      <trkpt lat="45.80986" lon="6.4089">
        <ele>1835</ele>
        <time>2018-10-17T12:44:10Z</time>
      </trkpt>
      <trkpt lat="45.80986" lon="6.4089">
        <ele>1835</ele>
        <time>2018-10-17T12:44:11Z</time>
      </trkpt>
      <trkpt lat="45.80986" lon="6.4089">
        <ele>1835</ele>
        <time>2018-10-17T12:44:12Z</time>
      </trkpt>
      <trkpt lat="45.80989" lon="6.40888">
        <ele>1835</ele>
        <time>2018-10-17T12:44:13Z</time>
      </trkpt>
      <trkpt lat="45.80989" lon="6.40888">
        <ele>1835</ele>
        <time>2018-10-17T12:44:14Z</time>
      </trkpt>
      <trkpt lat="45.80991" lon="6.40887">
        <ele>1835</ele>
        <time>2018-10-17T12:44:15Z</time>
      </trkpt>
      <trkpt lat="45.80991" lon="6.40887">
        <ele>1834</ele>
        <time>2018-10-17T12:44:16Z</time>
      </trkpt>
      <trkpt lat="45.80993" lon="6.40887">
        <ele>1834</ele>
        <time>2018-10-17T12:44:17Z</time>
      </trkpt>
      <trkpt lat="45.80993" lon="6.40887">
        <ele>1834</ele>
        <time>2018-10-17T12:44:18Z</time>
      </trkpt>
      <trkpt lat="45.80995" lon="6.40886">
        <ele>1834</ele>
        <time>2018-10-17T12:44:19Z</time>
      </trkpt>
      <trkpt lat="45.80995" lon="6.40886">
        <ele>1834</ele>
        <time>2018-10-17T12:44:20Z</time>
      </trkpt>
      <trkpt lat="45.80997" lon="6.40886">
        <ele>1834</ele>
        <time>2018-10-17T12:44:21Z</time>
      </trkpt>
      <trkpt lat="45.80997" lon="6.40886">
        <ele>1834</ele>
        <time>2018-10-17T12:44:22Z</time>
      </trkpt>
      <trkpt lat="45.80999" lon="6.40884">
        <ele>1834</ele>
        <time>2018-10-17T12:44:23Z</time>
      </trkpt>
      <trkpt lat="45.80999" lon="6.40884">
        <ele>1833</ele>
        <time>2018-10-17T12:44:24Z</time>
      </trkpt>
      <trkpt lat="45.80999" lon="6.40884">
        <ele>1832</ele>
        <time>2018-10-17T12:44:25Z</time>
      </trkpt>
      <trkpt lat="45.81002" lon="6.40882">
        <ele>1832</ele>
        <time>2018-10-17T12:44:26Z</time>
      </trkpt>
      <trkpt lat="45.81002" lon="6.40882">
        <ele>1832</ele>
        <time>2018-10-17T12:44:27Z</time>
      </trkpt>
      <trkpt lat="45.81003" lon="6.4088">
        <ele>1832</ele>
        <time>2018-10-17T12:44:28Z</time>
      </trkpt>
      <trkpt lat="45.81003" lon="6.4088">
        <ele>1832</ele>
        <time>2018-10-17T12:44:29Z</time>
      </trkpt>
      <trkpt lat="45.81005" lon="6.40878">
        <ele>1832</ele>
        <time>2018-10-17T12:44:30Z</time>
      </trkpt>
      <trkpt lat="45.81005" lon="6.40878">
        <ele>1831</ele>
        <time>2018-10-17T12:44:31Z</time>
      </trkpt>
      <trkpt lat="45.81006" lon="6.40877">
        <ele>1831</ele>
        <time>2018-10-17T12:44:32Z</time>
      </trkpt>
      <trkpt lat="45.81006" lon="6.40877">
        <ele>1831</ele>
        <time>2018-10-17T12:44:33Z</time>
      </trkpt>
      <trkpt lat="45.81009" lon="6.40875">
        <ele>1830</ele>
        <time>2018-10-17T12:44:34Z</time>
      </trkpt>
      <trkpt lat="45.81009" lon="6.40875">
        <ele>1830</ele>
        <time>2018-10-17T12:44:35Z</time>
      </trkpt>
      <trkpt lat="45.81011" lon="6.40875">
        <ele>1830</ele>
        <time>2018-10-17T12:44:36Z</time>
      </trkpt>
      <trkpt lat="45.81011" lon="6.40875">
        <ele>1830</ele>
        <time>2018-10-17T12:44:37Z</time>
      </trkpt>
      <trkpt lat="45.81013" lon="6.40874">
        <ele>1830</ele>
        <time>2018-10-17T12:44:38Z</time>
      </trkpt>
      <trkpt lat="45.81013" lon="6.40874">
        <ele>1830</ele>
        <time>2018-10-17T12:44:39Z</time>
      </trkpt>
      <trkpt lat="45.81015" lon="6.40873">
        <ele>1830</ele>
        <time>2018-10-17T12:44:40Z</time>
      </trkpt>
      <trkpt lat="45.81015" lon="6.40873">
        <ele>1830</ele>
        <time>2018-10-17T12:44:41Z</time>
      </trkpt>
      <trkpt lat="45.81015" lon="6.40873">
        <ele>1830</ele>
        <time>2018-10-17T12:44:42Z</time>
      </trkpt>
      <trkpt lat="45.81017" lon="6.40871">
        <ele>1829</ele>
        <time>2018-10-17T12:44:43Z</time>
      </trkpt>
      <trkpt lat="45.81017" lon="6.40871">
        <ele>1829</ele>
        <time>2018-10-17T12:44:44Z</time>
      </trkpt>
      <trkpt lat="45.81019" lon="6.40871">
        <ele>1829</ele>
        <time>2018-10-17T12:44:45Z</time>
      </trkpt>
      <trkpt lat="45.81019" lon="6.40871">
        <ele>1829</ele>
        <time>2018-10-17T12:44:46Z</time>
      </trkpt>
      <trkpt lat="45.81019" lon="6.40871">
        <ele>1829</ele>
        <time>2018-10-17T12:44:47Z</time>
      </trkpt>
      <trkpt lat="45.81022" lon="6.40869">
        <ele>1829</ele>
        <time>2018-10-17T12:44:48Z</time>
      </trkpt>
      <trkpt lat="45.81022" lon="6.40869">
        <ele>1829</ele>
        <time>2018-10-17T12:44:49Z</time>
      </trkpt>
      <trkpt lat="45.81024" lon="6.40868">
        <ele>1829</ele>
        <time>2018-10-17T12:44:50Z</time>
      </trkpt>
      <trkpt lat="45.81024" lon="6.40868">
        <ele>1829</ele>
        <time>2018-10-17T12:44:51Z</time>
      </trkpt>
      <trkpt lat="45.81026" lon="6.40867">
        <ele>1829</ele>
        <time>2018-10-17T12:44:52Z</time>
      </trkpt>
      <trkpt lat="45.81026" lon="6.40867">
        <ele>1829</ele>
        <time>2018-10-17T12:44:53Z</time>
      </trkpt>
      <trkpt lat="45.81028" lon="6.40864">
        <ele>1829</ele>
        <time>2018-10-17T12:44:54Z</time>
      </trkpt>
      <trkpt lat="45.81028" lon="6.40864">
        <ele>1829</ele>
        <time>2018-10-17T12:44:55Z</time>
      </trkpt>
      <trkpt lat="45.8103" lon="6.40862">
        <ele>1829</ele>
        <time>2018-10-17T12:44:56Z</time>
      </trkpt>
      <trkpt lat="45.8103" lon="6.40862">
        <ele>1828</ele>
        <time>2018-10-17T12:44:57Z</time>
      </trkpt>
      <trkpt lat="45.81032" lon="6.4086">
        <ele>1828</ele>
        <time>2018-10-17T12:44:58Z</time>
      </trkpt>
      <trkpt lat="45.81032" lon="6.4086">
        <ele>1828</ele>
        <time>2018-10-17T12:44:59Z</time>
      </trkpt>
      <trkpt lat="45.81035" lon="6.40859">
        <ele>1828</ele>
        <time>2018-10-17T12:45:00Z</time>
      </trkpt>
      <trkpt lat="45.81035" lon="6.40859">
        <ele>1828</ele>
        <time>2018-10-17T12:45:01Z</time>
      </trkpt>
      <trkpt lat="45.81037" lon="6.40858">
        <ele>1828</ele>
        <time>2018-10-17T12:45:02Z</time>
      </trkpt>
      <trkpt lat="45.81037" lon="6.40858">
        <ele>1828</ele>
        <time>2018-10-17T12:45:03Z</time>
      </trkpt>
      <trkpt lat="45.81039" lon="6.40857">
        <ele>1828</ele>
        <time>2018-10-17T12:45:04Z</time>
      </trkpt>
      <trkpt lat="45.81039" lon="6.40857">
        <ele>1828</ele>
        <time>2018-10-17T12:45:05Z</time>
      </trkpt>
      <trkpt lat="45.81041" lon="6.40858">
        <ele>1828</ele>
        <time>2018-10-17T12:45:06Z</time>
      </trkpt>
      <trkpt lat="45.81041" lon="6.40858">
        <ele>1828</ele>
        <time>2018-10-17T12:45:07Z</time>
      </trkpt>
      <trkpt lat="45.81043" lon="6.40858">
        <ele>1828</ele>
        <time>2018-10-17T12:45:08Z</time>
      </trkpt>
      <trkpt lat="45.81043" lon="6.40858">
        <ele>1828</ele>
        <time>2018-10-17T12:45:09Z</time>
      </trkpt>
      <trkpt lat="45.81045" lon="6.40857">
        <ele>1828</ele>
        <time>2018-10-17T12:45:10Z</time>
      </trkpt>
      <trkpt lat="45.81045" lon="6.40857">
        <ele>1827</ele>
        <time>2018-10-17T12:45:11Z</time>
      </trkpt>
      <trkpt lat="45.81047" lon="6.40858">
        <ele>1827</ele>
        <time>2018-10-17T12:45:12Z</time>
      </trkpt>
      <trkpt lat="45.81047" lon="6.40858">
        <ele>1827</ele>
        <time>2018-10-17T12:45:13Z</time>
      </trkpt>
      <trkpt lat="45.81047" lon="6.40858">
        <ele>1827</ele>
        <time>2018-10-17T12:45:14Z</time>
      </trkpt>
      <trkpt lat="45.81049" lon="6.40858">
        <ele>1827</ele>
        <time>2018-10-17T12:45:15Z</time>
      </trkpt>
      <trkpt lat="45.81049" lon="6.40858">
        <ele>1827</ele>
        <time>2018-10-17T12:45:16Z</time>
      </trkpt>
      <trkpt lat="45.81051" lon="6.40858">
        <ele>1827</ele>
        <time>2018-10-17T12:45:17Z</time>
      </trkpt>
      <trkpt lat="45.81051" lon="6.40858">
        <ele>1827</ele>
        <time>2018-10-17T12:45:18Z</time>
      </trkpt>
      <trkpt lat="45.81053" lon="6.40859">
        <ele>1827</ele>
        <time>2018-10-17T12:45:19Z</time>
      </trkpt>
      <trkpt lat="45.81053" lon="6.40859">
        <ele>1827</ele>
        <time>2018-10-17T12:45:20Z</time>
      </trkpt>
      <trkpt lat="45.81055" lon="6.40859">
        <ele>1827</ele>
        <time>2018-10-17T12:45:21Z</time>
      </trkpt>
      <trkpt lat="45.81055" lon="6.40859">
        <ele>1827</ele>
        <time>2018-10-17T12:45:22Z</time>
      </trkpt>
      <trkpt lat="45.81057" lon="6.40857">
        <ele>1827</ele>
        <time>2018-10-17T12:45:23Z</time>
      </trkpt>
      <trkpt lat="45.81057" lon="6.40857">
        <ele>1827</ele>
        <time>2018-10-17T12:45:24Z</time>
      </trkpt>
      <trkpt lat="45.81059" lon="6.40855">
        <ele>1826</ele>
        <time>2018-10-17T12:45:25Z</time>
      </trkpt>
      <trkpt lat="45.81059" lon="6.40855">
        <ele>1826</ele>
        <time>2018-10-17T12:45:26Z</time>
      </trkpt>
      <trkpt lat="45.81061" lon="6.40853">
        <ele>1826</ele>
        <time>2018-10-17T12:45:27Z</time>
      </trkpt>
      <trkpt lat="45.81061" lon="6.40853">
        <ele>1826</ele>
        <time>2018-10-17T12:45:28Z</time>
      </trkpt>
      <trkpt lat="45.81062" lon="6.40852">
        <ele>1826</ele>
        <time>2018-10-17T12:45:29Z</time>
      </trkpt>
      <trkpt lat="45.81062" lon="6.40852">
        <ele>1826</ele>
        <time>2018-10-17T12:45:30Z</time>
      </trkpt>
      <trkpt lat="45.81064" lon="6.4085">
        <ele>1826</ele>
        <time>2018-10-17T12:45:31Z</time>
      </trkpt>
      <trkpt lat="45.81064" lon="6.4085">
        <ele>1826</ele>
        <time>2018-10-17T12:45:32Z</time>
      </trkpt>
      <trkpt lat="45.81066" lon="6.40849">
        <ele>1825</ele>
        <time>2018-10-17T12:45:33Z</time>
      </trkpt>
      <trkpt lat="45.81066" lon="6.40849">
        <ele>1825</ele>
        <time>2018-10-17T12:45:34Z</time>
      </trkpt>
      <trkpt lat="45.81066" lon="6.40849">
        <ele>1825</ele>
        <time>2018-10-17T12:45:35Z</time>
      </trkpt>
      <trkpt lat="45.81066" lon="6.40849">
        <ele>1825</ele>
        <time>2018-10-17T12:45:36Z</time>
      </trkpt>
      <trkpt lat="45.81066" lon="6.40849">
        <ele>1825</ele>
        <time>2018-10-17T12:45:37Z</time>
      </trkpt>
      <trkpt lat="45.81066" lon="6.40849">
        <ele>1825</ele>
        <time>2018-10-17T12:45:38Z</time>
      </trkpt>
      <trkpt lat="45.81066" lon="6.40849">
        <ele>1825</ele>
        <time>2018-10-17T12:45:39Z</time>
      </trkpt>
      <trkpt lat="45.81068" lon="6.40848">
        <ele>1825</ele>
        <time>2018-10-17T12:45:40Z</time>
      </trkpt>
      <trkpt lat="45.81068" lon="6.40848">
        <ele>1825</ele>
        <time>2018-10-17T12:45:41Z</time>
      </trkpt>
      <trkpt lat="45.8107" lon="6.40846">
        <ele>1825</ele>
        <time>2018-10-17T12:45:42Z</time>
      </trkpt>
      <trkpt lat="45.8107" lon="6.40846">
        <ele>1824</ele>
        <time>2018-10-17T12:45:43Z</time>
      </trkpt>
      <trkpt lat="45.81072" lon="6.40844">
        <ele>1824</ele>
        <time>2018-10-17T12:45:44Z</time>
      </trkpt>
      <trkpt lat="45.81072" lon="6.40844">
        <ele>1824</ele>
        <time>2018-10-17T12:45:45Z</time>
      </trkpt>
      <trkpt lat="45.81075" lon="6.40841">
        <ele>1824</ele>
        <time>2018-10-17T12:45:46Z</time>
      </trkpt>
      <trkpt lat="45.81075" lon="6.40841">
        <ele>1824</ele>
        <time>2018-10-17T12:45:47Z</time>
      </trkpt>
      <trkpt lat="45.81077" lon="6.40839">
        <ele>1824</ele>
        <time>2018-10-17T12:45:48Z</time>
      </trkpt>
      <trkpt lat="45.81077" lon="6.40839">
        <ele>1824</ele>
        <time>2018-10-17T12:45:49Z</time>
      </trkpt>
      <trkpt lat="45.81077" lon="6.40839">
        <ele>1824</ele>
        <time>2018-10-17T12:45:50Z</time>
      </trkpt>
      <trkpt lat="45.81077" lon="6.40839">
        <ele>1824</ele>
        <time>2018-10-17T12:45:51Z</time>
      </trkpt>
      <trkpt lat="45.81079" lon="6.40837">
        <ele>1824</ele>
        <time>2018-10-17T12:45:52Z</time>
      </trkpt>
      <trkpt lat="45.81079" lon="6.40837">
        <ele>1824</ele>
        <time>2018-10-17T12:45:53Z</time>
      </trkpt>
      <trkpt lat="45.81081" lon="6.40834">
        <ele>1824</ele>
        <time>2018-10-17T12:45:54Z</time>
      </trkpt>
      <trkpt lat="45.81081" lon="6.40834">
        <ele>1824</ele>
        <time>2018-10-17T12:45:55Z</time>
      </trkpt>
      <trkpt lat="45.81083" lon="6.40831">
        <ele>1824</ele>
        <time>2018-10-17T12:45:56Z</time>
      </trkpt>
      <trkpt lat="45.81083" lon="6.40831">
        <ele>1824</ele>
        <time>2018-10-17T12:45:57Z</time>
      </trkpt>
      <trkpt lat="45.81085" lon="6.40828">
        <ele>1824</ele>
        <time>2018-10-17T12:45:58Z</time>
      </trkpt>
      <trkpt lat="45.81085" lon="6.40828">
        <ele>1824</ele>
        <time>2018-10-17T12:45:59Z</time>
      </trkpt>
      <trkpt lat="45.81087" lon="6.40826">
        <ele>1824</ele>
        <time>2018-10-17T12:46:00Z</time>
      </trkpt>
      <trkpt lat="45.81087" lon="6.40826">
        <ele>1823</ele>
        <time>2018-10-17T12:46:01Z</time>
      </trkpt>
      <trkpt lat="45.81089" lon="6.40823">
        <ele>1823</ele>
        <time>2018-10-17T12:46:02Z</time>
      </trkpt>
      <trkpt lat="45.81089" lon="6.40823">
        <ele>1823</ele>
        <time>2018-10-17T12:46:03Z</time>
      </trkpt>
      <trkpt lat="45.81091" lon="6.4082">
        <ele>1823</ele>
        <time>2018-10-17T12:46:04Z</time>
      </trkpt>
      <trkpt lat="45.81091" lon="6.4082">
        <ele>1823</ele>
        <time>2018-10-17T12:46:05Z</time>
      </trkpt>
      <trkpt lat="45.81093" lon="6.40816">
        <ele>1822</ele>
        <time>2018-10-17T12:46:06Z</time>
      </trkpt>
      <trkpt lat="45.81093" lon="6.40816">
        <ele>1822</ele>
        <time>2018-10-17T12:46:07Z</time>
      </trkpt>
      <trkpt lat="45.81095" lon="6.40813">
        <ele>1822</ele>
        <time>2018-10-17T12:46:08Z</time>
      </trkpt>
      <trkpt lat="45.81095" lon="6.40813">
        <ele>1822</ele>
        <time>2018-10-17T12:46:09Z</time>
      </trkpt>
      <trkpt lat="45.81097" lon="6.4081">
        <ele>1822</ele>
        <time>2018-10-17T12:46:10Z</time>
      </trkpt>
      <trkpt lat="45.81097" lon="6.4081">
        <ele>1821</ele>
        <time>2018-10-17T12:46:11Z</time>
      </trkpt>
      <trkpt lat="45.81098" lon="6.40808">
        <ele>1821</ele>
        <time>2018-10-17T12:46:12Z</time>
      </trkpt>
      <trkpt lat="45.81098" lon="6.40808">
        <ele>1821</ele>
        <time>2018-10-17T12:46:13Z</time>
      </trkpt>
      <trkpt lat="45.811" lon="6.40804">
        <ele>1821</ele>
        <time>2018-10-17T12:46:14Z</time>
      </trkpt>
      <trkpt lat="45.811" lon="6.40804">
        <ele>1821</ele>
        <time>2018-10-17T12:46:15Z</time>
      </trkpt>
      <trkpt lat="45.81101" lon="6.40802">
        <ele>1821</ele>
        <time>2018-10-17T12:46:16Z</time>
      </trkpt>
      <trkpt lat="45.81101" lon="6.40802">
        <ele>1821</ele>
        <time>2018-10-17T12:46:17Z</time>
      </trkpt>
      <trkpt lat="45.81102" lon="6.40799">
        <ele>1820</ele>
        <time>2018-10-17T12:46:18Z</time>
      </trkpt>
      <trkpt lat="45.81102" lon="6.40799">
        <ele>1819</ele>
        <time>2018-10-17T12:46:19Z</time>
      </trkpt>
      <trkpt lat="45.81104" lon="6.40797">
        <ele>1819</ele>
        <time>2018-10-17T12:46:20Z</time>
      </trkpt>
      <trkpt lat="45.81104" lon="6.40797">
        <ele>1819</ele>
        <time>2018-10-17T12:46:21Z</time>
      </trkpt>
      <trkpt lat="45.81106" lon="6.40795">
        <ele>1818</ele>
        <time>2018-10-17T12:46:22Z</time>
      </trkpt>
      <trkpt lat="45.81106" lon="6.40795">
        <ele>1818</ele>
        <time>2018-10-17T12:46:23Z</time>
      </trkpt>
      <trkpt lat="45.81108" lon="6.40793">
        <ele>1818</ele>
        <time>2018-10-17T12:46:24Z</time>
      </trkpt>
      <trkpt lat="45.81108" lon="6.40793">
        <ele>1817</ele>
        <time>2018-10-17T12:46:25Z</time>
      </trkpt>
      <trkpt lat="45.81112" lon="6.40791">
        <ele>1817</ele>
        <time>2018-10-17T12:46:26Z</time>
      </trkpt>
      <trkpt lat="45.81113" lon="6.4079">
        <ele>1817</ele>
        <time>2018-10-17T12:46:27Z</time>
      </trkpt>
      <trkpt lat="45.81115" lon="6.40788">
        <ele>1817</ele>
        <time>2018-10-17T12:46:28Z</time>
      </trkpt>
      <trkpt lat="45.81115" lon="6.40788">
        <ele>1817</ele>
        <time>2018-10-17T12:46:29Z</time>
      </trkpt>
      <trkpt lat="45.81117" lon="6.40785">
        <ele>1817</ele>
        <time>2018-10-17T12:46:30Z</time>
      </trkpt>
      <trkpt lat="45.81117" lon="6.40785">
        <ele>1817</ele>
        <time>2018-10-17T12:46:31Z</time>
      </trkpt>
      <trkpt lat="45.81117" lon="6.40782">
        <ele>1817</ele>
        <time>2018-10-17T12:46:32Z</time>
      </trkpt>
      <trkpt lat="45.81117" lon="6.40782">
        <ele>1817</ele>
        <time>2018-10-17T12:46:33Z</time>
      </trkpt>
      <trkpt lat="45.81119" lon="6.40779">
        <ele>1817</ele>
        <time>2018-10-17T12:46:34Z</time>
      </trkpt>
      <trkpt lat="45.81119" lon="6.40779">
        <ele>1817</ele>
        <time>2018-10-17T12:46:35Z</time>
      </trkpt>
      <trkpt lat="45.81121" lon="6.40777">
        <ele>1817</ele>
        <time>2018-10-17T12:46:36Z</time>
      </trkpt>
      <trkpt lat="45.81121" lon="6.40777">
        <ele>1817</ele>
        <time>2018-10-17T12:46:37Z</time>
      </trkpt>
      <trkpt lat="45.81122" lon="6.40774">
        <ele>1818</ele>
        <time>2018-10-17T12:46:38Z</time>
      </trkpt>
      <trkpt lat="45.81122" lon="6.40774">
        <ele>1818</ele>
        <time>2018-10-17T12:46:39Z</time>
      </trkpt>
      <trkpt lat="45.81124" lon="6.40771">
        <ele>1818</ele>
        <time>2018-10-17T12:46:40Z</time>
      </trkpt>
      <trkpt lat="45.81124" lon="6.40771">
        <ele>1818</ele>
        <time>2018-10-17T12:46:41Z</time>
      </trkpt>
      <trkpt lat="45.81126" lon="6.40769">
        <ele>1818</ele>
        <time>2018-10-17T12:46:42Z</time>
      </trkpt>
      <trkpt lat="45.81126" lon="6.40769">
        <ele>1818</ele>
        <time>2018-10-17T12:46:43Z</time>
      </trkpt>
      <trkpt lat="45.81128" lon="6.40766">
        <ele>1818</ele>
        <time>2018-10-17T12:46:44Z</time>
      </trkpt>
      <trkpt lat="45.81128" lon="6.40766">
        <ele>1818</ele>
        <time>2018-10-17T12:46:45Z</time>
      </trkpt>
      <trkpt lat="45.81131" lon="6.40764">
        <ele>1818</ele>
        <time>2018-10-17T12:46:46Z</time>
      </trkpt>
      <trkpt lat="45.81131" lon="6.40764">
        <ele>1818</ele>
        <time>2018-10-17T12:46:47Z</time>
      </trkpt>
      <trkpt lat="45.81132" lon="6.40763">
        <ele>1818</ele>
        <time>2018-10-17T12:46:48Z</time>
      </trkpt>
      <trkpt lat="45.81132" lon="6.40763">
        <ele>1818</ele>
        <time>2018-10-17T12:46:49Z</time>
      </trkpt>
      <trkpt lat="45.81134" lon="6.40762">
        <ele>1817</ele>
        <time>2018-10-17T12:46:50Z</time>
      </trkpt>
      <trkpt lat="45.81134" lon="6.40762">
        <ele>1817</ele>
        <time>2018-10-17T12:46:51Z</time>
      </trkpt>
      <trkpt lat="45.81134" lon="6.40762">
        <ele>1817</ele>
        <time>2018-10-17T12:46:52Z</time>
      </trkpt>
      <trkpt lat="45.81136" lon="6.4076">
        <ele>1817</ele>
        <time>2018-10-17T12:46:53Z</time>
      </trkpt>
      <trkpt lat="45.81136" lon="6.4076">
        <ele>1817</ele>
        <time>2018-10-17T12:46:54Z</time>
      </trkpt>
      <trkpt lat="45.81138" lon="6.40757">
        <ele>1817</ele>
        <time>2018-10-17T12:46:55Z</time>
      </trkpt>
      <trkpt lat="45.81138" lon="6.40757">
        <ele>1816</ele>
        <time>2018-10-17T12:46:56Z</time>
      </trkpt>
      <trkpt lat="45.81138" lon="6.40757">
        <ele>1816</ele>
        <time>2018-10-17T12:46:57Z</time>
      </trkpt>
      <trkpt lat="45.81139" lon="6.40754">
        <ele>1817</ele>
        <time>2018-10-17T12:46:58Z</time>
      </trkpt>
      <trkpt lat="45.81139" lon="6.40754">
        <ele>1817</ele>
        <time>2018-10-17T12:46:59Z</time>
      </trkpt>
      <trkpt lat="45.8114" lon="6.40751">
        <ele>1817</ele>
        <time>2018-10-17T12:47:00Z</time>
      </trkpt>
      <trkpt lat="45.8114" lon="6.40751">
        <ele>1817</ele>
        <time>2018-10-17T12:47:01Z</time>
      </trkpt>
      <trkpt lat="45.81142" lon="6.40749">
        <ele>1817</ele>
        <time>2018-10-17T12:47:02Z</time>
      </trkpt>
      <trkpt lat="45.81142" lon="6.40749">
        <ele>1816</ele>
        <time>2018-10-17T12:47:03Z</time>
      </trkpt>
      <trkpt lat="45.81144" lon="6.40747">
        <ele>1816</ele>
        <time>2018-10-17T12:47:04Z</time>
      </trkpt>
      <trkpt lat="45.81144" lon="6.40747">
        <ele>1816</ele>
        <time>2018-10-17T12:47:05Z</time>
      </trkpt>
      <trkpt lat="45.81145" lon="6.40745">
        <ele>1816</ele>
        <time>2018-10-17T12:47:06Z</time>
      </trkpt>
      <trkpt lat="45.81145" lon="6.40745">
        <ele>1816</ele>
        <time>2018-10-17T12:47:07Z</time>
      </trkpt>
      <trkpt lat="45.81146" lon="6.40742">
        <ele>1816</ele>
        <time>2018-10-17T12:47:08Z</time>
      </trkpt>
      <trkpt lat="45.81146" lon="6.40742">
        <ele>1816</ele>
        <time>2018-10-17T12:47:09Z</time>
      </trkpt>
      <trkpt lat="45.81146" lon="6.40739">
        <ele>1815</ele>
        <time>2018-10-17T12:47:10Z</time>
      </trkpt>
      <trkpt lat="45.81146" lon="6.40739">
        <ele>1815</ele>
        <time>2018-10-17T12:47:11Z</time>
      </trkpt>
      <trkpt lat="45.81147" lon="6.40736">
        <ele>1815</ele>
        <time>2018-10-17T12:47:12Z</time>
      </trkpt>
      <trkpt lat="45.81147" lon="6.40736">
        <ele>1815</ele>
        <time>2018-10-17T12:47:13Z</time>
      </trkpt>
      <trkpt lat="45.81147" lon="6.40733">
        <ele>1815</ele>
        <time>2018-10-17T12:47:14Z</time>
      </trkpt>
      <trkpt lat="45.81147" lon="6.40733">
        <ele>1815</ele>
        <time>2018-10-17T12:47:15Z</time>
      </trkpt>
      <trkpt lat="45.81147" lon="6.40729">
        <ele>1814</ele>
        <time>2018-10-17T12:47:16Z</time>
      </trkpt>
      <trkpt lat="45.81147" lon="6.40729">
        <ele>1814</ele>
        <time>2018-10-17T12:47:17Z</time>
      </trkpt>
      <trkpt lat="45.81146" lon="6.40726">
        <ele>1813</ele>
        <time>2018-10-17T12:47:18Z</time>
      </trkpt>
      <trkpt lat="45.81146" lon="6.40726">
        <ele>1813</ele>
        <time>2018-10-17T12:47:19Z</time>
      </trkpt>
      <trkpt lat="45.81146" lon="6.40722">
        <ele>1813</ele>
        <time>2018-10-17T12:47:20Z</time>
      </trkpt>
      <trkpt lat="45.81146" lon="6.40722">
        <ele>1813</ele>
        <time>2018-10-17T12:47:21Z</time>
      </trkpt>
      <trkpt lat="45.81146" lon="6.40719">
        <ele>1813</ele>
        <time>2018-10-17T12:47:22Z</time>
      </trkpt>
      <trkpt lat="45.81146" lon="6.40719">
        <ele>1813</ele>
        <time>2018-10-17T12:47:23Z</time>
      </trkpt>
      <trkpt lat="45.81146" lon="6.40716">
        <ele>1813</ele>
        <time>2018-10-17T12:47:24Z</time>
      </trkpt>
      <trkpt lat="45.81146" lon="6.40716">
        <ele>1812</ele>
        <time>2018-10-17T12:47:25Z</time>
      </trkpt>
      <trkpt lat="45.81145" lon="6.40713">
        <ele>1812</ele>
        <time>2018-10-17T12:47:26Z</time>
      </trkpt>
      <trkpt lat="45.81145" lon="6.40713">
        <ele>1811</ele>
        <time>2018-10-17T12:47:27Z</time>
      </trkpt>
      <trkpt lat="45.81145" lon="6.40709">
        <ele>1811</ele>
        <time>2018-10-17T12:47:28Z</time>
      </trkpt>
      <trkpt lat="45.81145" lon="6.40709">
        <ele>1811</ele>
        <time>2018-10-17T12:47:29Z</time>
      </trkpt>
      <trkpt lat="45.81143" lon="6.40707">
        <ele>1811</ele>
        <time>2018-10-17T12:47:30Z</time>
      </trkpt>
      <trkpt lat="45.81143" lon="6.40707">
        <ele>1810</ele>
        <time>2018-10-17T12:47:31Z</time>
      </trkpt>
      <trkpt lat="45.81142" lon="6.40705">
        <ele>1810</ele>
        <time>2018-10-17T12:47:32Z</time>
      </trkpt>
      <trkpt lat="45.81142" lon="6.40705">
        <ele>1810</ele>
        <time>2018-10-17T12:47:33Z</time>
      </trkpt>
      <trkpt lat="45.8114" lon="6.40703">
        <ele>1810</ele>
        <time>2018-10-17T12:47:34Z</time>
      </trkpt>
      <trkpt lat="45.8114" lon="6.40703">
        <ele>1810</ele>
        <time>2018-10-17T12:47:35Z</time>
      </trkpt>
      <trkpt lat="45.81138" lon="6.40703">
        <ele>1810</ele>
        <time>2018-10-17T12:47:36Z</time>
      </trkpt>
      <trkpt lat="45.81138" lon="6.40703">
        <ele>1810</ele>
        <time>2018-10-17T12:47:37Z</time>
      </trkpt>
      <trkpt lat="45.81138" lon="6.40703">
        <ele>1810</ele>
        <time>2018-10-17T12:47:38Z</time>
      </trkpt>
      <trkpt lat="45.81137" lon="6.407">
        <ele>1810</ele>
        <time>2018-10-17T12:47:39Z</time>
      </trkpt>
      <trkpt lat="45.81137" lon="6.407">
        <ele>1810</ele>
        <time>2018-10-17T12:47:40Z</time>
      </trkpt>
      <trkpt lat="45.81137" lon="6.407">
        <ele>1810</ele>
        <time>2018-10-17T12:47:41Z</time>
      </trkpt>
      <trkpt lat="45.81137" lon="6.407">
        <ele>1810</ele>
        <time>2018-10-17T12:47:42Z</time>
      </trkpt>
      <trkpt lat="45.81137" lon="6.407">
        <ele>1809</ele>
        <time>2018-10-17T12:47:43Z</time>
      </trkpt>
      <trkpt lat="45.81135" lon="6.40698">
        <ele>1809</ele>
        <time>2018-10-17T12:47:44Z</time>
      </trkpt>
      <trkpt lat="45.81135" lon="6.40698">
        <ele>1809</ele>
        <time>2018-10-17T12:47:45Z</time>
      </trkpt>
      <trkpt lat="45.81135" lon="6.40695">
        <ele>1809</ele>
        <time>2018-10-17T12:47:46Z</time>
      </trkpt>
      <trkpt lat="45.81135" lon="6.40695">
        <ele>1808</ele>
        <time>2018-10-17T12:47:47Z</time>
      </trkpt>
      <trkpt lat="45.81134" lon="6.40692">
        <ele>1808</ele>
        <time>2018-10-17T12:47:48Z</time>
      </trkpt>
      <trkpt lat="45.81134" lon="6.40692">
        <ele>1807</ele>
        <time>2018-10-17T12:47:49Z</time>
      </trkpt>
      <trkpt lat="45.81134" lon="6.4069">
        <ele>1807</ele>
        <time>2018-10-17T12:47:50Z</time>
      </trkpt>
      <trkpt lat="45.81134" lon="6.4069">
        <ele>1807</ele>
        <time>2018-10-17T12:47:51Z</time>
      </trkpt>
      <trkpt lat="45.81134" lon="6.4069">
        <ele>1806</ele>
        <time>2018-10-17T12:47:52Z</time>
      </trkpt>
      <trkpt lat="45.81134" lon="6.40686">
        <ele>1805</ele>
        <time>2018-10-17T12:47:53Z</time>
      </trkpt>
      <trkpt lat="45.81134" lon="6.40686">
        <ele>1805</ele>
        <time>2018-10-17T12:47:54Z</time>
      </trkpt>
      <trkpt lat="45.81135" lon="6.40683">
        <ele>1805</ele>
        <time>2018-10-17T12:47:55Z</time>
      </trkpt>
      <trkpt lat="45.81135" lon="6.40683">
        <ele>1805</ele>
        <time>2018-10-17T12:47:56Z</time>
      </trkpt>
      <trkpt lat="45.81134" lon="6.4068">
        <ele>1805</ele>
        <time>2018-10-17T12:47:57Z</time>
      </trkpt>
      <trkpt lat="45.81134" lon="6.4068">
        <ele>1805</ele>
        <time>2018-10-17T12:47:58Z</time>
      </trkpt>
      <trkpt lat="45.81134" lon="6.4068">
        <ele>1804</ele>
        <time>2018-10-17T12:47:59Z</time>
      </trkpt>
      <trkpt lat="45.81134" lon="6.4068">
        <ele>1804</ele>
        <time>2018-10-17T12:48:00Z</time>
      </trkpt>
      <trkpt lat="45.81135" lon="6.40676">
        <ele>1804</ele>
        <time>2018-10-17T12:48:01Z</time>
      </trkpt>
      <trkpt lat="45.81135" lon="6.40676">
        <ele>1803</ele>
        <time>2018-10-17T12:48:02Z</time>
      </trkpt>
      <trkpt lat="45.81135" lon="6.40673">
        <ele>1803</ele>
        <time>2018-10-17T12:48:03Z</time>
      </trkpt>
      <trkpt lat="45.81135" lon="6.40673">
        <ele>1803</ele>
        <time>2018-10-17T12:48:04Z</time>
      </trkpt>
      <trkpt lat="45.81136" lon="6.40671">
        <ele>1803</ele>
        <time>2018-10-17T12:48:05Z</time>
      </trkpt>
      <trkpt lat="45.81136" lon="6.40671">
        <ele>1803</ele>
        <time>2018-10-17T12:48:06Z</time>
      </trkpt>
      <trkpt lat="45.81137" lon="6.40667">
        <ele>1802</ele>
        <time>2018-10-17T12:48:07Z</time>
      </trkpt>
      <trkpt lat="45.81137" lon="6.40667">
        <ele>1802</ele>
        <time>2018-10-17T12:48:08Z</time>
      </trkpt>
      <trkpt lat="45.81138" lon="6.40664">
        <ele>1801</ele>
        <time>2018-10-17T12:48:09Z</time>
      </trkpt>
      <trkpt lat="45.81138" lon="6.40664">
        <ele>1800</ele>
        <time>2018-10-17T12:48:10Z</time>
      </trkpt>
      <trkpt lat="45.81139" lon="6.40662">
        <ele>1800</ele>
        <time>2018-10-17T12:48:11Z</time>
      </trkpt>
      <trkpt lat="45.81139" lon="6.40662">
        <ele>1800</ele>
        <time>2018-10-17T12:48:12Z</time>
      </trkpt>
      <trkpt lat="45.81139" lon="6.40662">
        <ele>1800</ele>
        <time>2018-10-17T12:48:13Z</time>
      </trkpt>
      <trkpt lat="45.81138" lon="6.40658">
        <ele>1799</ele>
        <time>2018-10-17T12:48:14Z</time>
      </trkpt>
      <trkpt lat="45.81138" lon="6.40658">
        <ele>1799</ele>
        <time>2018-10-17T12:48:15Z</time>
      </trkpt>
      <trkpt lat="45.81137" lon="6.40655">
        <ele>1799</ele>
        <time>2018-10-17T12:48:16Z</time>
      </trkpt>
      <trkpt lat="45.81137" lon="6.40655">
        <ele>1799</ele>
        <time>2018-10-17T12:48:17Z</time>
      </trkpt>
      <trkpt lat="45.81137" lon="6.40652">
        <ele>1799</ele>
        <time>2018-10-17T12:48:18Z</time>
      </trkpt>
      <trkpt lat="45.81137" lon="6.40652">
        <ele>1799</ele>
        <time>2018-10-17T12:48:19Z</time>
      </trkpt>
      <trkpt lat="45.81138" lon="6.40648">
        <ele>1799</ele>
        <time>2018-10-17T12:48:20Z</time>
      </trkpt>
      <trkpt lat="45.81138" lon="6.40648">
        <ele>1798</ele>
        <time>2018-10-17T12:48:21Z</time>
      </trkpt>
      <trkpt lat="45.81139" lon="6.40645">
        <ele>1797</ele>
        <time>2018-10-17T12:48:22Z</time>
      </trkpt>
      <trkpt lat="45.81139" lon="6.40645">
        <ele>1796</ele>
        <time>2018-10-17T12:48:23Z</time>
      </trkpt>
      <trkpt lat="45.8114" lon="6.40643">
        <ele>1795</ele>
        <time>2018-10-17T12:48:24Z</time>
      </trkpt>
      <trkpt lat="45.8114" lon="6.40643">
        <ele>1795</ele>
        <time>2018-10-17T12:48:25Z</time>
      </trkpt>
      <trkpt lat="45.81141" lon="6.4064">
        <ele>1795</ele>
        <time>2018-10-17T12:48:26Z</time>
      </trkpt>
      <trkpt lat="45.81141" lon="6.4064">
        <ele>1795</ele>
        <time>2018-10-17T12:48:27Z</time>
      </trkpt>
      <trkpt lat="45.81142" lon="6.40636">
        <ele>1795</ele>
        <time>2018-10-17T12:48:28Z</time>
      </trkpt>
      <trkpt lat="45.81142" lon="6.40636">
        <ele>1795</ele>
        <time>2018-10-17T12:48:29Z</time>
      </trkpt>
      <trkpt lat="45.81144" lon="6.40633">
        <ele>1794</ele>
        <time>2018-10-17T12:48:30Z</time>
      </trkpt>
      <trkpt lat="45.81144" lon="6.40633">
        <ele>1794</ele>
        <time>2018-10-17T12:48:31Z</time>
      </trkpt>
      <trkpt lat="45.81145" lon="6.4063">
        <ele>1793</ele>
        <time>2018-10-17T12:48:32Z</time>
      </trkpt>
      <trkpt lat="45.81145" lon="6.4063">
        <ele>1793</ele>
        <time>2018-10-17T12:48:33Z</time>
      </trkpt>
      <trkpt lat="45.81145" lon="6.40627">
        <ele>1793</ele>
        <time>2018-10-17T12:48:34Z</time>
      </trkpt>
      <trkpt lat="45.81145" lon="6.40627">
        <ele>1793</ele>
        <time>2018-10-17T12:48:35Z</time>
      </trkpt>
      <trkpt lat="45.81146" lon="6.40624">
        <ele>1793</ele>
        <time>2018-10-17T12:48:36Z</time>
      </trkpt>
      <trkpt lat="45.81146" lon="6.40624">
        <ele>1792</ele>
        <time>2018-10-17T12:48:37Z</time>
      </trkpt>
      <trkpt lat="45.81146" lon="6.40622">
        <ele>1791</ele>
        <time>2018-10-17T12:48:38Z</time>
      </trkpt>
      <trkpt lat="45.81146" lon="6.40622">
        <ele>1791</ele>
        <time>2018-10-17T12:48:39Z</time>
      </trkpt>
      <trkpt lat="45.81146" lon="6.40622">
        <ele>1791</ele>
        <time>2018-10-17T12:48:40Z</time>
      </trkpt>
      <trkpt lat="45.81145" lon="6.40619">
        <ele>1791</ele>
        <time>2018-10-17T12:48:41Z</time>
      </trkpt>
      <trkpt lat="45.81145" lon="6.40619">
        <ele>1791</ele>
        <time>2018-10-17T12:48:42Z</time>
      </trkpt>
      <trkpt lat="45.81145" lon="6.40619">
        <ele>1791</ele>
        <time>2018-10-17T12:48:43Z</time>
      </trkpt>
      <trkpt lat="45.81145" lon="6.40616">
        <ele>1791</ele>
        <time>2018-10-17T12:48:44Z</time>
      </trkpt>
      <trkpt lat="45.81145" lon="6.40616">
        <ele>1791</ele>
        <time>2018-10-17T12:48:45Z</time>
      </trkpt>
      <trkpt lat="45.81144" lon="6.40613">
        <ele>1790</ele>
        <time>2018-10-17T12:48:46Z</time>
      </trkpt>
      <trkpt lat="45.81144" lon="6.40613">
        <ele>1790</ele>
        <time>2018-10-17T12:48:47Z</time>
      </trkpt>
      <trkpt lat="45.81144" lon="6.40613">
        <ele>1790</ele>
        <time>2018-10-17T12:48:48Z</time>
      </trkpt>
      <trkpt lat="45.81143" lon="6.40609">
        <ele>1790</ele>
        <time>2018-10-17T12:48:49Z</time>
      </trkpt>
      <trkpt lat="45.81143" lon="6.40609">
        <ele>1790</ele>
        <time>2018-10-17T12:48:50Z</time>
      </trkpt>
      <trkpt lat="45.81143" lon="6.40607">
        <ele>1790</ele>
        <time>2018-10-17T12:48:51Z</time>
      </trkpt>
      <trkpt lat="45.81143" lon="6.40607">
        <ele>1789</ele>
        <time>2018-10-17T12:48:52Z</time>
      </trkpt>
      <trkpt lat="45.81143" lon="6.40603">
        <ele>1788</ele>
        <time>2018-10-17T12:48:53Z</time>
      </trkpt>
      <trkpt lat="45.81143" lon="6.40603">
        <ele>1788</ele>
        <time>2018-10-17T12:48:54Z</time>
      </trkpt>
      <trkpt lat="45.81143" lon="6.406">
        <ele>1788</ele>
        <time>2018-10-17T12:48:55Z</time>
      </trkpt>
      <trkpt lat="45.81143" lon="6.406">
        <ele>1788</ele>
        <time>2018-10-17T12:48:56Z</time>
      </trkpt>
      <trkpt lat="45.81144" lon="6.40598">
        <ele>1787</ele>
        <time>2018-10-17T12:48:57Z</time>
      </trkpt>
      <trkpt lat="45.81144" lon="6.40598">
        <ele>1787</ele>
        <time>2018-10-17T12:48:58Z</time>
      </trkpt>
      <trkpt lat="45.81144" lon="6.40598">
        <ele>1786</ele>
        <time>2018-10-17T12:48:59Z</time>
      </trkpt>
      <trkpt lat="45.81145" lon="6.40594">
        <ele>1785</ele>
        <time>2018-10-17T12:49:00Z</time>
      </trkpt>
      <trkpt lat="45.81145" lon="6.40594">
        <ele>1785</ele>
        <time>2018-10-17T12:49:01Z</time>
      </trkpt>
      <trkpt lat="45.81144" lon="6.40591">
        <ele>1785</ele>
        <time>2018-10-17T12:49:02Z</time>
      </trkpt>
      <trkpt lat="45.81144" lon="6.40591">
        <ele>1785</ele>
        <time>2018-10-17T12:49:03Z</time>
      </trkpt>
      <trkpt lat="45.81143" lon="6.40588">
        <ele>1785</ele>
        <time>2018-10-17T12:49:04Z</time>
      </trkpt>
      <trkpt lat="45.81143" lon="6.40588">
        <ele>1784</ele>
        <time>2018-10-17T12:49:05Z</time>
      </trkpt>
      <trkpt lat="45.81141" lon="6.40588">
        <ele>1784</ele>
        <time>2018-10-17T12:49:06Z</time>
      </trkpt>
      <trkpt lat="45.81141" lon="6.40588">
        <ele>1783</ele>
        <time>2018-10-17T12:49:07Z</time>
      </trkpt>
      <trkpt lat="45.81139" lon="6.40588">
        <ele>1783</ele>
        <time>2018-10-17T12:49:08Z</time>
      </trkpt>
      <trkpt lat="45.81139" lon="6.40588">
        <ele>1782</ele>
        <time>2018-10-17T12:49:09Z</time>
      </trkpt>
      <trkpt lat="45.81136" lon="6.40588">
        <ele>1782</ele>
        <time>2018-10-17T12:49:10Z</time>
      </trkpt>
      <trkpt lat="45.81136" lon="6.40588">
        <ele>1781</ele>
        <time>2018-10-17T12:49:11Z</time>
      </trkpt>
      <trkpt lat="45.81134" lon="6.40588">
        <ele>1781</ele>
        <time>2018-10-17T12:49:12Z</time>
      </trkpt>
      <trkpt lat="45.81134" lon="6.40588">
        <ele>1780</ele>
        <time>2018-10-17T12:49:13Z</time>
      </trkpt>
      <trkpt lat="45.81131" lon="6.40588">
        <ele>1780</ele>
        <time>2018-10-17T12:49:14Z</time>
      </trkpt>
      <trkpt lat="45.81131" lon="6.40588">
        <ele>1780</ele>
        <time>2018-10-17T12:49:15Z</time>
      </trkpt>
      <trkpt lat="45.81129" lon="6.40587">
        <ele>1780</ele>
        <time>2018-10-17T12:49:16Z</time>
      </trkpt>
      <trkpt lat="45.81129" lon="6.40587">
        <ele>1780</ele>
        <time>2018-10-17T12:49:17Z</time>
      </trkpt>
      <trkpt lat="45.81128" lon="6.40584">
        <ele>1779</ele>
        <time>2018-10-17T12:49:18Z</time>
      </trkpt>
      <trkpt lat="45.81128" lon="6.40584">
        <ele>1778</ele>
        <time>2018-10-17T12:49:19Z</time>
      </trkpt>
      <trkpt lat="45.81128" lon="6.40584">
        <ele>1778</ele>
        <time>2018-10-17T12:49:20Z</time>
      </trkpt>
      <trkpt lat="45.81128" lon="6.4058">
        <ele>1778</ele>
        <time>2018-10-17T12:49:21Z</time>
      </trkpt>
      <trkpt lat="45.81128" lon="6.4058">
        <ele>1778</ele>
        <time>2018-10-17T12:49:22Z</time>
      </trkpt>
      <trkpt lat="45.81129" lon="6.40577">
        <ele>1778</ele>
        <time>2018-10-17T12:49:23Z</time>
      </trkpt>
      <trkpt lat="45.81129" lon="6.40577">
        <ele>1778</ele>
        <time>2018-10-17T12:49:24Z</time>
      </trkpt>
      <trkpt lat="45.81129" lon="6.40577">
        <ele>1778</ele>
        <time>2018-10-17T12:49:25Z</time>
      </trkpt>
      <trkpt lat="45.81128" lon="6.40574">
        <ele>1778</ele>
        <time>2018-10-17T12:49:26Z</time>
      </trkpt>
      <trkpt lat="45.81128" lon="6.40574">
        <ele>1778</ele>
        <time>2018-10-17T12:49:27Z</time>
      </trkpt>
      <trkpt lat="45.81128" lon="6.40571">
        <ele>1777</ele>
        <time>2018-10-17T12:49:28Z</time>
      </trkpt>
      <trkpt lat="45.81128" lon="6.40571">
        <ele>1777</ele>
        <time>2018-10-17T12:49:29Z</time>
      </trkpt>
      <trkpt lat="45.81128" lon="6.40567">
        <ele>1777</ele>
        <time>2018-10-17T12:49:30Z</time>
      </trkpt>
      <trkpt lat="45.81128" lon="6.40567">
        <ele>1776</ele>
        <time>2018-10-17T12:49:31Z</time>
      </trkpt>
      <trkpt lat="45.81128" lon="6.40564">
        <ele>1776</ele>
        <time>2018-10-17T12:49:32Z</time>
      </trkpt>
      <trkpt lat="45.81128" lon="6.40564">
        <ele>1776</ele>
        <time>2018-10-17T12:49:33Z</time>
      </trkpt>
      <trkpt lat="45.81128" lon="6.40561">
        <ele>1776</ele>
        <time>2018-10-17T12:49:34Z</time>
      </trkpt>
      <trkpt lat="45.81128" lon="6.40561">
        <ele>1776</ele>
        <time>2018-10-17T12:49:35Z</time>
      </trkpt>
      <trkpt lat="45.81128" lon="6.40558">
        <ele>1776</ele>
        <time>2018-10-17T12:49:36Z</time>
      </trkpt>
      <trkpt lat="45.81128" lon="6.40558">
        <ele>1775</ele>
        <time>2018-10-17T12:49:37Z</time>
      </trkpt>
      <trkpt lat="45.81128" lon="6.40558">
        <ele>1774</ele>
        <time>2018-10-17T12:49:38Z</time>
      </trkpt>
      <trkpt lat="45.81129" lon="6.40554">
        <ele>1774</ele>
        <time>2018-10-17T12:49:39Z</time>
      </trkpt>
      <trkpt lat="45.81129" lon="6.40554">
        <ele>1774</ele>
        <time>2018-10-17T12:49:40Z</time>
      </trkpt>
      <trkpt lat="45.81131" lon="6.40552">
        <ele>1774</ele>
        <time>2018-10-17T12:49:41Z</time>
      </trkpt>
      <trkpt lat="45.81131" lon="6.40552">
        <ele>1774</ele>
        <time>2018-10-17T12:49:42Z</time>
      </trkpt>
      <trkpt lat="45.81131" lon="6.40552">
        <ele>1774</ele>
        <time>2018-10-17T12:49:43Z</time>
      </trkpt>
      <trkpt lat="45.81132" lon="6.4055">
        <ele>1774</ele>
        <time>2018-10-17T12:49:44Z</time>
      </trkpt>
      <trkpt lat="45.81132" lon="6.4055">
        <ele>1773</ele>
        <time>2018-10-17T12:49:45Z</time>
      </trkpt>
      <trkpt lat="45.81133" lon="6.40547">
        <ele>1773</ele>
        <time>2018-10-17T12:49:46Z</time>
      </trkpt>
      <trkpt lat="45.81133" lon="6.40547">
        <ele>1773</ele>
        <time>2018-10-17T12:49:47Z</time>
      </trkpt>
      <trkpt lat="45.81133" lon="6.40547">
        <ele>1773</ele>
        <time>2018-10-17T12:49:48Z</time>
      </trkpt>
      <trkpt lat="45.81132" lon="6.40543">
        <ele>1773</ele>
        <time>2018-10-17T12:49:49Z</time>
      </trkpt>
      <trkpt lat="45.81132" lon="6.40543">
        <ele>1772</ele>
        <time>2018-10-17T12:49:50Z</time>
      </trkpt>
      <trkpt lat="45.81132" lon="6.40541">
        <ele>1772</ele>
        <time>2018-10-17T12:49:51Z</time>
      </trkpt>
      <trkpt lat="45.81132" lon="6.40541">
        <ele>1771</ele>
        <time>2018-10-17T12:49:52Z</time>
      </trkpt>
      <trkpt lat="45.81132" lon="6.40541">
        <ele>1771</ele>
        <time>2018-10-17T12:49:53Z</time>
      </trkpt>
      <trkpt lat="45.81131" lon="6.40537">
        <ele>1771</ele>
        <time>2018-10-17T12:49:54Z</time>
      </trkpt>
      <trkpt lat="45.81131" lon="6.40537">
        <ele>1771</ele>
        <time>2018-10-17T12:49:55Z</time>
      </trkpt>
      <trkpt lat="45.81131" lon="6.40537">
        <ele>1771</ele>
        <time>2018-10-17T12:49:56Z</time>
      </trkpt>
      <trkpt lat="45.81129" lon="6.40534">
        <ele>1770</ele>
        <time>2018-10-17T12:49:57Z</time>
      </trkpt>
      <trkpt lat="45.81129" lon="6.40534">
        <ele>1769</ele>
        <time>2018-10-17T12:49:58Z</time>
      </trkpt>
      <trkpt lat="45.81129" lon="6.40534">
        <ele>1769</ele>
        <time>2018-10-17T12:49:59Z</time>
      </trkpt>
      <trkpt lat="45.81129" lon="6.40532">
        <ele>1768</ele>
        <time>2018-10-17T12:50:00Z</time>
      </trkpt>
      <trkpt lat="45.81129" lon="6.40532">
        <ele>1767</ele>
        <time>2018-10-17T12:50:01Z</time>
      </trkpt>
      <trkpt lat="45.8113" lon="6.40529">
        <ele>1767</ele>
        <time>2018-10-17T12:50:02Z</time>
      </trkpt>
      <trkpt lat="45.8113" lon="6.40529">
        <ele>1767</ele>
        <time>2018-10-17T12:50:03Z</time>
      </trkpt>
      <trkpt lat="45.8113" lon="6.40529">
        <ele>1767</ele>
        <time>2018-10-17T12:50:04Z</time>
      </trkpt>
      <trkpt lat="45.81131" lon="6.40526">
        <ele>1767</ele>
        <time>2018-10-17T12:50:05Z</time>
      </trkpt>
      <trkpt lat="45.81131" lon="6.40526">
        <ele>1767</ele>
        <time>2018-10-17T12:50:06Z</time>
      </trkpt>
      <trkpt lat="45.81131" lon="6.40526">
        <ele>1767</ele>
        <time>2018-10-17T12:50:07Z</time>
      </trkpt>
      <trkpt lat="45.8113" lon="6.40523">
        <ele>1767</ele>
        <time>2018-10-17T12:50:08Z</time>
      </trkpt>
      <trkpt lat="45.8113" lon="6.40523">
        <ele>1767</ele>
        <time>2018-10-17T12:50:09Z</time>
      </trkpt>
      <trkpt lat="45.8113" lon="6.40523">
        <ele>1767</ele>
        <time>2018-10-17T12:50:10Z</time>
      </trkpt>
      <trkpt lat="45.8113" lon="6.40523">
        <ele>1767</ele>
        <time>2018-10-17T12:50:11Z</time>
      </trkpt>
      <trkpt lat="45.8113" lon="6.40523">
        <ele>1767</ele>
        <time>2018-10-17T12:50:12Z</time>
      </trkpt>
      <trkpt lat="45.81133" lon="6.40524">
        <ele>1767</ele>
        <time>2018-10-17T12:50:13Z</time>
      </trkpt>
      <trkpt lat="45.81133" lon="6.40524">
        <ele>1767</ele>
        <time>2018-10-17T12:50:14Z</time>
      </trkpt>
      <trkpt lat="45.81133" lon="6.40524">
        <ele>1767</ele>
        <time>2018-10-17T12:50:15Z</time>
      </trkpt>
      <trkpt lat="45.81133" lon="6.40528">
        <ele>1767</ele>
        <time>2018-10-17T12:50:16Z</time>
      </trkpt>
      <trkpt lat="45.81133" lon="6.40528">
        <ele>1767</ele>
        <time>2018-10-17T12:50:17Z</time>
      </trkpt>
      <trkpt lat="45.81133" lon="6.40528">
        <ele>1766</ele>
        <time>2018-10-17T12:50:18Z</time>
      </trkpt>
      <trkpt lat="45.81133" lon="6.40528">
        <ele>1766</ele>
        <time>2018-10-17T12:50:19Z</time>
      </trkpt>
      <trkpt lat="45.81133" lon="6.40528">
        <ele>1766</ele>
        <time>2018-10-17T12:50:20Z</time>
      </trkpt>
      <trkpt lat="45.81134" lon="6.40525">
        <ele>1766</ele>
        <time>2018-10-17T12:50:21Z</time>
      </trkpt>
      <trkpt lat="45.81134" lon="6.40525">
        <ele>1767</ele>
        <time>2018-10-17T12:50:22Z</time>
      </trkpt>
      <trkpt lat="45.81134" lon="6.40525">
        <ele>1767</ele>
        <time>2018-10-17T12:50:23Z</time>
      </trkpt>
      <trkpt lat="45.81136" lon="6.40522">
        <ele>1767</ele>
        <time>2018-10-17T12:50:24Z</time>
      </trkpt>
      <trkpt lat="45.81136" lon="6.40522">
        <ele>1767</ele>
        <time>2018-10-17T12:50:25Z</time>
      </trkpt>
      <trkpt lat="45.81137" lon="6.4052">
        <ele>1767</ele>
        <time>2018-10-17T12:50:26Z</time>
      </trkpt>
      <trkpt lat="45.81137" lon="6.4052">
        <ele>1767</ele>
        <time>2018-10-17T12:50:27Z</time>
      </trkpt>
      <trkpt lat="45.81138" lon="6.40516">
        <ele>1767</ele>
        <time>2018-10-17T12:50:28Z</time>
      </trkpt>
      <trkpt lat="45.81138" lon="6.40516">
        <ele>1767</ele>
        <time>2018-10-17T12:50:29Z</time>
      </trkpt>
      <trkpt lat="45.81138" lon="6.40513">
        <ele>1767</ele>
        <time>2018-10-17T12:50:30Z</time>
      </trkpt>
      <trkpt lat="45.81138" lon="6.40513">
        <ele>1766</ele>
        <time>2018-10-17T12:50:31Z</time>
      </trkpt>
      <trkpt lat="45.81138" lon="6.4051">
        <ele>1766</ele>
        <time>2018-10-17T12:50:32Z</time>
      </trkpt>
      <trkpt lat="45.81138" lon="6.4051">
        <ele>1766</ele>
        <time>2018-10-17T12:50:33Z</time>
      </trkpt>
      <trkpt lat="45.81138" lon="6.40507">
        <ele>1766</ele>
        <time>2018-10-17T12:50:34Z</time>
      </trkpt>
      <trkpt lat="45.81138" lon="6.40507">
        <ele>1765</ele>
        <time>2018-10-17T12:50:35Z</time>
      </trkpt>
      <trkpt lat="45.81138" lon="6.40507">
        <ele>1765</ele>
        <time>2018-10-17T12:50:36Z</time>
      </trkpt>
      <trkpt lat="45.81138" lon="6.40503">
        <ele>1765</ele>
        <time>2018-10-17T12:50:37Z</time>
      </trkpt>
      <trkpt lat="45.81138" lon="6.40503">
        <ele>1765</ele>
        <time>2018-10-17T12:50:38Z</time>
      </trkpt>
      <trkpt lat="45.81138" lon="6.40503">
        <ele>1765</ele>
        <time>2018-10-17T12:50:39Z</time>
      </trkpt>
      <trkpt lat="45.81136" lon="6.40501">
        <ele>1764</ele>
        <time>2018-10-17T12:50:40Z</time>
      </trkpt>
      <trkpt lat="45.81136" lon="6.40501">
        <ele>1763</ele>
        <time>2018-10-17T12:50:41Z</time>
      </trkpt>
      <trkpt lat="45.81135" lon="6.40499">
        <ele>1762</ele>
        <time>2018-10-17T12:50:42Z</time>
      </trkpt>
      <trkpt lat="45.81135" lon="6.40499">
        <ele>1762</ele>
        <time>2018-10-17T12:50:43Z</time>
      </trkpt>
      <trkpt lat="45.81135" lon="6.40499">
        <ele>1761</ele>
        <time>2018-10-17T12:50:44Z</time>
      </trkpt>
      <trkpt lat="45.81134" lon="6.40496">
        <ele>1761</ele>
        <time>2018-10-17T12:50:45Z</time>
      </trkpt>
      <trkpt lat="45.81134" lon="6.40496">
        <ele>1761</ele>
        <time>2018-10-17T12:50:46Z</time>
      </trkpt>
      <trkpt lat="45.81134" lon="6.40493">
        <ele>1761</ele>
        <time>2018-10-17T12:50:47Z</time>
      </trkpt>
      <trkpt lat="45.81134" lon="6.40493">
        <ele>1761</ele>
        <time>2018-10-17T12:50:48Z</time>
      </trkpt>
      <trkpt lat="45.81134" lon="6.40493">
        <ele>1760</ele>
        <time>2018-10-17T12:50:49Z</time>
      </trkpt>
      <trkpt lat="45.81133" lon="6.4049">
        <ele>1760</ele>
        <time>2018-10-17T12:50:50Z</time>
      </trkpt>
      <trkpt lat="45.81133" lon="6.4049">
        <ele>1760</ele>
        <time>2018-10-17T12:50:51Z</time>
      </trkpt>
      <trkpt lat="45.81133" lon="6.4049">
        <ele>1760</ele>
        <time>2018-10-17T12:50:52Z</time>
      </trkpt>
      <trkpt lat="45.81133" lon="6.4049">
        <ele>1760</ele>
        <time>2018-10-17T12:50:53Z</time>
      </trkpt>
      <trkpt lat="45.81133" lon="6.4049">
        <ele>1759</ele>
        <time>2018-10-17T12:50:54Z</time>
      </trkpt>
      <trkpt lat="45.81133" lon="6.4049">
        <ele>1758</ele>
        <time>2018-10-17T12:50:55Z</time>
      </trkpt>
      <trkpt lat="45.81133" lon="6.4049">
        <ele>1758</ele>
        <time>2018-10-17T12:50:56Z</time>
      </trkpt>
      <trkpt lat="45.81133" lon="6.40487">
        <ele>1758</ele>
        <time>2018-10-17T12:50:57Z</time>
      </trkpt>
      <trkpt lat="45.81133" lon="6.40487">
        <ele>1758</ele>
        <time>2018-10-17T12:50:58Z</time>
      </trkpt>
      <trkpt lat="45.81133" lon="6.40487">
        <ele>1758</ele>
        <time>2018-10-17T12:50:59Z</time>
      </trkpt>
      <trkpt lat="45.81133" lon="6.40487">
        <ele>1758</ele>
        <time>2018-10-17T12:51:00Z</time>
      </trkpt>
      <trkpt lat="45.81133" lon="6.40487">
        <ele>1758</ele>
        <time>2018-10-17T12:51:01Z</time>
      </trkpt>
      <trkpt lat="45.81133" lon="6.40487">
        <ele>1758</ele>
        <time>2018-10-17T12:51:02Z</time>
      </trkpt>
      <trkpt lat="45.81133" lon="6.40487">
        <ele>1758</ele>
        <time>2018-10-17T12:51:03Z</time>
      </trkpt>
      <trkpt lat="45.81133" lon="6.40487">
        <ele>1758</ele>
        <time>2018-10-17T12:51:04Z</time>
      </trkpt>
      <trkpt lat="45.81134" lon="6.40484">
        <ele>1758</ele>
        <time>2018-10-17T12:51:05Z</time>
      </trkpt>
      <trkpt lat="45.81134" lon="6.40484">
        <ele>1757</ele>
        <time>2018-10-17T12:51:06Z</time>
      </trkpt>
      <trkpt lat="45.81134" lon="6.40484">
        <ele>1757</ele>
        <time>2018-10-17T12:51:07Z</time>
      </trkpt>
      <trkpt lat="45.81134" lon="6.40484">
        <ele>1758</ele>
        <time>2018-10-17T12:51:08Z</time>
      </trkpt>
      <trkpt lat="45.81134" lon="6.40484">
        <ele>1758</ele>
        <time>2018-10-17T12:51:09Z</time>
      </trkpt>
      <trkpt lat="45.81134" lon="6.40484">
        <ele>1758</ele>
        <time>2018-10-17T12:51:10Z</time>
      </trkpt>
      <trkpt lat="45.81134" lon="6.40484">
        <ele>1758</ele>
        <time>2018-10-17T12:51:11Z</time>
      </trkpt>
      <trkpt lat="45.81134" lon="6.40484">
        <ele>1758</ele>
        <time>2018-10-17T12:51:12Z</time>
      </trkpt>
      <trkpt lat="45.81134" lon="6.40484">
        <ele>1758</ele>
        <time>2018-10-17T12:51:13Z</time>
      </trkpt>
      <trkpt lat="45.81134" lon="6.40484">
        <ele>1758</ele>
        <time>2018-10-17T12:51:14Z</time>
      </trkpt>
      <trkpt lat="45.81134" lon="6.40484">
        <ele>1758</ele>
        <time>2018-10-17T12:51:15Z</time>
      </trkpt>
      <trkpt lat="45.81134" lon="6.40484">
        <ele>1758</ele>
        <time>2018-10-17T12:51:16Z</time>
      </trkpt>
      <trkpt lat="45.81134" lon="6.40484">
        <ele>1758</ele>
        <time>2018-10-17T12:51:17Z</time>
      </trkpt>
      <trkpt lat="45.81134" lon="6.40484">
        <ele>1758</ele>
        <time>2018-10-17T12:51:18Z</time>
      </trkpt>
      <trkpt lat="45.81134" lon="6.40484">
        <ele>1758</ele>
        <time>2018-10-17T12:51:19Z</time>
      </trkpt>
      <trkpt lat="45.81134" lon="6.40484">
        <ele>1758</ele>
        <time>2018-10-17T12:51:20Z</time>
      </trkpt>
      <trkpt lat="45.81134" lon="6.40484">
        <ele>1758</ele>
        <time>2018-10-17T12:51:21Z</time>
      </trkpt>
      <trkpt lat="45.81134" lon="6.40484">
        <ele>1758</ele>
        <time>2018-10-17T12:51:22Z</time>
      </trkpt>
      <trkpt lat="45.81134" lon="6.40484">
        <ele>1758</ele>
        <time>2018-10-17T12:51:23Z</time>
      </trkpt>
      <trkpt lat="45.81134" lon="6.40484">
        <ele>1758</ele>
        <time>2018-10-17T12:51:24Z</time>
      </trkpt>
      <trkpt lat="45.81134" lon="6.40484">
        <ele>1758</ele>
        <time>2018-10-17T12:51:25Z</time>
      </trkpt>
      <trkpt lat="45.81134" lon="6.40484">
        <ele>1758</ele>
        <time>2018-10-17T12:51:26Z</time>
      </trkpt>
      <trkpt lat="45.81134" lon="6.40484">
        <ele>1757</ele>
        <time>2018-10-17T12:51:27Z</time>
      </trkpt>
      <trkpt lat="45.81134" lon="6.40484">
        <ele>1757</ele>
        <time>2018-10-17T12:51:28Z</time>
      </trkpt>
      <trkpt lat="45.81134" lon="6.40484">
        <ele>1757</ele>
        <time>2018-10-17T12:51:29Z</time>
      </trkpt>
      <trkpt lat="45.81134" lon="6.40484">
        <ele>1757</ele>
        <time>2018-10-17T12:51:30Z</time>
      </trkpt>
      <trkpt lat="45.81134" lon="6.40484">
        <ele>1756</ele>
        <time>2018-10-17T12:51:31Z</time>
      </trkpt>
      <trkpt lat="45.81134" lon="6.40484">
        <ele>1756</ele>
        <time>2018-10-17T12:51:32Z</time>
      </trkpt>
      <trkpt lat="45.81134" lon="6.40484">
        <ele>1756</ele>
        <time>2018-10-17T12:51:33Z</time>
      </trkpt>
      <trkpt lat="45.81134" lon="6.40484">
        <ele>1756</ele>
        <time>2018-10-17T12:51:34Z</time>
      </trkpt>
      <trkpt lat="45.81134" lon="6.40484">
        <ele>1756</ele>
        <time>2018-10-17T12:51:35Z</time>
      </trkpt>
      <trkpt lat="45.81134" lon="6.40484">
        <ele>1756</ele>
        <time>2018-10-17T12:51:36Z</time>
      </trkpt>
      <trkpt lat="45.81134" lon="6.40484">
        <ele>1756</ele>
        <time>2018-10-17T12:51:37Z</time>
      </trkpt>
      <trkpt lat="45.81134" lon="6.40484">
        <ele>1756</ele>
        <time>2018-10-17T12:51:38Z</time>
      </trkpt>
      <trkpt lat="45.81134" lon="6.40484">
        <ele>1756</ele>
        <time>2018-10-17T12:51:39Z</time>
      </trkpt>
      <trkpt lat="45.81134" lon="6.40484">
        <ele>1756</ele>
        <time>2018-10-17T12:51:40Z</time>
      </trkpt>
      <trkpt lat="45.81134" lon="6.40484">
        <ele>1756</ele>
        <time>2018-10-17T12:51:41Z</time>
      </trkpt>
      <trkpt lat="45.81134" lon="6.40484">
        <ele>1757</ele>
        <time>2018-10-17T12:51:42Z</time>
      </trkpt>
      <trkpt lat="45.81134" lon="6.40484">
        <ele>1757</ele>
        <time>2018-10-17T12:51:43Z</time>
      </trkpt>
      <trkpt lat="45.81134" lon="6.40484">
        <ele>1757</ele>
        <time>2018-10-17T12:51:44Z</time>
      </trkpt>
      <trkpt lat="45.81134" lon="6.40484">
        <ele>1757</ele>
        <time>2018-10-17T12:51:45Z</time>
      </trkpt>
      <trkpt lat="45.81134" lon="6.40484">
        <ele>1757</ele>
        <time>2018-10-17T12:51:46Z</time>
      </trkpt>
      <trkpt lat="45.81134" lon="6.40484">
        <ele>1757</ele>
        <time>2018-10-17T12:51:47Z</time>
      </trkpt>
      <trkpt lat="45.81134" lon="6.40484">
        <ele>1757</ele>
        <time>2018-10-17T12:51:48Z</time>
      </trkpt>
      <trkpt lat="45.81134" lon="6.40487">
        <ele>1757</ele>
        <time>2018-10-17T12:51:49Z</time>
      </trkpt>
      <trkpt lat="45.81134" lon="6.40487">
        <ele>1757</ele>
        <time>2018-10-17T12:51:50Z</time>
      </trkpt>
      <trkpt lat="45.81134" lon="6.40487">
        <ele>1757</ele>
        <time>2018-10-17T12:51:51Z</time>
      </trkpt>
      <trkpt lat="45.81134" lon="6.40487">
        <ele>1757</ele>
        <time>2018-10-17T12:51:52Z</time>
      </trkpt>
      <trkpt lat="45.81134" lon="6.40487">
        <ele>1757</ele>
        <time>2018-10-17T12:51:53Z</time>
      </trkpt>
      <trkpt lat="45.81134" lon="6.40487">
        <ele>1757</ele>
        <time>2018-10-17T12:51:54Z</time>
      </trkpt>
      <trkpt lat="45.81134" lon="6.40487">
        <ele>1757</ele>
        <time>2018-10-17T12:51:55Z</time>
      </trkpt>
      <trkpt lat="45.81134" lon="6.40487">
        <ele>1757</ele>
        <time>2018-10-17T12:51:56Z</time>
      </trkpt>
      <trkpt lat="45.81134" lon="6.40487">
        <ele>1757</ele>
        <time>2018-10-17T12:51:57Z</time>
      </trkpt>
      <trkpt lat="45.81134" lon="6.40487">
        <ele>1757</ele>
        <time>2018-10-17T12:51:58Z</time>
      </trkpt>
      <trkpt lat="45.81134" lon="6.40487">
        <ele>1757</ele>
        <time>2018-10-17T12:51:59Z</time>
      </trkpt>
      <trkpt lat="45.81134" lon="6.40487">
        <ele>1757</ele>
        <time>2018-10-17T12:52:00Z</time>
      </trkpt>
      <trkpt lat="45.81134" lon="6.40487">
        <ele>1757</ele>
        <time>2018-10-17T12:52:01Z</time>
      </trkpt>
      <trkpt lat="45.81134" lon="6.40487">
        <ele>1757</ele>
        <time>2018-10-17T12:52:02Z</time>
      </trkpt>
      <trkpt lat="45.81134" lon="6.40487">
        <ele>1757</ele>
        <time>2018-10-17T12:52:03Z</time>
      </trkpt>
      <trkpt lat="45.81134" lon="6.40487">
        <ele>1757</ele>
        <time>2018-10-17T12:52:04Z</time>
      </trkpt>
      <trkpt lat="45.81134" lon="6.40487">
        <ele>1757</ele>
        <time>2018-10-17T12:52:05Z</time>
      </trkpt>
      <trkpt lat="45.81134" lon="6.40487">
        <ele>1757</ele>
        <time>2018-10-17T12:52:06Z</time>
      </trkpt>
      <trkpt lat="45.81134" lon="6.40487">
        <ele>1757</ele>
        <time>2018-10-17T12:52:07Z</time>
      </trkpt>
      <trkpt lat="45.81134" lon="6.40487">
        <ele>1757</ele>
        <time>2018-10-17T12:52:08Z</time>
      </trkpt>
      <trkpt lat="45.81134" lon="6.40487">
        <ele>1757</ele>
        <time>2018-10-17T12:52:09Z</time>
      </trkpt>
      <trkpt lat="45.81134" lon="6.40487">
        <ele>1757</ele>
        <time>2018-10-17T12:52:10Z</time>
      </trkpt>
      <trkpt lat="45.81135" lon="6.40485">
        <ele>1757</ele>
        <time>2018-10-17T12:52:11Z</time>
      </trkpt>
      <trkpt lat="45.81135" lon="6.40485">
        <ele>1756</ele>
        <time>2018-10-17T12:52:12Z</time>
      </trkpt>
      <trkpt lat="45.81135" lon="6.40485">
        <ele>1755</ele>
        <time>2018-10-17T12:52:13Z</time>
      </trkpt>
      <trkpt lat="45.81135" lon="6.40481">
        <ele>1755</ele>
        <time>2018-10-17T12:52:14Z</time>
      </trkpt>
      <trkpt lat="45.81135" lon="6.40481">
        <ele>1755</ele>
        <time>2018-10-17T12:52:15Z</time>
      </trkpt>
      <trkpt lat="45.81135" lon="6.40478">
        <ele>1755</ele>
        <time>2018-10-17T12:52:16Z</time>
      </trkpt>
      <trkpt lat="45.81135" lon="6.40478">
        <ele>1755</ele>
        <time>2018-10-17T12:52:17Z</time>
      </trkpt>
      <trkpt lat="45.81136" lon="6.40475">
        <ele>1755</ele>
        <time>2018-10-17T12:52:18Z</time>
      </trkpt>
      <trkpt lat="45.81136" lon="6.40475">
        <ele>1754</ele>
        <time>2018-10-17T12:52:19Z</time>
      </trkpt>
      <trkpt lat="45.81135" lon="6.40472">
        <ele>1754</ele>
        <time>2018-10-17T12:52:20Z</time>
      </trkpt>
      <trkpt lat="45.81135" lon="6.40472">
        <ele>1754</ele>
        <time>2018-10-17T12:52:21Z</time>
      </trkpt>
      <trkpt lat="45.81135" lon="6.40468">
        <ele>1754</ele>
        <time>2018-10-17T12:52:22Z</time>
      </trkpt>
      <trkpt lat="45.81135" lon="6.40468">
        <ele>1753</ele>
        <time>2018-10-17T12:52:23Z</time>
      </trkpt>
      <trkpt lat="45.81135" lon="6.40465">
        <ele>1753</ele>
        <time>2018-10-17T12:52:24Z</time>
      </trkpt>
      <trkpt lat="45.81135" lon="6.40465">
        <ele>1753</ele>
        <time>2018-10-17T12:52:25Z</time>
      </trkpt>
      <trkpt lat="45.81135" lon="6.40462">
        <ele>1753</ele>
        <time>2018-10-17T12:52:26Z</time>
      </trkpt>
      <trkpt lat="45.81135" lon="6.40462">
        <ele>1753</ele>
        <time>2018-10-17T12:52:27Z</time>
      </trkpt>
      <trkpt lat="45.81137" lon="6.4046">
        <ele>1752</ele>
        <time>2018-10-17T12:52:28Z</time>
      </trkpt>
      <trkpt lat="45.81137" lon="6.4046">
        <ele>1752</ele>
        <time>2018-10-17T12:52:29Z</time>
      </trkpt>
      <trkpt lat="45.81137" lon="6.40457">
        <ele>1751</ele>
        <time>2018-10-17T12:52:30Z</time>
      </trkpt>
      <trkpt lat="45.81137" lon="6.40457">
        <ele>1751</ele>
        <time>2018-10-17T12:52:31Z</time>
      </trkpt>
      <trkpt lat="45.81139" lon="6.40454">
        <ele>1751</ele>
        <time>2018-10-17T12:52:32Z</time>
      </trkpt>
      <trkpt lat="45.81139" lon="6.40454">
        <ele>1750</ele>
        <time>2018-10-17T12:52:33Z</time>
      </trkpt>
      <trkpt lat="45.8114" lon="6.40451">
        <ele>1749</ele>
        <time>2018-10-17T12:52:34Z</time>
      </trkpt>
      <trkpt lat="45.8114" lon="6.40451">
        <ele>1749</ele>
        <time>2018-10-17T12:52:35Z</time>
      </trkpt>
      <trkpt lat="45.81141" lon="6.40449">
        <ele>1749</ele>
        <time>2018-10-17T12:52:36Z</time>
      </trkpt>
      <trkpt lat="45.81141" lon="6.40449">
        <ele>1748</ele>
        <time>2018-10-17T12:52:37Z</time>
      </trkpt>
      <trkpt lat="45.81141" lon="6.40449">
        <ele>1748</ele>
        <time>2018-10-17T12:52:38Z</time>
      </trkpt>
      <trkpt lat="45.81142" lon="6.40445">
        <ele>1748</ele>
        <time>2018-10-17T12:52:39Z</time>
      </trkpt>
      <trkpt lat="45.81142" lon="6.40445">
        <ele>1748</ele>
        <time>2018-10-17T12:52:40Z</time>
      </trkpt>
      <trkpt lat="45.81143" lon="6.40442">
        <ele>1748</ele>
        <time>2018-10-17T12:52:41Z</time>
      </trkpt>
      <trkpt lat="45.81143" lon="6.40442">
        <ele>1747</ele>
        <time>2018-10-17T12:52:42Z</time>
      </trkpt>
      <trkpt lat="45.81143" lon="6.40439">
        <ele>1747</ele>
        <time>2018-10-17T12:52:43Z</time>
      </trkpt>
      <trkpt lat="45.81143" lon="6.40439">
        <ele>1747</ele>
        <time>2018-10-17T12:52:44Z</time>
      </trkpt>
      <trkpt lat="45.81143" lon="6.40437">
        <ele>1746</ele>
        <time>2018-10-17T12:52:45Z</time>
      </trkpt>
      <trkpt lat="45.81143" lon="6.40437">
        <ele>1746</ele>
        <time>2018-10-17T12:52:46Z</time>
      </trkpt>
      <trkpt lat="45.81143" lon="6.40433">
        <ele>1746</ele>
        <time>2018-10-17T12:52:47Z</time>
      </trkpt>
      <trkpt lat="45.81143" lon="6.40433">
        <ele>1746</ele>
        <time>2018-10-17T12:52:48Z</time>
      </trkpt>
      <trkpt lat="45.81142" lon="6.4043">
        <ele>1745</ele>
        <time>2018-10-17T12:52:49Z</time>
      </trkpt>
      <trkpt lat="45.81142" lon="6.4043">
        <ele>1745</ele>
        <time>2018-10-17T12:52:50Z</time>
      </trkpt>
      <trkpt lat="45.81142" lon="6.4043">
        <ele>1745</ele>
        <time>2018-10-17T12:52:51Z</time>
      </trkpt>
      <trkpt lat="45.81141" lon="6.40426">
        <ele>1744</ele>
        <time>2018-10-17T12:52:52Z</time>
      </trkpt>
      <trkpt lat="45.81141" lon="6.40426">
        <ele>1744</ele>
        <time>2018-10-17T12:52:53Z</time>
      </trkpt>
      <trkpt lat="45.8114" lon="6.40423">
        <ele>1743</ele>
        <time>2018-10-17T12:52:54Z</time>
      </trkpt>
      <trkpt lat="45.8114" lon="6.40423">
        <ele>1743</ele>
        <time>2018-10-17T12:52:55Z</time>
      </trkpt>
      <trkpt lat="45.81139" lon="6.40421">
        <ele>1743</ele>
        <time>2018-10-17T12:52:56Z</time>
      </trkpt>
      <trkpt lat="45.81139" lon="6.40421">
        <ele>1743</ele>
        <time>2018-10-17T12:52:57Z</time>
      </trkpt>
      <trkpt lat="45.81138" lon="6.40418">
        <ele>1742</ele>
        <time>2018-10-17T12:52:58Z</time>
      </trkpt>
      <trkpt lat="45.81138" lon="6.40418">
        <ele>1741</ele>
        <time>2018-10-17T12:52:59Z</time>
      </trkpt>
      <trkpt lat="45.81139" lon="6.40414">
        <ele>1741</ele>
        <time>2018-10-17T12:53:00Z</time>
      </trkpt>
      <trkpt lat="45.81139" lon="6.40414">
        <ele>1740</ele>
        <time>2018-10-17T12:53:01Z</time>
      </trkpt>
      <trkpt lat="45.81139" lon="6.40411">
        <ele>1740</ele>
        <time>2018-10-17T12:53:02Z</time>
      </trkpt>
      <trkpt lat="45.81139" lon="6.40411">
        <ele>1740</ele>
        <time>2018-10-17T12:53:03Z</time>
      </trkpt>
      <trkpt lat="45.8114" lon="6.40408">
        <ele>1739</ele>
        <time>2018-10-17T12:53:04Z</time>
      </trkpt>
      <trkpt lat="45.8114" lon="6.40408">
        <ele>1739</ele>
        <time>2018-10-17T12:53:05Z</time>
      </trkpt>
      <trkpt lat="45.8114" lon="6.40405">
        <ele>1738</ele>
        <time>2018-10-17T12:53:06Z</time>
      </trkpt>
      <trkpt lat="45.8114" lon="6.40405">
        <ele>1737</ele>
        <time>2018-10-17T12:53:07Z</time>
      </trkpt>
      <trkpt lat="45.8114" lon="6.40402">
        <ele>1737</ele>
        <time>2018-10-17T12:53:08Z</time>
      </trkpt>
      <trkpt lat="45.8114" lon="6.40402">
        <ele>1737</ele>
        <time>2018-10-17T12:53:09Z</time>
      </trkpt>
      <trkpt lat="45.8114" lon="6.40398">
        <ele>1737</ele>
        <time>2018-10-17T12:53:10Z</time>
      </trkpt>
      <trkpt lat="45.8114" lon="6.40398">
        <ele>1736</ele>
        <time>2018-10-17T12:53:11Z</time>
      </trkpt>
      <trkpt lat="45.81141" lon="6.40394">
        <ele>1736</ele>
        <time>2018-10-17T12:53:12Z</time>
      </trkpt>
      <trkpt lat="45.81141" lon="6.40394">
        <ele>1736</ele>
        <time>2018-10-17T12:53:13Z</time>
      </trkpt>
      <trkpt lat="45.8114" lon="6.40391">
        <ele>1736</ele>
        <time>2018-10-17T12:53:14Z</time>
      </trkpt>
      <trkpt lat="45.8114" lon="6.40391">
        <ele>1735</ele>
        <time>2018-10-17T12:53:15Z</time>
      </trkpt>
      <trkpt lat="45.8114" lon="6.40387">
        <ele>1734</ele>
        <time>2018-10-17T12:53:16Z</time>
      </trkpt>
      <trkpt lat="45.8114" lon="6.40387">
        <ele>1734</ele>
        <time>2018-10-17T12:53:17Z</time>
      </trkpt>
      <trkpt lat="45.81141" lon="6.40384">
        <ele>1733</ele>
        <time>2018-10-17T12:53:18Z</time>
      </trkpt>
      <trkpt lat="45.81141" lon="6.40384">
        <ele>1733</ele>
        <time>2018-10-17T12:53:19Z</time>
      </trkpt>
      <trkpt lat="45.81142" lon="6.4038">
        <ele>1733</ele>
        <time>2018-10-17T12:53:20Z</time>
      </trkpt>
      <trkpt lat="45.81142" lon="6.4038">
        <ele>1733</ele>
        <time>2018-10-17T12:53:21Z</time>
      </trkpt>
      <trkpt lat="45.81143" lon="6.40377">
        <ele>1732</ele>
        <time>2018-10-17T12:53:22Z</time>
      </trkpt>
      <trkpt lat="45.81143" lon="6.40377">
        <ele>1732</ele>
        <time>2018-10-17T12:53:23Z</time>
      </trkpt>
      <trkpt lat="45.81143" lon="6.40373">
        <ele>1732</ele>
        <time>2018-10-17T12:53:24Z</time>
      </trkpt>
      <trkpt lat="45.81143" lon="6.40373">
        <ele>1732</ele>
        <time>2018-10-17T12:53:25Z</time>
      </trkpt>
      <trkpt lat="45.81144" lon="6.4037">
        <ele>1732</ele>
        <time>2018-10-17T12:53:26Z</time>
      </trkpt>
      <trkpt lat="45.81144" lon="6.4037">
        <ele>1731</ele>
        <time>2018-10-17T12:53:27Z</time>
      </trkpt>
      <trkpt lat="45.81144" lon="6.40367">
        <ele>1731</ele>
        <time>2018-10-17T12:53:28Z</time>
      </trkpt>
      <trkpt lat="45.81144" lon="6.40367">
        <ele>1731</ele>
        <time>2018-10-17T12:53:29Z</time>
      </trkpt>
      <trkpt lat="45.81143" lon="6.40364">
        <ele>1731</ele>
        <time>2018-10-17T12:53:30Z</time>
      </trkpt>
      <trkpt lat="45.81143" lon="6.40364">
        <ele>1730</ele>
        <time>2018-10-17T12:53:31Z</time>
      </trkpt>
      <trkpt lat="45.81142" lon="6.4036">
        <ele>1729</ele>
        <time>2018-10-17T12:53:32Z</time>
      </trkpt>
      <trkpt lat="45.81142" lon="6.4036">
        <ele>1729</ele>
        <time>2018-10-17T12:53:33Z</time>
      </trkpt>
      <trkpt lat="45.81143" lon="6.40356">
        <ele>1729</ele>
        <time>2018-10-17T12:53:34Z</time>
      </trkpt>
      <trkpt lat="45.81143" lon="6.40356">
        <ele>1728</ele>
        <time>2018-10-17T12:53:35Z</time>
      </trkpt>
      <trkpt lat="45.81143" lon="6.40352">
        <ele>1728</ele>
        <time>2018-10-17T12:53:36Z</time>
      </trkpt>
      <trkpt lat="45.81143" lon="6.40352">
        <ele>1727</ele>
        <time>2018-10-17T12:53:37Z</time>
      </trkpt>
      <trkpt lat="45.81145" lon="6.40349">
        <ele>1727</ele>
        <time>2018-10-17T12:53:38Z</time>
      </trkpt>
      <trkpt lat="45.81145" lon="6.40349">
        <ele>1727</ele>
        <time>2018-10-17T12:53:39Z</time>
      </trkpt>
      <trkpt lat="45.81145" lon="6.40345">
        <ele>1727</ele>
        <time>2018-10-17T12:53:40Z</time>
      </trkpt>
      <trkpt lat="45.81145" lon="6.40345">
        <ele>1726</ele>
        <time>2018-10-17T12:53:41Z</time>
      </trkpt>
      <trkpt lat="45.81145" lon="6.40342">
        <ele>1726</ele>
        <time>2018-10-17T12:53:42Z</time>
      </trkpt>
      <trkpt lat="45.81145" lon="6.40342">
        <ele>1726</ele>
        <time>2018-10-17T12:53:43Z</time>
      </trkpt>
      <trkpt lat="45.81145" lon="6.40338">
        <ele>1725</ele>
        <time>2018-10-17T12:53:44Z</time>
      </trkpt>
      <trkpt lat="45.81145" lon="6.40338">
        <ele>1724</ele>
        <time>2018-10-17T12:53:45Z</time>
      </trkpt>
      <trkpt lat="45.81146" lon="6.40334">
        <ele>1724</ele>
        <time>2018-10-17T12:53:46Z</time>
      </trkpt>
      <trkpt lat="45.81146" lon="6.40334">
        <ele>1723</ele>
        <time>2018-10-17T12:53:47Z</time>
      </trkpt>
      <trkpt lat="45.81146" lon="6.4033">
        <ele>1722</ele>
        <time>2018-10-17T12:53:48Z</time>
      </trkpt>
      <trkpt lat="45.81146" lon="6.4033">
        <ele>1722</ele>
        <time>2018-10-17T12:53:49Z</time>
      </trkpt>
      <trkpt lat="45.81147" lon="6.40327">
        <ele>1722</ele>
        <time>2018-10-17T12:53:50Z</time>
      </trkpt>
      <trkpt lat="45.81147" lon="6.40327">
        <ele>1721</ele>
        <time>2018-10-17T12:53:51Z</time>
      </trkpt>
      <trkpt lat="45.81148" lon="6.40324">
        <ele>1721</ele>
        <time>2018-10-17T12:53:52Z</time>
      </trkpt>
      <trkpt lat="45.81148" lon="6.40324">
        <ele>1720</ele>
        <time>2018-10-17T12:53:53Z</time>
      </trkpt>
      <trkpt lat="45.81149" lon="6.40321">
        <ele>1720</ele>
        <time>2018-10-17T12:53:54Z</time>
      </trkpt>
      <trkpt lat="45.81149" lon="6.40321">
        <ele>1720</ele>
        <time>2018-10-17T12:53:55Z</time>
      </trkpt>
      <trkpt lat="45.81151" lon="6.40318">
        <ele>1720</ele>
        <time>2018-10-17T12:53:56Z</time>
      </trkpt>
      <trkpt lat="45.81151" lon="6.40318">
        <ele>1720</ele>
        <time>2018-10-17T12:53:57Z</time>
      </trkpt>
      <trkpt lat="45.81152" lon="6.40315">
        <ele>1720</ele>
        <time>2018-10-17T12:53:58Z</time>
      </trkpt>
      <trkpt lat="45.81152" lon="6.40315">
        <ele>1719</ele>
        <time>2018-10-17T12:53:59Z</time>
      </trkpt>
      <trkpt lat="45.81153" lon="6.40312">
        <ele>1719</ele>
        <time>2018-10-17T12:54:00Z</time>
      </trkpt>
      <trkpt lat="45.81153" lon="6.40312">
        <ele>1719</ele>
        <time>2018-10-17T12:54:01Z</time>
      </trkpt>
      <trkpt lat="45.81154" lon="6.40309">
        <ele>1719</ele>
        <time>2018-10-17T12:54:02Z</time>
      </trkpt>
      <trkpt lat="45.81154" lon="6.40309">
        <ele>1719</ele>
        <time>2018-10-17T12:54:03Z</time>
      </trkpt>
      <trkpt lat="45.81155" lon="6.40307">
        <ele>1719</ele>
        <time>2018-10-17T12:54:04Z</time>
      </trkpt>
      <trkpt lat="45.81155" lon="6.40307">
        <ele>1719</ele>
        <time>2018-10-17T12:54:05Z</time>
      </trkpt>
      <trkpt lat="45.81157" lon="6.40304">
        <ele>1718</ele>
        <time>2018-10-17T12:54:06Z</time>
      </trkpt>
      <trkpt lat="45.81157" lon="6.40304">
        <ele>1718</ele>
        <time>2018-10-17T12:54:07Z</time>
      </trkpt>
      <trkpt lat="45.81158" lon="6.40301">
        <ele>1717</ele>
        <time>2018-10-17T12:54:08Z</time>
      </trkpt>
      <trkpt lat="45.81158" lon="6.40301">
        <ele>1717</ele>
        <time>2018-10-17T12:54:09Z</time>
      </trkpt>
      <trkpt lat="45.81157" lon="6.40298">
        <ele>1717</ele>
        <time>2018-10-17T12:54:10Z</time>
      </trkpt>
      <trkpt lat="45.81157" lon="6.40298">
        <ele>1717</ele>
        <time>2018-10-17T12:54:11Z</time>
      </trkpt>
      <trkpt lat="45.81157" lon="6.40294">
        <ele>1717</ele>
        <time>2018-10-17T12:54:12Z</time>
      </trkpt>
      <trkpt lat="45.81157" lon="6.40294">
        <ele>1716</ele>
        <time>2018-10-17T12:54:13Z</time>
      </trkpt>
      <trkpt lat="45.81157" lon="6.4029">
        <ele>1715</ele>
        <time>2018-10-17T12:54:14Z</time>
      </trkpt>
      <trkpt lat="45.81157" lon="6.4029">
        <ele>1714</ele>
        <time>2018-10-17T12:54:15Z</time>
      </trkpt>
      <trkpt lat="45.81157" lon="6.40287">
        <ele>1714</ele>
        <time>2018-10-17T12:54:16Z</time>
      </trkpt>
      <trkpt lat="45.81157" lon="6.40287">
        <ele>1714</ele>
        <time>2018-10-17T12:54:17Z</time>
      </trkpt>
      <trkpt lat="45.81157" lon="6.40284">
        <ele>1714</ele>
        <time>2018-10-17T12:54:18Z</time>
      </trkpt>
      <trkpt lat="45.81157" lon="6.40284">
        <ele>1714</ele>
        <time>2018-10-17T12:54:19Z</time>
      </trkpt>
      <trkpt lat="45.81157" lon="6.40281">
        <ele>1714</ele>
        <time>2018-10-17T12:54:20Z</time>
      </trkpt>
      <trkpt lat="45.81157" lon="6.40281">
        <ele>1714</ele>
        <time>2018-10-17T12:54:21Z</time>
      </trkpt>
      <trkpt lat="45.81157" lon="6.40277">
        <ele>1713</ele>
        <time>2018-10-17T12:54:22Z</time>
      </trkpt>
      <trkpt lat="45.81157" lon="6.40277">
        <ele>1712</ele>
        <time>2018-10-17T12:54:23Z</time>
      </trkpt>
      <trkpt lat="45.81157" lon="6.40277">
        <ele>1711</ele>
        <time>2018-10-17T12:54:24Z</time>
      </trkpt>
      <trkpt lat="45.81158" lon="6.40274">
        <ele>1711</ele>
        <time>2018-10-17T12:54:25Z</time>
      </trkpt>
      <trkpt lat="45.81158" lon="6.40274">
        <ele>1711</ele>
        <time>2018-10-17T12:54:26Z</time>
      </trkpt>
      <trkpt lat="45.81157" lon="6.40271">
        <ele>1710</ele>
        <time>2018-10-17T12:54:27Z</time>
      </trkpt>
      <trkpt lat="45.81157" lon="6.40271">
        <ele>1710</ele>
        <time>2018-10-17T12:54:28Z</time>
      </trkpt>
      <trkpt lat="45.81157" lon="6.40267">
        <ele>1709</ele>
        <time>2018-10-17T12:54:29Z</time>
      </trkpt>
      <trkpt lat="45.81157" lon="6.40267">
        <ele>1709</ele>
        <time>2018-10-17T12:54:30Z</time>
      </trkpt>
      <trkpt lat="45.81157" lon="6.40265">
        <ele>1709</ele>
        <time>2018-10-17T12:54:31Z</time>
      </trkpt>
      <trkpt lat="45.81157" lon="6.40265">
        <ele>1709</ele>
        <time>2018-10-17T12:54:32Z</time>
      </trkpt>
      <trkpt lat="45.81157" lon="6.40262">
        <ele>1709</ele>
        <time>2018-10-17T12:54:33Z</time>
      </trkpt>
      <trkpt lat="45.81157" lon="6.40262">
        <ele>1708</ele>
        <time>2018-10-17T12:54:34Z</time>
      </trkpt>
      <trkpt lat="45.81158" lon="6.40259">
        <ele>1708</ele>
        <time>2018-10-17T12:54:35Z</time>
      </trkpt>
      <trkpt lat="45.81158" lon="6.40259">
        <ele>1707</ele>
        <time>2018-10-17T12:54:36Z</time>
      </trkpt>
      <trkpt lat="45.81158" lon="6.40259">
        <ele>1707</ele>
        <time>2018-10-17T12:54:37Z</time>
      </trkpt>
      <trkpt lat="45.81158" lon="6.40259">
        <ele>1707</ele>
        <time>2018-10-17T12:54:38Z</time>
      </trkpt>
      <trkpt lat="45.81158" lon="6.40259">
        <ele>1707</ele>
        <time>2018-10-17T12:54:39Z</time>
      </trkpt>
      <trkpt lat="45.81159" lon="6.40257">
        <ele>1707</ele>
        <time>2018-10-17T12:54:40Z</time>
      </trkpt>
      <trkpt lat="45.81159" lon="6.40257">
        <ele>1707</ele>
        <time>2018-10-17T12:54:41Z</time>
      </trkpt>
      <trkpt lat="45.81159" lon="6.40257">
        <ele>1707</ele>
        <time>2018-10-17T12:54:42Z</time>
      </trkpt>
      <trkpt lat="45.81159" lon="6.40253">
        <ele>1707</ele>
        <time>2018-10-17T12:54:43Z</time>
      </trkpt>
      <trkpt lat="45.81159" lon="6.40253">
        <ele>1707</ele>
        <time>2018-10-17T12:54:44Z</time>
      </trkpt>
      <trkpt lat="45.81159" lon="6.40251">
        <ele>1707</ele>
        <time>2018-10-17T12:54:45Z</time>
      </trkpt>
      <trkpt lat="45.81159" lon="6.40251">
        <ele>1706</ele>
        <time>2018-10-17T12:54:46Z</time>
      </trkpt>
      <trkpt lat="45.81159" lon="6.40248">
        <ele>1706</ele>
        <time>2018-10-17T12:54:47Z</time>
      </trkpt>
      <trkpt lat="45.81159" lon="6.40248">
        <ele>1705</ele>
        <time>2018-10-17T12:54:48Z</time>
      </trkpt>
      <trkpt lat="45.8116" lon="6.40245">
        <ele>1705</ele>
        <time>2018-10-17T12:54:49Z</time>
      </trkpt>
      <trkpt lat="45.8116" lon="6.40245">
        <ele>1704</ele>
        <time>2018-10-17T12:54:50Z</time>
      </trkpt>
      <trkpt lat="45.81161" lon="6.40242">
        <ele>1704</ele>
        <time>2018-10-17T12:54:51Z</time>
      </trkpt>
      <trkpt lat="45.81161" lon="6.40242">
        <ele>1703</ele>
        <time>2018-10-17T12:54:52Z</time>
      </trkpt>
      <trkpt lat="45.81161" lon="6.40242">
        <ele>1703</ele>
        <time>2018-10-17T12:54:53Z</time>
      </trkpt>
      <trkpt lat="45.81162" lon="6.40239">
        <ele>1702</ele>
        <time>2018-10-17T12:54:54Z</time>
      </trkpt>
      <trkpt lat="45.81162" lon="6.40239">
        <ele>1702</ele>
        <time>2018-10-17T12:54:55Z</time>
      </trkpt>
      <trkpt lat="45.81162" lon="6.40239">
        <ele>1702</ele>
        <time>2018-10-17T12:54:56Z</time>
      </trkpt>
      <trkpt lat="45.81162" lon="6.40236">
        <ele>1702</ele>
        <time>2018-10-17T12:54:57Z</time>
      </trkpt>
      <trkpt lat="45.81162" lon="6.40236">
        <ele>1702</ele>
        <time>2018-10-17T12:54:58Z</time>
      </trkpt>
      <trkpt lat="45.81162" lon="6.40236">
        <ele>1702</ele>
        <time>2018-10-17T12:54:59Z</time>
      </trkpt>
      <trkpt lat="45.81163" lon="6.40232">
        <ele>1702</ele>
        <time>2018-10-17T12:55:00Z</time>
      </trkpt>
      <trkpt lat="45.81163" lon="6.40232">
        <ele>1702</ele>
        <time>2018-10-17T12:55:01Z</time>
      </trkpt>
      <trkpt lat="45.81163" lon="6.40232">
        <ele>1702</ele>
        <time>2018-10-17T12:55:02Z</time>
      </trkpt>
      <trkpt lat="45.81163" lon="6.40229">
        <ele>1701</ele>
        <time>2018-10-17T12:55:03Z</time>
      </trkpt>
      <trkpt lat="45.81163" lon="6.40229">
        <ele>1700</ele>
        <time>2018-10-17T12:55:04Z</time>
      </trkpt>
      <trkpt lat="45.81163" lon="6.40229">
        <ele>1700</ele>
        <time>2018-10-17T12:55:05Z</time>
      </trkpt>
      <trkpt lat="45.81163" lon="6.40226">
        <ele>1699</ele>
        <time>2018-10-17T12:55:06Z</time>
      </trkpt>
      <trkpt lat="45.81163" lon="6.40226">
        <ele>1699</ele>
        <time>2018-10-17T12:55:07Z</time>
      </trkpt>
      <trkpt lat="45.81163" lon="6.40226">
        <ele>1699</ele>
        <time>2018-10-17T12:55:08Z</time>
      </trkpt>
      <trkpt lat="45.81163" lon="6.40224">
        <ele>1699</ele>
        <time>2018-10-17T12:55:09Z</time>
      </trkpt>
      <trkpt lat="45.81163" lon="6.40224">
        <ele>1699</ele>
        <time>2018-10-17T12:55:10Z</time>
      </trkpt>
      <trkpt lat="45.81163" lon="6.40224">
        <ele>1699</ele>
        <time>2018-10-17T12:55:11Z</time>
      </trkpt>
      <trkpt lat="45.81162" lon="6.40221">
        <ele>1699</ele>
        <time>2018-10-17T12:55:12Z</time>
      </trkpt>
      <trkpt lat="45.81162" lon="6.40221">
        <ele>1699</ele>
        <time>2018-10-17T12:55:13Z</time>
      </trkpt>
      <trkpt lat="45.81162" lon="6.40221">
        <ele>1698</ele>
        <time>2018-10-17T12:55:14Z</time>
      </trkpt>
      <trkpt lat="45.81163" lon="6.40217">
        <ele>1698</ele>
        <time>2018-10-17T12:55:15Z</time>
      </trkpt>
      <trkpt lat="45.81163" lon="6.40217">
        <ele>1697</ele>
        <time>2018-10-17T12:55:16Z</time>
      </trkpt>
      <trkpt lat="45.81164" lon="6.40214">
        <ele>1696</ele>
        <time>2018-10-17T12:55:17Z</time>
      </trkpt>
      <trkpt lat="45.81164" lon="6.40214">
        <ele>1696</ele>
        <time>2018-10-17T12:55:18Z</time>
      </trkpt>
      <trkpt lat="45.81165" lon="6.40211">
        <ele>1696</ele>
        <time>2018-10-17T12:55:19Z</time>
      </trkpt>
      <trkpt lat="45.81165" lon="6.40211">
        <ele>1695</ele>
        <time>2018-10-17T12:55:20Z</time>
      </trkpt>
      <trkpt lat="45.81166" lon="6.40209">
        <ele>1695</ele>
        <time>2018-10-17T12:55:21Z</time>
      </trkpt>
      <trkpt lat="45.81166" lon="6.40209">
        <ele>1695</ele>
        <time>2018-10-17T12:55:22Z</time>
      </trkpt>
      <trkpt lat="45.81166" lon="6.40209">
        <ele>1695</ele>
        <time>2018-10-17T12:55:23Z</time>
      </trkpt>
      <trkpt lat="45.81168" lon="6.40207">
        <ele>1695</ele>
        <time>2018-10-17T12:55:24Z</time>
      </trkpt>
      <trkpt lat="45.81168" lon="6.40207">
        <ele>1695</ele>
        <time>2018-10-17T12:55:25Z</time>
      </trkpt>
      <trkpt lat="45.81168" lon="6.40207">
        <ele>1694</ele>
        <time>2018-10-17T12:55:26Z</time>
      </trkpt>
      <trkpt lat="45.81169" lon="6.40204">
        <ele>1694</ele>
        <time>2018-10-17T12:55:27Z</time>
      </trkpt>
      <trkpt lat="45.81169" lon="6.40204">
        <ele>1693</ele>
        <time>2018-10-17T12:55:28Z</time>
      </trkpt>
      <trkpt lat="45.81169" lon="6.40204">
        <ele>1692</ele>
        <time>2018-10-17T12:55:29Z</time>
      </trkpt>
      <trkpt lat="45.8117" lon="6.40202">
        <ele>1692</ele>
        <time>2018-10-17T12:55:30Z</time>
      </trkpt>
      <trkpt lat="45.8117" lon="6.40202">
        <ele>1693</ele>
        <time>2018-10-17T12:55:31Z</time>
      </trkpt>
      <trkpt lat="45.8117" lon="6.40202">
        <ele>1693</ele>
        <time>2018-10-17T12:55:32Z</time>
      </trkpt>
      <trkpt lat="45.81171" lon="6.40199">
        <ele>1692</ele>
        <time>2018-10-17T12:55:33Z</time>
      </trkpt>
      <trkpt lat="45.81171" lon="6.40199">
        <ele>1691</ele>
        <time>2018-10-17T12:55:34Z</time>
      </trkpt>
      <trkpt lat="45.81171" lon="6.40199">
        <ele>1691</ele>
        <time>2018-10-17T12:55:35Z</time>
      </trkpt>
      <trkpt lat="45.81171" lon="6.40197">
        <ele>1691</ele>
        <time>2018-10-17T12:55:36Z</time>
      </trkpt>
      <trkpt lat="45.81171" lon="6.40197">
        <ele>1691</ele>
        <time>2018-10-17T12:55:37Z</time>
      </trkpt>
      <trkpt lat="45.81171" lon="6.40197">
        <ele>1690</ele>
        <time>2018-10-17T12:55:38Z</time>
      </trkpt>
      <trkpt lat="45.81171" lon="6.40197">
        <ele>1689</ele>
        <time>2018-10-17T12:55:39Z</time>
      </trkpt>
      <trkpt lat="45.81173" lon="6.40194">
        <ele>1688</ele>
        <time>2018-10-17T12:55:40Z</time>
      </trkpt>
      <trkpt lat="45.81173" lon="6.40194">
        <ele>1688</ele>
        <time>2018-10-17T12:55:41Z</time>
      </trkpt>
      <trkpt lat="45.81173" lon="6.40194">
        <ele>1688</ele>
        <time>2018-10-17T12:55:42Z</time>
      </trkpt>
      <trkpt lat="45.81173" lon="6.40194">
        <ele>1687</ele>
        <time>2018-10-17T12:55:43Z</time>
      </trkpt>
      <trkpt lat="45.81174" lon="6.40192">
        <ele>1687</ele>
        <time>2018-10-17T12:55:44Z</time>
      </trkpt>
      <trkpt lat="45.81174" lon="6.40192">
        <ele>1688</ele>
        <time>2018-10-17T12:55:45Z</time>
      </trkpt>
      <trkpt lat="45.81174" lon="6.40192">
        <ele>1688</ele>
        <time>2018-10-17T12:55:46Z</time>
      </trkpt>
      <trkpt lat="45.81175" lon="6.4019">
        <ele>1687</ele>
        <time>2018-10-17T12:55:47Z</time>
      </trkpt>
      <trkpt lat="45.81175" lon="6.4019">
        <ele>1686</ele>
        <time>2018-10-17T12:55:48Z</time>
      </trkpt>
      <trkpt lat="45.81175" lon="6.4019">
        <ele>1685</ele>
        <time>2018-10-17T12:55:49Z</time>
      </trkpt>
      <trkpt lat="45.81177" lon="6.40188">
        <ele>1685</ele>
        <time>2018-10-17T12:55:50Z</time>
      </trkpt>
      <trkpt lat="45.81177" lon="6.40188">
        <ele>1685</ele>
        <time>2018-10-17T12:55:51Z</time>
      </trkpt>
      <trkpt lat="45.81179" lon="6.40188">
        <ele>1685</ele>
        <time>2018-10-17T12:55:52Z</time>
      </trkpt>
      <trkpt lat="45.81179" lon="6.40188">
        <ele>1685</ele>
        <time>2018-10-17T12:55:53Z</time>
      </trkpt>
      <trkpt lat="45.81182" lon="6.40186">
        <ele>1685</ele>
        <time>2018-10-17T12:55:54Z</time>
      </trkpt>
      <trkpt lat="45.81182" lon="6.40186">
        <ele>1685</ele>
        <time>2018-10-17T12:55:55Z</time>
      </trkpt>
      <trkpt lat="45.81184" lon="6.40185">
        <ele>1685</ele>
        <time>2018-10-17T12:55:56Z</time>
      </trkpt>
      <trkpt lat="45.81184" lon="6.40185">
        <ele>1685</ele>
        <time>2018-10-17T12:55:57Z</time>
      </trkpt>
      <trkpt lat="45.81186" lon="6.40184">
        <ele>1685</ele>
        <time>2018-10-17T12:55:58Z</time>
      </trkpt>
      <trkpt lat="45.81186" lon="6.40184">
        <ele>1685</ele>
        <time>2018-10-17T12:55:59Z</time>
      </trkpt>
      <trkpt lat="45.81188" lon="6.40183">
        <ele>1685</ele>
        <time>2018-10-17T12:56:00Z</time>
      </trkpt>
      <trkpt lat="45.81188" lon="6.40183">
        <ele>1684</ele>
        <time>2018-10-17T12:56:01Z</time>
      </trkpt>
      <trkpt lat="45.81191" lon="6.40182">
        <ele>1684</ele>
        <time>2018-10-17T12:56:02Z</time>
      </trkpt>
      <trkpt lat="45.81191" lon="6.40182">
        <ele>1684</ele>
        <time>2018-10-17T12:56:03Z</time>
      </trkpt>
      <trkpt lat="45.81193" lon="6.4018">
        <ele>1684</ele>
        <time>2018-10-17T12:56:04Z</time>
      </trkpt>
      <trkpt lat="45.81193" lon="6.4018">
        <ele>1684</ele>
        <time>2018-10-17T12:56:05Z</time>
      </trkpt>
      <trkpt lat="45.81196" lon="6.40179">
        <ele>1684</ele>
        <time>2018-10-17T12:56:06Z</time>
      </trkpt>
      <trkpt lat="45.81196" lon="6.40179">
        <ele>1684</ele>
        <time>2018-10-17T12:56:07Z</time>
      </trkpt>
      <trkpt lat="45.81198" lon="6.40177">
        <ele>1684</ele>
        <time>2018-10-17T12:56:08Z</time>
      </trkpt>
      <trkpt lat="45.81198" lon="6.40177">
        <ele>1683</ele>
        <time>2018-10-17T12:56:09Z</time>
      </trkpt>
      <trkpt lat="45.812" lon="6.40175">
        <ele>1683</ele>
        <time>2018-10-17T12:56:10Z</time>
      </trkpt>
      <trkpt lat="45.812" lon="6.40175">
        <ele>1683</ele>
        <time>2018-10-17T12:56:11Z</time>
      </trkpt>
      <trkpt lat="45.81202" lon="6.40173">
        <ele>1683</ele>
        <time>2018-10-17T12:56:12Z</time>
      </trkpt>
      <trkpt lat="45.81202" lon="6.40173">
        <ele>1683</ele>
        <time>2018-10-17T12:56:13Z</time>
      </trkpt>
      <trkpt lat="45.81204" lon="6.40171">
        <ele>1683</ele>
        <time>2018-10-17T12:56:14Z</time>
      </trkpt>
      <trkpt lat="45.81204" lon="6.40171">
        <ele>1683</ele>
        <time>2018-10-17T12:56:15Z</time>
      </trkpt>
      <trkpt lat="45.81206" lon="6.4017">
        <ele>1683</ele>
        <time>2018-10-17T12:56:16Z</time>
      </trkpt>
      <trkpt lat="45.81206" lon="6.4017">
        <ele>1683</ele>
        <time>2018-10-17T12:56:17Z</time>
      </trkpt>
      <trkpt lat="45.81208" lon="6.40168">
        <ele>1683</ele>
        <time>2018-10-17T12:56:18Z</time>
      </trkpt>
      <trkpt lat="45.81208" lon="6.40168">
        <ele>1683</ele>
        <time>2018-10-17T12:56:19Z</time>
      </trkpt>
      <trkpt lat="45.81211" lon="6.40167">
        <ele>1683</ele>
        <time>2018-10-17T12:56:20Z</time>
      </trkpt>
      <trkpt lat="45.81211" lon="6.40167">
        <ele>1683</ele>
        <time>2018-10-17T12:56:21Z</time>
      </trkpt>
      <trkpt lat="45.81213" lon="6.40165">
        <ele>1683</ele>
        <time>2018-10-17T12:56:22Z</time>
      </trkpt>
      <trkpt lat="45.81213" lon="6.40165">
        <ele>1683</ele>
        <time>2018-10-17T12:56:23Z</time>
      </trkpt>
      <trkpt lat="45.81215" lon="6.40163">
        <ele>1683</ele>
        <time>2018-10-17T12:56:24Z</time>
      </trkpt>
      <trkpt lat="45.81215" lon="6.40163">
        <ele>1683</ele>
        <time>2018-10-17T12:56:25Z</time>
      </trkpt>
      <trkpt lat="45.81217" lon="6.40161">
        <ele>1683</ele>
        <time>2018-10-17T12:56:26Z</time>
      </trkpt>
      <trkpt lat="45.81217" lon="6.40161">
        <ele>1683</ele>
        <time>2018-10-17T12:56:27Z</time>
      </trkpt>
      <trkpt lat="45.8122" lon="6.40159">
        <ele>1683</ele>
        <time>2018-10-17T12:56:28Z</time>
      </trkpt>
      <trkpt lat="45.8122" lon="6.40159">
        <ele>1684</ele>
        <time>2018-10-17T12:56:29Z</time>
      </trkpt>
      <trkpt lat="45.81221" lon="6.40157">
        <ele>1684</ele>
        <time>2018-10-17T12:56:30Z</time>
      </trkpt>
      <trkpt lat="45.81221" lon="6.40157">
        <ele>1684</ele>
        <time>2018-10-17T12:56:31Z</time>
      </trkpt>
      <trkpt lat="45.81223" lon="6.40155">
        <ele>1683</ele>
        <time>2018-10-17T12:56:32Z</time>
      </trkpt>
      <trkpt lat="45.81223" lon="6.40155">
        <ele>1684</ele>
        <time>2018-10-17T12:56:33Z</time>
      </trkpt>
      <trkpt lat="45.81225" lon="6.40152">
        <ele>1684</ele>
        <time>2018-10-17T12:56:34Z</time>
      </trkpt>
      <trkpt lat="45.81225" lon="6.40152">
        <ele>1684</ele>
        <time>2018-10-17T12:56:35Z</time>
      </trkpt>
      <trkpt lat="45.81227" lon="6.40151">
        <ele>1684</ele>
        <time>2018-10-17T12:56:36Z</time>
      </trkpt>
      <trkpt lat="45.81227" lon="6.40151">
        <ele>1683</ele>
        <time>2018-10-17T12:56:37Z</time>
      </trkpt>
      <trkpt lat="45.8123" lon="6.40149">
        <ele>1683</ele>
        <time>2018-10-17T12:56:38Z</time>
      </trkpt>
      <trkpt lat="45.8123" lon="6.40149">
        <ele>1683</ele>
        <time>2018-10-17T12:56:39Z</time>
      </trkpt>
      <trkpt lat="45.81232" lon="6.40148">
        <ele>1683</ele>
        <time>2018-10-17T12:56:40Z</time>
      </trkpt>
      <trkpt lat="45.81232" lon="6.40148">
        <ele>1683</ele>
        <time>2018-10-17T12:56:41Z</time>
      </trkpt>
      <trkpt lat="45.81234" lon="6.40146">
        <ele>1683</ele>
        <time>2018-10-17T12:56:42Z</time>
      </trkpt>
      <trkpt lat="45.81234" lon="6.40146">
        <ele>1683</ele>
        <time>2018-10-17T12:56:43Z</time>
      </trkpt>
      <trkpt lat="45.81236" lon="6.40145">
        <ele>1684</ele>
        <time>2018-10-17T12:56:44Z</time>
      </trkpt>
      <trkpt lat="45.81236" lon="6.40145">
        <ele>1684</ele>
        <time>2018-10-17T12:56:45Z</time>
      </trkpt>
      <trkpt lat="45.81238" lon="6.40143">
        <ele>1684</ele>
        <time>2018-10-17T12:56:46Z</time>
      </trkpt>
      <trkpt lat="45.81238" lon="6.40143">
        <ele>1684</ele>
        <time>2018-10-17T12:56:47Z</time>
      </trkpt>
      <trkpt lat="45.81241" lon="6.40141">
        <ele>1684</ele>
        <time>2018-10-17T12:56:48Z</time>
      </trkpt>
      <trkpt lat="45.81241" lon="6.40141">
        <ele>1684</ele>
        <time>2018-10-17T12:56:49Z</time>
      </trkpt>
      <trkpt lat="45.81243" lon="6.40139">
        <ele>1684</ele>
        <time>2018-10-17T12:56:50Z</time>
      </trkpt>
      <trkpt lat="45.81243" lon="6.40139">
        <ele>1684</ele>
        <time>2018-10-17T12:56:51Z</time>
      </trkpt>
      <trkpt lat="45.81243" lon="6.40139">
        <ele>1684</ele>
        <time>2018-10-17T12:56:52Z</time>
      </trkpt>
      <trkpt lat="45.81244" lon="6.40136">
        <ele>1684</ele>
        <time>2018-10-17T12:56:53Z</time>
      </trkpt>
      <trkpt lat="45.81244" lon="6.40136">
        <ele>1684</ele>
        <time>2018-10-17T12:56:54Z</time>
      </trkpt>
      <trkpt lat="45.81247" lon="6.40131">
        <ele>1684</ele>
        <time>2018-10-17T12:56:55Z</time>
      </trkpt>
      <trkpt lat="45.81248" lon="6.4013">
        <ele>1684</ele>
        <time>2018-10-17T12:56:56Z</time>
      </trkpt>
      <trkpt lat="45.81249" lon="6.40128">
        <ele>1684</ele>
        <time>2018-10-17T12:56:57Z</time>
      </trkpt>
      <trkpt lat="45.8125" lon="6.40126">
        <ele>1683</ele>
        <time>2018-10-17T12:56:58Z</time>
      </trkpt>
      <trkpt lat="45.81252" lon="6.40123">
        <ele>1683</ele>
        <time>2018-10-17T12:56:59Z</time>
      </trkpt>
      <trkpt lat="45.81253" lon="6.40122">
        <ele>1683</ele>
        <time>2018-10-17T12:57:00Z</time>
      </trkpt>
      <trkpt lat="45.81255" lon="6.40119">
        <ele>1683</ele>
        <time>2018-10-17T12:57:01Z</time>
      </trkpt>
      <trkpt lat="45.81256" lon="6.40117">
        <ele>1683</ele>
        <time>2018-10-17T12:57:02Z</time>
      </trkpt>
      <trkpt lat="45.81258" lon="6.40115">
        <ele>1683</ele>
        <time>2018-10-17T12:57:03Z</time>
      </trkpt>
      <trkpt lat="45.81259" lon="6.40113">
        <ele>1684</ele>
        <time>2018-10-17T12:57:04Z</time>
      </trkpt>
      <trkpt lat="45.8126" lon="6.4011">
        <ele>1684</ele>
        <time>2018-10-17T12:57:05Z</time>
      </trkpt>
      <trkpt lat="45.81261" lon="6.40108">
        <ele>1683</ele>
        <time>2018-10-17T12:57:06Z</time>
      </trkpt>
      <trkpt lat="45.81263" lon="6.40105">
        <ele>1683</ele>
        <time>2018-10-17T12:57:07Z</time>
      </trkpt>
      <trkpt lat="45.81264" lon="6.40102">
        <ele>1683</ele>
        <time>2018-10-17T12:57:08Z</time>
      </trkpt>
      <trkpt lat="45.81265" lon="6.401">
        <ele>1683</ele>
        <time>2018-10-17T12:57:09Z</time>
      </trkpt>
      <trkpt lat="45.81267" lon="6.40098">
        <ele>1683</ele>
        <time>2018-10-17T12:57:10Z</time>
      </trkpt>
      <trkpt lat="45.81268" lon="6.40096">
        <ele>1683</ele>
        <time>2018-10-17T12:57:11Z</time>
      </trkpt>
      <trkpt lat="45.81269" lon="6.40094">
        <ele>1683</ele>
        <time>2018-10-17T12:57:12Z</time>
      </trkpt>
      <trkpt lat="45.81271" lon="6.40092">
        <ele>1682</ele>
        <time>2018-10-17T12:57:13Z</time>
      </trkpt>
      <trkpt lat="45.81272" lon="6.40089">
        <ele>1682</ele>
        <time>2018-10-17T12:57:14Z</time>
      </trkpt>
      <trkpt lat="45.81273" lon="6.40087">
        <ele>1682</ele>
        <time>2018-10-17T12:57:15Z</time>
      </trkpt>
      <trkpt lat="45.81275" lon="6.40085">
        <ele>1682</ele>
        <time>2018-10-17T12:57:16Z</time>
      </trkpt>
      <trkpt lat="45.81276" lon="6.40083">
        <ele>1682</ele>
        <time>2018-10-17T12:57:17Z</time>
      </trkpt>
      <trkpt lat="45.81277" lon="6.4008">
        <ele>1682</ele>
        <time>2018-10-17T12:57:18Z</time>
      </trkpt>
      <trkpt lat="45.81277" lon="6.4008">
        <ele>1682</ele>
        <time>2018-10-17T12:57:19Z</time>
      </trkpt>
      <trkpt lat="45.8128" lon="6.40077">
        <ele>1681</ele>
        <time>2018-10-17T12:57:20Z</time>
      </trkpt>
      <trkpt lat="45.81281" lon="6.40075">
        <ele>1681</ele>
        <time>2018-10-17T12:57:21Z</time>
      </trkpt>
      <trkpt lat="45.81282" lon="6.40073">
        <ele>1681</ele>
        <time>2018-10-17T12:57:22Z</time>
      </trkpt>
      <trkpt lat="45.81282" lon="6.40073">
        <ele>1681</ele>
        <time>2018-10-17T12:57:23Z</time>
      </trkpt>
      <trkpt lat="45.81285" lon="6.40069">
        <ele>1681</ele>
        <time>2018-10-17T12:57:24Z</time>
      </trkpt>
      <trkpt lat="45.81286" lon="6.40067">
        <ele>1681</ele>
        <time>2018-10-17T12:57:25Z</time>
      </trkpt>
      <trkpt lat="45.81286" lon="6.40067">
        <ele>1680</ele>
        <time>2018-10-17T12:57:26Z</time>
      </trkpt>
      <trkpt lat="45.81288" lon="6.40064">
        <ele>1680</ele>
        <time>2018-10-17T12:57:27Z</time>
      </trkpt>
      <trkpt lat="45.81288" lon="6.40064">
        <ele>1680</ele>
        <time>2018-10-17T12:57:28Z</time>
      </trkpt>
      <trkpt lat="45.8129" lon="6.40061">
        <ele>1680</ele>
        <time>2018-10-17T12:57:29Z</time>
      </trkpt>
      <trkpt lat="45.8129" lon="6.40061">
        <ele>1680</ele>
        <time>2018-10-17T12:57:30Z</time>
      </trkpt>
      <trkpt lat="45.81291" lon="6.40058">
        <ele>1680</ele>
        <time>2018-10-17T12:57:31Z</time>
      </trkpt>
      <trkpt lat="45.81291" lon="6.40058">
        <ele>1680</ele>
        <time>2018-10-17T12:57:32Z</time>
      </trkpt>
      <trkpt lat="45.81294" lon="6.40055">
        <ele>1680</ele>
        <time>2018-10-17T12:57:33Z</time>
      </trkpt>
      <trkpt lat="45.81294" lon="6.40055">
        <ele>1679</ele>
        <time>2018-10-17T12:57:34Z</time>
      </trkpt>
      <trkpt lat="45.81297" lon="6.40053">
        <ele>1679</ele>
        <time>2018-10-17T12:57:35Z</time>
      </trkpt>
      <trkpt lat="45.81297" lon="6.40053">
        <ele>1679</ele>
        <time>2018-10-17T12:57:36Z</time>
      </trkpt>
      <trkpt lat="45.813" lon="6.40051">
        <ele>1679</ele>
        <time>2018-10-17T12:57:37Z</time>
      </trkpt>
      <trkpt lat="45.813" lon="6.40051">
        <ele>1679</ele>
        <time>2018-10-17T12:57:38Z</time>
      </trkpt>
      <trkpt lat="45.81302" lon="6.40049">
        <ele>1679</ele>
        <time>2018-10-17T12:57:39Z</time>
      </trkpt>
      <trkpt lat="45.81302" lon="6.40049">
        <ele>1679</ele>
        <time>2018-10-17T12:57:40Z</time>
      </trkpt>
      <trkpt lat="45.81304" lon="6.40047">
        <ele>1679</ele>
        <time>2018-10-17T12:57:41Z</time>
      </trkpt>
      <trkpt lat="45.81304" lon="6.40047">
        <ele>1679</ele>
        <time>2018-10-17T12:57:42Z</time>
      </trkpt>
      <trkpt lat="45.81306" lon="6.40043">
        <ele>1679</ele>
        <time>2018-10-17T12:57:43Z</time>
      </trkpt>
      <trkpt lat="45.81306" lon="6.40043">
        <ele>1679</ele>
        <time>2018-10-17T12:57:44Z</time>
      </trkpt>
      <trkpt lat="45.81307" lon="6.4004">
        <ele>1679</ele>
        <time>2018-10-17T12:57:45Z</time>
      </trkpt>
      <trkpt lat="45.81307" lon="6.4004">
        <ele>1679</ele>
        <time>2018-10-17T12:57:46Z</time>
      </trkpt>
      <trkpt lat="45.81307" lon="6.40036">
        <ele>1679</ele>
        <time>2018-10-17T12:57:47Z</time>
      </trkpt>
      <trkpt lat="45.81307" lon="6.40036">
        <ele>1679</ele>
        <time>2018-10-17T12:57:48Z</time>
      </trkpt>
      <trkpt lat="45.8131" lon="6.40033">
        <ele>1679</ele>
        <time>2018-10-17T12:57:49Z</time>
      </trkpt>
      <trkpt lat="45.8131" lon="6.40033">
        <ele>1679</ele>
        <time>2018-10-17T12:57:50Z</time>
      </trkpt>
      <trkpt lat="45.81312" lon="6.4003">
        <ele>1679</ele>
        <time>2018-10-17T12:57:51Z</time>
      </trkpt>
      <trkpt lat="45.81312" lon="6.4003">
        <ele>1679</ele>
        <time>2018-10-17T12:57:52Z</time>
      </trkpt>
      <trkpt lat="45.81314" lon="6.40027">
        <ele>1679</ele>
        <time>2018-10-17T12:57:53Z</time>
      </trkpt>
      <trkpt lat="45.81314" lon="6.40027">
        <ele>1679</ele>
        <time>2018-10-17T12:57:54Z</time>
      </trkpt>
      <trkpt lat="45.81315" lon="6.40023">
        <ele>1679</ele>
        <time>2018-10-17T12:57:55Z</time>
      </trkpt>
      <trkpt lat="45.81315" lon="6.40023">
        <ele>1679</ele>
        <time>2018-10-17T12:57:56Z</time>
      </trkpt>
      <trkpt lat="45.81317" lon="6.40019">
        <ele>1679</ele>
        <time>2018-10-17T12:57:57Z</time>
      </trkpt>
      <trkpt lat="45.81317" lon="6.40019">
        <ele>1679</ele>
        <time>2018-10-17T12:57:58Z</time>
      </trkpt>
      <trkpt lat="45.81318" lon="6.40015">
        <ele>1679</ele>
        <time>2018-10-17T12:57:59Z</time>
      </trkpt>
      <trkpt lat="45.81318" lon="6.40015">
        <ele>1679</ele>
        <time>2018-10-17T12:58:00Z</time>
      </trkpt>
      <trkpt lat="45.8132" lon="6.40011">
        <ele>1679</ele>
        <time>2018-10-17T12:58:01Z</time>
      </trkpt>
      <trkpt lat="45.8132" lon="6.40011">
        <ele>1679</ele>
        <time>2018-10-17T12:58:02Z</time>
      </trkpt>
      <trkpt lat="45.81322" lon="6.40009">
        <ele>1679</ele>
        <time>2018-10-17T12:58:03Z</time>
      </trkpt>
      <trkpt lat="45.81322" lon="6.40009">
        <ele>1679</ele>
        <time>2018-10-17T12:58:04Z</time>
      </trkpt>
      <trkpt lat="45.81324" lon="6.40008">
        <ele>1678</ele>
        <time>2018-10-17T12:58:05Z</time>
      </trkpt>
      <trkpt lat="45.81324" lon="6.40008">
        <ele>1678</ele>
        <time>2018-10-17T12:58:06Z</time>
      </trkpt>
      <trkpt lat="45.81326" lon="6.40007">
        <ele>1678</ele>
        <time>2018-10-17T12:58:07Z</time>
      </trkpt>
      <trkpt lat="45.81326" lon="6.40007">
        <ele>1678</ele>
        <time>2018-10-17T12:58:08Z</time>
      </trkpt>
      <trkpt lat="45.81329" lon="6.40007">
        <ele>1678</ele>
        <time>2018-10-17T12:58:09Z</time>
      </trkpt>
      <trkpt lat="45.81329" lon="6.40007">
        <ele>1678</ele>
        <time>2018-10-17T12:58:10Z</time>
      </trkpt>
      <trkpt lat="45.81331" lon="6.40006">
        <ele>1678</ele>
        <time>2018-10-17T12:58:11Z</time>
      </trkpt>
      <trkpt lat="45.81331" lon="6.40006">
        <ele>1678</ele>
        <time>2018-10-17T12:58:12Z</time>
      </trkpt>
      <trkpt lat="45.81333" lon="6.40007">
        <ele>1678</ele>
        <time>2018-10-17T12:58:13Z</time>
      </trkpt>
      <trkpt lat="45.81333" lon="6.40007">
        <ele>1678</ele>
        <time>2018-10-17T12:58:14Z</time>
      </trkpt>
      <trkpt lat="45.81335" lon="6.40009">
        <ele>1678</ele>
        <time>2018-10-17T12:58:15Z</time>
      </trkpt>
      <trkpt lat="45.81335" lon="6.40009">
        <ele>1678</ele>
        <time>2018-10-17T12:58:16Z</time>
      </trkpt>
      <trkpt lat="45.81338" lon="6.40011">
        <ele>1678</ele>
        <time>2018-10-17T12:58:17Z</time>
      </trkpt>
      <trkpt lat="45.81338" lon="6.40011">
        <ele>1678</ele>
        <time>2018-10-17T12:58:18Z</time>
      </trkpt>
      <trkpt lat="45.8134" lon="6.40013">
        <ele>1677</ele>
        <time>2018-10-17T12:58:19Z</time>
      </trkpt>
      <trkpt lat="45.8134" lon="6.40013">
        <ele>1677</ele>
        <time>2018-10-17T12:58:20Z</time>
      </trkpt>
      <trkpt lat="45.81342" lon="6.40015">
        <ele>1678</ele>
        <time>2018-10-17T12:58:21Z</time>
      </trkpt>
      <trkpt lat="45.81342" lon="6.40015">
        <ele>1678</ele>
        <time>2018-10-17T12:58:22Z</time>
      </trkpt>
      <trkpt lat="45.81342" lon="6.40015">
        <ele>1678</ele>
        <time>2018-10-17T12:58:23Z</time>
      </trkpt>
      <trkpt lat="45.81342" lon="6.40015">
        <ele>1678</ele>
        <time>2018-10-17T12:58:24Z</time>
      </trkpt>
      <trkpt lat="45.81342" lon="6.40015">
        <ele>1678</ele>
        <time>2018-10-17T12:58:25Z</time>
      </trkpt>
      <trkpt lat="45.81342" lon="6.40015">
        <ele>1678</ele>
        <time>2018-10-17T12:58:26Z</time>
      </trkpt>
      <trkpt lat="45.81342" lon="6.40015">
        <ele>1678</ele>
        <time>2018-10-17T12:58:27Z</time>
      </trkpt>
      <trkpt lat="45.81342" lon="6.40015">
        <ele>1678</ele>
        <time>2018-10-17T12:58:28Z</time>
      </trkpt>
      <trkpt lat="45.81342" lon="6.40015">
        <ele>1678</ele>
        <time>2018-10-17T12:58:29Z</time>
      </trkpt>
      <trkpt lat="45.81342" lon="6.40015">
        <ele>1678</ele>
        <time>2018-10-17T12:58:30Z</time>
      </trkpt>
      <trkpt lat="45.81342" lon="6.40015">
        <ele>1678</ele>
        <time>2018-10-17T12:58:31Z</time>
      </trkpt>
      <trkpt lat="45.81342" lon="6.40015">
        <ele>1678</ele>
        <time>2018-10-17T12:58:32Z</time>
      </trkpt>
      <trkpt lat="45.81342" lon="6.40015">
        <ele>1678</ele>
        <time>2018-10-17T12:58:33Z</time>
      </trkpt>
      <trkpt lat="45.81344" lon="6.40017">
        <ele>1678</ele>
        <time>2018-10-17T12:58:34Z</time>
      </trkpt>
      <trkpt lat="45.81344" lon="6.40017">
        <ele>1678</ele>
        <time>2018-10-17T12:58:35Z</time>
      </trkpt>
      <trkpt lat="45.81346" lon="6.40018">
        <ele>1678</ele>
        <time>2018-10-17T12:58:36Z</time>
      </trkpt>
      <trkpt lat="45.81346" lon="6.40018">
        <ele>1678</ele>
        <time>2018-10-17T12:58:37Z</time>
      </trkpt>
      <trkpt lat="45.81348" lon="6.4002">
        <ele>1678</ele>
        <time>2018-10-17T12:58:38Z</time>
      </trkpt>
      <trkpt lat="45.81348" lon="6.4002">
        <ele>1678</ele>
        <time>2018-10-17T12:58:39Z</time>
      </trkpt>
      <trkpt lat="45.8135" lon="6.40021">
        <ele>1678</ele>
        <time>2018-10-17T12:58:40Z</time>
      </trkpt>
      <trkpt lat="45.8135" lon="6.40021">
        <ele>1678</ele>
        <time>2018-10-17T12:58:41Z</time>
      </trkpt>
      <trkpt lat="45.8135" lon="6.40021">
        <ele>1678</ele>
        <time>2018-10-17T12:58:42Z</time>
      </trkpt>
      <trkpt lat="45.81352" lon="6.40023">
        <ele>1678</ele>
        <time>2018-10-17T12:58:43Z</time>
      </trkpt>
      <trkpt lat="45.81352" lon="6.40023">
        <ele>1678</ele>
        <time>2018-10-17T12:58:44Z</time>
      </trkpt>
      <trkpt lat="45.81352" lon="6.40023">
        <ele>1678</ele>
        <time>2018-10-17T12:58:45Z</time>
      </trkpt>
      <trkpt lat="45.81352" lon="6.40023">
        <ele>1678</ele>
        <time>2018-10-17T12:58:46Z</time>
      </trkpt>
      <trkpt lat="45.81352" lon="6.40023">
        <ele>1678</ele>
        <time>2018-10-17T12:58:47Z</time>
      </trkpt>
      <trkpt lat="45.81354" lon="6.40025">
        <ele>1678</ele>
        <time>2018-10-17T12:58:48Z</time>
      </trkpt>
      <trkpt lat="45.81354" lon="6.40025">
        <ele>1678</ele>
        <time>2018-10-17T12:58:49Z</time>
      </trkpt>
      <trkpt lat="45.81354" lon="6.40025">
        <ele>1678</ele>
        <time>2018-10-17T12:58:50Z</time>
      </trkpt>
      <trkpt lat="45.81354" lon="6.40025">
        <ele>1677</ele>
        <time>2018-10-17T12:58:51Z</time>
      </trkpt>
      <trkpt lat="45.81354" lon="6.40025">
        <ele>1677</ele>
        <time>2018-10-17T12:58:52Z</time>
      </trkpt>
      <trkpt lat="45.81354" lon="6.40025">
        <ele>1677</ele>
        <time>2018-10-17T12:58:53Z</time>
      </trkpt>
      <trkpt lat="45.81354" lon="6.40025">
        <ele>1677</ele>
        <time>2018-10-17T12:58:54Z</time>
      </trkpt>
      <trkpt lat="45.81354" lon="6.40025">
        <ele>1678</ele>
        <time>2018-10-17T12:58:55Z</time>
      </trkpt>
      <trkpt lat="45.81354" lon="6.40025">
        <ele>1678</ele>
        <time>2018-10-17T12:58:56Z</time>
      </trkpt>
      <trkpt lat="45.81355" lon="6.40027">
        <ele>1678</ele>
        <time>2018-10-17T12:58:57Z</time>
      </trkpt>
      <trkpt lat="45.81355" lon="6.40027">
        <ele>1678</ele>
        <time>2018-10-17T12:58:58Z</time>
      </trkpt>
      <trkpt lat="45.81355" lon="6.40027">
        <ele>1678</ele>
        <time>2018-10-17T12:58:59Z</time>
      </trkpt>
      <trkpt lat="45.81357" lon="6.4003">
        <ele>1677</ele>
        <time>2018-10-17T12:59:00Z</time>
      </trkpt>
      <trkpt lat="45.81357" lon="6.4003">
        <ele>1677</ele>
        <time>2018-10-17T12:59:01Z</time>
      </trkpt>
      <trkpt lat="45.81359" lon="6.40033">
        <ele>1677</ele>
        <time>2018-10-17T12:59:02Z</time>
      </trkpt>
      <trkpt lat="45.81359" lon="6.40033">
        <ele>1677</ele>
        <time>2018-10-17T12:59:03Z</time>
      </trkpt>
      <trkpt lat="45.8136" lon="6.40035">
        <ele>1677</ele>
        <time>2018-10-17T12:59:04Z</time>
      </trkpt>
      <trkpt lat="45.8136" lon="6.40035">
        <ele>1677</ele>
        <time>2018-10-17T12:59:05Z</time>
      </trkpt>
      <trkpt lat="45.81361" lon="6.40038">
        <ele>1677</ele>
        <time>2018-10-17T12:59:06Z</time>
      </trkpt>
      <trkpt lat="45.81361" lon="6.40038">
        <ele>1677</ele>
        <time>2018-10-17T12:59:07Z</time>
      </trkpt>
      <trkpt lat="45.81362" lon="6.40042">
        <ele>1677</ele>
        <time>2018-10-17T12:59:08Z</time>
      </trkpt>
      <trkpt lat="45.81362" lon="6.40042">
        <ele>1677</ele>
        <time>2018-10-17T12:59:09Z</time>
      </trkpt>
      <trkpt lat="45.81365" lon="6.40044">
        <ele>1677</ele>
        <time>2018-10-17T12:59:10Z</time>
      </trkpt>
      <trkpt lat="45.81365" lon="6.40044">
        <ele>1677</ele>
        <time>2018-10-17T12:59:11Z</time>
      </trkpt>
      <trkpt lat="45.81367" lon="6.40047">
        <ele>1677</ele>
        <time>2018-10-17T12:59:12Z</time>
      </trkpt>
      <trkpt lat="45.81367" lon="6.40047">
        <ele>1676</ele>
        <time>2018-10-17T12:59:13Z</time>
      </trkpt>
      <trkpt lat="45.81369" lon="6.4005">
        <ele>1676</ele>
        <time>2018-10-17T12:59:14Z</time>
      </trkpt>
      <trkpt lat="45.81369" lon="6.4005">
        <ele>1676</ele>
        <time>2018-10-17T12:59:15Z</time>
      </trkpt>
      <trkpt lat="45.81372" lon="6.40053">
        <ele>1676</ele>
        <time>2018-10-17T12:59:16Z</time>
      </trkpt>
      <trkpt lat="45.81373" lon="6.40055">
        <ele>1676</ele>
        <time>2018-10-17T12:59:17Z</time>
      </trkpt>
      <trkpt lat="45.81375" lon="6.40057">
        <ele>1676</ele>
        <time>2018-10-17T12:59:18Z</time>
      </trkpt>
      <trkpt lat="45.81375" lon="6.40057">
        <ele>1676</ele>
        <time>2018-10-17T12:59:19Z</time>
      </trkpt>
      <trkpt lat="45.81377" lon="6.40058">
        <ele>1676</ele>
        <time>2018-10-17T12:59:20Z</time>
      </trkpt>
      <trkpt lat="45.81377" lon="6.40058">
        <ele>1676</ele>
        <time>2018-10-17T12:59:21Z</time>
      </trkpt>
      <trkpt lat="45.81379" lon="6.4006">
        <ele>1676</ele>
        <time>2018-10-17T12:59:22Z</time>
      </trkpt>
      <trkpt lat="45.81379" lon="6.4006">
        <ele>1676</ele>
        <time>2018-10-17T12:59:23Z</time>
      </trkpt>
      <trkpt lat="45.81381" lon="6.40062">
        <ele>1676</ele>
        <time>2018-10-17T12:59:24Z</time>
      </trkpt>
      <trkpt lat="45.81381" lon="6.40062">
        <ele>1676</ele>
        <time>2018-10-17T12:59:25Z</time>
      </trkpt>
      <trkpt lat="45.81382" lon="6.40065">
        <ele>1677</ele>
        <time>2018-10-17T12:59:26Z</time>
      </trkpt>
      <trkpt lat="45.81382" lon="6.40065">
        <ele>1677</ele>
        <time>2018-10-17T12:59:27Z</time>
      </trkpt>
      <trkpt lat="45.81383" lon="6.40068">
        <ele>1677</ele>
        <time>2018-10-17T12:59:28Z</time>
      </trkpt>
      <trkpt lat="45.81383" lon="6.40068">
        <ele>1678</ele>
        <time>2018-10-17T12:59:29Z</time>
      </trkpt>
      <trkpt lat="45.81385" lon="6.40071">
        <ele>1678</ele>
        <time>2018-10-17T12:59:30Z</time>
      </trkpt>
      <trkpt lat="45.81385" lon="6.40071">
        <ele>1678</ele>
        <time>2018-10-17T12:59:31Z</time>
      </trkpt>
      <trkpt lat="45.81386" lon="6.40074">
        <ele>1678</ele>
        <time>2018-10-17T12:59:32Z</time>
      </trkpt>
      <trkpt lat="45.81386" lon="6.40074">
        <ele>1678</ele>
        <time>2018-10-17T12:59:33Z</time>
      </trkpt>
      <trkpt lat="45.81387" lon="6.40077">
        <ele>1678</ele>
        <time>2018-10-17T12:59:34Z</time>
      </trkpt>
      <trkpt lat="45.81387" lon="6.40077">
        <ele>1678</ele>
        <time>2018-10-17T12:59:35Z</time>
      </trkpt>
      <trkpt lat="45.81388" lon="6.4008">
        <ele>1678</ele>
        <time>2018-10-17T12:59:36Z</time>
      </trkpt>
      <trkpt lat="45.81388" lon="6.4008">
        <ele>1678</ele>
        <time>2018-10-17T12:59:37Z</time>
      </trkpt>
      <trkpt lat="45.81388" lon="6.4008">
        <ele>1678</ele>
        <time>2018-10-17T12:59:38Z</time>
      </trkpt>
      <trkpt lat="45.81388" lon="6.4008">
        <ele>1678</ele>
        <time>2018-10-17T12:59:39Z</time>
      </trkpt>
      <trkpt lat="45.81388" lon="6.4008">
        <ele>1678</ele>
        <time>2018-10-17T12:59:40Z</time>
      </trkpt>
      <trkpt lat="45.81388" lon="6.4008">
        <ele>1678</ele>
        <time>2018-10-17T12:59:41Z</time>
      </trkpt>
      <trkpt lat="45.81388" lon="6.4008">
        <ele>1678</ele>
        <time>2018-10-17T12:59:42Z</time>
      </trkpt>
      <trkpt lat="45.81388" lon="6.4008">
        <ele>1678</ele>
        <time>2018-10-17T12:59:43Z</time>
      </trkpt>
      <trkpt lat="45.81388" lon="6.4008">
        <ele>1678</ele>
        <time>2018-10-17T12:59:44Z</time>
      </trkpt>
      <trkpt lat="45.81388" lon="6.4008">
        <ele>1679</ele>
        <time>2018-10-17T12:59:45Z</time>
      </trkpt>
      <trkpt lat="45.81388" lon="6.4008">
        <ele>1679</ele>
        <time>2018-10-17T12:59:46Z</time>
      </trkpt>
      <trkpt lat="45.81388" lon="6.4008">
        <ele>1679</ele>
        <time>2018-10-17T12:59:47Z</time>
      </trkpt>
      <trkpt lat="45.81388" lon="6.4008">
        <ele>1679</ele>
        <time>2018-10-17T12:59:48Z</time>
      </trkpt>
      <trkpt lat="45.81388" lon="6.4008">
        <ele>1679</ele>
        <time>2018-10-17T12:59:49Z</time>
      </trkpt>
      <trkpt lat="45.81388" lon="6.4008">
        <ele>1679</ele>
        <time>2018-10-17T12:59:50Z</time>
      </trkpt>
      <trkpt lat="45.81388" lon="6.4008">
        <ele>1679</ele>
        <time>2018-10-17T12:59:51Z</time>
      </trkpt>
      <trkpt lat="45.81388" lon="6.4008">
        <ele>1679</ele>
        <time>2018-10-17T12:59:52Z</time>
      </trkpt>
      <trkpt lat="45.81388" lon="6.4008">
        <ele>1679</ele>
        <time>2018-10-17T12:59:53Z</time>
      </trkpt>
      <trkpt lat="45.81388" lon="6.4008">
        <ele>1679</ele>
        <time>2018-10-17T12:59:54Z</time>
      </trkpt>
      <trkpt lat="45.81388" lon="6.4008">
        <ele>1678</ele>
        <time>2018-10-17T12:59:55Z</time>
      </trkpt>
      <trkpt lat="45.81388" lon="6.4008">
        <ele>1679</ele>
        <time>2018-10-17T12:59:56Z</time>
      </trkpt>
      <trkpt lat="45.81388" lon="6.4008">
        <ele>1679</ele>
        <time>2018-10-17T12:59:57Z</time>
      </trkpt>
      <trkpt lat="45.81388" lon="6.4008">
        <ele>1678</ele>
        <time>2018-10-17T12:59:58Z</time>
      </trkpt>
      <trkpt lat="45.81388" lon="6.4008">
        <ele>1678</ele>
        <time>2018-10-17T12:59:59Z</time>
      </trkpt>
      <trkpt lat="45.81388" lon="6.4008">
        <ele>1678</ele>
        <time>2018-10-17T13:00:00Z</time>
      </trkpt>
      <trkpt lat="45.81388" lon="6.4008">
        <ele>1678</ele>
        <time>2018-10-17T13:00:01Z</time>
      </trkpt>
      <trkpt lat="45.81388" lon="6.4008">
        <ele>1678</ele>
        <time>2018-10-17T13:00:02Z</time>
      </trkpt>
      <trkpt lat="45.81388" lon="6.4008">
        <ele>1678</ele>
        <time>2018-10-17T13:00:03Z</time>
      </trkpt>
      <trkpt lat="45.81388" lon="6.4008">
        <ele>1678</ele>
        <time>2018-10-17T13:00:04Z</time>
      </trkpt>
      <trkpt lat="45.81388" lon="6.4008">
        <ele>1678</ele>
        <time>2018-10-17T13:00:05Z</time>
      </trkpt>
      <trkpt lat="45.81388" lon="6.4008">
        <ele>1678</ele>
        <time>2018-10-17T13:00:06Z</time>
      </trkpt>
      <trkpt lat="45.81388" lon="6.4008">
        <ele>1678</ele>
        <time>2018-10-17T13:00:07Z</time>
      </trkpt>
      <trkpt lat="45.81388" lon="6.4008">
        <ele>1678</ele>
        <time>2018-10-17T13:00:08Z</time>
      </trkpt>
      <trkpt lat="45.81388" lon="6.4008">
        <ele>1678</ele>
        <time>2018-10-17T13:00:09Z</time>
      </trkpt>
      <trkpt lat="45.8139" lon="6.40081">
        <ele>1678</ele>
        <time>2018-10-17T13:00:10Z</time>
      </trkpt>
      <trkpt lat="45.8139" lon="6.40081">
        <ele>1678</ele>
        <time>2018-10-17T13:00:11Z</time>
      </trkpt>
      <trkpt lat="45.8139" lon="6.40081">
        <ele>1677</ele>
        <time>2018-10-17T13:00:12Z</time>
      </trkpt>
      <trkpt lat="45.8139" lon="6.40081">
        <ele>1677</ele>
        <time>2018-10-17T13:00:13Z</time>
      </trkpt>
      <trkpt lat="45.8139" lon="6.40081">
        <ele>1677</ele>
        <time>2018-10-17T13:00:14Z</time>
      </trkpt>
      <trkpt lat="45.8139" lon="6.40081">
        <ele>1677</ele>
        <time>2018-10-17T13:00:15Z</time>
      </trkpt>
      <trkpt lat="45.8139" lon="6.40081">
        <ele>1677</ele>
        <time>2018-10-17T13:00:16Z</time>
      </trkpt>
      <trkpt lat="45.81391" lon="6.40084">
        <ele>1677</ele>
        <time>2018-10-17T13:00:17Z</time>
      </trkpt>
      <trkpt lat="45.81391" lon="6.40084">
        <ele>1677</ele>
        <time>2018-10-17T13:00:18Z</time>
      </trkpt>
      <trkpt lat="45.81392" lon="6.40087">
        <ele>1677</ele>
        <time>2018-10-17T13:00:19Z</time>
      </trkpt>
      <trkpt lat="45.81392" lon="6.40087">
        <ele>1677</ele>
        <time>2018-10-17T13:00:20Z</time>
      </trkpt>
      <trkpt lat="45.81393" lon="6.4009">
        <ele>1677</ele>
        <time>2018-10-17T13:00:21Z</time>
      </trkpt>
      <trkpt lat="45.81393" lon="6.4009">
        <ele>1677</ele>
        <time>2018-10-17T13:00:22Z</time>
      </trkpt>
      <trkpt lat="45.81394" lon="6.40093">
        <ele>1677</ele>
        <time>2018-10-17T13:00:23Z</time>
      </trkpt>
      <trkpt lat="45.81394" lon="6.40093">
        <ele>1676</ele>
        <time>2018-10-17T13:00:24Z</time>
      </trkpt>
      <trkpt lat="45.81396" lon="6.40096">
        <ele>1676</ele>
        <time>2018-10-17T13:00:25Z</time>
      </trkpt>
      <trkpt lat="45.81396" lon="6.40096">
        <ele>1676</ele>
        <time>2018-10-17T13:00:26Z</time>
      </trkpt>
      <trkpt lat="45.81397" lon="6.40099">
        <ele>1676</ele>
        <time>2018-10-17T13:00:27Z</time>
      </trkpt>
      <trkpt lat="45.81397" lon="6.40099">
        <ele>1676</ele>
        <time>2018-10-17T13:00:28Z</time>
      </trkpt>
      <trkpt lat="45.81399" lon="6.40102">
        <ele>1676</ele>
        <time>2018-10-17T13:00:29Z</time>
      </trkpt>
      <trkpt lat="45.81399" lon="6.40102">
        <ele>1676</ele>
        <time>2018-10-17T13:00:30Z</time>
      </trkpt>
      <trkpt lat="45.81401" lon="6.40104">
        <ele>1676</ele>
        <time>2018-10-17T13:00:31Z</time>
      </trkpt>
      <trkpt lat="45.81401" lon="6.40104">
        <ele>1676</ele>
        <time>2018-10-17T13:00:32Z</time>
      </trkpt>
      <trkpt lat="45.81402" lon="6.40107">
        <ele>1676</ele>
        <time>2018-10-17T13:00:33Z</time>
      </trkpt>
      <trkpt lat="45.81402" lon="6.40107">
        <ele>1676</ele>
        <time>2018-10-17T13:00:34Z</time>
      </trkpt>
      <trkpt lat="45.81403" lon="6.40109">
        <ele>1676</ele>
        <time>2018-10-17T13:00:35Z</time>
      </trkpt>
      <trkpt lat="45.81403" lon="6.40109">
        <ele>1676</ele>
        <time>2018-10-17T13:00:36Z</time>
      </trkpt>
      <trkpt lat="45.81403" lon="6.40109">
        <ele>1676</ele>
        <time>2018-10-17T13:00:37Z</time>
      </trkpt>
      <trkpt lat="45.81404" lon="6.40112">
        <ele>1676</ele>
        <time>2018-10-17T13:00:38Z</time>
      </trkpt>
      <trkpt lat="45.81404" lon="6.40112">
        <ele>1676</ele>
        <time>2018-10-17T13:00:39Z</time>
      </trkpt>
      <trkpt lat="45.81406" lon="6.40114">
        <ele>1676</ele>
        <time>2018-10-17T13:00:40Z</time>
      </trkpt>
      <trkpt lat="45.81406" lon="6.40114">
        <ele>1676</ele>
        <time>2018-10-17T13:00:41Z</time>
      </trkpt>
      <trkpt lat="45.81406" lon="6.40114">
        <ele>1676</ele>
        <time>2018-10-17T13:00:42Z</time>
      </trkpt>
      <trkpt lat="45.81406" lon="6.40114">
        <ele>1676</ele>
        <time>2018-10-17T13:00:43Z</time>
      </trkpt>
      <trkpt lat="45.81408" lon="6.40116">
        <ele>1676</ele>
        <time>2018-10-17T13:00:44Z</time>
      </trkpt>
      <trkpt lat="45.81408" lon="6.40116">
        <ele>1675</ele>
        <time>2018-10-17T13:00:45Z</time>
      </trkpt>
      <trkpt lat="45.81409" lon="6.40118">
        <ele>1675</ele>
        <time>2018-10-17T13:00:46Z</time>
      </trkpt>
      <trkpt lat="45.81409" lon="6.40118">
        <ele>1675</ele>
        <time>2018-10-17T13:00:47Z</time>
      </trkpt>
      <trkpt lat="45.81411" lon="6.4012">
        <ele>1675</ele>
        <time>2018-10-17T13:00:48Z</time>
      </trkpt>
      <trkpt lat="45.81411" lon="6.4012">
        <ele>1675</ele>
        <time>2018-10-17T13:00:49Z</time>
      </trkpt>
      <trkpt lat="45.81412" lon="6.40123">
        <ele>1675</ele>
        <time>2018-10-17T13:00:50Z</time>
      </trkpt>
      <trkpt lat="45.81412" lon="6.40123">
        <ele>1675</ele>
        <time>2018-10-17T13:00:51Z</time>
      </trkpt>
      <trkpt lat="45.81414" lon="6.40125">
        <ele>1675</ele>
        <time>2018-10-17T13:00:52Z</time>
      </trkpt>
      <trkpt lat="45.81414" lon="6.40125">
        <ele>1675</ele>
        <time>2018-10-17T13:00:53Z</time>
      </trkpt>
      <trkpt lat="45.81417" lon="6.40128">
        <ele>1675</ele>
        <time>2018-10-17T13:00:54Z</time>
      </trkpt>
      <trkpt lat="45.81417" lon="6.40128">
        <ele>1674</ele>
        <time>2018-10-17T13:00:55Z</time>
      </trkpt>
      <trkpt lat="45.81418" lon="6.40131">
        <ele>1674</ele>
        <time>2018-10-17T13:00:56Z</time>
      </trkpt>
      <trkpt lat="45.81418" lon="6.40131">
        <ele>1674</ele>
        <time>2018-10-17T13:00:57Z</time>
      </trkpt>
      <trkpt lat="45.81418" lon="6.40131">
        <ele>1674</ele>
        <time>2018-10-17T13:00:58Z</time>
      </trkpt>
      <trkpt lat="45.8142" lon="6.40133">
        <ele>1674</ele>
        <time>2018-10-17T13:00:59Z</time>
      </trkpt>
      <trkpt lat="45.8142" lon="6.40133">
        <ele>1674</ele>
        <time>2018-10-17T13:01:00Z</time>
      </trkpt>
      <trkpt lat="45.81422" lon="6.40135">
        <ele>1674</ele>
        <time>2018-10-17T13:01:01Z</time>
      </trkpt>
      <trkpt lat="45.81422" lon="6.40135">
        <ele>1674</ele>
        <time>2018-10-17T13:01:02Z</time>
      </trkpt>
      <trkpt lat="45.81422" lon="6.40135">
        <ele>1674</ele>
        <time>2018-10-17T13:01:03Z</time>
      </trkpt>
      <trkpt lat="45.81423" lon="6.40137">
        <ele>1674</ele>
        <time>2018-10-17T13:01:04Z</time>
      </trkpt>
      <trkpt lat="45.81423" lon="6.40137">
        <ele>1674</ele>
        <time>2018-10-17T13:01:05Z</time>
      </trkpt>
      <trkpt lat="45.81423" lon="6.4014">
        <ele>1674</ele>
        <time>2018-10-17T13:01:06Z</time>
      </trkpt>
      <trkpt lat="45.81423" lon="6.4014">
        <ele>1674</ele>
        <time>2018-10-17T13:01:07Z</time>
      </trkpt>
      <trkpt lat="45.81423" lon="6.4014">
        <ele>1674</ele>
        <time>2018-10-17T13:01:08Z</time>
      </trkpt>
      <trkpt lat="45.81424" lon="6.40142">
        <ele>1674</ele>
        <time>2018-10-17T13:01:09Z</time>
      </trkpt>
      <trkpt lat="45.81424" lon="6.40142">
        <ele>1674</ele>
        <time>2018-10-17T13:01:10Z</time>
      </trkpt>
      <trkpt lat="45.81426" lon="6.40145">
        <ele>1674</ele>
        <time>2018-10-17T13:01:11Z</time>
      </trkpt>
      <trkpt lat="45.81426" lon="6.40145">
        <ele>1674</ele>
        <time>2018-10-17T13:01:12Z</time>
      </trkpt>
      <trkpt lat="45.81428" lon="6.40147">
        <ele>1674</ele>
        <time>2018-10-17T13:01:13Z</time>
      </trkpt>
      <trkpt lat="45.81428" lon="6.40147">
        <ele>1674</ele>
        <time>2018-10-17T13:01:14Z</time>
      </trkpt>
      <trkpt lat="45.8143" lon="6.40149">
        <ele>1674</ele>
        <time>2018-10-17T13:01:15Z</time>
      </trkpt>
      <trkpt lat="45.8143" lon="6.40149">
        <ele>1674</ele>
        <time>2018-10-17T13:01:16Z</time>
      </trkpt>
      <trkpt lat="45.81431" lon="6.4015">
        <ele>1674</ele>
        <time>2018-10-17T13:01:17Z</time>
      </trkpt>
      <trkpt lat="45.81431" lon="6.4015">
        <ele>1674</ele>
        <time>2018-10-17T13:01:18Z</time>
      </trkpt>
      <trkpt lat="45.81431" lon="6.4015">
        <ele>1674</ele>
        <time>2018-10-17T13:01:19Z</time>
      </trkpt>
      <trkpt lat="45.81434" lon="6.40152">
        <ele>1674</ele>
        <time>2018-10-17T13:01:20Z</time>
      </trkpt>
      <trkpt lat="45.81434" lon="6.40152">
        <ele>1674</ele>
        <time>2018-10-17T13:01:21Z</time>
      </trkpt>
      <trkpt lat="45.81435" lon="6.40154">
        <ele>1673</ele>
        <time>2018-10-17T13:01:22Z</time>
      </trkpt>
      <trkpt lat="45.81435" lon="6.40154">
        <ele>1673</ele>
        <time>2018-10-17T13:01:23Z</time>
      </trkpt>
      <trkpt lat="45.81436" lon="6.40157">
        <ele>1673</ele>
        <time>2018-10-17T13:01:24Z</time>
      </trkpt>
      <trkpt lat="45.81436" lon="6.40157">
        <ele>1673</ele>
        <time>2018-10-17T13:01:25Z</time>
      </trkpt>
      <trkpt lat="45.81436" lon="6.40157">
        <ele>1673</ele>
        <time>2018-10-17T13:01:26Z</time>
      </trkpt>
      <trkpt lat="45.81439" lon="6.40158">
        <ele>1673</ele>
        <time>2018-10-17T13:01:27Z</time>
      </trkpt>
      <trkpt lat="45.81439" lon="6.40158">
        <ele>1673</ele>
        <time>2018-10-17T13:01:28Z</time>
      </trkpt>
      <trkpt lat="45.81441" lon="6.4016">
        <ele>1673</ele>
        <time>2018-10-17T13:01:29Z</time>
      </trkpt>
      <trkpt lat="45.81441" lon="6.4016">
        <ele>1673</ele>
        <time>2018-10-17T13:01:30Z</time>
      </trkpt>
      <trkpt lat="45.81443" lon="6.40161">
        <ele>1673</ele>
        <time>2018-10-17T13:01:31Z</time>
      </trkpt>
      <trkpt lat="45.81443" lon="6.40161">
        <ele>1673</ele>
        <time>2018-10-17T13:01:32Z</time>
      </trkpt>
      <trkpt lat="45.81445" lon="6.40163">
        <ele>1673</ele>
        <time>2018-10-17T13:01:33Z</time>
      </trkpt>
      <trkpt lat="45.81445" lon="6.40163">
        <ele>1673</ele>
        <time>2018-10-17T13:01:34Z</time>
      </trkpt>
      <trkpt lat="45.81446" lon="6.40166">
        <ele>1672</ele>
        <time>2018-10-17T13:01:35Z</time>
      </trkpt>
      <trkpt lat="45.81446" lon="6.40166">
        <ele>1672</ele>
        <time>2018-10-17T13:01:36Z</time>
      </trkpt>
      <trkpt lat="45.81447" lon="6.40168">
        <ele>1671</ele>
        <time>2018-10-17T13:01:37Z</time>
      </trkpt>
      <trkpt lat="45.81447" lon="6.40168">
        <ele>1671</ele>
        <time>2018-10-17T13:01:38Z</time>
      </trkpt>
      <trkpt lat="45.81449" lon="6.40171">
        <ele>1671</ele>
        <time>2018-10-17T13:01:39Z</time>
      </trkpt>
      <trkpt lat="45.81449" lon="6.40171">
        <ele>1671</ele>
        <time>2018-10-17T13:01:40Z</time>
      </trkpt>
      <trkpt lat="45.81451" lon="6.40173">
        <ele>1671</ele>
        <time>2018-10-17T13:01:41Z</time>
      </trkpt>
      <trkpt lat="45.81451" lon="6.40173">
        <ele>1671</ele>
        <time>2018-10-17T13:01:42Z</time>
      </trkpt>
      <trkpt lat="45.81451" lon="6.40173">
        <ele>1671</ele>
        <time>2018-10-17T13:01:43Z</time>
      </trkpt>
      <trkpt lat="45.81453" lon="6.40176">
        <ele>1671</ele>
        <time>2018-10-17T13:01:44Z</time>
      </trkpt>
      <trkpt lat="45.81453" lon="6.40176">
        <ele>1671</ele>
        <time>2018-10-17T13:01:45Z</time>
      </trkpt>
      <trkpt lat="45.81454" lon="6.40178">
        <ele>1671</ele>
        <time>2018-10-17T13:01:46Z</time>
      </trkpt>
      <trkpt lat="45.81454" lon="6.40178">
        <ele>1671</ele>
        <time>2018-10-17T13:01:47Z</time>
      </trkpt>
      <trkpt lat="45.81456" lon="6.40181">
        <ele>1671</ele>
        <time>2018-10-17T13:01:48Z</time>
      </trkpt>
      <trkpt lat="45.81456" lon="6.40181">
        <ele>1671</ele>
        <time>2018-10-17T13:01:49Z</time>
      </trkpt>
      <trkpt lat="45.81457" lon="6.40183">
        <ele>1671</ele>
        <time>2018-10-17T13:01:50Z</time>
      </trkpt>
      <trkpt lat="45.81457" lon="6.40183">
        <ele>1671</ele>
        <time>2018-10-17T13:01:51Z</time>
      </trkpt>
      <trkpt lat="45.81459" lon="6.40185">
        <ele>1671</ele>
        <time>2018-10-17T13:01:52Z</time>
      </trkpt>
      <trkpt lat="45.81459" lon="6.40185">
        <ele>1671</ele>
        <time>2018-10-17T13:01:53Z</time>
      </trkpt>
      <trkpt lat="45.8146" lon="6.40187">
        <ele>1671</ele>
        <time>2018-10-17T13:01:54Z</time>
      </trkpt>
      <trkpt lat="45.8146" lon="6.40187">
        <ele>1671</ele>
        <time>2018-10-17T13:01:55Z</time>
      </trkpt>
      <trkpt lat="45.8146" lon="6.40187">
        <ele>1671</ele>
        <time>2018-10-17T13:01:56Z</time>
      </trkpt>
      <trkpt lat="45.81461" lon="6.40191">
        <ele>1671</ele>
        <time>2018-10-17T13:01:57Z</time>
      </trkpt>
      <trkpt lat="45.81461" lon="6.40191">
        <ele>1671</ele>
        <time>2018-10-17T13:01:58Z</time>
      </trkpt>
      <trkpt lat="45.81463" lon="6.40194">
        <ele>1672</ele>
        <time>2018-10-17T13:01:59Z</time>
      </trkpt>
      <trkpt lat="45.81463" lon="6.40194">
        <ele>1672</ele>
        <time>2018-10-17T13:02:00Z</time>
      </trkpt>
      <trkpt lat="45.81465" lon="6.40195">
        <ele>1672</ele>
        <time>2018-10-17T13:02:01Z</time>
      </trkpt>
      <trkpt lat="45.81465" lon="6.40195">
        <ele>1672</ele>
        <time>2018-10-17T13:02:02Z</time>
      </trkpt>
      <trkpt lat="45.81466" lon="6.40198">
        <ele>1672</ele>
        <time>2018-10-17T13:02:03Z</time>
      </trkpt>
      <trkpt lat="45.81466" lon="6.40198">
        <ele>1672</ele>
        <time>2018-10-17T13:02:04Z</time>
      </trkpt>
      <trkpt lat="45.81466" lon="6.40198">
        <ele>1672</ele>
        <time>2018-10-17T13:02:05Z</time>
      </trkpt>
      <trkpt lat="45.81467" lon="6.40201">
        <ele>1672</ele>
        <time>2018-10-17T13:02:06Z</time>
      </trkpt>
      <trkpt lat="45.81467" lon="6.40201">
        <ele>1673</ele>
        <time>2018-10-17T13:02:07Z</time>
      </trkpt>
      <trkpt lat="45.81469" lon="6.40203">
        <ele>1673</ele>
        <time>2018-10-17T13:02:08Z</time>
      </trkpt>
      <trkpt lat="45.81469" lon="6.40203">
        <ele>1673</ele>
        <time>2018-10-17T13:02:09Z</time>
      </trkpt>
      <trkpt lat="45.8147" lon="6.40206">
        <ele>1673</ele>
        <time>2018-10-17T13:02:10Z</time>
      </trkpt>
      <trkpt lat="45.8147" lon="6.40206">
        <ele>1673</ele>
        <time>2018-10-17T13:02:11Z</time>
      </trkpt>
      <trkpt lat="45.81471" lon="6.40209">
        <ele>1673</ele>
        <time>2018-10-17T13:02:12Z</time>
      </trkpt>
      <trkpt lat="45.81471" lon="6.40209">
        <ele>1673</ele>
        <time>2018-10-17T13:02:13Z</time>
      </trkpt>
      <trkpt lat="45.81472" lon="6.40212">
        <ele>1673</ele>
        <time>2018-10-17T13:02:14Z</time>
      </trkpt>
      <trkpt lat="45.81472" lon="6.40212">
        <ele>1673</ele>
        <time>2018-10-17T13:02:15Z</time>
      </trkpt>
      <trkpt lat="45.81473" lon="6.40215">
        <ele>1673</ele>
        <time>2018-10-17T13:02:16Z</time>
      </trkpt>
      <trkpt lat="45.81473" lon="6.40215">
        <ele>1674</ele>
        <time>2018-10-17T13:02:17Z</time>
      </trkpt>
      <trkpt lat="45.81473" lon="6.40215">
        <ele>1674</ele>
        <time>2018-10-17T13:02:18Z</time>
      </trkpt>
      <trkpt lat="45.81474" lon="6.40218">
        <ele>1674</ele>
        <time>2018-10-17T13:02:19Z</time>
      </trkpt>
      <trkpt lat="45.81474" lon="6.40218">
        <ele>1674</ele>
        <time>2018-10-17T13:02:20Z</time>
      </trkpt>
      <trkpt lat="45.81474" lon="6.40221">
        <ele>1674</ele>
        <time>2018-10-17T13:02:21Z</time>
      </trkpt>
      <trkpt lat="45.81474" lon="6.40221">
        <ele>1674</ele>
        <time>2018-10-17T13:02:22Z</time>
      </trkpt>
      <trkpt lat="45.81474" lon="6.40221">
        <ele>1675</ele>
        <time>2018-10-17T13:02:23Z</time>
      </trkpt>
      <trkpt lat="45.81475" lon="6.40224">
        <ele>1675</ele>
        <time>2018-10-17T13:02:24Z</time>
      </trkpt>
      <trkpt lat="45.81475" lon="6.40224">
        <ele>1675</ele>
        <time>2018-10-17T13:02:25Z</time>
      </trkpt>
      <trkpt lat="45.81477" lon="6.40227">
        <ele>1675</ele>
        <time>2018-10-17T13:02:26Z</time>
      </trkpt>
      <trkpt lat="45.81477" lon="6.40227">
        <ele>1675</ele>
        <time>2018-10-17T13:02:27Z</time>
      </trkpt>
      <trkpt lat="45.81478" lon="6.40229">
        <ele>1675</ele>
        <time>2018-10-17T13:02:28Z</time>
      </trkpt>
      <trkpt lat="45.81478" lon="6.40229">
        <ele>1676</ele>
        <time>2018-10-17T13:02:29Z</time>
      </trkpt>
      <trkpt lat="45.81479" lon="6.40232">
        <ele>1676</ele>
        <time>2018-10-17T13:02:30Z</time>
      </trkpt>
      <trkpt lat="45.81479" lon="6.40232">
        <ele>1676</ele>
        <time>2018-10-17T13:02:31Z</time>
      </trkpt>
      <trkpt lat="45.81479" lon="6.40232">
        <ele>1676</ele>
        <time>2018-10-17T13:02:32Z</time>
      </trkpt>
      <trkpt lat="45.81479" lon="6.40236">
        <ele>1675</ele>
        <time>2018-10-17T13:02:33Z</time>
      </trkpt>
      <trkpt lat="45.81479" lon="6.40236">
        <ele>1675</ele>
        <time>2018-10-17T13:02:34Z</time>
      </trkpt>
      <trkpt lat="45.81479" lon="6.40236">
        <ele>1675</ele>
        <time>2018-10-17T13:02:35Z</time>
      </trkpt>
      <trkpt lat="45.8148" lon="6.40239">
        <ele>1675</ele>
        <time>2018-10-17T13:02:36Z</time>
      </trkpt>
      <trkpt lat="45.8148" lon="6.40239">
        <ele>1675</ele>
        <time>2018-10-17T13:02:37Z</time>
      </trkpt>
      <trkpt lat="45.81481" lon="6.40242">
        <ele>1675</ele>
        <time>2018-10-17T13:02:38Z</time>
      </trkpt>
      <trkpt lat="45.81481" lon="6.40242">
        <ele>1675</ele>
        <time>2018-10-17T13:02:39Z</time>
      </trkpt>
      <trkpt lat="45.81482" lon="6.40244">
        <ele>1675</ele>
        <time>2018-10-17T13:02:40Z</time>
      </trkpt>
      <trkpt lat="45.81482" lon="6.40244">
        <ele>1676</ele>
        <time>2018-10-17T13:02:41Z</time>
      </trkpt>
      <trkpt lat="45.81484" lon="6.40247">
        <ele>1676</ele>
        <time>2018-10-17T13:02:42Z</time>
      </trkpt>
      <trkpt lat="45.81484" lon="6.40247">
        <ele>1676</ele>
        <time>2018-10-17T13:02:43Z</time>
      </trkpt>
      <trkpt lat="45.81485" lon="6.40249">
        <ele>1675</ele>
        <time>2018-10-17T13:02:44Z</time>
      </trkpt>
      <trkpt lat="45.81485" lon="6.40249">
        <ele>1675</ele>
        <time>2018-10-17T13:02:45Z</time>
      </trkpt>
      <trkpt lat="45.81487" lon="6.40251">
        <ele>1675</ele>
        <time>2018-10-17T13:02:46Z</time>
      </trkpt>
      <trkpt lat="45.81487" lon="6.40251">
        <ele>1675</ele>
        <time>2018-10-17T13:02:47Z</time>
      </trkpt>
      <trkpt lat="45.81488" lon="6.40253">
        <ele>1675</ele>
        <time>2018-10-17T13:02:48Z</time>
      </trkpt>
      <trkpt lat="45.81488" lon="6.40253">
        <ele>1675</ele>
        <time>2018-10-17T13:02:49Z</time>
      </trkpt>
      <trkpt lat="45.8149" lon="6.40256">
        <ele>1675</ele>
        <time>2018-10-17T13:02:50Z</time>
      </trkpt>
      <trkpt lat="45.8149" lon="6.40256">
        <ele>1675</ele>
        <time>2018-10-17T13:02:51Z</time>
      </trkpt>
      <trkpt lat="45.81492" lon="6.40258">
        <ele>1675</ele>
        <time>2018-10-17T13:02:52Z</time>
      </trkpt>
      <trkpt lat="45.81492" lon="6.40258">
        <ele>1676</ele>
        <time>2018-10-17T13:02:53Z</time>
      </trkpt>
      <trkpt lat="45.81493" lon="6.40261">
        <ele>1676</ele>
        <time>2018-10-17T13:02:54Z</time>
      </trkpt>
      <trkpt lat="45.81493" lon="6.40261">
        <ele>1676</ele>
        <time>2018-10-17T13:02:55Z</time>
      </trkpt>
      <trkpt lat="45.81493" lon="6.40261">
        <ele>1676</ele>
        <time>2018-10-17T13:02:56Z</time>
      </trkpt>
      <trkpt lat="45.81495" lon="6.40263">
        <ele>1676</ele>
        <time>2018-10-17T13:02:57Z</time>
      </trkpt>
      <trkpt lat="45.81495" lon="6.40263">
        <ele>1676</ele>
        <time>2018-10-17T13:02:58Z</time>
      </trkpt>
      <trkpt lat="45.81496" lon="6.40265">
        <ele>1676</ele>
        <time>2018-10-17T13:02:59Z</time>
      </trkpt>
      <trkpt lat="45.81496" lon="6.40265">
        <ele>1676</ele>
        <time>2018-10-17T13:03:00Z</time>
      </trkpt>
      <trkpt lat="45.81498" lon="6.40267">
        <ele>1676</ele>
        <time>2018-10-17T13:03:01Z</time>
      </trkpt>
      <trkpt lat="45.81498" lon="6.40267">
        <ele>1677</ele>
        <time>2018-10-17T13:03:02Z</time>
      </trkpt>
      <trkpt lat="45.815" lon="6.40269">
        <ele>1677</ele>
        <time>2018-10-17T13:03:03Z</time>
      </trkpt>
      <trkpt lat="45.815" lon="6.40269">
        <ele>1677</ele>
        <time>2018-10-17T13:03:04Z</time>
      </trkpt>
      <trkpt lat="45.81501" lon="6.40271">
        <ele>1677</ele>
        <time>2018-10-17T13:03:05Z</time>
      </trkpt>
      <trkpt lat="45.81501" lon="6.40271">
        <ele>1677</ele>
        <time>2018-10-17T13:03:06Z</time>
      </trkpt>
      <trkpt lat="45.81503" lon="6.40273">
        <ele>1677</ele>
        <time>2018-10-17T13:03:07Z</time>
      </trkpt>
      <trkpt lat="45.81503" lon="6.40273">
        <ele>1677</ele>
        <time>2018-10-17T13:03:08Z</time>
      </trkpt>
      <trkpt lat="45.81504" lon="6.40275">
        <ele>1677</ele>
        <time>2018-10-17T13:03:09Z</time>
      </trkpt>
      <trkpt lat="45.81504" lon="6.40275">
        <ele>1677</ele>
        <time>2018-10-17T13:03:10Z</time>
      </trkpt>
      <trkpt lat="45.81505" lon="6.40277">
        <ele>1677</ele>
        <time>2018-10-17T13:03:11Z</time>
      </trkpt>
      <trkpt lat="45.81505" lon="6.40277">
        <ele>1677</ele>
        <time>2018-10-17T13:03:12Z</time>
      </trkpt>
      <trkpt lat="45.81506" lon="6.40279">
        <ele>1677</ele>
        <time>2018-10-17T13:03:13Z</time>
      </trkpt>
      <trkpt lat="45.81506" lon="6.40279">
        <ele>1677</ele>
        <time>2018-10-17T13:03:14Z</time>
      </trkpt>
      <trkpt lat="45.81508" lon="6.40281">
        <ele>1677</ele>
        <time>2018-10-17T13:03:15Z</time>
      </trkpt>
      <trkpt lat="45.81508" lon="6.40281">
        <ele>1677</ele>
        <time>2018-10-17T13:03:16Z</time>
      </trkpt>
      <trkpt lat="45.8151" lon="6.40283">
        <ele>1677</ele>
        <time>2018-10-17T13:03:17Z</time>
      </trkpt>
      <trkpt lat="45.8151" lon="6.40283">
        <ele>1678</ele>
        <time>2018-10-17T13:03:18Z</time>
      </trkpt>
      <trkpt lat="45.81512" lon="6.40284">
        <ele>1678</ele>
        <time>2018-10-17T13:03:19Z</time>
      </trkpt>
      <trkpt lat="45.81512" lon="6.40284">
        <ele>1678</ele>
        <time>2018-10-17T13:03:20Z</time>
      </trkpt>
      <trkpt lat="45.81514" lon="6.40286">
        <ele>1678</ele>
        <time>2018-10-17T13:03:21Z</time>
      </trkpt>
      <trkpt lat="45.81514" lon="6.40286">
        <ele>1678</ele>
        <time>2018-10-17T13:03:22Z</time>
      </trkpt>
      <trkpt lat="45.81515" lon="6.40288">
        <ele>1678</ele>
        <time>2018-10-17T13:03:23Z</time>
      </trkpt>
      <trkpt lat="45.81515" lon="6.40288">
        <ele>1678</ele>
        <time>2018-10-17T13:03:24Z</time>
      </trkpt>
      <trkpt lat="45.81517" lon="6.40291">
        <ele>1678</ele>
        <time>2018-10-17T13:03:25Z</time>
      </trkpt>
      <trkpt lat="45.81517" lon="6.40291">
        <ele>1678</ele>
        <time>2018-10-17T13:03:26Z</time>
      </trkpt>
      <trkpt lat="45.81518" lon="6.40293">
        <ele>1678</ele>
        <time>2018-10-17T13:03:27Z</time>
      </trkpt>
      <trkpt lat="45.81518" lon="6.40293">
        <ele>1679</ele>
        <time>2018-10-17T13:03:28Z</time>
      </trkpt>
      <trkpt lat="45.8152" lon="6.40296">
        <ele>1679</ele>
        <time>2018-10-17T13:03:29Z</time>
      </trkpt>
      <trkpt lat="45.8152" lon="6.40296">
        <ele>1678</ele>
        <time>2018-10-17T13:03:30Z</time>
      </trkpt>
      <trkpt lat="45.81521" lon="6.40298">
        <ele>1678</ele>
        <time>2018-10-17T13:03:31Z</time>
      </trkpt>
      <trkpt lat="45.81521" lon="6.40298">
        <ele>1678</ele>
        <time>2018-10-17T13:03:32Z</time>
      </trkpt>
      <trkpt lat="45.81521" lon="6.40298">
        <ele>1678</ele>
        <time>2018-10-17T13:03:33Z</time>
      </trkpt>
      <trkpt lat="45.81521" lon="6.40298">
        <ele>1678</ele>
        <time>2018-10-17T13:03:34Z</time>
      </trkpt>
      <trkpt lat="45.81521" lon="6.40298">
        <ele>1679</ele>
        <time>2018-10-17T13:03:35Z</time>
      </trkpt>
      <trkpt lat="45.81521" lon="6.40298">
        <ele>1679</ele>
        <time>2018-10-17T13:03:36Z</time>
      </trkpt>
      <trkpt lat="45.81521" lon="6.40298">
        <ele>1679</ele>
        <time>2018-10-17T13:03:37Z</time>
      </trkpt>
      <trkpt lat="45.81523" lon="6.40298">
        <ele>1679</ele>
        <time>2018-10-17T13:03:38Z</time>
      </trkpt>
      <trkpt lat="45.81523" lon="6.40298">
        <ele>1679</ele>
        <time>2018-10-17T13:03:39Z</time>
      </trkpt>
      <trkpt lat="45.81523" lon="6.40298">
        <ele>1679</ele>
        <time>2018-10-17T13:03:40Z</time>
      </trkpt>
      <trkpt lat="45.81523" lon="6.40298">
        <ele>1679</ele>
        <time>2018-10-17T13:03:41Z</time>
      </trkpt>
      <trkpt lat="45.81523" lon="6.40298">
        <ele>1679</ele>
        <time>2018-10-17T13:03:42Z</time>
      </trkpt>
      <trkpt lat="45.81523" lon="6.40298">
        <ele>1679</ele>
        <time>2018-10-17T13:03:43Z</time>
      </trkpt>
      <trkpt lat="45.81523" lon="6.40298">
        <ele>1679</ele>
        <time>2018-10-17T13:03:44Z</time>
      </trkpt>
      <trkpt lat="45.81523" lon="6.40298">
        <ele>1679</ele>
        <time>2018-10-17T13:03:45Z</time>
      </trkpt>
      <trkpt lat="45.81523" lon="6.40298">
        <ele>1679</ele>
        <time>2018-10-17T13:03:46Z</time>
      </trkpt>
      <trkpt lat="45.81523" lon="6.40298">
        <ele>1679</ele>
        <time>2018-10-17T13:03:47Z</time>
      </trkpt>
      <trkpt lat="45.81523" lon="6.40298">
        <ele>1679</ele>
        <time>2018-10-17T13:03:48Z</time>
      </trkpt>
      <trkpt lat="45.81523" lon="6.40298">
        <ele>1679</ele>
        <time>2018-10-17T13:03:49Z</time>
      </trkpt>
      <trkpt lat="45.81523" lon="6.40298">
        <ele>1679</ele>
        <time>2018-10-17T13:03:50Z</time>
      </trkpt>
      <trkpt lat="45.81523" lon="6.40298">
        <ele>1679</ele>
        <time>2018-10-17T13:03:51Z</time>
      </trkpt>
      <trkpt lat="45.81523" lon="6.40298">
        <ele>1679</ele>
        <time>2018-10-17T13:03:52Z</time>
      </trkpt>
      <trkpt lat="45.81523" lon="6.40298">
        <ele>1679</ele>
        <time>2018-10-17T13:03:53Z</time>
      </trkpt>
      <trkpt lat="45.81523" lon="6.40298">
        <ele>1679</ele>
        <time>2018-10-17T13:03:54Z</time>
      </trkpt>
      <trkpt lat="45.81523" lon="6.40298">
        <ele>1679</ele>
        <time>2018-10-17T13:03:55Z</time>
      </trkpt>
      <trkpt lat="45.81523" lon="6.40298">
        <ele>1679</ele>
        <time>2018-10-17T13:03:56Z</time>
      </trkpt>
      <trkpt lat="45.81523" lon="6.40298">
        <ele>1679</ele>
        <time>2018-10-17T13:03:57Z</time>
      </trkpt>
      <trkpt lat="45.81523" lon="6.40298">
        <ele>1679</ele>
        <time>2018-10-17T13:03:58Z</time>
      </trkpt>
      <trkpt lat="45.81523" lon="6.40298">
        <ele>1679</ele>
        <time>2018-10-17T13:03:59Z</time>
      </trkpt>
      <trkpt lat="45.81523" lon="6.40298">
        <ele>1679</ele>
        <time>2018-10-17T13:04:00Z</time>
      </trkpt>
      <trkpt lat="45.81523" lon="6.40298">
        <ele>1679</ele>
        <time>2018-10-17T13:04:01Z</time>
      </trkpt>
      <trkpt lat="45.81525" lon="6.403">
        <ele>1679</ele>
        <time>2018-10-17T13:04:02Z</time>
      </trkpt>
      <trkpt lat="45.81525" lon="6.403">
        <ele>1679</ele>
        <time>2018-10-17T13:04:03Z</time>
      </trkpt>
      <trkpt lat="45.81527" lon="6.40303">
        <ele>1679</ele>
        <time>2018-10-17T13:04:04Z</time>
      </trkpt>
      <trkpt lat="45.81527" lon="6.40303">
        <ele>1679</ele>
        <time>2018-10-17T13:04:05Z</time>
      </trkpt>
      <trkpt lat="45.81528" lon="6.40306">
        <ele>1679</ele>
        <time>2018-10-17T13:04:06Z</time>
      </trkpt>
      <trkpt lat="45.81528" lon="6.40306">
        <ele>1679</ele>
        <time>2018-10-17T13:04:07Z</time>
      </trkpt>
      <trkpt lat="45.81529" lon="6.40308">
        <ele>1679</ele>
        <time>2018-10-17T13:04:08Z</time>
      </trkpt>
      <trkpt lat="45.81529" lon="6.40308">
        <ele>1679</ele>
        <time>2018-10-17T13:04:09Z</time>
      </trkpt>
      <trkpt lat="45.81531" lon="6.40309">
        <ele>1679</ele>
        <time>2018-10-17T13:04:10Z</time>
      </trkpt>
      <trkpt lat="45.81531" lon="6.40309">
        <ele>1680</ele>
        <time>2018-10-17T13:04:11Z</time>
      </trkpt>
      <trkpt lat="45.81533" lon="6.40311">
        <ele>1680</ele>
        <time>2018-10-17T13:04:12Z</time>
      </trkpt>
      <trkpt lat="45.81533" lon="6.40311">
        <ele>1680</ele>
        <time>2018-10-17T13:04:13Z</time>
      </trkpt>
      <trkpt lat="45.81535" lon="6.40314">
        <ele>1680</ele>
        <time>2018-10-17T13:04:14Z</time>
      </trkpt>
      <trkpt lat="45.81535" lon="6.40314">
        <ele>1680</ele>
        <time>2018-10-17T13:04:15Z</time>
      </trkpt>
      <trkpt lat="45.81536" lon="6.40316">
        <ele>1680</ele>
        <time>2018-10-17T13:04:16Z</time>
      </trkpt>
      <trkpt lat="45.81536" lon="6.40316">
        <ele>1680</ele>
        <time>2018-10-17T13:04:17Z</time>
      </trkpt>
      <trkpt lat="45.81538" lon="6.40317">
        <ele>1680</ele>
        <time>2018-10-17T13:04:18Z</time>
      </trkpt>
      <trkpt lat="45.81538" lon="6.40317">
        <ele>1680</ele>
        <time>2018-10-17T13:04:19Z</time>
      </trkpt>
      <trkpt lat="45.8154" lon="6.4032">
        <ele>1680</ele>
        <time>2018-10-17T13:04:20Z</time>
      </trkpt>
      <trkpt lat="45.8154" lon="6.4032">
        <ele>1680</ele>
        <time>2018-10-17T13:04:21Z</time>
      </trkpt>
      <trkpt lat="45.81541" lon="6.40322">
        <ele>1680</ele>
        <time>2018-10-17T13:04:22Z</time>
      </trkpt>
      <trkpt lat="45.81541" lon="6.40322">
        <ele>1680</ele>
        <time>2018-10-17T13:04:23Z</time>
      </trkpt>
      <trkpt lat="45.81543" lon="6.40324">
        <ele>1680</ele>
        <time>2018-10-17T13:04:24Z</time>
      </trkpt>
      <trkpt lat="45.81543" lon="6.40324">
        <ele>1680</ele>
        <time>2018-10-17T13:04:25Z</time>
      </trkpt>
      <trkpt lat="45.81545" lon="6.40326">
        <ele>1681</ele>
        <time>2018-10-17T13:04:26Z</time>
      </trkpt>
      <trkpt lat="45.81545" lon="6.40326">
        <ele>1681</ele>
        <time>2018-10-17T13:04:27Z</time>
      </trkpt>
      <trkpt lat="45.81547" lon="6.40328">
        <ele>1681</ele>
        <time>2018-10-17T13:04:28Z</time>
      </trkpt>
      <trkpt lat="45.81547" lon="6.40328">
        <ele>1681</ele>
        <time>2018-10-17T13:04:29Z</time>
      </trkpt>
      <trkpt lat="45.81549" lon="6.4033">
        <ele>1681</ele>
        <time>2018-10-17T13:04:30Z</time>
      </trkpt>
      <trkpt lat="45.81549" lon="6.4033">
        <ele>1681</ele>
        <time>2018-10-17T13:04:31Z</time>
      </trkpt>
      <trkpt lat="45.81551" lon="6.40331">
        <ele>1681</ele>
        <time>2018-10-17T13:04:32Z</time>
      </trkpt>
      <trkpt lat="45.81551" lon="6.40331">
        <ele>1681</ele>
        <time>2018-10-17T13:04:33Z</time>
      </trkpt>
      <trkpt lat="45.81553" lon="6.40333">
        <ele>1680</ele>
        <time>2018-10-17T13:04:34Z</time>
      </trkpt>
      <trkpt lat="45.81553" lon="6.40333">
        <ele>1680</ele>
        <time>2018-10-17T13:04:35Z</time>
      </trkpt>
      <trkpt lat="45.81555" lon="6.40335">
        <ele>1680</ele>
        <time>2018-10-17T13:04:36Z</time>
      </trkpt>
      <trkpt lat="45.81555" lon="6.40335">
        <ele>1680</ele>
        <time>2018-10-17T13:04:37Z</time>
      </trkpt>
      <trkpt lat="45.81555" lon="6.40335">
        <ele>1680</ele>
        <time>2018-10-17T13:04:38Z</time>
      </trkpt>
      <trkpt lat="45.81557" lon="6.40337">
        <ele>1680</ele>
        <time>2018-10-17T13:04:39Z</time>
      </trkpt>
      <trkpt lat="45.81557" lon="6.40337">
        <ele>1681</ele>
        <time>2018-10-17T13:04:40Z</time>
      </trkpt>
      <trkpt lat="45.81558" lon="6.40339">
        <ele>1681</ele>
        <time>2018-10-17T13:04:41Z</time>
      </trkpt>
      <trkpt lat="45.81558" lon="6.40339">
        <ele>1681</ele>
        <time>2018-10-17T13:04:42Z</time>
      </trkpt>
      <trkpt lat="45.8156" lon="6.40342">
        <ele>1681</ele>
        <time>2018-10-17T13:04:43Z</time>
      </trkpt>
      <trkpt lat="45.8156" lon="6.40342">
        <ele>1681</ele>
        <time>2018-10-17T13:04:44Z</time>
      </trkpt>
      <trkpt lat="45.81561" lon="6.40343">
        <ele>1681</ele>
        <time>2018-10-17T13:04:45Z</time>
      </trkpt>
      <trkpt lat="45.81561" lon="6.40343">
        <ele>1681</ele>
        <time>2018-10-17T13:04:46Z</time>
      </trkpt>
      <trkpt lat="45.81563" lon="6.40345">
        <ele>1681</ele>
        <time>2018-10-17T13:04:47Z</time>
      </trkpt>
      <trkpt lat="45.81563" lon="6.40345">
        <ele>1681</ele>
        <time>2018-10-17T13:04:48Z</time>
      </trkpt>
      <trkpt lat="45.81566" lon="6.40346">
        <ele>1681</ele>
        <time>2018-10-17T13:04:49Z</time>
      </trkpt>
      <trkpt lat="45.81566" lon="6.40346">
        <ele>1682</ele>
        <time>2018-10-17T13:04:50Z</time>
      </trkpt>
      <trkpt lat="45.81568" lon="6.40348">
        <ele>1682</ele>
        <time>2018-10-17T13:04:51Z</time>
      </trkpt>
      <trkpt lat="45.81568" lon="6.40348">
        <ele>1682</ele>
        <time>2018-10-17T13:04:52Z</time>
      </trkpt>
      <trkpt lat="45.8157" lon="6.40349">
        <ele>1682</ele>
        <time>2018-10-17T13:04:53Z</time>
      </trkpt>
      <trkpt lat="45.8157" lon="6.40349">
        <ele>1682</ele>
        <time>2018-10-17T13:04:54Z</time>
      </trkpt>
      <trkpt lat="45.81572" lon="6.40349">
        <ele>1682</ele>
        <time>2018-10-17T13:04:55Z</time>
      </trkpt>
      <trkpt lat="45.81572" lon="6.40349">
        <ele>1682</ele>
        <time>2018-10-17T13:04:56Z</time>
      </trkpt>
      <trkpt lat="45.81574" lon="6.40349">
        <ele>1683</ele>
        <time>2018-10-17T13:04:57Z</time>
      </trkpt>
      <trkpt lat="45.81574" lon="6.40349">
        <ele>1683</ele>
        <time>2018-10-17T13:04:58Z</time>
      </trkpt>
      <trkpt lat="45.81577" lon="6.40351">
        <ele>1683</ele>
        <time>2018-10-17T13:04:59Z</time>
      </trkpt>
      <trkpt lat="45.81577" lon="6.40351">
        <ele>1684</ele>
        <time>2018-10-17T13:05:00Z</time>
      </trkpt>
      <trkpt lat="45.81579" lon="6.40352">
        <ele>1684</ele>
        <time>2018-10-17T13:05:01Z</time>
      </trkpt>
      <trkpt lat="45.81579" lon="6.40352">
        <ele>1684</ele>
        <time>2018-10-17T13:05:02Z</time>
      </trkpt>
      <trkpt lat="45.81581" lon="6.40354">
        <ele>1684</ele>
        <time>2018-10-17T13:05:03Z</time>
      </trkpt>
      <trkpt lat="45.81581" lon="6.40354">
        <ele>1684</ele>
        <time>2018-10-17T13:05:04Z</time>
      </trkpt>
      <trkpt lat="45.81583" lon="6.40356">
        <ele>1684</ele>
        <time>2018-10-17T13:05:05Z</time>
      </trkpt>
      <trkpt lat="45.81583" lon="6.40356">
        <ele>1684</ele>
        <time>2018-10-17T13:05:06Z</time>
      </trkpt>
      <trkpt lat="45.81584" lon="6.40358">
        <ele>1684</ele>
        <time>2018-10-17T13:05:07Z</time>
      </trkpt>
      <trkpt lat="45.81584" lon="6.40358">
        <ele>1684</ele>
        <time>2018-10-17T13:05:08Z</time>
      </trkpt>
      <trkpt lat="45.81586" lon="6.40359">
        <ele>1684</ele>
        <time>2018-10-17T13:05:09Z</time>
      </trkpt>
      <trkpt lat="45.81586" lon="6.40359">
        <ele>1684</ele>
        <time>2018-10-17T13:05:10Z</time>
      </trkpt>
      <trkpt lat="45.81588" lon="6.40361">
        <ele>1684</ele>
        <time>2018-10-17T13:05:11Z</time>
      </trkpt>
      <trkpt lat="45.81588" lon="6.40361">
        <ele>1684</ele>
        <time>2018-10-17T13:05:12Z</time>
      </trkpt>
      <trkpt lat="45.8159" lon="6.40363">
        <ele>1684</ele>
        <time>2018-10-17T13:05:13Z</time>
      </trkpt>
      <trkpt lat="45.8159" lon="6.40363">
        <ele>1684</ele>
        <time>2018-10-17T13:05:14Z</time>
      </trkpt>
      <trkpt lat="45.81591" lon="6.40366">
        <ele>1684</ele>
        <time>2018-10-17T13:05:15Z</time>
      </trkpt>
      <trkpt lat="45.81591" lon="6.40366">
        <ele>1684</ele>
        <time>2018-10-17T13:05:16Z</time>
      </trkpt>
      <trkpt lat="45.81592" lon="6.40368">
        <ele>1684</ele>
        <time>2018-10-17T13:05:17Z</time>
      </trkpt>
      <trkpt lat="45.81592" lon="6.40368">
        <ele>1684</ele>
        <time>2018-10-17T13:05:18Z</time>
      </trkpt>
      <trkpt lat="45.81593" lon="6.40371">
        <ele>1684</ele>
        <time>2018-10-17T13:05:19Z</time>
      </trkpt>
      <trkpt lat="45.81593" lon="6.40371">
        <ele>1684</ele>
        <time>2018-10-17T13:05:20Z</time>
      </trkpt>
      <trkpt lat="45.81593" lon="6.40374">
        <ele>1685</ele>
        <time>2018-10-17T13:05:21Z</time>
      </trkpt>
      <trkpt lat="45.81593" lon="6.40374">
        <ele>1685</ele>
        <time>2018-10-17T13:05:22Z</time>
      </trkpt>
      <trkpt lat="45.81595" lon="6.40377">
        <ele>1685</ele>
        <time>2018-10-17T13:05:23Z</time>
      </trkpt>
      <trkpt lat="45.81595" lon="6.40377">
        <ele>1685</ele>
        <time>2018-10-17T13:05:24Z</time>
      </trkpt>
      <trkpt lat="45.81595" lon="6.40377">
        <ele>1684</ele>
        <time>2018-10-17T13:05:25Z</time>
      </trkpt>
      <trkpt lat="45.81595" lon="6.40377">
        <ele>1684</ele>
        <time>2018-10-17T13:05:26Z</time>
      </trkpt>
      <trkpt lat="45.81595" lon="6.4038">
        <ele>1684</ele>
        <time>2018-10-17T13:05:27Z</time>
      </trkpt>
      <trkpt lat="45.81595" lon="6.4038">
        <ele>1684</ele>
        <time>2018-10-17T13:05:28Z</time>
      </trkpt>
      <trkpt lat="45.81596" lon="6.40382">
        <ele>1684</ele>
        <time>2018-10-17T13:05:29Z</time>
      </trkpt>
      <trkpt lat="45.81596" lon="6.40382">
        <ele>1684</ele>
        <time>2018-10-17T13:05:30Z</time>
      </trkpt>
      <trkpt lat="45.81597" lon="6.40385">
        <ele>1684</ele>
        <time>2018-10-17T13:05:31Z</time>
      </trkpt>
      <trkpt lat="45.81597" lon="6.40385">
        <ele>1685</ele>
        <time>2018-10-17T13:05:32Z</time>
      </trkpt>
      <trkpt lat="45.81599" lon="6.40388">
        <ele>1685</ele>
        <time>2018-10-17T13:05:33Z</time>
      </trkpt>
      <trkpt lat="45.81599" lon="6.40388">
        <ele>1685</ele>
        <time>2018-10-17T13:05:34Z</time>
      </trkpt>
      <trkpt lat="45.816" lon="6.4039">
        <ele>1685</ele>
        <time>2018-10-17T13:05:35Z</time>
      </trkpt>
      <trkpt lat="45.816" lon="6.4039">
        <ele>1686</ele>
        <time>2018-10-17T13:05:36Z</time>
      </trkpt>
      <trkpt lat="45.81602" lon="6.40393">
        <ele>1686</ele>
        <time>2018-10-17T13:05:37Z</time>
      </trkpt>
      <trkpt lat="45.81602" lon="6.40393">
        <ele>1686</ele>
        <time>2018-10-17T13:05:38Z</time>
      </trkpt>
      <trkpt lat="45.81604" lon="6.40395">
        <ele>1686</ele>
        <time>2018-10-17T13:05:39Z</time>
      </trkpt>
      <trkpt lat="45.81604" lon="6.40395">
        <ele>1686</ele>
        <time>2018-10-17T13:05:40Z</time>
      </trkpt>
      <trkpt lat="45.81606" lon="6.40397">
        <ele>1686</ele>
        <time>2018-10-17T13:05:41Z</time>
      </trkpt>
      <trkpt lat="45.81606" lon="6.40397">
        <ele>1686</ele>
        <time>2018-10-17T13:05:42Z</time>
      </trkpt>
      <trkpt lat="45.81608" lon="6.40398">
        <ele>1686</ele>
        <time>2018-10-17T13:05:43Z</time>
      </trkpt>
      <trkpt lat="45.81608" lon="6.40398">
        <ele>1686</ele>
        <time>2018-10-17T13:05:44Z</time>
      </trkpt>
      <trkpt lat="45.8161" lon="6.404">
        <ele>1686</ele>
        <time>2018-10-17T13:05:45Z</time>
      </trkpt>
      <trkpt lat="45.8161" lon="6.404">
        <ele>1686</ele>
        <time>2018-10-17T13:05:46Z</time>
      </trkpt>
      <trkpt lat="45.81612" lon="6.40402">
        <ele>1686</ele>
        <time>2018-10-17T13:05:47Z</time>
      </trkpt>
      <trkpt lat="45.81612" lon="6.40402">
        <ele>1686</ele>
        <time>2018-10-17T13:05:48Z</time>
      </trkpt>
      <trkpt lat="45.81614" lon="6.40404">
        <ele>1686</ele>
        <time>2018-10-17T13:05:49Z</time>
      </trkpt>
      <trkpt lat="45.81614" lon="6.40404">
        <ele>1686</ele>
        <time>2018-10-17T13:05:50Z</time>
      </trkpt>
      <trkpt lat="45.81616" lon="6.40407">
        <ele>1686</ele>
        <time>2018-10-17T13:05:51Z</time>
      </trkpt>
      <trkpt lat="45.81616" lon="6.40407">
        <ele>1686</ele>
        <time>2018-10-17T13:05:52Z</time>
      </trkpt>
      <trkpt lat="45.81618" lon="6.40408">
        <ele>1686</ele>
        <time>2018-10-17T13:05:53Z</time>
      </trkpt>
      <trkpt lat="45.81618" lon="6.40408">
        <ele>1686</ele>
        <time>2018-10-17T13:05:54Z</time>
      </trkpt>
      <trkpt lat="45.81619" lon="6.4041">
        <ele>1686</ele>
        <time>2018-10-17T13:05:55Z</time>
      </trkpt>
      <trkpt lat="45.81619" lon="6.4041">
        <ele>1687</ele>
        <time>2018-10-17T13:05:56Z</time>
      </trkpt>
      <trkpt lat="45.81621" lon="6.40413">
        <ele>1687</ele>
        <time>2018-10-17T13:05:57Z</time>
      </trkpt>
      <trkpt lat="45.81621" lon="6.40413">
        <ele>1687</ele>
        <time>2018-10-17T13:05:58Z</time>
      </trkpt>
      <trkpt lat="45.81623" lon="6.40414">
        <ele>1687</ele>
        <time>2018-10-17T13:05:59Z</time>
      </trkpt>
      <trkpt lat="45.81623" lon="6.40414">
        <ele>1687</ele>
        <time>2018-10-17T13:06:00Z</time>
      </trkpt>
      <trkpt lat="45.81624" lon="6.40416">
        <ele>1687</ele>
        <time>2018-10-17T13:06:01Z</time>
      </trkpt>
      <trkpt lat="45.81624" lon="6.40416">
        <ele>1687</ele>
        <time>2018-10-17T13:06:02Z</time>
      </trkpt>
      <trkpt lat="45.81626" lon="6.40418">
        <ele>1687</ele>
        <time>2018-10-17T13:06:03Z</time>
      </trkpt>
      <trkpt lat="45.81626" lon="6.40418">
        <ele>1687</ele>
        <time>2018-10-17T13:06:04Z</time>
      </trkpt>
      <trkpt lat="45.81628" lon="6.40421">
        <ele>1687</ele>
        <time>2018-10-17T13:06:05Z</time>
      </trkpt>
      <trkpt lat="45.81628" lon="6.40421">
        <ele>1687</ele>
        <time>2018-10-17T13:06:06Z</time>
      </trkpt>
      <trkpt lat="45.8163" lon="6.40423">
        <ele>1687</ele>
        <time>2018-10-17T13:06:07Z</time>
      </trkpt>
      <trkpt lat="45.8163" lon="6.40423">
        <ele>1687</ele>
        <time>2018-10-17T13:06:08Z</time>
      </trkpt>
      <trkpt lat="45.81632" lon="6.40424">
        <ele>1687</ele>
        <time>2018-10-17T13:06:09Z</time>
      </trkpt>
      <trkpt lat="45.81632" lon="6.40424">
        <ele>1687</ele>
        <time>2018-10-17T13:06:10Z</time>
      </trkpt>
      <trkpt lat="45.81635" lon="6.40426">
        <ele>1687</ele>
        <time>2018-10-17T13:06:11Z</time>
      </trkpt>
      <trkpt lat="45.81635" lon="6.40426">
        <ele>1687</ele>
        <time>2018-10-17T13:06:12Z</time>
      </trkpt>
      <trkpt lat="45.81636" lon="6.40428">
        <ele>1687</ele>
        <time>2018-10-17T13:06:13Z</time>
      </trkpt>
      <trkpt lat="45.81636" lon="6.40428">
        <ele>1687</ele>
        <time>2018-10-17T13:06:14Z</time>
      </trkpt>
      <trkpt lat="45.81638" lon="6.4043">
        <ele>1687</ele>
        <time>2018-10-17T13:06:15Z</time>
      </trkpt>
      <trkpt lat="45.81638" lon="6.4043">
        <ele>1687</ele>
        <time>2018-10-17T13:06:16Z</time>
      </trkpt>
      <trkpt lat="45.8164" lon="6.40432">
        <ele>1687</ele>
        <time>2018-10-17T13:06:17Z</time>
      </trkpt>
      <trkpt lat="45.8164" lon="6.40432">
        <ele>1687</ele>
        <time>2018-10-17T13:06:18Z</time>
      </trkpt>
      <trkpt lat="45.81641" lon="6.40434">
        <ele>1687</ele>
        <time>2018-10-17T13:06:19Z</time>
      </trkpt>
      <trkpt lat="45.81641" lon="6.40434">
        <ele>1687</ele>
        <time>2018-10-17T13:06:20Z</time>
      </trkpt>
      <trkpt lat="45.81643" lon="6.40436">
        <ele>1688</ele>
        <time>2018-10-17T13:06:21Z</time>
      </trkpt>
      <trkpt lat="45.81643" lon="6.40436">
        <ele>1688</ele>
        <time>2018-10-17T13:06:22Z</time>
      </trkpt>
      <trkpt lat="45.81645" lon="6.40437">
        <ele>1688</ele>
        <time>2018-10-17T13:06:23Z</time>
      </trkpt>
      <trkpt lat="45.81645" lon="6.40437">
        <ele>1688</ele>
        <time>2018-10-17T13:06:24Z</time>
      </trkpt>
      <trkpt lat="45.81647" lon="6.40438">
        <ele>1688</ele>
        <time>2018-10-17T13:06:25Z</time>
      </trkpt>
      <trkpt lat="45.81647" lon="6.40438">
        <ele>1688</ele>
        <time>2018-10-17T13:06:26Z</time>
      </trkpt>
      <trkpt lat="45.81649" lon="6.40439">
        <ele>1688</ele>
        <time>2018-10-17T13:06:27Z</time>
      </trkpt>
      <trkpt lat="45.81649" lon="6.40439">
        <ele>1687</ele>
        <time>2018-10-17T13:06:28Z</time>
      </trkpt>
      <trkpt lat="45.81651" lon="6.4044">
        <ele>1687</ele>
        <time>2018-10-17T13:06:29Z</time>
      </trkpt>
      <trkpt lat="45.81651" lon="6.4044">
        <ele>1687</ele>
        <time>2018-10-17T13:06:30Z</time>
      </trkpt>
      <trkpt lat="45.81653" lon="6.40443">
        <ele>1688</ele>
        <time>2018-10-17T13:06:31Z</time>
      </trkpt>
      <trkpt lat="45.81653" lon="6.40443">
        <ele>1688</ele>
        <time>2018-10-17T13:06:32Z</time>
      </trkpt>
      <trkpt lat="45.81655" lon="6.40444">
        <ele>1688</ele>
        <time>2018-10-17T13:06:33Z</time>
      </trkpt>
      <trkpt lat="45.81655" lon="6.40444">
        <ele>1688</ele>
        <time>2018-10-17T13:06:34Z</time>
      </trkpt>
      <trkpt lat="45.81656" lon="6.40446">
        <ele>1688</ele>
        <time>2018-10-17T13:06:35Z</time>
      </trkpt>
      <trkpt lat="45.81656" lon="6.40446">
        <ele>1688</ele>
        <time>2018-10-17T13:06:36Z</time>
      </trkpt>
      <trkpt lat="45.81659" lon="6.40448">
        <ele>1688</ele>
        <time>2018-10-17T13:06:37Z</time>
      </trkpt>
      <trkpt lat="45.81659" lon="6.40448">
        <ele>1688</ele>
        <time>2018-10-17T13:06:38Z</time>
      </trkpt>
      <trkpt lat="45.81661" lon="6.4045">
        <ele>1688</ele>
        <time>2018-10-17T13:06:39Z</time>
      </trkpt>
      <trkpt lat="45.81661" lon="6.4045">
        <ele>1688</ele>
        <time>2018-10-17T13:06:40Z</time>
      </trkpt>
      <trkpt lat="45.81662" lon="6.40452">
        <ele>1689</ele>
        <time>2018-10-17T13:06:41Z</time>
      </trkpt>
      <trkpt lat="45.81662" lon="6.40452">
        <ele>1689</ele>
        <time>2018-10-17T13:06:42Z</time>
      </trkpt>
      <trkpt lat="45.81662" lon="6.40452">
        <ele>1688</ele>
        <time>2018-10-17T13:06:43Z</time>
      </trkpt>
      <trkpt lat="45.81662" lon="6.40452">
        <ele>1688</ele>
        <time>2018-10-17T13:06:44Z</time>
      </trkpt>
      <trkpt lat="45.81665" lon="6.40454">
        <ele>1688</ele>
        <time>2018-10-17T13:06:45Z</time>
      </trkpt>
      <trkpt lat="45.81665" lon="6.40454">
        <ele>1688</ele>
        <time>2018-10-17T13:06:46Z</time>
      </trkpt>
      <trkpt lat="45.81667" lon="6.40456">
        <ele>1688</ele>
        <time>2018-10-17T13:06:47Z</time>
      </trkpt>
      <trkpt lat="45.81667" lon="6.40456">
        <ele>1688</ele>
        <time>2018-10-17T13:06:48Z</time>
      </trkpt>
      <trkpt lat="45.81669" lon="6.40457">
        <ele>1688</ele>
        <time>2018-10-17T13:06:49Z</time>
      </trkpt>
      <trkpt lat="45.81669" lon="6.40457">
        <ele>1688</ele>
        <time>2018-10-17T13:06:50Z</time>
      </trkpt>
      <trkpt lat="45.81671" lon="6.40459">
        <ele>1688</ele>
        <time>2018-10-17T13:06:51Z</time>
      </trkpt>
      <trkpt lat="45.81671" lon="6.40459">
        <ele>1688</ele>
        <time>2018-10-17T13:06:52Z</time>
      </trkpt>
      <trkpt lat="45.81673" lon="6.4046">
        <ele>1688</ele>
        <time>2018-10-17T13:06:53Z</time>
      </trkpt>
      <trkpt lat="45.81673" lon="6.4046">
        <ele>1688</ele>
        <time>2018-10-17T13:06:54Z</time>
      </trkpt>
      <trkpt lat="45.81676" lon="6.40462">
        <ele>1688</ele>
        <time>2018-10-17T13:06:55Z</time>
      </trkpt>
      <trkpt lat="45.81676" lon="6.40462">
        <ele>1688</ele>
        <time>2018-10-17T13:06:56Z</time>
      </trkpt>
      <trkpt lat="45.81678" lon="6.40464">
        <ele>1688</ele>
        <time>2018-10-17T13:06:57Z</time>
      </trkpt>
      <trkpt lat="45.81678" lon="6.40464">
        <ele>1688</ele>
        <time>2018-10-17T13:06:58Z</time>
      </trkpt>
      <trkpt lat="45.81679" lon="6.40465">
        <ele>1688</ele>
        <time>2018-10-17T13:06:59Z</time>
      </trkpt>
      <trkpt lat="45.81679" lon="6.40465">
        <ele>1687</ele>
        <time>2018-10-17T13:07:00Z</time>
      </trkpt>
      <trkpt lat="45.81681" lon="6.40467">
        <ele>1687</ele>
        <time>2018-10-17T13:07:01Z</time>
      </trkpt>
      <trkpt lat="45.81681" lon="6.40467">
        <ele>1687</ele>
        <time>2018-10-17T13:07:02Z</time>
      </trkpt>
      <trkpt lat="45.81684" lon="6.40467">
        <ele>1687</ele>
        <time>2018-10-17T13:07:03Z</time>
      </trkpt>
      <trkpt lat="45.81684" lon="6.40467">
        <ele>1687</ele>
        <time>2018-10-17T13:07:04Z</time>
      </trkpt>
      <trkpt lat="45.81687" lon="6.40469">
        <ele>1687</ele>
        <time>2018-10-17T13:07:05Z</time>
      </trkpt>
      <trkpt lat="45.81687" lon="6.40469">
        <ele>1687</ele>
        <time>2018-10-17T13:07:06Z</time>
      </trkpt>
      <trkpt lat="45.81689" lon="6.40471">
        <ele>1687</ele>
        <time>2018-10-17T13:07:07Z</time>
      </trkpt>
      <trkpt lat="45.81689" lon="6.40471">
        <ele>1687</ele>
        <time>2018-10-17T13:07:08Z</time>
      </trkpt>
      <trkpt lat="45.81691" lon="6.40473">
        <ele>1687</ele>
        <time>2018-10-17T13:07:09Z</time>
      </trkpt>
      <trkpt lat="45.81691" lon="6.40473">
        <ele>1687</ele>
        <time>2018-10-17T13:07:10Z</time>
      </trkpt>
      <trkpt lat="45.81693" lon="6.40475">
        <ele>1687</ele>
        <time>2018-10-17T13:07:11Z</time>
      </trkpt>
      <trkpt lat="45.81693" lon="6.40475">
        <ele>1687</ele>
        <time>2018-10-17T13:07:12Z</time>
      </trkpt>
      <trkpt lat="45.81695" lon="6.40477">
        <ele>1687</ele>
        <time>2018-10-17T13:07:13Z</time>
      </trkpt>
      <trkpt lat="45.81695" lon="6.40477">
        <ele>1687</ele>
        <time>2018-10-17T13:07:14Z</time>
      </trkpt>
      <trkpt lat="45.81697" lon="6.40478">
        <ele>1688</ele>
        <time>2018-10-17T13:07:15Z</time>
      </trkpt>
      <trkpt lat="45.81697" lon="6.40478">
        <ele>1688</ele>
        <time>2018-10-17T13:07:16Z</time>
      </trkpt>
      <trkpt lat="45.81699" lon="6.40478">
        <ele>1688</ele>
        <time>2018-10-17T13:07:17Z</time>
      </trkpt>
      <trkpt lat="45.81699" lon="6.40478">
        <ele>1688</ele>
        <time>2018-10-17T13:07:18Z</time>
      </trkpt>
      <trkpt lat="45.81699" lon="6.40478">
        <ele>1688</ele>
        <time>2018-10-17T13:07:19Z</time>
      </trkpt>
      <trkpt lat="45.81701" lon="6.40481">
        <ele>1688</ele>
        <time>2018-10-17T13:07:20Z</time>
      </trkpt>
      <trkpt lat="45.81701" lon="6.40481">
        <ele>1688</ele>
        <time>2018-10-17T13:07:21Z</time>
      </trkpt>
      <trkpt lat="45.81703" lon="6.40483">
        <ele>1688</ele>
        <time>2018-10-17T13:07:22Z</time>
      </trkpt>
      <trkpt lat="45.81703" lon="6.40483">
        <ele>1689</ele>
        <time>2018-10-17T13:07:23Z</time>
      </trkpt>
      <trkpt lat="45.81705" lon="6.40484">
        <ele>1689</ele>
        <time>2018-10-17T13:07:24Z</time>
      </trkpt>
      <trkpt lat="45.81705" lon="6.40484">
        <ele>1689</ele>
        <time>2018-10-17T13:07:25Z</time>
      </trkpt>
      <trkpt lat="45.81707" lon="6.40485">
        <ele>1689</ele>
        <time>2018-10-17T13:07:26Z</time>
      </trkpt>
      <trkpt lat="45.81707" lon="6.40485">
        <ele>1689</ele>
        <time>2018-10-17T13:07:27Z</time>
      </trkpt>
      <trkpt lat="45.81708" lon="6.40488">
        <ele>1689</ele>
        <time>2018-10-17T13:07:28Z</time>
      </trkpt>
      <trkpt lat="45.81708" lon="6.40488">
        <ele>1690</ele>
        <time>2018-10-17T13:07:29Z</time>
      </trkpt>
      <trkpt lat="45.8171" lon="6.4049">
        <ele>1690</ele>
        <time>2018-10-17T13:07:30Z</time>
      </trkpt>
      <trkpt lat="45.8171" lon="6.4049">
        <ele>1690</ele>
        <time>2018-10-17T13:07:31Z</time>
      </trkpt>
      <trkpt lat="45.81712" lon="6.40492">
        <ele>1690</ele>
        <time>2018-10-17T13:07:32Z</time>
      </trkpt>
      <trkpt lat="45.81712" lon="6.40492">
        <ele>1690</ele>
        <time>2018-10-17T13:07:33Z</time>
      </trkpt>
      <trkpt lat="45.81714" lon="6.40492">
        <ele>1690</ele>
        <time>2018-10-17T13:07:34Z</time>
      </trkpt>
      <trkpt lat="45.81714" lon="6.40492">
        <ele>1690</ele>
        <time>2018-10-17T13:07:35Z</time>
      </trkpt>
      <trkpt lat="45.81716" lon="6.40493">
        <ele>1690</ele>
        <time>2018-10-17T13:07:36Z</time>
      </trkpt>
      <trkpt lat="45.81716" lon="6.40493">
        <ele>1690</ele>
        <time>2018-10-17T13:07:37Z</time>
      </trkpt>
      <trkpt lat="45.81719" lon="6.40494">
        <ele>1691</ele>
        <time>2018-10-17T13:07:38Z</time>
      </trkpt>
      <trkpt lat="45.81719" lon="6.40494">
        <ele>1691</ele>
        <time>2018-10-17T13:07:39Z</time>
      </trkpt>
      <trkpt lat="45.81721" lon="6.40495">
        <ele>1691</ele>
        <time>2018-10-17T13:07:40Z</time>
      </trkpt>
      <trkpt lat="45.81721" lon="6.40495">
        <ele>1691</ele>
        <time>2018-10-17T13:07:41Z</time>
      </trkpt>
      <trkpt lat="45.81724" lon="6.40496">
        <ele>1692</ele>
        <time>2018-10-17T13:07:42Z</time>
      </trkpt>
      <trkpt lat="45.81724" lon="6.40496">
        <ele>1692</ele>
        <time>2018-10-17T13:07:43Z</time>
      </trkpt>
      <trkpt lat="45.81727" lon="6.40497">
        <ele>1692</ele>
        <time>2018-10-17T13:07:44Z</time>
      </trkpt>
      <trkpt lat="45.81727" lon="6.40497">
        <ele>1692</ele>
        <time>2018-10-17T13:07:45Z</time>
      </trkpt>
      <trkpt lat="45.81729" lon="6.40498">
        <ele>1692</ele>
        <time>2018-10-17T13:07:46Z</time>
      </trkpt>
      <trkpt lat="45.81729" lon="6.40498">
        <ele>1691</ele>
        <time>2018-10-17T13:07:47Z</time>
      </trkpt>
      <trkpt lat="45.81732" lon="6.40499">
        <ele>1692</ele>
        <time>2018-10-17T13:07:48Z</time>
      </trkpt>
      <trkpt lat="45.81732" lon="6.40499">
        <ele>1692</ele>
        <time>2018-10-17T13:07:49Z</time>
      </trkpt>
      <trkpt lat="45.81735" lon="6.405">
        <ele>1692</ele>
        <time>2018-10-17T13:07:50Z</time>
      </trkpt>
      <trkpt lat="45.81735" lon="6.405">
        <ele>1692</ele>
        <time>2018-10-17T13:07:51Z</time>
      </trkpt>
      <trkpt lat="45.81737" lon="6.40501">
        <ele>1692</ele>
        <time>2018-10-17T13:07:52Z</time>
      </trkpt>
      <trkpt lat="45.81737" lon="6.40501">
        <ele>1692</ele>
        <time>2018-10-17T13:07:53Z</time>
      </trkpt>
      <trkpt lat="45.8174" lon="6.40503">
        <ele>1692</ele>
        <time>2018-10-17T13:07:54Z</time>
      </trkpt>
      <trkpt lat="45.8174" lon="6.40503">
        <ele>1692</ele>
        <time>2018-10-17T13:07:55Z</time>
      </trkpt>
      <trkpt lat="45.81742" lon="6.40505">
        <ele>1692</ele>
        <time>2018-10-17T13:07:56Z</time>
      </trkpt>
      <trkpt lat="45.81742" lon="6.40505">
        <ele>1692</ele>
        <time>2018-10-17T13:07:57Z</time>
      </trkpt>
      <trkpt lat="45.81744" lon="6.40508">
        <ele>1692</ele>
        <time>2018-10-17T13:07:58Z</time>
      </trkpt>
      <trkpt lat="45.81744" lon="6.40508">
        <ele>1692</ele>
        <time>2018-10-17T13:07:59Z</time>
      </trkpt>
      <trkpt lat="45.81746" lon="6.4051">
        <ele>1692</ele>
        <time>2018-10-17T13:08:00Z</time>
      </trkpt>
      <trkpt lat="45.81746" lon="6.4051">
        <ele>1692</ele>
        <time>2018-10-17T13:08:01Z</time>
      </trkpt>
      <trkpt lat="45.81748" lon="6.40511">
        <ele>1692</ele>
        <time>2018-10-17T13:08:02Z</time>
      </trkpt>
      <trkpt lat="45.81748" lon="6.40511">
        <ele>1692</ele>
        <time>2018-10-17T13:08:03Z</time>
      </trkpt>
      <trkpt lat="45.81751" lon="6.40512">
        <ele>1692</ele>
        <time>2018-10-17T13:08:04Z</time>
      </trkpt>
      <trkpt lat="45.81751" lon="6.40512">
        <ele>1693</ele>
        <time>2018-10-17T13:08:05Z</time>
      </trkpt>
      <trkpt lat="45.81754" lon="6.40514">
        <ele>1693</ele>
        <time>2018-10-17T13:08:06Z</time>
      </trkpt>
      <trkpt lat="45.81754" lon="6.40514">
        <ele>1693</ele>
        <time>2018-10-17T13:08:07Z</time>
      </trkpt>
      <trkpt lat="45.81757" lon="6.40516">
        <ele>1693</ele>
        <time>2018-10-17T13:08:08Z</time>
      </trkpt>
      <trkpt lat="45.81757" lon="6.40516">
        <ele>1693</ele>
        <time>2018-10-17T13:08:09Z</time>
      </trkpt>
      <trkpt lat="45.8176" lon="6.40518">
        <ele>1693</ele>
        <time>2018-10-17T13:08:10Z</time>
      </trkpt>
      <trkpt lat="45.8176" lon="6.40518">
        <ele>1693</ele>
        <time>2018-10-17T13:08:11Z</time>
      </trkpt>
      <trkpt lat="45.81763" lon="6.40519">
        <ele>1693</ele>
        <time>2018-10-17T13:08:12Z</time>
      </trkpt>
      <trkpt lat="45.81763" lon="6.40519">
        <ele>1693</ele>
        <time>2018-10-17T13:08:13Z</time>
      </trkpt>
      <trkpt lat="45.81765" lon="6.40521">
        <ele>1692</ele>
        <time>2018-10-17T13:08:14Z</time>
      </trkpt>
      <trkpt lat="45.81765" lon="6.40521">
        <ele>1692</ele>
        <time>2018-10-17T13:08:15Z</time>
      </trkpt>
      <trkpt lat="45.81765" lon="6.40521">
        <ele>1692</ele>
        <time>2018-10-17T13:08:16Z</time>
      </trkpt>
      <trkpt lat="45.8177" lon="6.40523">
        <ele>1692</ele>
        <time>2018-10-17T13:08:17Z</time>
      </trkpt>
      <trkpt lat="45.8177" lon="6.40523">
        <ele>1691</ele>
        <time>2018-10-17T13:08:18Z</time>
      </trkpt>
      <trkpt lat="45.81773" lon="6.40525">
        <ele>1690</ele>
        <time>2018-10-17T13:08:19Z</time>
      </trkpt>
      <trkpt lat="45.81773" lon="6.40525">
        <ele>1691</ele>
        <time>2018-10-17T13:08:20Z</time>
      </trkpt>
      <trkpt lat="45.81776" lon="6.40527">
        <ele>1691</ele>
        <time>2018-10-17T13:08:21Z</time>
      </trkpt>
      <trkpt lat="45.81776" lon="6.40527">
        <ele>1691</ele>
        <time>2018-10-17T13:08:22Z</time>
      </trkpt>
      <trkpt lat="45.81778" lon="6.40529">
        <ele>1691</ele>
        <time>2018-10-17T13:08:23Z</time>
      </trkpt>
      <trkpt lat="45.81778" lon="6.40529">
        <ele>1691</ele>
        <time>2018-10-17T13:08:24Z</time>
      </trkpt>
      <trkpt lat="45.8178" lon="6.4053">
        <ele>1691</ele>
        <time>2018-10-17T13:08:25Z</time>
      </trkpt>
      <trkpt lat="45.8178" lon="6.4053">
        <ele>1691</ele>
        <time>2018-10-17T13:08:26Z</time>
      </trkpt>
      <trkpt lat="45.81783" lon="6.40532">
        <ele>1691</ele>
        <time>2018-10-17T13:08:27Z</time>
      </trkpt>
      <trkpt lat="45.81783" lon="6.40532">
        <ele>1691</ele>
        <time>2018-10-17T13:08:28Z</time>
      </trkpt>
      <trkpt lat="45.81786" lon="6.40534">
        <ele>1691</ele>
        <time>2018-10-17T13:08:29Z</time>
      </trkpt>
      <trkpt lat="45.81786" lon="6.40534">
        <ele>1691</ele>
        <time>2018-10-17T13:08:30Z</time>
      </trkpt>
      <trkpt lat="45.81788" lon="6.40536">
        <ele>1691</ele>
        <time>2018-10-17T13:08:31Z</time>
      </trkpt>
      <trkpt lat="45.81788" lon="6.40536">
        <ele>1691</ele>
        <time>2018-10-17T13:08:32Z</time>
      </trkpt>
      <trkpt lat="45.8179" lon="6.40538">
        <ele>1691</ele>
        <time>2018-10-17T13:08:33Z</time>
      </trkpt>
      <trkpt lat="45.8179" lon="6.40538">
        <ele>1691</ele>
        <time>2018-10-17T13:08:34Z</time>
      </trkpt>
      <trkpt lat="45.81793" lon="6.4054">
        <ele>1690</ele>
        <time>2018-10-17T13:08:35Z</time>
      </trkpt>
      <trkpt lat="45.81793" lon="6.4054">
        <ele>1690</ele>
        <time>2018-10-17T13:08:36Z</time>
      </trkpt>
      <trkpt lat="45.81796" lon="6.40542">
        <ele>1690</ele>
        <time>2018-10-17T13:08:37Z</time>
      </trkpt>
      <trkpt lat="45.81796" lon="6.40542">
        <ele>1690</ele>
        <time>2018-10-17T13:08:38Z</time>
      </trkpt>
      <trkpt lat="45.81798" lon="6.40544">
        <ele>1691</ele>
        <time>2018-10-17T13:08:39Z</time>
      </trkpt>
      <trkpt lat="45.81798" lon="6.40544">
        <ele>1691</ele>
        <time>2018-10-17T13:08:40Z</time>
      </trkpt>
      <trkpt lat="45.818" lon="6.40545">
        <ele>1691</ele>
        <time>2018-10-17T13:08:41Z</time>
      </trkpt>
      <trkpt lat="45.818" lon="6.40545">
        <ele>1691</ele>
        <time>2018-10-17T13:08:42Z</time>
      </trkpt>
      <trkpt lat="45.81803" lon="6.40547">
        <ele>1691</ele>
        <time>2018-10-17T13:08:43Z</time>
      </trkpt>
      <trkpt lat="45.81803" lon="6.40547">
        <ele>1691</ele>
        <time>2018-10-17T13:08:44Z</time>
      </trkpt>
      <trkpt lat="45.81806" lon="6.40548">
        <ele>1691</ele>
        <time>2018-10-17T13:08:45Z</time>
      </trkpt>
      <trkpt lat="45.81806" lon="6.40548">
        <ele>1691</ele>
        <time>2018-10-17T13:08:46Z</time>
      </trkpt>
      <trkpt lat="45.81809" lon="6.40548">
        <ele>1691</ele>
        <time>2018-10-17T13:08:47Z</time>
      </trkpt>
      <trkpt lat="45.81809" lon="6.40548">
        <ele>1691</ele>
        <time>2018-10-17T13:08:48Z</time>
      </trkpt>
      <trkpt lat="45.81811" lon="6.40548">
        <ele>1691</ele>
        <time>2018-10-17T13:08:49Z</time>
      </trkpt>
      <trkpt lat="45.81811" lon="6.40548">
        <ele>1691</ele>
        <time>2018-10-17T13:08:50Z</time>
      </trkpt>
      <trkpt lat="45.81814" lon="6.40549">
        <ele>1691</ele>
        <time>2018-10-17T13:08:51Z</time>
      </trkpt>
      <trkpt lat="45.81814" lon="6.40549">
        <ele>1691</ele>
        <time>2018-10-17T13:08:52Z</time>
      </trkpt>
      <trkpt lat="45.81817" lon="6.4055">
        <ele>1691</ele>
        <time>2018-10-17T13:08:53Z</time>
      </trkpt>
      <trkpt lat="45.81817" lon="6.4055">
        <ele>1691</ele>
        <time>2018-10-17T13:08:54Z</time>
      </trkpt>
      <trkpt lat="45.8182" lon="6.40551">
        <ele>1691</ele>
        <time>2018-10-17T13:08:55Z</time>
      </trkpt>
      <trkpt lat="45.8182" lon="6.40551">
        <ele>1691</ele>
        <time>2018-10-17T13:08:56Z</time>
      </trkpt>
      <trkpt lat="45.81823" lon="6.40551">
        <ele>1691</ele>
        <time>2018-10-17T13:08:57Z</time>
      </trkpt>
      <trkpt lat="45.81823" lon="6.40551">
        <ele>1691</ele>
        <time>2018-10-17T13:08:58Z</time>
      </trkpt>
      <trkpt lat="45.81826" lon="6.40551">
        <ele>1691</ele>
        <time>2018-10-17T13:08:59Z</time>
      </trkpt>
      <trkpt lat="45.81826" lon="6.40551">
        <ele>1691</ele>
        <time>2018-10-17T13:09:00Z</time>
      </trkpt>
      <trkpt lat="45.81828" lon="6.40552">
        <ele>1691</ele>
        <time>2018-10-17T13:09:01Z</time>
      </trkpt>
      <trkpt lat="45.81828" lon="6.40552">
        <ele>1691</ele>
        <time>2018-10-17T13:09:02Z</time>
      </trkpt>
      <trkpt lat="45.81831" lon="6.40552">
        <ele>1691</ele>
        <time>2018-10-17T13:09:03Z</time>
      </trkpt>
      <trkpt lat="45.81831" lon="6.40552">
        <ele>1691</ele>
        <time>2018-10-17T13:09:04Z</time>
      </trkpt>
      <trkpt lat="45.81834" lon="6.40552">
        <ele>1691</ele>
        <time>2018-10-17T13:09:05Z</time>
      </trkpt>
      <trkpt lat="45.81834" lon="6.40552">
        <ele>1691</ele>
        <time>2018-10-17T13:09:06Z</time>
      </trkpt>
      <trkpt lat="45.81837" lon="6.40552">
        <ele>1691</ele>
        <time>2018-10-17T13:09:07Z</time>
      </trkpt>
      <trkpt lat="45.81837" lon="6.40552">
        <ele>1691</ele>
        <time>2018-10-17T13:09:08Z</time>
      </trkpt>
      <trkpt lat="45.8184" lon="6.40552">
        <ele>1691</ele>
        <time>2018-10-17T13:09:09Z</time>
      </trkpt>
      <trkpt lat="45.8184" lon="6.40552">
        <ele>1692</ele>
        <time>2018-10-17T13:09:10Z</time>
      </trkpt>
      <trkpt lat="45.81842" lon="6.40551">
        <ele>1692</ele>
        <time>2018-10-17T13:09:11Z</time>
      </trkpt>
      <trkpt lat="45.81842" lon="6.40551">
        <ele>1692</ele>
        <time>2018-10-17T13:09:12Z</time>
      </trkpt>
      <trkpt lat="45.81845" lon="6.40551">
        <ele>1692</ele>
        <time>2018-10-17T13:09:13Z</time>
      </trkpt>
      <trkpt lat="45.81845" lon="6.40551">
        <ele>1692</ele>
        <time>2018-10-17T13:09:14Z</time>
      </trkpt>
      <trkpt lat="45.81848" lon="6.40551">
        <ele>1692</ele>
        <time>2018-10-17T13:09:15Z</time>
      </trkpt>
      <trkpt lat="45.81848" lon="6.40551">
        <ele>1692</ele>
        <time>2018-10-17T13:09:16Z</time>
      </trkpt>
      <trkpt lat="45.81851" lon="6.40551">
        <ele>1692</ele>
        <time>2018-10-17T13:09:17Z</time>
      </trkpt>
      <trkpt lat="45.81851" lon="6.40551">
        <ele>1692</ele>
        <time>2018-10-17T13:09:18Z</time>
      </trkpt>
      <trkpt lat="45.81853" lon="6.40552">
        <ele>1692</ele>
        <time>2018-10-17T13:09:19Z</time>
      </trkpt>
      <trkpt lat="45.81853" lon="6.40552">
        <ele>1692</ele>
        <time>2018-10-17T13:09:20Z</time>
      </trkpt>
      <trkpt lat="45.81856" lon="6.40553">
        <ele>1692</ele>
        <time>2018-10-17T13:09:21Z</time>
      </trkpt>
      <trkpt lat="45.81856" lon="6.40553">
        <ele>1692</ele>
        <time>2018-10-17T13:09:22Z</time>
      </trkpt>
      <trkpt lat="45.81858" lon="6.40554">
        <ele>1692</ele>
        <time>2018-10-17T13:09:23Z</time>
      </trkpt>
      <trkpt lat="45.81858" lon="6.40554">
        <ele>1691</ele>
        <time>2018-10-17T13:09:24Z</time>
      </trkpt>
      <trkpt lat="45.81861" lon="6.40555">
        <ele>1692</ele>
        <time>2018-10-17T13:09:25Z</time>
      </trkpt>
      <trkpt lat="45.81861" lon="6.40555">
        <ele>1692</ele>
        <time>2018-10-17T13:09:26Z</time>
      </trkpt>
      <trkpt lat="45.81863" lon="6.40557">
        <ele>1692</ele>
        <time>2018-10-17T13:09:27Z</time>
      </trkpt>
      <trkpt lat="45.81863" lon="6.40557">
        <ele>1692</ele>
        <time>2018-10-17T13:09:28Z</time>
      </trkpt>
      <trkpt lat="45.81866" lon="6.40558">
        <ele>1692</ele>
        <time>2018-10-17T13:09:29Z</time>
      </trkpt>
      <trkpt lat="45.81866" lon="6.40558">
        <ele>1692</ele>
        <time>2018-10-17T13:09:30Z</time>
      </trkpt>
      <trkpt lat="45.81868" lon="6.4056">
        <ele>1692</ele>
        <time>2018-10-17T13:09:31Z</time>
      </trkpt>
      <trkpt lat="45.81868" lon="6.4056">
        <ele>1693</ele>
        <time>2018-10-17T13:09:32Z</time>
      </trkpt>
      <trkpt lat="45.8187" lon="6.40561">
        <ele>1693</ele>
        <time>2018-10-17T13:09:33Z</time>
      </trkpt>
      <trkpt lat="45.8187" lon="6.40561">
        <ele>1693</ele>
        <time>2018-10-17T13:09:34Z</time>
      </trkpt>
      <trkpt lat="45.81873" lon="6.40562">
        <ele>1693</ele>
        <time>2018-10-17T13:09:35Z</time>
      </trkpt>
      <trkpt lat="45.81873" lon="6.40562">
        <ele>1693</ele>
        <time>2018-10-17T13:09:36Z</time>
      </trkpt>
      <trkpt lat="45.81875" lon="6.40563">
        <ele>1693</ele>
        <time>2018-10-17T13:09:37Z</time>
      </trkpt>
      <trkpt lat="45.81875" lon="6.40563">
        <ele>1693</ele>
        <time>2018-10-17T13:09:38Z</time>
      </trkpt>
      <trkpt lat="45.81877" lon="6.40565">
        <ele>1693</ele>
        <time>2018-10-17T13:09:39Z</time>
      </trkpt>
      <trkpt lat="45.81877" lon="6.40565">
        <ele>1693</ele>
        <time>2018-10-17T13:09:40Z</time>
      </trkpt>
      <trkpt lat="45.81877" lon="6.40565">
        <ele>1693</ele>
        <time>2018-10-17T13:09:41Z</time>
      </trkpt>
      <trkpt lat="45.81877" lon="6.40565">
        <ele>1693</ele>
        <time>2018-10-17T13:09:42Z</time>
      </trkpt>
      <trkpt lat="45.81877" lon="6.40565">
        <ele>1693</ele>
        <time>2018-10-17T13:09:43Z</time>
      </trkpt>
      <trkpt lat="45.81879" lon="6.40565">
        <ele>1693</ele>
        <time>2018-10-17T13:09:44Z</time>
      </trkpt>
      <trkpt lat="45.81879" lon="6.40565">
        <ele>1693</ele>
        <time>2018-10-17T13:09:45Z</time>
      </trkpt>
      <trkpt lat="45.81879" lon="6.40565">
        <ele>1693</ele>
        <time>2018-10-17T13:09:46Z</time>
      </trkpt>
      <trkpt lat="45.81882" lon="6.40564">
        <ele>1693</ele>
        <time>2018-10-17T13:09:47Z</time>
      </trkpt>
      <trkpt lat="45.81882" lon="6.40564">
        <ele>1693</ele>
        <time>2018-10-17T13:09:48Z</time>
      </trkpt>
      <trkpt lat="45.81885" lon="6.40564">
        <ele>1694</ele>
        <time>2018-10-17T13:09:49Z</time>
      </trkpt>
      <trkpt lat="45.81885" lon="6.40564">
        <ele>1694</ele>
        <time>2018-10-17T13:09:50Z</time>
      </trkpt>
      <trkpt lat="45.81888" lon="6.40564">
        <ele>1694</ele>
        <time>2018-10-17T13:09:51Z</time>
      </trkpt>
      <trkpt lat="45.81888" lon="6.40564">
        <ele>1694</ele>
        <time>2018-10-17T13:09:52Z</time>
      </trkpt>
      <trkpt lat="45.81891" lon="6.40564">
        <ele>1694</ele>
        <time>2018-10-17T13:09:53Z</time>
      </trkpt>
      <trkpt lat="45.81891" lon="6.40564">
        <ele>1694</ele>
        <time>2018-10-17T13:09:54Z</time>
      </trkpt>
      <trkpt lat="45.81894" lon="6.40564">
        <ele>1694</ele>
        <time>2018-10-17T13:09:55Z</time>
      </trkpt>
      <trkpt lat="45.81894" lon="6.40564">
        <ele>1694</ele>
        <time>2018-10-17T13:09:56Z</time>
      </trkpt>
      <trkpt lat="45.81897" lon="6.40564">
        <ele>1694</ele>
        <time>2018-10-17T13:09:57Z</time>
      </trkpt>
      <trkpt lat="45.81897" lon="6.40564">
        <ele>1695</ele>
        <time>2018-10-17T13:09:58Z</time>
      </trkpt>
      <trkpt lat="45.819" lon="6.40565">
        <ele>1695</ele>
        <time>2018-10-17T13:09:59Z</time>
      </trkpt>
      <trkpt lat="45.819" lon="6.40565">
        <ele>1695</ele>
        <time>2018-10-17T13:10:00Z</time>
      </trkpt>
      <trkpt lat="45.81903" lon="6.40565">
        <ele>1695</ele>
        <time>2018-10-17T13:10:01Z</time>
      </trkpt>
      <trkpt lat="45.81903" lon="6.40565">
        <ele>1695</ele>
        <time>2018-10-17T13:10:02Z</time>
      </trkpt>
      <trkpt lat="45.81906" lon="6.40565">
        <ele>1695</ele>
        <time>2018-10-17T13:10:03Z</time>
      </trkpt>
      <trkpt lat="45.81906" lon="6.40565">
        <ele>1695</ele>
        <time>2018-10-17T13:10:04Z</time>
      </trkpt>
      <trkpt lat="45.81909" lon="6.40565">
        <ele>1695</ele>
        <time>2018-10-17T13:10:05Z</time>
      </trkpt>
      <trkpt lat="45.81909" lon="6.40565">
        <ele>1695</ele>
        <time>2018-10-17T13:10:06Z</time>
      </trkpt>
      <trkpt lat="45.81912" lon="6.40565">
        <ele>1695</ele>
        <time>2018-10-17T13:10:07Z</time>
      </trkpt>
      <trkpt lat="45.81912" lon="6.40565">
        <ele>1696</ele>
        <time>2018-10-17T13:10:08Z</time>
      </trkpt>
      <trkpt lat="45.81914" lon="6.40564">
        <ele>1696</ele>
        <time>2018-10-17T13:10:09Z</time>
      </trkpt>
      <trkpt lat="45.81914" lon="6.40564">
        <ele>1696</ele>
        <time>2018-10-17T13:10:10Z</time>
      </trkpt>
      <trkpt lat="45.81917" lon="6.40564">
        <ele>1697</ele>
        <time>2018-10-17T13:10:11Z</time>
      </trkpt>
      <trkpt lat="45.81917" lon="6.40564">
        <ele>1697</ele>
        <time>2018-10-17T13:10:12Z</time>
      </trkpt>
      <trkpt lat="45.81919" lon="6.40564">
        <ele>1697</ele>
        <time>2018-10-17T13:10:13Z</time>
      </trkpt>
      <trkpt lat="45.81919" lon="6.40564">
        <ele>1697</ele>
        <time>2018-10-17T13:10:14Z</time>
      </trkpt>
      <trkpt lat="45.81922" lon="6.40564">
        <ele>1698</ele>
        <time>2018-10-17T13:10:15Z</time>
      </trkpt>
      <trkpt lat="45.81922" lon="6.40564">
        <ele>1698</ele>
        <time>2018-10-17T13:10:16Z</time>
      </trkpt>
      <trkpt lat="45.81925" lon="6.40564">
        <ele>1698</ele>
        <time>2018-10-17T13:10:17Z</time>
      </trkpt>
      <trkpt lat="45.81925" lon="6.40564">
        <ele>1698</ele>
        <time>2018-10-17T13:10:18Z</time>
      </trkpt>
      <trkpt lat="45.81927" lon="6.40565">
        <ele>1698</ele>
        <time>2018-10-17T13:10:19Z</time>
      </trkpt>
      <trkpt lat="45.81927" lon="6.40565">
        <ele>1698</ele>
        <time>2018-10-17T13:10:20Z</time>
      </trkpt>
      <trkpt lat="45.8193" lon="6.40566">
        <ele>1699</ele>
        <time>2018-10-17T13:10:21Z</time>
      </trkpt>
      <trkpt lat="45.8193" lon="6.40566">
        <ele>1699</ele>
        <time>2018-10-17T13:10:22Z</time>
      </trkpt>
      <trkpt lat="45.8193" lon="6.40566">
        <ele>1699</ele>
        <time>2018-10-17T13:10:23Z</time>
      </trkpt>
      <trkpt lat="45.81932" lon="6.40565">
        <ele>1699</ele>
        <time>2018-10-17T13:10:24Z</time>
      </trkpt>
      <trkpt lat="45.81932" lon="6.40565">
        <ele>1699</ele>
        <time>2018-10-17T13:10:25Z</time>
      </trkpt>
      <trkpt lat="45.81932" lon="6.40565">
        <ele>1699</ele>
        <time>2018-10-17T13:10:26Z</time>
      </trkpt>
      <trkpt lat="45.81934" lon="6.40565">
        <ele>1699</ele>
        <time>2018-10-17T13:10:27Z</time>
      </trkpt>
      <trkpt lat="45.81934" lon="6.40565">
        <ele>1699</ele>
        <time>2018-10-17T13:10:28Z</time>
      </trkpt>
      <trkpt lat="45.81937" lon="6.40567">
        <ele>1699</ele>
        <time>2018-10-17T13:10:29Z</time>
      </trkpt>
      <trkpt lat="45.81937" lon="6.40567">
        <ele>1699</ele>
        <time>2018-10-17T13:10:30Z</time>
      </trkpt>
      <trkpt lat="45.81939" lon="6.40568">
        <ele>1699</ele>
        <time>2018-10-17T13:10:31Z</time>
      </trkpt>
      <trkpt lat="45.81939" lon="6.40568">
        <ele>1698</ele>
        <time>2018-10-17T13:10:32Z</time>
      </trkpt>
      <trkpt lat="45.81939" lon="6.40568">
        <ele>1698</ele>
        <time>2018-10-17T13:10:33Z</time>
      </trkpt>
      <trkpt lat="45.81939" lon="6.40568">
        <ele>1698</ele>
        <time>2018-10-17T13:10:34Z</time>
      </trkpt>
      <trkpt lat="45.81939" lon="6.40568">
        <ele>1698</ele>
        <time>2018-10-17T13:10:35Z</time>
      </trkpt>
      <trkpt lat="45.81939" lon="6.40568">
        <ele>1698</ele>
        <time>2018-10-17T13:10:36Z</time>
      </trkpt>
      <trkpt lat="45.81939" lon="6.40568">
        <ele>1698</ele>
        <time>2018-10-17T13:10:37Z</time>
      </trkpt>
      <trkpt lat="45.81939" lon="6.40568">
        <ele>1698</ele>
        <time>2018-10-17T13:10:38Z</time>
      </trkpt>
      <trkpt lat="45.81939" lon="6.40568">
        <ele>1698</ele>
        <time>2018-10-17T13:10:39Z</time>
      </trkpt>
      <trkpt lat="45.81939" lon="6.40568">
        <ele>1698</ele>
        <time>2018-10-17T13:10:40Z</time>
      </trkpt>
      <trkpt lat="45.81939" lon="6.40568">
        <ele>1698</ele>
        <time>2018-10-17T13:10:41Z</time>
      </trkpt>
      <trkpt lat="45.81939" lon="6.40568">
        <ele>1699</ele>
        <time>2018-10-17T13:10:42Z</time>
      </trkpt>
      <trkpt lat="45.81939" lon="6.40568">
        <ele>1699</ele>
        <time>2018-10-17T13:10:43Z</time>
      </trkpt>
      <trkpt lat="45.81939" lon="6.40568">
        <ele>1699</ele>
        <time>2018-10-17T13:10:44Z</time>
      </trkpt>
      <trkpt lat="45.81939" lon="6.40568">
        <ele>1699</ele>
        <time>2018-10-17T13:10:45Z</time>
      </trkpt>
      <trkpt lat="45.81939" lon="6.40568">
        <ele>1699</ele>
        <time>2018-10-17T13:10:46Z</time>
      </trkpt>
      <trkpt lat="45.81939" lon="6.40568">
        <ele>1699</ele>
        <time>2018-10-17T13:10:47Z</time>
      </trkpt>
      <trkpt lat="45.81939" lon="6.40568">
        <ele>1699</ele>
        <time>2018-10-17T13:10:48Z</time>
      </trkpt>
      <trkpt lat="45.81939" lon="6.40568">
        <ele>1699</ele>
        <time>2018-10-17T13:10:49Z</time>
      </trkpt>
      <trkpt lat="45.81939" lon="6.40568">
        <ele>1699</ele>
        <time>2018-10-17T13:10:50Z</time>
      </trkpt>
      <trkpt lat="45.81939" lon="6.40568">
        <ele>1699</ele>
        <time>2018-10-17T13:10:51Z</time>
      </trkpt>
      <trkpt lat="45.81939" lon="6.40568">
        <ele>1699</ele>
        <time>2018-10-17T13:10:52Z</time>
      </trkpt>
      <trkpt lat="45.81939" lon="6.40568">
        <ele>1699</ele>
        <time>2018-10-17T13:10:53Z</time>
      </trkpt>
      <trkpt lat="45.81939" lon="6.40568">
        <ele>1699</ele>
        <time>2018-10-17T13:10:54Z</time>
      </trkpt>
      <trkpt lat="45.81939" lon="6.40568">
        <ele>1699</ele>
        <time>2018-10-17T13:10:55Z</time>
      </trkpt>
      <trkpt lat="45.81939" lon="6.40568">
        <ele>1699</ele>
        <time>2018-10-17T13:10:56Z</time>
      </trkpt>
      <trkpt lat="45.81939" lon="6.40568">
        <ele>1699</ele>
        <time>2018-10-17T13:10:57Z</time>
      </trkpt>
      <trkpt lat="45.81939" lon="6.40568">
        <ele>1699</ele>
        <time>2018-10-17T13:10:58Z</time>
      </trkpt>
      <trkpt lat="45.81939" lon="6.40568">
        <ele>1699</ele>
        <time>2018-10-17T13:10:59Z</time>
      </trkpt>
      <trkpt lat="45.81939" lon="6.40568">
        <ele>1699</ele>
        <time>2018-10-17T13:11:00Z</time>
      </trkpt>
      <trkpt lat="45.81939" lon="6.40568">
        <ele>1699</ele>
        <time>2018-10-17T13:11:01Z</time>
      </trkpt>
      <trkpt lat="45.81939" lon="6.40568">
        <ele>1699</ele>
        <time>2018-10-17T13:11:02Z</time>
      </trkpt>
      <trkpt lat="45.81939" lon="6.40568">
        <ele>1699</ele>
        <time>2018-10-17T13:11:03Z</time>
      </trkpt>
      <trkpt lat="45.81939" lon="6.40568">
        <ele>1699</ele>
        <time>2018-10-17T13:11:04Z</time>
      </trkpt>
      <trkpt lat="45.81939" lon="6.40568">
        <ele>1699</ele>
        <time>2018-10-17T13:11:05Z</time>
      </trkpt>
      <trkpt lat="45.81939" lon="6.40568">
        <ele>1699</ele>
        <time>2018-10-17T13:11:06Z</time>
      </trkpt>
      <trkpt lat="45.81939" lon="6.40568">
        <ele>1699</ele>
        <time>2018-10-17T13:11:07Z</time>
      </trkpt>
      <trkpt lat="45.81939" lon="6.40568">
        <ele>1699</ele>
        <time>2018-10-17T13:11:08Z</time>
      </trkpt>
      <trkpt lat="45.81939" lon="6.40568">
        <ele>1699</ele>
        <time>2018-10-17T13:11:09Z</time>
      </trkpt>
      <trkpt lat="45.81939" lon="6.40568">
        <ele>1699</ele>
        <time>2018-10-17T13:11:10Z</time>
      </trkpt>
      <trkpt lat="45.81939" lon="6.40568">
        <ele>1699</ele>
        <time>2018-10-17T13:11:11Z</time>
      </trkpt>
      <trkpt lat="45.81939" lon="6.40568">
        <ele>1699</ele>
        <time>2018-10-17T13:11:12Z</time>
      </trkpt>
      <trkpt lat="45.81939" lon="6.40568">
        <ele>1699</ele>
        <time>2018-10-17T13:11:13Z</time>
      </trkpt>
      <trkpt lat="45.81939" lon="6.40568">
        <ele>1699</ele>
        <time>2018-10-17T13:11:14Z</time>
      </trkpt>
      <trkpt lat="45.8194" lon="6.40569">
        <ele>1699</ele>
        <time>2018-10-17T13:11:15Z</time>
      </trkpt>
      <trkpt lat="45.8194" lon="6.40569">
        <ele>1699</ele>
        <time>2018-10-17T13:11:16Z</time>
      </trkpt>
      <trkpt lat="45.8194" lon="6.40569">
        <ele>1699</ele>
        <time>2018-10-17T13:11:17Z</time>
      </trkpt>
      <trkpt lat="45.8194" lon="6.40569">
        <ele>1699</ele>
        <time>2018-10-17T13:11:18Z</time>
      </trkpt>
      <trkpt lat="45.8194" lon="6.40569">
        <ele>1699</ele>
        <time>2018-10-17T13:11:19Z</time>
      </trkpt>
      <trkpt lat="45.8194" lon="6.40569">
        <ele>1699</ele>
        <time>2018-10-17T13:11:20Z</time>
      </trkpt>
      <trkpt lat="45.8194" lon="6.40569">
        <ele>1699</ele>
        <time>2018-10-17T13:11:21Z</time>
      </trkpt>
      <trkpt lat="45.8194" lon="6.40569">
        <ele>1699</ele>
        <time>2018-10-17T13:11:22Z</time>
      </trkpt>
      <trkpt lat="45.8194" lon="6.40569">
        <ele>1699</ele>
        <time>2018-10-17T13:11:23Z</time>
      </trkpt>
      <trkpt lat="45.8194" lon="6.40569">
        <ele>1699</ele>
        <time>2018-10-17T13:11:24Z</time>
      </trkpt>
      <trkpt lat="45.8194" lon="6.40569">
        <ele>1699</ele>
        <time>2018-10-17T13:11:25Z</time>
      </trkpt>
      <trkpt lat="45.8194" lon="6.40569">
        <ele>1699</ele>
        <time>2018-10-17T13:11:26Z</time>
      </trkpt>
      <trkpt lat="45.8194" lon="6.40569">
        <ele>1699</ele>
        <time>2018-10-17T13:11:27Z</time>
      </trkpt>
      <trkpt lat="45.8194" lon="6.40569">
        <ele>1699</ele>
        <time>2018-10-17T13:11:28Z</time>
      </trkpt>
      <trkpt lat="45.8194" lon="6.40569">
        <ele>1699</ele>
        <time>2018-10-17T13:11:29Z</time>
      </trkpt>
      <trkpt lat="45.8194" lon="6.40569">
        <ele>1699</ele>
        <time>2018-10-17T13:11:30Z</time>
      </trkpt>
      <trkpt lat="45.8194" lon="6.40569">
        <ele>1699</ele>
        <time>2018-10-17T13:11:31Z</time>
      </trkpt>
      <trkpt lat="45.8194" lon="6.40569">
        <ele>1699</ele>
        <time>2018-10-17T13:11:32Z</time>
      </trkpt>
      <trkpt lat="45.8194" lon="6.40569">
        <ele>1699</ele>
        <time>2018-10-17T13:11:33Z</time>
      </trkpt>
      <trkpt lat="45.8194" lon="6.40569">
        <ele>1699</ele>
        <time>2018-10-17T13:11:34Z</time>
      </trkpt>
      <trkpt lat="45.8194" lon="6.40569">
        <ele>1698</ele>
        <time>2018-10-17T13:11:35Z</time>
      </trkpt>
      <trkpt lat="45.8194" lon="6.40569">
        <ele>1698</ele>
        <time>2018-10-17T13:11:36Z</time>
      </trkpt>
      <trkpt lat="45.8194" lon="6.40569">
        <ele>1698</ele>
        <time>2018-10-17T13:11:37Z</time>
      </trkpt>
      <trkpt lat="45.8194" lon="6.40569">
        <ele>1698</ele>
        <time>2018-10-17T13:11:38Z</time>
      </trkpt>
      <trkpt lat="45.8194" lon="6.40569">
        <ele>1698</ele>
        <time>2018-10-17T13:11:39Z</time>
      </trkpt>
      <trkpt lat="45.8194" lon="6.40569">
        <ele>1698</ele>
        <time>2018-10-17T13:11:40Z</time>
      </trkpt>
      <trkpt lat="45.8194" lon="6.40569">
        <ele>1698</ele>
        <time>2018-10-17T13:11:41Z</time>
      </trkpt>
      <trkpt lat="45.8194" lon="6.40569">
        <ele>1698</ele>
        <time>2018-10-17T13:11:42Z</time>
      </trkpt>
      <trkpt lat="45.8194" lon="6.40569">
        <ele>1698</ele>
        <time>2018-10-17T13:11:43Z</time>
      </trkpt>
      <trkpt lat="45.8194" lon="6.40569">
        <ele>1698</ele>
        <time>2018-10-17T13:11:44Z</time>
      </trkpt>
      <trkpt lat="45.8194" lon="6.40569">
        <ele>1698</ele>
        <time>2018-10-17T13:11:45Z</time>
      </trkpt>
      <trkpt lat="45.8194" lon="6.40569">
        <ele>1698</ele>
        <time>2018-10-17T13:11:46Z</time>
      </trkpt>
      <trkpt lat="45.8194" lon="6.40569">
        <ele>1698</ele>
        <time>2018-10-17T13:11:47Z</time>
      </trkpt>
      <trkpt lat="45.8194" lon="6.40569">
        <ele>1698</ele>
        <time>2018-10-17T13:11:48Z</time>
      </trkpt>
      <trkpt lat="45.8194" lon="6.40569">
        <ele>1698</ele>
        <time>2018-10-17T13:11:49Z</time>
      </trkpt>
      <trkpt lat="45.8194" lon="6.40569">
        <ele>1698</ele>
        <time>2018-10-17T13:11:50Z</time>
      </trkpt>
      <trkpt lat="45.8194" lon="6.40569">
        <ele>1698</ele>
        <time>2018-10-17T13:11:51Z</time>
      </trkpt>
      <trkpt lat="45.8194" lon="6.40569">
        <ele>1698</ele>
        <time>2018-10-17T13:11:52Z</time>
      </trkpt>
      <trkpt lat="45.8194" lon="6.40569">
        <ele>1698</ele>
        <time>2018-10-17T13:11:53Z</time>
      </trkpt>
      <trkpt lat="45.8194" lon="6.40569">
        <ele>1698</ele>
        <time>2018-10-17T13:11:54Z</time>
      </trkpt>
      <trkpt lat="45.8194" lon="6.40569">
        <ele>1698</ele>
        <time>2018-10-17T13:11:55Z</time>
      </trkpt>
      <trkpt lat="45.8194" lon="6.40569">
        <ele>1698</ele>
        <time>2018-10-17T13:11:56Z</time>
      </trkpt>
      <trkpt lat="45.8194" lon="6.40569">
        <ele>1698</ele>
        <time>2018-10-17T13:11:57Z</time>
      </trkpt>
      <trkpt lat="45.8194" lon="6.40569">
        <ele>1698</ele>
        <time>2018-10-17T13:11:58Z</time>
      </trkpt>
      <trkpt lat="45.8194" lon="6.40569">
        <ele>1698</ele>
        <time>2018-10-17T13:11:59Z</time>
      </trkpt>
      <trkpt lat="45.8194" lon="6.40569">
        <ele>1698</ele>
        <time>2018-10-17T13:12:00Z</time>
      </trkpt>
      <trkpt lat="45.8194" lon="6.40569">
        <ele>1698</ele>
        <time>2018-10-17T13:12:01Z</time>
      </trkpt>
      <trkpt lat="45.8194" lon="6.40569">
        <ele>1698</ele>
        <time>2018-10-17T13:12:02Z</time>
      </trkpt>
      <trkpt lat="45.8194" lon="6.40569">
        <ele>1698</ele>
        <time>2018-10-17T13:12:03Z</time>
      </trkpt>
      <trkpt lat="45.8194" lon="6.40569">
        <ele>1698</ele>
        <time>2018-10-17T13:12:04Z</time>
      </trkpt>
      <trkpt lat="45.8194" lon="6.40569">
        <ele>1698</ele>
        <time>2018-10-17T13:12:05Z</time>
      </trkpt>
      <trkpt lat="45.8194" lon="6.40569">
        <ele>1698</ele>
        <time>2018-10-17T13:12:06Z</time>
      </trkpt>
      <trkpt lat="45.8194" lon="6.40569">
        <ele>1698</ele>
        <time>2018-10-17T13:12:07Z</time>
      </trkpt>
      <trkpt lat="45.8194" lon="6.40569">
        <ele>1698</ele>
        <time>2018-10-17T13:12:08Z</time>
      </trkpt>
      <trkpt lat="45.8194" lon="6.40569">
        <ele>1698</ele>
        <time>2018-10-17T13:12:09Z</time>
      </trkpt>
      <trkpt lat="45.8194" lon="6.40569">
        <ele>1698</ele>
        <time>2018-10-17T13:12:10Z</time>
      </trkpt>
      <trkpt lat="45.8194" lon="6.40569">
        <ele>1698</ele>
        <time>2018-10-17T13:12:11Z</time>
      </trkpt>
      <trkpt lat="45.8194" lon="6.40569">
        <ele>1698</ele>
        <time>2018-10-17T13:12:12Z</time>
      </trkpt>
      <trkpt lat="45.8194" lon="6.40569">
        <ele>1698</ele>
        <time>2018-10-17T13:12:13Z</time>
      </trkpt>
      <trkpt lat="45.8194" lon="6.40569">
        <ele>1698</ele>
        <time>2018-10-17T13:12:14Z</time>
      </trkpt>
      <trkpt lat="45.8194" lon="6.40569">
        <ele>1698</ele>
        <time>2018-10-17T13:12:15Z</time>
      </trkpt>
      <trkpt lat="45.8194" lon="6.40569">
        <ele>1698</ele>
        <time>2018-10-17T13:12:16Z</time>
      </trkpt>
      <trkpt lat="45.8194" lon="6.40569">
        <ele>1698</ele>
        <time>2018-10-17T13:12:17Z</time>
      </trkpt>
      <trkpt lat="45.8194" lon="6.40569">
        <ele>1698</ele>
        <time>2018-10-17T13:12:18Z</time>
      </trkpt>
      <trkpt lat="45.8194" lon="6.40569">
        <ele>1698</ele>
        <time>2018-10-17T13:12:19Z</time>
      </trkpt>
      <trkpt lat="45.8194" lon="6.40569">
        <ele>1698</ele>
        <time>2018-10-17T13:12:20Z</time>
      </trkpt>
      <trkpt lat="45.8194" lon="6.40569">
        <ele>1698</ele>
        <time>2018-10-17T13:12:21Z</time>
      </trkpt>
      <trkpt lat="45.8194" lon="6.40569">
        <ele>1698</ele>
        <time>2018-10-17T13:12:22Z</time>
      </trkpt>
      <trkpt lat="45.8194" lon="6.40569">
        <ele>1698</ele>
        <time>2018-10-17T13:12:23Z</time>
      </trkpt>
      <trkpt lat="45.8194" lon="6.40569">
        <ele>1698</ele>
        <time>2018-10-17T13:12:24Z</time>
      </trkpt>
      <trkpt lat="45.8194" lon="6.40569">
        <ele>1698</ele>
        <time>2018-10-17T13:12:25Z</time>
      </trkpt>
      <trkpt lat="45.8194" lon="6.40569">
        <ele>1699</ele>
        <time>2018-10-17T13:12:26Z</time>
      </trkpt>
      <trkpt lat="45.8194" lon="6.40569">
        <ele>1699</ele>
        <time>2018-10-17T13:12:27Z</time>
      </trkpt>
      <trkpt lat="45.8194" lon="6.40569">
        <ele>1699</ele>
        <time>2018-10-17T13:12:28Z</time>
      </trkpt>
      <trkpt lat="45.8194" lon="6.40569">
        <ele>1699</ele>
        <time>2018-10-17T13:12:29Z</time>
      </trkpt>
      <trkpt lat="45.8194" lon="6.40569">
        <ele>1699</ele>
        <time>2018-10-17T13:12:30Z</time>
      </trkpt>
      <trkpt lat="45.8194" lon="6.40569">
        <ele>1699</ele>
        <time>2018-10-17T13:12:31Z</time>
      </trkpt>
      <trkpt lat="45.8194" lon="6.40569">
        <ele>1699</ele>
        <time>2018-10-17T13:12:32Z</time>
      </trkpt>
      <trkpt lat="45.8194" lon="6.40569">
        <ele>1699</ele>
        <time>2018-10-17T13:12:33Z</time>
      </trkpt>
      <trkpt lat="45.8194" lon="6.40569">
        <ele>1699</ele>
        <time>2018-10-17T13:12:34Z</time>
      </trkpt>
      <trkpt lat="45.8194" lon="6.40569">
        <ele>1699</ele>
        <time>2018-10-17T13:12:35Z</time>
      </trkpt>
      <trkpt lat="45.8194" lon="6.40569">
        <ele>1699</ele>
        <time>2018-10-17T13:12:36Z</time>
      </trkpt>
      <trkpt lat="45.8194" lon="6.40569">
        <ele>1699</ele>
        <time>2018-10-17T13:12:37Z</time>
      </trkpt>
      <trkpt lat="45.8194" lon="6.40569">
        <ele>1699</ele>
        <time>2018-10-17T13:12:38Z</time>
      </trkpt>
      <trkpt lat="45.8194" lon="6.40569">
        <ele>1699</ele>
        <time>2018-10-17T13:12:39Z</time>
      </trkpt>
      <trkpt lat="45.8194" lon="6.40569">
        <ele>1699</ele>
        <time>2018-10-17T13:12:40Z</time>
      </trkpt>
      <trkpt lat="45.8194" lon="6.40569">
        <ele>1699</ele>
        <time>2018-10-17T13:12:41Z</time>
      </trkpt>
      <trkpt lat="45.8194" lon="6.40569">
        <ele>1699</ele>
        <time>2018-10-17T13:12:42Z</time>
      </trkpt>
      <trkpt lat="45.8194" lon="6.40569">
        <ele>1699</ele>
        <time>2018-10-17T13:12:43Z</time>
      </trkpt>
      <trkpt lat="45.8194" lon="6.40569">
        <ele>1699</ele>
        <time>2018-10-17T13:12:44Z</time>
      </trkpt>
      <trkpt lat="45.8194" lon="6.40569">
        <ele>1699</ele>
        <time>2018-10-17T13:12:45Z</time>
      </trkpt>
      <trkpt lat="45.8194" lon="6.40569">
        <ele>1699</ele>
        <time>2018-10-17T13:12:46Z</time>
      </trkpt>
      <trkpt lat="45.8194" lon="6.40569">
        <ele>1700</ele>
        <time>2018-10-17T13:12:47Z</time>
      </trkpt>
      <trkpt lat="45.8194" lon="6.40569">
        <ele>1699</ele>
        <time>2018-10-17T13:12:48Z</time>
      </trkpt>
      <trkpt lat="45.8194" lon="6.40569">
        <ele>1699</ele>
        <time>2018-10-17T13:12:49Z</time>
      </trkpt>
      <trkpt lat="45.8194" lon="6.40569">
        <ele>1699</ele>
        <time>2018-10-17T13:12:50Z</time>
      </trkpt>
      <trkpt lat="45.8194" lon="6.40569">
        <ele>1699</ele>
        <time>2018-10-17T13:12:51Z</time>
      </trkpt>
      <trkpt lat="45.8194" lon="6.40569">
        <ele>1699</ele>
        <time>2018-10-17T13:12:52Z</time>
      </trkpt>
      <trkpt lat="45.8194" lon="6.40569">
        <ele>1698</ele>
        <time>2018-10-17T13:12:53Z</time>
      </trkpt>
      <trkpt lat="45.8194" lon="6.40569">
        <ele>1698</ele>
        <time>2018-10-17T13:12:54Z</time>
      </trkpt>
      <trkpt lat="45.8194" lon="6.40569">
        <ele>1698</ele>
        <time>2018-10-17T13:12:55Z</time>
      </trkpt>
      <trkpt lat="45.8194" lon="6.40569">
        <ele>1698</ele>
        <time>2018-10-17T13:12:56Z</time>
      </trkpt>
      <trkpt lat="45.8194" lon="6.40569">
        <ele>1698</ele>
        <time>2018-10-17T13:12:57Z</time>
      </trkpt>
      <trkpt lat="45.8194" lon="6.40569">
        <ele>1698</ele>
        <time>2018-10-17T13:12:58Z</time>
      </trkpt>
      <trkpt lat="45.8194" lon="6.40569">
        <ele>1698</ele>
        <time>2018-10-17T13:12:59Z</time>
      </trkpt>
      <trkpt lat="45.8194" lon="6.40569">
        <ele>1698</ele>
        <time>2018-10-17T13:13:00Z</time>
      </trkpt>
      <trkpt lat="45.8194" lon="6.40569">
        <ele>1698</ele>
        <time>2018-10-17T13:13:01Z</time>
      </trkpt>
      <trkpt lat="45.8194" lon="6.40569">
        <ele>1698</ele>
        <time>2018-10-17T13:13:02Z</time>
      </trkpt>
      <trkpt lat="45.8194" lon="6.40569">
        <ele>1698</ele>
        <time>2018-10-17T13:13:03Z</time>
      </trkpt>
      <trkpt lat="45.8194" lon="6.40569">
        <ele>1698</ele>
        <time>2018-10-17T13:13:04Z</time>
      </trkpt>
      <trkpt lat="45.8194" lon="6.40569">
        <ele>1698</ele>
        <time>2018-10-17T13:13:05Z</time>
      </trkpt>
      <trkpt lat="45.8194" lon="6.40569">
        <ele>1698</ele>
        <time>2018-10-17T13:13:06Z</time>
      </trkpt>
      <trkpt lat="45.8194" lon="6.40569">
        <ele>1698</ele>
        <time>2018-10-17T13:13:07Z</time>
      </trkpt>
      <trkpt lat="45.8194" lon="6.40569">
        <ele>1698</ele>
        <time>2018-10-17T13:13:08Z</time>
      </trkpt>
      <trkpt lat="45.8194" lon="6.40569">
        <ele>1698</ele>
        <time>2018-10-17T13:13:09Z</time>
      </trkpt>
      <trkpt lat="45.8194" lon="6.40569">
        <ele>1698</ele>
        <time>2018-10-17T13:13:10Z</time>
      </trkpt>
      <trkpt lat="45.8194" lon="6.40569">
        <ele>1698</ele>
        <time>2018-10-17T13:13:11Z</time>
      </trkpt>
      <trkpt lat="45.8194" lon="6.40569">
        <ele>1698</ele>
        <time>2018-10-17T13:13:12Z</time>
      </trkpt>
      <trkpt lat="45.8194" lon="6.40569">
        <ele>1698</ele>
        <time>2018-10-17T13:13:13Z</time>
      </trkpt>
      <trkpt lat="45.8194" lon="6.40569">
        <ele>1698</ele>
        <time>2018-10-17T13:13:14Z</time>
      </trkpt>
      <trkpt lat="45.8194" lon="6.40569">
        <ele>1698</ele>
        <time>2018-10-17T13:13:15Z</time>
      </trkpt>
      <trkpt lat="45.8194" lon="6.40569">
        <ele>1698</ele>
        <time>2018-10-17T13:13:16Z</time>
      </trkpt>
      <trkpt lat="45.8194" lon="6.40569">
        <ele>1698</ele>
        <time>2018-10-17T13:13:17Z</time>
      </trkpt>
      <trkpt lat="45.8194" lon="6.40569">
        <ele>1697</ele>
        <time>2018-10-17T13:13:18Z</time>
      </trkpt>
      <trkpt lat="45.8194" lon="6.40569">
        <ele>1697</ele>
        <time>2018-10-17T13:13:19Z</time>
      </trkpt>
      <trkpt lat="45.8194" lon="6.40569">
        <ele>1697</ele>
        <time>2018-10-17T13:13:20Z</time>
      </trkpt>
      <trkpt lat="45.8194" lon="6.40569">
        <ele>1697</ele>
        <time>2018-10-17T13:13:21Z</time>
      </trkpt>
      <trkpt lat="45.8194" lon="6.40569">
        <ele>1697</ele>
        <time>2018-10-17T13:13:22Z</time>
      </trkpt>
      <trkpt lat="45.8194" lon="6.40569">
        <ele>1698</ele>
        <time>2018-10-17T13:13:23Z</time>
      </trkpt>
      <trkpt lat="45.8194" lon="6.40569">
        <ele>1698</ele>
        <time>2018-10-17T13:13:24Z</time>
      </trkpt>
      <trkpt lat="45.8194" lon="6.40569">
        <ele>1698</ele>
        <time>2018-10-17T13:13:25Z</time>
      </trkpt>
      <trkpt lat="45.8194" lon="6.40569">
        <ele>1698</ele>
        <time>2018-10-17T13:13:26Z</time>
      </trkpt>
      <trkpt lat="45.8194" lon="6.40569">
        <ele>1698</ele>
        <time>2018-10-17T13:13:27Z</time>
      </trkpt>
      <trkpt lat="45.8194" lon="6.40569">
        <ele>1698</ele>
        <time>2018-10-17T13:13:28Z</time>
      </trkpt>
      <trkpt lat="45.8194" lon="6.40569">
        <ele>1698</ele>
        <time>2018-10-17T13:13:29Z</time>
      </trkpt>
      <trkpt lat="45.8194" lon="6.40569">
        <ele>1698</ele>
        <time>2018-10-17T13:13:30Z</time>
      </trkpt>
      <trkpt lat="45.8194" lon="6.40569">
        <ele>1698</ele>
        <time>2018-10-17T13:13:31Z</time>
      </trkpt>
      <trkpt lat="45.8194" lon="6.40569">
        <ele>1698</ele>
        <time>2018-10-17T13:13:32Z</time>
      </trkpt>
      <trkpt lat="45.8194" lon="6.40569">
        <ele>1698</ele>
        <time>2018-10-17T13:13:33Z</time>
      </trkpt>
      <trkpt lat="45.8194" lon="6.40569">
        <ele>1690</ele>
        <time>2018-10-17T13:13:34Z</time>
      </trkpt>
      <trkpt lat="45.8194" lon="6.40569">
        <ele>1682</ele>
        <time>2018-10-17T13:13:35Z</time>
      </trkpt>
      <trkpt lat="45.8194" lon="6.40569">
        <ele>1686</ele>
        <time>2018-10-17T13:13:36Z</time>
      </trkpt>
      <trkpt lat="45.8194" lon="6.40569">
        <ele>1692</ele>
        <time>2018-10-17T13:13:37Z</time>
      </trkpt>
      <trkpt lat="45.8194" lon="6.40569">
        <ele>1695</ele>
        <time>2018-10-17T13:13:38Z</time>
      </trkpt>
      <trkpt lat="45.8194" lon="6.40567">
        <ele>1697</ele>
        <time>2018-10-17T13:13:39Z</time>
      </trkpt>
      <trkpt lat="45.8194" lon="6.40567">
        <ele>1697</ele>
        <time>2018-10-17T13:13:40Z</time>
      </trkpt>
      <trkpt lat="45.8194" lon="6.40567">
        <ele>1697</ele>
        <time>2018-10-17T13:13:41Z</time>
      </trkpt>
      <trkpt lat="45.81943" lon="6.40567">
        <ele>1698</ele>
        <time>2018-10-17T13:13:42Z</time>
      </trkpt>
      <trkpt lat="45.81943" lon="6.40567">
        <ele>1698</ele>
        <time>2018-10-17T13:13:43Z</time>
      </trkpt>
      <trkpt lat="45.81943" lon="6.40567">
        <ele>1698</ele>
        <time>2018-10-17T13:13:44Z</time>
      </trkpt>
      <trkpt lat="45.81944" lon="6.4057">
        <ele>1698</ele>
        <time>2018-10-17T13:13:45Z</time>
      </trkpt>
      <trkpt lat="45.81944" lon="6.4057">
        <ele>1698</ele>
        <time>2018-10-17T13:13:46Z</time>
      </trkpt>
      <trkpt lat="45.81944" lon="6.4057">
        <ele>1699</ele>
        <time>2018-10-17T13:13:47Z</time>
      </trkpt>
      <trkpt lat="45.81944" lon="6.4057">
        <ele>1699</ele>
        <time>2018-10-17T13:13:48Z</time>
      </trkpt>
      <trkpt lat="45.81944" lon="6.4057">
        <ele>1698</ele>
        <time>2018-10-17T13:13:49Z</time>
      </trkpt>
      <trkpt lat="45.81944" lon="6.4057">
        <ele>1698</ele>
        <time>2018-10-17T13:13:50Z</time>
      </trkpt>
      <trkpt lat="45.81944" lon="6.4057">
        <ele>1698</ele>
        <time>2018-10-17T13:13:51Z</time>
      </trkpt>
      <trkpt lat="45.81944" lon="6.4057">
        <ele>1698</ele>
        <time>2018-10-17T13:13:52Z</time>
      </trkpt>
      <trkpt lat="45.81944" lon="6.4057">
        <ele>1698</ele>
        <time>2018-10-17T13:13:53Z</time>
      </trkpt>
      <trkpt lat="45.81944" lon="6.4057">
        <ele>1698</ele>
        <time>2018-10-17T13:13:54Z</time>
      </trkpt>
      <trkpt lat="45.81944" lon="6.4057">
        <ele>1698</ele>
        <time>2018-10-17T13:13:55Z</time>
      </trkpt>
      <trkpt lat="45.81944" lon="6.4057">
        <ele>1698</ele>
        <time>2018-10-17T13:13:56Z</time>
      </trkpt>
      <trkpt lat="45.81944" lon="6.4057">
        <ele>1699</ele>
        <time>2018-10-17T13:13:57Z</time>
      </trkpt>
      <trkpt lat="45.81944" lon="6.4057">
        <ele>1699</ele>
        <time>2018-10-17T13:13:58Z</time>
      </trkpt>
      <trkpt lat="45.81944" lon="6.4057">
        <ele>1699</ele>
        <time>2018-10-17T13:13:59Z</time>
      </trkpt>
      <trkpt lat="45.81944" lon="6.4057">
        <ele>1699</ele>
        <time>2018-10-17T13:14:00Z</time>
      </trkpt>
      <trkpt lat="45.81944" lon="6.4057">
        <ele>1698</ele>
        <time>2018-10-17T13:14:01Z</time>
      </trkpt>
      <trkpt lat="45.81944" lon="6.4057">
        <ele>1698</ele>
        <time>2018-10-17T13:14:02Z</time>
      </trkpt>
      <trkpt lat="45.81944" lon="6.4057">
        <ele>1698</ele>
        <time>2018-10-17T13:14:03Z</time>
      </trkpt>
      <trkpt lat="45.81944" lon="6.4057">
        <ele>1698</ele>
        <time>2018-10-17T13:14:04Z</time>
      </trkpt>
      <trkpt lat="45.81944" lon="6.4057">
        <ele>1698</ele>
        <time>2018-10-17T13:14:05Z</time>
      </trkpt>
      <trkpt lat="45.81944" lon="6.4057">
        <ele>1698</ele>
        <time>2018-10-17T13:14:06Z</time>
      </trkpt>
      <trkpt lat="45.81944" lon="6.4057">
        <ele>1698</ele>
        <time>2018-10-17T13:14:07Z</time>
      </trkpt>
      <trkpt lat="45.81944" lon="6.4057">
        <ele>1698</ele>
        <time>2018-10-17T13:14:08Z</time>
      </trkpt>
      <trkpt lat="45.81944" lon="6.4057">
        <ele>1698</ele>
        <time>2018-10-17T13:14:09Z</time>
      </trkpt>
      <trkpt lat="45.81944" lon="6.4057">
        <ele>1698</ele>
        <time>2018-10-17T13:14:10Z</time>
      </trkpt>
      <trkpt lat="45.81944" lon="6.4057">
        <ele>1698</ele>
        <time>2018-10-17T13:14:11Z</time>
      </trkpt>
      <trkpt lat="45.81944" lon="6.4057">
        <ele>1698</ele>
        <time>2018-10-17T13:14:12Z</time>
      </trkpt>
      <trkpt lat="45.81944" lon="6.4057">
        <ele>1698</ele>
        <time>2018-10-17T13:14:13Z</time>
      </trkpt>
      <trkpt lat="45.81944" lon="6.4057">
        <ele>1698</ele>
        <time>2018-10-17T13:14:14Z</time>
      </trkpt>
      <trkpt lat="45.81944" lon="6.4057">
        <ele>1697</ele>
        <time>2018-10-17T13:14:15Z</time>
      </trkpt>
      <trkpt lat="45.81944" lon="6.4057">
        <ele>1697</ele>
        <time>2018-10-17T13:14:16Z</time>
      </trkpt>
      <trkpt lat="45.81944" lon="6.40573">
        <ele>1698</ele>
        <time>2018-10-17T13:14:17Z</time>
      </trkpt>
      <trkpt lat="45.81944" lon="6.40573">
        <ele>1698</ele>
        <time>2018-10-17T13:14:18Z</time>
      </trkpt>
      <trkpt lat="45.81944" lon="6.40573">
        <ele>1698</ele>
        <time>2018-10-17T13:14:19Z</time>
      </trkpt>
      <trkpt lat="45.81944" lon="6.40573">
        <ele>1698</ele>
        <time>2018-10-17T13:14:20Z</time>
      </trkpt>
      <trkpt lat="45.81944" lon="6.40573">
        <ele>1698</ele>
        <time>2018-10-17T13:14:21Z</time>
      </trkpt>
      <trkpt lat="45.81944" lon="6.40573">
        <ele>1698</ele>
        <time>2018-10-17T13:14:22Z</time>
      </trkpt>
      <trkpt lat="45.81944" lon="6.40573">
        <ele>1698</ele>
        <time>2018-10-17T13:14:23Z</time>
      </trkpt>
      <trkpt lat="45.81944" lon="6.40573">
        <ele>1698</ele>
        <time>2018-10-17T13:14:24Z</time>
      </trkpt>
      <trkpt lat="45.81945" lon="6.40575">
        <ele>1698</ele>
        <time>2018-10-17T13:14:25Z</time>
      </trkpt>
      <trkpt lat="45.81945" lon="6.40575">
        <ele>1698</ele>
        <time>2018-10-17T13:14:26Z</time>
      </trkpt>
      <trkpt lat="45.81946" lon="6.40578">
        <ele>1698</ele>
        <time>2018-10-17T13:14:27Z</time>
      </trkpt>
      <trkpt lat="45.81946" lon="6.40578">
        <ele>1698</ele>
        <time>2018-10-17T13:14:28Z</time>
      </trkpt>
      <trkpt lat="45.81947" lon="6.40581">
        <ele>1698</ele>
        <time>2018-10-17T13:14:29Z</time>
      </trkpt>
      <trkpt lat="45.81947" lon="6.40581">
        <ele>1698</ele>
        <time>2018-10-17T13:14:30Z</time>
      </trkpt>
      <trkpt lat="45.81947" lon="6.40584">
        <ele>1698</ele>
        <time>2018-10-17T13:14:31Z</time>
      </trkpt>
      <trkpt lat="45.81947" lon="6.40584">
        <ele>1698</ele>
        <time>2018-10-17T13:14:32Z</time>
      </trkpt>
      <trkpt lat="45.81948" lon="6.40587">
        <ele>1698</ele>
        <time>2018-10-17T13:14:33Z</time>
      </trkpt>
      <trkpt lat="45.81948" lon="6.40587">
        <ele>1698</ele>
        <time>2018-10-17T13:14:34Z</time>
      </trkpt>
      <trkpt lat="45.81949" lon="6.4059">
        <ele>1699</ele>
        <time>2018-10-17T13:14:35Z</time>
      </trkpt>
      <trkpt lat="45.81949" lon="6.4059">
        <ele>1699</ele>
        <time>2018-10-17T13:14:36Z</time>
      </trkpt>
      <trkpt lat="45.8195" lon="6.40593">
        <ele>1699</ele>
        <time>2018-10-17T13:14:37Z</time>
      </trkpt>
      <trkpt lat="45.8195" lon="6.40593">
        <ele>1699</ele>
        <time>2018-10-17T13:14:38Z</time>
      </trkpt>
      <trkpt lat="45.8195" lon="6.40597">
        <ele>1700</ele>
        <time>2018-10-17T13:14:39Z</time>
      </trkpt>
      <trkpt lat="45.8195" lon="6.40597">
        <ele>1700</ele>
        <time>2018-10-17T13:14:40Z</time>
      </trkpt>
      <trkpt lat="45.8195" lon="6.406">
        <ele>1700</ele>
        <time>2018-10-17T13:14:41Z</time>
      </trkpt>
      <trkpt lat="45.8195" lon="6.406">
        <ele>1700</ele>
        <time>2018-10-17T13:14:42Z</time>
      </trkpt>
      <trkpt lat="45.81951" lon="6.40603">
        <ele>1700</ele>
        <time>2018-10-17T13:14:43Z</time>
      </trkpt>
      <trkpt lat="45.81951" lon="6.40603">
        <ele>1701</ele>
        <time>2018-10-17T13:14:44Z</time>
      </trkpt>
      <trkpt lat="45.81952" lon="6.40605">
        <ele>1701</ele>
        <time>2018-10-17T13:14:45Z</time>
      </trkpt>
      <trkpt lat="45.81952" lon="6.40605">
        <ele>1701</ele>
        <time>2018-10-17T13:14:46Z</time>
      </trkpt>
      <trkpt lat="45.81952" lon="6.40608">
        <ele>1701</ele>
        <time>2018-10-17T13:14:47Z</time>
      </trkpt>
      <trkpt lat="45.81952" lon="6.40608">
        <ele>1701</ele>
        <time>2018-10-17T13:14:48Z</time>
      </trkpt>
      <trkpt lat="45.81953" lon="6.40611">
        <ele>1701</ele>
        <time>2018-10-17T13:14:49Z</time>
      </trkpt>
      <trkpt lat="45.81953" lon="6.40611">
        <ele>1701</ele>
        <time>2018-10-17T13:14:50Z</time>
      </trkpt>
      <trkpt lat="45.81953" lon="6.40614">
        <ele>1701</ele>
        <time>2018-10-17T13:14:51Z</time>
      </trkpt>
      <trkpt lat="45.81953" lon="6.40614">
        <ele>1701</ele>
        <time>2018-10-17T13:14:52Z</time>
      </trkpt>
      <trkpt lat="45.81953" lon="6.40617">
        <ele>1701</ele>
        <time>2018-10-17T13:14:53Z</time>
      </trkpt>
      <trkpt lat="45.81953" lon="6.40617">
        <ele>1701</ele>
        <time>2018-10-17T13:14:54Z</time>
      </trkpt>
      <trkpt lat="45.81954" lon="6.4062">
        <ele>1700</ele>
        <time>2018-10-17T13:14:55Z</time>
      </trkpt>
      <trkpt lat="45.81954" lon="6.4062">
        <ele>1700</ele>
        <time>2018-10-17T13:14:56Z</time>
      </trkpt>
      <trkpt lat="45.81955" lon="6.40623">
        <ele>1700</ele>
        <time>2018-10-17T13:14:57Z</time>
      </trkpt>
      <trkpt lat="45.81955" lon="6.40623">
        <ele>1700</ele>
        <time>2018-10-17T13:14:58Z</time>
      </trkpt>
      <trkpt lat="45.81955" lon="6.40627">
        <ele>1700</ele>
        <time>2018-10-17T13:14:59Z</time>
      </trkpt>
      <trkpt lat="45.81955" lon="6.40627">
        <ele>1700</ele>
        <time>2018-10-17T13:15:00Z</time>
      </trkpt>
      <trkpt lat="45.81955" lon="6.40627">
        <ele>1700</ele>
        <time>2018-10-17T13:15:01Z</time>
      </trkpt>
      <trkpt lat="45.81956" lon="6.4063">
        <ele>1701</ele>
        <time>2018-10-17T13:15:02Z</time>
      </trkpt>
      <trkpt lat="45.81956" lon="6.4063">
        <ele>1701</ele>
        <time>2018-10-17T13:15:03Z</time>
      </trkpt>
      <trkpt lat="45.81956" lon="6.40634">
        <ele>1701</ele>
        <time>2018-10-17T13:15:04Z</time>
      </trkpt>
      <trkpt lat="45.81956" lon="6.40634">
        <ele>1701</ele>
        <time>2018-10-17T13:15:05Z</time>
      </trkpt>
      <trkpt lat="45.81956" lon="6.40637">
        <ele>1702</ele>
        <time>2018-10-17T13:15:06Z</time>
      </trkpt>
      <trkpt lat="45.81956" lon="6.40637">
        <ele>1702</ele>
        <time>2018-10-17T13:15:07Z</time>
      </trkpt>
      <trkpt lat="45.81955" lon="6.4064">
        <ele>1702</ele>
        <time>2018-10-17T13:15:08Z</time>
      </trkpt>
      <trkpt lat="45.81955" lon="6.4064">
        <ele>1702</ele>
        <time>2018-10-17T13:15:09Z</time>
      </trkpt>
      <trkpt lat="45.81954" lon="6.40644">
        <ele>1702</ele>
        <time>2018-10-17T13:15:10Z</time>
      </trkpt>
      <trkpt lat="45.81954" lon="6.40644">
        <ele>1702</ele>
        <time>2018-10-17T13:15:11Z</time>
      </trkpt>
      <trkpt lat="45.81952" lon="6.40647">
        <ele>1702</ele>
        <time>2018-10-17T13:15:12Z</time>
      </trkpt>
      <trkpt lat="45.81952" lon="6.40647">
        <ele>1702</ele>
        <time>2018-10-17T13:15:13Z</time>
      </trkpt>
      <trkpt lat="45.8195" lon="6.4065">
        <ele>1702</ele>
        <time>2018-10-17T13:15:14Z</time>
      </trkpt>
      <trkpt lat="45.8195" lon="6.4065">
        <ele>1702</ele>
        <time>2018-10-17T13:15:15Z</time>
      </trkpt>
      <trkpt lat="45.81948" lon="6.40653">
        <ele>1701</ele>
        <time>2018-10-17T13:15:16Z</time>
      </trkpt>
      <trkpt lat="45.81948" lon="6.40653">
        <ele>1701</ele>
        <time>2018-10-17T13:15:17Z</time>
      </trkpt>
      <trkpt lat="45.81946" lon="6.40656">
        <ele>1701</ele>
        <time>2018-10-17T13:15:18Z</time>
      </trkpt>
      <trkpt lat="45.81946" lon="6.40656">
        <ele>1701</ele>
        <time>2018-10-17T13:15:19Z</time>
      </trkpt>
      <trkpt lat="45.81945" lon="6.40659">
        <ele>1701</ele>
        <time>2018-10-17T13:15:20Z</time>
      </trkpt>
      <trkpt lat="45.81945" lon="6.40659">
        <ele>1701</ele>
        <time>2018-10-17T13:15:21Z</time>
      </trkpt>
      <trkpt lat="45.81943" lon="6.40661">
        <ele>1701</ele>
        <time>2018-10-17T13:15:22Z</time>
      </trkpt>
      <trkpt lat="45.81943" lon="6.40661">
        <ele>1701</ele>
        <time>2018-10-17T13:15:23Z</time>
      </trkpt>
      <trkpt lat="45.81941" lon="6.40663">
        <ele>1700</ele>
        <time>2018-10-17T13:15:24Z</time>
      </trkpt>
      <trkpt lat="45.81941" lon="6.40663">
        <ele>1700</ele>
        <time>2018-10-17T13:15:25Z</time>
      </trkpt>
      <trkpt lat="45.81939" lon="6.40664">
        <ele>1700</ele>
        <time>2018-10-17T13:15:26Z</time>
      </trkpt>
      <trkpt lat="45.81939" lon="6.40664">
        <ele>1700</ele>
        <time>2018-10-17T13:15:27Z</time>
      </trkpt>
      <trkpt lat="45.81937" lon="6.40666">
        <ele>1700</ele>
        <time>2018-10-17T13:15:28Z</time>
      </trkpt>
      <trkpt lat="45.81937" lon="6.40666">
        <ele>1699</ele>
        <time>2018-10-17T13:15:29Z</time>
      </trkpt>
      <trkpt lat="45.81936" lon="6.40667">
        <ele>1699</ele>
        <time>2018-10-17T13:15:30Z</time>
      </trkpt>
      <trkpt lat="45.81936" lon="6.40667">
        <ele>1699</ele>
        <time>2018-10-17T13:15:31Z</time>
      </trkpt>
      <trkpt lat="45.81933" lon="6.40669">
        <ele>1699</ele>
        <time>2018-10-17T13:15:32Z</time>
      </trkpt>
      <trkpt lat="45.81933" lon="6.40669">
        <ele>1699</ele>
        <time>2018-10-17T13:15:33Z</time>
      </trkpt>
      <trkpt lat="45.81932" lon="6.40671">
        <ele>1699</ele>
        <time>2018-10-17T13:15:34Z</time>
      </trkpt>
      <trkpt lat="45.81932" lon="6.40671">
        <ele>1699</ele>
        <time>2018-10-17T13:15:35Z</time>
      </trkpt>
      <trkpt lat="45.81932" lon="6.40671">
        <ele>1698</ele>
        <time>2018-10-17T13:15:36Z</time>
      </trkpt>
      <trkpt lat="45.8193" lon="6.40674">
        <ele>1698</ele>
        <time>2018-10-17T13:15:37Z</time>
      </trkpt>
      <trkpt lat="45.8193" lon="6.40674">
        <ele>1697</ele>
        <time>2018-10-17T13:15:38Z</time>
      </trkpt>
      <trkpt lat="45.81929" lon="6.40675">
        <ele>1697</ele>
        <time>2018-10-17T13:15:39Z</time>
      </trkpt>
      <trkpt lat="45.81929" lon="6.40675">
        <ele>1697</ele>
        <time>2018-10-17T13:15:40Z</time>
      </trkpt>
      <trkpt lat="45.81927" lon="6.40678">
        <ele>1697</ele>
        <time>2018-10-17T13:15:41Z</time>
      </trkpt>
      <trkpt lat="45.81927" lon="6.40678">
        <ele>1696</ele>
        <time>2018-10-17T13:15:42Z</time>
      </trkpt>
      <trkpt lat="45.81925" lon="6.4068">
        <ele>1696</ele>
        <time>2018-10-17T13:15:43Z</time>
      </trkpt>
      <trkpt lat="45.81925" lon="6.4068">
        <ele>1696</ele>
        <time>2018-10-17T13:15:44Z</time>
      </trkpt>
      <trkpt lat="45.81924" lon="6.40683">
        <ele>1696</ele>
        <time>2018-10-17T13:15:45Z</time>
      </trkpt>
      <trkpt lat="45.81924" lon="6.40683">
        <ele>1696</ele>
        <time>2018-10-17T13:15:46Z</time>
      </trkpt>
      <trkpt lat="45.81922" lon="6.40686">
        <ele>1696</ele>
        <time>2018-10-17T13:15:47Z</time>
      </trkpt>
      <trkpt lat="45.81922" lon="6.40686">
        <ele>1696</ele>
        <time>2018-10-17T13:15:48Z</time>
      </trkpt>
      <trkpt lat="45.8192" lon="6.40688">
        <ele>1695</ele>
        <time>2018-10-17T13:15:49Z</time>
      </trkpt>
      <trkpt lat="45.8192" lon="6.40688">
        <ele>1695</ele>
        <time>2018-10-17T13:15:50Z</time>
      </trkpt>
      <trkpt lat="45.81917" lon="6.4069">
        <ele>1695</ele>
        <time>2018-10-17T13:15:51Z</time>
      </trkpt>
      <trkpt lat="45.81917" lon="6.4069">
        <ele>1695</ele>
        <time>2018-10-17T13:15:52Z</time>
      </trkpt>
      <trkpt lat="45.81915" lon="6.40691">
        <ele>1695</ele>
        <time>2018-10-17T13:15:53Z</time>
      </trkpt>
      <trkpt lat="45.81915" lon="6.40691">
        <ele>1694</ele>
        <time>2018-10-17T13:15:54Z</time>
      </trkpt>
      <trkpt lat="45.81913" lon="6.40693">
        <ele>1694</ele>
        <time>2018-10-17T13:15:55Z</time>
      </trkpt>
      <trkpt lat="45.81913" lon="6.40693">
        <ele>1694</ele>
        <time>2018-10-17T13:15:56Z</time>
      </trkpt>
      <trkpt lat="45.8191" lon="6.40695">
        <ele>1694</ele>
        <time>2018-10-17T13:15:57Z</time>
      </trkpt>
      <trkpt lat="45.8191" lon="6.40695">
        <ele>1694</ele>
        <time>2018-10-17T13:15:58Z</time>
      </trkpt>
      <trkpt lat="45.81908" lon="6.40698">
        <ele>1694</ele>
        <time>2018-10-17T13:15:59Z</time>
      </trkpt>
      <trkpt lat="45.81908" lon="6.40698">
        <ele>1694</ele>
        <time>2018-10-17T13:16:00Z</time>
      </trkpt>
      <trkpt lat="45.81906" lon="6.407">
        <ele>1694</ele>
        <time>2018-10-17T13:16:01Z</time>
      </trkpt>
      <trkpt lat="45.81906" lon="6.407">
        <ele>1694</ele>
        <time>2018-10-17T13:16:02Z</time>
      </trkpt>
      <trkpt lat="45.81903" lon="6.40703">
        <ele>1694</ele>
        <time>2018-10-17T13:16:03Z</time>
      </trkpt>
      <trkpt lat="45.81903" lon="6.40703">
        <ele>1694</ele>
        <time>2018-10-17T13:16:04Z</time>
      </trkpt>
      <trkpt lat="45.81901" lon="6.40705">
        <ele>1694</ele>
        <time>2018-10-17T13:16:05Z</time>
      </trkpt>
      <trkpt lat="45.81901" lon="6.40705">
        <ele>1694</ele>
        <time>2018-10-17T13:16:06Z</time>
      </trkpt>
      <trkpt lat="45.819" lon="6.40706">
        <ele>1694</ele>
        <time>2018-10-17T13:16:07Z</time>
      </trkpt>
      <trkpt lat="45.819" lon="6.40706">
        <ele>1694</ele>
        <time>2018-10-17T13:16:08Z</time>
      </trkpt>
      <trkpt lat="45.819" lon="6.40706">
        <ele>1694</ele>
        <time>2018-10-17T13:16:09Z</time>
      </trkpt>
      <trkpt lat="45.819" lon="6.40706">
        <ele>1694</ele>
        <time>2018-10-17T13:16:10Z</time>
      </trkpt>
      <trkpt lat="45.819" lon="6.40706">
        <ele>1694</ele>
        <time>2018-10-17T13:16:11Z</time>
      </trkpt>
      <trkpt lat="45.819" lon="6.40706">
        <ele>1694</ele>
        <time>2018-10-17T13:16:12Z</time>
      </trkpt>
      <trkpt lat="45.819" lon="6.40706">
        <ele>1694</ele>
        <time>2018-10-17T13:16:13Z</time>
      </trkpt>
      <trkpt lat="45.819" lon="6.4071">
        <ele>1693</ele>
        <time>2018-10-17T13:16:14Z</time>
      </trkpt>
      <trkpt lat="45.819" lon="6.4071">
        <ele>1693</ele>
        <time>2018-10-17T13:16:15Z</time>
      </trkpt>
      <trkpt lat="45.81898" lon="6.40712">
        <ele>1693</ele>
        <time>2018-10-17T13:16:16Z</time>
      </trkpt>
      <trkpt lat="45.81898" lon="6.40712">
        <ele>1693</ele>
        <time>2018-10-17T13:16:17Z</time>
      </trkpt>
      <trkpt lat="45.81896" lon="6.40714">
        <ele>1693</ele>
        <time>2018-10-17T13:16:18Z</time>
      </trkpt>
      <trkpt lat="45.81896" lon="6.40714">
        <ele>1692</ele>
        <time>2018-10-17T13:16:19Z</time>
      </trkpt>
      <trkpt lat="45.81896" lon="6.40714">
        <ele>1692</ele>
        <time>2018-10-17T13:16:20Z</time>
      </trkpt>
      <trkpt lat="45.81895" lon="6.40716">
        <ele>1692</ele>
        <time>2018-10-17T13:16:21Z</time>
      </trkpt>
      <trkpt lat="45.81895" lon="6.40716">
        <ele>1692</ele>
        <time>2018-10-17T13:16:22Z</time>
      </trkpt>
      <trkpt lat="45.81895" lon="6.40716">
        <ele>1691</ele>
        <time>2018-10-17T13:16:23Z</time>
      </trkpt>
      <trkpt lat="45.81896" lon="6.40718">
        <ele>1691</ele>
        <time>2018-10-17T13:16:24Z</time>
      </trkpt>
      <trkpt lat="45.81896" lon="6.40718">
        <ele>1691</ele>
        <time>2018-10-17T13:16:25Z</time>
      </trkpt>
      <trkpt lat="45.81896" lon="6.40718">
        <ele>1691</ele>
        <time>2018-10-17T13:16:26Z</time>
      </trkpt>
      <trkpt lat="45.81895" lon="6.40721">
        <ele>1690</ele>
        <time>2018-10-17T13:16:27Z</time>
      </trkpt>
      <trkpt lat="45.81895" lon="6.40721">
        <ele>1690</ele>
        <time>2018-10-17T13:16:28Z</time>
      </trkpt>
      <trkpt lat="45.81893" lon="6.40722">
        <ele>1689</ele>
        <time>2018-10-17T13:16:29Z</time>
      </trkpt>
      <trkpt lat="45.81893" lon="6.40722">
        <ele>1689</ele>
        <time>2018-10-17T13:16:30Z</time>
      </trkpt>
      <trkpt lat="45.81891" lon="6.40723">
        <ele>1689</ele>
        <time>2018-10-17T13:16:31Z</time>
      </trkpt>
      <trkpt lat="45.81891" lon="6.40723">
        <ele>1688</ele>
        <time>2018-10-17T13:16:32Z</time>
      </trkpt>
      <trkpt lat="45.81889" lon="6.40724">
        <ele>1687</ele>
        <time>2018-10-17T13:16:33Z</time>
      </trkpt>
      <trkpt lat="45.81889" lon="6.40724">
        <ele>1687</ele>
        <time>2018-10-17T13:16:34Z</time>
      </trkpt>
      <trkpt lat="45.81888" lon="6.40727">
        <ele>1686</ele>
        <time>2018-10-17T13:16:35Z</time>
      </trkpt>
      <trkpt lat="45.81888" lon="6.40727">
        <ele>1686</ele>
        <time>2018-10-17T13:16:36Z</time>
      </trkpt>
      <trkpt lat="45.81888" lon="6.40732">
        <ele>1685</ele>
        <time>2018-10-17T13:16:37Z</time>
      </trkpt>
      <trkpt lat="45.81888" lon="6.40732">
        <ele>1684</ele>
        <time>2018-10-17T13:16:38Z</time>
      </trkpt>
      <trkpt lat="45.81889" lon="6.40737">
        <ele>1684</ele>
        <time>2018-10-17T13:16:39Z</time>
      </trkpt>
      <trkpt lat="45.8189" lon="6.40739">
        <ele>1683</ele>
        <time>2018-10-17T13:16:40Z</time>
      </trkpt>
      <trkpt lat="45.8189" lon="6.40739">
        <ele>1682</ele>
        <time>2018-10-17T13:16:41Z</time>
      </trkpt>
      <trkpt lat="45.81891" lon="6.40743">
        <ele>1682</ele>
        <time>2018-10-17T13:16:42Z</time>
      </trkpt>
      <trkpt lat="45.81891" lon="6.40743">
        <ele>1682</ele>
        <time>2018-10-17T13:16:43Z</time>
      </trkpt>
      <trkpt lat="45.8189" lon="6.40746">
        <ele>1682</ele>
        <time>2018-10-17T13:16:44Z</time>
      </trkpt>
      <trkpt lat="45.8189" lon="6.40746">
        <ele>1682</ele>
        <time>2018-10-17T13:16:45Z</time>
      </trkpt>
      <trkpt lat="45.81887" lon="6.40748">
        <ele>1681</ele>
        <time>2018-10-17T13:16:46Z</time>
      </trkpt>
      <trkpt lat="45.81887" lon="6.40748">
        <ele>1681</ele>
        <time>2018-10-17T13:16:47Z</time>
      </trkpt>
      <trkpt lat="45.81886" lon="6.40751">
        <ele>1681</ele>
        <time>2018-10-17T13:16:48Z</time>
      </trkpt>
      <trkpt lat="45.81886" lon="6.40751">
        <ele>1681</ele>
        <time>2018-10-17T13:16:49Z</time>
      </trkpt>
      <trkpt lat="45.81886" lon="6.40753">
        <ele>1681</ele>
        <time>2018-10-17T13:16:50Z</time>
      </trkpt>
      <trkpt lat="45.81886" lon="6.40753">
        <ele>1681</ele>
        <time>2018-10-17T13:16:51Z</time>
      </trkpt>
      <trkpt lat="45.81887" lon="6.40756">
        <ele>1681</ele>
        <time>2018-10-17T13:16:52Z</time>
      </trkpt>
      <trkpt lat="45.81887" lon="6.40756">
        <ele>1680</ele>
        <time>2018-10-17T13:16:53Z</time>
      </trkpt>
      <trkpt lat="45.81889" lon="6.40759">
        <ele>1680</ele>
        <time>2018-10-17T13:16:54Z</time>
      </trkpt>
      <trkpt lat="45.81889" lon="6.40759">
        <ele>1680</ele>
        <time>2018-10-17T13:16:55Z</time>
      </trkpt>
      <trkpt lat="45.81889" lon="6.40759">
        <ele>1680</ele>
        <time>2018-10-17T13:16:56Z</time>
      </trkpt>
      <trkpt lat="45.81889" lon="6.40759">
        <ele>1680</ele>
        <time>2018-10-17T13:16:57Z</time>
      </trkpt>
      <trkpt lat="45.81889" lon="6.40759">
        <ele>1679</ele>
        <time>2018-10-17T13:16:58Z</time>
      </trkpt>
      <trkpt lat="45.81891" lon="6.4076">
        <ele>1679</ele>
        <time>2018-10-17T13:16:59Z</time>
      </trkpt>
      <trkpt lat="45.81891" lon="6.4076">
        <ele>1679</ele>
        <time>2018-10-17T13:17:00Z</time>
      </trkpt>
      <trkpt lat="45.81891" lon="6.4076">
        <ele>1679</ele>
        <time>2018-10-17T13:17:01Z</time>
      </trkpt>
      <trkpt lat="45.81891" lon="6.4076">
        <ele>1679</ele>
        <time>2018-10-17T13:17:02Z</time>
      </trkpt>
      <trkpt lat="45.81892" lon="6.40761">
        <ele>1678</ele>
        <time>2018-10-17T13:17:03Z</time>
      </trkpt>
      <trkpt lat="45.81892" lon="6.40761">
        <ele>1678</ele>
        <time>2018-10-17T13:17:04Z</time>
      </trkpt>
      <trkpt lat="45.81892" lon="6.40761">
        <ele>1678</ele>
        <time>2018-10-17T13:17:05Z</time>
      </trkpt>
      <trkpt lat="45.81892" lon="6.40761">
        <ele>1677</ele>
        <time>2018-10-17T13:17:06Z</time>
      </trkpt>
      <trkpt lat="45.81892" lon="6.40761">
        <ele>1677</ele>
        <time>2018-10-17T13:17:07Z</time>
      </trkpt>
      <trkpt lat="45.81893" lon="6.40763">
        <ele>1677</ele>
        <time>2018-10-17T13:17:08Z</time>
      </trkpt>
      <trkpt lat="45.81893" lon="6.40763">
        <ele>1677</ele>
        <time>2018-10-17T13:17:09Z</time>
      </trkpt>
      <trkpt lat="45.81893" lon="6.40763">
        <ele>1677</ele>
        <time>2018-10-17T13:17:10Z</time>
      </trkpt>
      <trkpt lat="45.81893" lon="6.40763">
        <ele>1677</ele>
        <time>2018-10-17T13:17:11Z</time>
      </trkpt>
      <trkpt lat="45.81893" lon="6.40763">
        <ele>1677</ele>
        <time>2018-10-17T13:17:12Z</time>
      </trkpt>
      <trkpt lat="45.81893" lon="6.40763">
        <ele>1677</ele>
        <time>2018-10-17T13:17:13Z</time>
      </trkpt>
      <trkpt lat="45.81893" lon="6.40763">
        <ele>1676</ele>
        <time>2018-10-17T13:17:14Z</time>
      </trkpt>
      <trkpt lat="45.81893" lon="6.40763">
        <ele>1676</ele>
        <time>2018-10-17T13:17:15Z</time>
      </trkpt>
      <trkpt lat="45.81893" lon="6.40763">
        <ele>1676</ele>
        <time>2018-10-17T13:17:16Z</time>
      </trkpt>
      <trkpt lat="45.81893" lon="6.40763">
        <ele>1676</ele>
        <time>2018-10-17T13:17:17Z</time>
      </trkpt>
      <trkpt lat="45.81893" lon="6.40766">
        <ele>1676</ele>
        <time>2018-10-17T13:17:18Z</time>
      </trkpt>
      <trkpt lat="45.81893" lon="6.40766">
        <ele>1676</ele>
        <time>2018-10-17T13:17:19Z</time>
      </trkpt>
      <trkpt lat="45.81892" lon="6.40769">
        <ele>1675</ele>
        <time>2018-10-17T13:17:20Z</time>
      </trkpt>
      <trkpt lat="45.81892" lon="6.40769">
        <ele>1675</ele>
        <time>2018-10-17T13:17:21Z</time>
      </trkpt>
      <trkpt lat="45.81891" lon="6.40772">
        <ele>1675</ele>
        <time>2018-10-17T13:17:22Z</time>
      </trkpt>
      <trkpt lat="45.81891" lon="6.40772">
        <ele>1675</ele>
        <time>2018-10-17T13:17:23Z</time>
      </trkpt>
      <trkpt lat="45.81891" lon="6.40774">
        <ele>1674</ele>
        <time>2018-10-17T13:17:24Z</time>
      </trkpt>
      <trkpt lat="45.81891" lon="6.40774">
        <ele>1674</ele>
        <time>2018-10-17T13:17:25Z</time>
      </trkpt>
      <trkpt lat="45.81891" lon="6.40774">
        <ele>1674</ele>
        <time>2018-10-17T13:17:26Z</time>
      </trkpt>
      <trkpt lat="45.81891" lon="6.40774">
        <ele>1673</ele>
        <time>2018-10-17T13:17:27Z</time>
      </trkpt>
      <trkpt lat="45.81893" lon="6.40772">
        <ele>1673</ele>
        <time>2018-10-17T13:17:28Z</time>
      </trkpt>
      <trkpt lat="45.81893" lon="6.40772">
        <ele>1672</ele>
        <time>2018-10-17T13:17:29Z</time>
      </trkpt>
      <trkpt lat="45.81895" lon="6.40771">
        <ele>1671</ele>
        <time>2018-10-17T13:17:30Z</time>
      </trkpt>
      <trkpt lat="45.81895" lon="6.40771">
        <ele>1671</ele>
        <time>2018-10-17T13:17:31Z</time>
      </trkpt>
      <trkpt lat="45.81896" lon="6.40772">
        <ele>1670</ele>
        <time>2018-10-17T13:17:32Z</time>
      </trkpt>
      <trkpt lat="45.81896" lon="6.40772">
        <ele>1670</ele>
        <time>2018-10-17T13:17:33Z</time>
      </trkpt>
      <trkpt lat="45.81896" lon="6.40772">
        <ele>1670</ele>
        <time>2018-10-17T13:17:34Z</time>
      </trkpt>
      <trkpt lat="45.81897" lon="6.40775">
        <ele>1669</ele>
        <time>2018-10-17T13:17:35Z</time>
      </trkpt>
      <trkpt lat="45.81897" lon="6.40775">
        <ele>1669</ele>
        <time>2018-10-17T13:17:36Z</time>
      </trkpt>
      <trkpt lat="45.81897" lon="6.40775">
        <ele>1668</ele>
        <time>2018-10-17T13:17:37Z</time>
      </trkpt>
      <trkpt lat="45.81898" lon="6.40778">
        <ele>1668</ele>
        <time>2018-10-17T13:17:38Z</time>
      </trkpt>
      <trkpt lat="45.81898" lon="6.40778">
        <ele>1668</ele>
        <time>2018-10-17T13:17:39Z</time>
      </trkpt>
      <trkpt lat="45.81898" lon="6.40778">
        <ele>1668</ele>
        <time>2018-10-17T13:17:40Z</time>
      </trkpt>
      <trkpt lat="45.819" lon="6.4078">
        <ele>1667</ele>
        <time>2018-10-17T13:17:41Z</time>
      </trkpt>
      <trkpt lat="45.819" lon="6.4078">
        <ele>1666</ele>
        <time>2018-10-17T13:17:42Z</time>
      </trkpt>
      <trkpt lat="45.81901" lon="6.40778">
        <ele>1666</ele>
        <time>2018-10-17T13:17:43Z</time>
      </trkpt>
      <trkpt lat="45.81901" lon="6.40778">
        <ele>1665</ele>
        <time>2018-10-17T13:17:44Z</time>
      </trkpt>
      <trkpt lat="45.81902" lon="6.40775">
        <ele>1665</ele>
        <time>2018-10-17T13:17:45Z</time>
      </trkpt>
      <trkpt lat="45.81902" lon="6.40775">
        <ele>1665</ele>
        <time>2018-10-17T13:17:46Z</time>
      </trkpt>
      <trkpt lat="45.81904" lon="6.40773">
        <ele>1665</ele>
        <time>2018-10-17T13:17:47Z</time>
      </trkpt>
      <trkpt lat="45.81904" lon="6.40773">
        <ele>1664</ele>
        <time>2018-10-17T13:17:48Z</time>
      </trkpt>
      <trkpt lat="45.81904" lon="6.40773">
        <ele>1664</ele>
        <time>2018-10-17T13:17:49Z</time>
      </trkpt>
      <trkpt lat="45.81904" lon="6.40773">
        <ele>1664</ele>
        <time>2018-10-17T13:17:50Z</time>
      </trkpt>
      <trkpt lat="45.81905" lon="6.40775">
        <ele>1663</ele>
        <time>2018-10-17T13:17:51Z</time>
      </trkpt>
      <trkpt lat="45.81905" lon="6.40775">
        <ele>1662</ele>
        <time>2018-10-17T13:17:52Z</time>
      </trkpt>
      <trkpt lat="45.81905" lon="6.40775">
        <ele>1662</ele>
        <time>2018-10-17T13:17:53Z</time>
      </trkpt>
      <trkpt lat="45.81906" lon="6.40779">
        <ele>1661</ele>
        <time>2018-10-17T13:17:54Z</time>
      </trkpt>
      <trkpt lat="45.81906" lon="6.40779">
        <ele>1661</ele>
        <time>2018-10-17T13:17:55Z</time>
      </trkpt>
      <trkpt lat="45.81906" lon="6.40782">
        <ele>1660</ele>
        <time>2018-10-17T13:17:56Z</time>
      </trkpt>
      <trkpt lat="45.81906" lon="6.40782">
        <ele>1660</ele>
        <time>2018-10-17T13:17:57Z</time>
      </trkpt>
      <trkpt lat="45.81906" lon="6.40786">
        <ele>1660</ele>
        <time>2018-10-17T13:17:58Z</time>
      </trkpt>
      <trkpt lat="45.81906" lon="6.40786">
        <ele>1660</ele>
        <time>2018-10-17T13:17:59Z</time>
      </trkpt>
      <trkpt lat="45.81906" lon="6.40789">
        <ele>1660</ele>
        <time>2018-10-17T13:18:00Z</time>
      </trkpt>
      <trkpt lat="45.81906" lon="6.40789">
        <ele>1658</ele>
        <time>2018-10-17T13:18:01Z</time>
      </trkpt>
      <trkpt lat="45.81906" lon="6.40789">
        <ele>1658</ele>
        <time>2018-10-17T13:18:02Z</time>
      </trkpt>
      <trkpt lat="45.81906" lon="6.40789">
        <ele>1658</ele>
        <time>2018-10-17T13:18:03Z</time>
      </trkpt>
      <trkpt lat="45.81906" lon="6.40789">
        <ele>1657</ele>
        <time>2018-10-17T13:18:04Z</time>
      </trkpt>
      <trkpt lat="45.81908" lon="6.40786">
        <ele>1656</ele>
        <time>2018-10-17T13:18:05Z</time>
      </trkpt>
      <trkpt lat="45.81908" lon="6.40786">
        <ele>1656</ele>
        <time>2018-10-17T13:18:06Z</time>
      </trkpt>
      <trkpt lat="45.81909" lon="6.40784">
        <ele>1656</ele>
        <time>2018-10-17T13:18:07Z</time>
      </trkpt>
      <trkpt lat="45.81909" lon="6.40784">
        <ele>1656</ele>
        <time>2018-10-17T13:18:08Z</time>
      </trkpt>
      <trkpt lat="45.81909" lon="6.40784">
        <ele>1656</ele>
        <time>2018-10-17T13:18:09Z</time>
      </trkpt>
      <trkpt lat="45.8191" lon="6.40781">
        <ele>1656</ele>
        <time>2018-10-17T13:18:10Z</time>
      </trkpt>
      <trkpt lat="45.8191" lon="6.40781">
        <ele>1656</ele>
        <time>2018-10-17T13:18:11Z</time>
      </trkpt>
      <trkpt lat="45.8191" lon="6.40781">
        <ele>1656</ele>
        <time>2018-10-17T13:18:12Z</time>
      </trkpt>
      <trkpt lat="45.8191" lon="6.40781">
        <ele>1655</ele>
        <time>2018-10-17T13:18:13Z</time>
      </trkpt>
      <trkpt lat="45.8191" lon="6.40781">
        <ele>1655</ele>
        <time>2018-10-17T13:18:14Z</time>
      </trkpt>
      <trkpt lat="45.81912" lon="6.4078">
        <ele>1655</ele>
        <time>2018-10-17T13:18:15Z</time>
      </trkpt>
      <trkpt lat="45.81912" lon="6.4078">
        <ele>1655</ele>
        <time>2018-10-17T13:18:16Z</time>
      </trkpt>
      <trkpt lat="45.81912" lon="6.4078">
        <ele>1655</ele>
        <time>2018-10-17T13:18:17Z</time>
      </trkpt>
      <trkpt lat="45.81911" lon="6.40782">
        <ele>1655</ele>
        <time>2018-10-17T13:18:18Z</time>
      </trkpt>
      <trkpt lat="45.81911" lon="6.40782">
        <ele>1655</ele>
        <time>2018-10-17T13:18:19Z</time>
      </trkpt>
      <trkpt lat="45.81911" lon="6.40782">
        <ele>1654</ele>
        <time>2018-10-17T13:18:20Z</time>
      </trkpt>
      <trkpt lat="45.81911" lon="6.40786">
        <ele>1653</ele>
        <time>2018-10-17T13:18:21Z</time>
      </trkpt>
      <trkpt lat="45.81911" lon="6.40786">
        <ele>1652</ele>
        <time>2018-10-17T13:18:22Z</time>
      </trkpt>
      <trkpt lat="45.81911" lon="6.40786">
        <ele>1652</ele>
        <time>2018-10-17T13:18:23Z</time>
      </trkpt>
      <trkpt lat="45.81913" lon="6.40788">
        <ele>1652</ele>
        <time>2018-10-17T13:18:24Z</time>
      </trkpt>
      <trkpt lat="45.81913" lon="6.40788">
        <ele>1652</ele>
        <time>2018-10-17T13:18:25Z</time>
      </trkpt>
      <trkpt lat="45.81913" lon="6.40788">
        <ele>1651</ele>
        <time>2018-10-17T13:18:26Z</time>
      </trkpt>
      <trkpt lat="45.81915" lon="6.40787">
        <ele>1651</ele>
        <time>2018-10-17T13:18:27Z</time>
      </trkpt>
      <trkpt lat="45.81915" lon="6.40787">
        <ele>1650</ele>
        <time>2018-10-17T13:18:28Z</time>
      </trkpt>
      <trkpt lat="45.81915" lon="6.40787">
        <ele>1650</ele>
        <time>2018-10-17T13:18:29Z</time>
      </trkpt>
      <trkpt lat="45.81916" lon="6.40784">
        <ele>1649</ele>
        <time>2018-10-17T13:18:30Z</time>
      </trkpt>
      <trkpt lat="45.81916" lon="6.40784">
        <ele>1649</ele>
        <time>2018-10-17T13:18:31Z</time>
      </trkpt>
      <trkpt lat="45.81917" lon="6.40781">
        <ele>1649</ele>
        <time>2018-10-17T13:18:32Z</time>
      </trkpt>
      <trkpt lat="45.81917" lon="6.40781">
        <ele>1649</ele>
        <time>2018-10-17T13:18:33Z</time>
      </trkpt>
      <trkpt lat="45.81918" lon="6.40779">
        <ele>1649</ele>
        <time>2018-10-17T13:18:34Z</time>
      </trkpt>
      <trkpt lat="45.81918" lon="6.40779">
        <ele>1649</ele>
        <time>2018-10-17T13:18:35Z</time>
      </trkpt>
      <trkpt lat="45.8192" lon="6.40776">
        <ele>1648</ele>
        <time>2018-10-17T13:18:36Z</time>
      </trkpt>
      <trkpt lat="45.8192" lon="6.40776">
        <ele>1647</ele>
        <time>2018-10-17T13:18:37Z</time>
      </trkpt>
      <trkpt lat="45.8192" lon="6.40776">
        <ele>1647</ele>
        <time>2018-10-17T13:18:38Z</time>
      </trkpt>
      <trkpt lat="45.8192" lon="6.40776">
        <ele>1647</ele>
        <time>2018-10-17T13:18:39Z</time>
      </trkpt>
      <trkpt lat="45.8192" lon="6.40776">
        <ele>1647</ele>
        <time>2018-10-17T13:18:40Z</time>
      </trkpt>
      <trkpt lat="45.8192" lon="6.40776">
        <ele>1647</ele>
        <time>2018-10-17T13:18:41Z</time>
      </trkpt>
      <trkpt lat="45.8192" lon="6.40776">
        <ele>1647</ele>
        <time>2018-10-17T13:18:42Z</time>
      </trkpt>
      <trkpt lat="45.8192" lon="6.40776">
        <ele>1647</ele>
        <time>2018-10-17T13:18:43Z</time>
      </trkpt>
      <trkpt lat="45.8192" lon="6.40776">
        <ele>1647</ele>
        <time>2018-10-17T13:18:44Z</time>
      </trkpt>
      <trkpt lat="45.8192" lon="6.40776">
        <ele>1647</ele>
        <time>2018-10-17T13:18:45Z</time>
      </trkpt>
      <trkpt lat="45.8192" lon="6.40776">
        <ele>1647</ele>
        <time>2018-10-17T13:18:46Z</time>
      </trkpt>
      <trkpt lat="45.8192" lon="6.40776">
        <ele>1647</ele>
        <time>2018-10-17T13:18:47Z</time>
      </trkpt>
      <trkpt lat="45.8192" lon="6.40776">
        <ele>1647</ele>
        <time>2018-10-17T13:18:48Z</time>
      </trkpt>
      <trkpt lat="45.8192" lon="6.40776">
        <ele>1647</ele>
        <time>2018-10-17T13:18:49Z</time>
      </trkpt>
      <trkpt lat="45.8192" lon="6.40776">
        <ele>1647</ele>
        <time>2018-10-17T13:18:50Z</time>
      </trkpt>
      <trkpt lat="45.8192" lon="6.40776">
        <ele>1647</ele>
        <time>2018-10-17T13:18:51Z</time>
      </trkpt>
      <trkpt lat="45.8192" lon="6.40776">
        <ele>1647</ele>
        <time>2018-10-17T13:18:52Z</time>
      </trkpt>
      <trkpt lat="45.8192" lon="6.40776">
        <ele>1647</ele>
        <time>2018-10-17T13:18:53Z</time>
      </trkpt>
      <trkpt lat="45.8192" lon="6.40776">
        <ele>1647</ele>
        <time>2018-10-17T13:18:54Z</time>
      </trkpt>
      <trkpt lat="45.8192" lon="6.40776">
        <ele>1647</ele>
        <time>2018-10-17T13:18:55Z</time>
      </trkpt>
      <trkpt lat="45.8192" lon="6.40776">
        <ele>1647</ele>
        <time>2018-10-17T13:18:56Z</time>
      </trkpt>
      <trkpt lat="45.8192" lon="6.40776">
        <ele>1647</ele>
        <time>2018-10-17T13:18:57Z</time>
      </trkpt>
      <trkpt lat="45.8192" lon="6.40776">
        <ele>1646</ele>
        <time>2018-10-17T13:18:58Z</time>
      </trkpt>
      <trkpt lat="45.8192" lon="6.40776">
        <ele>1646</ele>
        <time>2018-10-17T13:18:59Z</time>
      </trkpt>
      <trkpt lat="45.8192" lon="6.40776">
        <ele>1645</ele>
        <time>2018-10-17T13:19:00Z</time>
      </trkpt>
      <trkpt lat="45.8192" lon="6.40776">
        <ele>1645</ele>
        <time>2018-10-17T13:19:01Z</time>
      </trkpt>
      <trkpt lat="45.81921" lon="6.40778">
        <ele>1645</ele>
        <time>2018-10-17T13:19:02Z</time>
      </trkpt>
      <trkpt lat="45.81921" lon="6.40778">
        <ele>1645</ele>
        <time>2018-10-17T13:19:03Z</time>
      </trkpt>
      <trkpt lat="45.81921" lon="6.40778">
        <ele>1645</ele>
        <time>2018-10-17T13:19:04Z</time>
      </trkpt>
      <trkpt lat="45.81921" lon="6.40778">
        <ele>1644</ele>
        <time>2018-10-17T13:19:05Z</time>
      </trkpt>
      <trkpt lat="45.81921" lon="6.40778">
        <ele>1644</ele>
        <time>2018-10-17T13:19:06Z</time>
      </trkpt>
      <trkpt lat="45.81922" lon="6.4078">
        <ele>1644</ele>
        <time>2018-10-17T13:19:07Z</time>
      </trkpt>
      <trkpt lat="45.81922" lon="6.4078">
        <ele>1644</ele>
        <time>2018-10-17T13:19:08Z</time>
      </trkpt>
      <trkpt lat="45.81922" lon="6.4078">
        <ele>1643</ele>
        <time>2018-10-17T13:19:09Z</time>
      </trkpt>
      <trkpt lat="45.81924" lon="6.4078">
        <ele>1643</ele>
        <time>2018-10-17T13:19:10Z</time>
      </trkpt>
      <trkpt lat="45.81924" lon="6.4078">
        <ele>1643</ele>
        <time>2018-10-17T13:19:11Z</time>
      </trkpt>
      <trkpt lat="45.81924" lon="6.4078">
        <ele>1642</ele>
        <time>2018-10-17T13:19:12Z</time>
      </trkpt>
      <trkpt lat="45.81924" lon="6.4078">
        <ele>1642</ele>
        <time>2018-10-17T13:19:13Z</time>
      </trkpt>
      <trkpt lat="45.81925" lon="6.40783">
        <ele>1642</ele>
        <time>2018-10-17T13:19:14Z</time>
      </trkpt>
      <trkpt lat="45.81925" lon="6.40783">
        <ele>1642</ele>
        <time>2018-10-17T13:19:15Z</time>
      </trkpt>
      <trkpt lat="45.81923" lon="6.40785">
        <ele>1641</ele>
        <time>2018-10-17T13:19:16Z</time>
      </trkpt>
      <trkpt lat="45.81923" lon="6.40785">
        <ele>1640</ele>
        <time>2018-10-17T13:19:17Z</time>
      </trkpt>
      <trkpt lat="45.81922" lon="6.40789">
        <ele>1640</ele>
        <time>2018-10-17T13:19:18Z</time>
      </trkpt>
      <trkpt lat="45.81922" lon="6.40789">
        <ele>1640</ele>
        <time>2018-10-17T13:19:19Z</time>
      </trkpt>
      <trkpt lat="45.81922" lon="6.40793">
        <ele>1639</ele>
        <time>2018-10-17T13:19:20Z</time>
      </trkpt>
      <trkpt lat="45.81922" lon="6.40796">
        <ele>1638</ele>
        <time>2018-10-17T13:19:21Z</time>
      </trkpt>
      <trkpt lat="45.81922" lon="6.40796">
        <ele>1638</ele>
        <time>2018-10-17T13:19:22Z</time>
      </trkpt>
      <trkpt lat="45.81922" lon="6.40796">
        <ele>1637</ele>
        <time>2018-10-17T13:19:23Z</time>
      </trkpt>
      <trkpt lat="45.81921" lon="6.408">
        <ele>1637</ele>
        <time>2018-10-17T13:19:24Z</time>
      </trkpt>
      <trkpt lat="45.81921" lon="6.408">
        <ele>1636</ele>
        <time>2018-10-17T13:19:25Z</time>
      </trkpt>
      <trkpt lat="45.81921" lon="6.40803">
        <ele>1635</ele>
        <time>2018-10-17T13:19:26Z</time>
      </trkpt>
      <trkpt lat="45.81921" lon="6.40803">
        <ele>1634</ele>
        <time>2018-10-17T13:19:27Z</time>
      </trkpt>
      <trkpt lat="45.81921" lon="6.40803">
        <ele>1634</ele>
        <time>2018-10-17T13:19:28Z</time>
      </trkpt>
      <trkpt lat="45.81921" lon="6.40803">
        <ele>1633</ele>
        <time>2018-10-17T13:19:29Z</time>
      </trkpt>
      <trkpt lat="45.81922" lon="6.40806">
        <ele>1632</ele>
        <time>2018-10-17T13:19:30Z</time>
      </trkpt>
      <trkpt lat="45.81922" lon="6.40806">
        <ele>1632</ele>
        <time>2018-10-17T13:19:31Z</time>
      </trkpt>
      <trkpt lat="45.81922" lon="6.40809">
        <ele>1632</ele>
        <time>2018-10-17T13:19:32Z</time>
      </trkpt>
      <trkpt lat="45.81921" lon="6.40811">
        <ele>1632</ele>
        <time>2018-10-17T13:19:33Z</time>
      </trkpt>
      <trkpt lat="45.81921" lon="6.40813">
        <ele>1631</ele>
        <time>2018-10-17T13:19:34Z</time>
      </trkpt>
      <trkpt lat="45.8192" lon="6.40814">
        <ele>1631</ele>
        <time>2018-10-17T13:19:35Z</time>
      </trkpt>
      <trkpt lat="45.8192" lon="6.40816">
        <ele>1630</ele>
        <time>2018-10-17T13:19:36Z</time>
      </trkpt>
      <trkpt lat="45.81917" lon="6.40826">
        <ele>1629</ele>
        <time>2018-10-17T13:19:37Z</time>
      </trkpt>
      <trkpt lat="45.81917" lon="6.40829">
        <ele>1628</ele>
        <time>2018-10-17T13:19:38Z</time>
      </trkpt>
      <trkpt lat="45.81917" lon="6.40833">
        <ele>1627</ele>
        <time>2018-10-17T13:19:39Z</time>
      </trkpt>
      <trkpt lat="45.81917" lon="6.40836">
        <ele>1626</ele>
        <time>2018-10-17T13:19:40Z</time>
      </trkpt>
      <trkpt lat="45.81916" lon="6.40839">
        <ele>1626</ele>
        <time>2018-10-17T13:19:41Z</time>
      </trkpt>
      <trkpt lat="45.81916" lon="6.40842">
        <ele>1625</ele>
        <time>2018-10-17T13:19:42Z</time>
      </trkpt>
      <trkpt lat="45.81916" lon="6.40844">
        <ele>1625</ele>
        <time>2018-10-17T13:19:43Z</time>
      </trkpt>
      <trkpt lat="45.81916" lon="6.40844">
        <ele>1624</ele>
        <time>2018-10-17T13:19:44Z</time>
      </trkpt>
      <trkpt lat="45.81916" lon="6.40848">
        <ele>1624</ele>
        <time>2018-10-17T13:19:45Z</time>
      </trkpt>
      <trkpt lat="45.81915" lon="6.40849">
        <ele>1624</ele>
        <time>2018-10-17T13:19:46Z</time>
      </trkpt>
      <trkpt lat="45.81914" lon="6.4085">
        <ele>1624</ele>
        <time>2018-10-17T13:19:47Z</time>
      </trkpt>
      <trkpt lat="45.81912" lon="6.40851">
        <ele>1624</ele>
        <time>2018-10-17T13:19:48Z</time>
      </trkpt>
      <trkpt lat="45.81912" lon="6.40851">
        <ele>1623</ele>
        <time>2018-10-17T13:19:49Z</time>
      </trkpt>
      <trkpt lat="45.81912" lon="6.40851">
        <ele>1623</ele>
        <time>2018-10-17T13:19:50Z</time>
      </trkpt>
      <trkpt lat="45.81912" lon="6.40851">
        <ele>1622</ele>
        <time>2018-10-17T13:19:51Z</time>
      </trkpt>
      <trkpt lat="45.81907" lon="6.40848">
        <ele>1622</ele>
        <time>2018-10-17T13:19:52Z</time>
      </trkpt>
      <trkpt lat="45.81907" lon="6.40848">
        <ele>1622</ele>
        <time>2018-10-17T13:19:53Z</time>
      </trkpt>
      <trkpt lat="45.81907" lon="6.40848">
        <ele>1622</ele>
        <time>2018-10-17T13:19:54Z</time>
      </trkpt>
      <trkpt lat="45.81903" lon="6.40845">
        <ele>1622</ele>
        <time>2018-10-17T13:19:55Z</time>
      </trkpt>
      <trkpt lat="45.81903" lon="6.40845">
        <ele>1622</ele>
        <time>2018-10-17T13:19:56Z</time>
      </trkpt>
      <trkpt lat="45.81903" lon="6.40845">
        <ele>1621</ele>
        <time>2018-10-17T13:19:57Z</time>
      </trkpt>
      <trkpt lat="45.81902" lon="6.40847">
        <ele>1621</ele>
        <time>2018-10-17T13:19:58Z</time>
      </trkpt>
      <trkpt lat="45.81902" lon="6.40847">
        <ele>1620</ele>
        <time>2018-10-17T13:19:59Z</time>
      </trkpt>
      <trkpt lat="45.81902" lon="6.40851">
        <ele>1620</ele>
        <time>2018-10-17T13:20:00Z</time>
      </trkpt>
      <trkpt lat="45.81902" lon="6.40851">
        <ele>1618</ele>
        <time>2018-10-17T13:20:01Z</time>
      </trkpt>
      <trkpt lat="45.81901" lon="6.40854">
        <ele>1618</ele>
        <time>2018-10-17T13:20:02Z</time>
      </trkpt>
      <trkpt lat="45.81901" lon="6.40854">
        <ele>1618</ele>
        <time>2018-10-17T13:20:03Z</time>
      </trkpt>
      <trkpt lat="45.81901" lon="6.40859">
        <ele>1617</ele>
        <time>2018-10-17T13:20:04Z</time>
      </trkpt>
      <trkpt lat="45.81901" lon="6.40859">
        <ele>1616</ele>
        <time>2018-10-17T13:20:05Z</time>
      </trkpt>
      <trkpt lat="45.819" lon="6.40863">
        <ele>1616</ele>
        <time>2018-10-17T13:20:06Z</time>
      </trkpt>
      <trkpt lat="45.819" lon="6.40863">
        <ele>1615</ele>
        <time>2018-10-17T13:20:07Z</time>
      </trkpt>
      <trkpt lat="45.81901" lon="6.40866">
        <ele>1614</ele>
        <time>2018-10-17T13:20:08Z</time>
      </trkpt>
      <trkpt lat="45.81901" lon="6.40866">
        <ele>1613</ele>
        <time>2018-10-17T13:20:09Z</time>
      </trkpt>
      <trkpt lat="45.81902" lon="6.40869">
        <ele>1612</ele>
        <time>2018-10-17T13:20:10Z</time>
      </trkpt>
      <trkpt lat="45.81902" lon="6.40869">
        <ele>1612</ele>
        <time>2018-10-17T13:20:11Z</time>
      </trkpt>
      <trkpt lat="45.81902" lon="6.40873">
        <ele>1612</ele>
        <time>2018-10-17T13:20:12Z</time>
      </trkpt>
      <trkpt lat="45.81902" lon="6.40873">
        <ele>1611</ele>
        <time>2018-10-17T13:20:13Z</time>
      </trkpt>
      <trkpt lat="45.81902" lon="6.40873">
        <ele>1611</ele>
        <time>2018-10-17T13:20:14Z</time>
      </trkpt>
      <trkpt lat="45.81901" lon="6.40877">
        <ele>1610</ele>
        <time>2018-10-17T13:20:15Z</time>
      </trkpt>
      <trkpt lat="45.81901" lon="6.40877">
        <ele>1609</ele>
        <time>2018-10-17T13:20:16Z</time>
      </trkpt>
      <trkpt lat="45.81899" lon="6.40878">
        <ele>1608</ele>
        <time>2018-10-17T13:20:17Z</time>
      </trkpt>
      <trkpt lat="45.81899" lon="6.40878">
        <ele>1607</ele>
        <time>2018-10-17T13:20:18Z</time>
      </trkpt>
      <trkpt lat="45.81895" lon="6.40877">
        <ele>1607</ele>
        <time>2018-10-17T13:20:19Z</time>
      </trkpt>
      <trkpt lat="45.81895" lon="6.40877">
        <ele>1607</ele>
        <time>2018-10-17T13:20:20Z</time>
      </trkpt>
      <trkpt lat="45.81895" lon="6.40877">
        <ele>1607</ele>
        <time>2018-10-17T13:20:21Z</time>
      </trkpt>
      <trkpt lat="45.81895" lon="6.40881">
        <ele>1607</ele>
        <time>2018-10-17T13:20:22Z</time>
      </trkpt>
      <trkpt lat="45.81895" lon="6.40881">
        <ele>1607</ele>
        <time>2018-10-17T13:20:23Z</time>
      </trkpt>
      <trkpt lat="45.81895" lon="6.40884">
        <ele>1607</ele>
        <time>2018-10-17T13:20:24Z</time>
      </trkpt>
      <trkpt lat="45.81895" lon="6.40884">
        <ele>1607</ele>
        <time>2018-10-17T13:20:25Z</time>
      </trkpt>
      <trkpt lat="45.81897" lon="6.40887">
        <ele>1607</ele>
        <time>2018-10-17T13:20:26Z</time>
      </trkpt>
      <trkpt lat="45.81897" lon="6.40887">
        <ele>1606</ele>
        <time>2018-10-17T13:20:27Z</time>
      </trkpt>
      <trkpt lat="45.81898" lon="6.40891">
        <ele>1606</ele>
        <time>2018-10-17T13:20:28Z</time>
      </trkpt>
      <trkpt lat="45.81898" lon="6.40891">
        <ele>1605</ele>
        <time>2018-10-17T13:20:29Z</time>
      </trkpt>
      <trkpt lat="45.81898" lon="6.40891">
        <ele>1605</ele>
        <time>2018-10-17T13:20:30Z</time>
      </trkpt>
      <trkpt lat="45.81899" lon="6.40894">
        <ele>1605</ele>
        <time>2018-10-17T13:20:31Z</time>
      </trkpt>
      <trkpt lat="45.81899" lon="6.40894">
        <ele>1605</ele>
        <time>2018-10-17T13:20:32Z</time>
      </trkpt>
      <trkpt lat="45.81899" lon="6.40898">
        <ele>1605</ele>
        <time>2018-10-17T13:20:33Z</time>
      </trkpt>
      <trkpt lat="45.81899" lon="6.40898">
        <ele>1604</ele>
        <time>2018-10-17T13:20:34Z</time>
      </trkpt>
      <trkpt lat="45.81898" lon="6.40901">
        <ele>1603</ele>
        <time>2018-10-17T13:20:35Z</time>
      </trkpt>
      <trkpt lat="45.81896" lon="6.40903">
        <ele>1603</ele>
        <time>2018-10-17T13:20:36Z</time>
      </trkpt>
      <trkpt lat="45.81894" lon="6.40904">
        <ele>1603</ele>
        <time>2018-10-17T13:20:37Z</time>
      </trkpt>
      <trkpt lat="45.81892" lon="6.40904">
        <ele>1603</ele>
        <time>2018-10-17T13:20:38Z</time>
      </trkpt>
      <trkpt lat="45.81892" lon="6.40904">
        <ele>1603</ele>
        <time>2018-10-17T13:20:39Z</time>
      </trkpt>
      <trkpt lat="45.81889" lon="6.40906">
        <ele>1603</ele>
        <time>2018-10-17T13:20:40Z</time>
      </trkpt>
      <trkpt lat="45.81889" lon="6.40906">
        <ele>1603</ele>
        <time>2018-10-17T13:20:41Z</time>
      </trkpt>
      <trkpt lat="45.81886" lon="6.40907">
        <ele>1603</ele>
        <time>2018-10-17T13:20:42Z</time>
      </trkpt>
      <trkpt lat="45.81886" lon="6.40907">
        <ele>1603</ele>
        <time>2018-10-17T13:20:43Z</time>
      </trkpt>
      <trkpt lat="45.81882" lon="6.4091">
        <ele>1603</ele>
        <time>2018-10-17T13:20:44Z</time>
      </trkpt>
      <trkpt lat="45.81881" lon="6.40911">
        <ele>1603</ele>
        <time>2018-10-17T13:20:45Z</time>
      </trkpt>
      <trkpt lat="45.8188" lon="6.40914">
        <ele>1602</ele>
        <time>2018-10-17T13:20:46Z</time>
      </trkpt>
      <trkpt lat="45.81878" lon="6.40916">
        <ele>1603</ele>
        <time>2018-10-17T13:20:47Z</time>
      </trkpt>
      <trkpt lat="45.81877" lon="6.40917">
        <ele>1603</ele>
        <time>2018-10-17T13:20:48Z</time>
      </trkpt>
      <trkpt lat="45.81877" lon="6.40917">
        <ele>1603</ele>
        <time>2018-10-17T13:20:49Z</time>
      </trkpt>
      <trkpt lat="45.81874" lon="6.40919">
        <ele>1603</ele>
        <time>2018-10-17T13:20:50Z</time>
      </trkpt>
      <trkpt lat="45.81874" lon="6.40919">
        <ele>1603</ele>
        <time>2018-10-17T13:20:51Z</time>
      </trkpt>
      <trkpt lat="45.81872" lon="6.40921">
        <ele>1603</ele>
        <time>2018-10-17T13:20:52Z</time>
      </trkpt>
      <trkpt lat="45.81872" lon="6.40921">
        <ele>1603</ele>
        <time>2018-10-17T13:20:53Z</time>
      </trkpt>
      <trkpt lat="45.8187" lon="6.40922">
        <ele>1603</ele>
        <time>2018-10-17T13:20:54Z</time>
      </trkpt>
      <trkpt lat="45.8187" lon="6.40922">
        <ele>1603</ele>
        <time>2018-10-17T13:20:55Z</time>
      </trkpt>
      <trkpt lat="45.81868" lon="6.40923">
        <ele>1603</ele>
        <time>2018-10-17T13:20:56Z</time>
      </trkpt>
      <trkpt lat="45.81868" lon="6.40923">
        <ele>1603</ele>
        <time>2018-10-17T13:20:57Z</time>
      </trkpt>
      <trkpt lat="45.81868" lon="6.40923">
        <ele>1604</ele>
        <time>2018-10-17T13:20:58Z</time>
      </trkpt>
      <trkpt lat="45.81866" lon="6.40923">
        <ele>1604</ele>
        <time>2018-10-17T13:20:59Z</time>
      </trkpt>
      <trkpt lat="45.81866" lon="6.40923">
        <ele>1604</ele>
        <time>2018-10-17T13:21:00Z</time>
      </trkpt>
      <trkpt lat="45.81866" lon="6.40923">
        <ele>1604</ele>
        <time>2018-10-17T13:21:01Z</time>
      </trkpt>
      <trkpt lat="45.81863" lon="6.40925">
        <ele>1604</ele>
        <time>2018-10-17T13:21:02Z</time>
      </trkpt>
      <trkpt lat="45.81863" lon="6.40925">
        <ele>1604</ele>
        <time>2018-10-17T13:21:03Z</time>
      </trkpt>
      <trkpt lat="45.81861" lon="6.40927">
        <ele>1604</ele>
        <time>2018-10-17T13:21:04Z</time>
      </trkpt>
      <trkpt lat="45.81861" lon="6.40927">
        <ele>1604</ele>
        <time>2018-10-17T13:21:05Z</time>
      </trkpt>
      <trkpt lat="45.81859" lon="6.4093">
        <ele>1604</ele>
        <time>2018-10-17T13:21:06Z</time>
      </trkpt>
      <trkpt lat="45.81859" lon="6.4093">
        <ele>1604</ele>
        <time>2018-10-17T13:21:07Z</time>
      </trkpt>
      <trkpt lat="45.81858" lon="6.40932">
        <ele>1603</ele>
        <time>2018-10-17T13:21:08Z</time>
      </trkpt>
      <trkpt lat="45.81858" lon="6.40932">
        <ele>1603</ele>
        <time>2018-10-17T13:21:09Z</time>
      </trkpt>
      <trkpt lat="45.81856" lon="6.40936">
        <ele>1603</ele>
        <time>2018-10-17T13:21:10Z</time>
      </trkpt>
      <trkpt lat="45.81856" lon="6.40936">
        <ele>1602</ele>
        <time>2018-10-17T13:21:11Z</time>
      </trkpt>
      <trkpt lat="45.81853" lon="6.40939">
        <ele>1602</ele>
        <time>2018-10-17T13:21:12Z</time>
      </trkpt>
      <trkpt lat="45.81853" lon="6.40939">
        <ele>1602</ele>
        <time>2018-10-17T13:21:13Z</time>
      </trkpt>
      <trkpt lat="45.81852" lon="6.4094">
        <ele>1602</ele>
        <time>2018-10-17T13:21:14Z</time>
      </trkpt>
      <trkpt lat="45.81852" lon="6.4094">
        <ele>1602</ele>
        <time>2018-10-17T13:21:15Z</time>
      </trkpt>
      <trkpt lat="45.81852" lon="6.4094">
        <ele>1602</ele>
        <time>2018-10-17T13:21:16Z</time>
      </trkpt>
      <trkpt lat="45.8185" lon="6.40944">
        <ele>1601</ele>
        <time>2018-10-17T13:21:17Z</time>
      </trkpt>
      <trkpt lat="45.8185" lon="6.40944">
        <ele>1601</ele>
        <time>2018-10-17T13:21:18Z</time>
      </trkpt>
      <trkpt lat="45.8185" lon="6.40947">
        <ele>1601</ele>
        <time>2018-10-17T13:21:19Z</time>
      </trkpt>
      <trkpt lat="45.8185" lon="6.40947">
        <ele>1601</ele>
        <time>2018-10-17T13:21:20Z</time>
      </trkpt>
      <trkpt lat="45.8185" lon="6.40951">
        <ele>1601</ele>
        <time>2018-10-17T13:21:21Z</time>
      </trkpt>
      <trkpt lat="45.8185" lon="6.40951">
        <ele>1601</ele>
        <time>2018-10-17T13:21:22Z</time>
      </trkpt>
      <trkpt lat="45.81849" lon="6.40954">
        <ele>1601</ele>
        <time>2018-10-17T13:21:23Z</time>
      </trkpt>
      <trkpt lat="45.81849" lon="6.40954">
        <ele>1601</ele>
        <time>2018-10-17T13:21:24Z</time>
      </trkpt>
      <trkpt lat="45.81848" lon="6.40956">
        <ele>1601</ele>
        <time>2018-10-17T13:21:25Z</time>
      </trkpt>
      <trkpt lat="45.81848" lon="6.40956">
        <ele>1601</ele>
        <time>2018-10-17T13:21:26Z</time>
      </trkpt>
      <trkpt lat="45.81845" lon="6.40957">
        <ele>1601</ele>
        <time>2018-10-17T13:21:27Z</time>
      </trkpt>
      <trkpt lat="45.81845" lon="6.40957">
        <ele>1600</ele>
        <time>2018-10-17T13:21:28Z</time>
      </trkpt>
      <trkpt lat="45.81844" lon="6.40957">
        <ele>1600</ele>
        <time>2018-10-17T13:21:29Z</time>
      </trkpt>
      <trkpt lat="45.81844" lon="6.40957">
        <ele>1600</ele>
        <time>2018-10-17T13:21:30Z</time>
      </trkpt>
      <trkpt lat="45.81842" lon="6.4096">
        <ele>1599</ele>
        <time>2018-10-17T13:21:31Z</time>
      </trkpt>
      <trkpt lat="45.81842" lon="6.4096">
        <ele>1599</ele>
        <time>2018-10-17T13:21:32Z</time>
      </trkpt>
      <trkpt lat="45.81842" lon="6.40964">
        <ele>1600</ele>
        <time>2018-10-17T13:21:33Z</time>
      </trkpt>
      <trkpt lat="45.81842" lon="6.40964">
        <ele>1600</ele>
        <time>2018-10-17T13:21:34Z</time>
      </trkpt>
      <trkpt lat="45.81843" lon="6.40967">
        <ele>1600</ele>
        <time>2018-10-17T13:21:35Z</time>
      </trkpt>
      <trkpt lat="45.81843" lon="6.40967">
        <ele>1600</ele>
        <time>2018-10-17T13:21:36Z</time>
      </trkpt>
      <trkpt lat="45.81843" lon="6.40967">
        <ele>1600</ele>
        <time>2018-10-17T13:21:37Z</time>
      </trkpt>
      <trkpt lat="45.81842" lon="6.4097">
        <ele>1600</ele>
        <time>2018-10-17T13:21:38Z</time>
      </trkpt>
      <trkpt lat="45.81842" lon="6.4097">
        <ele>1600</ele>
        <time>2018-10-17T13:21:39Z</time>
      </trkpt>
      <trkpt lat="45.81842" lon="6.4097">
        <ele>1600</ele>
        <time>2018-10-17T13:21:40Z</time>
      </trkpt>
      <trkpt lat="45.81842" lon="6.4097">
        <ele>1601</ele>
        <time>2018-10-17T13:21:41Z</time>
      </trkpt>
      <trkpt lat="45.81841" lon="6.40973">
        <ele>1601</ele>
        <time>2018-10-17T13:21:42Z</time>
      </trkpt>
      <trkpt lat="45.81841" lon="6.40973">
        <ele>1601</ele>
        <time>2018-10-17T13:21:43Z</time>
      </trkpt>
      <trkpt lat="45.81841" lon="6.40973">
        <ele>1602</ele>
        <time>2018-10-17T13:21:44Z</time>
      </trkpt>
      <trkpt lat="45.81839" lon="6.40974">
        <ele>1602</ele>
        <time>2018-10-17T13:21:45Z</time>
      </trkpt>
      <trkpt lat="45.81839" lon="6.40974">
        <ele>1602</ele>
        <time>2018-10-17T13:21:46Z</time>
      </trkpt>
      <trkpt lat="45.81839" lon="6.40974">
        <ele>1602</ele>
        <time>2018-10-17T13:21:47Z</time>
      </trkpt>
      <trkpt lat="45.81839" lon="6.40974">
        <ele>1602</ele>
        <time>2018-10-17T13:21:48Z</time>
      </trkpt>
      <trkpt lat="45.81839" lon="6.40974">
        <ele>1602</ele>
        <time>2018-10-17T13:21:49Z</time>
      </trkpt>
      <trkpt lat="45.81839" lon="6.40974">
        <ele>1602</ele>
        <time>2018-10-17T13:21:50Z</time>
      </trkpt>
      <trkpt lat="45.81839" lon="6.40974">
        <ele>1602</ele>
        <time>2018-10-17T13:21:51Z</time>
      </trkpt>
      <trkpt lat="45.81839" lon="6.40974">
        <ele>1602</ele>
        <time>2018-10-17T13:21:52Z</time>
      </trkpt>
      <trkpt lat="45.81839" lon="6.40974">
        <ele>1602</ele>
        <time>2018-10-17T13:21:53Z</time>
      </trkpt>
      <trkpt lat="45.81839" lon="6.40974">
        <ele>1602</ele>
        <time>2018-10-17T13:21:54Z</time>
      </trkpt>
      <trkpt lat="45.81838" lon="6.40973">
        <ele>1602</ele>
        <time>2018-10-17T13:21:55Z</time>
      </trkpt>
      <trkpt lat="45.81838" lon="6.40973">
        <ele>1602</ele>
        <time>2018-10-17T13:21:56Z</time>
      </trkpt>
      <trkpt lat="45.81838" lon="6.40973">
        <ele>1602</ele>
        <time>2018-10-17T13:21:57Z</time>
      </trkpt>
      <trkpt lat="45.81838" lon="6.40973">
        <ele>1602</ele>
        <time>2018-10-17T13:21:58Z</time>
      </trkpt>
      <trkpt lat="45.81838" lon="6.40973">
        <ele>1602</ele>
        <time>2018-10-17T13:21:59Z</time>
      </trkpt>
      <trkpt lat="45.81838" lon="6.40973">
        <ele>1602</ele>
        <time>2018-10-17T13:22:00Z</time>
      </trkpt>
      <trkpt lat="45.81838" lon="6.40973">
        <ele>1602</ele>
        <time>2018-10-17T13:22:01Z</time>
      </trkpt>
      <trkpt lat="45.81838" lon="6.40973">
        <ele>1602</ele>
        <time>2018-10-17T13:22:02Z</time>
      </trkpt>
      <trkpt lat="45.81838" lon="6.40973">
        <ele>1602</ele>
        <time>2018-10-17T13:22:03Z</time>
      </trkpt>
      <trkpt lat="45.81839" lon="6.40971">
        <ele>1602</ele>
        <time>2018-10-17T13:22:04Z</time>
      </trkpt>
      <trkpt lat="45.81839" lon="6.40971">
        <ele>1602</ele>
        <time>2018-10-17T13:22:05Z</time>
      </trkpt>
      <trkpt lat="45.81839" lon="6.40971">
        <ele>1601</ele>
        <time>2018-10-17T13:22:06Z</time>
      </trkpt>
      <trkpt lat="45.8184" lon="6.40968">
        <ele>1601</ele>
        <time>2018-10-17T13:22:07Z</time>
      </trkpt>
      <trkpt lat="45.8184" lon="6.40968">
        <ele>1601</ele>
        <time>2018-10-17T13:22:08Z</time>
      </trkpt>
      <trkpt lat="45.8184" lon="6.40968">
        <ele>1601</ele>
        <time>2018-10-17T13:22:09Z</time>
      </trkpt>
      <trkpt lat="45.81841" lon="6.40965">
        <ele>1600</ele>
        <time>2018-10-17T13:22:10Z</time>
      </trkpt>
      <trkpt lat="45.81841" lon="6.40965">
        <ele>1600</ele>
        <time>2018-10-17T13:22:11Z</time>
      </trkpt>
      <trkpt lat="45.81841" lon="6.40965">
        <ele>1600</ele>
        <time>2018-10-17T13:22:12Z</time>
      </trkpt>
      <trkpt lat="45.81841" lon="6.40965">
        <ele>1600</ele>
        <time>2018-10-17T13:22:13Z</time>
      </trkpt>
      <trkpt lat="45.81841" lon="6.40965">
        <ele>1600</ele>
        <time>2018-10-17T13:22:14Z</time>
      </trkpt>
      <trkpt lat="45.81841" lon="6.40965">
        <ele>1600</ele>
        <time>2018-10-17T13:22:15Z</time>
      </trkpt>
      <trkpt lat="45.81841" lon="6.40965">
        <ele>1600</ele>
        <time>2018-10-17T13:22:16Z</time>
      </trkpt>
      <trkpt lat="45.81841" lon="6.40965">
        <ele>1600</ele>
        <time>2018-10-17T13:22:17Z</time>
      </trkpt>
      <trkpt lat="45.81841" lon="6.40965">
        <ele>1600</ele>
        <time>2018-10-17T13:22:18Z</time>
      </trkpt>
      <trkpt lat="45.81841" lon="6.40965">
        <ele>1600</ele>
        <time>2018-10-17T13:22:19Z</time>
      </trkpt>
      <trkpt lat="45.81841" lon="6.40965">
        <ele>1600</ele>
        <time>2018-10-17T13:22:20Z</time>
      </trkpt>
      <trkpt lat="45.81841" lon="6.40965">
        <ele>1600</ele>
        <time>2018-10-17T13:22:21Z</time>
      </trkpt>
      <trkpt lat="45.81841" lon="6.40965">
        <ele>1600</ele>
        <time>2018-10-17T13:22:22Z</time>
      </trkpt>
      <trkpt lat="45.81841" lon="6.40965">
        <ele>1600</ele>
        <time>2018-10-17T13:22:23Z</time>
      </trkpt>
      <trkpt lat="45.81841" lon="6.40965">
        <ele>1600</ele>
        <time>2018-10-17T13:22:24Z</time>
      </trkpt>
      <trkpt lat="45.81841" lon="6.40965">
        <ele>1600</ele>
        <time>2018-10-17T13:22:25Z</time>
      </trkpt>
      <trkpt lat="45.81841" lon="6.40965">
        <ele>1600</ele>
        <time>2018-10-17T13:22:26Z</time>
      </trkpt>
      <trkpt lat="45.81841" lon="6.40965">
        <ele>1600</ele>
        <time>2018-10-17T13:22:27Z</time>
      </trkpt>
      <trkpt lat="45.81841" lon="6.40965">
        <ele>1600</ele>
        <time>2018-10-17T13:22:28Z</time>
      </trkpt>
      <trkpt lat="45.81841" lon="6.40965">
        <ele>1600</ele>
        <time>2018-10-17T13:22:29Z</time>
      </trkpt>
      <trkpt lat="45.81841" lon="6.40965">
        <ele>1600</ele>
        <time>2018-10-17T13:22:30Z</time>
      </trkpt>
      <trkpt lat="45.81841" lon="6.40965">
        <ele>1600</ele>
        <time>2018-10-17T13:22:31Z</time>
      </trkpt>
      <trkpt lat="45.81841" lon="6.40965">
        <ele>1600</ele>
        <time>2018-10-17T13:22:32Z</time>
      </trkpt>
      <trkpt lat="45.81841" lon="6.40965">
        <ele>1600</ele>
        <time>2018-10-17T13:22:33Z</time>
      </trkpt>
      <trkpt lat="45.81841" lon="6.40965">
        <ele>1600</ele>
        <time>2018-10-17T13:22:34Z</time>
      </trkpt>
      <trkpt lat="45.81841" lon="6.40965">
        <ele>1600</ele>
        <time>2018-10-17T13:22:35Z</time>
      </trkpt>
      <trkpt lat="45.8184" lon="6.40963">
        <ele>1600</ele>
        <time>2018-10-17T13:22:36Z</time>
      </trkpt>
      <trkpt lat="45.8184" lon="6.40963">
        <ele>1600</ele>
        <time>2018-10-17T13:22:37Z</time>
      </trkpt>
      <trkpt lat="45.8184" lon="6.40963">
        <ele>1601</ele>
        <time>2018-10-17T13:22:38Z</time>
      </trkpt>
      <trkpt lat="45.8184" lon="6.40963">
        <ele>1601</ele>
        <time>2018-10-17T13:22:39Z</time>
      </trkpt>
      <trkpt lat="45.8184" lon="6.40963">
        <ele>1601</ele>
        <time>2018-10-17T13:22:40Z</time>
      </trkpt>
      <trkpt lat="45.8184" lon="6.40963">
        <ele>1601</ele>
        <time>2018-10-17T13:22:41Z</time>
      </trkpt>
      <trkpt lat="45.8184" lon="6.40963">
        <ele>1601</ele>
        <time>2018-10-17T13:22:42Z</time>
      </trkpt>
      <trkpt lat="45.8184" lon="6.40963">
        <ele>1601</ele>
        <time>2018-10-17T13:22:43Z</time>
      </trkpt>
      <trkpt lat="45.8184" lon="6.40963">
        <ele>1601</ele>
        <time>2018-10-17T13:22:44Z</time>
      </trkpt>
      <trkpt lat="45.8184" lon="6.40963">
        <ele>1601</ele>
        <time>2018-10-17T13:22:45Z</time>
      </trkpt>
      <trkpt lat="45.8184" lon="6.40963">
        <ele>1600</ele>
        <time>2018-10-17T13:22:46Z</time>
      </trkpt>
      <trkpt lat="45.8184" lon="6.40963">
        <ele>1600</ele>
        <time>2018-10-17T13:22:47Z</time>
      </trkpt>
      <trkpt lat="45.8184" lon="6.40963">
        <ele>1600</ele>
        <time>2018-10-17T13:22:48Z</time>
      </trkpt>
      <trkpt lat="45.8184" lon="6.40963">
        <ele>1600</ele>
        <time>2018-10-17T13:22:49Z</time>
      </trkpt>
      <trkpt lat="45.8184" lon="6.40963">
        <ele>1600</ele>
        <time>2018-10-17T13:22:50Z</time>
      </trkpt>
      <trkpt lat="45.8184" lon="6.40963">
        <ele>1600</ele>
        <time>2018-10-17T13:22:51Z</time>
      </trkpt>
      <trkpt lat="45.8184" lon="6.40963">
        <ele>1600</ele>
        <time>2018-10-17T13:22:52Z</time>
      </trkpt>
      <trkpt lat="45.8184" lon="6.40963">
        <ele>1599</ele>
        <time>2018-10-17T13:22:53Z</time>
      </trkpt>
      <trkpt lat="45.8184" lon="6.40963">
        <ele>1599</ele>
        <time>2018-10-17T13:22:54Z</time>
      </trkpt>
      <trkpt lat="45.8184" lon="6.40963">
        <ele>1599</ele>
        <time>2018-10-17T13:22:55Z</time>
      </trkpt>
      <trkpt lat="45.8184" lon="6.40963">
        <ele>1599</ele>
        <time>2018-10-17T13:22:56Z</time>
      </trkpt>
      <trkpt lat="45.8184" lon="6.40963">
        <ele>1599</ele>
        <time>2018-10-17T13:22:57Z</time>
      </trkpt>
      <trkpt lat="45.8184" lon="6.40963">
        <ele>1599</ele>
        <time>2018-10-17T13:22:58Z</time>
      </trkpt>
      <trkpt lat="45.8184" lon="6.40963">
        <ele>1599</ele>
        <time>2018-10-17T13:22:59Z</time>
      </trkpt>
      <trkpt lat="45.8184" lon="6.40963">
        <ele>1599</ele>
        <time>2018-10-17T13:23:00Z</time>
      </trkpt>
      <trkpt lat="45.8184" lon="6.40963">
        <ele>1599</ele>
        <time>2018-10-17T13:23:01Z</time>
      </trkpt>
      <trkpt lat="45.8184" lon="6.40963">
        <ele>1599</ele>
        <time>2018-10-17T13:23:02Z</time>
      </trkpt>
      <trkpt lat="45.8184" lon="6.40963">
        <ele>1599</ele>
        <time>2018-10-17T13:23:03Z</time>
      </trkpt>
      <trkpt lat="45.8184" lon="6.40963">
        <ele>1599</ele>
        <time>2018-10-17T13:23:04Z</time>
      </trkpt>
      <trkpt lat="45.8184" lon="6.40963">
        <ele>1599</ele>
        <time>2018-10-17T13:23:05Z</time>
      </trkpt>
      <trkpt lat="45.8184" lon="6.40963">
        <ele>1599</ele>
        <time>2018-10-17T13:23:06Z</time>
      </trkpt>
      <trkpt lat="45.8184" lon="6.40963">
        <ele>1599</ele>
        <time>2018-10-17T13:23:07Z</time>
      </trkpt>
      <trkpt lat="45.8184" lon="6.40963">
        <ele>1599</ele>
        <time>2018-10-17T13:23:08Z</time>
      </trkpt>
      <trkpt lat="45.8184" lon="6.40963">
        <ele>1600</ele>
        <time>2018-10-17T13:23:09Z</time>
      </trkpt>
      <trkpt lat="45.8184" lon="6.4096">
        <ele>1600</ele>
        <time>2018-10-17T13:23:10Z</time>
      </trkpt>
      <trkpt lat="45.8184" lon="6.4096">
        <ele>1600</ele>
        <time>2018-10-17T13:23:11Z</time>
      </trkpt>
      <trkpt lat="45.8184" lon="6.4096">
        <ele>1599</ele>
        <time>2018-10-17T13:23:12Z</time>
      </trkpt>
      <trkpt lat="45.81842" lon="6.40961">
        <ele>1598</ele>
        <time>2018-10-17T13:23:13Z</time>
      </trkpt>
      <trkpt lat="45.81842" lon="6.40961">
        <ele>1598</ele>
        <time>2018-10-17T13:23:14Z</time>
      </trkpt>
      <trkpt lat="45.81842" lon="6.40961">
        <ele>1598</ele>
        <time>2018-10-17T13:23:15Z</time>
      </trkpt>
      <trkpt lat="45.81844" lon="6.40962">
        <ele>1598</ele>
        <time>2018-10-17T13:23:16Z</time>
      </trkpt>
      <trkpt lat="45.81844" lon="6.40962">
        <ele>1598</ele>
        <time>2018-10-17T13:23:17Z</time>
      </trkpt>
      <trkpt lat="45.81844" lon="6.40962">
        <ele>1597</ele>
        <time>2018-10-17T13:23:18Z</time>
      </trkpt>
      <trkpt lat="45.81844" lon="6.40962">
        <ele>1597</ele>
        <time>2018-10-17T13:23:19Z</time>
      </trkpt>
      <trkpt lat="45.81844" lon="6.40962">
        <ele>1597</ele>
        <time>2018-10-17T13:23:20Z</time>
      </trkpt>
      <trkpt lat="45.81846" lon="6.40964">
        <ele>1596</ele>
        <time>2018-10-17T13:23:21Z</time>
      </trkpt>
      <trkpt lat="45.81846" lon="6.40964">
        <ele>1596</ele>
        <time>2018-10-17T13:23:22Z</time>
      </trkpt>
      <trkpt lat="45.81846" lon="6.40964">
        <ele>1596</ele>
        <time>2018-10-17T13:23:23Z</time>
      </trkpt>
      <trkpt lat="45.81848" lon="6.40965">
        <ele>1596</ele>
        <time>2018-10-17T13:23:24Z</time>
      </trkpt>
      <trkpt lat="45.81848" lon="6.40965">
        <ele>1596</ele>
        <time>2018-10-17T13:23:25Z</time>
      </trkpt>
      <trkpt lat="45.81848" lon="6.40965">
        <ele>1596</ele>
        <time>2018-10-17T13:23:26Z</time>
      </trkpt>
      <trkpt lat="45.81848" lon="6.40965">
        <ele>1595</ele>
        <time>2018-10-17T13:23:27Z</time>
      </trkpt>
      <trkpt lat="45.81848" lon="6.40965">
        <ele>1595</ele>
        <time>2018-10-17T13:23:28Z</time>
      </trkpt>
      <trkpt lat="45.81849" lon="6.40967">
        <ele>1595</ele>
        <time>2018-10-17T13:23:29Z</time>
      </trkpt>
      <trkpt lat="45.81849" lon="6.40967">
        <ele>1595</ele>
        <time>2018-10-17T13:23:30Z</time>
      </trkpt>
      <trkpt lat="45.81849" lon="6.40967">
        <ele>1595</ele>
        <time>2018-10-17T13:23:31Z</time>
      </trkpt>
      <trkpt lat="45.81849" lon="6.40967">
        <ele>1594</ele>
        <time>2018-10-17T13:23:32Z</time>
      </trkpt>
      <trkpt lat="45.81851" lon="6.40968">
        <ele>1594</ele>
        <time>2018-10-17T13:23:33Z</time>
      </trkpt>
      <trkpt lat="45.81851" lon="6.40968">
        <ele>1594</ele>
        <time>2018-10-17T13:23:34Z</time>
      </trkpt>
      <trkpt lat="45.81851" lon="6.40968">
        <ele>1594</ele>
        <time>2018-10-17T13:23:35Z</time>
      </trkpt>
      <trkpt lat="45.81851" lon="6.40968">
        <ele>1593</ele>
        <time>2018-10-17T13:23:36Z</time>
      </trkpt>
      <trkpt lat="45.81851" lon="6.40968">
        <ele>1593</ele>
        <time>2018-10-17T13:23:37Z</time>
      </trkpt>
      <trkpt lat="45.81852" lon="6.40969">
        <ele>1593</ele>
        <time>2018-10-17T13:23:38Z</time>
      </trkpt>
      <trkpt lat="45.81852" lon="6.40969">
        <ele>1593</ele>
        <time>2018-10-17T13:23:39Z</time>
      </trkpt>
      <trkpt lat="45.81854" lon="6.4097">
        <ele>1593</ele>
        <time>2018-10-17T13:23:40Z</time>
      </trkpt>
      <trkpt lat="45.81854" lon="6.4097">
        <ele>1592</ele>
        <time>2018-10-17T13:23:41Z</time>
      </trkpt>
      <trkpt lat="45.81856" lon="6.40971">
        <ele>1592</ele>
        <time>2018-10-17T13:23:42Z</time>
      </trkpt>
      <trkpt lat="45.81856" lon="6.40971">
        <ele>1592</ele>
        <time>2018-10-17T13:23:43Z</time>
      </trkpt>
      <trkpt lat="45.81856" lon="6.40971">
        <ele>1591</ele>
        <time>2018-10-17T13:23:44Z</time>
      </trkpt>
      <trkpt lat="45.81856" lon="6.40971">
        <ele>1591</ele>
        <time>2018-10-17T13:23:45Z</time>
      </trkpt>
      <trkpt lat="45.81856" lon="6.40971">
        <ele>1590</ele>
        <time>2018-10-17T13:23:46Z</time>
      </trkpt>
      <trkpt lat="45.81856" lon="6.40971">
        <ele>1590</ele>
        <time>2018-10-17T13:23:47Z</time>
      </trkpt>
      <trkpt lat="45.81858" lon="6.40972">
        <ele>1590</ele>
        <time>2018-10-17T13:23:48Z</time>
      </trkpt>
      <trkpt lat="45.81858" lon="6.40972">
        <ele>1590</ele>
        <time>2018-10-17T13:23:49Z</time>
      </trkpt>
      <trkpt lat="45.81858" lon="6.40972">
        <ele>1590</ele>
        <time>2018-10-17T13:23:50Z</time>
      </trkpt>
      <trkpt lat="45.81858" lon="6.40972">
        <ele>1590</ele>
        <time>2018-10-17T13:23:51Z</time>
      </trkpt>
      <trkpt lat="45.81858" lon="6.40972">
        <ele>1589</ele>
        <time>2018-10-17T13:23:52Z</time>
      </trkpt>
      <trkpt lat="45.81858" lon="6.40972">
        <ele>1589</ele>
        <time>2018-10-17T13:23:53Z</time>
      </trkpt>
      <trkpt lat="45.81858" lon="6.40972">
        <ele>1589</ele>
        <time>2018-10-17T13:23:54Z</time>
      </trkpt>
      <trkpt lat="45.81858" lon="6.40972">
        <ele>1588</ele>
        <time>2018-10-17T13:23:55Z</time>
      </trkpt>
      <trkpt lat="45.81858" lon="6.40972">
        <ele>1588</ele>
        <time>2018-10-17T13:23:56Z</time>
      </trkpt>
      <trkpt lat="45.81858" lon="6.40972">
        <ele>1588</ele>
        <time>2018-10-17T13:23:57Z</time>
      </trkpt>
      <trkpt lat="45.8186" lon="6.40971">
        <ele>1588</ele>
        <time>2018-10-17T13:23:58Z</time>
      </trkpt>
      <trkpt lat="45.8186" lon="6.40971">
        <ele>1588</ele>
        <time>2018-10-17T13:23:59Z</time>
      </trkpt>
      <trkpt lat="45.8186" lon="6.40971">
        <ele>1588</ele>
        <time>2018-10-17T13:24:00Z</time>
      </trkpt>
      <trkpt lat="45.8186" lon="6.40971">
        <ele>1588</ele>
        <time>2018-10-17T13:24:01Z</time>
      </trkpt>
      <trkpt lat="45.8186" lon="6.40971">
        <ele>1588</ele>
        <time>2018-10-17T13:24:02Z</time>
      </trkpt>
      <trkpt lat="45.81861" lon="6.40973">
        <ele>1587</ele>
        <time>2018-10-17T13:24:03Z</time>
      </trkpt>
      <trkpt lat="45.81861" lon="6.40973">
        <ele>1587</ele>
        <time>2018-10-17T13:24:04Z</time>
      </trkpt>
      <trkpt lat="45.81861" lon="6.40973">
        <ele>1586</ele>
        <time>2018-10-17T13:24:05Z</time>
      </trkpt>
      <trkpt lat="45.81861" lon="6.40973">
        <ele>1586</ele>
        <time>2018-10-17T13:24:06Z</time>
      </trkpt>
      <trkpt lat="45.81861" lon="6.40973">
        <ele>1586</ele>
        <time>2018-10-17T13:24:07Z</time>
      </trkpt>
      <trkpt lat="45.81861" lon="6.40973">
        <ele>1586</ele>
        <time>2018-10-17T13:24:08Z</time>
      </trkpt>
      <trkpt lat="45.81863" lon="6.40974">
        <ele>1586</ele>
        <time>2018-10-17T13:24:09Z</time>
      </trkpt>
      <trkpt lat="45.81863" lon="6.40974">
        <ele>1585</ele>
        <time>2018-10-17T13:24:10Z</time>
      </trkpt>
      <trkpt lat="45.81863" lon="6.40974">
        <ele>1585</ele>
        <time>2018-10-17T13:24:11Z</time>
      </trkpt>
      <trkpt lat="45.81863" lon="6.40974">
        <ele>1585</ele>
        <time>2018-10-17T13:24:12Z</time>
      </trkpt>
      <trkpt lat="45.81863" lon="6.40974">
        <ele>1585</ele>
        <time>2018-10-17T13:24:13Z</time>
      </trkpt>
      <trkpt lat="45.81865" lon="6.40971">
        <ele>1584</ele>
        <time>2018-10-17T13:24:14Z</time>
      </trkpt>
      <trkpt lat="45.81865" lon="6.40971">
        <ele>1584</ele>
        <time>2018-10-17T13:24:15Z</time>
      </trkpt>
      <trkpt lat="45.81865" lon="6.40971">
        <ele>1583</ele>
        <time>2018-10-17T13:24:16Z</time>
      </trkpt>
      <trkpt lat="45.81865" lon="6.40971">
        <ele>1583</ele>
        <time>2018-10-17T13:24:17Z</time>
      </trkpt>
      <trkpt lat="45.81867" lon="6.40971">
        <ele>1583</ele>
        <time>2018-10-17T13:24:18Z</time>
      </trkpt>
      <trkpt lat="45.81867" lon="6.40971">
        <ele>1583</ele>
        <time>2018-10-17T13:24:19Z</time>
      </trkpt>
      <trkpt lat="45.81867" lon="6.40971">
        <ele>1584</ele>
        <time>2018-10-17T13:24:20Z</time>
      </trkpt>
      <trkpt lat="45.81867" lon="6.40971">
        <ele>1584</ele>
        <time>2018-10-17T13:24:21Z</time>
      </trkpt>
      <trkpt lat="45.81869" lon="6.40973">
        <ele>1583</ele>
        <time>2018-10-17T13:24:22Z</time>
      </trkpt>
      <trkpt lat="45.81869" lon="6.40973">
        <ele>1583</ele>
        <time>2018-10-17T13:24:23Z</time>
      </trkpt>
      <trkpt lat="45.81869" lon="6.40973">
        <ele>1582</ele>
        <time>2018-10-17T13:24:24Z</time>
      </trkpt>
      <trkpt lat="45.81869" lon="6.40973">
        <ele>1582</ele>
        <time>2018-10-17T13:24:25Z</time>
      </trkpt>
      <trkpt lat="45.81871" lon="6.40972">
        <ele>1582</ele>
        <time>2018-10-17T13:24:26Z</time>
      </trkpt>
      <trkpt lat="45.81871" lon="6.40972">
        <ele>1581</ele>
        <time>2018-10-17T13:24:27Z</time>
      </trkpt>
      <trkpt lat="45.81871" lon="6.40972">
        <ele>1581</ele>
        <time>2018-10-17T13:24:28Z</time>
      </trkpt>
      <trkpt lat="45.81873" lon="6.40971">
        <ele>1581</ele>
        <time>2018-10-17T13:24:29Z</time>
      </trkpt>
      <trkpt lat="45.81873" lon="6.40971">
        <ele>1581</ele>
        <time>2018-10-17T13:24:30Z</time>
      </trkpt>
      <trkpt lat="45.81873" lon="6.40971">
        <ele>1581</ele>
        <time>2018-10-17T13:24:31Z</time>
      </trkpt>
      <trkpt lat="45.81873" lon="6.40971">
        <ele>1580</ele>
        <time>2018-10-17T13:24:32Z</time>
      </trkpt>
      <trkpt lat="45.81873" lon="6.40971">
        <ele>1580</ele>
        <time>2018-10-17T13:24:33Z</time>
      </trkpt>
      <trkpt lat="45.81873" lon="6.40971">
        <ele>1580</ele>
        <time>2018-10-17T13:24:34Z</time>
      </trkpt>
      <trkpt lat="45.81873" lon="6.40971">
        <ele>1580</ele>
        <time>2018-10-17T13:24:35Z</time>
      </trkpt>
      <trkpt lat="45.81875" lon="6.40972">
        <ele>1580</ele>
        <time>2018-10-17T13:24:36Z</time>
      </trkpt>
      <trkpt lat="45.81875" lon="6.40972">
        <ele>1579</ele>
        <time>2018-10-17T13:24:37Z</time>
      </trkpt>
      <trkpt lat="45.81875" lon="6.40972">
        <ele>1579</ele>
        <time>2018-10-17T13:24:38Z</time>
      </trkpt>
      <trkpt lat="45.81875" lon="6.40972">
        <ele>1579</ele>
        <time>2018-10-17T13:24:39Z</time>
      </trkpt>
      <trkpt lat="45.81875" lon="6.40972">
        <ele>1579</ele>
        <time>2018-10-17T13:24:40Z</time>
      </trkpt>
      <trkpt lat="45.81875" lon="6.40972">
        <ele>1579</ele>
        <time>2018-10-17T13:24:41Z</time>
      </trkpt>
      <trkpt lat="45.81875" lon="6.40972">
        <ele>1579</ele>
        <time>2018-10-17T13:24:42Z</time>
      </trkpt>
      <trkpt lat="45.81875" lon="6.40972">
        <ele>1579</ele>
        <time>2018-10-17T13:24:43Z</time>
      </trkpt>
      <trkpt lat="45.81875" lon="6.40972">
        <ele>1578</ele>
        <time>2018-10-17T13:24:44Z</time>
      </trkpt>
      <trkpt lat="45.81876" lon="6.40974">
        <ele>1578</ele>
        <time>2018-10-17T13:24:45Z</time>
      </trkpt>
      <trkpt lat="45.81876" lon="6.40974">
        <ele>1578</ele>
        <time>2018-10-17T13:24:46Z</time>
      </trkpt>
      <trkpt lat="45.81876" lon="6.40974">
        <ele>1578</ele>
        <time>2018-10-17T13:24:47Z</time>
      </trkpt>
      <trkpt lat="45.81876" lon="6.40974">
        <ele>1577</ele>
        <time>2018-10-17T13:24:48Z</time>
      </trkpt>
      <trkpt lat="45.81878" lon="6.40974">
        <ele>1577</ele>
        <time>2018-10-17T13:24:49Z</time>
      </trkpt>
      <trkpt lat="45.81878" lon="6.40974">
        <ele>1577</ele>
        <time>2018-10-17T13:24:50Z</time>
      </trkpt>
      <trkpt lat="45.81878" lon="6.40974">
        <ele>1576</ele>
        <time>2018-10-17T13:24:51Z</time>
      </trkpt>
      <trkpt lat="45.81878" lon="6.40974">
        <ele>1576</ele>
        <time>2018-10-17T13:24:52Z</time>
      </trkpt>
      <trkpt lat="45.81878" lon="6.40974">
        <ele>1576</ele>
        <time>2018-10-17T13:24:53Z</time>
      </trkpt>
      <trkpt lat="45.8188" lon="6.40972">
        <ele>1575</ele>
        <time>2018-10-17T13:24:54Z</time>
      </trkpt>
      <trkpt lat="45.8188" lon="6.40972">
        <ele>1575</ele>
        <time>2018-10-17T13:24:55Z</time>
      </trkpt>
      <trkpt lat="45.8188" lon="6.40972">
        <ele>1575</ele>
        <time>2018-10-17T13:24:56Z</time>
      </trkpt>
      <trkpt lat="45.8188" lon="6.40972">
        <ele>1575</ele>
        <time>2018-10-17T13:24:57Z</time>
      </trkpt>
      <trkpt lat="45.8188" lon="6.40972">
        <ele>1575</ele>
        <time>2018-10-17T13:24:58Z</time>
      </trkpt>
      <trkpt lat="45.8188" lon="6.40972">
        <ele>1574</ele>
        <time>2018-10-17T13:24:59Z</time>
      </trkpt>
      <trkpt lat="45.81882" lon="6.40974">
        <ele>1574</ele>
        <time>2018-10-17T13:25:00Z</time>
      </trkpt>
      <trkpt lat="45.81882" lon="6.40974">
        <ele>1573</ele>
        <time>2018-10-17T13:25:01Z</time>
      </trkpt>
      <trkpt lat="45.81882" lon="6.40974">
        <ele>1573</ele>
        <time>2018-10-17T13:25:02Z</time>
      </trkpt>
      <trkpt lat="45.81884" lon="6.40973">
        <ele>1573</ele>
        <time>2018-10-17T13:25:03Z</time>
      </trkpt>
      <trkpt lat="45.81884" lon="6.40973">
        <ele>1573</ele>
        <time>2018-10-17T13:25:04Z</time>
      </trkpt>
      <trkpt lat="45.81884" lon="6.40973">
        <ele>1573</ele>
        <time>2018-10-17T13:25:05Z</time>
      </trkpt>
      <trkpt lat="45.81886" lon="6.40973">
        <ele>1572</ele>
        <time>2018-10-17T13:25:06Z</time>
      </trkpt>
      <trkpt lat="45.81886" lon="6.40973">
        <ele>1572</ele>
        <time>2018-10-17T13:25:07Z</time>
      </trkpt>
      <trkpt lat="45.81886" lon="6.40973">
        <ele>1571</ele>
        <time>2018-10-17T13:25:08Z</time>
      </trkpt>
      <trkpt lat="45.81886" lon="6.40973">
        <ele>1571</ele>
        <time>2018-10-17T13:25:09Z</time>
      </trkpt>
      <trkpt lat="45.81886" lon="6.40973">
        <ele>1571</ele>
        <time>2018-10-17T13:25:10Z</time>
      </trkpt>
      <trkpt lat="45.81886" lon="6.40973">
        <ele>1571</ele>
        <time>2018-10-17T13:25:11Z</time>
      </trkpt>
      <trkpt lat="45.81886" lon="6.40973">
        <ele>1571</ele>
        <time>2018-10-17T13:25:12Z</time>
      </trkpt>
      <trkpt lat="45.81886" lon="6.40973">
        <ele>1571</ele>
        <time>2018-10-17T13:25:13Z</time>
      </trkpt>
      <trkpt lat="45.81886" lon="6.40973">
        <ele>1571</ele>
        <time>2018-10-17T13:25:14Z</time>
      </trkpt>
      <trkpt lat="45.81888" lon="6.40973">
        <ele>1571</ele>
        <time>2018-10-17T13:25:15Z</time>
      </trkpt>
      <trkpt lat="45.81888" lon="6.40973">
        <ele>1571</ele>
        <time>2018-10-17T13:25:16Z</time>
      </trkpt>
      <trkpt lat="45.81888" lon="6.40973">
        <ele>1570</ele>
        <time>2018-10-17T13:25:17Z</time>
      </trkpt>
      <trkpt lat="45.81888" lon="6.40973">
        <ele>1570</ele>
        <time>2018-10-17T13:25:18Z</time>
      </trkpt>
      <trkpt lat="45.81888" lon="6.40973">
        <ele>1570</ele>
        <time>2018-10-17T13:25:19Z</time>
      </trkpt>
      <trkpt lat="45.81888" lon="6.40973">
        <ele>1569</ele>
        <time>2018-10-17T13:25:20Z</time>
      </trkpt>
      <trkpt lat="45.81889" lon="6.40973">
        <ele>1569</ele>
        <time>2018-10-17T13:25:21Z</time>
      </trkpt>
      <trkpt lat="45.81889" lon="6.40973">
        <ele>1569</ele>
        <time>2018-10-17T13:25:22Z</time>
      </trkpt>
      <trkpt lat="45.81889" lon="6.40973">
        <ele>1569</ele>
        <time>2018-10-17T13:25:23Z</time>
      </trkpt>
      <trkpt lat="45.81891" lon="6.40973">
        <ele>1568</ele>
        <time>2018-10-17T13:25:24Z</time>
      </trkpt>
      <trkpt lat="45.81891" lon="6.40973">
        <ele>1568</ele>
        <time>2018-10-17T13:25:25Z</time>
      </trkpt>
      <trkpt lat="45.81891" lon="6.40973">
        <ele>1568</ele>
        <time>2018-10-17T13:25:26Z</time>
      </trkpt>
      <trkpt lat="45.81891" lon="6.40973">
        <ele>1568</ele>
        <time>2018-10-17T13:25:27Z</time>
      </trkpt>
      <trkpt lat="45.81894" lon="6.40973">
        <ele>1568</ele>
        <time>2018-10-17T13:25:28Z</time>
      </trkpt>
      <trkpt lat="45.81894" lon="6.40973">
        <ele>1568</ele>
        <time>2018-10-17T13:25:29Z</time>
      </trkpt>
      <trkpt lat="45.81894" lon="6.40973">
        <ele>1568</ele>
        <time>2018-10-17T13:25:30Z</time>
      </trkpt>
      <trkpt lat="45.81894" lon="6.40973">
        <ele>1568</ele>
        <time>2018-10-17T13:25:31Z</time>
      </trkpt>
      <trkpt lat="45.81894" lon="6.40973">
        <ele>1568</ele>
        <time>2018-10-17T13:25:32Z</time>
      </trkpt>
      <trkpt lat="45.81894" lon="6.40973">
        <ele>1567</ele>
        <time>2018-10-17T13:25:33Z</time>
      </trkpt>
      <trkpt lat="45.81894" lon="6.40973">
        <ele>1567</ele>
        <time>2018-10-17T13:25:34Z</time>
      </trkpt>
      <trkpt lat="45.81894" lon="6.40973">
        <ele>1567</ele>
        <time>2018-10-17T13:25:35Z</time>
      </trkpt>
      <trkpt lat="45.81895" lon="6.40976">
        <ele>1567</ele>
        <time>2018-10-17T13:25:36Z</time>
      </trkpt>
      <trkpt lat="45.81895" lon="6.40976">
        <ele>1567</ele>
        <time>2018-10-17T13:25:37Z</time>
      </trkpt>
      <trkpt lat="45.81895" lon="6.40976">
        <ele>1567</ele>
        <time>2018-10-17T13:25:38Z</time>
      </trkpt>
      <trkpt lat="45.81895" lon="6.40976">
        <ele>1566</ele>
        <time>2018-10-17T13:25:39Z</time>
      </trkpt>
      <trkpt lat="45.81895" lon="6.40976">
        <ele>1566</ele>
        <time>2018-10-17T13:25:40Z</time>
      </trkpt>
      <trkpt lat="45.81897" lon="6.40974">
        <ele>1566</ele>
        <time>2018-10-17T13:25:41Z</time>
      </trkpt>
      <trkpt lat="45.81897" lon="6.40974">
        <ele>1566</ele>
        <time>2018-10-17T13:25:42Z</time>
      </trkpt>
      <trkpt lat="45.81897" lon="6.40974">
        <ele>1565</ele>
        <time>2018-10-17T13:25:43Z</time>
      </trkpt>
      <trkpt lat="45.81897" lon="6.40974">
        <ele>1564</ele>
        <time>2018-10-17T13:25:44Z</time>
      </trkpt>
      <trkpt lat="45.81897" lon="6.40974">
        <ele>1564</ele>
        <time>2018-10-17T13:25:45Z</time>
      </trkpt>
      <trkpt lat="45.81897" lon="6.40974">
        <ele>1564</ele>
        <time>2018-10-17T13:25:46Z</time>
      </trkpt>
      <trkpt lat="45.81897" lon="6.40974">
        <ele>1564</ele>
        <time>2018-10-17T13:25:47Z</time>
      </trkpt>
      <trkpt lat="45.81897" lon="6.40974">
        <ele>1564</ele>
        <time>2018-10-17T13:25:48Z</time>
      </trkpt>
      <trkpt lat="45.81897" lon="6.40974">
        <ele>1564</ele>
        <time>2018-10-17T13:25:49Z</time>
      </trkpt>
      <trkpt lat="45.81899" lon="6.40975">
        <ele>1564</ele>
        <time>2018-10-17T13:25:50Z</time>
      </trkpt>
      <trkpt lat="45.81899" lon="6.40975">
        <ele>1563</ele>
        <time>2018-10-17T13:25:51Z</time>
      </trkpt>
      <trkpt lat="45.81899" lon="6.40975">
        <ele>1563</ele>
        <time>2018-10-17T13:25:52Z</time>
      </trkpt>
      <trkpt lat="45.81899" lon="6.40975">
        <ele>1563</ele>
        <time>2018-10-17T13:25:53Z</time>
      </trkpt>
      <trkpt lat="45.819" lon="6.40978">
        <ele>1563</ele>
        <time>2018-10-17T13:25:54Z</time>
      </trkpt>
      <trkpt lat="45.819" lon="6.40978">
        <ele>1563</ele>
        <time>2018-10-17T13:25:55Z</time>
      </trkpt>
      <trkpt lat="45.819" lon="6.40978">
        <ele>1563</ele>
        <time>2018-10-17T13:25:56Z</time>
      </trkpt>
      <trkpt lat="45.819" lon="6.40978">
        <ele>1563</ele>
        <time>2018-10-17T13:25:57Z</time>
      </trkpt>
      <trkpt lat="45.819" lon="6.40978">
        <ele>1563</ele>
        <time>2018-10-17T13:25:58Z</time>
      </trkpt>
      <trkpt lat="45.819" lon="6.40978">
        <ele>1562</ele>
        <time>2018-10-17T13:25:59Z</time>
      </trkpt>
      <trkpt lat="45.81902" lon="6.4098">
        <ele>1561</ele>
        <time>2018-10-17T13:26:00Z</time>
      </trkpt>
      <trkpt lat="45.81902" lon="6.4098">
        <ele>1561</ele>
        <time>2018-10-17T13:26:01Z</time>
      </trkpt>
      <trkpt lat="45.81902" lon="6.4098">
        <ele>1561</ele>
        <time>2018-10-17T13:26:02Z</time>
      </trkpt>
      <trkpt lat="45.81902" lon="6.4098">
        <ele>1561</ele>
        <time>2018-10-17T13:26:03Z</time>
      </trkpt>
      <trkpt lat="45.81902" lon="6.4098">
        <ele>1560</ele>
        <time>2018-10-17T13:26:04Z</time>
      </trkpt>
      <trkpt lat="45.81903" lon="6.40981">
        <ele>1560</ele>
        <time>2018-10-17T13:26:05Z</time>
      </trkpt>
      <trkpt lat="45.81903" lon="6.40981">
        <ele>1560</ele>
        <time>2018-10-17T13:26:06Z</time>
      </trkpt>
      <trkpt lat="45.81903" lon="6.40981">
        <ele>1559</ele>
        <time>2018-10-17T13:26:07Z</time>
      </trkpt>
      <trkpt lat="45.81903" lon="6.40981">
        <ele>1559</ele>
        <time>2018-10-17T13:26:08Z</time>
      </trkpt>
      <trkpt lat="45.81903" lon="6.40981">
        <ele>1558</ele>
        <time>2018-10-17T13:26:09Z</time>
      </trkpt>
      <trkpt lat="45.81905" lon="6.40982">
        <ele>1558</ele>
        <time>2018-10-17T13:26:10Z</time>
      </trkpt>
      <trkpt lat="45.81905" lon="6.40982">
        <ele>1558</ele>
        <time>2018-10-17T13:26:11Z</time>
      </trkpt>
      <trkpt lat="45.81905" lon="6.40982">
        <ele>1558</ele>
        <time>2018-10-17T13:26:12Z</time>
      </trkpt>
      <trkpt lat="45.81905" lon="6.40982">
        <ele>1558</ele>
        <time>2018-10-17T13:26:13Z</time>
      </trkpt>
      <trkpt lat="45.81905" lon="6.40982">
        <ele>1558</ele>
        <time>2018-10-17T13:26:14Z</time>
      </trkpt>
      <trkpt lat="45.81907" lon="6.40983">
        <ele>1558</ele>
        <time>2018-10-17T13:26:15Z</time>
      </trkpt>
      <trkpt lat="45.81907" lon="6.40983">
        <ele>1558</ele>
        <time>2018-10-17T13:26:16Z</time>
      </trkpt>
      <trkpt lat="45.81909" lon="6.40985">
        <ele>1558</ele>
        <time>2018-10-17T13:26:17Z</time>
      </trkpt>
      <trkpt lat="45.81909" lon="6.40985">
        <ele>1557</ele>
        <time>2018-10-17T13:26:18Z</time>
      </trkpt>
      <trkpt lat="45.81909" lon="6.40985">
        <ele>1557</ele>
        <time>2018-10-17T13:26:19Z</time>
      </trkpt>
      <trkpt lat="45.81909" lon="6.40985">
        <ele>1557</ele>
        <time>2018-10-17T13:26:20Z</time>
      </trkpt>
      <trkpt lat="45.81909" lon="6.40985">
        <ele>1557</ele>
        <time>2018-10-17T13:26:21Z</time>
      </trkpt>
      <trkpt lat="45.8191" lon="6.40987">
        <ele>1557</ele>
        <time>2018-10-17T13:26:22Z</time>
      </trkpt>
      <trkpt lat="45.8191" lon="6.40987">
        <ele>1557</ele>
        <time>2018-10-17T13:26:23Z</time>
      </trkpt>
      <trkpt lat="45.8191" lon="6.40987">
        <ele>1557</ele>
        <time>2018-10-17T13:26:24Z</time>
      </trkpt>
      <trkpt lat="45.8191" lon="6.40987">
        <ele>1557</ele>
        <time>2018-10-17T13:26:25Z</time>
      </trkpt>
      <trkpt lat="45.8191" lon="6.40987">
        <ele>1557</ele>
        <time>2018-10-17T13:26:26Z</time>
      </trkpt>
      <trkpt lat="45.81913" lon="6.40987">
        <ele>1556</ele>
        <time>2018-10-17T13:26:27Z</time>
      </trkpt>
      <trkpt lat="45.81913" lon="6.40987">
        <ele>1555</ele>
        <time>2018-10-17T13:26:28Z</time>
      </trkpt>
      <trkpt lat="45.81913" lon="6.40987">
        <ele>1555</ele>
        <time>2018-10-17T13:26:29Z</time>
      </trkpt>
      <trkpt lat="45.81913" lon="6.40987">
        <ele>1555</ele>
        <time>2018-10-17T13:26:30Z</time>
      </trkpt>
      <trkpt lat="45.81913" lon="6.40987">
        <ele>1555</ele>
        <time>2018-10-17T13:26:31Z</time>
      </trkpt>
      <trkpt lat="45.81914" lon="6.40989">
        <ele>1555</ele>
        <time>2018-10-17T13:26:32Z</time>
      </trkpt>
      <trkpt lat="45.81914" lon="6.40989">
        <ele>1555</ele>
        <time>2018-10-17T13:26:33Z</time>
      </trkpt>
      <trkpt lat="45.81914" lon="6.40989">
        <ele>1554</ele>
        <time>2018-10-17T13:26:34Z</time>
      </trkpt>
      <trkpt lat="45.81914" lon="6.40989">
        <ele>1554</ele>
        <time>2018-10-17T13:26:35Z</time>
      </trkpt>
      <trkpt lat="45.81916" lon="6.4099">
        <ele>1554</ele>
        <time>2018-10-17T13:26:36Z</time>
      </trkpt>
      <trkpt lat="45.81916" lon="6.4099">
        <ele>1554</ele>
        <time>2018-10-17T13:26:37Z</time>
      </trkpt>
      <trkpt lat="45.81916" lon="6.4099">
        <ele>1554</ele>
        <time>2018-10-17T13:26:38Z</time>
      </trkpt>
      <trkpt lat="45.81916" lon="6.4099">
        <ele>1554</ele>
        <time>2018-10-17T13:26:39Z</time>
      </trkpt>
      <trkpt lat="45.81916" lon="6.4099">
        <ele>1554</ele>
        <time>2018-10-17T13:26:40Z</time>
      </trkpt>
      <trkpt lat="45.81916" lon="6.4099">
        <ele>1553</ele>
        <time>2018-10-17T13:26:41Z</time>
      </trkpt>
      <trkpt lat="45.81916" lon="6.40992">
        <ele>1553</ele>
        <time>2018-10-17T13:26:42Z</time>
      </trkpt>
      <trkpt lat="45.81916" lon="6.40992">
        <ele>1552</ele>
        <time>2018-10-17T13:26:43Z</time>
      </trkpt>
      <trkpt lat="45.81916" lon="6.40992">
        <ele>1552</ele>
        <time>2018-10-17T13:26:44Z</time>
      </trkpt>
      <trkpt lat="45.81916" lon="6.40992">
        <ele>1552</ele>
        <time>2018-10-17T13:26:45Z</time>
      </trkpt>
      <trkpt lat="45.81916" lon="6.40992">
        <ele>1552</ele>
        <time>2018-10-17T13:26:46Z</time>
      </trkpt>
      <trkpt lat="45.81916" lon="6.40992">
        <ele>1552</ele>
        <time>2018-10-17T13:26:47Z</time>
      </trkpt>
      <trkpt lat="45.81916" lon="6.40992">
        <ele>1552</ele>
        <time>2018-10-17T13:26:48Z</time>
      </trkpt>
      <trkpt lat="45.81916" lon="6.40992">
        <ele>1552</ele>
        <time>2018-10-17T13:26:49Z</time>
      </trkpt>
      <trkpt lat="45.81916" lon="6.40992">
        <ele>1552</ele>
        <time>2018-10-17T13:26:50Z</time>
      </trkpt>
      <trkpt lat="45.81916" lon="6.40992">
        <ele>1551</ele>
        <time>2018-10-17T13:26:51Z</time>
      </trkpt>
      <trkpt lat="45.81916" lon="6.40992">
        <ele>1551</ele>
        <time>2018-10-17T13:26:52Z</time>
      </trkpt>
      <trkpt lat="45.81916" lon="6.40992">
        <ele>1550</ele>
        <time>2018-10-17T13:26:53Z</time>
      </trkpt>
      <trkpt lat="45.81916" lon="6.40992">
        <ele>1550</ele>
        <time>2018-10-17T13:26:54Z</time>
      </trkpt>
      <trkpt lat="45.81916" lon="6.40992">
        <ele>1550</ele>
        <time>2018-10-17T13:26:55Z</time>
      </trkpt>
      <trkpt lat="45.81916" lon="6.40992">
        <ele>1550</ele>
        <time>2018-10-17T13:26:56Z</time>
      </trkpt>
      <trkpt lat="45.81916" lon="6.40992">
        <ele>1550</ele>
        <time>2018-10-17T13:26:57Z</time>
      </trkpt>
      <trkpt lat="45.81916" lon="6.40992">
        <ele>1550</ele>
        <time>2018-10-17T13:26:58Z</time>
      </trkpt>
      <trkpt lat="45.81916" lon="6.40992">
        <ele>1550</ele>
        <time>2018-10-17T13:26:59Z</time>
      </trkpt>
      <trkpt lat="45.81916" lon="6.40992">
        <ele>1550</ele>
        <time>2018-10-17T13:27:00Z</time>
      </trkpt>
      <trkpt lat="45.81919" lon="6.40993">
        <ele>1550</ele>
        <time>2018-10-17T13:27:01Z</time>
      </trkpt>
      <trkpt lat="45.81919" lon="6.40993">
        <ele>1550</ele>
        <time>2018-10-17T13:27:02Z</time>
      </trkpt>
      <trkpt lat="45.81919" lon="6.40993">
        <ele>1550</ele>
        <time>2018-10-17T13:27:03Z</time>
      </trkpt>
      <trkpt lat="45.81919" lon="6.40993">
        <ele>1550</ele>
        <time>2018-10-17T13:27:04Z</time>
      </trkpt>
      <trkpt lat="45.81921" lon="6.40995">
        <ele>1549</ele>
        <time>2018-10-17T13:27:05Z</time>
      </trkpt>
      <trkpt lat="45.81921" lon="6.40995">
        <ele>1549</ele>
        <time>2018-10-17T13:27:06Z</time>
      </trkpt>
      <trkpt lat="45.81921" lon="6.40995">
        <ele>1549</ele>
        <time>2018-10-17T13:27:07Z</time>
      </trkpt>
      <trkpt lat="45.81921" lon="6.40995">
        <ele>1548</ele>
        <time>2018-10-17T13:27:08Z</time>
      </trkpt>
      <trkpt lat="45.81922" lon="6.40997">
        <ele>1548</ele>
        <time>2018-10-17T13:27:09Z</time>
      </trkpt>
      <trkpt lat="45.81922" lon="6.40997">
        <ele>1547</ele>
        <time>2018-10-17T13:27:10Z</time>
      </trkpt>
      <trkpt lat="45.81922" lon="6.40997">
        <ele>1547</ele>
        <time>2018-10-17T13:27:11Z</time>
      </trkpt>
      <trkpt lat="45.81922" lon="6.40997">
        <ele>1547</ele>
        <time>2018-10-17T13:27:12Z</time>
      </trkpt>
      <trkpt lat="45.81922" lon="6.40997">
        <ele>1547</ele>
        <time>2018-10-17T13:27:13Z</time>
      </trkpt>
      <trkpt lat="45.81922" lon="6.40997">
        <ele>1547</ele>
        <time>2018-10-17T13:27:14Z</time>
      </trkpt>
      <trkpt lat="45.81922" lon="6.40997">
        <ele>1547</ele>
        <time>2018-10-17T13:27:15Z</time>
      </trkpt>
      <trkpt lat="45.81922" lon="6.40997">
        <ele>1547</ele>
        <time>2018-10-17T13:27:16Z</time>
      </trkpt>
      <trkpt lat="45.81922" lon="6.40997">
        <ele>1547</ele>
        <time>2018-10-17T13:27:17Z</time>
      </trkpt>
      <trkpt lat="45.81922" lon="6.40997">
        <ele>1546</ele>
        <time>2018-10-17T13:27:18Z</time>
      </trkpt>
      <trkpt lat="45.81922" lon="6.40997">
        <ele>1546</ele>
        <time>2018-10-17T13:27:19Z</time>
      </trkpt>
      <trkpt lat="45.81922" lon="6.40997">
        <ele>1546</ele>
        <time>2018-10-17T13:27:20Z</time>
      </trkpt>
      <trkpt lat="45.81922" lon="6.40997">
        <ele>1546</ele>
        <time>2018-10-17T13:27:21Z</time>
      </trkpt>
      <trkpt lat="45.81922" lon="6.40997">
        <ele>1546</ele>
        <time>2018-10-17T13:27:22Z</time>
      </trkpt>
      <trkpt lat="45.81924" lon="6.40998">
        <ele>1546</ele>
        <time>2018-10-17T13:27:23Z</time>
      </trkpt>
      <trkpt lat="45.81924" lon="6.40998">
        <ele>1545</ele>
        <time>2018-10-17T13:27:24Z</time>
      </trkpt>
      <trkpt lat="45.81924" lon="6.40998">
        <ele>1545</ele>
        <time>2018-10-17T13:27:25Z</time>
      </trkpt>
      <trkpt lat="45.81926" lon="6.41001">
        <ele>1545</ele>
        <time>2018-10-17T13:27:26Z</time>
      </trkpt>
      <trkpt lat="45.81926" lon="6.41001">
        <ele>1545</ele>
        <time>2018-10-17T13:27:27Z</time>
      </trkpt>
      <trkpt lat="45.81926" lon="6.41001">
        <ele>1545</ele>
        <time>2018-10-17T13:27:28Z</time>
      </trkpt>
      <trkpt lat="45.81928" lon="6.41003">
        <ele>1545</ele>
        <time>2018-10-17T13:27:29Z</time>
      </trkpt>
      <trkpt lat="45.81928" lon="6.41003">
        <ele>1545</ele>
        <time>2018-10-17T13:27:30Z</time>
      </trkpt>
      <trkpt lat="45.81928" lon="6.41003">
        <ele>1544</ele>
        <time>2018-10-17T13:27:31Z</time>
      </trkpt>
      <trkpt lat="45.81928" lon="6.41003">
        <ele>1544</ele>
        <time>2018-10-17T13:27:32Z</time>
      </trkpt>
      <trkpt lat="45.8193" lon="6.41003">
        <ele>1544</ele>
        <time>2018-10-17T13:27:33Z</time>
      </trkpt>
      <trkpt lat="45.8193" lon="6.41003">
        <ele>1544</ele>
        <time>2018-10-17T13:27:34Z</time>
      </trkpt>
      <trkpt lat="45.8193" lon="6.41003">
        <ele>1544</ele>
        <time>2018-10-17T13:27:35Z</time>
      </trkpt>
      <trkpt lat="45.8193" lon="6.41003">
        <ele>1544</ele>
        <time>2018-10-17T13:27:36Z</time>
      </trkpt>
      <trkpt lat="45.81932" lon="6.41003">
        <ele>1543</ele>
        <time>2018-10-17T13:27:37Z</time>
      </trkpt>
      <trkpt lat="45.81932" lon="6.41003">
        <ele>1543</ele>
        <time>2018-10-17T13:27:38Z</time>
      </trkpt>
      <trkpt lat="45.81932" lon="6.41003">
        <ele>1543</ele>
        <time>2018-10-17T13:27:39Z</time>
      </trkpt>
      <trkpt lat="45.81932" lon="6.41003">
        <ele>1543</ele>
        <time>2018-10-17T13:27:40Z</time>
      </trkpt>
      <trkpt lat="45.81933" lon="6.41006">
        <ele>1543</ele>
        <time>2018-10-17T13:27:41Z</time>
      </trkpt>
      <trkpt lat="45.81933" lon="6.41006">
        <ele>1542</ele>
        <time>2018-10-17T13:27:42Z</time>
      </trkpt>
      <trkpt lat="45.81933" lon="6.41006">
        <ele>1542</ele>
        <time>2018-10-17T13:27:43Z</time>
      </trkpt>
      <trkpt lat="45.81933" lon="6.41006">
        <ele>1542</ele>
        <time>2018-10-17T13:27:44Z</time>
      </trkpt>
      <trkpt lat="45.81934" lon="6.41007">
        <ele>1542</ele>
        <time>2018-10-17T13:27:45Z</time>
      </trkpt>
      <trkpt lat="45.81934" lon="6.41007">
        <ele>1541</ele>
        <time>2018-10-17T13:27:46Z</time>
      </trkpt>
      <trkpt lat="45.81934" lon="6.41007">
        <ele>1541</ele>
        <time>2018-10-17T13:27:47Z</time>
      </trkpt>
      <trkpt lat="45.81934" lon="6.41007">
        <ele>1541</ele>
        <time>2018-10-17T13:27:48Z</time>
      </trkpt>
      <trkpt lat="45.81937" lon="6.41008">
        <ele>1541</ele>
        <time>2018-10-17T13:27:49Z</time>
      </trkpt>
      <trkpt lat="45.81937" lon="6.41008">
        <ele>1540</ele>
        <time>2018-10-17T13:27:50Z</time>
      </trkpt>
      <trkpt lat="45.81937" lon="6.41008">
        <ele>1540</ele>
        <time>2018-10-17T13:27:51Z</time>
      </trkpt>
      <trkpt lat="45.81937" lon="6.41008">
        <ele>1540</ele>
        <time>2018-10-17T13:27:52Z</time>
      </trkpt>
      <trkpt lat="45.81937" lon="6.41008">
        <ele>1540</ele>
        <time>2018-10-17T13:27:53Z</time>
      </trkpt>
      <trkpt lat="45.81937" lon="6.41008">
        <ele>1540</ele>
        <time>2018-10-17T13:27:54Z</time>
      </trkpt>
      <trkpt lat="45.81937" lon="6.41008">
        <ele>1540</ele>
        <time>2018-10-17T13:27:55Z</time>
      </trkpt>
      <trkpt lat="45.81937" lon="6.41008">
        <ele>1540</ele>
        <time>2018-10-17T13:27:56Z</time>
      </trkpt>
      <trkpt lat="45.81937" lon="6.41008">
        <ele>1540</ele>
        <time>2018-10-17T13:27:57Z</time>
      </trkpt>
      <trkpt lat="45.81937" lon="6.41008">
        <ele>1539</ele>
        <time>2018-10-17T13:27:58Z</time>
      </trkpt>
      <trkpt lat="45.81937" lon="6.41008">
        <ele>1539</ele>
        <time>2018-10-17T13:27:59Z</time>
      </trkpt>
      <trkpt lat="45.81938" lon="6.4101">
        <ele>1539</ele>
        <time>2018-10-17T13:28:00Z</time>
      </trkpt>
      <trkpt lat="45.81938" lon="6.4101">
        <ele>1539</ele>
        <time>2018-10-17T13:28:01Z</time>
      </trkpt>
      <trkpt lat="45.81938" lon="6.4101">
        <ele>1539</ele>
        <time>2018-10-17T13:28:02Z</time>
      </trkpt>
      <trkpt lat="45.81938" lon="6.4101">
        <ele>1539</ele>
        <time>2018-10-17T13:28:03Z</time>
      </trkpt>
      <trkpt lat="45.81939" lon="6.41013">
        <ele>1538</ele>
        <time>2018-10-17T13:28:04Z</time>
      </trkpt>
      <trkpt lat="45.81939" lon="6.41013">
        <ele>1538</ele>
        <time>2018-10-17T13:28:05Z</time>
      </trkpt>
      <trkpt lat="45.81939" lon="6.41013">
        <ele>1537</ele>
        <time>2018-10-17T13:28:06Z</time>
      </trkpt>
      <trkpt lat="45.81941" lon="6.41014">
        <ele>1537</ele>
        <time>2018-10-17T13:28:07Z</time>
      </trkpt>
      <trkpt lat="45.81941" lon="6.41014">
        <ele>1537</ele>
        <time>2018-10-17T13:28:08Z</time>
      </trkpt>
      <trkpt lat="45.81941" lon="6.41014">
        <ele>1537</ele>
        <time>2018-10-17T13:28:09Z</time>
      </trkpt>
      <trkpt lat="45.81941" lon="6.41014">
        <ele>1537</ele>
        <time>2018-10-17T13:28:10Z</time>
      </trkpt>
      <trkpt lat="45.81941" lon="6.41014">
        <ele>1537</ele>
        <time>2018-10-17T13:28:11Z</time>
      </trkpt>
      <trkpt lat="45.81941" lon="6.41014">
        <ele>1537</ele>
        <time>2018-10-17T13:28:12Z</time>
      </trkpt>
      <trkpt lat="45.81943" lon="6.41015">
        <ele>1536</ele>
        <time>2018-10-17T13:28:13Z</time>
      </trkpt>
      <trkpt lat="45.81943" lon="6.41015">
        <ele>1536</ele>
        <time>2018-10-17T13:28:14Z</time>
      </trkpt>
      <trkpt lat="45.81943" lon="6.41015">
        <ele>1536</ele>
        <time>2018-10-17T13:28:15Z</time>
      </trkpt>
      <trkpt lat="45.81943" lon="6.41015">
        <ele>1536</ele>
        <time>2018-10-17T13:28:16Z</time>
      </trkpt>
      <trkpt lat="45.81944" lon="6.41016">
        <ele>1536</ele>
        <time>2018-10-17T13:28:17Z</time>
      </trkpt>
      <trkpt lat="45.81944" lon="6.41016">
        <ele>1535</ele>
        <time>2018-10-17T13:28:18Z</time>
      </trkpt>
      <trkpt lat="45.81944" lon="6.41016">
        <ele>1535</ele>
        <time>2018-10-17T13:28:19Z</time>
      </trkpt>
      <trkpt lat="45.81947" lon="6.41016">
        <ele>1534</ele>
        <time>2018-10-17T13:28:20Z</time>
      </trkpt>
      <trkpt lat="45.81947" lon="6.41016">
        <ele>1534</ele>
        <time>2018-10-17T13:28:21Z</time>
      </trkpt>
      <trkpt lat="45.81947" lon="6.41016">
        <ele>1534</ele>
        <time>2018-10-17T13:28:22Z</time>
      </trkpt>
      <trkpt lat="45.81947" lon="6.41016">
        <ele>1533</ele>
        <time>2018-10-17T13:28:23Z</time>
      </trkpt>
      <trkpt lat="45.81947" lon="6.41016">
        <ele>1533</ele>
        <time>2018-10-17T13:28:24Z</time>
      </trkpt>
      <trkpt lat="45.81948" lon="6.41018">
        <ele>1533</ele>
        <time>2018-10-17T13:28:25Z</time>
      </trkpt>
      <trkpt lat="45.81948" lon="6.41018">
        <ele>1533</ele>
        <time>2018-10-17T13:28:26Z</time>
      </trkpt>
      <trkpt lat="45.81948" lon="6.41018">
        <ele>1533</ele>
        <time>2018-10-17T13:28:27Z</time>
      </trkpt>
      <trkpt lat="45.81948" lon="6.41018">
        <ele>1533</ele>
        <time>2018-10-17T13:28:28Z</time>
      </trkpt>
      <trkpt lat="45.8195" lon="6.41019">
        <ele>1533</ele>
        <time>2018-10-17T13:28:29Z</time>
      </trkpt>
      <trkpt lat="45.8195" lon="6.41019">
        <ele>1533</ele>
        <time>2018-10-17T13:28:30Z</time>
      </trkpt>
      <trkpt lat="45.8195" lon="6.41019">
        <ele>1533</ele>
        <time>2018-10-17T13:28:31Z</time>
      </trkpt>
      <trkpt lat="45.81951" lon="6.4102">
        <ele>1532</ele>
        <time>2018-10-17T13:28:32Z</time>
      </trkpt>
      <trkpt lat="45.81951" lon="6.4102">
        <ele>1532</ele>
        <time>2018-10-17T13:28:33Z</time>
      </trkpt>
      <trkpt lat="45.81951" lon="6.4102">
        <ele>1532</ele>
        <time>2018-10-17T13:28:34Z</time>
      </trkpt>
      <trkpt lat="45.81953" lon="6.41022">
        <ele>1531</ele>
        <time>2018-10-17T13:28:35Z</time>
      </trkpt>
      <trkpt lat="45.81953" lon="6.41022">
        <ele>1531</ele>
        <time>2018-10-17T13:28:36Z</time>
      </trkpt>
      <trkpt lat="45.81953" lon="6.41022">
        <ele>1531</ele>
        <time>2018-10-17T13:28:37Z</time>
      </trkpt>
      <trkpt lat="45.81953" lon="6.41022">
        <ele>1531</ele>
        <time>2018-10-17T13:28:38Z</time>
      </trkpt>
      <trkpt lat="45.81953" lon="6.41022">
        <ele>1531</ele>
        <time>2018-10-17T13:28:39Z</time>
      </trkpt>
      <trkpt lat="45.81955" lon="6.41023">
        <ele>1530</ele>
        <time>2018-10-17T13:28:40Z</time>
      </trkpt>
      <trkpt lat="45.81955" lon="6.41023">
        <ele>1530</ele>
        <time>2018-10-17T13:28:41Z</time>
      </trkpt>
      <trkpt lat="45.81955" lon="6.41023">
        <ele>1530</ele>
        <time>2018-10-17T13:28:42Z</time>
      </trkpt>
      <trkpt lat="45.81955" lon="6.41023">
        <ele>1529</ele>
        <time>2018-10-17T13:28:43Z</time>
      </trkpt>
      <trkpt lat="45.81956" lon="6.41024">
        <ele>1529</ele>
        <time>2018-10-17T13:28:44Z</time>
      </trkpt>
      <trkpt lat="45.81956" lon="6.41024">
        <ele>1529</ele>
        <time>2018-10-17T13:28:45Z</time>
      </trkpt>
      <trkpt lat="45.81956" lon="6.41024">
        <ele>1529</ele>
        <time>2018-10-17T13:28:46Z</time>
      </trkpt>
      <trkpt lat="45.81956" lon="6.41024">
        <ele>1529</ele>
        <time>2018-10-17T13:28:47Z</time>
      </trkpt>
      <trkpt lat="45.81956" lon="6.41024">
        <ele>1528</ele>
        <time>2018-10-17T13:28:48Z</time>
      </trkpt>
      <trkpt lat="45.81956" lon="6.41024">
        <ele>1528</ele>
        <time>2018-10-17T13:28:49Z</time>
      </trkpt>
      <trkpt lat="45.81956" lon="6.41024">
        <ele>1528</ele>
        <time>2018-10-17T13:28:50Z</time>
      </trkpt>
      <trkpt lat="45.81956" lon="6.41024">
        <ele>1527</ele>
        <time>2018-10-17T13:28:51Z</time>
      </trkpt>
      <trkpt lat="45.81956" lon="6.41024">
        <ele>1527</ele>
        <time>2018-10-17T13:28:52Z</time>
      </trkpt>
      <trkpt lat="45.81958" lon="6.41025">
        <ele>1527</ele>
        <time>2018-10-17T13:28:53Z</time>
      </trkpt>
      <trkpt lat="45.81958" lon="6.41025">
        <ele>1527</ele>
        <time>2018-10-17T13:28:54Z</time>
      </trkpt>
      <trkpt lat="45.81958" lon="6.41025">
        <ele>1527</ele>
        <time>2018-10-17T13:28:55Z</time>
      </trkpt>
      <trkpt lat="45.81958" lon="6.41025">
        <ele>1527</ele>
        <time>2018-10-17T13:28:56Z</time>
      </trkpt>
      <trkpt lat="45.81958" lon="6.41025">
        <ele>1526</ele>
        <time>2018-10-17T13:28:57Z</time>
      </trkpt>
      <trkpt lat="45.81958" lon="6.41025">
        <ele>1526</ele>
        <time>2018-10-17T13:28:58Z</time>
      </trkpt>
      <trkpt lat="45.81958" lon="6.41025">
        <ele>1526</ele>
        <time>2018-10-17T13:28:59Z</time>
      </trkpt>
      <trkpt lat="45.8196" lon="6.41026">
        <ele>1525</ele>
        <time>2018-10-17T13:29:00Z</time>
      </trkpt>
      <trkpt lat="45.8196" lon="6.41026">
        <ele>1525</ele>
        <time>2018-10-17T13:29:01Z</time>
      </trkpt>
      <trkpt lat="45.8196" lon="6.41026">
        <ele>1525</ele>
        <time>2018-10-17T13:29:02Z</time>
      </trkpt>
      <trkpt lat="45.8196" lon="6.41026">
        <ele>1525</ele>
        <time>2018-10-17T13:29:03Z</time>
      </trkpt>
      <trkpt lat="45.81961" lon="6.41028">
        <ele>1525</ele>
        <time>2018-10-17T13:29:04Z</time>
      </trkpt>
      <trkpt lat="45.81961" lon="6.41028">
        <ele>1524</ele>
        <time>2018-10-17T13:29:05Z</time>
      </trkpt>
      <trkpt lat="45.81961" lon="6.41028">
        <ele>1524</ele>
        <time>2018-10-17T13:29:06Z</time>
      </trkpt>
      <trkpt lat="45.81962" lon="6.4103">
        <ele>1524</ele>
        <time>2018-10-17T13:29:07Z</time>
      </trkpt>
      <trkpt lat="45.81962" lon="6.4103">
        <ele>1524</ele>
        <time>2018-10-17T13:29:08Z</time>
      </trkpt>
      <trkpt lat="45.81962" lon="6.4103">
        <ele>1523</ele>
        <time>2018-10-17T13:29:09Z</time>
      </trkpt>
      <trkpt lat="45.81962" lon="6.4103">
        <ele>1523</ele>
        <time>2018-10-17T13:29:10Z</time>
      </trkpt>
      <trkpt lat="45.81962" lon="6.4103">
        <ele>1523</ele>
        <time>2018-10-17T13:29:11Z</time>
      </trkpt>
      <trkpt lat="45.81964" lon="6.4103">
        <ele>1523</ele>
        <time>2018-10-17T13:29:12Z</time>
      </trkpt>
      <trkpt lat="45.81964" lon="6.4103">
        <ele>1523</ele>
        <time>2018-10-17T13:29:13Z</time>
      </trkpt>
      <trkpt lat="45.81964" lon="6.4103">
        <ele>1523</ele>
        <time>2018-10-17T13:29:14Z</time>
      </trkpt>
      <trkpt lat="45.81964" lon="6.4103">
        <ele>1522</ele>
        <time>2018-10-17T13:29:15Z</time>
      </trkpt>
      <trkpt lat="45.81964" lon="6.4103">
        <ele>1522</ele>
        <time>2018-10-17T13:29:16Z</time>
      </trkpt>
      <trkpt lat="45.81966" lon="6.41031">
        <ele>1522</ele>
        <time>2018-10-17T13:29:17Z</time>
      </trkpt>
      <trkpt lat="45.81966" lon="6.41031">
        <ele>1522</ele>
        <time>2018-10-17T13:29:18Z</time>
      </trkpt>
      <trkpt lat="45.81966" lon="6.41031">
        <ele>1521</ele>
        <time>2018-10-17T13:29:19Z</time>
      </trkpt>
      <trkpt lat="45.81966" lon="6.41031">
        <ele>1521</ele>
        <time>2018-10-17T13:29:20Z</time>
      </trkpt>
      <trkpt lat="45.81966" lon="6.41031">
        <ele>1521</ele>
        <time>2018-10-17T13:29:21Z</time>
      </trkpt>
      <trkpt lat="45.81966" lon="6.41031">
        <ele>1521</ele>
        <time>2018-10-17T13:29:22Z</time>
      </trkpt>
      <trkpt lat="45.81966" lon="6.41031">
        <ele>1521</ele>
        <time>2018-10-17T13:29:23Z</time>
      </trkpt>
      <trkpt lat="45.81967" lon="6.41033">
        <ele>1521</ele>
        <time>2018-10-17T13:29:24Z</time>
      </trkpt>
      <trkpt lat="45.81967" lon="6.41033">
        <ele>1520</ele>
        <time>2018-10-17T13:29:25Z</time>
      </trkpt>
      <trkpt lat="45.81967" lon="6.41033">
        <ele>1520</ele>
        <time>2018-10-17T13:29:26Z</time>
      </trkpt>
      <trkpt lat="45.81967" lon="6.41033">
        <ele>1520</ele>
        <time>2018-10-17T13:29:27Z</time>
      </trkpt>
      <trkpt lat="45.81967" lon="6.41033">
        <ele>1520</ele>
        <time>2018-10-17T13:29:28Z</time>
      </trkpt>
      <trkpt lat="45.81967" lon="6.41033">
        <ele>1519</ele>
        <time>2018-10-17T13:29:29Z</time>
      </trkpt>
      <trkpt lat="45.81969" lon="6.41036">
        <ele>1519</ele>
        <time>2018-10-17T13:29:30Z</time>
      </trkpt>
      <trkpt lat="45.81969" lon="6.41036">
        <ele>1519</ele>
        <time>2018-10-17T13:29:31Z</time>
      </trkpt>
      <trkpt lat="45.81969" lon="6.41036">
        <ele>1519</ele>
        <time>2018-10-17T13:29:32Z</time>
      </trkpt>
      <trkpt lat="45.81969" lon="6.41036">
        <ele>1519</ele>
        <time>2018-10-17T13:29:33Z</time>
      </trkpt>
      <trkpt lat="45.81969" lon="6.41036">
        <ele>1519</ele>
        <time>2018-10-17T13:29:34Z</time>
      </trkpt>
      <trkpt lat="45.81968" lon="6.41038">
        <ele>1519</ele>
        <time>2018-10-17T13:29:35Z</time>
      </trkpt>
      <trkpt lat="45.81968" lon="6.41038">
        <ele>1519</ele>
        <time>2018-10-17T13:29:36Z</time>
      </trkpt>
      <trkpt lat="45.81968" lon="6.41038">
        <ele>1518</ele>
        <time>2018-10-17T13:29:37Z</time>
      </trkpt>
      <trkpt lat="45.81968" lon="6.41038">
        <ele>1518</ele>
        <time>2018-10-17T13:29:38Z</time>
      </trkpt>
      <trkpt lat="45.81968" lon="6.41038">
        <ele>1518</ele>
        <time>2018-10-17T13:29:39Z</time>
      </trkpt>
      <trkpt lat="45.81968" lon="6.41038">
        <ele>1517</ele>
        <time>2018-10-17T13:29:40Z</time>
      </trkpt>
      <trkpt lat="45.81968" lon="6.41038">
        <ele>1517</ele>
        <time>2018-10-17T13:29:41Z</time>
      </trkpt>
      <trkpt lat="45.81968" lon="6.41038">
        <ele>1517</ele>
        <time>2018-10-17T13:29:42Z</time>
      </trkpt>
      <trkpt lat="45.81968" lon="6.41038">
        <ele>1517</ele>
        <time>2018-10-17T13:29:43Z</time>
      </trkpt>
      <trkpt lat="45.81968" lon="6.41038">
        <ele>1517</ele>
        <time>2018-10-17T13:29:44Z</time>
      </trkpt>
      <trkpt lat="45.81968" lon="6.41038">
        <ele>1517</ele>
        <time>2018-10-17T13:29:45Z</time>
      </trkpt>
      <trkpt lat="45.8197" lon="6.4104">
        <ele>1517</ele>
        <time>2018-10-17T13:29:46Z</time>
      </trkpt>
      <trkpt lat="45.8197" lon="6.4104">
        <ele>1517</ele>
        <time>2018-10-17T13:29:47Z</time>
      </trkpt>
      <trkpt lat="45.8197" lon="6.4104">
        <ele>1516</ele>
        <time>2018-10-17T13:29:48Z</time>
      </trkpt>
      <trkpt lat="45.8197" lon="6.4104">
        <ele>1516</ele>
        <time>2018-10-17T13:29:49Z</time>
      </trkpt>
      <trkpt lat="45.8197" lon="6.4104">
        <ele>1516</ele>
        <time>2018-10-17T13:29:50Z</time>
      </trkpt>
      <trkpt lat="45.8197" lon="6.4104">
        <ele>1516</ele>
        <time>2018-10-17T13:29:51Z</time>
      </trkpt>
      <trkpt lat="45.8197" lon="6.4104">
        <ele>1516</ele>
        <time>2018-10-17T13:29:52Z</time>
      </trkpt>
      <trkpt lat="45.8197" lon="6.4104">
        <ele>1516</ele>
        <time>2018-10-17T13:29:53Z</time>
      </trkpt>
      <trkpt lat="45.8197" lon="6.4104">
        <ele>1516</ele>
        <time>2018-10-17T13:29:54Z</time>
      </trkpt>
      <trkpt lat="45.8197" lon="6.4104">
        <ele>1515</ele>
        <time>2018-10-17T13:29:55Z</time>
      </trkpt>
      <trkpt lat="45.81971" lon="6.41041">
        <ele>1515</ele>
        <time>2018-10-17T13:29:56Z</time>
      </trkpt>
      <trkpt lat="45.81971" lon="6.41041">
        <ele>1514</ele>
        <time>2018-10-17T13:29:57Z</time>
      </trkpt>
      <trkpt lat="45.81971" lon="6.41041">
        <ele>1514</ele>
        <time>2018-10-17T13:29:58Z</time>
      </trkpt>
      <trkpt lat="45.81971" lon="6.41041">
        <ele>1514</ele>
        <time>2018-10-17T13:29:59Z</time>
      </trkpt>
      <trkpt lat="45.81971" lon="6.41041">
        <ele>1514</ele>
        <time>2018-10-17T13:30:00Z</time>
      </trkpt>
      <trkpt lat="45.81971" lon="6.41041">
        <ele>1514</ele>
        <time>2018-10-17T13:30:01Z</time>
      </trkpt>
      <trkpt lat="45.81971" lon="6.41041">
        <ele>1514</ele>
        <time>2018-10-17T13:30:02Z</time>
      </trkpt>
      <trkpt lat="45.81971" lon="6.41041">
        <ele>1514</ele>
        <time>2018-10-17T13:30:03Z</time>
      </trkpt>
      <trkpt lat="45.81971" lon="6.41041">
        <ele>1514</ele>
        <time>2018-10-17T13:30:04Z</time>
      </trkpt>
      <trkpt lat="45.81971" lon="6.41041">
        <ele>1514</ele>
        <time>2018-10-17T13:30:05Z</time>
      </trkpt>
      <trkpt lat="45.81974" lon="6.41044">
        <ele>1514</ele>
        <time>2018-10-17T13:30:06Z</time>
      </trkpt>
      <trkpt lat="45.81975" lon="6.41046">
        <ele>1514</ele>
        <time>2018-10-17T13:30:07Z</time>
      </trkpt>
      <trkpt lat="45.81978" lon="6.41048">
        <ele>1514</ele>
        <time>2018-10-17T13:30:08Z</time>
      </trkpt>
      <trkpt lat="45.81979" lon="6.41048">
        <ele>1514</ele>
        <time>2018-10-17T13:30:09Z</time>
      </trkpt>
      <trkpt lat="45.81979" lon="6.41048">
        <ele>1513</ele>
        <time>2018-10-17T13:30:10Z</time>
      </trkpt>
      <trkpt lat="45.81979" lon="6.41048">
        <ele>1512</ele>
        <time>2018-10-17T13:30:11Z</time>
      </trkpt>
      <trkpt lat="45.81979" lon="6.41048">
        <ele>1512</ele>
        <time>2018-10-17T13:30:12Z</time>
      </trkpt>
      <trkpt lat="45.81979" lon="6.41048">
        <ele>1512</ele>
        <time>2018-10-17T13:30:13Z</time>
      </trkpt>
      <trkpt lat="45.81981" lon="6.41045">
        <ele>1512</ele>
        <time>2018-10-17T13:30:14Z</time>
      </trkpt>
      <trkpt lat="45.81981" lon="6.41045">
        <ele>1512</ele>
        <time>2018-10-17T13:30:15Z</time>
      </trkpt>
      <trkpt lat="45.81983" lon="6.41044">
        <ele>1512</ele>
        <time>2018-10-17T13:30:16Z</time>
      </trkpt>
      <trkpt lat="45.81983" lon="6.41044">
        <ele>1512</ele>
        <time>2018-10-17T13:30:17Z</time>
      </trkpt>
      <trkpt lat="45.81985" lon="6.41042">
        <ele>1512</ele>
        <time>2018-10-17T13:30:18Z</time>
      </trkpt>
      <trkpt lat="45.81985" lon="6.41042">
        <ele>1511</ele>
        <time>2018-10-17T13:30:19Z</time>
      </trkpt>
      <trkpt lat="45.81987" lon="6.41041">
        <ele>1511</ele>
        <time>2018-10-17T13:30:20Z</time>
      </trkpt>
      <trkpt lat="45.81987" lon="6.41041">
        <ele>1511</ele>
        <time>2018-10-17T13:30:21Z</time>
      </trkpt>
      <trkpt lat="45.81989" lon="6.4104">
        <ele>1510</ele>
        <time>2018-10-17T13:30:22Z</time>
      </trkpt>
      <trkpt lat="45.81989" lon="6.4104">
        <ele>1510</ele>
        <time>2018-10-17T13:30:23Z</time>
      </trkpt>
      <trkpt lat="45.81992" lon="6.41039">
        <ele>1510</ele>
        <time>2018-10-17T13:30:24Z</time>
      </trkpt>
      <trkpt lat="45.81992" lon="6.41039">
        <ele>1509</ele>
        <time>2018-10-17T13:30:25Z</time>
      </trkpt>
      <trkpt lat="45.81993" lon="6.41038">
        <ele>1509</ele>
        <time>2018-10-17T13:30:26Z</time>
      </trkpt>
      <trkpt lat="45.81993" lon="6.41038">
        <ele>1509</ele>
        <time>2018-10-17T13:30:27Z</time>
      </trkpt>
      <trkpt lat="45.81995" lon="6.41037">
        <ele>1509</ele>
        <time>2018-10-17T13:30:28Z</time>
      </trkpt>
      <trkpt lat="45.81995" lon="6.41037">
        <ele>1508</ele>
        <time>2018-10-17T13:30:29Z</time>
      </trkpt>
      <trkpt lat="45.81997" lon="6.41036">
        <ele>1508</ele>
        <time>2018-10-17T13:30:30Z</time>
      </trkpt>
      <trkpt lat="45.81997" lon="6.41036">
        <ele>1508</ele>
        <time>2018-10-17T13:30:31Z</time>
      </trkpt>
      <trkpt lat="45.81999" lon="6.41035">
        <ele>1507</ele>
        <time>2018-10-17T13:30:32Z</time>
      </trkpt>
      <trkpt lat="45.81999" lon="6.41035">
        <ele>1507</ele>
        <time>2018-10-17T13:30:33Z</time>
      </trkpt>
      <trkpt lat="45.82002" lon="6.41034">
        <ele>1507</ele>
        <time>2018-10-17T13:30:34Z</time>
      </trkpt>
      <trkpt lat="45.82002" lon="6.41034">
        <ele>1507</ele>
        <time>2018-10-17T13:30:35Z</time>
      </trkpt>
      <trkpt lat="45.82005" lon="6.41033">
        <ele>1507</ele>
        <time>2018-10-17T13:30:36Z</time>
      </trkpt>
      <trkpt lat="45.82005" lon="6.41033">
        <ele>1506</ele>
        <time>2018-10-17T13:30:37Z</time>
      </trkpt>
      <trkpt lat="45.82007" lon="6.41032">
        <ele>1506</ele>
        <time>2018-10-17T13:30:38Z</time>
      </trkpt>
      <trkpt lat="45.82007" lon="6.41032">
        <ele>1506</ele>
        <time>2018-10-17T13:30:39Z</time>
      </trkpt>
      <trkpt lat="45.8201" lon="6.41031">
        <ele>1505</ele>
        <time>2018-10-17T13:30:40Z</time>
      </trkpt>
      <trkpt lat="45.8201" lon="6.41031">
        <ele>1505</ele>
        <time>2018-10-17T13:30:41Z</time>
      </trkpt>
      <trkpt lat="45.82012" lon="6.4103">
        <ele>1505</ele>
        <time>2018-10-17T13:30:42Z</time>
      </trkpt>
      <trkpt lat="45.82012" lon="6.4103">
        <ele>1505</ele>
        <time>2018-10-17T13:30:43Z</time>
      </trkpt>
      <trkpt lat="45.82015" lon="6.41029">
        <ele>1505</ele>
        <time>2018-10-17T13:30:44Z</time>
      </trkpt>
      <trkpt lat="45.82015" lon="6.41029">
        <ele>1505</ele>
        <time>2018-10-17T13:30:45Z</time>
      </trkpt>
      <trkpt lat="45.82017" lon="6.41027">
        <ele>1505</ele>
        <time>2018-10-17T13:30:46Z</time>
      </trkpt>
      <trkpt lat="45.82017" lon="6.41027">
        <ele>1505</ele>
        <time>2018-10-17T13:30:47Z</time>
      </trkpt>
      <trkpt lat="45.82019" lon="6.41026">
        <ele>1504</ele>
        <time>2018-10-17T13:30:48Z</time>
      </trkpt>
      <trkpt lat="45.82019" lon="6.41026">
        <ele>1503</ele>
        <time>2018-10-17T13:30:49Z</time>
      </trkpt>
      <trkpt lat="45.82022" lon="6.41025">
        <ele>1503</ele>
        <time>2018-10-17T13:30:50Z</time>
      </trkpt>
      <trkpt lat="45.82022" lon="6.41025">
        <ele>1503</ele>
        <time>2018-10-17T13:30:51Z</time>
      </trkpt>
      <trkpt lat="45.82025" lon="6.41025">
        <ele>1503</ele>
        <time>2018-10-17T13:30:52Z</time>
      </trkpt>
      <trkpt lat="45.82025" lon="6.41025">
        <ele>1503</ele>
        <time>2018-10-17T13:30:53Z</time>
      </trkpt>
      <trkpt lat="45.82027" lon="6.41023">
        <ele>1503</ele>
        <time>2018-10-17T13:30:54Z</time>
      </trkpt>
      <trkpt lat="45.82027" lon="6.41023">
        <ele>1503</ele>
        <time>2018-10-17T13:30:55Z</time>
      </trkpt>
      <trkpt lat="45.8203" lon="6.41022">
        <ele>1502</ele>
        <time>2018-10-17T13:30:56Z</time>
      </trkpt>
      <trkpt lat="45.8203" lon="6.41022">
        <ele>1502</ele>
        <time>2018-10-17T13:30:57Z</time>
      </trkpt>
      <trkpt lat="45.82033" lon="6.41021">
        <ele>1502</ele>
        <time>2018-10-17T13:30:58Z</time>
      </trkpt>
      <trkpt lat="45.82033" lon="6.41021">
        <ele>1501</ele>
        <time>2018-10-17T13:30:59Z</time>
      </trkpt>
      <trkpt lat="45.82036" lon="6.4102">
        <ele>1501</ele>
        <time>2018-10-17T13:31:00Z</time>
      </trkpt>
      <trkpt lat="45.82036" lon="6.4102">
        <ele>1500</ele>
        <time>2018-10-17T13:31:01Z</time>
      </trkpt>
      <trkpt lat="45.82039" lon="6.41018">
        <ele>1500</ele>
        <time>2018-10-17T13:31:02Z</time>
      </trkpt>
      <trkpt lat="45.82039" lon="6.41018">
        <ele>1500</ele>
        <time>2018-10-17T13:31:03Z</time>
      </trkpt>
      <trkpt lat="45.82042" lon="6.41017">
        <ele>1500</ele>
        <time>2018-10-17T13:31:04Z</time>
      </trkpt>
      <trkpt lat="45.82042" lon="6.41017">
        <ele>1500</ele>
        <time>2018-10-17T13:31:05Z</time>
      </trkpt>
      <trkpt lat="45.82044" lon="6.41016">
        <ele>1500</ele>
        <time>2018-10-17T13:31:06Z</time>
      </trkpt>
      <trkpt lat="45.82044" lon="6.41016">
        <ele>1500</ele>
        <time>2018-10-17T13:31:07Z</time>
      </trkpt>
      <trkpt lat="45.82047" lon="6.41015">
        <ele>1500</ele>
        <time>2018-10-17T13:31:08Z</time>
      </trkpt>
      <trkpt lat="45.82047" lon="6.41015">
        <ele>1500</ele>
        <time>2018-10-17T13:31:09Z</time>
      </trkpt>
      <trkpt lat="45.8205" lon="6.41015">
        <ele>1500</ele>
        <time>2018-10-17T13:31:10Z</time>
      </trkpt>
      <trkpt lat="45.8205" lon="6.41015">
        <ele>1499</ele>
        <time>2018-10-17T13:31:11Z</time>
      </trkpt>
      <trkpt lat="45.82053" lon="6.41014">
        <ele>1499</ele>
        <time>2018-10-17T13:31:12Z</time>
      </trkpt>
      <trkpt lat="45.82053" lon="6.41014">
        <ele>1499</ele>
        <time>2018-10-17T13:31:13Z</time>
      </trkpt>
      <trkpt lat="45.82056" lon="6.41014">
        <ele>1499</ele>
        <time>2018-10-17T13:31:14Z</time>
      </trkpt>
      <trkpt lat="45.82056" lon="6.41014">
        <ele>1499</ele>
        <time>2018-10-17T13:31:15Z</time>
      </trkpt>
      <trkpt lat="45.82058" lon="6.41013">
        <ele>1499</ele>
        <time>2018-10-17T13:31:16Z</time>
      </trkpt>
      <trkpt lat="45.82058" lon="6.41013">
        <ele>1499</ele>
        <time>2018-10-17T13:31:17Z</time>
      </trkpt>
      <trkpt lat="45.8206" lon="6.41012">
        <ele>1498</ele>
        <time>2018-10-17T13:31:18Z</time>
      </trkpt>
      <trkpt lat="45.8206" lon="6.41012">
        <ele>1498</ele>
        <time>2018-10-17T13:31:19Z</time>
      </trkpt>
      <trkpt lat="45.82063" lon="6.41013">
        <ele>1497</ele>
        <time>2018-10-17T13:31:20Z</time>
      </trkpt>
      <trkpt lat="45.82063" lon="6.41013">
        <ele>1497</ele>
        <time>2018-10-17T13:31:21Z</time>
      </trkpt>
      <trkpt lat="45.82066" lon="6.41013">
        <ele>1497</ele>
        <time>2018-10-17T13:31:22Z</time>
      </trkpt>
      <trkpt lat="45.82066" lon="6.41013">
        <ele>1497</ele>
        <time>2018-10-17T13:31:23Z</time>
      </trkpt>
      <trkpt lat="45.82069" lon="6.41013">
        <ele>1497</ele>
        <time>2018-10-17T13:31:24Z</time>
      </trkpt>
      <trkpt lat="45.82069" lon="6.41013">
        <ele>1497</ele>
        <time>2018-10-17T13:31:25Z</time>
      </trkpt>
      <trkpt lat="45.82072" lon="6.41013">
        <ele>1497</ele>
        <time>2018-10-17T13:31:26Z</time>
      </trkpt>
      <trkpt lat="45.82072" lon="6.41013">
        <ele>1497</ele>
        <time>2018-10-17T13:31:27Z</time>
      </trkpt>
      <trkpt lat="45.82075" lon="6.41012">
        <ele>1497</ele>
        <time>2018-10-17T13:31:28Z</time>
      </trkpt>
      <trkpt lat="45.82075" lon="6.41012">
        <ele>1496</ele>
        <time>2018-10-17T13:31:29Z</time>
      </trkpt>
      <trkpt lat="45.82078" lon="6.41012">
        <ele>1496</ele>
        <time>2018-10-17T13:31:30Z</time>
      </trkpt>
      <trkpt lat="45.82078" lon="6.41012">
        <ele>1496</ele>
        <time>2018-10-17T13:31:31Z</time>
      </trkpt>
      <trkpt lat="45.82081" lon="6.41012">
        <ele>1496</ele>
        <time>2018-10-17T13:31:32Z</time>
      </trkpt>
      <trkpt lat="45.82081" lon="6.41012">
        <ele>1496</ele>
        <time>2018-10-17T13:31:33Z</time>
      </trkpt>
      <trkpt lat="45.82084" lon="6.41012">
        <ele>1496</ele>
        <time>2018-10-17T13:31:34Z</time>
      </trkpt>
      <trkpt lat="45.82084" lon="6.41012">
        <ele>1496</ele>
        <time>2018-10-17T13:31:35Z</time>
      </trkpt>
      <trkpt lat="45.82086" lon="6.41012">
        <ele>1495</ele>
        <time>2018-10-17T13:31:36Z</time>
      </trkpt>
      <trkpt lat="45.82086" lon="6.41012">
        <ele>1495</ele>
        <time>2018-10-17T13:31:37Z</time>
      </trkpt>
      <trkpt lat="45.82089" lon="6.41011">
        <ele>1494</ele>
        <time>2018-10-17T13:31:38Z</time>
      </trkpt>
      <trkpt lat="45.82089" lon="6.41011">
        <ele>1494</ele>
        <time>2018-10-17T13:31:39Z</time>
      </trkpt>
      <trkpt lat="45.82091" lon="6.4101">
        <ele>1494</ele>
        <time>2018-10-17T13:31:40Z</time>
      </trkpt>
      <trkpt lat="45.82091" lon="6.4101">
        <ele>1494</ele>
        <time>2018-10-17T13:31:41Z</time>
      </trkpt>
      <trkpt lat="45.82094" lon="6.41009">
        <ele>1493</ele>
        <time>2018-10-17T13:31:42Z</time>
      </trkpt>
      <trkpt lat="45.82094" lon="6.41009">
        <ele>1493</ele>
        <time>2018-10-17T13:31:43Z</time>
      </trkpt>
      <trkpt lat="45.82097" lon="6.41009">
        <ele>1492</ele>
        <time>2018-10-17T13:31:44Z</time>
      </trkpt>
      <trkpt lat="45.82097" lon="6.41009">
        <ele>1492</ele>
        <time>2018-10-17T13:31:45Z</time>
      </trkpt>
      <trkpt lat="45.821" lon="6.41008">
        <ele>1492</ele>
        <time>2018-10-17T13:31:46Z</time>
      </trkpt>
      <trkpt lat="45.821" lon="6.41008">
        <ele>1492</ele>
        <time>2018-10-17T13:31:47Z</time>
      </trkpt>
      <trkpt lat="45.82103" lon="6.41008">
        <ele>1491</ele>
        <time>2018-10-17T13:31:48Z</time>
      </trkpt>
      <trkpt lat="45.82103" lon="6.41008">
        <ele>1491</ele>
        <time>2018-10-17T13:31:49Z</time>
      </trkpt>
      <trkpt lat="45.82105" lon="6.41007">
        <ele>1491</ele>
        <time>2018-10-17T13:31:50Z</time>
      </trkpt>
      <trkpt lat="45.82105" lon="6.41007">
        <ele>1491</ele>
        <time>2018-10-17T13:31:51Z</time>
      </trkpt>
      <trkpt lat="45.82108" lon="6.41007">
        <ele>1491</ele>
        <time>2018-10-17T13:31:52Z</time>
      </trkpt>
      <trkpt lat="45.82108" lon="6.41007">
        <ele>1491</ele>
        <time>2018-10-17T13:31:53Z</time>
      </trkpt>
      <trkpt lat="45.82111" lon="6.41008">
        <ele>1490</ele>
        <time>2018-10-17T13:31:54Z</time>
      </trkpt>
      <trkpt lat="45.82111" lon="6.41008">
        <ele>1490</ele>
        <time>2018-10-17T13:31:55Z</time>
      </trkpt>
      <trkpt lat="45.82114" lon="6.41009">
        <ele>1490</ele>
        <time>2018-10-17T13:31:56Z</time>
      </trkpt>
      <trkpt lat="45.82114" lon="6.41009">
        <ele>1490</ele>
        <time>2018-10-17T13:31:57Z</time>
      </trkpt>
      <trkpt lat="45.82117" lon="6.41009">
        <ele>1490</ele>
        <time>2018-10-17T13:31:58Z</time>
      </trkpt>
      <trkpt lat="45.82117" lon="6.41009">
        <ele>1490</ele>
        <time>2018-10-17T13:31:59Z</time>
      </trkpt>
      <trkpt lat="45.82119" lon="6.41009">
        <ele>1490</ele>
        <time>2018-10-17T13:32:00Z</time>
      </trkpt>
      <trkpt lat="45.82119" lon="6.41009">
        <ele>1490</ele>
        <time>2018-10-17T13:32:01Z</time>
      </trkpt>
      <trkpt lat="45.82123" lon="6.41009">
        <ele>1490</ele>
        <time>2018-10-17T13:32:02Z</time>
      </trkpt>
      <trkpt lat="45.82124" lon="6.41009">
        <ele>1490</ele>
        <time>2018-10-17T13:32:03Z</time>
      </trkpt>
      <trkpt lat="45.82124" lon="6.41009">
        <ele>1489</ele>
        <time>2018-10-17T13:32:04Z</time>
      </trkpt>
      <trkpt lat="45.82128" lon="6.41009">
        <ele>1488</ele>
        <time>2018-10-17T13:32:05Z</time>
      </trkpt>
      <trkpt lat="45.82128" lon="6.41009">
        <ele>1488</ele>
        <time>2018-10-17T13:32:06Z</time>
      </trkpt>
      <trkpt lat="45.8213" lon="6.41009">
        <ele>1489</ele>
        <time>2018-10-17T13:32:07Z</time>
      </trkpt>
      <trkpt lat="45.8213" lon="6.41009">
        <ele>1489</ele>
        <time>2018-10-17T13:32:08Z</time>
      </trkpt>
      <trkpt lat="45.82133" lon="6.41008">
        <ele>1489</ele>
        <time>2018-10-17T13:32:09Z</time>
      </trkpt>
      <trkpt lat="45.82133" lon="6.41008">
        <ele>1489</ele>
        <time>2018-10-17T13:32:10Z</time>
      </trkpt>
      <trkpt lat="45.82136" lon="6.41008">
        <ele>1489</ele>
        <time>2018-10-17T13:32:11Z</time>
      </trkpt>
      <trkpt lat="45.82136" lon="6.41008">
        <ele>1488</ele>
        <time>2018-10-17T13:32:12Z</time>
      </trkpt>
      <trkpt lat="45.82138" lon="6.41008">
        <ele>1488</ele>
        <time>2018-10-17T13:32:13Z</time>
      </trkpt>
      <trkpt lat="45.82138" lon="6.41008">
        <ele>1487</ele>
        <time>2018-10-17T13:32:14Z</time>
      </trkpt>
      <trkpt lat="45.82141" lon="6.41008">
        <ele>1487</ele>
        <time>2018-10-17T13:32:15Z</time>
      </trkpt>
      <trkpt lat="45.82141" lon="6.41008">
        <ele>1487</ele>
        <time>2018-10-17T13:32:16Z</time>
      </trkpt>
      <trkpt lat="45.82145" lon="6.41009">
        <ele>1487</ele>
        <time>2018-10-17T13:32:17Z</time>
      </trkpt>
      <trkpt lat="45.82145" lon="6.41009">
        <ele>1487</ele>
        <time>2018-10-17T13:32:18Z</time>
      </trkpt>
      <trkpt lat="45.82146" lon="6.41009">
        <ele>1487</ele>
        <time>2018-10-17T13:32:19Z</time>
      </trkpt>
      <trkpt lat="45.82148" lon="6.41008">
        <ele>1486</ele>
        <time>2018-10-17T13:32:20Z</time>
      </trkpt>
      <trkpt lat="45.82148" lon="6.41008">
        <ele>1486</ele>
        <time>2018-10-17T13:32:21Z</time>
      </trkpt>
      <trkpt lat="45.82151" lon="6.41007">
        <ele>1485</ele>
        <time>2018-10-17T13:32:22Z</time>
      </trkpt>
      <trkpt lat="45.82151" lon="6.41007">
        <ele>1485</ele>
        <time>2018-10-17T13:32:23Z</time>
      </trkpt>
      <trkpt lat="45.82153" lon="6.41005">
        <ele>1485</ele>
        <time>2018-10-17T13:32:24Z</time>
      </trkpt>
      <trkpt lat="45.82153" lon="6.41005">
        <ele>1484</ele>
        <time>2018-10-17T13:32:25Z</time>
      </trkpt>
      <trkpt lat="45.82157" lon="6.41005">
        <ele>1484</ele>
        <time>2018-10-17T13:32:26Z</time>
      </trkpt>
      <trkpt lat="45.82157" lon="6.41005">
        <ele>1484</ele>
        <time>2018-10-17T13:32:27Z</time>
      </trkpt>
      <trkpt lat="45.8216" lon="6.41006">
        <ele>1483</ele>
        <time>2018-10-17T13:32:28Z</time>
      </trkpt>
      <trkpt lat="45.8216" lon="6.41006">
        <ele>1483</ele>
        <time>2018-10-17T13:32:29Z</time>
      </trkpt>
      <trkpt lat="45.82163" lon="6.41008">
        <ele>1482</ele>
        <time>2018-10-17T13:32:30Z</time>
      </trkpt>
      <trkpt lat="45.82166" lon="6.41009">
        <ele>1482</ele>
        <time>2018-10-17T13:32:31Z</time>
      </trkpt>
      <trkpt lat="45.82168" lon="6.41011">
        <ele>1482</ele>
        <time>2018-10-17T13:32:32Z</time>
      </trkpt>
      <trkpt lat="45.82171" lon="6.41013">
        <ele>1482</ele>
        <time>2018-10-17T13:32:33Z</time>
      </trkpt>
      <trkpt lat="45.82173" lon="6.41014">
        <ele>1482</ele>
        <time>2018-10-17T13:32:34Z</time>
      </trkpt>
      <trkpt lat="45.82176" lon="6.41015">
        <ele>1481</ele>
        <time>2018-10-17T13:32:35Z</time>
      </trkpt>
      <trkpt lat="45.82178" lon="6.41016">
        <ele>1481</ele>
        <time>2018-10-17T13:32:36Z</time>
      </trkpt>
      <trkpt lat="45.82179" lon="6.41017">
        <ele>1481</ele>
        <time>2018-10-17T13:32:37Z</time>
      </trkpt>
      <trkpt lat="45.82181" lon="6.41018">
        <ele>1480</ele>
        <time>2018-10-17T13:32:38Z</time>
      </trkpt>
      <trkpt lat="45.82181" lon="6.41018">
        <ele>1479</ele>
        <time>2018-10-17T13:32:39Z</time>
      </trkpt>
      <trkpt lat="45.82185" lon="6.41019">
        <ele>1479</ele>
        <time>2018-10-17T13:32:40Z</time>
      </trkpt>
      <trkpt lat="45.82187" lon="6.41021">
        <ele>1479</ele>
        <time>2018-10-17T13:32:41Z</time>
      </trkpt>
      <trkpt lat="45.82187" lon="6.41021">
        <ele>1478</ele>
        <time>2018-10-17T13:32:42Z</time>
      </trkpt>
      <trkpt lat="45.8219" lon="6.41021">
        <ele>1478</ele>
        <time>2018-10-17T13:32:43Z</time>
      </trkpt>
      <trkpt lat="45.8219" lon="6.41021">
        <ele>1478</ele>
        <time>2018-10-17T13:32:44Z</time>
      </trkpt>
      <trkpt lat="45.82194" lon="6.41023">
        <ele>1478</ele>
        <time>2018-10-17T13:32:45Z</time>
      </trkpt>
      <trkpt lat="45.82194" lon="6.41023">
        <ele>1478</ele>
        <time>2018-10-17T13:32:46Z</time>
      </trkpt>
      <trkpt lat="45.82197" lon="6.41024">
        <ele>1477</ele>
        <time>2018-10-17T13:32:47Z</time>
      </trkpt>
      <trkpt lat="45.82197" lon="6.41024">
        <ele>1477</ele>
        <time>2018-10-17T13:32:48Z</time>
      </trkpt>
      <trkpt lat="45.82199" lon="6.41024">
        <ele>1476</ele>
        <time>2018-10-17T13:32:49Z</time>
      </trkpt>
      <trkpt lat="45.82199" lon="6.41024">
        <ele>1476</ele>
        <time>2018-10-17T13:32:50Z</time>
      </trkpt>
      <trkpt lat="45.82199" lon="6.41024">
        <ele>1475</ele>
        <time>2018-10-17T13:32:51Z</time>
      </trkpt>
      <trkpt lat="45.82202" lon="6.41026">
        <ele>1474</ele>
        <time>2018-10-17T13:32:52Z</time>
      </trkpt>
      <trkpt lat="45.82202" lon="6.41026">
        <ele>1474</ele>
        <time>2018-10-17T13:32:53Z</time>
      </trkpt>
      <trkpt lat="45.82205" lon="6.41027">
        <ele>1474</ele>
        <time>2018-10-17T13:32:54Z</time>
      </trkpt>
      <trkpt lat="45.82205" lon="6.41027">
        <ele>1474</ele>
        <time>2018-10-17T13:32:55Z</time>
      </trkpt>
      <trkpt lat="45.82208" lon="6.41026">
        <ele>1474</ele>
        <time>2018-10-17T13:32:56Z</time>
      </trkpt>
      <trkpt lat="45.82208" lon="6.41026">
        <ele>1473</ele>
        <time>2018-10-17T13:32:57Z</time>
      </trkpt>
      <trkpt lat="45.82211" lon="6.41027">
        <ele>1473</ele>
        <time>2018-10-17T13:32:58Z</time>
      </trkpt>
      <trkpt lat="45.82211" lon="6.41027">
        <ele>1473</ele>
        <time>2018-10-17T13:32:59Z</time>
      </trkpt>
      <trkpt lat="45.82214" lon="6.41029">
        <ele>1473</ele>
        <time>2018-10-17T13:33:00Z</time>
      </trkpt>
      <trkpt lat="45.82216" lon="6.41029">
        <ele>1473</ele>
        <time>2018-10-17T13:33:01Z</time>
      </trkpt>
      <trkpt lat="45.82216" lon="6.41029">
        <ele>1472</ele>
        <time>2018-10-17T13:33:02Z</time>
      </trkpt>
      <trkpt lat="45.82219" lon="6.41032">
        <ele>1471</ele>
        <time>2018-10-17T13:33:03Z</time>
      </trkpt>
      <trkpt lat="45.82219" lon="6.41032">
        <ele>1471</ele>
        <time>2018-10-17T13:33:04Z</time>
      </trkpt>
      <trkpt lat="45.82219" lon="6.41032">
        <ele>1471</ele>
        <time>2018-10-17T13:33:05Z</time>
      </trkpt>
      <trkpt lat="45.82219" lon="6.41032">
        <ele>1470</ele>
        <time>2018-10-17T13:33:06Z</time>
      </trkpt>
      <trkpt lat="45.82228" lon="6.41037">
        <ele>1469</ele>
        <time>2018-10-17T13:33:07Z</time>
      </trkpt>
      <trkpt lat="45.8223" lon="6.41038">
        <ele>1469</ele>
        <time>2018-10-17T13:33:08Z</time>
      </trkpt>
      <trkpt lat="45.82232" lon="6.41039">
        <ele>1469</ele>
        <time>2018-10-17T13:33:09Z</time>
      </trkpt>
      <trkpt lat="45.82234" lon="6.41041">
        <ele>1469</ele>
        <time>2018-10-17T13:33:10Z</time>
      </trkpt>
      <trkpt lat="45.82236" lon="6.41042">
        <ele>1469</ele>
        <time>2018-10-17T13:33:11Z</time>
      </trkpt>
      <trkpt lat="45.82236" lon="6.41044">
        <ele>1469</ele>
        <time>2018-10-17T13:33:12Z</time>
      </trkpt>
      <trkpt lat="45.82236" lon="6.41046">
        <ele>1468</ele>
        <time>2018-10-17T13:33:13Z</time>
      </trkpt>
      <trkpt lat="45.82235" lon="6.41049">
        <ele>1467</ele>
        <time>2018-10-17T13:33:14Z</time>
      </trkpt>
      <trkpt lat="45.82233" lon="6.41051">
        <ele>1467</ele>
        <time>2018-10-17T13:33:15Z</time>
      </trkpt>
      <trkpt lat="45.82232" lon="6.41054">
        <ele>1467</ele>
        <time>2018-10-17T13:33:16Z</time>
      </trkpt>
      <trkpt lat="45.8223" lon="6.41056">
        <ele>1466</ele>
        <time>2018-10-17T13:33:17Z</time>
      </trkpt>
      <trkpt lat="45.82228" lon="6.41057">
        <ele>1466</ele>
        <time>2018-10-17T13:33:18Z</time>
      </trkpt>
      <trkpt lat="45.82228" lon="6.41057">
        <ele>1465</ele>
        <time>2018-10-17T13:33:19Z</time>
      </trkpt>
      <trkpt lat="45.82225" lon="6.4106">
        <ele>1465</ele>
        <time>2018-10-17T13:33:20Z</time>
      </trkpt>
      <trkpt lat="45.82225" lon="6.4106">
        <ele>1465</ele>
        <time>2018-10-17T13:33:21Z</time>
      </trkpt>
      <trkpt lat="45.82222" lon="6.41063">
        <ele>1465</ele>
        <time>2018-10-17T13:33:22Z</time>
      </trkpt>
      <trkpt lat="45.82222" lon="6.41063">
        <ele>1464</ele>
        <time>2018-10-17T13:33:23Z</time>
      </trkpt>
      <trkpt lat="45.8222" lon="6.41065">
        <ele>1464</ele>
        <time>2018-10-17T13:33:24Z</time>
      </trkpt>
      <trkpt lat="45.8222" lon="6.41065">
        <ele>1464</ele>
        <time>2018-10-17T13:33:25Z</time>
      </trkpt>
      <trkpt lat="45.82218" lon="6.41067">
        <ele>1463</ele>
        <time>2018-10-17T13:33:26Z</time>
      </trkpt>
      <trkpt lat="45.82218" lon="6.41067">
        <ele>1463</ele>
        <time>2018-10-17T13:33:27Z</time>
      </trkpt>
      <trkpt lat="45.82218" lon="6.41067">
        <ele>1462</ele>
        <time>2018-10-17T13:33:28Z</time>
      </trkpt>
      <trkpt lat="45.82217" lon="6.41069">
        <ele>1461</ele>
        <time>2018-10-17T13:33:29Z</time>
      </trkpt>
      <trkpt lat="45.82217" lon="6.41069">
        <ele>1461</ele>
        <time>2018-10-17T13:33:30Z</time>
      </trkpt>
      <trkpt lat="45.82215" lon="6.41072">
        <ele>1461</ele>
        <time>2018-10-17T13:33:31Z</time>
      </trkpt>
      <trkpt lat="45.82215" lon="6.41072">
        <ele>1461</ele>
        <time>2018-10-17T13:33:32Z</time>
      </trkpt>
      <trkpt lat="45.82215" lon="6.41072">
        <ele>1461</ele>
        <time>2018-10-17T13:33:33Z</time>
      </trkpt>
      <trkpt lat="45.82212" lon="6.41074">
        <ele>1460</ele>
        <time>2018-10-17T13:33:34Z</time>
      </trkpt>
      <trkpt lat="45.82212" lon="6.41074">
        <ele>1460</ele>
        <time>2018-10-17T13:33:35Z</time>
      </trkpt>
      <trkpt lat="45.8221" lon="6.41076">
        <ele>1460</ele>
        <time>2018-10-17T13:33:36Z</time>
      </trkpt>
      <trkpt lat="45.8221" lon="6.41076">
        <ele>1460</ele>
        <time>2018-10-17T13:33:37Z</time>
      </trkpt>
      <trkpt lat="45.82208" lon="6.4108">
        <ele>1460</ele>
        <time>2018-10-17T13:33:38Z</time>
      </trkpt>
      <trkpt lat="45.82208" lon="6.4108">
        <ele>1460</ele>
        <time>2018-10-17T13:33:39Z</time>
      </trkpt>
      <trkpt lat="45.82205" lon="6.41083">
        <ele>1459</ele>
        <time>2018-10-17T13:33:40Z</time>
      </trkpt>
      <trkpt lat="45.82204" lon="6.41085">
        <ele>1459</ele>
        <time>2018-10-17T13:33:41Z</time>
      </trkpt>
      <trkpt lat="45.82204" lon="6.41085">
        <ele>1459</ele>
        <time>2018-10-17T13:33:42Z</time>
      </trkpt>
      <trkpt lat="45.822" lon="6.41088">
        <ele>1459</ele>
        <time>2018-10-17T13:33:43Z</time>
      </trkpt>
      <trkpt lat="45.82198" lon="6.4109">
        <ele>1458</ele>
        <time>2018-10-17T13:33:44Z</time>
      </trkpt>
      <trkpt lat="45.82197" lon="6.41091">
        <ele>1458</ele>
        <time>2018-10-17T13:33:45Z</time>
      </trkpt>
      <trkpt lat="45.82197" lon="6.41091">
        <ele>1457</ele>
        <time>2018-10-17T13:33:46Z</time>
      </trkpt>
      <trkpt lat="45.82195" lon="6.41094">
        <ele>1456</ele>
        <time>2018-10-17T13:33:47Z</time>
      </trkpt>
      <trkpt lat="45.82195" lon="6.41094">
        <ele>1456</ele>
        <time>2018-10-17T13:33:48Z</time>
      </trkpt>
      <trkpt lat="45.82192" lon="6.41098">
        <ele>1456</ele>
        <time>2018-10-17T13:33:49Z</time>
      </trkpt>
      <trkpt lat="45.82192" lon="6.41098">
        <ele>1456</ele>
        <time>2018-10-17T13:33:50Z</time>
      </trkpt>
      <trkpt lat="45.82189" lon="6.41101">
        <ele>1455</ele>
        <time>2018-10-17T13:33:51Z</time>
      </trkpt>
      <trkpt lat="45.82189" lon="6.41101">
        <ele>1455</ele>
        <time>2018-10-17T13:33:52Z</time>
      </trkpt>
      <trkpt lat="45.82188" lon="6.41103">
        <ele>1455</ele>
        <time>2018-10-17T13:33:53Z</time>
      </trkpt>
      <trkpt lat="45.82188" lon="6.41103">
        <ele>1454</ele>
        <time>2018-10-17T13:33:54Z</time>
      </trkpt>
      <trkpt lat="45.82186" lon="6.41106">
        <ele>1454</ele>
        <time>2018-10-17T13:33:55Z</time>
      </trkpt>
      <trkpt lat="45.82186" lon="6.41106">
        <ele>1454</ele>
        <time>2018-10-17T13:33:56Z</time>
      </trkpt>
      <trkpt lat="45.82183" lon="6.41108">
        <ele>1454</ele>
        <time>2018-10-17T13:33:57Z</time>
      </trkpt>
      <trkpt lat="45.82183" lon="6.41108">
        <ele>1453</ele>
        <time>2018-10-17T13:33:58Z</time>
      </trkpt>
      <trkpt lat="45.82182" lon="6.41111">
        <ele>1453</ele>
        <time>2018-10-17T13:33:59Z</time>
      </trkpt>
      <trkpt lat="45.82182" lon="6.41111">
        <ele>1452</ele>
        <time>2018-10-17T13:34:00Z</time>
      </trkpt>
      <trkpt lat="45.8218" lon="6.41114">
        <ele>1452</ele>
        <time>2018-10-17T13:34:01Z</time>
      </trkpt>
      <trkpt lat="45.8218" lon="6.41114">
        <ele>1452</ele>
        <time>2018-10-17T13:34:02Z</time>
      </trkpt>
      <trkpt lat="45.82178" lon="6.41116">
        <ele>1451</ele>
        <time>2018-10-17T13:34:03Z</time>
      </trkpt>
      <trkpt lat="45.82178" lon="6.41116">
        <ele>1451</ele>
        <time>2018-10-17T13:34:04Z</time>
      </trkpt>
      <trkpt lat="45.82176" lon="6.4112">
        <ele>1451</ele>
        <time>2018-10-17T13:34:05Z</time>
      </trkpt>
      <trkpt lat="45.82176" lon="6.4112">
        <ele>1451</ele>
        <time>2018-10-17T13:34:06Z</time>
      </trkpt>
      <trkpt lat="45.82174" lon="6.41123">
        <ele>1451</ele>
        <time>2018-10-17T13:34:07Z</time>
      </trkpt>
      <trkpt lat="45.82174" lon="6.41123">
        <ele>1450</ele>
        <time>2018-10-17T13:34:08Z</time>
      </trkpt>
      <trkpt lat="45.82172" lon="6.41126">
        <ele>1450</ele>
        <time>2018-10-17T13:34:09Z</time>
      </trkpt>
      <trkpt lat="45.82172" lon="6.41126">
        <ele>1450</ele>
        <time>2018-10-17T13:34:10Z</time>
      </trkpt>
      <trkpt lat="45.8217" lon="6.4113">
        <ele>1450</ele>
        <time>2018-10-17T13:34:11Z</time>
      </trkpt>
      <trkpt lat="45.82169" lon="6.41132">
        <ele>1450</ele>
        <time>2018-10-17T13:34:12Z</time>
      </trkpt>
      <trkpt lat="45.82168" lon="6.41134">
        <ele>1449</ele>
        <time>2018-10-17T13:34:13Z</time>
      </trkpt>
      <trkpt lat="45.82167" lon="6.41136">
        <ele>1449</ele>
        <time>2018-10-17T13:34:14Z</time>
      </trkpt>
      <trkpt lat="45.82166" lon="6.41138">
        <ele>1449</ele>
        <time>2018-10-17T13:34:15Z</time>
      </trkpt>
      <trkpt lat="45.82166" lon="6.41138">
        <ele>1449</ele>
        <time>2018-10-17T13:34:16Z</time>
      </trkpt>
      <trkpt lat="45.82164" lon="6.41141">
        <ele>1448</ele>
        <time>2018-10-17T13:34:17Z</time>
      </trkpt>
      <trkpt lat="45.82164" lon="6.41141">
        <ele>1448</ele>
        <time>2018-10-17T13:34:18Z</time>
      </trkpt>
      <trkpt lat="45.82162" lon="6.41143">
        <ele>1448</ele>
        <time>2018-10-17T13:34:19Z</time>
      </trkpt>
      <trkpt lat="45.82162" lon="6.41143">
        <ele>1447</ele>
        <time>2018-10-17T13:34:20Z</time>
      </trkpt>
      <trkpt lat="45.82159" lon="6.41146">
        <ele>1446</ele>
        <time>2018-10-17T13:34:21Z</time>
      </trkpt>
      <trkpt lat="45.82159" lon="6.41146">
        <ele>1446</ele>
        <time>2018-10-17T13:34:22Z</time>
      </trkpt>
      <trkpt lat="45.82156" lon="6.41147">
        <ele>1446</ele>
        <time>2018-10-17T13:34:23Z</time>
      </trkpt>
      <trkpt lat="45.82156" lon="6.41147">
        <ele>1445</ele>
        <time>2018-10-17T13:34:24Z</time>
      </trkpt>
      <trkpt lat="45.82153" lon="6.41149">
        <ele>1445</ele>
        <time>2018-10-17T13:34:25Z</time>
      </trkpt>
      <trkpt lat="45.82153" lon="6.41149">
        <ele>1445</ele>
        <time>2018-10-17T13:34:26Z</time>
      </trkpt>
      <trkpt lat="45.82151" lon="6.41151">
        <ele>1445</ele>
        <time>2018-10-17T13:34:27Z</time>
      </trkpt>
      <trkpt lat="45.82151" lon="6.41151">
        <ele>1445</ele>
        <time>2018-10-17T13:34:28Z</time>
      </trkpt>
      <trkpt lat="45.82148" lon="6.41153">
        <ele>1445</ele>
        <time>2018-10-17T13:34:29Z</time>
      </trkpt>
      <trkpt lat="45.82145" lon="6.41155">
        <ele>1445</ele>
        <time>2018-10-17T13:34:30Z</time>
      </trkpt>
      <trkpt lat="45.82144" lon="6.41156">
        <ele>1445</ele>
        <time>2018-10-17T13:34:31Z</time>
      </trkpt>
      <trkpt lat="45.82142" lon="6.41157">
        <ele>1444</ele>
        <time>2018-10-17T13:34:32Z</time>
      </trkpt>
      <trkpt lat="45.82141" lon="6.41158">
        <ele>1444</ele>
        <time>2018-10-17T13:34:33Z</time>
      </trkpt>
      <trkpt lat="45.82137" lon="6.41161">
        <ele>1444</ele>
        <time>2018-10-17T13:34:34Z</time>
      </trkpt>
      <trkpt lat="45.82137" lon="6.41161">
        <ele>1444</ele>
        <time>2018-10-17T13:34:35Z</time>
      </trkpt>
      <trkpt lat="45.82132" lon="6.41163">
        <ele>1443</ele>
        <time>2018-10-17T13:34:36Z</time>
      </trkpt>
      <trkpt lat="45.8213" lon="6.41165">
        <ele>1442</ele>
        <time>2018-10-17T13:34:37Z</time>
      </trkpt>
      <trkpt lat="45.82128" lon="6.41166">
        <ele>1442</ele>
        <time>2018-10-17T13:34:38Z</time>
      </trkpt>
      <trkpt lat="45.82128" lon="6.41166">
        <ele>1442</ele>
        <time>2018-10-17T13:34:39Z</time>
      </trkpt>
      <trkpt lat="45.82127" lon="6.41172">
        <ele>1442</ele>
        <time>2018-10-17T13:34:40Z</time>
      </trkpt>
      <trkpt lat="45.82127" lon="6.41172">
        <ele>1441</ele>
        <time>2018-10-17T13:34:41Z</time>
      </trkpt>
      <trkpt lat="45.82128" lon="6.41176">
        <ele>1441</ele>
        <time>2018-10-17T13:34:42Z</time>
      </trkpt>
      <trkpt lat="45.82128" lon="6.41176">
        <ele>1440</ele>
        <time>2018-10-17T13:34:43Z</time>
      </trkpt>
      <trkpt lat="45.8213" lon="6.41179">
        <ele>1440</ele>
        <time>2018-10-17T13:34:44Z</time>
      </trkpt>
      <trkpt lat="45.8213" lon="6.41179">
        <ele>1440</ele>
        <time>2018-10-17T13:34:45Z</time>
      </trkpt>
      <trkpt lat="45.82133" lon="6.4118">
        <ele>1440</ele>
        <time>2018-10-17T13:34:46Z</time>
      </trkpt>
      <trkpt lat="45.82135" lon="6.4118">
        <ele>1440</ele>
        <time>2018-10-17T13:34:47Z</time>
      </trkpt>
      <trkpt lat="45.82135" lon="6.4118">
        <ele>1439</ele>
        <time>2018-10-17T13:34:48Z</time>
      </trkpt>
      <trkpt lat="45.82138" lon="6.41179">
        <ele>1439</ele>
        <time>2018-10-17T13:34:49Z</time>
      </trkpt>
      <trkpt lat="45.82138" lon="6.41179">
        <ele>1439</ele>
        <time>2018-10-17T13:34:50Z</time>
      </trkpt>
      <trkpt lat="45.8214" lon="6.4118">
        <ele>1438</ele>
        <time>2018-10-17T13:34:51Z</time>
      </trkpt>
      <trkpt lat="45.8214" lon="6.4118">
        <ele>1438</ele>
        <time>2018-10-17T13:34:52Z</time>
      </trkpt>
      <trkpt lat="45.82143" lon="6.41182">
        <ele>1438</ele>
        <time>2018-10-17T13:34:53Z</time>
      </trkpt>
      <trkpt lat="45.82143" lon="6.41182">
        <ele>1437</ele>
        <time>2018-10-17T13:34:54Z</time>
      </trkpt>
      <trkpt lat="45.82145" lon="6.41182">
        <ele>1437</ele>
        <time>2018-10-17T13:34:55Z</time>
      </trkpt>
      <trkpt lat="45.82145" lon="6.41182">
        <ele>1437</ele>
        <time>2018-10-17T13:34:56Z</time>
      </trkpt>
      <trkpt lat="45.82147" lon="6.41184">
        <ele>1437</ele>
        <time>2018-10-17T13:34:57Z</time>
      </trkpt>
      <trkpt lat="45.82147" lon="6.41184">
        <ele>1437</ele>
        <time>2018-10-17T13:34:58Z</time>
      </trkpt>
      <trkpt lat="45.82149" lon="6.41184">
        <ele>1436</ele>
        <time>2018-10-17T13:34:59Z</time>
      </trkpt>
      <trkpt lat="45.82149" lon="6.41184">
        <ele>1435</ele>
        <time>2018-10-17T13:35:00Z</time>
      </trkpt>
      <trkpt lat="45.82153" lon="6.41186">
        <ele>1435</ele>
        <time>2018-10-17T13:35:01Z</time>
      </trkpt>
      <trkpt lat="45.82155" lon="6.41188">
        <ele>1435</ele>
        <time>2018-10-17T13:35:02Z</time>
      </trkpt>
      <trkpt lat="45.82157" lon="6.41189">
        <ele>1435</ele>
        <time>2018-10-17T13:35:03Z</time>
      </trkpt>
      <trkpt lat="45.82158" lon="6.41191">
        <ele>1435</ele>
        <time>2018-10-17T13:35:04Z</time>
      </trkpt>
      <trkpt lat="45.82158" lon="6.41191">
        <ele>1434</ele>
        <time>2018-10-17T13:35:05Z</time>
      </trkpt>
      <trkpt lat="45.82161" lon="6.41192">
        <ele>1434</ele>
        <time>2018-10-17T13:35:06Z</time>
      </trkpt>
      <trkpt lat="45.82161" lon="6.41192">
        <ele>1434</ele>
        <time>2018-10-17T13:35:07Z</time>
      </trkpt>
      <trkpt lat="45.82164" lon="6.41195">
        <ele>1433</ele>
        <time>2018-10-17T13:35:08Z</time>
      </trkpt>
      <trkpt lat="45.82164" lon="6.41195">
        <ele>1433</ele>
        <time>2018-10-17T13:35:09Z</time>
      </trkpt>
      <trkpt lat="45.82166" lon="6.41198">
        <ele>1433</ele>
        <time>2018-10-17T13:35:10Z</time>
      </trkpt>
      <trkpt lat="45.82166" lon="6.41198">
        <ele>1432</ele>
        <time>2018-10-17T13:35:11Z</time>
      </trkpt>
      <trkpt lat="45.82168" lon="6.412">
        <ele>1432</ele>
        <time>2018-10-17T13:35:12Z</time>
      </trkpt>
      <trkpt lat="45.82168" lon="6.412">
        <ele>1432</ele>
        <time>2018-10-17T13:35:13Z</time>
      </trkpt>
      <trkpt lat="45.82171" lon="6.41203">
        <ele>1431</ele>
        <time>2018-10-17T13:35:14Z</time>
      </trkpt>
      <trkpt lat="45.82171" lon="6.41203">
        <ele>1430</ele>
        <time>2018-10-17T13:35:15Z</time>
      </trkpt>
      <trkpt lat="45.82173" lon="6.41205">
        <ele>1430</ele>
        <time>2018-10-17T13:35:16Z</time>
      </trkpt>
      <trkpt lat="45.82173" lon="6.41205">
        <ele>1430</ele>
        <time>2018-10-17T13:35:17Z</time>
      </trkpt>
      <trkpt lat="45.82174" lon="6.41207">
        <ele>1429</ele>
        <time>2018-10-17T13:35:18Z</time>
      </trkpt>
      <trkpt lat="45.82174" lon="6.41207">
        <ele>1429</ele>
        <time>2018-10-17T13:35:19Z</time>
      </trkpt>
      <trkpt lat="45.82176" lon="6.41209">
        <ele>1428</ele>
        <time>2018-10-17T13:35:20Z</time>
      </trkpt>
      <trkpt lat="45.82176" lon="6.41209">
        <ele>1428</ele>
        <time>2018-10-17T13:35:21Z</time>
      </trkpt>
      <trkpt lat="45.82178" lon="6.41211">
        <ele>1427</ele>
        <time>2018-10-17T13:35:22Z</time>
      </trkpt>
      <trkpt lat="45.82178" lon="6.41211">
        <ele>1427</ele>
        <time>2018-10-17T13:35:23Z</time>
      </trkpt>
      <trkpt lat="45.8218" lon="6.41213">
        <ele>1427</ele>
        <time>2018-10-17T13:35:24Z</time>
      </trkpt>
      <trkpt lat="45.8218" lon="6.41213">
        <ele>1427</ele>
        <time>2018-10-17T13:35:25Z</time>
      </trkpt>
      <trkpt lat="45.82182" lon="6.41214">
        <ele>1427</ele>
        <time>2018-10-17T13:35:26Z</time>
      </trkpt>
      <trkpt lat="45.82182" lon="6.41214">
        <ele>1427</ele>
        <time>2018-10-17T13:35:27Z</time>
      </trkpt>
      <trkpt lat="45.82184" lon="6.41216">
        <ele>1427</ele>
        <time>2018-10-17T13:35:28Z</time>
      </trkpt>
      <trkpt lat="45.82184" lon="6.41216">
        <ele>1426</ele>
        <time>2018-10-17T13:35:29Z</time>
      </trkpt>
      <trkpt lat="45.82184" lon="6.41216">
        <ele>1426</ele>
        <time>2018-10-17T13:35:30Z</time>
      </trkpt>
      <trkpt lat="45.82186" lon="6.41217">
        <ele>1426</ele>
        <time>2018-10-17T13:35:31Z</time>
      </trkpt>
      <trkpt lat="45.82186" lon="6.41217">
        <ele>1426</ele>
        <time>2018-10-17T13:35:32Z</time>
      </trkpt>
      <trkpt lat="45.82188" lon="6.41219">
        <ele>1426</ele>
        <time>2018-10-17T13:35:33Z</time>
      </trkpt>
      <trkpt lat="45.82188" lon="6.41219">
        <ele>1426</ele>
        <time>2018-10-17T13:35:34Z</time>
      </trkpt>
      <trkpt lat="45.8219" lon="6.41221">
        <ele>1425</ele>
        <time>2018-10-17T13:35:35Z</time>
      </trkpt>
      <trkpt lat="45.8219" lon="6.41221">
        <ele>1425</ele>
        <time>2018-10-17T13:35:36Z</time>
      </trkpt>
      <trkpt lat="45.82193" lon="6.41223">
        <ele>1424</ele>
        <time>2018-10-17T13:35:37Z</time>
      </trkpt>
      <trkpt lat="45.82193" lon="6.41223">
        <ele>1424</ele>
        <time>2018-10-17T13:35:38Z</time>
      </trkpt>
      <trkpt lat="45.82195" lon="6.41225">
        <ele>1423</ele>
        <time>2018-10-17T13:35:39Z</time>
      </trkpt>
      <trkpt lat="45.82195" lon="6.41225">
        <ele>1423</ele>
        <time>2018-10-17T13:35:40Z</time>
      </trkpt>
      <trkpt lat="45.82198" lon="6.41226">
        <ele>1423</ele>
        <time>2018-10-17T13:35:41Z</time>
      </trkpt>
      <trkpt lat="45.82198" lon="6.41226">
        <ele>1423</ele>
        <time>2018-10-17T13:35:42Z</time>
      </trkpt>
      <trkpt lat="45.82201" lon="6.41227">
        <ele>1422</ele>
        <time>2018-10-17T13:35:43Z</time>
      </trkpt>
      <trkpt lat="45.82201" lon="6.41227">
        <ele>1422</ele>
        <time>2018-10-17T13:35:44Z</time>
      </trkpt>
      <trkpt lat="45.82203" lon="6.41228">
        <ele>1422</ele>
        <time>2018-10-17T13:35:45Z</time>
      </trkpt>
      <trkpt lat="45.82203" lon="6.41228">
        <ele>1421</ele>
        <time>2018-10-17T13:35:46Z</time>
      </trkpt>
      <trkpt lat="45.82206" lon="6.4123">
        <ele>1421</ele>
        <time>2018-10-17T13:35:47Z</time>
      </trkpt>
      <trkpt lat="45.82208" lon="6.41231">
        <ele>1421</ele>
        <time>2018-10-17T13:35:48Z</time>
      </trkpt>
      <trkpt lat="45.82209" lon="6.41232">
        <ele>1421</ele>
        <time>2018-10-17T13:35:49Z</time>
      </trkpt>
      <trkpt lat="45.82212" lon="6.41233">
        <ele>1421</ele>
        <time>2018-10-17T13:35:50Z</time>
      </trkpt>
      <trkpt lat="45.82214" lon="6.41233">
        <ele>1421</ele>
        <time>2018-10-17T13:35:51Z</time>
      </trkpt>
      <trkpt lat="45.82216" lon="6.41233">
        <ele>1421</ele>
        <time>2018-10-17T13:35:52Z</time>
      </trkpt>
      <trkpt lat="45.82216" lon="6.41233">
        <ele>1420</ele>
        <time>2018-10-17T13:35:53Z</time>
      </trkpt>
      <trkpt lat="45.82219" lon="6.41233">
        <ele>1419</ele>
        <time>2018-10-17T13:35:54Z</time>
      </trkpt>
      <trkpt lat="45.82219" lon="6.41233">
        <ele>1419</ele>
        <time>2018-10-17T13:35:55Z</time>
      </trkpt>
      <trkpt lat="45.82223" lon="6.41233">
        <ele>1418</ele>
        <time>2018-10-17T13:35:56Z</time>
      </trkpt>
      <trkpt lat="45.82223" lon="6.41233">
        <ele>1418</ele>
        <time>2018-10-17T13:35:57Z</time>
      </trkpt>
      <trkpt lat="45.82226" lon="6.41234">
        <ele>1418</ele>
        <time>2018-10-17T13:35:58Z</time>
      </trkpt>
      <trkpt lat="45.82226" lon="6.41234">
        <ele>1417</ele>
        <time>2018-10-17T13:35:59Z</time>
      </trkpt>
      <trkpt lat="45.8223" lon="6.41234">
        <ele>1417</ele>
        <time>2018-10-17T13:36:00Z</time>
      </trkpt>
      <trkpt lat="45.8223" lon="6.41234">
        <ele>1417</ele>
        <time>2018-10-17T13:36:01Z</time>
      </trkpt>
      <trkpt lat="45.82233" lon="6.41234">
        <ele>1417</ele>
        <time>2018-10-17T13:36:02Z</time>
      </trkpt>
      <trkpt lat="45.82233" lon="6.41234">
        <ele>1417</ele>
        <time>2018-10-17T13:36:03Z</time>
      </trkpt>
      <trkpt lat="45.82238" lon="6.41235">
        <ele>1417</ele>
        <time>2018-10-17T13:36:04Z</time>
      </trkpt>
      <trkpt lat="45.82239" lon="6.41235">
        <ele>1417</ele>
        <time>2018-10-17T13:36:05Z</time>
      </trkpt>
      <trkpt lat="45.82241" lon="6.41235">
        <ele>1416</ele>
        <time>2018-10-17T13:36:06Z</time>
      </trkpt>
      <trkpt lat="45.82243" lon="6.41235">
        <ele>1416</ele>
        <time>2018-10-17T13:36:07Z</time>
      </trkpt>
      <trkpt lat="45.82243" lon="6.41235">
        <ele>1416</ele>
        <time>2018-10-17T13:36:08Z</time>
      </trkpt>
      <trkpt lat="45.82246" lon="6.41235">
        <ele>1416</ele>
        <time>2018-10-17T13:36:09Z</time>
      </trkpt>
      <trkpt lat="45.82246" lon="6.41235">
        <ele>1416</ele>
        <time>2018-10-17T13:36:10Z</time>
      </trkpt>
      <trkpt lat="45.82249" lon="6.41235">
        <ele>1415</ele>
        <time>2018-10-17T13:36:11Z</time>
      </trkpt>
      <trkpt lat="45.82249" lon="6.41235">
        <ele>1414</ele>
        <time>2018-10-17T13:36:12Z</time>
      </trkpt>
      <trkpt lat="45.82252" lon="6.41235">
        <ele>1414</ele>
        <time>2018-10-17T13:36:13Z</time>
      </trkpt>
      <trkpt lat="45.82252" lon="6.41235">
        <ele>1414</ele>
        <time>2018-10-17T13:36:14Z</time>
      </trkpt>
      <trkpt lat="45.82254" lon="6.41236">
        <ele>1414</ele>
        <time>2018-10-17T13:36:15Z</time>
      </trkpt>
      <trkpt lat="45.82254" lon="6.41236">
        <ele>1413</ele>
        <time>2018-10-17T13:36:16Z</time>
      </trkpt>
      <trkpt lat="45.82258" lon="6.41237">
        <ele>1412</ele>
        <time>2018-10-17T13:36:17Z</time>
      </trkpt>
      <trkpt lat="45.82258" lon="6.41237">
        <ele>1412</ele>
        <time>2018-10-17T13:36:18Z</time>
      </trkpt>
      <trkpt lat="45.8226" lon="6.41237">
        <ele>1412</ele>
        <time>2018-10-17T13:36:19Z</time>
      </trkpt>
      <trkpt lat="45.8226" lon="6.41237">
        <ele>1412</ele>
        <time>2018-10-17T13:36:20Z</time>
      </trkpt>
      <trkpt lat="45.82262" lon="6.41238">
        <ele>1412</ele>
        <time>2018-10-17T13:36:21Z</time>
      </trkpt>
      <trkpt lat="45.82262" lon="6.41238">
        <ele>1411</ele>
        <time>2018-10-17T13:36:22Z</time>
      </trkpt>
      <trkpt lat="45.82265" lon="6.4124">
        <ele>1411</ele>
        <time>2018-10-17T13:36:23Z</time>
      </trkpt>
      <trkpt lat="45.82265" lon="6.4124">
        <ele>1411</ele>
        <time>2018-10-17T13:36:24Z</time>
      </trkpt>
      <trkpt lat="45.82267" lon="6.41241">
        <ele>1411</ele>
        <time>2018-10-17T13:36:25Z</time>
      </trkpt>
      <trkpt lat="45.82267" lon="6.41241">
        <ele>1410</ele>
        <time>2018-10-17T13:36:26Z</time>
      </trkpt>
      <trkpt lat="45.8227" lon="6.41245">
        <ele>1409</ele>
        <time>2018-10-17T13:36:27Z</time>
      </trkpt>
      <trkpt lat="45.8227" lon="6.41245">
        <ele>1409</ele>
        <time>2018-10-17T13:36:28Z</time>
      </trkpt>
      <trkpt lat="45.82272" lon="6.41247">
        <ele>1409</ele>
        <time>2018-10-17T13:36:29Z</time>
      </trkpt>
      <trkpt lat="45.82272" lon="6.41247">
        <ele>1408</ele>
        <time>2018-10-17T13:36:30Z</time>
      </trkpt>
      <trkpt lat="45.82274" lon="6.41248">
        <ele>1408</ele>
        <time>2018-10-17T13:36:31Z</time>
      </trkpt>
      <trkpt lat="45.82274" lon="6.41248">
        <ele>1407</ele>
        <time>2018-10-17T13:36:32Z</time>
      </trkpt>
      <trkpt lat="45.82277" lon="6.4125">
        <ele>1407</ele>
        <time>2018-10-17T13:36:33Z</time>
      </trkpt>
      <trkpt lat="45.82277" lon="6.4125">
        <ele>1407</ele>
        <time>2018-10-17T13:36:34Z</time>
      </trkpt>
      <trkpt lat="45.8228" lon="6.41252">
        <ele>1407</ele>
        <time>2018-10-17T13:36:35Z</time>
      </trkpt>
      <trkpt lat="45.8228" lon="6.41252">
        <ele>1406</ele>
        <time>2018-10-17T13:36:36Z</time>
      </trkpt>
      <trkpt lat="45.82283" lon="6.41255">
        <ele>1405</ele>
        <time>2018-10-17T13:36:37Z</time>
      </trkpt>
      <trkpt lat="45.82285" lon="6.41256">
        <ele>1405</ele>
        <time>2018-10-17T13:36:38Z</time>
      </trkpt>
      <trkpt lat="45.82285" lon="6.41256">
        <ele>1405</ele>
        <time>2018-10-17T13:36:39Z</time>
      </trkpt>
      <trkpt lat="45.82287" lon="6.41259">
        <ele>1404</ele>
        <time>2018-10-17T13:36:40Z</time>
      </trkpt>
      <trkpt lat="45.82287" lon="6.41259">
        <ele>1404</ele>
        <time>2018-10-17T13:36:41Z</time>
      </trkpt>
      <trkpt lat="45.82291" lon="6.41261">
        <ele>1404</ele>
        <time>2018-10-17T13:36:42Z</time>
      </trkpt>
      <trkpt lat="45.82293" lon="6.41262">
        <ele>1403</ele>
        <time>2018-10-17T13:36:43Z</time>
      </trkpt>
      <trkpt lat="45.82294" lon="6.41263">
        <ele>1403</ele>
        <time>2018-10-17T13:36:44Z</time>
      </trkpt>
      <trkpt lat="45.82295" lon="6.41263">
        <ele>1403</ele>
        <time>2018-10-17T13:36:45Z</time>
      </trkpt>
      <trkpt lat="45.82296" lon="6.41264">
        <ele>1403</ele>
        <time>2018-10-17T13:36:46Z</time>
      </trkpt>
      <trkpt lat="45.82297" lon="6.41264">
        <ele>1403</ele>
        <time>2018-10-17T13:36:47Z</time>
      </trkpt>
      <trkpt lat="45.82298" lon="6.41265">
        <ele>1403</ele>
        <time>2018-10-17T13:36:48Z</time>
      </trkpt>
      <trkpt lat="45.82299" lon="6.41266">
        <ele>1402</ele>
        <time>2018-10-17T13:36:49Z</time>
      </trkpt>
      <trkpt lat="45.82299" lon="6.41266">
        <ele>1401</ele>
        <time>2018-10-17T13:36:50Z</time>
      </trkpt>
      <trkpt lat="45.823" lon="6.41267">
        <ele>1401</ele>
        <time>2018-10-17T13:36:51Z</time>
      </trkpt>
      <trkpt lat="45.82301" lon="6.41268">
        <ele>1401</ele>
        <time>2018-10-17T13:36:52Z</time>
      </trkpt>
      <trkpt lat="45.82302" lon="6.41268">
        <ele>1400</ele>
        <time>2018-10-17T13:36:53Z</time>
      </trkpt>
      <trkpt lat="45.82302" lon="6.41268">
        <ele>1400</ele>
        <time>2018-10-17T13:36:54Z</time>
      </trkpt>
      <trkpt lat="45.82306" lon="6.41268">
        <ele>1399</ele>
        <time>2018-10-17T13:36:55Z</time>
      </trkpt>
      <trkpt lat="45.82307" lon="6.41269">
        <ele>1399</ele>
        <time>2018-10-17T13:36:56Z</time>
      </trkpt>
      <trkpt lat="45.82307" lon="6.41269">
        <ele>1399</ele>
        <time>2018-10-17T13:36:57Z</time>
      </trkpt>
      <trkpt lat="45.82308" lon="6.41269">
        <ele>1399</ele>
        <time>2018-10-17T13:36:58Z</time>
      </trkpt>
      <trkpt lat="45.82308" lon="6.4127">
        <ele>1398</ele>
        <time>2018-10-17T13:36:59Z</time>
      </trkpt>
      <trkpt lat="45.82309" lon="6.4127">
        <ele>1397</ele>
        <time>2018-10-17T13:37:00Z</time>
      </trkpt>
      <trkpt lat="45.8231" lon="6.4127">
        <ele>1397</ele>
        <time>2018-10-17T13:37:01Z</time>
      </trkpt>
      <trkpt lat="45.8231" lon="6.41271">
        <ele>1397</ele>
        <time>2018-10-17T13:37:02Z</time>
      </trkpt>
      <trkpt lat="45.82315" lon="6.41274">
        <ele>1396</ele>
        <time>2018-10-17T13:37:03Z</time>
      </trkpt>
      <trkpt lat="45.82315" lon="6.41274">
        <ele>1396</ele>
        <time>2018-10-17T13:37:04Z</time>
      </trkpt>
      <trkpt lat="45.82315" lon="6.41274">
        <ele>1396</ele>
        <time>2018-10-17T13:37:05Z</time>
      </trkpt>
      <trkpt lat="45.82315" lon="6.41274">
        <ele>1396</ele>
        <time>2018-10-17T13:37:06Z</time>
      </trkpt>
      <trkpt lat="45.82315" lon="6.41274">
        <ele>1396</ele>
        <time>2018-10-17T13:37:07Z</time>
      </trkpt>
      <trkpt lat="45.82326" lon="6.41278">
        <ele>1395</ele>
        <time>2018-10-17T13:37:08Z</time>
      </trkpt>
      <trkpt lat="45.82327" lon="6.41278">
        <ele>1395</ele>
        <time>2018-10-17T13:37:09Z</time>
      </trkpt>
      <trkpt lat="45.82328" lon="6.41279">
        <ele>1394</ele>
        <time>2018-10-17T13:37:10Z</time>
      </trkpt>
      <trkpt lat="45.82329" lon="6.41279">
        <ele>1393</ele>
        <time>2018-10-17T13:37:11Z</time>
      </trkpt>
      <trkpt lat="45.82329" lon="6.4128">
        <ele>1393</ele>
        <time>2018-10-17T13:37:12Z</time>
      </trkpt>
      <trkpt lat="45.8233" lon="6.4128">
        <ele>1393</ele>
        <time>2018-10-17T13:37:13Z</time>
      </trkpt>
      <trkpt lat="45.82335" lon="6.41284">
        <ele>1392</ele>
        <time>2018-10-17T13:37:14Z</time>
      </trkpt>
      <trkpt lat="45.82335" lon="6.41284">
        <ele>1392</ele>
        <time>2018-10-17T13:37:15Z</time>
      </trkpt>
      <trkpt lat="45.82335" lon="6.41284">
        <ele>1392</ele>
        <time>2018-10-17T13:37:16Z</time>
      </trkpt>
      <trkpt lat="45.82335" lon="6.41284">
        <ele>1392</ele>
        <time>2018-10-17T13:37:17Z</time>
      </trkpt>
      <trkpt lat="45.82339" lon="6.41296">
        <ele>1392</ele>
        <time>2018-10-17T13:37:18Z</time>
      </trkpt>
      <trkpt lat="45.82339" lon="6.41296">
        <ele>1392</ele>
        <time>2018-10-17T13:37:19Z</time>
      </trkpt>
      <trkpt lat="45.82339" lon="6.41296">
        <ele>1392</ele>
        <time>2018-10-17T13:37:20Z</time>
      </trkpt>
      <trkpt lat="45.82339" lon="6.41296">
        <ele>1391</ele>
        <time>2018-10-17T13:37:21Z</time>
      </trkpt>
      <trkpt lat="45.82339" lon="6.41296">
        <ele>1390</ele>
        <time>2018-10-17T13:37:22Z</time>
      </trkpt>
      <trkpt lat="45.82339" lon="6.41296">
        <ele>1390</ele>
        <time>2018-10-17T13:37:23Z</time>
      </trkpt>
      <trkpt lat="45.8234" lon="6.41309">
        <ele>1390</ele>
        <time>2018-10-17T13:37:24Z</time>
      </trkpt>
      <trkpt lat="45.82341" lon="6.41308">
        <ele>1390</ele>
        <time>2018-10-17T13:37:25Z</time>
      </trkpt>
      <trkpt lat="45.82342" lon="6.41306">
        <ele>1389</ele>
        <time>2018-10-17T13:37:26Z</time>
      </trkpt>
      <trkpt lat="45.82343" lon="6.41305">
        <ele>1388</ele>
        <time>2018-10-17T13:37:27Z</time>
      </trkpt>
      <trkpt lat="45.82344" lon="6.41304">
        <ele>1388</ele>
        <time>2018-10-17T13:37:28Z</time>
      </trkpt>
      <trkpt lat="45.82345" lon="6.41303">
        <ele>1388</ele>
        <time>2018-10-17T13:37:29Z</time>
      </trkpt>
      <trkpt lat="45.82346" lon="6.41302">
        <ele>1388</ele>
        <time>2018-10-17T13:37:30Z</time>
      </trkpt>
      <trkpt lat="45.82346" lon="6.41301">
        <ele>1388</ele>
        <time>2018-10-17T13:37:31Z</time>
      </trkpt>
      <trkpt lat="45.82346" lon="6.41301">
        <ele>1387</ele>
        <time>2018-10-17T13:37:32Z</time>
      </trkpt>
      <trkpt lat="45.82346" lon="6.41301">
        <ele>1387</ele>
        <time>2018-10-17T13:37:33Z</time>
      </trkpt>
      <trkpt lat="45.82346" lon="6.41301">
        <ele>1386</ele>
        <time>2018-10-17T13:37:34Z</time>
      </trkpt>
      <trkpt lat="45.82346" lon="6.41301">
        <ele>1386</ele>
        <time>2018-10-17T13:37:35Z</time>
      </trkpt>
      <trkpt lat="45.82346" lon="6.41301">
        <ele>1386</ele>
        <time>2018-10-17T13:37:36Z</time>
      </trkpt>
      <trkpt lat="45.82346" lon="6.41301">
        <ele>1385</ele>
        <time>2018-10-17T13:37:37Z</time>
      </trkpt>
      <trkpt lat="45.82346" lon="6.41301">
        <ele>1385</ele>
        <time>2018-10-17T13:37:38Z</time>
      </trkpt>
      <trkpt lat="45.82346" lon="6.41301">
        <ele>1384</ele>
        <time>2018-10-17T13:37:39Z</time>
      </trkpt>
      <trkpt lat="45.82346" lon="6.41301">
        <ele>1383</ele>
        <time>2018-10-17T13:37:40Z</time>
      </trkpt>
      <trkpt lat="45.82356" lon="6.41299">
        <ele>1383</ele>
        <time>2018-10-17T13:37:41Z</time>
      </trkpt>
      <trkpt lat="45.82356" lon="6.413">
        <ele>1383</ele>
        <time>2018-10-17T13:37:42Z</time>
      </trkpt>
      <trkpt lat="45.82356" lon="6.41301">
        <ele>1382</ele>
        <time>2018-10-17T13:37:43Z</time>
      </trkpt>
      <trkpt lat="45.82356" lon="6.41302">
        <ele>1382</ele>
        <time>2018-10-17T13:37:44Z</time>
      </trkpt>
      <trkpt lat="45.82356" lon="6.41303">
        <ele>1382</ele>
        <time>2018-10-17T13:37:45Z</time>
      </trkpt>
      <trkpt lat="45.82356" lon="6.41304">
        <ele>1381</ele>
        <time>2018-10-17T13:37:46Z</time>
      </trkpt>
      <trkpt lat="45.82357" lon="6.41305">
        <ele>1381</ele>
        <time>2018-10-17T13:37:47Z</time>
      </trkpt>
      <trkpt lat="45.82357" lon="6.41306">
        <ele>1380</ele>
        <time>2018-10-17T13:37:48Z</time>
      </trkpt>
      <trkpt lat="45.82358" lon="6.41313">
        <ele>1380</ele>
        <time>2018-10-17T13:37:49Z</time>
      </trkpt>
      <trkpt lat="45.82358" lon="6.41313">
        <ele>1380</ele>
        <time>2018-10-17T13:37:50Z</time>
      </trkpt>
      <trkpt lat="45.82358" lon="6.41313">
        <ele>1380</ele>
        <time>2018-10-17T13:37:51Z</time>
      </trkpt>
      <trkpt lat="45.82356" lon="6.41328">
        <ele>1379</ele>
        <time>2018-10-17T13:37:53Z</time>
      </trkpt>
      <trkpt lat="45.82356" lon="6.41328">
        <ele>1379</ele>
        <time>2018-10-17T13:37:54Z</time>
      </trkpt>
      <trkpt lat="45.82356" lon="6.41328">
        <ele>1379</ele>
        <time>2018-10-17T13:37:55Z</time>
      </trkpt>
      <trkpt lat="45.82356" lon="6.41328">
        <ele>1378</ele>
        <time>2018-10-17T13:37:56Z</time>
      </trkpt>
      <trkpt lat="45.82352" lon="6.41342">
        <ele>1378</ele>
        <time>2018-10-17T13:37:57Z</time>
      </trkpt>
      <trkpt lat="45.82352" lon="6.41344">
        <ele>1378</ele>
        <time>2018-10-17T13:37:58Z</time>
      </trkpt>
      <trkpt lat="45.82353" lon="6.41345">
        <ele>1378</ele>
        <time>2018-10-17T13:37:59Z</time>
      </trkpt>
      <trkpt lat="45.82353" lon="6.41346">
        <ele>1377</ele>
        <time>2018-10-17T13:38:00Z</time>
      </trkpt>
      <trkpt lat="45.82354" lon="6.41348">
        <ele>1376</ele>
        <time>2018-10-17T13:38:01Z</time>
      </trkpt>
      <trkpt lat="45.82354" lon="6.41349">
        <ele>1376</ele>
        <time>2018-10-17T13:38:02Z</time>
      </trkpt>
      <trkpt lat="45.82355" lon="6.4135">
        <ele>1376</ele>
        <time>2018-10-17T13:38:03Z</time>
      </trkpt>
      <trkpt lat="45.82355" lon="6.41352">
        <ele>1376</ele>
        <time>2018-10-17T13:38:04Z</time>
      </trkpt>
      <trkpt lat="45.82355" lon="6.41353">
        <ele>1375</ele>
        <time>2018-10-17T13:38:05Z</time>
      </trkpt>
      <trkpt lat="45.82356" lon="6.41354">
        <ele>1375</ele>
        <time>2018-10-17T13:38:06Z</time>
      </trkpt>
      <trkpt lat="45.82357" lon="6.41355">
        <ele>1374</ele>
        <time>2018-10-17T13:38:07Z</time>
      </trkpt>
      <trkpt lat="45.82358" lon="6.41356">
        <ele>1373</ele>
        <time>2018-10-17T13:38:08Z</time>
      </trkpt>
      <trkpt lat="45.82359" lon="6.41357">
        <ele>1373</ele>
        <time>2018-10-17T13:38:09Z</time>
      </trkpt>
      <trkpt lat="45.8236" lon="6.41358">
        <ele>1372</ele>
        <time>2018-10-17T13:38:10Z</time>
      </trkpt>
      <trkpt lat="45.82361" lon="6.41359">
        <ele>1372</ele>
        <time>2018-10-17T13:38:11Z</time>
      </trkpt>
      <trkpt lat="45.82362" lon="6.4136">
        <ele>1372</ele>
        <time>2018-10-17T13:38:12Z</time>
      </trkpt>
      <trkpt lat="45.82363" lon="6.41361">
        <ele>1371</ele>
        <time>2018-10-17T13:38:13Z</time>
      </trkpt>
      <trkpt lat="45.82363" lon="6.41361">
        <ele>1371</ele>
        <time>2018-10-17T13:38:14Z</time>
      </trkpt>
      <trkpt lat="45.82363" lon="6.41361">
        <ele>1370</ele>
        <time>2018-10-17T13:38:15Z</time>
      </trkpt>
      <trkpt lat="45.82363" lon="6.41361">
        <ele>1370</ele>
        <time>2018-10-17T13:38:16Z</time>
      </trkpt>
      <trkpt lat="45.82363" lon="6.41361">
        <ele>1369</ele>
        <time>2018-10-17T13:38:17Z</time>
      </trkpt>
      <trkpt lat="45.8237" lon="6.41353">
        <ele>1369</ele>
        <time>2018-10-17T13:38:18Z</time>
      </trkpt>
      <trkpt lat="45.82371" lon="6.41353">
        <ele>1369</ele>
        <time>2018-10-17T13:38:19Z</time>
      </trkpt>
      <trkpt lat="45.82371" lon="6.41354">
        <ele>1369</ele>
        <time>2018-10-17T13:38:20Z</time>
      </trkpt>
      <trkpt lat="45.82371" lon="6.41354">
        <ele>1369</ele>
        <time>2018-10-17T13:38:21Z</time>
      </trkpt>
      <trkpt lat="45.82371" lon="6.41355">
        <ele>1369</ele>
        <time>2018-10-17T13:38:22Z</time>
      </trkpt>
      <trkpt lat="45.82371" lon="6.41355">
        <ele>1369</ele>
        <time>2018-10-17T13:38:23Z</time>
      </trkpt>
      <trkpt lat="45.82371" lon="6.41356">
        <ele>1368</ele>
        <time>2018-10-17T13:38:24Z</time>
      </trkpt>
      <trkpt lat="45.82371" lon="6.41356">
        <ele>1368</ele>
        <time>2018-10-17T13:38:25Z</time>
      </trkpt>
      <trkpt lat="45.82371" lon="6.41357">
        <ele>1368</ele>
        <time>2018-10-17T13:38:26Z</time>
      </trkpt>
      <trkpt lat="45.82372" lon="6.41357">
        <ele>1368</ele>
        <time>2018-10-17T13:38:27Z</time>
      </trkpt>
      <trkpt lat="45.82372" lon="6.41358">
        <ele>1368</ele>
        <time>2018-10-17T13:38:28Z</time>
      </trkpt>
      <trkpt lat="45.82372" lon="6.41358">
        <ele>1368</ele>
        <time>2018-10-17T13:38:29Z</time>
      </trkpt>
      <trkpt lat="45.82372" lon="6.41359">
        <ele>1367</ele>
        <time>2018-10-17T13:38:30Z</time>
      </trkpt>
      <trkpt lat="45.82372" lon="6.41359">
        <ele>1367</ele>
        <time>2018-10-17T13:38:31Z</time>
      </trkpt>
      <trkpt lat="45.82374" lon="6.41366">
        <ele>1367</ele>
        <time>2018-10-17T13:38:32Z</time>
      </trkpt>
      <trkpt lat="45.82374" lon="6.41366">
        <ele>1367</ele>
        <time>2018-10-17T13:38:33Z</time>
      </trkpt>
      <trkpt lat="45.82365" lon="6.4138">
        <ele>1366</ele>
        <time>2018-10-17T13:38:34Z</time>
      </trkpt>
      <trkpt lat="45.82364" lon="6.41382">
        <ele>1366</ele>
        <time>2018-10-17T13:38:35Z</time>
      </trkpt>
      <trkpt lat="45.82362" lon="6.41384">
        <ele>1366</ele>
        <time>2018-10-17T13:38:36Z</time>
      </trkpt>
      <trkpt lat="45.8236" lon="6.41387">
        <ele>1366</ele>
        <time>2018-10-17T13:38:37Z</time>
      </trkpt>
      <trkpt lat="45.8236" lon="6.41387">
        <ele>1365</ele>
        <time>2018-10-17T13:38:38Z</time>
      </trkpt>
      <trkpt lat="45.8236" lon="6.41387">
        <ele>1364</ele>
        <time>2018-10-17T13:38:39Z</time>
      </trkpt>
      <trkpt lat="45.8236" lon="6.41387">
        <ele>1364</ele>
        <time>2018-10-17T13:38:40Z</time>
      </trkpt>
      <trkpt lat="45.82357" lon="6.41401">
        <ele>1364</ele>
        <time>2018-10-17T13:38:41Z</time>
      </trkpt>
      <trkpt lat="45.82357" lon="6.41401">
        <ele>1364</ele>
        <time>2018-10-17T13:38:42Z</time>
      </trkpt>
      <trkpt lat="45.82357" lon="6.41401">
        <ele>1364</ele>
        <time>2018-10-17T13:38:43Z</time>
      </trkpt>
      <trkpt lat="45.82357" lon="6.41401">
        <ele>1364</ele>
        <time>2018-10-17T13:38:44Z</time>
      </trkpt>
      <trkpt lat="45.82357" lon="6.41401">
        <ele>1364</ele>
        <time>2018-10-17T13:38:45Z</time>
      </trkpt>
      <trkpt lat="45.82356" lon="6.41415">
        <ele>1363</ele>
        <time>2018-10-17T13:38:46Z</time>
      </trkpt>
      <trkpt lat="45.82356" lon="6.41415">
        <ele>1363</ele>
        <time>2018-10-17T13:38:47Z</time>
      </trkpt>
      <trkpt lat="45.82356" lon="6.41415">
        <ele>1363</ele>
        <time>2018-10-17T13:38:48Z</time>
      </trkpt>
      <trkpt lat="45.82356" lon="6.41415">
        <ele>1363</ele>
        <time>2018-10-17T13:38:49Z</time>
      </trkpt>
      <trkpt lat="45.82356" lon="6.41415">
        <ele>1363</ele>
        <time>2018-10-17T13:38:50Z</time>
      </trkpt>
      <trkpt lat="45.82356" lon="6.41415">
        <ele>1362</ele>
        <time>2018-10-17T13:38:51Z</time>
      </trkpt>
      <trkpt lat="45.82356" lon="6.41415">
        <ele>1362</ele>
        <time>2018-10-17T13:38:52Z</time>
      </trkpt>
      <trkpt lat="45.82356" lon="6.41415">
        <ele>1361</ele>
        <time>2018-10-17T13:38:53Z</time>
      </trkpt>
      <trkpt lat="45.82356" lon="6.41415">
        <ele>1361</ele>
        <time>2018-10-17T13:38:54Z</time>
      </trkpt>
      <trkpt lat="45.82356" lon="6.41415">
        <ele>1361</ele>
        <time>2018-10-17T13:38:55Z</time>
      </trkpt>
      <trkpt lat="45.82356" lon="6.41415">
        <ele>1361</ele>
        <time>2018-10-17T13:38:56Z</time>
      </trkpt>
      <trkpt lat="45.82356" lon="6.41415">
        <ele>1361</ele>
        <time>2018-10-17T13:38:57Z</time>
      </trkpt>
      <trkpt lat="45.82363" lon="6.41403">
        <ele>1361</ele>
        <time>2018-10-17T13:38:59Z</time>
      </trkpt>
      <trkpt lat="45.82364" lon="6.41401">
        <ele>1361</ele>
        <time>2018-10-17T13:39:00Z</time>
      </trkpt>
      <trkpt lat="45.82366" lon="6.41399">
        <ele>1360</ele>
        <time>2018-10-17T13:39:01Z</time>
      </trkpt>
      <trkpt lat="45.82367" lon="6.41397">
        <ele>1360</ele>
        <time>2018-10-17T13:39:02Z</time>
      </trkpt>
      <trkpt lat="45.82373" lon="6.41388">
        <ele>1360</ele>
        <time>2018-10-17T13:39:03Z</time>
      </trkpt>
      <trkpt lat="45.82375" lon="6.41386">
        <ele>1360</ele>
        <time>2018-10-17T13:39:04Z</time>
      </trkpt>
      <trkpt lat="45.82377" lon="6.41384">
        <ele>1360</ele>
        <time>2018-10-17T13:39:05Z</time>
      </trkpt>
      <trkpt lat="45.82379" lon="6.41382">
        <ele>1360</ele>
        <time>2018-10-17T13:39:06Z</time>
      </trkpt>
      <trkpt lat="45.82379" lon="6.41382">
        <ele>1360</ele>
        <time>2018-10-17T13:39:07Z</time>
      </trkpt>
      <trkpt lat="45.82379" lon="6.41382">
        <ele>1360</ele>
        <time>2018-10-17T13:39:08Z</time>
      </trkpt>
      <trkpt lat="45.82379" lon="6.41382">
        <ele>1360</ele>
        <time>2018-10-17T13:39:09Z</time>
      </trkpt>
      <trkpt lat="45.82379" lon="6.41382">
        <ele>1360</ele>
        <time>2018-10-17T13:39:10Z</time>
      </trkpt>
      <trkpt lat="45.82379" lon="6.41382">
        <ele>1360</ele>
        <time>2018-10-17T13:39:11Z</time>
      </trkpt>
      <trkpt lat="45.82379" lon="6.41382">
        <ele>1359</ele>
        <time>2018-10-17T13:39:12Z</time>
      </trkpt>
      <trkpt lat="45.82386" lon="6.41372">
        <ele>1359</ele>
        <time>2018-10-17T13:39:13Z</time>
      </trkpt>
      <trkpt lat="45.82387" lon="6.41372">
        <ele>1358</ele>
        <time>2018-10-17T13:39:14Z</time>
      </trkpt>
      <trkpt lat="45.82388" lon="6.41373">
        <ele>1358</ele>
        <time>2018-10-17T13:39:15Z</time>
      </trkpt>
      <trkpt lat="45.82389" lon="6.41373">
        <ele>1358</ele>
        <time>2018-10-17T13:39:16Z</time>
      </trkpt>
      <trkpt lat="45.8239" lon="6.41374">
        <ele>1358</ele>
        <time>2018-10-17T13:39:17Z</time>
      </trkpt>
      <trkpt lat="45.82391" lon="6.41374">
        <ele>1358</ele>
        <time>2018-10-17T13:39:18Z</time>
      </trkpt>
      <trkpt lat="45.82393" lon="6.41375">
        <ele>1358</ele>
        <time>2018-10-17T13:39:19Z</time>
      </trkpt>
      <trkpt lat="45.82394" lon="6.41375">
        <ele>1358</ele>
        <time>2018-10-17T13:39:20Z</time>
      </trkpt>
      <trkpt lat="45.82394" lon="6.41375">
        <ele>1357</ele>
        <time>2018-10-17T13:39:21Z</time>
      </trkpt>
      <trkpt lat="45.82394" lon="6.41375">
        <ele>1357</ele>
        <time>2018-10-17T13:39:22Z</time>
      </trkpt>
      <trkpt lat="45.82394" lon="6.41375">
        <ele>1357</ele>
        <time>2018-10-17T13:39:23Z</time>
      </trkpt>
      <trkpt lat="45.82394" lon="6.41375">
        <ele>1357</ele>
        <time>2018-10-17T13:39:24Z</time>
      </trkpt>
      <trkpt lat="45.82394" lon="6.41375">
        <ele>1356</ele>
        <time>2018-10-17T13:39:25Z</time>
      </trkpt>
      <trkpt lat="45.82394" lon="6.41375">
        <ele>1356</ele>
        <time>2018-10-17T13:39:26Z</time>
      </trkpt>
      <trkpt lat="45.82399" lon="6.41388">
        <ele>1356</ele>
        <time>2018-10-17T13:39:27Z</time>
      </trkpt>
      <trkpt lat="45.824" lon="6.4139">
        <ele>1356</ele>
        <time>2018-10-17T13:39:28Z</time>
      </trkpt>
      <trkpt lat="45.824" lon="6.41391">
        <ele>1356</ele>
        <time>2018-10-17T13:39:29Z</time>
      </trkpt>
      <trkpt lat="45.82401" lon="6.41393">
        <ele>1355</ele>
        <time>2018-10-17T13:39:30Z</time>
      </trkpt>
      <trkpt lat="45.82401" lon="6.41394">
        <ele>1354</ele>
        <time>2018-10-17T13:39:31Z</time>
      </trkpt>
      <trkpt lat="45.82402" lon="6.41396">
        <ele>1353</ele>
        <time>2018-10-17T13:39:32Z</time>
      </trkpt>
      <trkpt lat="45.82402" lon="6.41397">
        <ele>1353</ele>
        <time>2018-10-17T13:39:33Z</time>
      </trkpt>
      <trkpt lat="45.82403" lon="6.41399">
        <ele>1353</ele>
        <time>2018-10-17T13:39:34Z</time>
      </trkpt>
      <trkpt lat="45.82404" lon="6.41399">
        <ele>1353</ele>
        <time>2018-10-17T13:39:35Z</time>
      </trkpt>
      <trkpt lat="45.82404" lon="6.414">
        <ele>1352</ele>
        <time>2018-10-17T13:39:36Z</time>
      </trkpt>
      <trkpt lat="45.82405" lon="6.41401">
        <ele>1352</ele>
        <time>2018-10-17T13:39:37Z</time>
      </trkpt>
      <trkpt lat="45.82406" lon="6.41402">
        <ele>1352</ele>
        <time>2018-10-17T13:39:38Z</time>
      </trkpt>
      <trkpt lat="45.82407" lon="6.41403">
        <ele>1352</ele>
        <time>2018-10-17T13:39:39Z</time>
      </trkpt>
      <trkpt lat="45.82407" lon="6.41403">
        <ele>1352</ele>
        <time>2018-10-17T13:39:40Z</time>
      </trkpt>
      <trkpt lat="45.82411" lon="6.41409">
        <ele>1352</ele>
        <time>2018-10-17T13:39:41Z</time>
      </trkpt>
      <trkpt lat="45.82411" lon="6.4141">
        <ele>1351</ele>
        <time>2018-10-17T13:39:42Z</time>
      </trkpt>
      <trkpt lat="45.82411" lon="6.41411">
        <ele>1350</ele>
        <time>2018-10-17T13:39:43Z</time>
      </trkpt>
      <trkpt lat="45.8241" lon="6.41412">
        <ele>1350</ele>
        <time>2018-10-17T13:39:44Z</time>
      </trkpt>
      <trkpt lat="45.8241" lon="6.41413">
        <ele>1350</ele>
        <time>2018-10-17T13:39:45Z</time>
      </trkpt>
      <trkpt lat="45.8241" lon="6.41414">
        <ele>1350</ele>
        <time>2018-10-17T13:39:46Z</time>
      </trkpt>
      <trkpt lat="45.82409" lon="6.41415">
        <ele>1349</ele>
        <time>2018-10-17T13:39:47Z</time>
      </trkpt>
      <trkpt lat="45.82409" lon="6.41416">
        <ele>1349</ele>
        <time>2018-10-17T13:39:48Z</time>
      </trkpt>
      <trkpt lat="45.82407" lon="6.41425">
        <ele>1349</ele>
        <time>2018-10-17T13:39:49Z</time>
      </trkpt>
      <trkpt lat="45.82407" lon="6.41426">
        <ele>1349</ele>
        <time>2018-10-17T13:39:50Z</time>
      </trkpt>
      <trkpt lat="45.82408" lon="6.41427">
        <ele>1349</ele>
        <time>2018-10-17T13:39:51Z</time>
      </trkpt>
      <trkpt lat="45.82408" lon="6.41428">
        <ele>1349</ele>
        <time>2018-10-17T13:39:52Z</time>
      </trkpt>
      <trkpt lat="45.82409" lon="6.4143">
        <ele>1349</ele>
        <time>2018-10-17T13:39:53Z</time>
      </trkpt>
      <trkpt lat="45.82409" lon="6.41431">
        <ele>1349</ele>
        <time>2018-10-17T13:39:54Z</time>
      </trkpt>
      <trkpt lat="45.8241" lon="6.41432">
        <ele>1349</ele>
        <time>2018-10-17T13:39:55Z</time>
      </trkpt>
      <trkpt lat="45.82411" lon="6.41433">
        <ele>1348</ele>
        <time>2018-10-17T13:39:56Z</time>
      </trkpt>
      <trkpt lat="45.82411" lon="6.41434">
        <ele>1348</ele>
        <time>2018-10-17T13:39:57Z</time>
      </trkpt>
      <trkpt lat="45.82412" lon="6.41435">
        <ele>1348</ele>
        <time>2018-10-17T13:39:58Z</time>
      </trkpt>
      <trkpt lat="45.82412" lon="6.41435">
        <ele>1347</ele>
        <time>2018-10-17T13:39:59Z</time>
      </trkpt>
      <trkpt lat="45.82412" lon="6.41435">
        <ele>1346</ele>
        <time>2018-10-17T13:40:00Z</time>
      </trkpt>
      <trkpt lat="45.82412" lon="6.41435">
        <ele>1345</ele>
        <time>2018-10-17T13:40:01Z</time>
      </trkpt>
      <trkpt lat="45.82412" lon="6.41435">
        <ele>1345</ele>
        <time>2018-10-17T13:40:02Z</time>
      </trkpt>
      <trkpt lat="45.82412" lon="6.41435">
        <ele>1345</ele>
        <time>2018-10-17T13:40:03Z</time>
      </trkpt>
      <trkpt lat="45.82421" lon="6.41437">
        <ele>1345</ele>
        <time>2018-10-17T13:40:05Z</time>
      </trkpt>
      <trkpt lat="45.82424" lon="6.41437">
        <ele>1345</ele>
        <time>2018-10-17T13:40:06Z</time>
      </trkpt>
      <trkpt lat="45.82426" lon="6.41436">
        <ele>1345</ele>
        <time>2018-10-17T13:40:07Z</time>
      </trkpt>
      <trkpt lat="45.82428" lon="6.41435">
        <ele>1344</ele>
        <time>2018-10-17T13:40:08Z</time>
      </trkpt>
      <trkpt lat="45.82431" lon="6.41434">
        <ele>1344</ele>
        <time>2018-10-17T13:40:09Z</time>
      </trkpt>
      <trkpt lat="45.82432" lon="6.41433">
        <ele>1344</ele>
        <time>2018-10-17T13:40:10Z</time>
      </trkpt>
      <trkpt lat="45.82434" lon="6.41432">
        <ele>1344</ele>
        <time>2018-10-17T13:40:11Z</time>
      </trkpt>
      <trkpt lat="45.82436" lon="6.4143">
        <ele>1343</ele>
        <time>2018-10-17T13:40:12Z</time>
      </trkpt>
      <trkpt lat="45.82441" lon="6.41427">
        <ele>1343</ele>
        <time>2018-10-17T13:40:13Z</time>
      </trkpt>
      <trkpt lat="45.82441" lon="6.41427">
        <ele>1342</ele>
        <time>2018-10-17T13:40:14Z</time>
      </trkpt>
      <trkpt lat="45.82441" lon="6.41427">
        <ele>1342</ele>
        <time>2018-10-17T13:40:15Z</time>
      </trkpt>
      <trkpt lat="45.82452" lon="6.41424">
        <ele>1342</ele>
        <time>2018-10-17T13:40:16Z</time>
      </trkpt>
      <trkpt lat="45.82455" lon="6.41425">
        <ele>1342</ele>
        <time>2018-10-17T13:40:17Z</time>
      </trkpt>
      <trkpt lat="45.82457" lon="6.41427">
        <ele>1341</ele>
        <time>2018-10-17T13:40:18Z</time>
      </trkpt>
      <trkpt lat="45.82459" lon="6.41428">
        <ele>1341</ele>
        <time>2018-10-17T13:40:19Z</time>
      </trkpt>
      <trkpt lat="45.82461" lon="6.41427">
        <ele>1341</ele>
        <time>2018-10-17T13:40:20Z</time>
      </trkpt>
      <trkpt lat="45.82463" lon="6.41426">
        <ele>1341</ele>
        <time>2018-10-17T13:40:21Z</time>
      </trkpt>
      <trkpt lat="45.82465" lon="6.41425">
        <ele>1341</ele>
        <time>2018-10-17T13:40:22Z</time>
      </trkpt>
      <trkpt lat="45.82468" lon="6.41424">
        <ele>1340</ele>
        <time>2018-10-17T13:40:23Z</time>
      </trkpt>
      <trkpt lat="45.82469" lon="6.41424">
        <ele>1339</ele>
        <time>2018-10-17T13:40:24Z</time>
      </trkpt>
      <trkpt lat="45.82471" lon="6.41423">
        <ele>1338</ele>
        <time>2018-10-17T13:40:25Z</time>
      </trkpt>
      <trkpt lat="45.82473" lon="6.41422">
        <ele>1338</ele>
        <time>2018-10-17T13:40:26Z</time>
      </trkpt>
      <trkpt lat="45.82478" lon="6.41419">
        <ele>1338</ele>
        <time>2018-10-17T13:40:27Z</time>
      </trkpt>
      <trkpt lat="45.82478" lon="6.41419">
        <ele>1338</ele>
        <time>2018-10-17T13:40:28Z</time>
      </trkpt>
      <trkpt lat="45.82478" lon="6.41419">
        <ele>1337</ele>
        <time>2018-10-17T13:40:29Z</time>
      </trkpt>
      <trkpt lat="45.82478" lon="6.41419">
        <ele>1337</ele>
        <time>2018-10-17T13:40:30Z</time>
      </trkpt>
      <trkpt lat="45.82489" lon="6.41413">
        <ele>1337</ele>
        <time>2018-10-17T13:40:31Z</time>
      </trkpt>
      <trkpt lat="45.82489" lon="6.41413">
        <ele>1337</ele>
        <time>2018-10-17T13:40:32Z</time>
      </trkpt>
      <trkpt lat="45.8249" lon="6.41414">
        <ele>1337</ele>
        <time>2018-10-17T13:40:33Z</time>
      </trkpt>
      <trkpt lat="45.82491" lon="6.41414">
        <ele>1337</ele>
        <time>2018-10-17T13:40:34Z</time>
      </trkpt>
      <trkpt lat="45.82492" lon="6.41415">
        <ele>1337</ele>
        <time>2018-10-17T13:40:35Z</time>
      </trkpt>
      <trkpt lat="45.82493" lon="6.41415">
        <ele>1337</ele>
        <time>2018-10-17T13:40:36Z</time>
      </trkpt>
      <trkpt lat="45.82499" lon="6.41419">
        <ele>1336</ele>
        <time>2018-10-17T13:40:37Z</time>
      </trkpt>
      <trkpt lat="45.82501" lon="6.4142">
        <ele>1336</ele>
        <time>2018-10-17T13:40:38Z</time>
      </trkpt>
      <trkpt lat="45.82502" lon="6.41421">
        <ele>1335</ele>
        <time>2018-10-17T13:40:39Z</time>
      </trkpt>
      <trkpt lat="45.82503" lon="6.41422">
        <ele>1335</ele>
        <time>2018-10-17T13:40:40Z</time>
      </trkpt>
      <trkpt lat="45.82505" lon="6.41423">
        <ele>1335</ele>
        <time>2018-10-17T13:40:41Z</time>
      </trkpt>
      <trkpt lat="45.82506" lon="6.41424">
        <ele>1335</ele>
        <time>2018-10-17T13:40:42Z</time>
      </trkpt>
      <trkpt lat="45.82507" lon="6.41425">
        <ele>1334</ele>
        <time>2018-10-17T13:40:43Z</time>
      </trkpt>
      <trkpt lat="45.82507" lon="6.41425">
        <ele>1334</ele>
        <time>2018-10-17T13:40:44Z</time>
      </trkpt>
      <trkpt lat="45.82507" lon="6.41425">
        <ele>1334</ele>
        <time>2018-10-17T13:40:45Z</time>
      </trkpt>
      <trkpt lat="45.82507" lon="6.41425">
        <ele>1334</ele>
        <time>2018-10-17T13:40:46Z</time>
      </trkpt>
      <trkpt lat="45.82507" lon="6.41425">
        <ele>1333</ele>
        <time>2018-10-17T13:40:47Z</time>
      </trkpt>
      <trkpt lat="45.82507" lon="6.41425">
        <ele>1333</ele>
        <time>2018-10-17T13:40:48Z</time>
      </trkpt>
      <trkpt lat="45.82515" lon="6.41433">
        <ele>1333</ele>
        <time>2018-10-17T13:40:49Z</time>
      </trkpt>
      <trkpt lat="45.82515" lon="6.41433">
        <ele>1332</ele>
        <time>2018-10-17T13:40:50Z</time>
      </trkpt>
      <trkpt lat="45.82515" lon="6.41433">
        <ele>1332</ele>
        <time>2018-10-17T13:40:51Z</time>
      </trkpt>
      <trkpt lat="45.82515" lon="6.41433">
        <ele>1332</ele>
        <time>2018-10-17T13:40:52Z</time>
      </trkpt>
      <trkpt lat="45.82515" lon="6.41433">
        <ele>1332</ele>
        <time>2018-10-17T13:40:53Z</time>
      </trkpt>
      <trkpt lat="45.82525" lon="6.41439">
        <ele>1332</ele>
        <time>2018-10-17T13:40:54Z</time>
      </trkpt>
      <trkpt lat="45.82526" lon="6.41439">
        <ele>1332</ele>
        <time>2018-10-17T13:40:55Z</time>
      </trkpt>
      <trkpt lat="45.82527" lon="6.41439">
        <ele>1331</ele>
        <time>2018-10-17T13:40:56Z</time>
      </trkpt>
      <trkpt lat="45.82528" lon="6.4144">
        <ele>1331</ele>
        <time>2018-10-17T13:40:57Z</time>
      </trkpt>
      <trkpt lat="45.82529" lon="6.4144">
        <ele>1331</ele>
        <time>2018-10-17T13:40:58Z</time>
      </trkpt>
      <trkpt lat="45.8253" lon="6.4144">
        <ele>1330</ele>
        <time>2018-10-17T13:40:59Z</time>
      </trkpt>
      <trkpt lat="45.8253" lon="6.41441">
        <ele>1329</ele>
        <time>2018-10-17T13:41:00Z</time>
      </trkpt>
      <trkpt lat="45.82531" lon="6.41441">
        <ele>1328</ele>
        <time>2018-10-17T13:41:01Z</time>
      </trkpt>
      <trkpt lat="45.82532" lon="6.41441">
        <ele>1328</ele>
        <time>2018-10-17T13:41:02Z</time>
      </trkpt>
      <trkpt lat="45.82534" lon="6.41443">
        <ele>1328</ele>
        <time>2018-10-17T13:41:03Z</time>
      </trkpt>
      <trkpt lat="45.82535" lon="6.41444">
        <ele>1328</ele>
        <time>2018-10-17T13:41:04Z</time>
      </trkpt>
      <trkpt lat="45.82536" lon="6.41446">
        <ele>1328</ele>
        <time>2018-10-17T13:41:05Z</time>
      </trkpt>
      <trkpt lat="45.82537" lon="6.41447">
        <ele>1328</ele>
        <time>2018-10-17T13:41:06Z</time>
      </trkpt>
      <trkpt lat="45.82539" lon="6.41449">
        <ele>1327</ele>
        <time>2018-10-17T13:41:07Z</time>
      </trkpt>
      <trkpt lat="45.8254" lon="6.4145">
        <ele>1327</ele>
        <time>2018-10-17T13:41:08Z</time>
      </trkpt>
      <trkpt lat="45.82541" lon="6.41452">
        <ele>1327</ele>
        <time>2018-10-17T13:41:09Z</time>
      </trkpt>
      <trkpt lat="45.82542" lon="6.41453">
        <ele>1326</ele>
        <time>2018-10-17T13:41:10Z</time>
      </trkpt>
      <trkpt lat="45.82544" lon="6.41455">
        <ele>1326</ele>
        <time>2018-10-17T13:41:11Z</time>
      </trkpt>
      <trkpt lat="45.82545" lon="6.41456">
        <ele>1325</ele>
        <time>2018-10-17T13:41:12Z</time>
      </trkpt>
      <trkpt lat="45.82546" lon="6.41458">
        <ele>1325</ele>
        <time>2018-10-17T13:41:13Z</time>
      </trkpt>
      <trkpt lat="45.82548" lon="6.41459">
        <ele>1325</ele>
        <time>2018-10-17T13:41:14Z</time>
      </trkpt>
      <trkpt lat="45.82549" lon="6.41461">
        <ele>1325</ele>
        <time>2018-10-17T13:41:15Z</time>
      </trkpt>
      <trkpt lat="45.8255" lon="6.41463">
        <ele>1324</ele>
        <time>2018-10-17T13:41:16Z</time>
      </trkpt>
      <trkpt lat="45.82552" lon="6.41464">
        <ele>1324</ele>
        <time>2018-10-17T13:41:17Z</time>
      </trkpt>
      <trkpt lat="45.82553" lon="6.41466">
        <ele>1323</ele>
        <time>2018-10-17T13:41:18Z</time>
      </trkpt>
      <trkpt lat="45.82555" lon="6.41468">
        <ele>1323</ele>
        <time>2018-10-17T13:41:19Z</time>
      </trkpt>
      <trkpt lat="45.82554" lon="6.41469">
        <ele>1323</ele>
        <time>2018-10-17T13:41:20Z</time>
      </trkpt>
      <trkpt lat="45.82554" lon="6.4147">
        <ele>1323</ele>
        <time>2018-10-17T13:41:21Z</time>
      </trkpt>
      <trkpt lat="45.82553" lon="6.41471">
        <ele>1323</ele>
        <time>2018-10-17T13:41:22Z</time>
      </trkpt>
      <trkpt lat="45.82552" lon="6.41472">
        <ele>1322</ele>
        <time>2018-10-17T13:41:23Z</time>
      </trkpt>
      <trkpt lat="45.82552" lon="6.41473">
        <ele>1321</ele>
        <time>2018-10-17T13:41:24Z</time>
      </trkpt>
      <trkpt lat="45.82551" lon="6.41474">
        <ele>1321</ele>
        <time>2018-10-17T13:41:25Z</time>
      </trkpt>
      <trkpt lat="45.82547" lon="6.41483">
        <ele>1321</ele>
        <time>2018-10-17T13:41:26Z</time>
      </trkpt>
      <trkpt lat="45.82546" lon="6.41485">
        <ele>1321</ele>
        <time>2018-10-17T13:41:27Z</time>
      </trkpt>
      <trkpt lat="45.82546" lon="6.41487">
        <ele>1320</ele>
        <time>2018-10-17T13:41:28Z</time>
      </trkpt>
      <trkpt lat="45.82545" lon="6.41489">
        <ele>1320</ele>
        <time>2018-10-17T13:41:29Z</time>
      </trkpt>
      <trkpt lat="45.82544" lon="6.41491">
        <ele>1319</ele>
        <time>2018-10-17T13:41:30Z</time>
      </trkpt>
      <trkpt lat="45.82544" lon="6.41493">
        <ele>1319</ele>
        <time>2018-10-17T13:41:31Z</time>
      </trkpt>
      <trkpt lat="45.82544" lon="6.41493">
        <ele>1319</ele>
        <time>2018-10-17T13:41:32Z</time>
      </trkpt>
      <trkpt lat="45.82544" lon="6.41493">
        <ele>1318</ele>
        <time>2018-10-17T13:41:33Z</time>
      </trkpt>
      <trkpt lat="45.82544" lon="6.41493">
        <ele>1318</ele>
        <time>2018-10-17T13:41:34Z</time>
      </trkpt>
      <trkpt lat="45.82544" lon="6.41493">
        <ele>1318</ele>
        <time>2018-10-17T13:41:35Z</time>
      </trkpt>
      <trkpt lat="45.82544" lon="6.41493">
        <ele>1318</ele>
        <time>2018-10-17T13:41:36Z</time>
      </trkpt>
      <trkpt lat="45.82544" lon="6.41493">
        <ele>1318</ele>
        <time>2018-10-17T13:41:37Z</time>
      </trkpt>
      <trkpt lat="45.82544" lon="6.41493">
        <ele>1318</ele>
        <time>2018-10-17T13:41:38Z</time>
      </trkpt>
      <trkpt lat="45.82544" lon="6.41493">
        <ele>1318</ele>
        <time>2018-10-17T13:41:39Z</time>
      </trkpt>
      <trkpt lat="45.82544" lon="6.41493">
        <ele>1318</ele>
        <time>2018-10-17T13:41:40Z</time>
      </trkpt>
      <trkpt lat="45.82544" lon="6.41493">
        <ele>1317</ele>
        <time>2018-10-17T13:41:41Z</time>
      </trkpt>
      <trkpt lat="45.82542" lon="6.41502">
        <ele>1317</ele>
        <time>2018-10-17T13:41:42Z</time>
      </trkpt>
      <trkpt lat="45.82542" lon="6.41503">
        <ele>1317</ele>
        <time>2018-10-17T13:41:43Z</time>
      </trkpt>
      <trkpt lat="45.82542" lon="6.41503">
        <ele>1317</ele>
        <time>2018-10-17T13:41:44Z</time>
      </trkpt>
      <trkpt lat="45.82542" lon="6.41504">
        <ele>1317</ele>
        <time>2018-10-17T13:41:45Z</time>
      </trkpt>
      <trkpt lat="45.82543" lon="6.41504">
        <ele>1317</ele>
        <time>2018-10-17T13:41:46Z</time>
      </trkpt>
      <trkpt lat="45.82543" lon="6.41504">
        <ele>1317</ele>
        <time>2018-10-17T13:41:47Z</time>
      </trkpt>
      <trkpt lat="45.82543" lon="6.41505">
        <ele>1317</ele>
        <time>2018-10-17T13:41:48Z</time>
      </trkpt>
      <trkpt lat="45.82544" lon="6.41505">
        <ele>1317</ele>
        <time>2018-10-17T13:41:49Z</time>
      </trkpt>
      <trkpt lat="45.82544" lon="6.41506">
        <ele>1317</ele>
        <time>2018-10-17T13:41:50Z</time>
      </trkpt>
      <trkpt lat="45.82544" lon="6.41506">
        <ele>1317</ele>
        <time>2018-10-17T13:41:51Z</time>
      </trkpt>
      <trkpt lat="45.82544" lon="6.41506">
        <ele>1317</ele>
        <time>2018-10-17T13:41:52Z</time>
      </trkpt>
      <trkpt lat="45.82545" lon="6.41507">
        <ele>1317</ele>
        <time>2018-10-17T13:41:53Z</time>
      </trkpt>
      <trkpt lat="45.82545" lon="6.41507">
        <ele>1317</ele>
        <time>2018-10-17T13:41:54Z</time>
      </trkpt>
      <trkpt lat="45.82545" lon="6.41508">
        <ele>1317</ele>
        <time>2018-10-17T13:41:55Z</time>
      </trkpt>
      <trkpt lat="45.82545" lon="6.41508">
        <ele>1317</ele>
        <time>2018-10-17T13:41:56Z</time>
      </trkpt>
      <trkpt lat="45.82546" lon="6.41509">
        <ele>1317</ele>
        <time>2018-10-17T13:41:57Z</time>
      </trkpt>
      <trkpt lat="45.82546" lon="6.41509">
        <ele>1317</ele>
        <time>2018-10-17T13:41:58Z</time>
      </trkpt>
      <trkpt lat="45.82546" lon="6.41509">
        <ele>1317</ele>
        <time>2018-10-17T13:41:59Z</time>
      </trkpt>
      <trkpt lat="45.82547" lon="6.4151">
        <ele>1317</ele>
        <time>2018-10-17T13:42:00Z</time>
      </trkpt>
      <trkpt lat="45.82547" lon="6.4151">
        <ele>1317</ele>
        <time>2018-10-17T13:42:01Z</time>
      </trkpt>
      <trkpt lat="45.82547" lon="6.41511">
        <ele>1317</ele>
        <time>2018-10-17T13:42:02Z</time>
      </trkpt>
      <trkpt lat="45.82547" lon="6.41511">
        <ele>1317</ele>
        <time>2018-10-17T13:42:03Z</time>
      </trkpt>
      <trkpt lat="45.82548" lon="6.41511">
        <ele>1317</ele>
        <time>2018-10-17T13:42:04Z</time>
      </trkpt>
      <trkpt lat="45.82548" lon="6.41512">
        <ele>1317</ele>
        <time>2018-10-17T13:42:05Z</time>
      </trkpt>
      <trkpt lat="45.82548" lon="6.41512">
        <ele>1316</ele>
        <time>2018-10-17T13:42:06Z</time>
      </trkpt>
      <trkpt lat="45.82548" lon="6.41512">
        <ele>1316</ele>
        <time>2018-10-17T13:42:07Z</time>
      </trkpt>
      <trkpt lat="45.82548" lon="6.41512">
        <ele>1316</ele>
        <time>2018-10-17T13:42:08Z</time>
      </trkpt>
      <trkpt lat="45.82548" lon="6.41512">
        <ele>1315</ele>
        <time>2018-10-17T13:42:09Z</time>
      </trkpt>
      <trkpt lat="45.82548" lon="6.41512">
        <ele>1315</ele>
        <time>2018-10-17T13:42:10Z</time>
      </trkpt>
      <trkpt lat="45.82556" lon="6.41521">
        <ele>1315</ele>
        <time>2018-10-17T13:42:11Z</time>
      </trkpt>
      <trkpt lat="45.82557" lon="6.41521">
        <ele>1315</ele>
        <time>2018-10-17T13:42:12Z</time>
      </trkpt>
      <trkpt lat="45.82558" lon="6.41521">
        <ele>1314</ele>
        <time>2018-10-17T13:42:13Z</time>
      </trkpt>
      <trkpt lat="45.82559" lon="6.4152">
        <ele>1314</ele>
        <time>2018-10-17T13:42:14Z</time>
      </trkpt>
      <trkpt lat="45.8256" lon="6.4152">
        <ele>1314</ele>
        <time>2018-10-17T13:42:15Z</time>
      </trkpt>
      <trkpt lat="45.82561" lon="6.4152">
        <ele>1314</ele>
        <time>2018-10-17T13:42:16Z</time>
      </trkpt>
      <trkpt lat="45.82562" lon="6.41519">
        <ele>1314</ele>
        <time>2018-10-17T13:42:17Z</time>
      </trkpt>
      <trkpt lat="45.82563" lon="6.41519">
        <ele>1313</ele>
        <time>2018-10-17T13:42:18Z</time>
      </trkpt>
      <trkpt lat="45.82564" lon="6.41518">
        <ele>1313</ele>
        <time>2018-10-17T13:42:19Z</time>
      </trkpt>
      <trkpt lat="45.82565" lon="6.41518">
        <ele>1313</ele>
        <time>2018-10-17T13:42:20Z</time>
      </trkpt>
      <trkpt lat="45.82566" lon="6.41519">
        <ele>1312</ele>
        <time>2018-10-17T13:42:21Z</time>
      </trkpt>
      <trkpt lat="45.82568" lon="6.41519">
        <ele>1312</ele>
        <time>2018-10-17T13:42:22Z</time>
      </trkpt>
      <trkpt lat="45.82569" lon="6.41519">
        <ele>1312</ele>
        <time>2018-10-17T13:42:23Z</time>
      </trkpt>
      <trkpt lat="45.82571" lon="6.4152">
        <ele>1312</ele>
        <time>2018-10-17T13:42:24Z</time>
      </trkpt>
      <trkpt lat="45.82572" lon="6.4152">
        <ele>1312</ele>
        <time>2018-10-17T13:42:25Z</time>
      </trkpt>
      <trkpt lat="45.82574" lon="6.41521">
        <ele>1312</ele>
        <time>2018-10-17T13:42:26Z</time>
      </trkpt>
      <trkpt lat="45.82574" lon="6.41521">
        <ele>1312</ele>
        <time>2018-10-17T13:42:27Z</time>
      </trkpt>
      <trkpt lat="45.82574" lon="6.41521">
        <ele>1312</ele>
        <time>2018-10-17T13:42:28Z</time>
      </trkpt>
      <trkpt lat="45.82574" lon="6.41521">
        <ele>1312</ele>
        <time>2018-10-17T13:42:29Z</time>
      </trkpt>
      <trkpt lat="45.82574" lon="6.41521">
        <ele>1312</ele>
        <time>2018-10-17T13:42:30Z</time>
      </trkpt>
      <trkpt lat="45.82583" lon="6.41523">
        <ele>1312</ele>
        <time>2018-10-17T13:42:31Z</time>
      </trkpt>
      <trkpt lat="45.82583" lon="6.41523">
        <ele>1312</ele>
        <time>2018-10-17T13:42:32Z</time>
      </trkpt>
      <trkpt lat="45.82583" lon="6.41523">
        <ele>1312</ele>
        <time>2018-10-17T13:42:33Z</time>
      </trkpt>
      <trkpt lat="45.82583" lon="6.41523">
        <ele>1312</ele>
        <time>2018-10-17T13:42:34Z</time>
      </trkpt>
      <trkpt lat="45.82583" lon="6.41523">
        <ele>1311</ele>
        <time>2018-10-17T13:42:35Z</time>
      </trkpt>
      <trkpt lat="45.82583" lon="6.41523">
        <ele>1311</ele>
        <time>2018-10-17T13:42:36Z</time>
      </trkpt>
      <trkpt lat="45.82594" lon="6.41525">
        <ele>1311</ele>
        <time>2018-10-17T13:42:37Z</time>
      </trkpt>
      <trkpt lat="45.82595" lon="6.41526">
        <ele>1311</ele>
        <time>2018-10-17T13:42:38Z</time>
      </trkpt>
      <trkpt lat="45.82596" lon="6.41526">
        <ele>1311</ele>
        <time>2018-10-17T13:42:39Z</time>
      </trkpt>
      <trkpt lat="45.82597" lon="6.41527">
        <ele>1311</ele>
        <time>2018-10-17T13:42:40Z</time>
      </trkpt>
      <trkpt lat="45.82598" lon="6.41527">
        <ele>1311</ele>
        <time>2018-10-17T13:42:41Z</time>
      </trkpt>
      <trkpt lat="45.82598" lon="6.41527">
        <ele>1311</ele>
        <time>2018-10-17T13:42:42Z</time>
      </trkpt>
      <trkpt lat="45.82598" lon="6.41527">
        <ele>1311</ele>
        <time>2018-10-17T13:42:43Z</time>
      </trkpt>
      <trkpt lat="45.82598" lon="6.41527">
        <ele>1311</ele>
        <time>2018-10-17T13:42:44Z</time>
      </trkpt>
      <trkpt lat="45.82598" lon="6.41527">
        <ele>1311</ele>
        <time>2018-10-17T13:42:45Z</time>
      </trkpt>
      <trkpt lat="45.82598" lon="6.41527">
        <ele>1311</ele>
        <time>2018-10-17T13:42:46Z</time>
      </trkpt>
      <trkpt lat="45.82604" lon="6.41532">
        <ele>1311</ele>
        <time>2018-10-17T13:42:47Z</time>
      </trkpt>
      <trkpt lat="45.82604" lon="6.41532">
        <ele>1311</ele>
        <time>2018-10-17T13:42:48Z</time>
      </trkpt>
      <trkpt lat="45.82604" lon="6.41532">
        <ele>1311</ele>
        <time>2018-10-17T13:42:49Z</time>
      </trkpt>
      <trkpt lat="45.82604" lon="6.41532">
        <ele>1311</ele>
        <time>2018-10-17T13:42:50Z</time>
      </trkpt>
      <trkpt lat="45.82604" lon="6.41532">
        <ele>1311</ele>
        <time>2018-10-17T13:42:51Z</time>
      </trkpt>
      <trkpt lat="45.82604" lon="6.41532">
        <ele>1311</ele>
        <time>2018-10-17T13:42:52Z</time>
      </trkpt>
      <trkpt lat="45.82605" lon="6.41535">
        <ele>1311</ele>
        <time>2018-10-17T13:42:53Z</time>
      </trkpt>
      <trkpt lat="45.82607" lon="6.41537">
        <ele>1310</ele>
        <time>2018-10-17T13:42:54Z</time>
      </trkpt>
      <trkpt lat="45.82607" lon="6.41537">
        <ele>1310</ele>
        <time>2018-10-17T13:42:55Z</time>
      </trkpt>
      <trkpt lat="45.82607" lon="6.41537">
        <ele>1310</ele>
        <time>2018-10-17T13:42:56Z</time>
      </trkpt>
      <trkpt lat="45.82611" lon="6.41538">
        <ele>1309</ele>
        <time>2018-10-17T13:42:57Z</time>
      </trkpt>
      <trkpt lat="45.82611" lon="6.41538">
        <ele>1309</ele>
        <time>2018-10-17T13:42:58Z</time>
      </trkpt>
      <trkpt lat="45.82613" lon="6.41538">
        <ele>1309</ele>
        <time>2018-10-17T13:42:59Z</time>
      </trkpt>
      <trkpt lat="45.82613" lon="6.41539">
        <ele>1309</ele>
        <time>2018-10-17T13:43:00Z</time>
      </trkpt>
      <trkpt lat="45.82613" lon="6.41539">
        <ele>1309</ele>
        <time>2018-10-17T13:43:01Z</time>
      </trkpt>
      <trkpt lat="45.82613" lon="6.4154">
        <ele>1309</ele>
        <time>2018-10-17T13:43:02Z</time>
      </trkpt>
      <trkpt lat="45.82614" lon="6.4154">
        <ele>1309</ele>
        <time>2018-10-17T13:43:03Z</time>
      </trkpt>
      <trkpt lat="45.82614" lon="6.41541">
        <ele>1309</ele>
        <time>2018-10-17T13:43:04Z</time>
      </trkpt>
      <trkpt lat="45.82614" lon="6.41541">
        <ele>1309</ele>
        <time>2018-10-17T13:43:05Z</time>
      </trkpt>
      <trkpt lat="45.82615" lon="6.41542">
        <ele>1309</ele>
        <time>2018-10-17T13:43:06Z</time>
      </trkpt>
      <trkpt lat="45.82615" lon="6.41542">
        <ele>1309</ele>
        <time>2018-10-17T13:43:07Z</time>
      </trkpt>
      <trkpt lat="45.82615" lon="6.41543">
        <ele>1309</ele>
        <time>2018-10-17T13:43:08Z</time>
      </trkpt>
      <trkpt lat="45.82615" lon="6.41543">
        <ele>1309</ele>
        <time>2018-10-17T13:43:09Z</time>
      </trkpt>
      <trkpt lat="45.82616" lon="6.41544">
        <ele>1309</ele>
        <time>2018-10-17T13:43:10Z</time>
      </trkpt>
      <trkpt lat="45.82616" lon="6.41544">
        <ele>1309</ele>
        <time>2018-10-17T13:43:11Z</time>
      </trkpt>
      <trkpt lat="45.82616" lon="6.41544">
        <ele>1309</ele>
        <time>2018-10-17T13:43:12Z</time>
      </trkpt>
      <trkpt lat="45.82619" lon="6.41544">
        <ele>1309</ele>
        <time>2018-10-17T13:43:13Z</time>
      </trkpt>
      <trkpt lat="45.82619" lon="6.41544">
        <ele>1309</ele>
        <time>2018-10-17T13:43:14Z</time>
      </trkpt>
      <trkpt lat="45.82619" lon="6.41544">
        <ele>1309</ele>
        <time>2018-10-17T13:43:15Z</time>
      </trkpt>
      <trkpt lat="45.82619" lon="6.41544">
        <ele>1309</ele>
        <time>2018-10-17T13:43:16Z</time>
      </trkpt>
      <trkpt lat="45.82619" lon="6.41544">
        <ele>1309</ele>
        <time>2018-10-17T13:43:17Z</time>
      </trkpt>
      <trkpt lat="45.82619" lon="6.41544">
        <ele>1309</ele>
        <time>2018-10-17T13:43:18Z</time>
      </trkpt>
      <trkpt lat="45.82619" lon="6.41544">
        <ele>1309</ele>
        <time>2018-10-17T13:43:19Z</time>
      </trkpt>
      <trkpt lat="45.82619" lon="6.41544">
        <ele>1308</ele>
        <time>2018-10-17T13:43:20Z</time>
      </trkpt>
      <trkpt lat="45.82619" lon="6.41544">
        <ele>1308</ele>
        <time>2018-10-17T13:43:21Z</time>
      </trkpt>
      <trkpt lat="45.82619" lon="6.41544">
        <ele>1308</ele>
        <time>2018-10-17T13:43:22Z</time>
      </trkpt>
      <trkpt lat="45.82619" lon="6.41544">
        <ele>1308</ele>
        <time>2018-10-17T13:43:23Z</time>
      </trkpt>
      <trkpt lat="45.82624" lon="6.41534">
        <ele>1308</ele>
        <time>2018-10-17T13:43:24Z</time>
      </trkpt>
      <trkpt lat="45.82624" lon="6.41534">
        <ele>1308</ele>
        <time>2018-10-17T13:43:25Z</time>
      </trkpt>
      <trkpt lat="45.82624" lon="6.41534">
        <ele>1308</ele>
        <time>2018-10-17T13:43:26Z</time>
      </trkpt>
      <trkpt lat="45.82624" lon="6.41534">
        <ele>1307</ele>
        <time>2018-10-17T13:43:27Z</time>
      </trkpt>
      <trkpt lat="45.82624" lon="6.41534">
        <ele>1307</ele>
        <time>2018-10-17T13:43:28Z</time>
      </trkpt>
      <trkpt lat="45.82624" lon="6.41534">
        <ele>1306</ele>
        <time>2018-10-17T13:43:29Z</time>
      </trkpt>
      <trkpt lat="45.82624" lon="6.41534">
        <ele>1306</ele>
        <time>2018-10-17T13:43:30Z</time>
      </trkpt>
      <trkpt lat="45.82624" lon="6.41534">
        <ele>1306</ele>
        <time>2018-10-17T13:43:31Z</time>
      </trkpt>
      <trkpt lat="45.82633" lon="6.41527">
        <ele>1305</ele>
        <time>2018-10-17T13:43:32Z</time>
      </trkpt>
      <trkpt lat="45.82633" lon="6.41527">
        <ele>1305</ele>
        <time>2018-10-17T13:43:33Z</time>
      </trkpt>
      <trkpt lat="45.82633" lon="6.41527">
        <ele>1305</ele>
        <time>2018-10-17T13:43:34Z</time>
      </trkpt>
      <trkpt lat="45.82633" lon="6.41527">
        <ele>1305</ele>
        <time>2018-10-17T13:43:35Z</time>
      </trkpt>
      <trkpt lat="45.82633" lon="6.41527">
        <ele>1305</ele>
        <time>2018-10-17T13:43:36Z</time>
      </trkpt>
      <trkpt lat="45.82633" lon="6.41527">
        <ele>1305</ele>
        <time>2018-10-17T13:43:37Z</time>
      </trkpt>
      <trkpt lat="45.82633" lon="6.41527">
        <ele>1304</ele>
        <time>2018-10-17T13:43:38Z</time>
      </trkpt>
      <trkpt lat="45.82638" lon="6.41519">
        <ele>1304</ele>
        <time>2018-10-17T13:43:39Z</time>
      </trkpt>
      <trkpt lat="45.82638" lon="6.41519">
        <ele>1303</ele>
        <time>2018-10-17T13:43:40Z</time>
      </trkpt>
      <trkpt lat="45.8264" lon="6.41519">
        <ele>1303</ele>
        <time>2018-10-17T13:43:41Z</time>
      </trkpt>
      <trkpt lat="45.8264" lon="6.41519">
        <ele>1303</ele>
        <time>2018-10-17T13:43:42Z</time>
      </trkpt>
      <trkpt lat="45.8264" lon="6.41519">
        <ele>1303</ele>
        <time>2018-10-17T13:43:43Z</time>
      </trkpt>
      <trkpt lat="45.8264" lon="6.41519">
        <ele>1302</ele>
        <time>2018-10-17T13:43:44Z</time>
      </trkpt>
      <trkpt lat="45.8264" lon="6.41519">
        <ele>1302</ele>
        <time>2018-10-17T13:43:45Z</time>
      </trkpt>
      <trkpt lat="45.82646" lon="6.41517">
        <ele>1302</ele>
        <time>2018-10-17T13:43:46Z</time>
      </trkpt>
      <trkpt lat="45.82646" lon="6.41517">
        <ele>1302</ele>
        <time>2018-10-17T13:43:47Z</time>
      </trkpt>
      <trkpt lat="45.82649" lon="6.41518">
        <ele>1302</ele>
        <time>2018-10-17T13:43:48Z</time>
      </trkpt>
      <trkpt lat="45.82649" lon="6.41519">
        <ele>1302</ele>
        <time>2018-10-17T13:43:49Z</time>
      </trkpt>
      <trkpt lat="45.8265" lon="6.41519">
        <ele>1302</ele>
        <time>2018-10-17T13:43:50Z</time>
      </trkpt>
      <trkpt lat="45.82651" lon="6.41519">
        <ele>1301</ele>
        <time>2018-10-17T13:43:51Z</time>
      </trkpt>
      <trkpt lat="45.82652" lon="6.4152">
        <ele>1301</ele>
        <time>2018-10-17T13:43:52Z</time>
      </trkpt>
      <trkpt lat="45.82653" lon="6.4152">
        <ele>1301</ele>
        <time>2018-10-17T13:43:53Z</time>
      </trkpt>
      <trkpt lat="45.82654" lon="6.41521">
        <ele>1301</ele>
        <time>2018-10-17T13:43:54Z</time>
      </trkpt>
      <trkpt lat="45.82659" lon="6.41523">
        <ele>1301</ele>
        <time>2018-10-17T13:43:55Z</time>
      </trkpt>
      <trkpt lat="45.82659" lon="6.41523">
        <ele>1300</ele>
        <time>2018-10-17T13:43:56Z</time>
      </trkpt>
      <trkpt lat="45.82659" lon="6.41523">
        <ele>1300</ele>
        <time>2018-10-17T13:43:57Z</time>
      </trkpt>
      <trkpt lat="45.82659" lon="6.41523">
        <ele>1299</ele>
        <time>2018-10-17T13:43:58Z</time>
      </trkpt>
      <trkpt lat="45.82659" lon="6.41523">
        <ele>1299</ele>
        <time>2018-10-17T13:43:59Z</time>
      </trkpt>
      <trkpt lat="45.82659" lon="6.41523">
        <ele>1299</ele>
        <time>2018-10-17T13:44:00Z</time>
      </trkpt>
      <trkpt lat="45.8267" lon="6.41525">
        <ele>1298</ele>
        <time>2018-10-17T13:44:01Z</time>
      </trkpt>
      <trkpt lat="45.82671" lon="6.41525">
        <ele>1298</ele>
        <time>2018-10-17T13:44:02Z</time>
      </trkpt>
      <trkpt lat="45.82673" lon="6.41524">
        <ele>1298</ele>
        <time>2018-10-17T13:44:03Z</time>
      </trkpt>
      <trkpt lat="45.82674" lon="6.41524">
        <ele>1298</ele>
        <time>2018-10-17T13:44:04Z</time>
      </trkpt>
      <trkpt lat="45.82676" lon="6.41523">
        <ele>1298</ele>
        <time>2018-10-17T13:44:05Z</time>
      </trkpt>
      <trkpt lat="45.82678" lon="6.41523">
        <ele>1297</ele>
        <time>2018-10-17T13:44:06Z</time>
      </trkpt>
      <trkpt lat="45.82678" lon="6.41521">
        <ele>1297</ele>
        <time>2018-10-17T13:44:07Z</time>
      </trkpt>
      <trkpt lat="45.82679" lon="6.4152">
        <ele>1297</ele>
        <time>2018-10-17T13:44:08Z</time>
      </trkpt>
      <trkpt lat="45.8268" lon="6.41518">
        <ele>1297</ele>
        <time>2018-10-17T13:44:09Z</time>
      </trkpt>
      <trkpt lat="45.8268" lon="6.41517">
        <ele>1297</ele>
        <time>2018-10-17T13:44:10Z</time>
      </trkpt>
      <trkpt lat="45.82681" lon="6.41515">
        <ele>1296</ele>
        <time>2018-10-17T13:44:11Z</time>
      </trkpt>
      <trkpt lat="45.82682" lon="6.41514">
        <ele>1296</ele>
        <time>2018-10-17T13:44:12Z</time>
      </trkpt>
      <trkpt lat="45.82682" lon="6.41512">
        <ele>1295</ele>
        <time>2018-10-17T13:44:13Z</time>
      </trkpt>
      <trkpt lat="45.82683" lon="6.41511">
        <ele>1295</ele>
        <time>2018-10-17T13:44:14Z</time>
      </trkpt>
      <trkpt lat="45.82683" lon="6.41511">
        <ele>1295</ele>
        <time>2018-10-17T13:44:15Z</time>
      </trkpt>
      <trkpt lat="45.82683" lon="6.41511">
        <ele>1295</ele>
        <time>2018-10-17T13:44:16Z</time>
      </trkpt>
      <trkpt lat="45.82683" lon="6.41511">
        <ele>1294</ele>
        <time>2018-10-17T13:44:17Z</time>
      </trkpt>
      <trkpt lat="45.82683" lon="6.41511">
        <ele>1294</ele>
        <time>2018-10-17T13:44:18Z</time>
      </trkpt>
      <trkpt lat="45.82683" lon="6.41511">
        <ele>1293</ele>
        <time>2018-10-17T13:44:19Z</time>
      </trkpt>
      <trkpt lat="45.82683" lon="6.41511">
        <ele>1293</ele>
        <time>2018-10-17T13:44:20Z</time>
      </trkpt>
      <trkpt lat="45.82692" lon="6.41503">
        <ele>1293</ele>
        <time>2018-10-17T13:44:21Z</time>
      </trkpt>
      <trkpt lat="45.82693" lon="6.41504">
        <ele>1293</ele>
        <time>2018-10-17T13:44:22Z</time>
      </trkpt>
      <trkpt lat="45.82694" lon="6.41504">
        <ele>1293</ele>
        <time>2018-10-17T13:44:23Z</time>
      </trkpt>
      <trkpt lat="45.82696" lon="6.41504">
        <ele>1293</ele>
        <time>2018-10-17T13:44:24Z</time>
      </trkpt>
      <trkpt lat="45.82697" lon="6.41504">
        <ele>1293</ele>
        <time>2018-10-17T13:44:25Z</time>
      </trkpt>
      <trkpt lat="45.82698" lon="6.41504">
        <ele>1292</ele>
        <time>2018-10-17T13:44:26Z</time>
      </trkpt>
      <trkpt lat="45.82699" lon="6.41504">
        <ele>1292</ele>
        <time>2018-10-17T13:44:27Z</time>
      </trkpt>
      <trkpt lat="45.827" lon="6.41504">
        <ele>1291</ele>
        <time>2018-10-17T13:44:28Z</time>
      </trkpt>
      <trkpt lat="45.82701" lon="6.41504">
        <ele>1290</ele>
        <time>2018-10-17T13:44:29Z</time>
      </trkpt>
      <trkpt lat="45.82702" lon="6.41504">
        <ele>1290</ele>
        <time>2018-10-17T13:44:30Z</time>
      </trkpt>
      <trkpt lat="45.82703" lon="6.41504">
        <ele>1290</ele>
        <time>2018-10-17T13:44:31Z</time>
      </trkpt>
      <trkpt lat="45.82705" lon="6.41504">
        <ele>1290</ele>
        <time>2018-10-17T13:44:32Z</time>
      </trkpt>
      <trkpt lat="45.82706" lon="6.41503">
        <ele>1290</ele>
        <time>2018-10-17T13:44:33Z</time>
      </trkpt>
      <trkpt lat="45.82707" lon="6.41503">
        <ele>1290</ele>
        <time>2018-10-17T13:44:34Z</time>
      </trkpt>
      <trkpt lat="45.82708" lon="6.41503">
        <ele>1289</ele>
        <time>2018-10-17T13:44:35Z</time>
      </trkpt>
      <trkpt lat="45.82709" lon="6.41502">
        <ele>1289</ele>
        <time>2018-10-17T13:44:36Z</time>
      </trkpt>
      <trkpt lat="45.82711" lon="6.41502">
        <ele>1289</ele>
        <time>2018-10-17T13:44:37Z</time>
      </trkpt>
      <trkpt lat="45.82711" lon="6.41502">
        <ele>1289</ele>
        <time>2018-10-17T13:44:38Z</time>
      </trkpt>
      <trkpt lat="45.82711" lon="6.41502">
        <ele>1289</ele>
        <time>2018-10-17T13:44:39Z</time>
      </trkpt>
      <trkpt lat="45.82711" lon="6.41502">
        <ele>1289</ele>
        <time>2018-10-17T13:44:40Z</time>
      </trkpt>
      <trkpt lat="45.82711" lon="6.41502">
        <ele>1288</ele>
        <time>2018-10-17T13:44:41Z</time>
      </trkpt>
      <trkpt lat="45.82711" lon="6.41502">
        <ele>1288</ele>
        <time>2018-10-17T13:44:42Z</time>
      </trkpt>
      <trkpt lat="45.82711" lon="6.41502">
        <ele>1287</ele>
        <time>2018-10-17T13:44:43Z</time>
      </trkpt>
      <trkpt lat="45.82711" lon="6.41502">
        <ele>1287</ele>
        <time>2018-10-17T13:44:44Z</time>
      </trkpt>
      <trkpt lat="45.82721" lon="6.41499">
        <ele>1287</ele>
        <time>2018-10-17T13:44:45Z</time>
      </trkpt>
      <trkpt lat="45.82722" lon="6.41499">
        <ele>1287</ele>
        <time>2018-10-17T13:44:46Z</time>
      </trkpt>
      <trkpt lat="45.82723" lon="6.415">
        <ele>1287</ele>
        <time>2018-10-17T13:44:47Z</time>
      </trkpt>
      <trkpt lat="45.82724" lon="6.41501">
        <ele>1286</ele>
        <time>2018-10-17T13:44:48Z</time>
      </trkpt>
      <trkpt lat="45.82725" lon="6.41501">
        <ele>1286</ele>
        <time>2018-10-17T13:44:49Z</time>
      </trkpt>
      <trkpt lat="45.82726" lon="6.41502">
        <ele>1286</ele>
        <time>2018-10-17T13:44:50Z</time>
      </trkpt>
      <trkpt lat="45.82727" lon="6.41502">
        <ele>1286</ele>
        <time>2018-10-17T13:44:51Z</time>
      </trkpt>
      <trkpt lat="45.82727" lon="6.41502">
        <ele>1286</ele>
        <time>2018-10-17T13:44:52Z</time>
      </trkpt>
      <trkpt lat="45.82727" lon="6.41502">
        <ele>1286</ele>
        <time>2018-10-17T13:44:53Z</time>
      </trkpt>
      <trkpt lat="45.82727" lon="6.41502">
        <ele>1286</ele>
        <time>2018-10-17T13:44:54Z</time>
      </trkpt>
      <trkpt lat="45.82727" lon="6.41502">
        <ele>1286</ele>
        <time>2018-10-17T13:44:55Z</time>
      </trkpt>
      <trkpt lat="45.82727" lon="6.41502">
        <ele>1286</ele>
        <time>2018-10-17T13:44:56Z</time>
      </trkpt>
      <trkpt lat="45.82727" lon="6.41502">
        <ele>1286</ele>
        <time>2018-10-17T13:44:57Z</time>
      </trkpt>
      <trkpt lat="45.82727" lon="6.41502">
        <ele>1286</ele>
        <time>2018-10-17T13:44:58Z</time>
      </trkpt>
      <trkpt lat="45.82727" lon="6.41502">
        <ele>1286</ele>
        <time>2018-10-17T13:44:59Z</time>
      </trkpt>
      <trkpt lat="45.82727" lon="6.41502">
        <ele>1286</ele>
        <time>2018-10-17T13:45:00Z</time>
      </trkpt>
      <trkpt lat="45.82727" lon="6.41502">
        <ele>1286</ele>
        <time>2018-10-17T13:45:01Z</time>
      </trkpt>
      <trkpt lat="45.82727" lon="6.41502">
        <ele>1286</ele>
        <time>2018-10-17T13:45:02Z</time>
      </trkpt>
      <trkpt lat="45.82727" lon="6.41502">
        <ele>1286</ele>
        <time>2018-10-17T13:45:03Z</time>
      </trkpt>
      <trkpt lat="45.82727" lon="6.41502">
        <ele>1285</ele>
        <time>2018-10-17T13:45:04Z</time>
      </trkpt>
      <trkpt lat="45.82727" lon="6.41502">
        <ele>1285</ele>
        <time>2018-10-17T13:45:05Z</time>
      </trkpt>
      <trkpt lat="45.82727" lon="6.41502">
        <ele>1285</ele>
        <time>2018-10-17T13:45:06Z</time>
      </trkpt>
      <trkpt lat="45.82727" lon="6.41502">
        <ele>1285</ele>
        <time>2018-10-17T13:45:07Z</time>
      </trkpt>
      <trkpt lat="45.82727" lon="6.41502">
        <ele>1285</ele>
        <time>2018-10-17T13:45:08Z</time>
      </trkpt>
      <trkpt lat="45.82727" lon="6.41502">
        <ele>1285</ele>
        <time>2018-10-17T13:45:09Z</time>
      </trkpt>
      <trkpt lat="45.82727" lon="6.41502">
        <ele>1284</ele>
        <time>2018-10-17T13:45:10Z</time>
      </trkpt>
      <trkpt lat="45.82737" lon="6.415">
        <ele>1284</ele>
        <time>2018-10-17T13:45:11Z</time>
      </trkpt>
      <trkpt lat="45.82737" lon="6.415">
        <ele>1284</ele>
        <time>2018-10-17T13:45:12Z</time>
      </trkpt>
      <trkpt lat="45.82737" lon="6.415">
        <ele>1284</ele>
        <time>2018-10-17T13:45:13Z</time>
      </trkpt>
      <trkpt lat="45.82737" lon="6.415">
        <ele>1284</ele>
        <time>2018-10-17T13:45:14Z</time>
      </trkpt>
      <trkpt lat="45.82737" lon="6.415">
        <ele>1284</ele>
        <time>2018-10-17T13:45:15Z</time>
      </trkpt>
      <trkpt lat="45.82737" lon="6.415">
        <ele>1284</ele>
        <time>2018-10-17T13:45:16Z</time>
      </trkpt>
      <trkpt lat="45.82747" lon="6.41497">
        <ele>1283</ele>
        <time>2018-10-17T13:45:17Z</time>
      </trkpt>
      <trkpt lat="45.82748" lon="6.41498">
        <ele>1283</ele>
        <time>2018-10-17T13:45:18Z</time>
      </trkpt>
      <trkpt lat="45.8275" lon="6.41498">
        <ele>1282</ele>
        <time>2018-10-17T13:45:19Z</time>
      </trkpt>
      <trkpt lat="45.82751" lon="6.41498">
        <ele>1282</ele>
        <time>2018-10-17T13:45:20Z</time>
      </trkpt>
      <trkpt lat="45.82752" lon="6.41498">
        <ele>1282</ele>
        <time>2018-10-17T13:45:21Z</time>
      </trkpt>
      <trkpt lat="45.82754" lon="6.41498">
        <ele>1282</ele>
        <time>2018-10-17T13:45:22Z</time>
      </trkpt>
      <trkpt lat="45.82755" lon="6.41498">
        <ele>1281</ele>
        <time>2018-10-17T13:45:23Z</time>
      </trkpt>
      <trkpt lat="45.82755" lon="6.41498">
        <ele>1281</ele>
        <time>2018-10-17T13:45:24Z</time>
      </trkpt>
      <trkpt lat="45.82755" lon="6.41498">
        <ele>1281</ele>
        <time>2018-10-17T13:45:25Z</time>
      </trkpt>
      <trkpt lat="45.82755" lon="6.41498">
        <ele>1280</ele>
        <time>2018-10-17T13:45:26Z</time>
      </trkpt>
      <trkpt lat="45.82755" lon="6.41498">
        <ele>1280</ele>
        <time>2018-10-17T13:45:27Z</time>
      </trkpt>
      <trkpt lat="45.82766" lon="6.41504">
        <ele>1280</ele>
        <time>2018-10-17T13:45:28Z</time>
      </trkpt>
      <trkpt lat="45.82767" lon="6.41505">
        <ele>1280</ele>
        <time>2018-10-17T13:45:29Z</time>
      </trkpt>
      <trkpt lat="45.82769" lon="6.41506">
        <ele>1279</ele>
        <time>2018-10-17T13:45:30Z</time>
      </trkpt>
      <trkpt lat="45.8277" lon="6.41507">
        <ele>1278</ele>
        <time>2018-10-17T13:45:31Z</time>
      </trkpt>
      <trkpt lat="45.82772" lon="6.41508">
        <ele>1278</ele>
        <time>2018-10-17T13:45:32Z</time>
      </trkpt>
      <trkpt lat="45.82774" lon="6.41509">
        <ele>1278</ele>
        <time>2018-10-17T13:45:33Z</time>
      </trkpt>
      <trkpt lat="45.82775" lon="6.41509">
        <ele>1278</ele>
        <time>2018-10-17T13:45:34Z</time>
      </trkpt>
      <trkpt lat="45.82777" lon="6.41508">
        <ele>1277</ele>
        <time>2018-10-17T13:45:35Z</time>
      </trkpt>
      <trkpt lat="45.82779" lon="6.41508">
        <ele>1276</ele>
        <time>2018-10-17T13:45:36Z</time>
      </trkpt>
      <trkpt lat="45.82781" lon="6.41508">
        <ele>1276</ele>
        <time>2018-10-17T13:45:37Z</time>
      </trkpt>
      <trkpt lat="45.82783" lon="6.41507">
        <ele>1275</ele>
        <time>2018-10-17T13:45:38Z</time>
      </trkpt>
      <trkpt lat="45.82784" lon="6.41508">
        <ele>1275</ele>
        <time>2018-10-17T13:45:39Z</time>
      </trkpt>
      <trkpt lat="45.82785" lon="6.41508">
        <ele>1275</ele>
        <time>2018-10-17T13:45:40Z</time>
      </trkpt>
      <trkpt lat="45.82786" lon="6.41508">
        <ele>1274</ele>
        <time>2018-10-17T13:45:41Z</time>
      </trkpt>
      <trkpt lat="45.82787" lon="6.41508">
        <ele>1273</ele>
        <time>2018-10-17T13:45:42Z</time>
      </trkpt>
      <trkpt lat="45.82788" lon="6.41508">
        <ele>1273</ele>
        <time>2018-10-17T13:45:43Z</time>
      </trkpt>
      <trkpt lat="45.82794" lon="6.41509">
        <ele>1273</ele>
        <time>2018-10-17T13:45:44Z</time>
      </trkpt>
      <trkpt lat="45.82795" lon="6.4151">
        <ele>1273</ele>
        <time>2018-10-17T13:45:45Z</time>
      </trkpt>
      <trkpt lat="45.82796" lon="6.4151">
        <ele>1273</ele>
        <time>2018-10-17T13:45:46Z</time>
      </trkpt>
      <trkpt lat="45.82797" lon="6.41511">
        <ele>1272</ele>
        <time>2018-10-17T13:45:47Z</time>
      </trkpt>
      <trkpt lat="45.82797" lon="6.41511">
        <ele>1271</ele>
        <time>2018-10-17T13:45:48Z</time>
      </trkpt>
      <trkpt lat="45.82798" lon="6.41512">
        <ele>1271</ele>
        <time>2018-10-17T13:45:49Z</time>
      </trkpt>
      <trkpt lat="45.82799" lon="6.41512">
        <ele>1271</ele>
        <time>2018-10-17T13:45:50Z</time>
      </trkpt>
      <trkpt lat="45.82805" lon="6.41516">
        <ele>1271</ele>
        <time>2018-10-17T13:45:51Z</time>
      </trkpt>
      <trkpt lat="45.82806" lon="6.41516">
        <ele>1271</ele>
        <time>2018-10-17T13:45:52Z</time>
      </trkpt>
      <trkpt lat="45.82807" lon="6.41516">
        <ele>1271</ele>
        <time>2018-10-17T13:45:53Z</time>
      </trkpt>
      <trkpt lat="45.82808" lon="6.41516">
        <ele>1271</ele>
        <time>2018-10-17T13:45:54Z</time>
      </trkpt>
      <trkpt lat="45.82809" lon="6.41516">
        <ele>1270</ele>
        <time>2018-10-17T13:45:55Z</time>
      </trkpt>
      <trkpt lat="45.82809" lon="6.41517">
        <ele>1270</ele>
        <time>2018-10-17T13:45:56Z</time>
      </trkpt>
      <trkpt lat="45.82815" lon="6.41518">
        <ele>1270</ele>
        <time>2018-10-17T13:45:57Z</time>
      </trkpt>
      <trkpt lat="45.82815" lon="6.41518">
        <ele>1270</ele>
        <time>2018-10-17T13:45:58Z</time>
      </trkpt>
      <trkpt lat="45.82815" lon="6.41518">
        <ele>1270</ele>
        <time>2018-10-17T13:45:59Z</time>
      </trkpt>
      <trkpt lat="45.82815" lon="6.41518">
        <ele>1269</ele>
        <time>2018-10-17T13:46:00Z</time>
      </trkpt>
      <trkpt lat="45.82823" lon="6.41526">
        <ele>1268</ele>
        <time>2018-10-17T13:46:01Z</time>
      </trkpt>
      <trkpt lat="45.82823" lon="6.41526">
        <ele>1268</ele>
        <time>2018-10-17T13:46:02Z</time>
      </trkpt>
      <trkpt lat="45.82823" lon="6.41526">
        <ele>1267</ele>
        <time>2018-10-17T13:46:03Z</time>
      </trkpt>
      <trkpt lat="45.82823" lon="6.41526">
        <ele>1267</ele>
        <time>2018-10-17T13:46:04Z</time>
      </trkpt>
      <trkpt lat="45.82823" lon="6.41526">
        <ele>1267</ele>
        <time>2018-10-17T13:46:05Z</time>
      </trkpt>
      <trkpt lat="45.82832" lon="6.4153">
        <ele>1266</ele>
        <time>2018-10-17T13:46:06Z</time>
      </trkpt>
      <trkpt lat="45.82832" lon="6.4153">
        <ele>1266</ele>
        <time>2018-10-17T13:46:07Z</time>
      </trkpt>
      <trkpt lat="45.82832" lon="6.4153">
        <ele>1265</ele>
        <time>2018-10-17T13:46:08Z</time>
      </trkpt>
      <trkpt lat="45.82832" lon="6.4153">
        <ele>1264</ele>
        <time>2018-10-17T13:46:09Z</time>
      </trkpt>
      <trkpt lat="45.82832" lon="6.4153">
        <ele>1264</ele>
        <time>2018-10-17T13:46:10Z</time>
      </trkpt>
      <trkpt lat="45.82832" lon="6.4153">
        <ele>1264</ele>
        <time>2018-10-17T13:46:11Z</time>
      </trkpt>
      <trkpt lat="45.82842" lon="6.41537">
        <ele>1264</ele>
        <time>2018-10-17T13:46:12Z</time>
      </trkpt>
      <trkpt lat="45.82843" lon="6.41539">
        <ele>1263</ele>
        <time>2018-10-17T13:46:13Z</time>
      </trkpt>
      <trkpt lat="45.82844" lon="6.4154">
        <ele>1262</ele>
        <time>2018-10-17T13:46:14Z</time>
      </trkpt>
      <trkpt lat="45.82845" lon="6.41542">
        <ele>1262</ele>
        <time>2018-10-17T13:46:15Z</time>
      </trkpt>
      <trkpt lat="45.82846" lon="6.41543">
        <ele>1262</ele>
        <time>2018-10-17T13:46:16Z</time>
      </trkpt>
      <trkpt lat="45.82847" lon="6.41545">
        <ele>1262</ele>
        <time>2018-10-17T13:46:17Z</time>
      </trkpt>
      <trkpt lat="45.82848" lon="6.41547">
        <ele>1262</ele>
        <time>2018-10-17T13:46:18Z</time>
      </trkpt>
      <trkpt lat="45.8285" lon="6.41549">
        <ele>1261</ele>
        <time>2018-10-17T13:46:19Z</time>
      </trkpt>
      <trkpt lat="45.82851" lon="6.41551">
        <ele>1260</ele>
        <time>2018-10-17T13:46:20Z</time>
      </trkpt>
      <trkpt lat="45.82855" lon="6.41559">
        <ele>1260</ele>
        <time>2018-10-17T13:46:21Z</time>
      </trkpt>
      <trkpt lat="45.82857" lon="6.41561">
        <ele>1260</ele>
        <time>2018-10-17T13:46:22Z</time>
      </trkpt>
      <trkpt lat="45.82858" lon="6.41563">
        <ele>1259</ele>
        <time>2018-10-17T13:46:23Z</time>
      </trkpt>
      <trkpt lat="45.82859" lon="6.41565">
        <ele>1258</ele>
        <time>2018-10-17T13:46:24Z</time>
      </trkpt>
      <trkpt lat="45.8286" lon="6.41567">
        <ele>1258</ele>
        <time>2018-10-17T13:46:25Z</time>
      </trkpt>
      <trkpt lat="45.82862" lon="6.41569">
        <ele>1258</ele>
        <time>2018-10-17T13:46:26Z</time>
      </trkpt>
      <trkpt lat="45.82863" lon="6.41571">
        <ele>1258</ele>
        <time>2018-10-17T13:46:27Z</time>
      </trkpt>
      <trkpt lat="45.82864" lon="6.41573">
        <ele>1257</ele>
        <time>2018-10-17T13:46:28Z</time>
      </trkpt>
      <trkpt lat="45.82866" lon="6.41574">
        <ele>1257</ele>
        <time>2018-10-17T13:46:29Z</time>
      </trkpt>
      <trkpt lat="45.82867" lon="6.41576">
        <ele>1256</ele>
        <time>2018-10-17T13:46:30Z</time>
      </trkpt>
      <trkpt lat="45.82867" lon="6.41576">
        <ele>1256</ele>
        <time>2018-10-17T13:46:31Z</time>
      </trkpt>
      <trkpt lat="45.82867" lon="6.41576">
        <ele>1256</ele>
        <time>2018-10-17T13:46:32Z</time>
      </trkpt>
      <trkpt lat="45.82867" lon="6.41576">
        <ele>1255</ele>
        <time>2018-10-17T13:46:33Z</time>
      </trkpt>
      <trkpt lat="45.82867" lon="6.41576">
        <ele>1254</ele>
        <time>2018-10-17T13:46:34Z</time>
      </trkpt>
      <trkpt lat="45.82867" lon="6.41576">
        <ele>1254</ele>
        <time>2018-10-17T13:46:35Z</time>
      </trkpt>
      <trkpt lat="45.82867" lon="6.41576">
        <ele>1254</ele>
        <time>2018-10-17T13:46:36Z</time>
      </trkpt>
      <trkpt lat="45.82867" lon="6.41576">
        <ele>1254</ele>
        <time>2018-10-17T13:46:37Z</time>
      </trkpt>
      <trkpt lat="45.82867" lon="6.41576">
        <ele>1254</ele>
        <time>2018-10-17T13:46:38Z</time>
      </trkpt>
      <trkpt lat="45.82877" lon="6.41584">
        <ele>1254</ele>
        <time>2018-10-17T13:46:39Z</time>
      </trkpt>
      <trkpt lat="45.82878" lon="6.41585">
        <ele>1254</ele>
        <time>2018-10-17T13:46:40Z</time>
      </trkpt>
      <trkpt lat="45.82879" lon="6.41586">
        <ele>1253</ele>
        <time>2018-10-17T13:46:41Z</time>
      </trkpt>
      <trkpt lat="45.8288" lon="6.41588">
        <ele>1253</ele>
        <time>2018-10-17T13:46:42Z</time>
      </trkpt>
      <trkpt lat="45.82881" lon="6.41589">
        <ele>1253</ele>
        <time>2018-10-17T13:46:43Z</time>
      </trkpt>
      <trkpt lat="45.82882" lon="6.41591">
        <ele>1253</ele>
        <time>2018-10-17T13:46:44Z</time>
      </trkpt>
      <trkpt lat="45.82883" lon="6.41592">
        <ele>1253</ele>
        <time>2018-10-17T13:46:45Z</time>
      </trkpt>
      <trkpt lat="45.82883" lon="6.41593">
        <ele>1252</ele>
        <time>2018-10-17T13:46:46Z</time>
      </trkpt>
      <trkpt lat="45.82883" lon="6.41593">
        <ele>1252</ele>
        <time>2018-10-17T13:46:47Z</time>
      </trkpt>
      <trkpt lat="45.82883" lon="6.41593">
        <ele>1252</ele>
        <time>2018-10-17T13:46:48Z</time>
      </trkpt>
      <trkpt lat="45.82883" lon="6.41594">
        <ele>1252</ele>
        <time>2018-10-17T13:46:49Z</time>
      </trkpt>
      <trkpt lat="45.82883" lon="6.41594">
        <ele>1251</ele>
        <time>2018-10-17T13:46:50Z</time>
      </trkpt>
      <trkpt lat="45.82883" lon="6.41594">
        <ele>1251</ele>
        <time>2018-10-17T13:46:51Z</time>
      </trkpt>
      <trkpt lat="45.82883" lon="6.41595">
        <ele>1251</ele>
        <time>2018-10-17T13:46:52Z</time>
      </trkpt>
      <trkpt lat="45.82884" lon="6.41595">
        <ele>1251</ele>
        <time>2018-10-17T13:46:53Z</time>
      </trkpt>
      <trkpt lat="45.82884" lon="6.41595">
        <ele>1251</ele>
        <time>2018-10-17T13:46:54Z</time>
      </trkpt>
      <trkpt lat="45.82884" lon="6.41596">
        <ele>1251</ele>
        <time>2018-10-17T13:46:55Z</time>
      </trkpt>
      <trkpt lat="45.82884" lon="6.41596">
        <ele>1251</ele>
        <time>2018-10-17T13:46:56Z</time>
      </trkpt>
      <trkpt lat="45.82884" lon="6.41597">
        <ele>1251</ele>
        <time>2018-10-17T13:46:57Z</time>
      </trkpt>
      <trkpt lat="45.82884" lon="6.41597">
        <ele>1251</ele>
        <time>2018-10-17T13:46:58Z</time>
      </trkpt>
      <trkpt lat="45.82884" lon="6.41597">
        <ele>1251</ele>
        <time>2018-10-17T13:46:59Z</time>
      </trkpt>
      <trkpt lat="45.82884" lon="6.41598">
        <ele>1251</ele>
        <time>2018-10-17T13:47:00Z</time>
      </trkpt>
      <trkpt lat="45.82885" lon="6.41598">
        <ele>1250</ele>
        <time>2018-10-17T13:47:01Z</time>
      </trkpt>
      <trkpt lat="45.82885" lon="6.41598">
        <ele>1250</ele>
        <time>2018-10-17T13:47:02Z</time>
      </trkpt>
      <trkpt lat="45.82885" lon="6.41599">
        <ele>1250</ele>
        <time>2018-10-17T13:47:03Z</time>
      </trkpt>
      <trkpt lat="45.82885" lon="6.41599">
        <ele>1250</ele>
        <time>2018-10-17T13:47:04Z</time>
      </trkpt>
      <trkpt lat="45.82887" lon="6.41607">
        <ele>1249</ele>
        <time>2018-10-17T13:47:05Z</time>
      </trkpt>
      <trkpt lat="45.82888" lon="6.41607">
        <ele>1249</ele>
        <time>2018-10-17T13:47:06Z</time>
      </trkpt>
      <trkpt lat="45.82889" lon="6.41608">
        <ele>1249</ele>
        <time>2018-10-17T13:47:07Z</time>
      </trkpt>
      <trkpt lat="45.82889" lon="6.41608">
        <ele>1248</ele>
        <time>2018-10-17T13:47:08Z</time>
      </trkpt>
      <trkpt lat="45.8289" lon="6.41609">
        <ele>1248</ele>
        <time>2018-10-17T13:47:09Z</time>
      </trkpt>
      <trkpt lat="45.8289" lon="6.41609">
        <ele>1248</ele>
        <time>2018-10-17T13:47:10Z</time>
      </trkpt>
      <trkpt lat="45.82891" lon="6.4161">
        <ele>1248</ele>
        <time>2018-10-17T13:47:11Z</time>
      </trkpt>
      <trkpt lat="45.82891" lon="6.4161">
        <ele>1248</ele>
        <time>2018-10-17T13:47:12Z</time>
      </trkpt>
      <trkpt lat="45.82895" lon="6.41615">
        <ele>1248</ele>
        <time>2018-10-17T13:47:13Z</time>
      </trkpt>
      <trkpt lat="45.82895" lon="6.41615">
        <ele>1248</ele>
        <time>2018-10-17T13:47:14Z</time>
      </trkpt>
      <trkpt lat="45.82895" lon="6.41615">
        <ele>1248</ele>
        <time>2018-10-17T13:47:15Z</time>
      </trkpt>
      <trkpt lat="45.82895" lon="6.41615">
        <ele>1247</ele>
        <time>2018-10-17T13:47:16Z</time>
      </trkpt>
      <trkpt lat="45.82895" lon="6.41615">
        <ele>1247</ele>
        <time>2018-10-17T13:47:17Z</time>
      </trkpt>
      <trkpt lat="45.82895" lon="6.41615">
        <ele>1247</ele>
        <time>2018-10-17T13:47:18Z</time>
      </trkpt>
      <trkpt lat="45.82902" lon="6.41626">
        <ele>1246</ele>
        <time>2018-10-17T13:47:19Z</time>
      </trkpt>
      <trkpt lat="45.82903" lon="6.41628">
        <ele>1246</ele>
        <time>2018-10-17T13:47:20Z</time>
      </trkpt>
      <trkpt lat="45.82904" lon="6.4163">
        <ele>1246</ele>
        <time>2018-10-17T13:47:21Z</time>
      </trkpt>
      <trkpt lat="45.82904" lon="6.41632">
        <ele>1246</ele>
        <time>2018-10-17T13:47:22Z</time>
      </trkpt>
      <trkpt lat="45.82905" lon="6.41633">
        <ele>1246</ele>
        <time>2018-10-17T13:47:23Z</time>
      </trkpt>
      <trkpt lat="45.82905" lon="6.41635">
        <ele>1245</ele>
        <time>2018-10-17T13:47:24Z</time>
      </trkpt>
      <trkpt lat="45.82906" lon="6.41637">
        <ele>1245</ele>
        <time>2018-10-17T13:47:25Z</time>
      </trkpt>
      <trkpt lat="45.82907" lon="6.41638">
        <ele>1245</ele>
        <time>2018-10-17T13:47:26Z</time>
      </trkpt>
      <trkpt lat="45.82909" lon="6.4164">
        <ele>1244</ele>
        <time>2018-10-17T13:47:27Z</time>
      </trkpt>
      <trkpt lat="45.8291" lon="6.41641">
        <ele>1243</ele>
        <time>2018-10-17T13:47:28Z</time>
      </trkpt>
      <trkpt lat="45.82911" lon="6.41642">
        <ele>1243</ele>
        <time>2018-10-17T13:47:29Z</time>
      </trkpt>
      <trkpt lat="45.82913" lon="6.41644">
        <ele>1243</ele>
        <time>2018-10-17T13:47:30Z</time>
      </trkpt>
      <trkpt lat="45.82914" lon="6.41645">
        <ele>1242</ele>
        <time>2018-10-17T13:47:31Z</time>
      </trkpt>
      <trkpt lat="45.82914" lon="6.41645">
        <ele>1242</ele>
        <time>2018-10-17T13:47:32Z</time>
      </trkpt>
      <trkpt lat="45.82914" lon="6.41645">
        <ele>1242</ele>
        <time>2018-10-17T13:47:33Z</time>
      </trkpt>
      <trkpt lat="45.82914" lon="6.41645">
        <ele>1241</ele>
        <time>2018-10-17T13:47:34Z</time>
      </trkpt>
      <trkpt lat="45.82914" lon="6.41645">
        <ele>1240</ele>
        <time>2018-10-17T13:47:35Z</time>
      </trkpt>
      <trkpt lat="45.82924" lon="6.41647">
        <ele>1240</ele>
        <time>2018-10-17T13:47:36Z</time>
      </trkpt>
      <trkpt lat="45.82924" lon="6.41647">
        <ele>1239</ele>
        <time>2018-10-17T13:47:37Z</time>
      </trkpt>
      <trkpt lat="45.82933" lon="6.41654">
        <ele>1239</ele>
        <time>2018-10-17T13:47:39Z</time>
      </trkpt>
      <trkpt lat="45.82934" lon="6.41656">
        <ele>1239</ele>
        <time>2018-10-17T13:47:40Z</time>
      </trkpt>
      <trkpt lat="45.82935" lon="6.41658">
        <ele>1236</ele>
        <time>2018-10-17T13:47:41Z</time>
      </trkpt>
      <trkpt lat="45.82936" lon="6.4166">
        <ele>1235</ele>
        <time>2018-10-17T13:47:42Z</time>
      </trkpt>
      <trkpt lat="45.82942" lon="6.41667">
        <ele>1235</ele>
        <time>2018-10-17T13:47:43Z</time>
      </trkpt>
      <trkpt lat="45.82944" lon="6.41668">
        <ele>1234</ele>
        <time>2018-10-17T13:47:44Z</time>
      </trkpt>
      <trkpt lat="45.82946" lon="6.41669">
        <ele>1233</ele>
        <time>2018-10-17T13:47:45Z</time>
      </trkpt>
      <trkpt lat="45.82948" lon="6.4167">
        <ele>1233</ele>
        <time>2018-10-17T13:47:46Z</time>
      </trkpt>
      <trkpt lat="45.82948" lon="6.41669">
        <ele>1233</ele>
        <time>2018-10-17T13:47:47Z</time>
      </trkpt>
      <trkpt lat="45.82948" lon="6.41667">
        <ele>1232</ele>
        <time>2018-10-17T13:47:48Z</time>
      </trkpt>
      <trkpt lat="45.82948" lon="6.41666">
        <ele>1232</ele>
        <time>2018-10-17T13:47:49Z</time>
      </trkpt>
      <trkpt lat="45.82948" lon="6.41664">
        <ele>1232</ele>
        <time>2018-10-17T13:47:50Z</time>
      </trkpt>
      <trkpt lat="45.82948" lon="6.41663">
        <ele>1232</ele>
        <time>2018-10-17T13:47:51Z</time>
      </trkpt>
      <trkpt lat="45.82948" lon="6.41655">
        <ele>1232</ele>
        <time>2018-10-17T13:47:52Z</time>
      </trkpt>
      <trkpt lat="45.82948" lon="6.41655">
        <ele>1231</ele>
        <time>2018-10-17T13:47:53Z</time>
      </trkpt>
      <trkpt lat="45.82948" lon="6.41655">
        <ele>1230</ele>
        <time>2018-10-17T13:47:54Z</time>
      </trkpt>
      <trkpt lat="45.82948" lon="6.41655">
        <ele>1229</ele>
        <time>2018-10-17T13:47:55Z</time>
      </trkpt>
      <trkpt lat="45.82943" lon="6.41641">
        <ele>1228</ele>
        <time>2018-10-17T13:47:56Z</time>
      </trkpt>
      <trkpt lat="45.82943" lon="6.41641">
        <ele>1228</ele>
        <time>2018-10-17T13:47:57Z</time>
      </trkpt>
      <trkpt lat="45.82943" lon="6.41641">
        <ele>1227</ele>
        <time>2018-10-17T13:47:58Z</time>
      </trkpt>
      <trkpt lat="45.8294" lon="6.41628">
        <ele>1227</ele>
        <time>2018-10-17T13:47:59Z</time>
      </trkpt>
      <trkpt lat="45.8294" lon="6.41626">
        <ele>1226</ele>
        <time>2018-10-17T13:48:00Z</time>
      </trkpt>
      <trkpt lat="45.8294" lon="6.41624">
        <ele>1224</ele>
        <time>2018-10-17T13:48:01Z</time>
      </trkpt>
      <trkpt lat="45.82941" lon="6.41622">
        <ele>1224</ele>
        <time>2018-10-17T13:48:02Z</time>
      </trkpt>
      <trkpt lat="45.82941" lon="6.4162">
        <ele>1223</ele>
        <time>2018-10-17T13:48:03Z</time>
      </trkpt>
      <trkpt lat="45.82941" lon="6.41618">
        <ele>1223</ele>
        <time>2018-10-17T13:48:04Z</time>
      </trkpt>
      <trkpt lat="45.82942" lon="6.41616">
        <ele>1223</ele>
        <time>2018-10-17T13:48:05Z</time>
      </trkpt>
      <trkpt lat="45.82943" lon="6.41618">
        <ele>1223</ele>
        <time>2018-10-17T13:48:06Z</time>
      </trkpt>
      <trkpt lat="45.82944" lon="6.41619">
        <ele>1223</ele>
        <time>2018-10-17T13:48:07Z</time>
      </trkpt>
      <trkpt lat="45.82945" lon="6.41621">
        <ele>1222</ele>
        <time>2018-10-17T13:48:08Z</time>
      </trkpt>
      <trkpt lat="45.82949" lon="6.41626">
        <ele>1221</ele>
        <time>2018-10-17T13:48:09Z</time>
      </trkpt>
      <trkpt lat="45.82949" lon="6.41626">
        <ele>1221</ele>
        <time>2018-10-17T13:48:10Z</time>
      </trkpt>
      <trkpt lat="45.82949" lon="6.41626">
        <ele>1221</ele>
        <time>2018-10-17T13:48:11Z</time>
      </trkpt>
      <trkpt lat="45.82949" lon="6.41626">
        <ele>1220</ele>
        <time>2018-10-17T13:48:12Z</time>
      </trkpt>
      <trkpt lat="45.82949" lon="6.41626">
        <ele>1219</ele>
        <time>2018-10-17T13:48:13Z</time>
      </trkpt>
      <trkpt lat="45.82957" lon="6.41634">
        <ele>1219</ele>
        <time>2018-10-17T13:48:14Z</time>
      </trkpt>
      <trkpt lat="45.82957" lon="6.41634">
        <ele>1219</ele>
        <time>2018-10-17T13:48:15Z</time>
      </trkpt>
      <trkpt lat="45.82957" lon="6.41634">
        <ele>1218</ele>
        <time>2018-10-17T13:48:16Z</time>
      </trkpt>
      <trkpt lat="45.82957" lon="6.41634">
        <ele>1218</ele>
        <time>2018-10-17T13:48:17Z</time>
      </trkpt>
      <trkpt lat="45.82957" lon="6.41634">
        <ele>1218</ele>
        <time>2018-10-17T13:48:18Z</time>
      </trkpt>
      <trkpt lat="45.82957" lon="6.41634">
        <ele>1217</ele>
        <time>2018-10-17T13:48:19Z</time>
      </trkpt>
      <trkpt lat="45.82966" lon="6.41643">
        <ele>1217</ele>
        <time>2018-10-17T13:48:20Z</time>
      </trkpt>
      <trkpt lat="45.82967" lon="6.41645">
        <ele>1217</ele>
        <time>2018-10-17T13:48:21Z</time>
      </trkpt>
      <trkpt lat="45.82967" lon="6.41646">
        <ele>1216</ele>
        <time>2018-10-17T13:48:22Z</time>
      </trkpt>
      <trkpt lat="45.82968" lon="6.41647">
        <ele>1216</ele>
        <time>2018-10-17T13:48:23Z</time>
      </trkpt>
      <trkpt lat="45.82969" lon="6.41649">
        <ele>1215</ele>
        <time>2018-10-17T13:48:24Z</time>
      </trkpt>
      <trkpt lat="45.82973" lon="6.41658">
        <ele>1215</ele>
        <time>2018-10-17T13:48:25Z</time>
      </trkpt>
      <trkpt lat="45.82974" lon="6.41659">
        <ele>1215</ele>
        <time>2018-10-17T13:48:26Z</time>
      </trkpt>
      <trkpt lat="45.82975" lon="6.41661">
        <ele>1214</ele>
        <time>2018-10-17T13:48:27Z</time>
      </trkpt>
      <trkpt lat="45.82976" lon="6.41663">
        <ele>1213</ele>
        <time>2018-10-17T13:48:28Z</time>
      </trkpt>
      <trkpt lat="45.82977" lon="6.41665">
        <ele>1213</ele>
        <time>2018-10-17T13:48:29Z</time>
      </trkpt>
      <trkpt lat="45.82978" lon="6.41667">
        <ele>1213</ele>
        <time>2018-10-17T13:48:30Z</time>
      </trkpt>
      <trkpt lat="45.82979" lon="6.41668">
        <ele>1213</ele>
        <time>2018-10-17T13:48:31Z</time>
      </trkpt>
      <trkpt lat="45.82979" lon="6.41669">
        <ele>1213</ele>
        <time>2018-10-17T13:48:32Z</time>
      </trkpt>
      <trkpt lat="45.8298" lon="6.4167">
        <ele>1212</ele>
        <time>2018-10-17T13:48:33Z</time>
      </trkpt>
      <trkpt lat="45.8298" lon="6.41671">
        <ele>1212</ele>
        <time>2018-10-17T13:48:34Z</time>
      </trkpt>
      <trkpt lat="45.82981" lon="6.41672">
        <ele>1212</ele>
        <time>2018-10-17T13:48:35Z</time>
      </trkpt>
      <trkpt lat="45.82982" lon="6.41673">
        <ele>1211</ele>
        <time>2018-10-17T13:48:36Z</time>
      </trkpt>
      <trkpt lat="45.82987" lon="6.41681">
        <ele>1211</ele>
        <time>2018-10-17T13:48:37Z</time>
      </trkpt>
      <trkpt lat="45.82988" lon="6.41683">
        <ele>1211</ele>
        <time>2018-10-17T13:48:38Z</time>
      </trkpt>
      <trkpt lat="45.82989" lon="6.41685">
        <ele>1210</ele>
        <time>2018-10-17T13:48:39Z</time>
      </trkpt>
      <trkpt lat="45.8299" lon="6.41687">
        <ele>1210</ele>
        <time>2018-10-17T13:48:40Z</time>
      </trkpt>
      <trkpt lat="45.82992" lon="6.41689">
        <ele>1209</ele>
        <time>2018-10-17T13:48:41Z</time>
      </trkpt>
      <trkpt lat="45.82992" lon="6.41689">
        <ele>1208</ele>
        <time>2018-10-17T13:48:42Z</time>
      </trkpt>
      <trkpt lat="45.82992" lon="6.41689">
        <ele>1208</ele>
        <time>2018-10-17T13:48:43Z</time>
      </trkpt>
      <trkpt lat="45.82992" lon="6.41689">
        <ele>1208</ele>
        <time>2018-10-17T13:48:44Z</time>
      </trkpt>
      <trkpt lat="45.82992" lon="6.41689">
        <ele>1208</ele>
        <time>2018-10-17T13:48:45Z</time>
      </trkpt>
      <trkpt lat="45.82992" lon="6.41689">
        <ele>1208</ele>
        <time>2018-10-17T13:48:46Z</time>
      </trkpt>
      <trkpt lat="45.82992" lon="6.41689">
        <ele>1208</ele>
        <time>2018-10-17T13:48:47Z</time>
      </trkpt>
      <trkpt lat="45.83002" lon="6.41698">
        <ele>1208</ele>
        <time>2018-10-17T13:48:48Z</time>
      </trkpt>
      <trkpt lat="45.83003" lon="6.417">
        <ele>1208</ele>
        <time>2018-10-17T13:48:49Z</time>
      </trkpt>
      <trkpt lat="45.83004" lon="6.41702">
        <ele>1207</ele>
        <time>2018-10-17T13:48:50Z</time>
      </trkpt>
      <trkpt lat="45.83005" lon="6.41703">
        <ele>1207</ele>
        <time>2018-10-17T13:48:51Z</time>
      </trkpt>
      <trkpt lat="45.83006" lon="6.41705">
        <ele>1207</ele>
        <time>2018-10-17T13:48:52Z</time>
      </trkpt>
      <trkpt lat="45.83007" lon="6.41707">
        <ele>1206</ele>
        <time>2018-10-17T13:48:53Z</time>
      </trkpt>
      <trkpt lat="45.83007" lon="6.41707">
        <ele>1206</ele>
        <time>2018-10-17T13:48:54Z</time>
      </trkpt>
      <trkpt lat="45.83007" lon="6.41707">
        <ele>1206</ele>
        <time>2018-10-17T13:48:55Z</time>
      </trkpt>
      <trkpt lat="45.83007" lon="6.41707">
        <ele>1205</ele>
        <time>2018-10-17T13:48:56Z</time>
      </trkpt>
      <trkpt lat="45.83007" lon="6.41707">
        <ele>1205</ele>
        <time>2018-10-17T13:48:57Z</time>
      </trkpt>
      <trkpt lat="45.83015" lon="6.41716">
        <ele>1204</ele>
        <time>2018-10-17T13:48:58Z</time>
      </trkpt>
      <trkpt lat="45.83016" lon="6.41718">
        <ele>1204</ele>
        <time>2018-10-17T13:48:59Z</time>
      </trkpt>
      <trkpt lat="45.83017" lon="6.41719">
        <ele>1204</ele>
        <time>2018-10-17T13:49:00Z</time>
      </trkpt>
      <trkpt lat="45.83017" lon="6.4172">
        <ele>1203</ele>
        <time>2018-10-17T13:49:01Z</time>
      </trkpt>
      <trkpt lat="45.83018" lon="6.41721">
        <ele>1203</ele>
        <time>2018-10-17T13:49:02Z</time>
      </trkpt>
      <trkpt lat="45.83023" lon="6.41729">
        <ele>1203</ele>
        <time>2018-10-17T13:49:03Z</time>
      </trkpt>
      <trkpt lat="45.83024" lon="6.41731">
        <ele>1203</ele>
        <time>2018-10-17T13:49:04Z</time>
      </trkpt>
      <trkpt lat="45.83026" lon="6.41733">
        <ele>1202</ele>
        <time>2018-10-17T13:49:05Z</time>
      </trkpt>
      <trkpt lat="45.83028" lon="6.41735">
        <ele>1202</ele>
        <time>2018-10-17T13:49:06Z</time>
      </trkpt>
      <trkpt lat="45.83029" lon="6.41737">
        <ele>1202</ele>
        <time>2018-10-17T13:49:07Z</time>
      </trkpt>
      <trkpt lat="45.83031" lon="6.41738">
        <ele>1202</ele>
        <time>2018-10-17T13:49:08Z</time>
      </trkpt>
      <trkpt lat="45.83032" lon="6.41739">
        <ele>1201</ele>
        <time>2018-10-17T13:49:09Z</time>
      </trkpt>
      <trkpt lat="45.83034" lon="6.4174">
        <ele>1201</ele>
        <time>2018-10-17T13:49:10Z</time>
      </trkpt>
      <trkpt lat="45.8304" lon="6.41744">
        <ele>1200</ele>
        <time>2018-10-17T13:49:11Z</time>
      </trkpt>
      <trkpt lat="45.83041" lon="6.41744">
        <ele>1200</ele>
        <time>2018-10-17T13:49:12Z</time>
      </trkpt>
      <trkpt lat="45.83042" lon="6.41745">
        <ele>1200</ele>
        <time>2018-10-17T13:49:13Z</time>
      </trkpt>
      <trkpt lat="45.83044" lon="6.41746">
        <ele>1200</ele>
        <time>2018-10-17T13:49:14Z</time>
      </trkpt>
      <trkpt lat="45.83051" lon="6.41749">
        <ele>1200</ele>
        <time>2018-10-17T13:49:15Z</time>
      </trkpt>
      <trkpt lat="45.83053" lon="6.41749">
        <ele>1199</ele>
        <time>2018-10-17T13:49:16Z</time>
      </trkpt>
      <trkpt lat="45.83055" lon="6.4175">
        <ele>1199</ele>
        <time>2018-10-17T13:49:17Z</time>
      </trkpt>
      <trkpt lat="45.83057" lon="6.4175">
        <ele>1198</ele>
        <time>2018-10-17T13:49:18Z</time>
      </trkpt>
      <trkpt lat="45.83059" lon="6.41751">
        <ele>1198</ele>
        <time>2018-10-17T13:49:19Z</time>
      </trkpt>
      <trkpt lat="45.83061" lon="6.41751">
        <ele>1198</ele>
        <time>2018-10-17T13:49:20Z</time>
      </trkpt>
      <trkpt lat="45.83063" lon="6.41752">
        <ele>1197</ele>
        <time>2018-10-17T13:49:21Z</time>
      </trkpt>
      <trkpt lat="45.83065" lon="6.41752">
        <ele>1197</ele>
        <time>2018-10-17T13:49:22Z</time>
      </trkpt>
      <trkpt lat="45.83067" lon="6.41752">
        <ele>1197</ele>
        <time>2018-10-17T13:49:23Z</time>
      </trkpt>
      <trkpt lat="45.83069" lon="6.41753">
        <ele>1197</ele>
        <time>2018-10-17T13:49:24Z</time>
      </trkpt>
      <trkpt lat="45.8307" lon="6.41753">
        <ele>1196</ele>
        <time>2018-10-17T13:49:25Z</time>
      </trkpt>
      <trkpt lat="45.83071" lon="6.41753">
        <ele>1196</ele>
        <time>2018-10-17T13:49:26Z</time>
      </trkpt>
      <trkpt lat="45.83072" lon="6.41753">
        <ele>1196</ele>
        <time>2018-10-17T13:49:27Z</time>
      </trkpt>
      <trkpt lat="45.83073" lon="6.41753">
        <ele>1195</ele>
        <time>2018-10-17T13:49:28Z</time>
      </trkpt>
      <trkpt lat="45.83074" lon="6.41753">
        <ele>1195</ele>
        <time>2018-10-17T13:49:29Z</time>
      </trkpt>
      <trkpt lat="45.83081" lon="6.41753">
        <ele>1194</ele>
        <time>2018-10-17T13:49:30Z</time>
      </trkpt>
      <trkpt lat="45.83081" lon="6.41754">
        <ele>1194</ele>
        <time>2018-10-17T13:49:31Z</time>
      </trkpt>
      <trkpt lat="45.83082" lon="6.41754">
        <ele>1194</ele>
        <time>2018-10-17T13:49:32Z</time>
      </trkpt>
      <trkpt lat="45.83083" lon="6.41754">
        <ele>1194</ele>
        <time>2018-10-17T13:49:33Z</time>
      </trkpt>
      <trkpt lat="45.83084" lon="6.41754">
        <ele>1194</ele>
        <time>2018-10-17T13:49:34Z</time>
      </trkpt>
      <trkpt lat="45.83085" lon="6.41754">
        <ele>1194</ele>
        <time>2018-10-17T13:49:35Z</time>
      </trkpt>
      <trkpt lat="45.83091" lon="6.41756">
        <ele>1194</ele>
        <time>2018-10-17T13:49:36Z</time>
      </trkpt>
      <trkpt lat="45.83092" lon="6.41756">
        <ele>1194</ele>
        <time>2018-10-17T13:49:37Z</time>
      </trkpt>
      <trkpt lat="45.83093" lon="6.41757">
        <ele>1193</ele>
        <time>2018-10-17T13:49:38Z</time>
      </trkpt>
      <trkpt lat="45.83094" lon="6.41757">
        <ele>1192</ele>
        <time>2018-10-17T13:49:39Z</time>
      </trkpt>
      <trkpt lat="45.83095" lon="6.41757">
        <ele>1192</ele>
        <time>2018-10-17T13:49:40Z</time>
      </trkpt>
      <trkpt lat="45.83095" lon="6.41758">
        <ele>1192</ele>
        <time>2018-10-17T13:49:41Z</time>
      </trkpt>
      <trkpt lat="45.83102" lon="6.41761">
        <ele>1192</ele>
        <time>2018-10-17T13:49:42Z</time>
      </trkpt>
      <trkpt lat="45.83104" lon="6.41761">
        <ele>1192</ele>
        <time>2018-10-17T13:49:43Z</time>
      </trkpt>
      <trkpt lat="45.83105" lon="6.41761">
        <ele>1192</ele>
        <time>2018-10-17T13:49:44Z</time>
      </trkpt>
      <trkpt lat="45.83106" lon="6.41761">
        <ele>1192</ele>
        <time>2018-10-17T13:49:45Z</time>
      </trkpt>
      <trkpt lat="45.83107" lon="6.41761">
        <ele>1192</ele>
        <time>2018-10-17T13:49:46Z</time>
      </trkpt>
      <trkpt lat="45.83114" lon="6.41761">
        <ele>1192</ele>
        <time>2018-10-17T13:49:47Z</time>
      </trkpt>
      <trkpt lat="45.83114" lon="6.41761">
        <ele>1192</ele>
        <time>2018-10-17T13:49:48Z</time>
      </trkpt>
      <trkpt lat="45.83126" lon="6.4176">
        <ele>1192</ele>
        <time>2018-10-17T13:49:49Z</time>
      </trkpt>
      <trkpt lat="45.83128" lon="6.4176">
        <ele>1191</ele>
        <time>2018-10-17T13:49:50Z</time>
      </trkpt>
      <trkpt lat="45.83131" lon="6.4176">
        <ele>1190</ele>
        <time>2018-10-17T13:49:51Z</time>
      </trkpt>
      <trkpt lat="45.83134" lon="6.41759">
        <ele>1190</ele>
        <time>2018-10-17T13:49:52Z</time>
      </trkpt>
      <trkpt lat="45.83134" lon="6.41759">
        <ele>1190</ele>
        <time>2018-10-17T13:49:53Z</time>
      </trkpt>
      <trkpt lat="45.83134" lon="6.41759">
        <ele>1190</ele>
        <time>2018-10-17T13:49:54Z</time>
      </trkpt>
      <trkpt lat="45.83144" lon="6.41757">
        <ele>1190</ele>
        <time>2018-10-17T13:49:55Z</time>
      </trkpt>
      <trkpt lat="45.83145" lon="6.41757">
        <ele>1190</ele>
        <time>2018-10-17T13:49:56Z</time>
      </trkpt>
      <trkpt lat="45.83146" lon="6.41757">
        <ele>1190</ele>
        <time>2018-10-17T13:49:57Z</time>
      </trkpt>
      <trkpt lat="45.83148" lon="6.41756">
        <ele>1190</ele>
        <time>2018-10-17T13:49:58Z</time>
      </trkpt>
      <trkpt lat="45.83149" lon="6.41756">
        <ele>1190</ele>
        <time>2018-10-17T13:49:59Z</time>
      </trkpt>
      <trkpt lat="45.83157" lon="6.41755">
        <ele>1190</ele>
        <time>2018-10-17T13:50:00Z</time>
      </trkpt>
      <trkpt lat="45.8316" lon="6.41755">
        <ele>1188</ele>
        <time>2018-10-17T13:50:01Z</time>
      </trkpt>
      <trkpt lat="45.83166" lon="6.41756">
        <ele>1188</ele>
        <time>2018-10-17T13:50:02Z</time>
      </trkpt>
      <trkpt lat="45.83168" lon="6.41755">
        <ele>1187</ele>
        <time>2018-10-17T13:50:03Z</time>
      </trkpt>
      <trkpt lat="45.83169" lon="6.41755">
        <ele>1187</ele>
        <time>2018-10-17T13:50:04Z</time>
      </trkpt>
      <trkpt lat="45.8317" lon="6.41754">
        <ele>1187</ele>
        <time>2018-10-17T13:50:05Z</time>
      </trkpt>
      <trkpt lat="45.83176" lon="6.41753">
        <ele>1187</ele>
        <time>2018-10-17T13:50:06Z</time>
      </trkpt>
      <trkpt lat="45.83176" lon="6.41753">
        <ele>1186</ele>
        <time>2018-10-17T13:50:07Z</time>
      </trkpt>
      <trkpt lat="45.83184" lon="6.41748">
        <ele>1186</ele>
        <time>2018-10-17T13:50:08Z</time>
      </trkpt>
      <trkpt lat="45.83184" lon="6.41748">
        <ele>1186</ele>
        <time>2018-10-17T13:50:09Z</time>
      </trkpt>
      <trkpt lat="45.83184" lon="6.41748">
        <ele>1186</ele>
        <time>2018-10-17T13:50:10Z</time>
      </trkpt>
      <trkpt lat="45.83196" lon="6.41746">
        <ele>1185</ele>
        <time>2018-10-17T13:50:11Z</time>
      </trkpt>
      <trkpt lat="45.83197" lon="6.41746">
        <ele>1185</ele>
        <time>2018-10-17T13:50:12Z</time>
      </trkpt>
      <trkpt lat="45.83199" lon="6.41746">
        <ele>1185</ele>
        <time>2018-10-17T13:50:13Z</time>
      </trkpt>
      <trkpt lat="45.832" lon="6.41746">
        <ele>1184</ele>
        <time>2018-10-17T13:50:14Z</time>
      </trkpt>
      <trkpt lat="45.83209" lon="6.41745">
        <ele>1183</ele>
        <time>2018-10-17T13:50:15Z</time>
      </trkpt>
      <trkpt lat="45.83211" lon="6.41745">
        <ele>1183</ele>
        <time>2018-10-17T13:50:16Z</time>
      </trkpt>
      <trkpt lat="45.83219" lon="6.41743">
        <ele>1182</ele>
        <time>2018-10-17T13:50:17Z</time>
      </trkpt>
      <trkpt lat="45.8322" lon="6.41743">
        <ele>1182</ele>
        <time>2018-10-17T13:50:18Z</time>
      </trkpt>
      <trkpt lat="45.83221" lon="6.41742">
        <ele>1181</ele>
        <time>2018-10-17T13:50:19Z</time>
      </trkpt>
      <trkpt lat="45.83223" lon="6.41741">
        <ele>1181</ele>
        <time>2018-10-17T13:50:20Z</time>
      </trkpt>
      <trkpt lat="45.83229" lon="6.41737">
        <ele>1181</ele>
        <time>2018-10-17T13:50:21Z</time>
      </trkpt>
      <trkpt lat="45.83229" lon="6.41737">
        <ele>1181</ele>
        <time>2018-10-17T13:50:22Z</time>
      </trkpt>
      <trkpt lat="45.83229" lon="6.41737">
        <ele>1181</ele>
        <time>2018-10-17T13:50:23Z</time>
      </trkpt>
      <trkpt lat="45.83239" lon="6.4173">
        <ele>1181</ele>
        <time>2018-10-17T13:50:24Z</time>
      </trkpt>
      <trkpt lat="45.83241" lon="6.41728">
        <ele>1181</ele>
        <time>2018-10-17T13:50:25Z</time>
      </trkpt>
      <trkpt lat="45.83243" lon="6.41727">
        <ele>1181</ele>
        <time>2018-10-17T13:50:26Z</time>
      </trkpt>
      <trkpt lat="45.83245" lon="6.41725">
        <ele>1180</ele>
        <time>2018-10-17T13:50:27Z</time>
      </trkpt>
      <trkpt lat="45.83249" lon="6.41724">
        <ele>1180</ele>
        <time>2018-10-17T13:50:28Z</time>
      </trkpt>
      <trkpt lat="45.83252" lon="6.41722">
        <ele>1179</ele>
        <time>2018-10-17T13:50:29Z</time>
      </trkpt>
      <trkpt lat="45.83255" lon="6.41721">
        <ele>1179</ele>
        <time>2018-10-17T13:50:30Z</time>
      </trkpt>
      <trkpt lat="45.83258" lon="6.41721">
        <ele>1179</ele>
        <time>2018-10-17T13:50:31Z</time>
      </trkpt>
      <trkpt lat="45.83261" lon="6.41721">
        <ele>1179</ele>
        <time>2018-10-17T13:50:32Z</time>
      </trkpt>
      <trkpt lat="45.83265" lon="6.41721">
        <ele>1179</ele>
        <time>2018-10-17T13:50:33Z</time>
      </trkpt>
      <trkpt lat="45.83268" lon="6.41721">
        <ele>1179</ele>
        <time>2018-10-17T13:50:34Z</time>
      </trkpt>
      <trkpt lat="45.83271" lon="6.41721">
        <ele>1178</ele>
        <time>2018-10-17T13:50:35Z</time>
      </trkpt>
      <trkpt lat="45.83274" lon="6.41722">
        <ele>1178</ele>
        <time>2018-10-17T13:50:36Z</time>
      </trkpt>
      <trkpt lat="45.83274" lon="6.41722">
        <ele>1178</ele>
        <time>2018-10-17T13:50:37Z</time>
      </trkpt>
      <trkpt lat="45.83274" lon="6.41722">
        <ele>1177</ele>
        <time>2018-10-17T13:50:38Z</time>
      </trkpt>
      <trkpt lat="45.83286" lon="6.41726">
        <ele>1177</ele>
        <time>2018-10-17T13:50:39Z</time>
      </trkpt>
      <trkpt lat="45.83288" lon="6.41727">
        <ele>1177</ele>
        <time>2018-10-17T13:50:40Z</time>
      </trkpt>
      <trkpt lat="45.83289" lon="6.41728">
        <ele>1176</ele>
        <time>2018-10-17T13:50:41Z</time>
      </trkpt>
      <trkpt lat="45.83297" lon="6.41732">
        <ele>1176</ele>
        <time>2018-10-17T13:50:42Z</time>
      </trkpt>
      <trkpt lat="45.83299" lon="6.41734">
        <ele>1176</ele>
        <time>2018-10-17T13:50:43Z</time>
      </trkpt>
      <trkpt lat="45.83301" lon="6.41735">
        <ele>1176</ele>
        <time>2018-10-17T13:50:44Z</time>
      </trkpt>
      <trkpt lat="45.83303" lon="6.41737">
        <ele>1175</ele>
        <time>2018-10-17T13:50:45Z</time>
      </trkpt>
      <trkpt lat="45.83306" lon="6.41739">
        <ele>1175</ele>
        <time>2018-10-17T13:50:46Z</time>
      </trkpt>
      <trkpt lat="45.83309" lon="6.41741">
        <ele>1175</ele>
        <time>2018-10-17T13:50:47Z</time>
      </trkpt>
      <trkpt lat="45.83311" lon="6.41744">
        <ele>1175</ele>
        <time>2018-10-17T13:50:48Z</time>
      </trkpt>
      <trkpt lat="45.83311" lon="6.41744">
        <ele>1174</ele>
        <time>2018-10-17T13:50:49Z</time>
      </trkpt>
      <trkpt lat="45.83311" lon="6.41744">
        <ele>1174</ele>
        <time>2018-10-17T13:50:50Z</time>
      </trkpt>
      <trkpt lat="45.83322" lon="6.4175">
        <ele>1174</ele>
        <time>2018-10-17T13:50:51Z</time>
      </trkpt>
      <trkpt lat="45.83325" lon="6.41751">
        <ele>1173</ele>
        <time>2018-10-17T13:50:52Z</time>
      </trkpt>
      <trkpt lat="45.83327" lon="6.41752">
        <ele>1173</ele>
        <time>2018-10-17T13:50:53Z</time>
      </trkpt>
      <trkpt lat="45.83329" lon="6.41754">
        <ele>1172</ele>
        <time>2018-10-17T13:50:54Z</time>
      </trkpt>
      <trkpt lat="45.83332" lon="6.41755">
        <ele>1172</ele>
        <time>2018-10-17T13:50:55Z</time>
      </trkpt>
      <trkpt lat="45.83335" lon="6.41756">
        <ele>1172</ele>
        <time>2018-10-17T13:50:56Z</time>
      </trkpt>
      <trkpt lat="45.83338" lon="6.41758">
        <ele>1172</ele>
        <time>2018-10-17T13:50:57Z</time>
      </trkpt>
      <trkpt lat="45.8334" lon="6.41758">
        <ele>1172</ele>
        <time>2018-10-17T13:50:58Z</time>
      </trkpt>
      <trkpt lat="45.83341" lon="6.41758">
        <ele>1171</ele>
        <time>2018-10-17T13:50:59Z</time>
      </trkpt>
      <trkpt lat="45.83343" lon="6.41758">
        <ele>1170</ele>
        <time>2018-10-17T13:51:00Z</time>
      </trkpt>
      <trkpt lat="45.83344" lon="6.41758">
        <ele>1170</ele>
        <time>2018-10-17T13:51:01Z</time>
      </trkpt>
      <trkpt lat="45.8335" lon="6.41758">
        <ele>1170</ele>
        <time>2018-10-17T13:51:02Z</time>
      </trkpt>
      <trkpt lat="45.8335" lon="6.41758">
        <ele>1170</ele>
        <time>2018-10-17T13:51:03Z</time>
      </trkpt>
      <trkpt lat="45.83362" lon="6.41757">
        <ele>1169</ele>
        <time>2018-10-17T13:51:04Z</time>
      </trkpt>
      <trkpt lat="45.83363" lon="6.41758">
        <ele>1169</ele>
        <time>2018-10-17T13:51:05Z</time>
      </trkpt>
      <trkpt lat="45.83365" lon="6.41758">
        <ele>1169</ele>
        <time>2018-10-17T13:51:06Z</time>
      </trkpt>
      <trkpt lat="45.83372" lon="6.4176">
        <ele>1169</ele>
        <time>2018-10-17T13:51:07Z</time>
      </trkpt>
      <trkpt lat="45.83374" lon="6.4176">
        <ele>1168</ele>
        <time>2018-10-17T13:51:08Z</time>
      </trkpt>
      <trkpt lat="45.83376" lon="6.4176">
        <ele>1168</ele>
        <time>2018-10-17T13:51:09Z</time>
      </trkpt>
      <trkpt lat="45.83385" lon="6.41759">
        <ele>1168</ele>
        <time>2018-10-17T13:51:10Z</time>
      </trkpt>
      <trkpt lat="45.83387" lon="6.41759">
        <ele>1167</ele>
        <time>2018-10-17T13:51:11Z</time>
      </trkpt>
      <trkpt lat="45.83393" lon="6.4176">
        <ele>1167</ele>
        <time>2018-10-17T13:51:12Z</time>
      </trkpt>
      <trkpt lat="45.83393" lon="6.4176">
        <ele>1167</ele>
        <time>2018-10-17T13:51:13Z</time>
      </trkpt>
      <trkpt lat="45.834" lon="6.41759">
        <ele>1167</ele>
        <time>2018-10-17T13:51:14Z</time>
      </trkpt>
      <trkpt lat="45.83404" lon="6.41759">
        <ele>1167</ele>
        <time>2018-10-17T13:51:15Z</time>
      </trkpt>
      <trkpt lat="45.83407" lon="6.41758">
        <ele>1166</ele>
        <time>2018-10-17T13:51:16Z</time>
      </trkpt>
      <trkpt lat="45.83409" lon="6.41757">
        <ele>1165</ele>
        <time>2018-10-17T13:51:17Z</time>
      </trkpt>
      <trkpt lat="45.83412" lon="6.41756">
        <ele>1165</ele>
        <time>2018-10-17T13:51:18Z</time>
      </trkpt>
      <trkpt lat="45.83415" lon="6.41755">
        <ele>1165</ele>
        <time>2018-10-17T13:51:19Z</time>
      </trkpt>
      <trkpt lat="45.83418" lon="6.41753">
        <ele>1164</ele>
        <time>2018-10-17T13:51:20Z</time>
      </trkpt>
      <trkpt lat="45.83422" lon="6.41752">
        <ele>1164</ele>
        <time>2018-10-17T13:51:21Z</time>
      </trkpt>
      <trkpt lat="45.83425" lon="6.41751">
        <ele>1164</ele>
        <time>2018-10-17T13:51:22Z</time>
      </trkpt>
      <trkpt lat="45.83428" lon="6.4175">
        <ele>1164</ele>
        <time>2018-10-17T13:51:23Z</time>
      </trkpt>
      <trkpt lat="45.83432" lon="6.41748">
        <ele>1163</ele>
        <time>2018-10-17T13:51:24Z</time>
      </trkpt>
      <trkpt lat="45.83434" lon="6.41748">
        <ele>1163</ele>
        <time>2018-10-17T13:51:25Z</time>
      </trkpt>
      <trkpt lat="45.83437" lon="6.41747">
        <ele>1163</ele>
        <time>2018-10-17T13:51:26Z</time>
      </trkpt>
      <trkpt lat="45.8344" lon="6.41746">
        <ele>1162</ele>
        <time>2018-10-17T13:51:27Z</time>
      </trkpt>
      <trkpt lat="45.83443" lon="6.41745">
        <ele>1162</ele>
        <time>2018-10-17T13:51:28Z</time>
      </trkpt>
      <trkpt lat="45.83447" lon="6.41743">
        <ele>1162</ele>
        <time>2018-10-17T13:51:29Z</time>
      </trkpt>
      <trkpt lat="45.83449" lon="6.41743">
        <ele>1161</ele>
        <time>2018-10-17T13:51:30Z</time>
      </trkpt>
      <trkpt lat="45.83452" lon="6.41742">
        <ele>1161</ele>
        <time>2018-10-17T13:51:31Z</time>
      </trkpt>
      <trkpt lat="45.83455" lon="6.41741">
        <ele>1161</ele>
        <time>2018-10-17T13:51:32Z</time>
      </trkpt>
      <trkpt lat="45.83458" lon="6.4174">
        <ele>1161</ele>
        <time>2018-10-17T13:51:33Z</time>
      </trkpt>
      <trkpt lat="45.83461" lon="6.41739">
        <ele>1161</ele>
        <time>2018-10-17T13:51:34Z</time>
      </trkpt>
      <trkpt lat="45.83464" lon="6.41738">
        <ele>1161</ele>
        <time>2018-10-17T13:51:35Z</time>
      </trkpt>
      <trkpt lat="45.83467" lon="6.41737">
        <ele>1161</ele>
        <time>2018-10-17T13:51:36Z</time>
      </trkpt>
      <trkpt lat="45.8347" lon="6.41736">
        <ele>1161</ele>
        <time>2018-10-17T13:51:37Z</time>
      </trkpt>
      <trkpt lat="45.83473" lon="6.41735">
        <ele>1161</ele>
        <time>2018-10-17T13:51:38Z</time>
      </trkpt>
      <trkpt lat="45.83476" lon="6.41733">
        <ele>1160</ele>
        <time>2018-10-17T13:51:39Z</time>
      </trkpt>
      <trkpt lat="45.83479" lon="6.41731">
        <ele>1160</ele>
        <time>2018-10-17T13:51:40Z</time>
      </trkpt>
      <trkpt lat="45.83479" lon="6.41731">
        <ele>1160</ele>
        <time>2018-10-17T13:51:41Z</time>
      </trkpt>
      <trkpt lat="45.83479" lon="6.41731">
        <ele>1160</ele>
        <time>2018-10-17T13:51:42Z</time>
      </trkpt>
      <trkpt lat="45.83487" lon="6.41728">
        <ele>1160</ele>
        <time>2018-10-17T13:51:43Z</time>
      </trkpt>
      <trkpt lat="45.83491" lon="6.41727">
        <ele>1160</ele>
        <time>2018-10-17T13:51:44Z</time>
      </trkpt>
      <trkpt lat="45.83494" lon="6.41726">
        <ele>1160</ele>
        <time>2018-10-17T13:51:45Z</time>
      </trkpt>
      <trkpt lat="45.83498" lon="6.41725">
        <ele>1160</ele>
        <time>2018-10-17T13:51:46Z</time>
      </trkpt>
      <trkpt lat="45.83498" lon="6.41725">
        <ele>1160</ele>
        <time>2018-10-17T13:51:47Z</time>
      </trkpt>
      <trkpt lat="45.83498" lon="6.41725">
        <ele>1159</ele>
        <time>2018-10-17T13:51:48Z</time>
      </trkpt>
      <trkpt lat="45.83509" lon="6.41721">
        <ele>1159</ele>
        <time>2018-10-17T13:51:49Z</time>
      </trkpt>
      <trkpt lat="45.83511" lon="6.41721">
        <ele>1158</ele>
        <time>2018-10-17T13:51:50Z</time>
      </trkpt>
      <trkpt lat="45.83513" lon="6.4172">
        <ele>1158</ele>
        <time>2018-10-17T13:51:51Z</time>
      </trkpt>
      <trkpt lat="45.8352" lon="6.41718">
        <ele>1158</ele>
        <time>2018-10-17T13:51:52Z</time>
      </trkpt>
      <trkpt lat="45.83521" lon="6.41718">
        <ele>1158</ele>
        <time>2018-10-17T13:51:53Z</time>
      </trkpt>
      <trkpt lat="45.83522" lon="6.41717">
        <ele>1158</ele>
        <time>2018-10-17T13:51:54Z</time>
      </trkpt>
      <trkpt lat="45.83523" lon="6.41717">
        <ele>1157</ele>
        <time>2018-10-17T13:51:55Z</time>
      </trkpt>
      <trkpt lat="45.83528" lon="6.41715">
        <ele>1157</ele>
        <time>2018-10-17T13:51:56Z</time>
      </trkpt>
      <trkpt lat="45.83528" lon="6.41715">
        <ele>1157</ele>
        <time>2018-10-17T13:51:57Z</time>
      </trkpt>
      <trkpt lat="45.8354" lon="6.4171">
        <ele>1157</ele>
        <time>2018-10-17T13:51:58Z</time>
      </trkpt>
      <trkpt lat="45.83542" lon="6.4171">
        <ele>1157</ele>
        <time>2018-10-17T13:51:59Z</time>
      </trkpt>
      <trkpt lat="45.83544" lon="6.41709">
        <ele>1156</ele>
        <time>2018-10-17T13:52:00Z</time>
      </trkpt>
      <trkpt lat="45.83547" lon="6.41707">
        <ele>1156</ele>
        <time>2018-10-17T13:52:01Z</time>
      </trkpt>
      <trkpt lat="45.8355" lon="6.41706">
        <ele>1156</ele>
        <time>2018-10-17T13:52:02Z</time>
      </trkpt>
      <trkpt lat="45.83553" lon="6.41704">
        <ele>1156</ele>
        <time>2018-10-17T13:52:03Z</time>
      </trkpt>
      <trkpt lat="45.83557" lon="6.41703">
        <ele>1156</ele>
        <time>2018-10-17T13:52:04Z</time>
      </trkpt>
      <trkpt lat="45.8356" lon="6.41703">
        <ele>1156</ele>
        <time>2018-10-17T13:52:05Z</time>
      </trkpt>
      <trkpt lat="45.83563" lon="6.41703">
        <ele>1155</ele>
        <time>2018-10-17T13:52:06Z</time>
      </trkpt>
      <trkpt lat="45.83566" lon="6.41704">
        <ele>1155</ele>
        <time>2018-10-17T13:52:07Z</time>
      </trkpt>
      <trkpt lat="45.8357" lon="6.41707">
        <ele>1154</ele>
        <time>2018-10-17T13:52:08Z</time>
      </trkpt>
      <trkpt lat="45.83572" lon="6.41708">
        <ele>1154</ele>
        <time>2018-10-17T13:52:09Z</time>
      </trkpt>
      <trkpt lat="45.83573" lon="6.4171">
        <ele>1154</ele>
        <time>2018-10-17T13:52:10Z</time>
      </trkpt>
      <trkpt lat="45.83574" lon="6.41711">
        <ele>1154</ele>
        <time>2018-10-17T13:52:11Z</time>
      </trkpt>
      <trkpt lat="45.8358" lon="6.41719">
        <ele>1153</ele>
        <time>2018-10-17T13:52:12Z</time>
      </trkpt>
      <trkpt lat="45.83582" lon="6.41722">
        <ele>1153</ele>
        <time>2018-10-17T13:52:13Z</time>
      </trkpt>
      <trkpt lat="45.83587" lon="6.41731">
        <ele>1153</ele>
        <time>2018-10-17T13:52:14Z</time>
      </trkpt>
      <trkpt lat="45.83588" lon="6.41733">
        <ele>1153</ele>
        <time>2018-10-17T13:52:15Z</time>
      </trkpt>
      <trkpt lat="45.83589" lon="6.41735">
        <ele>1153</ele>
        <time>2018-10-17T13:52:16Z</time>
      </trkpt>
      <trkpt lat="45.83591" lon="6.41741">
        <ele>1153</ele>
        <time>2018-10-17T13:52:17Z</time>
      </trkpt>
      <trkpt lat="45.83591" lon="6.41741">
        <ele>1153</ele>
        <time>2018-10-17T13:52:18Z</time>
      </trkpt>
      <trkpt lat="45.83591" lon="6.41741">
        <ele>1152</ele>
        <time>2018-10-17T13:52:19Z</time>
      </trkpt>
      <trkpt lat="45.83596" lon="6.41756">
        <ele>1152</ele>
        <time>2018-10-17T13:52:20Z</time>
      </trkpt>
      <trkpt lat="45.83597" lon="6.41757">
        <ele>1152</ele>
        <time>2018-10-17T13:52:21Z</time>
      </trkpt>
      <trkpt lat="45.83598" lon="6.41759">
        <ele>1151</ele>
        <time>2018-10-17T13:52:22Z</time>
      </trkpt>
      <trkpt lat="45.83599" lon="6.4176">
        <ele>1151</ele>
        <time>2018-10-17T13:52:23Z</time>
      </trkpt>
      <trkpt lat="45.83603" lon="6.41766">
        <ele>1151</ele>
        <time>2018-10-17T13:52:24Z</time>
      </trkpt>
      <trkpt lat="45.83603" lon="6.41766">
        <ele>1150</ele>
        <time>2018-10-17T13:52:25Z</time>
      </trkpt>
      <trkpt lat="45.83603" lon="6.41766">
        <ele>1150</ele>
        <time>2018-10-17T13:52:26Z</time>
      </trkpt>
      <trkpt lat="45.83615" lon="6.41765">
        <ele>1150</ele>
        <time>2018-10-17T13:52:27Z</time>
      </trkpt>
      <trkpt lat="45.83617" lon="6.41763">
        <ele>1150</ele>
        <time>2018-10-17T13:52:28Z</time>
      </trkpt>
      <trkpt lat="45.83618" lon="6.41762">
        <ele>1150</ele>
        <time>2018-10-17T13:52:29Z</time>
      </trkpt>
      <trkpt lat="45.83624" lon="6.41755">
        <ele>1150</ele>
        <time>2018-10-17T13:52:30Z</time>
      </trkpt>
      <trkpt lat="45.83625" lon="6.41752">
        <ele>1149</ele>
        <time>2018-10-17T13:52:31Z</time>
      </trkpt>
      <trkpt lat="45.83626" lon="6.41749">
        <ele>1149</ele>
        <time>2018-10-17T13:52:32Z</time>
      </trkpt>
      <trkpt lat="45.83628" lon="6.41746">
        <ele>1148</ele>
        <time>2018-10-17T13:52:33Z</time>
      </trkpt>
      <trkpt lat="45.8363" lon="6.41743">
        <ele>1148</ele>
        <time>2018-10-17T13:52:34Z</time>
      </trkpt>
      <trkpt lat="45.83634" lon="6.41737">
        <ele>1147</ele>
        <time>2018-10-17T13:52:35Z</time>
      </trkpt>
      <trkpt lat="45.83636" lon="6.41734">
        <ele>1147</ele>
        <time>2018-10-17T13:52:36Z</time>
      </trkpt>
      <trkpt lat="45.83639" lon="6.4173">
        <ele>1147</ele>
        <time>2018-10-17T13:52:37Z</time>
      </trkpt>
      <trkpt lat="45.83641" lon="6.41726">
        <ele>1147</ele>
        <time>2018-10-17T13:52:38Z</time>
      </trkpt>
      <trkpt lat="45.83643" lon="6.41722">
        <ele>1146</ele>
        <time>2018-10-17T13:52:39Z</time>
      </trkpt>
      <trkpt lat="45.83646" lon="6.41718">
        <ele>1145</ele>
        <time>2018-10-17T13:52:40Z</time>
      </trkpt>
      <trkpt lat="45.83648" lon="6.41715">
        <ele>1145</ele>
        <time>2018-10-17T13:52:41Z</time>
      </trkpt>
      <trkpt lat="45.8365" lon="6.41713">
        <ele>1145</ele>
        <time>2018-10-17T13:52:42Z</time>
      </trkpt>
      <trkpt lat="45.83654" lon="6.41708">
        <ele>1145</ele>
        <time>2018-10-17T13:52:43Z</time>
      </trkpt>
      <trkpt lat="45.83656" lon="6.41704">
        <ele>1145</ele>
        <time>2018-10-17T13:52:44Z</time>
      </trkpt>
      <trkpt lat="45.83659" lon="6.41701">
        <ele>1145</ele>
        <time>2018-10-17T13:52:45Z</time>
      </trkpt>
      <trkpt lat="45.83661" lon="6.41698">
        <ele>1145</ele>
        <time>2018-10-17T13:52:46Z</time>
      </trkpt>
    </trkseg>
  </trk>
</gpx>